<?xml version="1.0" encoding="UTF-8" standalone="no" ?>
<gpx xmlns="http://www.topografix.com/GPX/1/1" xmlns:xsi="http://www.w3.org/2001/XMLSchema-instance" xsi:schemaLocation="http://www.topografix.com/GPX/1/1 http://www.topografix.com/GPX/1/1/gpx.xsd" version="1.1" creator="VisuGPX - https://www.visugpx.com">
  <metadata>
    <name>Col de Moissiere</name>
  </metadata>
  <trk>
    <name><![CDATA[Col de Moissiere]]></name>
    <trkseg>
      <trkpt lat="44.59986" lon="6.22005">
        <ele>1566.3</ele>
        <time>2022-09-11T08:13:09Z</time>
      </trkpt>
      <trkpt lat="44.59985" lon="6.22004">
        <ele>1566.2</ele>
        <time>2022-09-11T08:13:10Z</time>
      </trkpt>
      <trkpt lat="44.59985" lon="6.22003">
        <ele>1566.2</ele>
        <time>2022-09-11T08:13:14Z</time>
      </trkpt>
      <trkpt lat="44.59982" lon="6.22006">
        <ele>1566.2</ele>
        <time>2022-09-11T08:13:17Z</time>
      </trkpt>
      <trkpt lat="44.59982" lon="6.22007">
        <ele>1566.2</ele>
        <time>2022-09-11T08:13:18Z</time>
      </trkpt>
      <trkpt lat="44.59982" lon="6.22009">
        <ele>1566.1</ele>
        <time>2022-09-11T08:13:19Z</time>
      </trkpt>
      <trkpt lat="44.59982" lon="6.2201">
        <ele>1566.1</ele>
        <time>2022-09-11T08:13:20Z</time>
      </trkpt>
      <trkpt lat="44.59984" lon="6.2201">
        <ele>1566.1</ele>
        <time>2022-09-11T08:13:21Z</time>
      </trkpt>
      <trkpt lat="44.59985" lon="6.22009">
        <ele>1566.1</ele>
        <time>2022-09-11T08:13:22Z</time>
      </trkpt>
      <trkpt lat="44.59985" lon="6.22008">
        <ele>1566.1</ele>
        <time>2022-09-11T08:13:23Z</time>
      </trkpt>
      <trkpt lat="44.59986" lon="6.22008">
        <ele>1566.1</ele>
        <time>2022-09-11T08:13:24Z</time>
      </trkpt>
      <trkpt lat="44.59986" lon="6.22008">
        <ele>1566.1</ele>
        <time>2022-09-11T08:13:25Z</time>
      </trkpt>
      <trkpt lat="44.59986" lon="6.22008">
        <ele>1566.1</ele>
        <time>2022-09-11T08:13:26Z</time>
      </trkpt>
      <trkpt lat="44.59986" lon="6.22008">
        <ele>1566.1</ele>
        <time>2022-09-11T08:13:27Z</time>
      </trkpt>
      <trkpt lat="44.59986" lon="6.22008">
        <ele>1566.1</ele>
        <time>2022-09-11T08:13:28Z</time>
      </trkpt>
      <trkpt lat="44.59986" lon="6.22009">
        <ele>1566.1</ele>
        <time>2022-09-11T08:13:29Z</time>
      </trkpt>
      <trkpt lat="44.59986" lon="6.22009">
        <ele>1566</ele>
        <time>2022-09-11T08:13:30Z</time>
      </trkpt>
      <trkpt lat="44.59986" lon="6.22008">
        <ele>1566</ele>
        <time>2022-09-11T08:13:31Z</time>
      </trkpt>
      <trkpt lat="44.59986" lon="6.22008">
        <ele>1566</ele>
        <time>2022-09-11T08:13:33Z</time>
      </trkpt>
      <trkpt lat="44.59986" lon="6.22009">
        <ele>1566</ele>
        <time>2022-09-11T08:13:35Z</time>
      </trkpt>
      <trkpt lat="44.59986" lon="6.22009">
        <ele>1566</ele>
        <time>2022-09-11T08:13:36Z</time>
      </trkpt>
      <trkpt lat="44.59986" lon="6.22009">
        <ele>1566</ele>
        <time>2022-09-11T08:13:37Z</time>
      </trkpt>
      <trkpt lat="44.59986" lon="6.22009">
        <ele>1566</ele>
        <time>2022-09-11T08:13:38Z</time>
      </trkpt>
      <trkpt lat="44.59986" lon="6.2201">
        <ele>1566</ele>
        <time>2022-09-11T08:13:39Z</time>
      </trkpt>
      <trkpt lat="44.59986" lon="6.2201">
        <ele>1566</ele>
        <time>2022-09-11T08:13:41Z</time>
      </trkpt>
      <trkpt lat="44.59987" lon="6.2201">
        <ele>1566</ele>
        <time>2022-09-11T08:13:42Z</time>
      </trkpt>
      <trkpt lat="44.59988" lon="6.2201">
        <ele>1566</ele>
        <time>2022-09-11T08:13:43Z</time>
      </trkpt>
      <trkpt lat="44.59989" lon="6.2201">
        <ele>1566</ele>
        <time>2022-09-11T08:13:45Z</time>
      </trkpt>
      <trkpt lat="44.59991" lon="6.2201">
        <ele>1566</ele>
        <time>2022-09-11T08:13:46Z</time>
      </trkpt>
      <trkpt lat="44.59992" lon="6.22009">
        <ele>1565.9</ele>
        <time>2022-09-11T08:13:47Z</time>
      </trkpt>
      <trkpt lat="44.59993" lon="6.22009">
        <ele>1565.9</ele>
        <time>2022-09-11T08:13:49Z</time>
      </trkpt>
      <trkpt lat="44.59994" lon="6.22008">
        <ele>1565.9</ele>
        <time>2022-09-11T08:13:50Z</time>
      </trkpt>
      <trkpt lat="44.59994" lon="6.22008">
        <ele>1565.9</ele>
        <time>2022-09-11T08:13:51Z</time>
      </trkpt>
      <trkpt lat="44.59995" lon="6.22007">
        <ele>1565.9</ele>
        <time>2022-09-11T08:13:53Z</time>
      </trkpt>
      <trkpt lat="44.59995" lon="6.22007">
        <ele>1565.9</ele>
        <time>2022-09-11T08:13:54Z</time>
      </trkpt>
      <trkpt lat="44.59996" lon="6.22007">
        <ele>1565.9</ele>
        <time>2022-09-11T08:13:55Z</time>
      </trkpt>
      <trkpt lat="44.59996" lon="6.22007">
        <ele>1565.9</ele>
        <time>2022-09-11T08:13:56Z</time>
      </trkpt>
      <trkpt lat="44.59996" lon="6.22008">
        <ele>1565.9</ele>
        <time>2022-09-11T08:13:57Z</time>
      </trkpt>
      <trkpt lat="44.59996" lon="6.22009">
        <ele>1565.9</ele>
        <time>2022-09-11T08:13:58Z</time>
      </trkpt>
      <trkpt lat="44.59996" lon="6.22009">
        <ele>1565.9</ele>
        <time>2022-09-11T08:13:59Z</time>
      </trkpt>
      <trkpt lat="44.59997" lon="6.2201">
        <ele>1565.9</ele>
        <time>2022-09-11T08:14:00Z</time>
      </trkpt>
      <trkpt lat="44.59997" lon="6.2201">
        <ele>1565.9</ele>
        <time>2022-09-11T08:14:01Z</time>
      </trkpt>
      <trkpt lat="44.59997" lon="6.2201">
        <ele>1565.8</ele>
        <time>2022-09-11T08:14:02Z</time>
      </trkpt>
      <trkpt lat="44.59997" lon="6.22011">
        <ele>1565.8</ele>
        <time>2022-09-11T08:14:03Z</time>
      </trkpt>
      <trkpt lat="44.59997" lon="6.22011">
        <ele>1565.8</ele>
        <time>2022-09-11T08:14:04Z</time>
      </trkpt>
      <trkpt lat="44.59997" lon="6.22011">
        <ele>1565.8</ele>
        <time>2022-09-11T08:14:05Z</time>
      </trkpt>
      <trkpt lat="44.59997" lon="6.22011">
        <ele>1565.8</ele>
        <time>2022-09-11T08:14:06Z</time>
      </trkpt>
      <trkpt lat="44.59997" lon="6.22011">
        <ele>1565.8</ele>
        <time>2022-09-11T08:14:07Z</time>
      </trkpt>
      <trkpt lat="44.59997" lon="6.22012">
        <ele>1565.8</ele>
        <time>2022-09-11T08:14:08Z</time>
      </trkpt>
      <trkpt lat="44.59997" lon="6.22016">
        <ele>1565.8</ele>
        <time>2022-09-11T08:14:17Z</time>
      </trkpt>
      <trkpt lat="44.59997" lon="6.2202">
        <ele>1565.8</ele>
        <time>2022-09-11T08:14:18Z</time>
      </trkpt>
      <trkpt lat="44.59997" lon="6.22023">
        <ele>1565.7</ele>
        <time>2022-09-11T08:14:20Z</time>
      </trkpt>
      <trkpt lat="44.59998" lon="6.22025">
        <ele>1565.7</ele>
        <time>2022-09-11T08:14:21Z</time>
      </trkpt>
      <trkpt lat="44.59999" lon="6.22029">
        <ele>1565.7</ele>
        <time>2022-09-11T08:14:22Z</time>
      </trkpt>
      <trkpt lat="44.6" lon="6.2203">
        <ele>1565.7</ele>
        <time>2022-09-11T08:14:23Z</time>
      </trkpt>
      <trkpt lat="44.60002" lon="6.22033">
        <ele>1565.7</ele>
        <time>2022-09-11T08:14:24Z</time>
      </trkpt>
      <trkpt lat="44.60002" lon="6.22034">
        <ele>1565.7</ele>
        <time>2022-09-11T08:14:25Z</time>
      </trkpt>
      <trkpt lat="44.60003" lon="6.22037">
        <ele>1565.7</ele>
        <time>2022-09-11T08:14:26Z</time>
      </trkpt>
      <trkpt lat="44.60004" lon="6.22039">
        <ele>1565.7</ele>
        <time>2022-09-11T08:14:27Z</time>
      </trkpt>
      <trkpt lat="44.60005" lon="6.22043">
        <ele>1565.7</ele>
        <time>2022-09-11T08:14:28Z</time>
      </trkpt>
      <trkpt lat="44.60005" lon="6.22045">
        <ele>1565.7</ele>
        <time>2022-09-11T08:14:29Z</time>
      </trkpt>
      <trkpt lat="44.60007" lon="6.22049">
        <ele>1565.7</ele>
        <time>2022-09-11T08:14:30Z</time>
      </trkpt>
      <trkpt lat="44.60008" lon="6.22051">
        <ele>1565.7</ele>
        <time>2022-09-11T08:14:31Z</time>
      </trkpt>
      <trkpt lat="44.60011" lon="6.22054">
        <ele>1565.7</ele>
        <time>2022-09-11T08:14:32Z</time>
      </trkpt>
      <trkpt lat="44.60012" lon="6.22055">
        <ele>1565.7</ele>
        <time>2022-09-11T08:14:33Z</time>
      </trkpt>
      <trkpt lat="44.60015" lon="6.22058">
        <ele>1565.7</ele>
        <time>2022-09-11T08:14:34Z</time>
      </trkpt>
      <trkpt lat="44.60016" lon="6.22062">
        <ele>1565.6</ele>
        <time>2022-09-11T08:14:35Z</time>
      </trkpt>
      <trkpt lat="44.60016" lon="6.22065">
        <ele>1565.5</ele>
        <time>2022-09-11T08:14:36Z</time>
      </trkpt>
      <trkpt lat="44.60015" lon="6.22068">
        <ele>1565.4</ele>
        <time>2022-09-11T08:14:38Z</time>
      </trkpt>
      <trkpt lat="44.6001" lon="6.2207">
        <ele>1565.2</ele>
        <time>2022-09-11T08:14:39Z</time>
      </trkpt>
      <trkpt lat="44.60005" lon="6.2207">
        <ele>1565.1</ele>
        <time>2022-09-11T08:14:41Z</time>
      </trkpt>
      <trkpt lat="44.6" lon="6.22069">
        <ele>1564.9</ele>
        <time>2022-09-11T08:14:42Z</time>
      </trkpt>
      <trkpt lat="44.59996" lon="6.22068">
        <ele>1564.7</ele>
        <time>2022-09-11T08:14:44Z</time>
      </trkpt>
      <trkpt lat="44.59994" lon="6.22067">
        <ele>1564.6</ele>
        <time>2022-09-11T08:14:45Z</time>
      </trkpt>
      <trkpt lat="44.59987" lon="6.22064">
        <ele>1564.3</ele>
        <time>2022-09-11T08:14:46Z</time>
      </trkpt>
      <trkpt lat="44.59982" lon="6.22058">
        <ele>1564</ele>
        <time>2022-09-11T08:14:47Z</time>
      </trkpt>
      <trkpt lat="44.59979" lon="6.22053">
        <ele>1563.8</ele>
        <time>2022-09-11T08:14:49Z</time>
      </trkpt>
      <trkpt lat="44.59976" lon="6.22049">
        <ele>1563.6</ele>
        <time>2022-09-11T08:14:50Z</time>
      </trkpt>
      <trkpt lat="44.59972" lon="6.22042">
        <ele>1563.3</ele>
        <time>2022-09-11T08:14:51Z</time>
      </trkpt>
      <trkpt lat="44.5997" lon="6.22036">
        <ele>1563</ele>
        <time>2022-09-11T08:14:52Z</time>
      </trkpt>
      <trkpt lat="44.59966" lon="6.22025">
        <ele>1562.5</ele>
        <time>2022-09-11T08:14:54Z</time>
      </trkpt>
      <trkpt lat="44.59965" lon="6.22018">
        <ele>1562.2</ele>
        <time>2022-09-11T08:14:55Z</time>
      </trkpt>
      <trkpt lat="44.59964" lon="6.2201">
        <ele>1561.8</ele>
        <time>2022-09-11T08:14:56Z</time>
      </trkpt>
      <trkpt lat="44.59964" lon="6.22001">
        <ele>1561.4</ele>
        <time>2022-09-11T08:14:57Z</time>
      </trkpt>
      <trkpt lat="44.59966" lon="6.21993">
        <ele>1561.1</ele>
        <time>2022-09-11T08:14:58Z</time>
      </trkpt>
      <trkpt lat="44.59968" lon="6.21984">
        <ele>1560.6</ele>
        <time>2022-09-11T08:14:59Z</time>
      </trkpt>
      <trkpt lat="44.59971" lon="6.21976">
        <ele>1560.2</ele>
        <time>2022-09-11T08:15:00Z</time>
      </trkpt>
      <trkpt lat="44.59974" lon="6.21967">
        <ele>1559.8</ele>
        <time>2022-09-11T08:15:01Z</time>
      </trkpt>
      <trkpt lat="44.59975" lon="6.21958">
        <ele>1559.4</ele>
        <time>2022-09-11T08:15:02Z</time>
      </trkpt>
      <trkpt lat="44.59975" lon="6.21949">
        <ele>1559</ele>
        <time>2022-09-11T08:15:03Z</time>
      </trkpt>
      <trkpt lat="44.59972" lon="6.21942">
        <ele>1558.6</ele>
        <time>2022-09-11T08:15:04Z</time>
      </trkpt>
      <trkpt lat="44.59968" lon="6.21937">
        <ele>1558.2</ele>
        <time>2022-09-11T08:15:05Z</time>
      </trkpt>
      <trkpt lat="44.59963" lon="6.21935">
        <ele>1557.8</ele>
        <time>2022-09-11T08:15:06Z</time>
      </trkpt>
      <trkpt lat="44.59956" lon="6.21935">
        <ele>1557.3</ele>
        <time>2022-09-11T08:15:07Z</time>
      </trkpt>
      <trkpt lat="44.5995" lon="6.2194">
        <ele>1556.7</ele>
        <time>2022-09-11T08:15:08Z</time>
      </trkpt>
      <trkpt lat="44.59946" lon="6.21948">
        <ele>1556.2</ele>
        <time>2022-09-11T08:15:09Z</time>
      </trkpt>
      <trkpt lat="44.59944" lon="6.21958">
        <ele>1555.6</ele>
        <time>2022-09-11T08:15:10Z</time>
      </trkpt>
      <trkpt lat="44.59942" lon="6.21968">
        <ele>1555</ele>
        <time>2022-09-11T08:15:11Z</time>
      </trkpt>
      <trkpt lat="44.59939" lon="6.21977">
        <ele>1554.4</ele>
        <time>2022-09-11T08:15:12Z</time>
      </trkpt>
      <trkpt lat="44.59938" lon="6.21988">
        <ele>1553.8</ele>
        <time>2022-09-11T08:15:13Z</time>
      </trkpt>
      <trkpt lat="44.59935" lon="6.21999">
        <ele>1553.1</ele>
        <time>2022-09-11T08:15:14Z</time>
      </trkpt>
      <trkpt lat="44.59932" lon="6.2201">
        <ele>1552.4</ele>
        <time>2022-09-11T08:15:15Z</time>
      </trkpt>
      <trkpt lat="44.59929" lon="6.22021">
        <ele>1551.7</ele>
        <time>2022-09-11T08:15:16Z</time>
      </trkpt>
      <trkpt lat="44.59926" lon="6.2203">
        <ele>1551.2</ele>
        <time>2022-09-11T08:15:17Z</time>
      </trkpt>
      <trkpt lat="44.59925" lon="6.22036">
        <ele>1550.8</ele>
        <time>2022-09-11T08:15:18Z</time>
      </trkpt>
      <trkpt lat="44.59924" lon="6.2204">
        <ele>1550.6</ele>
        <time>2022-09-11T08:15:19Z</time>
      </trkpt>
      <trkpt lat="44.59924" lon="6.22041">
        <ele>1550.5</ele>
        <time>2022-09-11T08:15:20Z</time>
      </trkpt>
      <trkpt lat="44.59924" lon="6.22041">
        <ele>1550.5</ele>
        <time>2022-09-11T08:15:21Z</time>
      </trkpt>
      <trkpt lat="44.59923" lon="6.22041">
        <ele>1550.4</ele>
        <time>2022-09-11T08:15:22Z</time>
      </trkpt>
      <trkpt lat="44.59923" lon="6.2204">
        <ele>1550.4</ele>
        <time>2022-09-11T08:15:23Z</time>
      </trkpt>
      <trkpt lat="44.59923" lon="6.2204">
        <ele>1550.4</ele>
        <time>2022-09-11T08:15:24Z</time>
      </trkpt>
      <trkpt lat="44.59923" lon="6.2204">
        <ele>1550.4</ele>
        <time>2022-09-11T08:15:25Z</time>
      </trkpt>
      <trkpt lat="44.59923" lon="6.2204">
        <ele>1550.3</ele>
        <time>2022-09-11T08:15:26Z</time>
      </trkpt>
      <trkpt lat="44.59923" lon="6.2204">
        <ele>1550.3</ele>
        <time>2022-09-11T08:15:27Z</time>
      </trkpt>
      <trkpt lat="44.59923" lon="6.2204">
        <ele>1550.3</ele>
        <time>2022-09-11T08:15:28Z</time>
      </trkpt>
      <trkpt lat="44.59923" lon="6.2204">
        <ele>1550.3</ele>
        <time>2022-09-11T08:15:30Z</time>
      </trkpt>
      <trkpt lat="44.59923" lon="6.2204">
        <ele>1550.3</ele>
        <time>2022-09-11T08:15:31Z</time>
      </trkpt>
      <trkpt lat="44.59923" lon="6.22039">
        <ele>1550.3</ele>
        <time>2022-09-11T08:15:32Z</time>
      </trkpt>
      <trkpt lat="44.59922" lon="6.22039">
        <ele>1550.2</ele>
        <time>2022-09-11T08:15:33Z</time>
      </trkpt>
      <trkpt lat="44.59922" lon="6.22039">
        <ele>1550.2</ele>
        <time>2022-09-11T08:15:34Z</time>
      </trkpt>
      <trkpt lat="44.59922" lon="6.22039">
        <ele>1550.2</ele>
        <time>2022-09-11T08:15:35Z</time>
      </trkpt>
      <trkpt lat="44.59922" lon="6.22039">
        <ele>1550.2</ele>
        <time>2022-09-11T08:15:36Z</time>
      </trkpt>
      <trkpt lat="44.59922" lon="6.22039">
        <ele>1550.2</ele>
        <time>2022-09-11T08:15:37Z</time>
      </trkpt>
      <trkpt lat="44.59922" lon="6.22039">
        <ele>1550.2</ele>
        <time>2022-09-11T08:15:38Z</time>
      </trkpt>
      <trkpt lat="44.59922" lon="6.22039">
        <ele>1550.2</ele>
        <time>2022-09-11T08:15:39Z</time>
      </trkpt>
      <trkpt lat="44.59922" lon="6.22039">
        <ele>1550.2</ele>
        <time>2022-09-11T08:15:40Z</time>
      </trkpt>
      <trkpt lat="44.59921" lon="6.22044">
        <ele>1549.9</ele>
        <time>2022-09-11T08:15:55Z</time>
      </trkpt>
      <trkpt lat="44.59921" lon="6.22048">
        <ele>1549.6</ele>
        <time>2022-09-11T08:15:56Z</time>
      </trkpt>
      <trkpt lat="44.5992" lon="6.22053">
        <ele>1549.3</ele>
        <time>2022-09-11T08:15:57Z</time>
      </trkpt>
      <trkpt lat="44.59918" lon="6.22064">
        <ele>1548.7</ele>
        <time>2022-09-11T08:15:59Z</time>
      </trkpt>
      <trkpt lat="44.59916" lon="6.22071">
        <ele>1548.2</ele>
        <time>2022-09-11T08:16:00Z</time>
      </trkpt>
      <trkpt lat="44.59914" lon="6.22078">
        <ele>1547.7</ele>
        <time>2022-09-11T08:16:01Z</time>
      </trkpt>
      <trkpt lat="44.59913" lon="6.22086">
        <ele>1547.2</ele>
        <time>2022-09-11T08:16:02Z</time>
      </trkpt>
      <trkpt lat="44.59912" lon="6.22095">
        <ele>1546.6</ele>
        <time>2022-09-11T08:16:03Z</time>
      </trkpt>
      <trkpt lat="44.59911" lon="6.22105">
        <ele>1546</ele>
        <time>2022-09-11T08:16:04Z</time>
      </trkpt>
      <trkpt lat="44.5991" lon="6.22115">
        <ele>1545.4</ele>
        <time>2022-09-11T08:16:05Z</time>
      </trkpt>
      <trkpt lat="44.5991" lon="6.22125">
        <ele>1544.7</ele>
        <time>2022-09-11T08:16:06Z</time>
      </trkpt>
      <trkpt lat="44.5991" lon="6.22137">
        <ele>1544</ele>
        <time>2022-09-11T08:16:07Z</time>
      </trkpt>
      <trkpt lat="44.59911" lon="6.22148">
        <ele>1543.2</ele>
        <time>2022-09-11T08:16:08Z</time>
      </trkpt>
      <trkpt lat="44.59913" lon="6.2216">
        <ele>1542.5</ele>
        <time>2022-09-11T08:16:09Z</time>
      </trkpt>
      <trkpt lat="44.59916" lon="6.22172">
        <ele>1541.7</ele>
        <time>2022-09-11T08:16:10Z</time>
      </trkpt>
      <trkpt lat="44.5992" lon="6.22183">
        <ele>1540.9</ele>
        <time>2022-09-11T08:16:11Z</time>
      </trkpt>
      <trkpt lat="44.59922" lon="6.22195">
        <ele>1540</ele>
        <time>2022-09-11T08:16:12Z</time>
      </trkpt>
      <trkpt lat="44.59922" lon="6.22206">
        <ele>1539.2</ele>
        <time>2022-09-11T08:16:13Z</time>
      </trkpt>
      <trkpt lat="44.5992" lon="6.22217">
        <ele>1538.4</ele>
        <time>2022-09-11T08:16:14Z</time>
      </trkpt>
      <trkpt lat="44.59915" lon="6.22228">
        <ele>1537.4</ele>
        <time>2022-09-11T08:16:15Z</time>
      </trkpt>
      <trkpt lat="44.5991" lon="6.22239">
        <ele>1536.5</ele>
        <time>2022-09-11T08:16:16Z</time>
      </trkpt>
      <trkpt lat="44.59905" lon="6.22251">
        <ele>1535.5</ele>
        <time>2022-09-11T08:16:17Z</time>
      </trkpt>
      <trkpt lat="44.599" lon="6.22263">
        <ele>1534.5</ele>
        <time>2022-09-11T08:16:18Z</time>
      </trkpt>
      <trkpt lat="44.59895" lon="6.22274">
        <ele>1533.6</ele>
        <time>2022-09-11T08:16:19Z</time>
      </trkpt>
      <trkpt lat="44.5989" lon="6.22285">
        <ele>1532.5</ele>
        <time>2022-09-11T08:16:20Z</time>
      </trkpt>
      <trkpt lat="44.59883" lon="6.22296">
        <ele>1531.6</ele>
        <time>2022-09-11T08:16:21Z</time>
      </trkpt>
      <trkpt lat="44.59874" lon="6.22305">
        <ele>1530.5</ele>
        <time>2022-09-11T08:16:22Z</time>
      </trkpt>
      <trkpt lat="44.59865" lon="6.22313">
        <ele>1529.5</ele>
        <time>2022-09-11T08:16:23Z</time>
      </trkpt>
      <trkpt lat="44.59853" lon="6.22319">
        <ele>1528.3</ele>
        <time>2022-09-11T08:16:24Z</time>
      </trkpt>
      <trkpt lat="44.59842" lon="6.22322">
        <ele>1527.3</ele>
        <time>2022-09-11T08:16:25Z</time>
      </trkpt>
      <trkpt lat="44.59829" lon="6.22324">
        <ele>1526.1</ele>
        <time>2022-09-11T08:16:26Z</time>
      </trkpt>
      <trkpt lat="44.59816" lon="6.22326">
        <ele>1524.9</ele>
        <time>2022-09-11T08:16:27Z</time>
      </trkpt>
      <trkpt lat="44.59804" lon="6.22329">
        <ele>1523.8</ele>
        <time>2022-09-11T08:16:28Z</time>
      </trkpt>
      <trkpt lat="44.59792" lon="6.22334">
        <ele>1522.8</ele>
        <time>2022-09-11T08:16:29Z</time>
      </trkpt>
      <trkpt lat="44.59784" lon="6.22341">
        <ele>1521.9</ele>
        <time>2022-09-11T08:16:30Z</time>
      </trkpt>
      <trkpt lat="44.59776" lon="6.22347">
        <ele>1521.2</ele>
        <time>2022-09-11T08:16:31Z</time>
      </trkpt>
      <trkpt lat="44.59769" lon="6.22352">
        <ele>1520.5</ele>
        <time>2022-09-11T08:16:32Z</time>
      </trkpt>
      <trkpt lat="44.59762" lon="6.22357">
        <ele>1519.8</ele>
        <time>2022-09-11T08:16:33Z</time>
      </trkpt>
      <trkpt lat="44.59757" lon="6.22366">
        <ele>1519</ele>
        <time>2022-09-11T08:16:34Z</time>
      </trkpt>
      <trkpt lat="44.59755" lon="6.22376">
        <ele>1518.1</ele>
        <time>2022-09-11T08:16:35Z</time>
      </trkpt>
      <trkpt lat="44.59754" lon="6.22387">
        <ele>1517.3</ele>
        <time>2022-09-11T08:16:36Z</time>
      </trkpt>
      <trkpt lat="44.59755" lon="6.22398">
        <ele>1516.3</ele>
        <time>2022-09-11T08:16:37Z</time>
      </trkpt>
      <trkpt lat="44.59757" lon="6.2241">
        <ele>1515.3</ele>
        <time>2022-09-11T08:16:38Z</time>
      </trkpt>
      <trkpt lat="44.59759" lon="6.22423">
        <ele>1514.2</ele>
        <time>2022-09-11T08:16:39Z</time>
      </trkpt>
      <trkpt lat="44.59763" lon="6.22436">
        <ele>1513</ele>
        <time>2022-09-11T08:16:40Z</time>
      </trkpt>
      <trkpt lat="44.59766" lon="6.2245">
        <ele>1511.7</ele>
        <time>2022-09-11T08:16:41Z</time>
      </trkpt>
      <trkpt lat="44.59769" lon="6.22465">
        <ele>1510.5</ele>
        <time>2022-09-11T08:16:42Z</time>
      </trkpt>
      <trkpt lat="44.59772" lon="6.22481">
        <ele>1509.1</ele>
        <time>2022-09-11T08:16:43Z</time>
      </trkpt>
      <trkpt lat="44.59774" lon="6.22497">
        <ele>1507.8</ele>
        <time>2022-09-11T08:16:44Z</time>
      </trkpt>
      <trkpt lat="44.59775" lon="6.22515">
        <ele>1506.3</ele>
        <time>2022-09-11T08:16:45Z</time>
      </trkpt>
      <trkpt lat="44.59775" lon="6.22531">
        <ele>1505</ele>
        <time>2022-09-11T08:16:46Z</time>
      </trkpt>
      <trkpt lat="44.59774" lon="6.22548">
        <ele>1503.5</ele>
        <time>2022-09-11T08:16:47Z</time>
      </trkpt>
      <trkpt lat="44.59773" lon="6.22567">
        <ele>1502</ele>
        <time>2022-09-11T08:16:48Z</time>
      </trkpt>
      <trkpt lat="44.59772" lon="6.22585">
        <ele>1500.4</ele>
        <time>2022-09-11T08:16:49Z</time>
      </trkpt>
      <trkpt lat="44.59771" lon="6.22605">
        <ele>1498.7</ele>
        <time>2022-09-11T08:16:50Z</time>
      </trkpt>
      <trkpt lat="44.5977" lon="6.22625">
        <ele>1497</ele>
        <time>2022-09-11T08:16:51Z</time>
      </trkpt>
      <trkpt lat="44.59769" lon="6.22644">
        <ele>1495.3</ele>
        <time>2022-09-11T08:16:52Z</time>
      </trkpt>
      <trkpt lat="44.59769" lon="6.22664">
        <ele>1493.7</ele>
        <time>2022-09-11T08:16:53Z</time>
      </trkpt>
      <trkpt lat="44.5977" lon="6.22685">
        <ele>1491.9</ele>
        <time>2022-09-11T08:16:54Z</time>
      </trkpt>
      <trkpt lat="44.5977" lon="6.22706">
        <ele>1490.2</ele>
        <time>2022-09-11T08:16:55Z</time>
      </trkpt>
      <trkpt lat="44.5977" lon="6.22727">
        <ele>1488.5</ele>
        <time>2022-09-11T08:16:56Z</time>
      </trkpt>
      <trkpt lat="44.59769" lon="6.22748">
        <ele>1486.9</ele>
        <time>2022-09-11T08:16:57Z</time>
      </trkpt>
      <trkpt lat="44.59767" lon="6.22766">
        <ele>1485.3</ele>
        <time>2022-09-11T08:16:58Z</time>
      </trkpt>
      <trkpt lat="44.59766" lon="6.22784">
        <ele>1483.9</ele>
        <time>2022-09-11T08:16:59Z</time>
      </trkpt>
      <trkpt lat="44.59765" lon="6.228">
        <ele>1482.5</ele>
        <time>2022-09-11T08:17:00Z</time>
      </trkpt>
      <trkpt lat="44.59764" lon="6.22817">
        <ele>1481</ele>
        <time>2022-09-11T08:17:01Z</time>
      </trkpt>
      <trkpt lat="44.59763" lon="6.22833">
        <ele>1479.8</ele>
        <time>2022-09-11T08:17:02Z</time>
      </trkpt>
      <trkpt lat="44.59761" lon="6.22845">
        <ele>1478.8</ele>
        <time>2022-09-11T08:17:03Z</time>
      </trkpt>
      <trkpt lat="44.5976" lon="6.22857">
        <ele>1477.8</ele>
        <time>2022-09-11T08:17:04Z</time>
      </trkpt>
      <trkpt lat="44.59761" lon="6.22868">
        <ele>1476.9</ele>
        <time>2022-09-11T08:17:05Z</time>
      </trkpt>
      <trkpt lat="44.59764" lon="6.2288">
        <ele>1475.9</ele>
        <time>2022-09-11T08:17:06Z</time>
      </trkpt>
      <trkpt lat="44.59767" lon="6.22892">
        <ele>1474.8</ele>
        <time>2022-09-11T08:17:07Z</time>
      </trkpt>
      <trkpt lat="44.5977" lon="6.22905">
        <ele>1473.6</ele>
        <time>2022-09-11T08:17:08Z</time>
      </trkpt>
      <trkpt lat="44.59774" lon="6.2292">
        <ele>1472.2</ele>
        <time>2022-09-11T08:17:09Z</time>
      </trkpt>
      <trkpt lat="44.59779" lon="6.22931">
        <ele>1471</ele>
        <time>2022-09-11T08:17:10Z</time>
      </trkpt>
      <trkpt lat="44.59782" lon="6.22943">
        <ele>1469.8</ele>
        <time>2022-09-11T08:17:11Z</time>
      </trkpt>
      <trkpt lat="44.59783" lon="6.22956">
        <ele>1468.5</ele>
        <time>2022-09-11T08:17:12Z</time>
      </trkpt>
      <trkpt lat="44.59784" lon="6.22971">
        <ele>1467.1</ele>
        <time>2022-09-11T08:17:13Z</time>
      </trkpt>
      <trkpt lat="44.59783" lon="6.22987">
        <ele>1465.6</ele>
        <time>2022-09-11T08:17:14Z</time>
      </trkpt>
      <trkpt lat="44.59781" lon="6.23003">
        <ele>1464.1</ele>
        <time>2022-09-11T08:17:15Z</time>
      </trkpt>
      <trkpt lat="44.59779" lon="6.2302">
        <ele>1462.6</ele>
        <time>2022-09-11T08:17:16Z</time>
      </trkpt>
      <trkpt lat="44.59778" lon="6.23036">
        <ele>1461.3</ele>
        <time>2022-09-11T08:17:17Z</time>
      </trkpt>
      <trkpt lat="44.59776" lon="6.2305">
        <ele>1460.1</ele>
        <time>2022-09-11T08:17:18Z</time>
      </trkpt>
      <trkpt lat="44.59775" lon="6.23063">
        <ele>1459</ele>
        <time>2022-09-11T08:17:19Z</time>
      </trkpt>
      <trkpt lat="44.59774" lon="6.23074">
        <ele>1458</ele>
        <time>2022-09-11T08:17:20Z</time>
      </trkpt>
      <trkpt lat="44.59773" lon="6.23086">
        <ele>1457</ele>
        <time>2022-09-11T08:17:21Z</time>
      </trkpt>
      <trkpt lat="44.59771" lon="6.23099">
        <ele>1455.9</ele>
        <time>2022-09-11T08:17:22Z</time>
      </trkpt>
      <trkpt lat="44.59769" lon="6.23114">
        <ele>1454.7</ele>
        <time>2022-09-11T08:17:23Z</time>
      </trkpt>
      <trkpt lat="44.59767" lon="6.23128">
        <ele>1453.5</ele>
        <time>2022-09-11T08:17:24Z</time>
      </trkpt>
      <trkpt lat="44.59762" lon="6.23141">
        <ele>1452.3</ele>
        <time>2022-09-11T08:17:25Z</time>
      </trkpt>
      <trkpt lat="44.59758" lon="6.23152">
        <ele>1451.2</ele>
        <time>2022-09-11T08:17:26Z</time>
      </trkpt>
      <trkpt lat="44.59753" lon="6.23162">
        <ele>1450.2</ele>
        <time>2022-09-11T08:17:27Z</time>
      </trkpt>
      <trkpt lat="44.59747" lon="6.23172">
        <ele>1449.2</ele>
        <time>2022-09-11T08:17:28Z</time>
      </trkpt>
      <trkpt lat="44.59743" lon="6.23178">
        <ele>1448.4</ele>
        <time>2022-09-11T08:17:29Z</time>
      </trkpt>
      <trkpt lat="44.59738" lon="6.23183">
        <ele>1447.7</ele>
        <time>2022-09-11T08:17:30Z</time>
      </trkpt>
      <trkpt lat="44.59731" lon="6.23167">
        <ele>1446.1</ele>
        <time>2022-09-11T08:17:31Z</time>
      </trkpt>
      <trkpt lat="44.59723" lon="6.23153">
        <ele>1444.7</ele>
        <time>2022-09-11T08:17:32Z</time>
      </trkpt>
      <trkpt lat="44.59717" lon="6.23138">
        <ele>1443.6</ele>
        <time>2022-09-11T08:17:33Z</time>
      </trkpt>
      <trkpt lat="44.59711" lon="6.23124">
        <ele>1442.5</ele>
        <time>2022-09-11T08:17:34Z</time>
      </trkpt>
      <trkpt lat="44.59706" lon="6.23111">
        <ele>1441.6</ele>
        <time>2022-09-11T08:17:35Z</time>
      </trkpt>
      <trkpt lat="44.59702" lon="6.231">
        <ele>1440.9</ele>
        <time>2022-09-11T08:17:36Z</time>
      </trkpt>
      <trkpt lat="44.59698" lon="6.2309">
        <ele>1440.2</ele>
        <time>2022-09-11T08:17:37Z</time>
      </trkpt>
      <trkpt lat="44.59694" lon="6.23079">
        <ele>1439.5</ele>
        <time>2022-09-11T08:17:38Z</time>
      </trkpt>
      <trkpt lat="44.5969" lon="6.23069">
        <ele>1438.8</ele>
        <time>2022-09-11T08:17:39Z</time>
      </trkpt>
      <trkpt lat="44.59686" lon="6.23059">
        <ele>1438</ele>
        <time>2022-09-11T08:17:40Z</time>
      </trkpt>
      <trkpt lat="44.59681" lon="6.23048">
        <ele>1437.2</ele>
        <time>2022-09-11T08:17:41Z</time>
      </trkpt>
      <trkpt lat="44.59677" lon="6.2304">
        <ele>1436.4</ele>
        <time>2022-09-11T08:17:42Z</time>
      </trkpt>
      <trkpt lat="44.59673" lon="6.23031">
        <ele>1435.5</ele>
        <time>2022-09-11T08:17:43Z</time>
      </trkpt>
      <trkpt lat="44.59669" lon="6.23023">
        <ele>1434.7</ele>
        <time>2022-09-11T08:17:44Z</time>
      </trkpt>
      <trkpt lat="44.59664" lon="6.23013">
        <ele>1433.7</ele>
        <time>2022-09-11T08:17:45Z</time>
      </trkpt>
      <trkpt lat="44.59658" lon="6.23002">
        <ele>1432.6</ele>
        <time>2022-09-11T08:17:46Z</time>
      </trkpt>
      <trkpt lat="44.59652" lon="6.22991">
        <ele>1431.4</ele>
        <time>2022-09-11T08:17:47Z</time>
      </trkpt>
      <trkpt lat="44.59645" lon="6.22981">
        <ele>1430.1</ele>
        <time>2022-09-11T08:17:48Z</time>
      </trkpt>
      <trkpt lat="44.59637" lon="6.2297">
        <ele>1428.7</ele>
        <time>2022-09-11T08:17:49Z</time>
      </trkpt>
      <trkpt lat="44.5963" lon="6.2296">
        <ele>1427.4</ele>
        <time>2022-09-11T08:17:50Z</time>
      </trkpt>
      <trkpt lat="44.5962" lon="6.2295">
        <ele>1426</ele>
        <time>2022-09-11T08:17:51Z</time>
      </trkpt>
      <trkpt lat="44.5961" lon="6.22941">
        <ele>1424.5</ele>
        <time>2022-09-11T08:17:52Z</time>
      </trkpt>
      <trkpt lat="44.59599" lon="6.22933">
        <ele>1422.8</ele>
        <time>2022-09-11T08:17:53Z</time>
      </trkpt>
      <trkpt lat="44.59588" lon="6.22926">
        <ele>1421.1</ele>
        <time>2022-09-11T08:17:54Z</time>
      </trkpt>
      <trkpt lat="44.59578" lon="6.2292">
        <ele>1419.6</ele>
        <time>2022-09-11T08:17:55Z</time>
      </trkpt>
      <trkpt lat="44.59568" lon="6.22913">
        <ele>1418.1</ele>
        <time>2022-09-11T08:17:56Z</time>
      </trkpt>
      <trkpt lat="44.59559" lon="6.22905">
        <ele>1416.7</ele>
        <time>2022-09-11T08:17:57Z</time>
      </trkpt>
      <trkpt lat="44.59551" lon="6.22894">
        <ele>1415.6</ele>
        <time>2022-09-11T08:17:58Z</time>
      </trkpt>
      <trkpt lat="44.59543" lon="6.22883">
        <ele>1414.4</ele>
        <time>2022-09-11T08:17:59Z</time>
      </trkpt>
      <trkpt lat="44.59536" lon="6.22871">
        <ele>1413.3</ele>
        <time>2022-09-11T08:18:00Z</time>
      </trkpt>
      <trkpt lat="44.59529" lon="6.2286">
        <ele>1412.2</ele>
        <time>2022-09-11T08:18:01Z</time>
      </trkpt>
      <trkpt lat="44.59522" lon="6.22847">
        <ele>1411.1</ele>
        <time>2022-09-11T08:18:02Z</time>
      </trkpt>
      <trkpt lat="44.59517" lon="6.22834">
        <ele>1410.1</ele>
        <time>2022-09-11T08:18:03Z</time>
      </trkpt>
      <trkpt lat="44.59511" lon="6.22822">
        <ele>1409.1</ele>
        <time>2022-09-11T08:18:04Z</time>
      </trkpt>
      <trkpt lat="44.59503" lon="6.2281">
        <ele>1408</ele>
        <time>2022-09-11T08:18:05Z</time>
      </trkpt>
      <trkpt lat="44.59496" lon="6.22798">
        <ele>1406.9</ele>
        <time>2022-09-11T08:18:06Z</time>
      </trkpt>
      <trkpt lat="44.59489" lon="6.22788">
        <ele>1405.9</ele>
        <time>2022-09-11T08:18:07Z</time>
      </trkpt>
      <trkpt lat="44.5948" lon="6.22777">
        <ele>1404.7</ele>
        <time>2022-09-11T08:18:08Z</time>
      </trkpt>
      <trkpt lat="44.59472" lon="6.22766">
        <ele>1403.4</ele>
        <time>2022-09-11T08:18:09Z</time>
      </trkpt>
      <trkpt lat="44.59464" lon="6.22756">
        <ele>1402.1</ele>
        <time>2022-09-11T08:18:10Z</time>
      </trkpt>
      <trkpt lat="44.59458" lon="6.22746">
        <ele>1401</ele>
        <time>2022-09-11T08:18:11Z</time>
      </trkpt>
      <trkpt lat="44.59456" lon="6.22734">
        <ele>1399.9</ele>
        <time>2022-09-11T08:18:12Z</time>
      </trkpt>
      <trkpt lat="44.59459" lon="6.22721">
        <ele>1398.8</ele>
        <time>2022-09-11T08:18:13Z</time>
      </trkpt>
      <trkpt lat="44.59464" lon="6.22709">
        <ele>1397.4</ele>
        <time>2022-09-11T08:18:14Z</time>
      </trkpt>
      <trkpt lat="44.59471" lon="6.22696">
        <ele>1395.9</ele>
        <time>2022-09-11T08:18:15Z</time>
      </trkpt>
      <trkpt lat="44.59479" lon="6.22685">
        <ele>1394.3</ele>
        <time>2022-09-11T08:18:16Z</time>
      </trkpt>
      <trkpt lat="44.59486" lon="6.22672">
        <ele>1392.6</ele>
        <time>2022-09-11T08:18:17Z</time>
      </trkpt>
      <trkpt lat="44.59492" lon="6.22656">
        <ele>1390.7</ele>
        <time>2022-09-11T08:18:18Z</time>
      </trkpt>
      <trkpt lat="44.59499" lon="6.22639">
        <ele>1388.6</ele>
        <time>2022-09-11T08:18:19Z</time>
      </trkpt>
      <trkpt lat="44.59504" lon="6.22622">
        <ele>1386.6</ele>
        <time>2022-09-11T08:18:20Z</time>
      </trkpt>
      <trkpt lat="44.59508" lon="6.22606">
        <ele>1384.6</ele>
        <time>2022-09-11T08:18:21Z</time>
      </trkpt>
      <trkpt lat="44.59511" lon="6.2259">
        <ele>1382.7</ele>
        <time>2022-09-11T08:18:22Z</time>
      </trkpt>
      <trkpt lat="44.59513" lon="6.22577">
        <ele>1381.2</ele>
        <time>2022-09-11T08:18:23Z</time>
      </trkpt>
      <trkpt lat="44.59514" lon="6.22565">
        <ele>1380</ele>
        <time>2022-09-11T08:18:24Z</time>
      </trkpt>
      <trkpt lat="44.59512" lon="6.22552">
        <ele>1378.6</ele>
        <time>2022-09-11T08:18:25Z</time>
      </trkpt>
      <trkpt lat="44.59508" lon="6.22536">
        <ele>1376.9</ele>
        <time>2022-09-11T08:18:26Z</time>
      </trkpt>
      <trkpt lat="44.59505" lon="6.2252">
        <ele>1375.3</ele>
        <time>2022-09-11T08:18:27Z</time>
      </trkpt>
      <trkpt lat="44.59498" lon="6.22502">
        <ele>1373.3</ele>
        <time>2022-09-11T08:18:28Z</time>
      </trkpt>
      <trkpt lat="44.59491" lon="6.22486">
        <ele>1371.4</ele>
        <time>2022-09-11T08:18:29Z</time>
      </trkpt>
      <trkpt lat="44.59485" lon="6.22469">
        <ele>1369.6</ele>
        <time>2022-09-11T08:18:30Z</time>
      </trkpt>
      <trkpt lat="44.5948" lon="6.22454">
        <ele>1367.9</ele>
        <time>2022-09-11T08:18:31Z</time>
      </trkpt>
      <trkpt lat="44.59474" lon="6.22439">
        <ele>1366.3</ele>
        <time>2022-09-11T08:18:32Z</time>
      </trkpt>
      <trkpt lat="44.59467" lon="6.22425">
        <ele>1364.7</ele>
        <time>2022-09-11T08:18:33Z</time>
      </trkpt>
      <trkpt lat="44.5946" lon="6.22414">
        <ele>1363.2</ele>
        <time>2022-09-11T08:18:34Z</time>
      </trkpt>
      <trkpt lat="44.59455" lon="6.22402">
        <ele>1361.9</ele>
        <time>2022-09-11T08:18:35Z</time>
      </trkpt>
      <trkpt lat="44.5945" lon="6.22389">
        <ele>1360.6</ele>
        <time>2022-09-11T08:18:36Z</time>
      </trkpt>
      <trkpt lat="44.59448" lon="6.22374">
        <ele>1359.2</ele>
        <time>2022-09-11T08:18:37Z</time>
      </trkpt>
      <trkpt lat="44.59448" lon="6.2236">
        <ele>1357.8</ele>
        <time>2022-09-11T08:18:38Z</time>
      </trkpt>
      <trkpt lat="44.59448" lon="6.22348">
        <ele>1356.8</ele>
        <time>2022-09-11T08:18:39Z</time>
      </trkpt>
      <trkpt lat="44.59447" lon="6.22341">
        <ele>1356.2</ele>
        <time>2022-09-11T08:18:40Z</time>
      </trkpt>
      <trkpt lat="44.59443" lon="6.22339">
        <ele>1355.7</ele>
        <time>2022-09-11T08:18:41Z</time>
      </trkpt>
      <trkpt lat="44.59439" lon="6.2234">
        <ele>1355.3</ele>
        <time>2022-09-11T08:18:42Z</time>
      </trkpt>
      <trkpt lat="44.59436" lon="6.22342">
        <ele>1354.9</ele>
        <time>2022-09-11T08:18:43Z</time>
      </trkpt>
      <trkpt lat="44.59435" lon="6.22342">
        <ele>1354.8</ele>
        <time>2022-09-11T08:18:44Z</time>
      </trkpt>
      <trkpt lat="44.59435" lon="6.22343">
        <ele>1354.7</ele>
        <time>2022-09-11T08:18:45Z</time>
      </trkpt>
      <trkpt lat="44.59436" lon="6.22344">
        <ele>1354.6</ele>
        <time>2022-09-11T08:18:46Z</time>
      </trkpt>
      <trkpt lat="44.59437" lon="6.22344">
        <ele>1354.5</ele>
        <time>2022-09-11T08:18:47Z</time>
      </trkpt>
      <trkpt lat="44.59437" lon="6.22343">
        <ele>1354.4</ele>
        <time>2022-09-11T08:18:48Z</time>
      </trkpt>
      <trkpt lat="44.59436" lon="6.22343">
        <ele>1354.4</ele>
        <time>2022-09-11T08:18:49Z</time>
      </trkpt>
      <trkpt lat="44.59435" lon="6.22345">
        <ele>1354.2</ele>
        <time>2022-09-11T08:18:50Z</time>
      </trkpt>
      <trkpt lat="44.59435" lon="6.22345">
        <ele>1354.2</ele>
        <time>2022-09-11T08:18:51Z</time>
      </trkpt>
      <trkpt lat="44.59435" lon="6.22344">
        <ele>1354.2</ele>
        <time>2022-09-11T08:18:52Z</time>
      </trkpt>
      <trkpt lat="44.59436" lon="6.22342">
        <ele>1354</ele>
        <time>2022-09-11T08:18:53Z</time>
      </trkpt>
      <trkpt lat="44.59436" lon="6.2234">
        <ele>1353.8</ele>
        <time>2022-09-11T08:18:54Z</time>
      </trkpt>
      <trkpt lat="44.59436" lon="6.2234">
        <ele>1353.8</ele>
        <time>2022-09-11T08:18:55Z</time>
      </trkpt>
      <trkpt lat="44.59437" lon="6.2234">
        <ele>1353.8</ele>
        <time>2022-09-11T08:18:56Z</time>
      </trkpt>
      <trkpt lat="44.59436" lon="6.22339">
        <ele>1353.7</ele>
        <time>2022-09-11T08:18:57Z</time>
      </trkpt>
      <trkpt lat="44.59436" lon="6.22339">
        <ele>1353.7</ele>
        <time>2022-09-11T08:18:58Z</time>
      </trkpt>
      <trkpt lat="44.59436" lon="6.22339">
        <ele>1353.6</ele>
        <time>2022-09-11T08:18:59Z</time>
      </trkpt>
      <trkpt lat="44.59436" lon="6.22339">
        <ele>1353.6</ele>
        <time>2022-09-11T08:19:00Z</time>
      </trkpt>
      <trkpt lat="44.59435" lon="6.22339">
        <ele>1353.5</ele>
        <time>2022-09-11T08:19:01Z</time>
      </trkpt>
      <trkpt lat="44.59435" lon="6.2234">
        <ele>1353.5</ele>
        <time>2022-09-11T08:19:02Z</time>
      </trkpt>
      <trkpt lat="44.59435" lon="6.2234">
        <ele>1353.4</ele>
        <time>2022-09-11T08:19:03Z</time>
      </trkpt>
      <trkpt lat="44.59435" lon="6.22341">
        <ele>1353.3</ele>
        <time>2022-09-11T08:19:04Z</time>
      </trkpt>
      <trkpt lat="44.59436" lon="6.22342">
        <ele>1353.2</ele>
        <time>2022-09-11T08:19:05Z</time>
      </trkpt>
      <trkpt lat="44.59437" lon="6.22343">
        <ele>1353.1</ele>
        <time>2022-09-11T08:19:06Z</time>
      </trkpt>
      <trkpt lat="44.59438" lon="6.22344">
        <ele>1353</ele>
        <time>2022-09-11T08:19:07Z</time>
      </trkpt>
      <trkpt lat="44.59439" lon="6.22345">
        <ele>1352.9</ele>
        <time>2022-09-11T08:19:08Z</time>
      </trkpt>
      <trkpt lat="44.59439" lon="6.22346">
        <ele>1352.8</ele>
        <time>2022-09-11T08:19:09Z</time>
      </trkpt>
      <trkpt lat="44.59439" lon="6.22347">
        <ele>1352.7</ele>
        <time>2022-09-11T08:19:10Z</time>
      </trkpt>
      <trkpt lat="44.59439" lon="6.22348">
        <ele>1352.7</ele>
        <time>2022-09-11T08:19:11Z</time>
      </trkpt>
      <trkpt lat="44.59439" lon="6.22347">
        <ele>1352.6</ele>
        <time>2022-09-11T08:19:12Z</time>
      </trkpt>
      <trkpt lat="44.59439" lon="6.22349">
        <ele>1352.5</ele>
        <time>2022-09-11T08:19:13Z</time>
      </trkpt>
      <trkpt lat="44.5944" lon="6.22351">
        <ele>1352.4</ele>
        <time>2022-09-11T08:19:14Z</time>
      </trkpt>
      <trkpt lat="44.59439" lon="6.22353">
        <ele>1352.3</ele>
        <time>2022-09-11T08:19:15Z</time>
      </trkpt>
      <trkpt lat="44.59439" lon="6.22355">
        <ele>1352.1</ele>
        <time>2022-09-11T08:19:16Z</time>
      </trkpt>
      <trkpt lat="44.59439" lon="6.22361">
        <ele>1351.8</ele>
        <time>2022-09-11T08:19:17Z</time>
      </trkpt>
      <trkpt lat="44.59439" lon="6.22366">
        <ele>1351.5</ele>
        <time>2022-09-11T08:19:18Z</time>
      </trkpt>
      <trkpt lat="44.59438" lon="6.22373">
        <ele>1351</ele>
        <time>2022-09-11T08:19:19Z</time>
      </trkpt>
      <trkpt lat="44.59437" lon="6.22383">
        <ele>1350.5</ele>
        <time>2022-09-11T08:19:20Z</time>
      </trkpt>
      <trkpt lat="44.59436" lon="6.22392">
        <ele>1350</ele>
        <time>2022-09-11T08:19:21Z</time>
      </trkpt>
      <trkpt lat="44.59434" lon="6.22401">
        <ele>1349.6</ele>
        <time>2022-09-11T08:19:22Z</time>
      </trkpt>
      <trkpt lat="44.5943" lon="6.2241">
        <ele>1349.2</ele>
        <time>2022-09-11T08:19:23Z</time>
      </trkpt>
      <trkpt lat="44.59426" lon="6.22419">
        <ele>1348.8</ele>
        <time>2022-09-11T08:19:24Z</time>
      </trkpt>
      <trkpt lat="44.59421" lon="6.22426">
        <ele>1348.4</ele>
        <time>2022-09-11T08:19:25Z</time>
      </trkpt>
      <trkpt lat="44.59415" lon="6.22434">
        <ele>1347.9</ele>
        <time>2022-09-11T08:19:26Z</time>
      </trkpt>
      <trkpt lat="44.59408" lon="6.2244">
        <ele>1347.4</ele>
        <time>2022-09-11T08:19:27Z</time>
      </trkpt>
      <trkpt lat="44.59401" lon="6.22445">
        <ele>1346.9</ele>
        <time>2022-09-11T08:19:28Z</time>
      </trkpt>
      <trkpt lat="44.59394" lon="6.22452">
        <ele>1346.4</ele>
        <time>2022-09-11T08:19:29Z</time>
      </trkpt>
      <trkpt lat="44.59388" lon="6.22458">
        <ele>1345.8</ele>
        <time>2022-09-11T08:19:30Z</time>
      </trkpt>
      <trkpt lat="44.59381" lon="6.22466">
        <ele>1345.2</ele>
        <time>2022-09-11T08:19:31Z</time>
      </trkpt>
      <trkpt lat="44.59373" lon="6.22472">
        <ele>1344.6</ele>
        <time>2022-09-11T08:19:32Z</time>
      </trkpt>
      <trkpt lat="44.59365" lon="6.22476">
        <ele>1344</ele>
        <time>2022-09-11T08:19:33Z</time>
      </trkpt>
      <trkpt lat="44.59357" lon="6.2248">
        <ele>1343.3</ele>
        <time>2022-09-11T08:19:34Z</time>
      </trkpt>
      <trkpt lat="44.59349" lon="6.22486">
        <ele>1342.6</ele>
        <time>2022-09-11T08:19:35Z</time>
      </trkpt>
      <trkpt lat="44.5934" lon="6.22491">
        <ele>1341.8</ele>
        <time>2022-09-11T08:19:36Z</time>
      </trkpt>
      <trkpt lat="44.59331" lon="6.22496">
        <ele>1341.1</ele>
        <time>2022-09-11T08:19:37Z</time>
      </trkpt>
      <trkpt lat="44.59321" lon="6.22499">
        <ele>1340.2</ele>
        <time>2022-09-11T08:19:38Z</time>
      </trkpt>
      <trkpt lat="44.59311" lon="6.22501">
        <ele>1339.4</ele>
        <time>2022-09-11T08:19:39Z</time>
      </trkpt>
      <trkpt lat="44.59301" lon="6.22502">
        <ele>1338.5</ele>
        <time>2022-09-11T08:19:40Z</time>
      </trkpt>
      <trkpt lat="44.5929" lon="6.22504">
        <ele>1337.5</ele>
        <time>2022-09-11T08:19:41Z</time>
      </trkpt>
      <trkpt lat="44.59279" lon="6.22506">
        <ele>1336.6</ele>
        <time>2022-09-11T08:19:42Z</time>
      </trkpt>
      <trkpt lat="44.59268" lon="6.22509">
        <ele>1335.6</ele>
        <time>2022-09-11T08:19:43Z</time>
      </trkpt>
      <trkpt lat="44.59257" lon="6.22512">
        <ele>1334.6</ele>
        <time>2022-09-11T08:19:44Z</time>
      </trkpt>
      <trkpt lat="44.59248" lon="6.22513">
        <ele>1333.7</ele>
        <time>2022-09-11T08:19:45Z</time>
      </trkpt>
      <trkpt lat="44.59241" lon="6.22512">
        <ele>1332.9</ele>
        <time>2022-09-11T08:19:46Z</time>
      </trkpt>
      <trkpt lat="44.59234" lon="6.22507">
        <ele>1331.9</ele>
        <time>2022-09-11T08:19:47Z</time>
      </trkpt>
      <trkpt lat="44.59229" lon="6.22498">
        <ele>1330.9</ele>
        <time>2022-09-11T08:19:48Z</time>
      </trkpt>
      <trkpt lat="44.59228" lon="6.22487">
        <ele>1329.7</ele>
        <time>2022-09-11T08:19:49Z</time>
      </trkpt>
      <trkpt lat="44.59229" lon="6.22475">
        <ele>1328.4</ele>
        <time>2022-09-11T08:19:50Z</time>
      </trkpt>
      <trkpt lat="44.59231" lon="6.2246">
        <ele>1326.9</ele>
        <time>2022-09-11T08:19:51Z</time>
      </trkpt>
      <trkpt lat="44.59233" lon="6.22446">
        <ele>1325.3</ele>
        <time>2022-09-11T08:19:52Z</time>
      </trkpt>
      <trkpt lat="44.59232" lon="6.22432">
        <ele>1323.9</ele>
        <time>2022-09-11T08:19:53Z</time>
      </trkpt>
      <trkpt lat="44.59233" lon="6.22422">
        <ele>1322.9</ele>
        <time>2022-09-11T08:19:54Z</time>
      </trkpt>
      <trkpt lat="44.59233" lon="6.22414">
        <ele>1322.2</ele>
        <time>2022-09-11T08:19:55Z</time>
      </trkpt>
      <trkpt lat="44.59235" lon="6.22404">
        <ele>1321.2</ele>
        <time>2022-09-11T08:19:56Z</time>
      </trkpt>
      <trkpt lat="44.59238" lon="6.22393">
        <ele>1320.2</ele>
        <time>2022-09-11T08:19:57Z</time>
      </trkpt>
      <trkpt lat="44.59241" lon="6.22385">
        <ele>1319.3</ele>
        <time>2022-09-11T08:19:58Z</time>
      </trkpt>
      <trkpt lat="44.59242" lon="6.22379">
        <ele>1318.8</ele>
        <time>2022-09-11T08:19:59Z</time>
      </trkpt>
      <trkpt lat="44.59242" lon="6.22373">
        <ele>1318.3</ele>
        <time>2022-09-11T08:20:00Z</time>
      </trkpt>
      <trkpt lat="44.59241" lon="6.22368">
        <ele>1317.8</ele>
        <time>2022-09-11T08:20:01Z</time>
      </trkpt>
      <trkpt lat="44.59238" lon="6.22361">
        <ele>1317.1</ele>
        <time>2022-09-11T08:20:02Z</time>
      </trkpt>
      <trkpt lat="44.59232" lon="6.22356">
        <ele>1316.6</ele>
        <time>2022-09-11T08:20:03Z</time>
      </trkpt>
      <trkpt lat="44.59225" lon="6.22356">
        <ele>1316.3</ele>
        <time>2022-09-11T08:20:04Z</time>
      </trkpt>
      <trkpt lat="44.59219" lon="6.22361">
        <ele>1316.1</ele>
        <time>2022-09-11T08:20:05Z</time>
      </trkpt>
      <trkpt lat="44.59213" lon="6.22368">
        <ele>1315.7</ele>
        <time>2022-09-11T08:20:06Z</time>
      </trkpt>
      <trkpt lat="44.59208" lon="6.22376">
        <ele>1315.3</ele>
        <time>2022-09-11T08:20:07Z</time>
      </trkpt>
      <trkpt lat="44.59202" lon="6.22382">
        <ele>1314.8</ele>
        <time>2022-09-11T08:20:08Z</time>
      </trkpt>
      <trkpt lat="44.59196" lon="6.22388">
        <ele>1314.3</ele>
        <time>2022-09-11T08:20:09Z</time>
      </trkpt>
      <trkpt lat="44.59191" lon="6.22395">
        <ele>1313.7</ele>
        <time>2022-09-11T08:20:10Z</time>
      </trkpt>
      <trkpt lat="44.59185" lon="6.22401">
        <ele>1313</ele>
        <time>2022-09-11T08:20:11Z</time>
      </trkpt>
      <trkpt lat="44.5918" lon="6.22408">
        <ele>1312.3</ele>
        <time>2022-09-11T08:20:12Z</time>
      </trkpt>
      <trkpt lat="44.59174" lon="6.22413">
        <ele>1311.5</ele>
        <time>2022-09-11T08:20:13Z</time>
      </trkpt>
      <trkpt lat="44.59169" lon="6.22413">
        <ele>1310.8</ele>
        <time>2022-09-11T08:20:14Z</time>
      </trkpt>
      <trkpt lat="44.59164" lon="6.22411">
        <ele>1310.2</ele>
        <time>2022-09-11T08:20:15Z</time>
      </trkpt>
      <trkpt lat="44.59162" lon="6.22404">
        <ele>1309.5</ele>
        <time>2022-09-11T08:20:16Z</time>
      </trkpt>
      <trkpt lat="44.59163" lon="6.22396">
        <ele>1308.8</ele>
        <time>2022-09-11T08:20:17Z</time>
      </trkpt>
      <trkpt lat="44.59166" lon="6.22388">
        <ele>1308.2</ele>
        <time>2022-09-11T08:20:18Z</time>
      </trkpt>
      <trkpt lat="44.59171" lon="6.2238">
        <ele>1307.6</ele>
        <time>2022-09-11T08:20:19Z</time>
      </trkpt>
      <trkpt lat="44.59176" lon="6.22371">
        <ele>1307.1</ele>
        <time>2022-09-11T08:20:20Z</time>
      </trkpt>
      <trkpt lat="44.59179" lon="6.22361">
        <ele>1306.7</ele>
        <time>2022-09-11T08:20:21Z</time>
      </trkpt>
      <trkpt lat="44.5918" lon="6.2235">
        <ele>1306.4</ele>
        <time>2022-09-11T08:20:22Z</time>
      </trkpt>
      <trkpt lat="44.59179" lon="6.22339">
        <ele>1306.1</ele>
        <time>2022-09-11T08:20:23Z</time>
      </trkpt>
      <trkpt lat="44.59178" lon="6.22328">
        <ele>1305.7</ele>
        <time>2022-09-11T08:20:24Z</time>
      </trkpt>
      <trkpt lat="44.59178" lon="6.22319">
        <ele>1305.3</ele>
        <time>2022-09-11T08:20:25Z</time>
      </trkpt>
      <trkpt lat="44.5918" lon="6.22312">
        <ele>1304.8</ele>
        <time>2022-09-11T08:20:26Z</time>
      </trkpt>
      <trkpt lat="44.5918" lon="6.22303">
        <ele>1304.2</ele>
        <time>2022-09-11T08:20:27Z</time>
      </trkpt>
      <trkpt lat="44.59177" lon="6.22291">
        <ele>1303.2</ele>
        <time>2022-09-11T08:20:28Z</time>
      </trkpt>
      <trkpt lat="44.59174" lon="6.22279">
        <ele>1302.1</ele>
        <time>2022-09-11T08:20:29Z</time>
      </trkpt>
      <trkpt lat="44.5917" lon="6.22267">
        <ele>1301</ele>
        <time>2022-09-11T08:20:30Z</time>
      </trkpt>
      <trkpt lat="44.59165" lon="6.22256">
        <ele>1299.9</ele>
        <time>2022-09-11T08:20:31Z</time>
      </trkpt>
      <trkpt lat="44.59159" lon="6.22243">
        <ele>1298.7</ele>
        <time>2022-09-11T08:20:32Z</time>
      </trkpt>
      <trkpt lat="44.59153" lon="6.22231">
        <ele>1297.4</ele>
        <time>2022-09-11T08:20:33Z</time>
      </trkpt>
      <trkpt lat="44.59146" lon="6.22219">
        <ele>1296.3</ele>
        <time>2022-09-11T08:20:34Z</time>
      </trkpt>
      <trkpt lat="44.59139" lon="6.22207">
        <ele>1295.3</ele>
        <time>2022-09-11T08:20:35Z</time>
      </trkpt>
      <trkpt lat="44.59132" lon="6.22197">
        <ele>1294.4</ele>
        <time>2022-09-11T08:20:36Z</time>
      </trkpt>
      <trkpt lat="44.59125" lon="6.22189">
        <ele>1293.5</ele>
        <time>2022-09-11T08:20:37Z</time>
      </trkpt>
      <trkpt lat="44.59117" lon="6.22181">
        <ele>1292.6</ele>
        <time>2022-09-11T08:20:38Z</time>
      </trkpt>
      <trkpt lat="44.59108" lon="6.22174">
        <ele>1291.7</ele>
        <time>2022-09-11T08:20:39Z</time>
      </trkpt>
      <trkpt lat="44.59098" lon="6.22168">
        <ele>1290.7</ele>
        <time>2022-09-11T08:20:40Z</time>
      </trkpt>
      <trkpt lat="44.59088" lon="6.22161">
        <ele>1289.7</ele>
        <time>2022-09-11T08:20:41Z</time>
      </trkpt>
      <trkpt lat="44.59078" lon="6.22155">
        <ele>1288.8</ele>
        <time>2022-09-11T08:20:42Z</time>
      </trkpt>
      <trkpt lat="44.59068" lon="6.22148">
        <ele>1287.7</ele>
        <time>2022-09-11T08:20:43Z</time>
      </trkpt>
      <trkpt lat="44.59057" lon="6.2214">
        <ele>1286.6</ele>
        <time>2022-09-11T08:20:44Z</time>
      </trkpt>
      <trkpt lat="44.59045" lon="6.22134">
        <ele>1285.4</ele>
        <time>2022-09-11T08:20:45Z</time>
      </trkpt>
      <trkpt lat="44.59033" lon="6.22129">
        <ele>1284.3</ele>
        <time>2022-09-11T08:20:46Z</time>
      </trkpt>
      <trkpt lat="44.59021" lon="6.22126">
        <ele>1283.3</ele>
        <time>2022-09-11T08:20:47Z</time>
      </trkpt>
      <trkpt lat="44.59009" lon="6.22122">
        <ele>1282.5</ele>
        <time>2022-09-11T08:20:48Z</time>
      </trkpt>
      <trkpt lat="44.59001" lon="6.22119">
        <ele>1282</ele>
        <time>2022-09-11T08:20:49Z</time>
      </trkpt>
      <trkpt lat="44.58994" lon="6.22116">
        <ele>1281.6</ele>
        <time>2022-09-11T08:20:50Z</time>
      </trkpt>
      <trkpt lat="44.58988" lon="6.22116">
        <ele>1281.2</ele>
        <time>2022-09-11T08:20:51Z</time>
      </trkpt>
      <trkpt lat="44.58983" lon="6.22113">
        <ele>1280.9</ele>
        <time>2022-09-11T08:20:52Z</time>
      </trkpt>
      <trkpt lat="44.58981" lon="6.22109">
        <ele>1280.7</ele>
        <time>2022-09-11T08:20:53Z</time>
      </trkpt>
      <trkpt lat="44.58979" lon="6.22106">
        <ele>1280.5</ele>
        <time>2022-09-11T08:20:54Z</time>
      </trkpt>
      <trkpt lat="44.58979" lon="6.22105">
        <ele>1280.5</ele>
        <time>2022-09-11T08:20:55Z</time>
      </trkpt>
      <trkpt lat="44.58976" lon="6.22102">
        <ele>1280.3</ele>
        <time>2022-09-11T08:20:56Z</time>
      </trkpt>
      <trkpt lat="44.58975" lon="6.22102">
        <ele>1280.3</ele>
        <time>2022-09-11T08:20:57Z</time>
      </trkpt>
      <trkpt lat="44.58972" lon="6.22099">
        <ele>1280.1</ele>
        <time>2022-09-11T08:20:58Z</time>
      </trkpt>
      <trkpt lat="44.58969" lon="6.22097">
        <ele>1279.9</ele>
        <time>2022-09-11T08:20:59Z</time>
      </trkpt>
      <trkpt lat="44.58966" lon="6.22094">
        <ele>1279.7</ele>
        <time>2022-09-11T08:21:00Z</time>
      </trkpt>
      <trkpt lat="44.58966" lon="6.22093">
        <ele>1279.6</ele>
        <time>2022-09-11T08:21:01Z</time>
      </trkpt>
      <trkpt lat="44.58963" lon="6.2209">
        <ele>1279.4</ele>
        <time>2022-09-11T08:21:02Z</time>
      </trkpt>
      <trkpt lat="44.58962" lon="6.22089">
        <ele>1279.4</ele>
        <time>2022-09-11T08:21:03Z</time>
      </trkpt>
      <trkpt lat="44.58962" lon="6.22089">
        <ele>1279.4</ele>
        <time>2022-09-11T08:21:04Z</time>
      </trkpt>
      <trkpt lat="44.58963" lon="6.2209">
        <ele>1279.3</ele>
        <time>2022-09-11T08:21:05Z</time>
      </trkpt>
      <trkpt lat="44.58963" lon="6.2209">
        <ele>1279.3</ele>
        <time>2022-09-11T08:21:06Z</time>
      </trkpt>
      <trkpt lat="44.58963" lon="6.2209">
        <ele>1279.3</ele>
        <time>2022-09-11T08:21:07Z</time>
      </trkpt>
      <trkpt lat="44.58963" lon="6.22089">
        <ele>1279.3</ele>
        <time>2022-09-11T08:21:09Z</time>
      </trkpt>
      <trkpt lat="44.58963" lon="6.22089">
        <ele>1279.2</ele>
        <time>2022-09-11T08:21:10Z</time>
      </trkpt>
      <trkpt lat="44.58963" lon="6.22088">
        <ele>1279.2</ele>
        <time>2022-09-11T08:21:12Z</time>
      </trkpt>
      <trkpt lat="44.58963" lon="6.22088">
        <ele>1279.2</ele>
        <time>2022-09-11T08:21:13Z</time>
      </trkpt>
      <trkpt lat="44.58963" lon="6.22088">
        <ele>1279.2</ele>
        <time>2022-09-11T08:21:14Z</time>
      </trkpt>
      <trkpt lat="44.58963" lon="6.22087">
        <ele>1279.2</ele>
        <time>2022-09-11T08:21:15Z</time>
      </trkpt>
      <trkpt lat="44.58963" lon="6.22087">
        <ele>1279.1</ele>
        <time>2022-09-11T08:21:16Z</time>
      </trkpt>
      <trkpt lat="44.58962" lon="6.22086">
        <ele>1279.1</ele>
        <time>2022-09-11T08:21:18Z</time>
      </trkpt>
      <trkpt lat="44.58962" lon="6.22086">
        <ele>1279.1</ele>
        <time>2022-09-11T08:21:19Z</time>
      </trkpt>
      <trkpt lat="44.58963" lon="6.22085">
        <ele>1279.1</ele>
        <time>2022-09-11T08:21:20Z</time>
      </trkpt>
      <trkpt lat="44.58964" lon="6.22087">
        <ele>1279</ele>
        <time>2022-09-11T08:28:36Z</time>
      </trkpt>
      <trkpt lat="44.58965" lon="6.22088">
        <ele>1278.9</ele>
        <time>2022-09-11T08:28:37Z</time>
      </trkpt>
      <trkpt lat="44.58966" lon="6.22089">
        <ele>1278.8</ele>
        <time>2022-09-11T08:28:38Z</time>
      </trkpt>
      <trkpt lat="44.58968" lon="6.22091">
        <ele>1278.6</ele>
        <time>2022-09-11T08:28:39Z</time>
      </trkpt>
      <trkpt lat="44.58969" lon="6.22092">
        <ele>1278.6</ele>
        <time>2022-09-11T08:28:40Z</time>
      </trkpt>
      <trkpt lat="44.5897" lon="6.22094">
        <ele>1278.4</ele>
        <time>2022-09-11T08:28:42Z</time>
      </trkpt>
      <trkpt lat="44.58972" lon="6.22095">
        <ele>1278.3</ele>
        <time>2022-09-11T08:28:43Z</time>
      </trkpt>
      <trkpt lat="44.58972" lon="6.22096">
        <ele>1278.2</ele>
        <time>2022-09-11T08:28:44Z</time>
      </trkpt>
      <trkpt lat="44.58974" lon="6.22098">
        <ele>1278.1</ele>
        <time>2022-09-11T08:28:45Z</time>
      </trkpt>
      <trkpt lat="44.58975" lon="6.22099">
        <ele>1278</ele>
        <time>2022-09-11T08:28:46Z</time>
      </trkpt>
      <trkpt lat="44.58977" lon="6.221">
        <ele>1277.9</ele>
        <time>2022-09-11T08:28:47Z</time>
      </trkpt>
      <trkpt lat="44.58977" lon="6.22101">
        <ele>1277.8</ele>
        <time>2022-09-11T08:28:48Z</time>
      </trkpt>
      <trkpt lat="44.58977" lon="6.22103">
        <ele>1277.7</ele>
        <time>2022-09-11T08:28:50Z</time>
      </trkpt>
      <trkpt lat="44.58977" lon="6.22104">
        <ele>1277.6</ele>
        <time>2022-09-11T08:28:51Z</time>
      </trkpt>
      <trkpt lat="44.58976" lon="6.22104">
        <ele>1277.6</ele>
        <time>2022-09-11T08:28:52Z</time>
      </trkpt>
      <trkpt lat="44.58975" lon="6.22104">
        <ele>1277.5</ele>
        <time>2022-09-11T08:28:53Z</time>
      </trkpt>
      <trkpt lat="44.58975" lon="6.22104">
        <ele>1277.5</ele>
        <time>2022-09-11T08:28:54Z</time>
      </trkpt>
      <trkpt lat="44.58975" lon="6.22104">
        <ele>1277.5</ele>
        <time>2022-09-11T08:28:55Z</time>
      </trkpt>
      <trkpt lat="44.58975" lon="6.22104">
        <ele>1277.5</ele>
        <time>2022-09-11T08:28:56Z</time>
      </trkpt>
      <trkpt lat="44.58975" lon="6.22104">
        <ele>1277.5</ele>
        <time>2022-09-11T08:28:57Z</time>
      </trkpt>
      <trkpt lat="44.58975" lon="6.22104">
        <ele>1277.4</ele>
        <time>2022-09-11T08:28:58Z</time>
      </trkpt>
      <trkpt lat="44.58974" lon="6.22104">
        <ele>1277.4</ele>
        <time>2022-09-11T08:28:59Z</time>
      </trkpt>
      <trkpt lat="44.58974" lon="6.22103">
        <ele>1277.3</ele>
        <time>2022-09-11T08:29:00Z</time>
      </trkpt>
      <trkpt lat="44.58971" lon="6.22102">
        <ele>1277.1</ele>
        <time>2022-09-11T08:29:01Z</time>
      </trkpt>
      <trkpt lat="44.5897" lon="6.22102">
        <ele>1277</ele>
        <time>2022-09-11T08:29:02Z</time>
      </trkpt>
      <trkpt lat="44.58966" lon="6.22102">
        <ele>1276.7</ele>
        <time>2022-09-11T08:29:03Z</time>
      </trkpt>
      <trkpt lat="44.58959" lon="6.221">
        <ele>1276.1</ele>
        <time>2022-09-11T08:29:04Z</time>
      </trkpt>
      <trkpt lat="44.58954" lon="6.22098">
        <ele>1275.6</ele>
        <time>2022-09-11T08:29:05Z</time>
      </trkpt>
      <trkpt lat="44.58948" lon="6.22095">
        <ele>1275.1</ele>
        <time>2022-09-11T08:29:06Z</time>
      </trkpt>
      <trkpt lat="44.58941" lon="6.22092">
        <ele>1274.5</ele>
        <time>2022-09-11T08:29:07Z</time>
      </trkpt>
      <trkpt lat="44.58934" lon="6.22089">
        <ele>1273.8</ele>
        <time>2022-09-11T08:29:08Z</time>
      </trkpt>
      <trkpt lat="44.58927" lon="6.22086">
        <ele>1273.2</ele>
        <time>2022-09-11T08:29:09Z</time>
      </trkpt>
      <trkpt lat="44.58919" lon="6.22084">
        <ele>1272.5</ele>
        <time>2022-09-11T08:29:10Z</time>
      </trkpt>
      <trkpt lat="44.5891" lon="6.22081">
        <ele>1271.8</ele>
        <time>2022-09-11T08:29:11Z</time>
      </trkpt>
      <trkpt lat="44.58902" lon="6.22078">
        <ele>1271.1</ele>
        <time>2022-09-11T08:29:12Z</time>
      </trkpt>
      <trkpt lat="44.58893" lon="6.22075">
        <ele>1270.4</ele>
        <time>2022-09-11T08:29:13Z</time>
      </trkpt>
      <trkpt lat="44.58883" lon="6.22072">
        <ele>1269.6</ele>
        <time>2022-09-11T08:29:14Z</time>
      </trkpt>
      <trkpt lat="44.58873" lon="6.22069">
        <ele>1268.6</ele>
        <time>2022-09-11T08:29:15Z</time>
      </trkpt>
      <trkpt lat="44.58862" lon="6.22065">
        <ele>1267.6</ele>
        <time>2022-09-11T08:29:16Z</time>
      </trkpt>
      <trkpt lat="44.58852" lon="6.22062">
        <ele>1266.5</ele>
        <time>2022-09-11T08:29:17Z</time>
      </trkpt>
      <trkpt lat="44.58841" lon="6.22058">
        <ele>1265.4</ele>
        <time>2022-09-11T08:29:18Z</time>
      </trkpt>
      <trkpt lat="44.58831" lon="6.22054">
        <ele>1264.7</ele>
        <time>2022-09-11T08:29:19Z</time>
      </trkpt>
      <trkpt lat="44.58822" lon="6.22053">
        <ele>1264.1</ele>
        <time>2022-09-11T08:29:20Z</time>
      </trkpt>
      <trkpt lat="44.58813" lon="6.22056">
        <ele>1263.7</ele>
        <time>2022-09-11T08:29:21Z</time>
      </trkpt>
      <trkpt lat="44.58805" lon="6.22063">
        <ele>1263.2</ele>
        <time>2022-09-11T08:29:22Z</time>
      </trkpt>
      <trkpt lat="44.58798" lon="6.2207">
        <ele>1262.8</ele>
        <time>2022-09-11T08:29:23Z</time>
      </trkpt>
      <trkpt lat="44.58789" lon="6.22073">
        <ele>1262.3</ele>
        <time>2022-09-11T08:29:24Z</time>
      </trkpt>
      <trkpt lat="44.58779" lon="6.22075">
        <ele>1261.8</ele>
        <time>2022-09-11T08:29:25Z</time>
      </trkpt>
      <trkpt lat="44.5877" lon="6.22075">
        <ele>1261.3</ele>
        <time>2022-09-11T08:29:26Z</time>
      </trkpt>
      <trkpt lat="44.58761" lon="6.22078">
        <ele>1260.8</ele>
        <time>2022-09-11T08:29:27Z</time>
      </trkpt>
      <trkpt lat="44.58752" lon="6.22081">
        <ele>1260.3</ele>
        <time>2022-09-11T08:29:28Z</time>
      </trkpt>
      <trkpt lat="44.58743" lon="6.22085">
        <ele>1259.7</ele>
        <time>2022-09-11T08:29:29Z</time>
      </trkpt>
      <trkpt lat="44.58734" lon="6.22088">
        <ele>1259</ele>
        <time>2022-09-11T08:29:30Z</time>
      </trkpt>
      <trkpt lat="44.58724" lon="6.22091">
        <ele>1258.2</ele>
        <time>2022-09-11T08:29:31Z</time>
      </trkpt>
      <trkpt lat="44.58715" lon="6.22094">
        <ele>1257.5</ele>
        <time>2022-09-11T08:29:32Z</time>
      </trkpt>
      <trkpt lat="44.58705" lon="6.22097">
        <ele>1256.8</ele>
        <time>2022-09-11T08:29:33Z</time>
      </trkpt>
      <trkpt lat="44.58696" lon="6.22097">
        <ele>1256.1</ele>
        <time>2022-09-11T08:29:34Z</time>
      </trkpt>
      <trkpt lat="44.58686" lon="6.22096">
        <ele>1255.5</ele>
        <time>2022-09-11T08:29:35Z</time>
      </trkpt>
      <trkpt lat="44.58676" lon="6.22092">
        <ele>1254.8</ele>
        <time>2022-09-11T08:29:36Z</time>
      </trkpt>
      <trkpt lat="44.58666" lon="6.22089">
        <ele>1254</ele>
        <time>2022-09-11T08:29:37Z</time>
      </trkpt>
      <trkpt lat="44.58656" lon="6.22086">
        <ele>1253.2</ele>
        <time>2022-09-11T08:29:38Z</time>
      </trkpt>
      <trkpt lat="44.58646" lon="6.22084">
        <ele>1252.5</ele>
        <time>2022-09-11T08:29:39Z</time>
      </trkpt>
      <trkpt lat="44.58638" lon="6.22079">
        <ele>1251.7</ele>
        <time>2022-09-11T08:29:40Z</time>
      </trkpt>
      <trkpt lat="44.58628" lon="6.22073">
        <ele>1250.8</ele>
        <time>2022-09-11T08:29:41Z</time>
      </trkpt>
      <trkpt lat="44.5862" lon="6.22064">
        <ele>1250</ele>
        <time>2022-09-11T08:29:42Z</time>
      </trkpt>
      <trkpt lat="44.5861" lon="6.22058">
        <ele>1249.1</ele>
        <time>2022-09-11T08:29:43Z</time>
      </trkpt>
      <trkpt lat="44.586" lon="6.22055">
        <ele>1248.2</ele>
        <time>2022-09-11T08:29:44Z</time>
      </trkpt>
      <trkpt lat="44.58589" lon="6.22054">
        <ele>1247.3</ele>
        <time>2022-09-11T08:29:45Z</time>
      </trkpt>
      <trkpt lat="44.58578" lon="6.22054">
        <ele>1246.2</ele>
        <time>2022-09-11T08:29:46Z</time>
      </trkpt>
      <trkpt lat="44.58566" lon="6.22052">
        <ele>1244.9</ele>
        <time>2022-09-11T08:29:47Z</time>
      </trkpt>
      <trkpt lat="44.58554" lon="6.2205">
        <ele>1243.7</ele>
        <time>2022-09-11T08:29:48Z</time>
      </trkpt>
      <trkpt lat="44.58541" lon="6.22047">
        <ele>1242.4</ele>
        <time>2022-09-11T08:29:49Z</time>
      </trkpt>
      <trkpt lat="44.58528" lon="6.22044">
        <ele>1241.1</ele>
        <time>2022-09-11T08:29:50Z</time>
      </trkpt>
      <trkpt lat="44.58518" lon="6.22042">
        <ele>1240</ele>
        <time>2022-09-11T08:29:51Z</time>
      </trkpt>
      <trkpt lat="44.58508" lon="6.22038">
        <ele>1238.9</ele>
        <time>2022-09-11T08:29:52Z</time>
      </trkpt>
      <trkpt lat="44.58498" lon="6.22034">
        <ele>1237.8</ele>
        <time>2022-09-11T08:29:53Z</time>
      </trkpt>
      <trkpt lat="44.58487" lon="6.22034">
        <ele>1236.7</ele>
        <time>2022-09-11T08:29:54Z</time>
      </trkpt>
      <trkpt lat="44.58477" lon="6.22035">
        <ele>1235.5</ele>
        <time>2022-09-11T08:29:55Z</time>
      </trkpt>
      <trkpt lat="44.58465" lon="6.22036">
        <ele>1234.2</ele>
        <time>2022-09-11T08:29:56Z</time>
      </trkpt>
      <trkpt lat="44.58454" lon="6.22037">
        <ele>1233.1</ele>
        <time>2022-09-11T08:29:57Z</time>
      </trkpt>
      <trkpt lat="44.58445" lon="6.22038">
        <ele>1232.1</ele>
        <time>2022-09-11T08:29:58Z</time>
      </trkpt>
      <trkpt lat="44.58435" lon="6.2204">
        <ele>1231.1</ele>
        <time>2022-09-11T08:29:59Z</time>
      </trkpt>
      <trkpt lat="44.58426" lon="6.22041">
        <ele>1230.1</ele>
        <time>2022-09-11T08:30:00Z</time>
      </trkpt>
      <trkpt lat="44.58419" lon="6.22042">
        <ele>1229.3</ele>
        <time>2022-09-11T08:30:01Z</time>
      </trkpt>
      <trkpt lat="44.58409" lon="6.22039">
        <ele>1228.4</ele>
        <time>2022-09-11T08:30:02Z</time>
      </trkpt>
      <trkpt lat="44.58402" lon="6.22034">
        <ele>1227.7</ele>
        <time>2022-09-11T08:30:03Z</time>
      </trkpt>
      <trkpt lat="44.58395" lon="6.2203">
        <ele>1227</ele>
        <time>2022-09-11T08:30:04Z</time>
      </trkpt>
      <trkpt lat="44.58387" lon="6.22023">
        <ele>1226.3</ele>
        <time>2022-09-11T08:30:05Z</time>
      </trkpt>
      <trkpt lat="44.58379" lon="6.22018">
        <ele>1225.6</ele>
        <time>2022-09-11T08:30:06Z</time>
      </trkpt>
      <trkpt lat="44.58374" lon="6.22013">
        <ele>1225.1</ele>
        <time>2022-09-11T08:30:07Z</time>
      </trkpt>
      <trkpt lat="44.5837" lon="6.22005">
        <ele>1224.6</ele>
        <time>2022-09-11T08:30:08Z</time>
      </trkpt>
      <trkpt lat="44.58366" lon="6.21997">
        <ele>1224</ele>
        <time>2022-09-11T08:30:09Z</time>
      </trkpt>
      <trkpt lat="44.5836" lon="6.2199">
        <ele>1223.3</ele>
        <time>2022-09-11T08:30:10Z</time>
      </trkpt>
      <trkpt lat="44.58356" lon="6.21983">
        <ele>1222.6</ele>
        <time>2022-09-11T08:30:11Z</time>
      </trkpt>
      <trkpt lat="44.58351" lon="6.21977">
        <ele>1222</ele>
        <time>2022-09-11T08:30:12Z</time>
      </trkpt>
      <trkpt lat="44.58347" lon="6.2197">
        <ele>1221.4</ele>
        <time>2022-09-11T08:30:13Z</time>
      </trkpt>
      <trkpt lat="44.58343" lon="6.2196">
        <ele>1220.6</ele>
        <time>2022-09-11T08:30:14Z</time>
      </trkpt>
      <trkpt lat="44.58341" lon="6.21949">
        <ele>1219.7</ele>
        <time>2022-09-11T08:30:15Z</time>
      </trkpt>
      <trkpt lat="44.58341" lon="6.21937">
        <ele>1219</ele>
        <time>2022-09-11T08:30:16Z</time>
      </trkpt>
      <trkpt lat="44.58341" lon="6.21924">
        <ele>1218.2</ele>
        <time>2022-09-11T08:30:17Z</time>
      </trkpt>
      <trkpt lat="44.58343" lon="6.21911">
        <ele>1217.4</ele>
        <time>2022-09-11T08:30:18Z</time>
      </trkpt>
      <trkpt lat="44.58343" lon="6.21898">
        <ele>1216.6</ele>
        <time>2022-09-11T08:30:19Z</time>
      </trkpt>
      <trkpt lat="44.58345" lon="6.21884">
        <ele>1215.9</ele>
        <time>2022-09-11T08:30:20Z</time>
      </trkpt>
      <trkpt lat="44.58345" lon="6.21872">
        <ele>1215.2</ele>
        <time>2022-09-11T08:30:21Z</time>
      </trkpt>
      <trkpt lat="44.58347" lon="6.21861">
        <ele>1214.5</ele>
        <time>2022-09-11T08:30:22Z</time>
      </trkpt>
      <trkpt lat="44.58347" lon="6.21851">
        <ele>1214</ele>
        <time>2022-09-11T08:30:23Z</time>
      </trkpt>
      <trkpt lat="44.58347" lon="6.2184">
        <ele>1213.4</ele>
        <time>2022-09-11T08:30:24Z</time>
      </trkpt>
      <trkpt lat="44.58347" lon="6.21828">
        <ele>1212.7</ele>
        <time>2022-09-11T08:30:25Z</time>
      </trkpt>
      <trkpt lat="44.58348" lon="6.21817">
        <ele>1212.1</ele>
        <time>2022-09-11T08:30:26Z</time>
      </trkpt>
      <trkpt lat="44.58348" lon="6.21805">
        <ele>1211.4</ele>
        <time>2022-09-11T08:30:27Z</time>
      </trkpt>
      <trkpt lat="44.58347" lon="6.21794">
        <ele>1210.7</ele>
        <time>2022-09-11T08:30:28Z</time>
      </trkpt>
      <trkpt lat="44.58346" lon="6.21782">
        <ele>1210.1</ele>
        <time>2022-09-11T08:30:29Z</time>
      </trkpt>
      <trkpt lat="44.58344" lon="6.21769">
        <ele>1209.4</ele>
        <time>2022-09-11T08:30:30Z</time>
      </trkpt>
      <trkpt lat="44.58342" lon="6.21758">
        <ele>1208.8</ele>
        <time>2022-09-11T08:30:31Z</time>
      </trkpt>
      <trkpt lat="44.58339" lon="6.21746">
        <ele>1208.2</ele>
        <time>2022-09-11T08:30:32Z</time>
      </trkpt>
      <trkpt lat="44.58336" lon="6.21733">
        <ele>1207.6</ele>
        <time>2022-09-11T08:30:33Z</time>
      </trkpt>
      <trkpt lat="44.58333" lon="6.2172">
        <ele>1206.9</ele>
        <time>2022-09-11T08:30:34Z</time>
      </trkpt>
      <trkpt lat="44.5833" lon="6.21706">
        <ele>1206.3</ele>
        <time>2022-09-11T08:30:35Z</time>
      </trkpt>
      <trkpt lat="44.58327" lon="6.21693">
        <ele>1205.7</ele>
        <time>2022-09-11T08:30:36Z</time>
      </trkpt>
      <trkpt lat="44.58323" lon="6.21683">
        <ele>1205.2</ele>
        <time>2022-09-11T08:30:37Z</time>
      </trkpt>
      <trkpt lat="44.58317" lon="6.21677">
        <ele>1204.7</ele>
        <time>2022-09-11T08:30:38Z</time>
      </trkpt>
      <trkpt lat="44.5831" lon="6.21677">
        <ele>1204.2</ele>
        <time>2022-09-11T08:30:39Z</time>
      </trkpt>
      <trkpt lat="44.58304" lon="6.21681">
        <ele>1203.8</ele>
        <time>2022-09-11T08:30:40Z</time>
      </trkpt>
      <trkpt lat="44.58301" lon="6.21685">
        <ele>1203.4</ele>
        <time>2022-09-11T08:30:41Z</time>
      </trkpt>
      <trkpt lat="44.583" lon="6.2169">
        <ele>1203.1</ele>
        <time>2022-09-11T08:30:42Z</time>
      </trkpt>
      <trkpt lat="44.583" lon="6.21695">
        <ele>1202.8</ele>
        <time>2022-09-11T08:30:43Z</time>
      </trkpt>
      <trkpt lat="44.58299" lon="6.21702">
        <ele>1202.4</ele>
        <time>2022-09-11T08:30:44Z</time>
      </trkpt>
      <trkpt lat="44.58297" lon="6.21706">
        <ele>1202.1</ele>
        <time>2022-09-11T08:30:45Z</time>
      </trkpt>
      <trkpt lat="44.58296" lon="6.21714">
        <ele>1201.6</ele>
        <time>2022-09-11T08:30:46Z</time>
      </trkpt>
      <trkpt lat="44.58295" lon="6.21723">
        <ele>1201</ele>
        <time>2022-09-11T08:30:47Z</time>
      </trkpt>
      <trkpt lat="44.58294" lon="6.21733">
        <ele>1200.4</ele>
        <time>2022-09-11T08:30:48Z</time>
      </trkpt>
      <trkpt lat="44.58293" lon="6.21743">
        <ele>1199.8</ele>
        <time>2022-09-11T08:30:49Z</time>
      </trkpt>
      <trkpt lat="44.58291" lon="6.21753">
        <ele>1199.2</ele>
        <time>2022-09-11T08:30:50Z</time>
      </trkpt>
      <trkpt lat="44.58289" lon="6.21764">
        <ele>1198.5</ele>
        <time>2022-09-11T08:30:51Z</time>
      </trkpt>
      <trkpt lat="44.58288" lon="6.21776">
        <ele>1197.8</ele>
        <time>2022-09-11T08:30:52Z</time>
      </trkpt>
      <trkpt lat="44.58286" lon="6.21788">
        <ele>1197.1</ele>
        <time>2022-09-11T08:30:53Z</time>
      </trkpt>
      <trkpt lat="44.58283" lon="6.218">
        <ele>1196.4</ele>
        <time>2022-09-11T08:30:54Z</time>
      </trkpt>
      <trkpt lat="44.58278" lon="6.21812">
        <ele>1195.6</ele>
        <time>2022-09-11T08:30:55Z</time>
      </trkpt>
      <trkpt lat="44.58273" lon="6.21823">
        <ele>1194.9</ele>
        <time>2022-09-11T08:30:56Z</time>
      </trkpt>
      <trkpt lat="44.58266" lon="6.21834">
        <ele>1194.1</ele>
        <time>2022-09-11T08:30:57Z</time>
      </trkpt>
      <trkpt lat="44.58259" lon="6.21844">
        <ele>1193.3</ele>
        <time>2022-09-11T08:30:58Z</time>
      </trkpt>
      <trkpt lat="44.58252" lon="6.21854">
        <ele>1192.5</ele>
        <time>2022-09-11T08:30:59Z</time>
      </trkpt>
      <trkpt lat="44.58245" lon="6.21864">
        <ele>1191.7</ele>
        <time>2022-09-11T08:31:00Z</time>
      </trkpt>
      <trkpt lat="44.5824" lon="6.21874">
        <ele>1191</ele>
        <time>2022-09-11T08:31:01Z</time>
      </trkpt>
      <trkpt lat="44.58235" lon="6.21881">
        <ele>1190.5</ele>
        <time>2022-09-11T08:31:02Z</time>
      </trkpt>
      <trkpt lat="44.58231" lon="6.2189">
        <ele>1190</ele>
        <time>2022-09-11T08:31:03Z</time>
      </trkpt>
      <trkpt lat="44.58227" lon="6.21897">
        <ele>1189.6</ele>
        <time>2022-09-11T08:31:04Z</time>
      </trkpt>
      <trkpt lat="44.58224" lon="6.21904">
        <ele>1189.3</ele>
        <time>2022-09-11T08:31:05Z</time>
      </trkpt>
      <trkpt lat="44.58221" lon="6.2191">
        <ele>1189</ele>
        <time>2022-09-11T08:31:06Z</time>
      </trkpt>
      <trkpt lat="44.58218" lon="6.21916">
        <ele>1188.8</ele>
        <time>2022-09-11T08:31:07Z</time>
      </trkpt>
      <trkpt lat="44.58214" lon="6.21922">
        <ele>1188.5</ele>
        <time>2022-09-11T08:31:08Z</time>
      </trkpt>
      <trkpt lat="44.5821" lon="6.21928">
        <ele>1188.2</ele>
        <time>2022-09-11T08:31:09Z</time>
      </trkpt>
      <trkpt lat="44.58205" lon="6.21931">
        <ele>1187.9</ele>
        <time>2022-09-11T08:31:10Z</time>
      </trkpt>
      <trkpt lat="44.58202" lon="6.21935">
        <ele>1187.6</ele>
        <time>2022-09-11T08:31:11Z</time>
      </trkpt>
      <trkpt lat="44.58199" lon="6.21935">
        <ele>1187.5</ele>
        <time>2022-09-11T08:31:12Z</time>
      </trkpt>
      <trkpt lat="44.58198" lon="6.21934">
        <ele>1187.4</ele>
        <time>2022-09-11T08:31:13Z</time>
      </trkpt>
      <trkpt lat="44.58197" lon="6.21934">
        <ele>1187.3</ele>
        <time>2022-09-11T08:31:14Z</time>
      </trkpt>
      <trkpt lat="44.58197" lon="6.21934">
        <ele>1187.3</ele>
        <time>2022-09-11T08:31:15Z</time>
      </trkpt>
      <trkpt lat="44.58196" lon="6.21934">
        <ele>1187.3</ele>
        <time>2022-09-11T08:31:16Z</time>
      </trkpt>
      <trkpt lat="44.58196" lon="6.21934">
        <ele>1187.2</ele>
        <time>2022-09-11T08:31:17Z</time>
      </trkpt>
      <trkpt lat="44.58196" lon="6.21934">
        <ele>1187.2</ele>
        <time>2022-09-11T08:31:18Z</time>
      </trkpt>
      <trkpt lat="44.58197" lon="6.21933">
        <ele>1187.2</ele>
        <time>2022-09-11T08:31:19Z</time>
      </trkpt>
      <trkpt lat="44.58196" lon="6.21933">
        <ele>1187.1</ele>
        <time>2022-09-11T08:31:20Z</time>
      </trkpt>
      <trkpt lat="44.58196" lon="6.21933">
        <ele>1187.1</ele>
        <time>2022-09-11T08:31:21Z</time>
      </trkpt>
      <trkpt lat="44.58196" lon="6.21934">
        <ele>1187.1</ele>
        <time>2022-09-11T08:31:22Z</time>
      </trkpt>
      <trkpt lat="44.58196" lon="6.21934">
        <ele>1187.1</ele>
        <time>2022-09-11T08:31:23Z</time>
      </trkpt>
      <trkpt lat="44.58196" lon="6.21934">
        <ele>1187.1</ele>
        <time>2022-09-11T08:31:24Z</time>
      </trkpt>
      <trkpt lat="44.58196" lon="6.21934">
        <ele>1187.1</ele>
        <time>2022-09-11T08:31:25Z</time>
      </trkpt>
      <trkpt lat="44.58196" lon="6.21934">
        <ele>1187</ele>
        <time>2022-09-11T08:31:26Z</time>
      </trkpt>
      <trkpt lat="44.58196" lon="6.21934">
        <ele>1187</ele>
        <time>2022-09-11T08:31:27Z</time>
      </trkpt>
      <trkpt lat="44.58196" lon="6.21934">
        <ele>1187</ele>
        <time>2022-09-11T08:31:28Z</time>
      </trkpt>
      <trkpt lat="44.58196" lon="6.21934">
        <ele>1187</ele>
        <time>2022-09-11T08:31:29Z</time>
      </trkpt>
      <trkpt lat="44.58196" lon="6.21934">
        <ele>1187</ele>
        <time>2022-09-11T08:31:30Z</time>
      </trkpt>
      <trkpt lat="44.58196" lon="6.21934">
        <ele>1187</ele>
        <time>2022-09-11T08:31:31Z</time>
      </trkpt>
      <trkpt lat="44.58196" lon="6.21934">
        <ele>1187</ele>
        <time>2022-09-11T08:31:32Z</time>
      </trkpt>
      <trkpt lat="44.58196" lon="6.21933">
        <ele>1187</ele>
        <time>2022-09-11T08:31:33Z</time>
      </trkpt>
      <trkpt lat="44.58196" lon="6.21933">
        <ele>1187</ele>
        <time>2022-09-11T08:31:34Z</time>
      </trkpt>
      <trkpt lat="44.58197" lon="6.21934">
        <ele>1187</ele>
        <time>2022-09-11T08:31:35Z</time>
      </trkpt>
      <trkpt lat="44.58196" lon="6.21933">
        <ele>1186.9</ele>
        <time>2022-09-11T08:31:36Z</time>
      </trkpt>
      <trkpt lat="44.58195" lon="6.21928">
        <ele>1186.6</ele>
        <time>2022-09-11T08:31:45Z</time>
      </trkpt>
      <trkpt lat="44.58194" lon="6.21923">
        <ele>1186.4</ele>
        <time>2022-09-11T08:31:46Z</time>
      </trkpt>
      <trkpt lat="44.58195" lon="6.21919">
        <ele>1186.2</ele>
        <time>2022-09-11T08:31:47Z</time>
      </trkpt>
      <trkpt lat="44.58196" lon="6.21913">
        <ele>1186</ele>
        <time>2022-09-11T08:31:49Z</time>
      </trkpt>
      <trkpt lat="44.58197" lon="6.21908">
        <ele>1185.7</ele>
        <time>2022-09-11T08:31:50Z</time>
      </trkpt>
      <trkpt lat="44.58202" lon="6.21899">
        <ele>1185.2</ele>
        <time>2022-09-11T08:31:51Z</time>
      </trkpt>
      <trkpt lat="44.58204" lon="6.21894">
        <ele>1184.9</ele>
        <time>2022-09-11T08:31:53Z</time>
      </trkpt>
      <trkpt lat="44.58207" lon="6.2189">
        <ele>1184.6</ele>
        <time>2022-09-11T08:31:54Z</time>
      </trkpt>
      <trkpt lat="44.5821" lon="6.21885">
        <ele>1184.3</ele>
        <time>2022-09-11T08:31:55Z</time>
      </trkpt>
      <trkpt lat="44.5821" lon="6.21884">
        <ele>1184.2</ele>
        <time>2022-09-11T08:31:57Z</time>
      </trkpt>
      <trkpt lat="44.58211" lon="6.21883">
        <ele>1184.2</ele>
        <time>2022-09-11T08:31:58Z</time>
      </trkpt>
      <trkpt lat="44.58211" lon="6.21883">
        <ele>1184.1</ele>
        <time>2022-09-11T08:31:59Z</time>
      </trkpt>
      <trkpt lat="44.58211" lon="6.21883">
        <ele>1184.1</ele>
        <time>2022-09-11T08:32:00Z</time>
      </trkpt>
      <trkpt lat="44.58212" lon="6.21882">
        <ele>1184.1</ele>
        <time>2022-09-11T08:32:01Z</time>
      </trkpt>
      <trkpt lat="44.58212" lon="6.21882">
        <ele>1184</ele>
        <time>2022-09-11T08:32:02Z</time>
      </trkpt>
      <trkpt lat="44.58212" lon="6.21881">
        <ele>1184</ele>
        <time>2022-09-11T08:32:03Z</time>
      </trkpt>
      <trkpt lat="44.58213" lon="6.21881">
        <ele>1184</ele>
        <time>2022-09-11T08:32:04Z</time>
      </trkpt>
      <trkpt lat="44.58213" lon="6.21881">
        <ele>1183.9</ele>
        <time>2022-09-11T08:32:05Z</time>
      </trkpt>
      <trkpt lat="44.58213" lon="6.2188">
        <ele>1183.9</ele>
        <time>2022-09-11T08:32:06Z</time>
      </trkpt>
      <trkpt lat="44.58214" lon="6.2188">
        <ele>1183.9</ele>
        <time>2022-09-11T08:32:07Z</time>
      </trkpt>
      <trkpt lat="44.58214" lon="6.2188">
        <ele>1183.9</ele>
        <time>2022-09-11T08:32:08Z</time>
      </trkpt>
      <trkpt lat="44.58214" lon="6.21879">
        <ele>1183.8</ele>
        <time>2022-09-11T08:32:22Z</time>
      </trkpt>
      <trkpt lat="44.58215" lon="6.21879">
        <ele>1183.8</ele>
        <time>2022-09-11T08:32:23Z</time>
      </trkpt>
      <trkpt lat="44.58219" lon="6.2187">
        <ele>1183.2</ele>
        <time>2022-09-11T08:32:25Z</time>
      </trkpt>
      <trkpt lat="44.58222" lon="6.21862">
        <ele>1182.8</ele>
        <time>2022-09-11T08:32:26Z</time>
      </trkpt>
      <trkpt lat="44.58224" lon="6.21855">
        <ele>1182.3</ele>
        <time>2022-09-11T08:32:27Z</time>
      </trkpt>
      <trkpt lat="44.58226" lon="6.21847">
        <ele>1181.8</ele>
        <time>2022-09-11T08:32:28Z</time>
      </trkpt>
      <trkpt lat="44.58228" lon="6.21837">
        <ele>1181.3</ele>
        <time>2022-09-11T08:32:29Z</time>
      </trkpt>
      <trkpt lat="44.5823" lon="6.21828">
        <ele>1180.6</ele>
        <time>2022-09-11T08:32:30Z</time>
      </trkpt>
      <trkpt lat="44.58231" lon="6.21817">
        <ele>1180</ele>
        <time>2022-09-11T08:32:31Z</time>
      </trkpt>
      <trkpt lat="44.58232" lon="6.21807">
        <ele>1179.3</ele>
        <time>2022-09-11T08:32:32Z</time>
      </trkpt>
      <trkpt lat="44.58232" lon="6.21795">
        <ele>1178.6</ele>
        <time>2022-09-11T08:32:33Z</time>
      </trkpt>
      <trkpt lat="44.58232" lon="6.21783">
        <ele>1177.8</ele>
        <time>2022-09-11T08:32:34Z</time>
      </trkpt>
      <trkpt lat="44.58232" lon="6.2177">
        <ele>1176.9</ele>
        <time>2022-09-11T08:32:35Z</time>
      </trkpt>
      <trkpt lat="44.58232" lon="6.21756">
        <ele>1176</ele>
        <time>2022-09-11T08:32:36Z</time>
      </trkpt>
      <trkpt lat="44.58232" lon="6.21742">
        <ele>1175</ele>
        <time>2022-09-11T08:32:37Z</time>
      </trkpt>
      <trkpt lat="44.58231" lon="6.21728">
        <ele>1174</ele>
        <time>2022-09-11T08:32:38Z</time>
      </trkpt>
      <trkpt lat="44.5823" lon="6.21713">
        <ele>1173.1</ele>
        <time>2022-09-11T08:32:39Z</time>
      </trkpt>
      <trkpt lat="44.5823" lon="6.21698">
        <ele>1172</ele>
        <time>2022-09-11T08:32:40Z</time>
      </trkpt>
      <trkpt lat="44.58228" lon="6.21683">
        <ele>1171</ele>
        <time>2022-09-11T08:32:41Z</time>
      </trkpt>
      <trkpt lat="44.58226" lon="6.21668">
        <ele>1169.9</ele>
        <time>2022-09-11T08:32:42Z</time>
      </trkpt>
      <trkpt lat="44.58224" lon="6.21653">
        <ele>1168.9</ele>
        <time>2022-09-11T08:32:43Z</time>
      </trkpt>
      <trkpt lat="44.58221" lon="6.21637">
        <ele>1167.8</ele>
        <time>2022-09-11T08:32:44Z</time>
      </trkpt>
      <trkpt lat="44.58218" lon="6.2162">
        <ele>1166.7</ele>
        <time>2022-09-11T08:32:45Z</time>
      </trkpt>
      <trkpt lat="44.58213" lon="6.21605">
        <ele>1165.6</ele>
        <time>2022-09-11T08:32:46Z</time>
      </trkpt>
      <trkpt lat="44.5821" lon="6.21588">
        <ele>1164.5</ele>
        <time>2022-09-11T08:32:47Z</time>
      </trkpt>
      <trkpt lat="44.58207" lon="6.21572">
        <ele>1163.4</ele>
        <time>2022-09-11T08:32:48Z</time>
      </trkpt>
      <trkpt lat="44.58204" lon="6.21555">
        <ele>1162.4</ele>
        <time>2022-09-11T08:32:49Z</time>
      </trkpt>
      <trkpt lat="44.582" lon="6.21539">
        <ele>1161.4</ele>
        <time>2022-09-11T08:32:50Z</time>
      </trkpt>
      <trkpt lat="44.58196" lon="6.21523">
        <ele>1160.4</ele>
        <time>2022-09-11T08:32:51Z</time>
      </trkpt>
      <trkpt lat="44.5819" lon="6.21508">
        <ele>1159.5</ele>
        <time>2022-09-11T08:32:52Z</time>
      </trkpt>
      <trkpt lat="44.58184" lon="6.21494">
        <ele>1158.5</ele>
        <time>2022-09-11T08:32:53Z</time>
      </trkpt>
      <trkpt lat="44.58176" lon="6.21481">
        <ele>1157.6</ele>
        <time>2022-09-11T08:32:54Z</time>
      </trkpt>
      <trkpt lat="44.58166" lon="6.2147">
        <ele>1156.6</ele>
        <time>2022-09-11T08:32:55Z</time>
      </trkpt>
      <trkpt lat="44.58155" lon="6.21461">
        <ele>1155.5</ele>
        <time>2022-09-11T08:32:56Z</time>
      </trkpt>
      <trkpt lat="44.58145" lon="6.21453">
        <ele>1154.5</ele>
        <time>2022-09-11T08:32:57Z</time>
      </trkpt>
      <trkpt lat="44.58134" lon="6.21445">
        <ele>1153.5</ele>
        <time>2022-09-11T08:32:58Z</time>
      </trkpt>
      <trkpt lat="44.58123" lon="6.21436">
        <ele>1152.5</ele>
        <time>2022-09-11T08:32:59Z</time>
      </trkpt>
      <trkpt lat="44.58109" lon="6.21427">
        <ele>1151.1</ele>
        <time>2022-09-11T08:33:00Z</time>
      </trkpt>
      <trkpt lat="44.58097" lon="6.21419">
        <ele>1149.9</ele>
        <time>2022-09-11T08:33:01Z</time>
      </trkpt>
      <trkpt lat="44.58086" lon="6.21411">
        <ele>1148.8</ele>
        <time>2022-09-11T08:33:02Z</time>
      </trkpt>
      <trkpt lat="44.58075" lon="6.21404">
        <ele>1147.8</ele>
        <time>2022-09-11T08:33:03Z</time>
      </trkpt>
      <trkpt lat="44.58065" lon="6.21396">
        <ele>1146.8</ele>
        <time>2022-09-11T08:33:04Z</time>
      </trkpt>
      <trkpt lat="44.58054" lon="6.21387">
        <ele>1145.8</ele>
        <time>2022-09-11T08:33:05Z</time>
      </trkpt>
      <trkpt lat="44.58044" lon="6.21377">
        <ele>1144.7</ele>
        <time>2022-09-11T08:33:06Z</time>
      </trkpt>
      <trkpt lat="44.58033" lon="6.21367">
        <ele>1143.6</ele>
        <time>2022-09-11T08:33:07Z</time>
      </trkpt>
      <trkpt lat="44.58021" lon="6.21356">
        <ele>1142.5</ele>
        <time>2022-09-11T08:33:08Z</time>
      </trkpt>
      <trkpt lat="44.58012" lon="6.21343">
        <ele>1141.5</ele>
        <time>2022-09-11T08:33:09Z</time>
      </trkpt>
      <trkpt lat="44.58004" lon="6.2133">
        <ele>1140.4</ele>
        <time>2022-09-11T08:33:10Z</time>
      </trkpt>
      <trkpt lat="44.57996" lon="6.21314">
        <ele>1139.3</ele>
        <time>2022-09-11T08:33:11Z</time>
      </trkpt>
      <trkpt lat="44.57991" lon="6.21297">
        <ele>1138</ele>
        <time>2022-09-11T08:33:12Z</time>
      </trkpt>
      <trkpt lat="44.57986" lon="6.21279">
        <ele>1136.9</ele>
        <time>2022-09-11T08:33:13Z</time>
      </trkpt>
      <trkpt lat="44.57984" lon="6.21262">
        <ele>1135.8</ele>
        <time>2022-09-11T08:33:14Z</time>
      </trkpt>
      <trkpt lat="44.57983" lon="6.21244">
        <ele>1134.6</ele>
        <time>2022-09-11T08:33:15Z</time>
      </trkpt>
      <trkpt lat="44.57981" lon="6.21225">
        <ele>1133.4</ele>
        <time>2022-09-11T08:33:16Z</time>
      </trkpt>
      <trkpt lat="44.57978" lon="6.21206">
        <ele>1132.1</ele>
        <time>2022-09-11T08:33:17Z</time>
      </trkpt>
      <trkpt lat="44.57975" lon="6.21189">
        <ele>1131</ele>
        <time>2022-09-11T08:33:18Z</time>
      </trkpt>
      <trkpt lat="44.57972" lon="6.21176">
        <ele>1130</ele>
        <time>2022-09-11T08:33:19Z</time>
      </trkpt>
      <trkpt lat="44.57969" lon="6.21165">
        <ele>1129.4</ele>
        <time>2022-09-11T08:33:20Z</time>
      </trkpt>
      <trkpt lat="44.57966" lon="6.21156">
        <ele>1128.8</ele>
        <time>2022-09-11T08:33:21Z</time>
      </trkpt>
      <trkpt lat="44.57962" lon="6.21144">
        <ele>1128.2</ele>
        <time>2022-09-11T08:33:22Z</time>
      </trkpt>
      <trkpt lat="44.57958" lon="6.21133">
        <ele>1127.6</ele>
        <time>2022-09-11T08:33:23Z</time>
      </trkpt>
      <trkpt lat="44.57954" lon="6.21128">
        <ele>1127.2</ele>
        <time>2022-09-11T08:33:24Z</time>
      </trkpt>
      <trkpt lat="44.57945" lon="6.21128">
        <ele>1126.7</ele>
        <time>2022-09-11T08:33:25Z</time>
      </trkpt>
      <trkpt lat="44.57934" lon="6.21135">
        <ele>1125.9</ele>
        <time>2022-09-11T08:33:26Z</time>
      </trkpt>
      <trkpt lat="44.57925" lon="6.21145">
        <ele>1125.3</ele>
        <time>2022-09-11T08:33:27Z</time>
      </trkpt>
      <trkpt lat="44.5792" lon="6.21156">
        <ele>1124.8</ele>
        <time>2022-09-11T08:33:28Z</time>
      </trkpt>
      <trkpt lat="44.57917" lon="6.21168">
        <ele>1124.3</ele>
        <time>2022-09-11T08:33:29Z</time>
      </trkpt>
      <trkpt lat="44.57917" lon="6.21181">
        <ele>1123.9</ele>
        <time>2022-09-11T08:33:30Z</time>
      </trkpt>
      <trkpt lat="44.57917" lon="6.21194">
        <ele>1123.4</ele>
        <time>2022-09-11T08:33:31Z</time>
      </trkpt>
      <trkpt lat="44.57915" lon="6.21208">
        <ele>1122.8</ele>
        <time>2022-09-11T08:33:32Z</time>
      </trkpt>
      <trkpt lat="44.57914" lon="6.2122">
        <ele>1122.3</ele>
        <time>2022-09-11T08:33:33Z</time>
      </trkpt>
      <trkpt lat="44.57911" lon="6.21233">
        <ele>1121.8</ele>
        <time>2022-09-11T08:33:34Z</time>
      </trkpt>
      <trkpt lat="44.57907" lon="6.21245">
        <ele>1121.2</ele>
        <time>2022-09-11T08:33:35Z</time>
      </trkpt>
      <trkpt lat="44.57902" lon="6.21257">
        <ele>1120.5</ele>
        <time>2022-09-11T08:33:36Z</time>
      </trkpt>
      <trkpt lat="44.57897" lon="6.21269">
        <ele>1119.7</ele>
        <time>2022-09-11T08:33:37Z</time>
      </trkpt>
      <trkpt lat="44.57891" lon="6.2128">
        <ele>1119</ele>
        <time>2022-09-11T08:33:38Z</time>
      </trkpt>
      <trkpt lat="44.57886" lon="6.21292">
        <ele>1118.1</ele>
        <time>2022-09-11T08:33:39Z</time>
      </trkpt>
      <trkpt lat="44.57881" lon="6.21305">
        <ele>1117.3</ele>
        <time>2022-09-11T08:33:40Z</time>
      </trkpt>
      <trkpt lat="44.57875" lon="6.21318">
        <ele>1116.4</ele>
        <time>2022-09-11T08:33:41Z</time>
      </trkpt>
      <trkpt lat="44.57871" lon="6.21332">
        <ele>1115.6</ele>
        <time>2022-09-11T08:33:42Z</time>
      </trkpt>
      <trkpt lat="44.57867" lon="6.21346">
        <ele>1114.7</ele>
        <time>2022-09-11T08:33:43Z</time>
      </trkpt>
      <trkpt lat="44.57862" lon="6.21361">
        <ele>1113.7</ele>
        <time>2022-09-11T08:33:44Z</time>
      </trkpt>
      <trkpt lat="44.57857" lon="6.21376">
        <ele>1112.7</ele>
        <time>2022-09-11T08:33:45Z</time>
      </trkpt>
      <trkpt lat="44.57852" lon="6.21391">
        <ele>1111.8</ele>
        <time>2022-09-11T08:33:46Z</time>
      </trkpt>
      <trkpt lat="44.57848" lon="6.21405">
        <ele>1110.9</ele>
        <time>2022-09-11T08:33:47Z</time>
      </trkpt>
      <trkpt lat="44.57843" lon="6.21419">
        <ele>1109.9</ele>
        <time>2022-09-11T08:33:48Z</time>
      </trkpt>
      <trkpt lat="44.57839" lon="6.21435">
        <ele>1109</ele>
        <time>2022-09-11T08:33:49Z</time>
      </trkpt>
      <trkpt lat="44.57836" lon="6.21451">
        <ele>1108.1</ele>
        <time>2022-09-11T08:33:50Z</time>
      </trkpt>
      <trkpt lat="44.57833" lon="6.21467">
        <ele>1107.2</ele>
        <time>2022-09-11T08:33:51Z</time>
      </trkpt>
      <trkpt lat="44.5783" lon="6.21483">
        <ele>1107</ele>
        <time>2022-09-11T08:33:52Z</time>
      </trkpt>
      <trkpt lat="44.57827" lon="6.21499">
        <ele>1106.2</ele>
        <time>2022-09-11T08:33:53Z</time>
      </trkpt>
      <trkpt lat="44.57825" lon="6.21514">
        <ele>1105.4</ele>
        <time>2022-09-11T08:33:54Z</time>
      </trkpt>
      <trkpt lat="44.57823" lon="6.21528">
        <ele>1104.7</ele>
        <time>2022-09-11T08:33:55Z</time>
      </trkpt>
      <trkpt lat="44.57821" lon="6.21542">
        <ele>1104.1</ele>
        <time>2022-09-11T08:33:56Z</time>
      </trkpt>
      <trkpt lat="44.5782" lon="6.21556">
        <ele>1103.6</ele>
        <time>2022-09-11T08:33:57Z</time>
      </trkpt>
      <trkpt lat="44.57819" lon="6.21569">
        <ele>1103.4</ele>
        <time>2022-09-11T08:33:58Z</time>
      </trkpt>
      <trkpt lat="44.57819" lon="6.2158">
        <ele>1103.1</ele>
        <time>2022-09-11T08:33:59Z</time>
      </trkpt>
      <trkpt lat="44.57819" lon="6.21592">
        <ele>1102.9</ele>
        <time>2022-09-11T08:34:00Z</time>
      </trkpt>
      <trkpt lat="44.57819" lon="6.21605">
        <ele>1102.4</ele>
        <time>2022-09-11T08:34:01Z</time>
      </trkpt>
      <trkpt lat="44.5782" lon="6.21616">
        <ele>1101.9</ele>
        <time>2022-09-11T08:34:02Z</time>
      </trkpt>
      <trkpt lat="44.57821" lon="6.21629">
        <ele>1101.3</ele>
        <time>2022-09-11T08:34:03Z</time>
      </trkpt>
      <trkpt lat="44.57823" lon="6.21643">
        <ele>1100.6</ele>
        <time>2022-09-11T08:34:04Z</time>
      </trkpt>
      <trkpt lat="44.57824" lon="6.21656">
        <ele>1100</ele>
        <time>2022-09-11T08:34:05Z</time>
      </trkpt>
      <trkpt lat="44.57825" lon="6.2167">
        <ele>1099.4</ele>
        <time>2022-09-11T08:34:06Z</time>
      </trkpt>
      <trkpt lat="44.57825" lon="6.21684">
        <ele>1098.8</ele>
        <time>2022-09-11T08:34:07Z</time>
      </trkpt>
      <trkpt lat="44.57824" lon="6.21699">
        <ele>1098.1</ele>
        <time>2022-09-11T08:34:08Z</time>
      </trkpt>
      <trkpt lat="44.57823" lon="6.21714">
        <ele>1097.5</ele>
        <time>2022-09-11T08:34:09Z</time>
      </trkpt>
      <trkpt lat="44.57822" lon="6.21729">
        <ele>1097</ele>
        <time>2022-09-11T08:34:10Z</time>
      </trkpt>
      <trkpt lat="44.57822" lon="6.21743">
        <ele>1096.4</ele>
        <time>2022-09-11T08:34:11Z</time>
      </trkpt>
      <trkpt lat="44.57821" lon="6.21758">
        <ele>1095.8</ele>
        <time>2022-09-11T08:34:12Z</time>
      </trkpt>
      <trkpt lat="44.5782" lon="6.21772">
        <ele>1095.2</ele>
        <time>2022-09-11T08:34:13Z</time>
      </trkpt>
      <trkpt lat="44.57818" lon="6.21786">
        <ele>1094.6</ele>
        <time>2022-09-11T08:34:14Z</time>
      </trkpt>
      <trkpt lat="44.57816" lon="6.218">
        <ele>1093.8</ele>
        <time>2022-09-11T08:34:15Z</time>
      </trkpt>
      <trkpt lat="44.57814" lon="6.21814">
        <ele>1093</ele>
        <time>2022-09-11T08:34:16Z</time>
      </trkpt>
      <trkpt lat="44.57812" lon="6.21828">
        <ele>1092.2</ele>
        <time>2022-09-11T08:34:17Z</time>
      </trkpt>
      <trkpt lat="44.57809" lon="6.21842">
        <ele>1091.3</ele>
        <time>2022-09-11T08:34:18Z</time>
      </trkpt>
      <trkpt lat="44.57805" lon="6.21856">
        <ele>1090.4</ele>
        <time>2022-09-11T08:34:19Z</time>
      </trkpt>
      <trkpt lat="44.578" lon="6.2187">
        <ele>1089.5</ele>
        <time>2022-09-11T08:34:20Z</time>
      </trkpt>
      <trkpt lat="44.57795" lon="6.21883">
        <ele>1088.7</ele>
        <time>2022-09-11T08:34:21Z</time>
      </trkpt>
      <trkpt lat="44.57789" lon="6.21896">
        <ele>1087.8</ele>
        <time>2022-09-11T08:34:22Z</time>
      </trkpt>
      <trkpt lat="44.57783" lon="6.2191">
        <ele>1086.9</ele>
        <time>2022-09-11T08:34:23Z</time>
      </trkpt>
      <trkpt lat="44.57777" lon="6.21923">
        <ele>1086</ele>
        <time>2022-09-11T08:34:24Z</time>
      </trkpt>
      <trkpt lat="44.57772" lon="6.21936">
        <ele>1085.1</ele>
        <time>2022-09-11T08:34:25Z</time>
      </trkpt>
      <trkpt lat="44.57766" lon="6.2195">
        <ele>1084</ele>
        <time>2022-09-11T08:34:26Z</time>
      </trkpt>
      <trkpt lat="44.57761" lon="6.21965">
        <ele>1083</ele>
        <time>2022-09-11T08:34:27Z</time>
      </trkpt>
      <trkpt lat="44.57757" lon="6.2198">
        <ele>1082.1</ele>
        <time>2022-09-11T08:34:28Z</time>
      </trkpt>
      <trkpt lat="44.57754" lon="6.21996">
        <ele>1081.1</ele>
        <time>2022-09-11T08:34:29Z</time>
      </trkpt>
      <trkpt lat="44.57752" lon="6.22013">
        <ele>1080.2</ele>
        <time>2022-09-11T08:34:30Z</time>
      </trkpt>
      <trkpt lat="44.57751" lon="6.22029">
        <ele>1079.3</ele>
        <time>2022-09-11T08:34:31Z</time>
      </trkpt>
      <trkpt lat="44.57751" lon="6.22043">
        <ele>1078.6</ele>
        <time>2022-09-11T08:34:32Z</time>
      </trkpt>
      <trkpt lat="44.57752" lon="6.22059">
        <ele>1077.8</ele>
        <time>2022-09-11T08:34:33Z</time>
      </trkpt>
      <trkpt lat="44.57752" lon="6.22074">
        <ele>1077.1</ele>
        <time>2022-09-11T08:34:34Z</time>
      </trkpt>
      <trkpt lat="44.57752" lon="6.22091">
        <ele>1076.2</ele>
        <time>2022-09-11T08:34:35Z</time>
      </trkpt>
      <trkpt lat="44.57751" lon="6.22107">
        <ele>1075.3</ele>
        <time>2022-09-11T08:34:36Z</time>
      </trkpt>
      <trkpt lat="44.57748" lon="6.22122">
        <ele>1074.3</ele>
        <time>2022-09-11T08:34:37Z</time>
      </trkpt>
      <trkpt lat="44.57745" lon="6.22138">
        <ele>1073.3</ele>
        <time>2022-09-11T08:34:38Z</time>
      </trkpt>
      <trkpt lat="44.57741" lon="6.22154">
        <ele>1072.2</ele>
        <time>2022-09-11T08:34:39Z</time>
      </trkpt>
      <trkpt lat="44.57736" lon="6.22169">
        <ele>1071.1</ele>
        <time>2022-09-11T08:34:40Z</time>
      </trkpt>
      <trkpt lat="44.57731" lon="6.22185">
        <ele>1070</ele>
        <time>2022-09-11T08:34:41Z</time>
      </trkpt>
      <trkpt lat="44.57727" lon="6.22201">
        <ele>1068.9</ele>
        <time>2022-09-11T08:34:42Z</time>
      </trkpt>
      <trkpt lat="44.57723" lon="6.22217">
        <ele>1067.7</ele>
        <time>2022-09-11T08:34:43Z</time>
      </trkpt>
      <trkpt lat="44.57718" lon="6.22234">
        <ele>1066.6</ele>
        <time>2022-09-11T08:34:44Z</time>
      </trkpt>
      <trkpt lat="44.57713" lon="6.22251">
        <ele>1065.4</ele>
        <time>2022-09-11T08:34:45Z</time>
      </trkpt>
      <trkpt lat="44.57711" lon="6.22268">
        <ele>1064.4</ele>
        <time>2022-09-11T08:34:46Z</time>
      </trkpt>
      <trkpt lat="44.5771" lon="6.22284">
        <ele>1063.5</ele>
        <time>2022-09-11T08:34:47Z</time>
      </trkpt>
      <trkpt lat="44.57709" lon="6.22297">
        <ele>1062.7</ele>
        <time>2022-09-11T08:34:48Z</time>
      </trkpt>
      <trkpt lat="44.57708" lon="6.2231">
        <ele>1061.9</ele>
        <time>2022-09-11T08:34:49Z</time>
      </trkpt>
      <trkpt lat="44.57707" lon="6.22322">
        <ele>1061.1</ele>
        <time>2022-09-11T08:34:50Z</time>
      </trkpt>
      <trkpt lat="44.57703" lon="6.22331">
        <ele>1060.3</ele>
        <time>2022-09-11T08:34:51Z</time>
      </trkpt>
      <trkpt lat="44.57697" lon="6.22338">
        <ele>1059.4</ele>
        <time>2022-09-11T08:34:52Z</time>
      </trkpt>
      <trkpt lat="44.57688" lon="6.22337">
        <ele>1058.4</ele>
        <time>2022-09-11T08:34:53Z</time>
      </trkpt>
      <trkpt lat="44.57682" lon="6.22328">
        <ele>1057.4</ele>
        <time>2022-09-11T08:34:54Z</time>
      </trkpt>
      <trkpt lat="44.57679" lon="6.22318">
        <ele>1056.5</ele>
        <time>2022-09-11T08:34:55Z</time>
      </trkpt>
      <trkpt lat="44.57676" lon="6.22307">
        <ele>1055.6</ele>
        <time>2022-09-11T08:34:56Z</time>
      </trkpt>
      <trkpt lat="44.57678" lon="6.22292">
        <ele>1054.5</ele>
        <time>2022-09-11T08:34:57Z</time>
      </trkpt>
      <trkpt lat="44.57678" lon="6.22278">
        <ele>1053.4</ele>
        <time>2022-09-11T08:34:58Z</time>
      </trkpt>
      <trkpt lat="44.57678" lon="6.22265">
        <ele>1052.4</ele>
        <time>2022-09-11T08:34:59Z</time>
      </trkpt>
      <trkpt lat="44.57676" lon="6.22251">
        <ele>1051.2</ele>
        <time>2022-09-11T08:35:00Z</time>
      </trkpt>
      <trkpt lat="44.57674" lon="6.22238">
        <ele>1050.3</ele>
        <time>2022-09-11T08:35:01Z</time>
      </trkpt>
      <trkpt lat="44.57672" lon="6.22225">
        <ele>1049.5</ele>
        <time>2022-09-11T08:35:02Z</time>
      </trkpt>
      <trkpt lat="44.57666" lon="6.22214">
        <ele>1048.7</ele>
        <time>2022-09-11T08:35:03Z</time>
      </trkpt>
      <trkpt lat="44.57659" lon="6.22204">
        <ele>1047.8</ele>
        <time>2022-09-11T08:35:04Z</time>
      </trkpt>
      <trkpt lat="44.5765" lon="6.22192">
        <ele>1046.8</ele>
        <time>2022-09-11T08:35:05Z</time>
      </trkpt>
      <trkpt lat="44.57641" lon="6.22181">
        <ele>1045.8</ele>
        <time>2022-09-11T08:35:06Z</time>
      </trkpt>
      <trkpt lat="44.57632" lon="6.22171">
        <ele>1044.8</ele>
        <time>2022-09-11T08:35:07Z</time>
      </trkpt>
      <trkpt lat="44.57623" lon="6.22162">
        <ele>1043.9</ele>
        <time>2022-09-11T08:35:08Z</time>
      </trkpt>
      <trkpt lat="44.57614" lon="6.22153">
        <ele>1043</ele>
        <time>2022-09-11T08:35:09Z</time>
      </trkpt>
      <trkpt lat="44.57605" lon="6.22143">
        <ele>1042.1</ele>
        <time>2022-09-11T08:35:10Z</time>
      </trkpt>
      <trkpt lat="44.57598" lon="6.22131">
        <ele>1041.1</ele>
        <time>2022-09-11T08:35:11Z</time>
      </trkpt>
      <trkpt lat="44.5759" lon="6.22119">
        <ele>1040.1</ele>
        <time>2022-09-11T08:35:12Z</time>
      </trkpt>
      <trkpt lat="44.57583" lon="6.22103">
        <ele>1039.1</ele>
        <time>2022-09-11T08:35:13Z</time>
      </trkpt>
      <trkpt lat="44.57576" lon="6.22089">
        <ele>1038.1</ele>
        <time>2022-09-11T08:35:14Z</time>
      </trkpt>
      <trkpt lat="44.57572" lon="6.22073">
        <ele>1037.2</ele>
        <time>2022-09-11T08:35:15Z</time>
      </trkpt>
      <trkpt lat="44.57569" lon="6.22057">
        <ele>1036.2</ele>
        <time>2022-09-11T08:35:16Z</time>
      </trkpt>
      <trkpt lat="44.57565" lon="6.2204">
        <ele>1035.3</ele>
        <time>2022-09-11T08:35:17Z</time>
      </trkpt>
      <trkpt lat="44.57562" lon="6.22025">
        <ele>1034.4</ele>
        <time>2022-09-11T08:35:18Z</time>
      </trkpt>
      <trkpt lat="44.57557" lon="6.22012">
        <ele>1033.6</ele>
        <time>2022-09-11T08:35:19Z</time>
      </trkpt>
      <trkpt lat="44.5755" lon="6.22002">
        <ele>1032.9</ele>
        <time>2022-09-11T08:35:20Z</time>
      </trkpt>
      <trkpt lat="44.57544" lon="6.22">
        <ele>1032.3</ele>
        <time>2022-09-11T08:35:21Z</time>
      </trkpt>
      <trkpt lat="44.57537" lon="6.22004">
        <ele>1031.8</ele>
        <time>2022-09-11T08:35:22Z</time>
      </trkpt>
      <trkpt lat="44.57532" lon="6.22011">
        <ele>1031.3</ele>
        <time>2022-09-11T08:35:23Z</time>
      </trkpt>
      <trkpt lat="44.5753" lon="6.22022">
        <ele>1030.7</ele>
        <time>2022-09-11T08:35:24Z</time>
      </trkpt>
      <trkpt lat="44.57535" lon="6.22032">
        <ele>1030.1</ele>
        <time>2022-09-11T08:35:25Z</time>
      </trkpt>
      <trkpt lat="44.5754" lon="6.22043">
        <ele>1029.5</ele>
        <time>2022-09-11T08:35:26Z</time>
      </trkpt>
      <trkpt lat="44.57543" lon="6.22054">
        <ele>1028.9</ele>
        <time>2022-09-11T08:35:27Z</time>
      </trkpt>
      <trkpt lat="44.57545" lon="6.22066">
        <ele>1028.2</ele>
        <time>2022-09-11T08:35:28Z</time>
      </trkpt>
      <trkpt lat="44.57548" lon="6.2208">
        <ele>1027.4</ele>
        <time>2022-09-11T08:35:29Z</time>
      </trkpt>
      <trkpt lat="44.57549" lon="6.22093">
        <ele>1026.6</ele>
        <time>2022-09-11T08:35:30Z</time>
      </trkpt>
      <trkpt lat="44.57548" lon="6.22108">
        <ele>1025.7</ele>
        <time>2022-09-11T08:35:31Z</time>
      </trkpt>
      <trkpt lat="44.57547" lon="6.22122">
        <ele>1024.8</ele>
        <time>2022-09-11T08:35:32Z</time>
      </trkpt>
      <trkpt lat="44.57545" lon="6.22137">
        <ele>1023.8</ele>
        <time>2022-09-11T08:35:33Z</time>
      </trkpt>
      <trkpt lat="44.57542" lon="6.22153">
        <ele>1022.8</ele>
        <time>2022-09-11T08:35:34Z</time>
      </trkpt>
      <trkpt lat="44.57538" lon="6.22168">
        <ele>1021.7</ele>
        <time>2022-09-11T08:35:35Z</time>
      </trkpt>
      <trkpt lat="44.57536" lon="6.22184">
        <ele>1020.6</ele>
        <time>2022-09-11T08:35:36Z</time>
      </trkpt>
      <trkpt lat="44.57534" lon="6.222">
        <ele>1019.4</ele>
        <time>2022-09-11T08:35:37Z</time>
      </trkpt>
      <trkpt lat="44.57531" lon="6.22216">
        <ele>1018.3</ele>
        <time>2022-09-11T08:35:38Z</time>
      </trkpt>
      <trkpt lat="44.57529" lon="6.22232">
        <ele>1017.1</ele>
        <time>2022-09-11T08:35:39Z</time>
      </trkpt>
      <trkpt lat="44.57528" lon="6.22249">
        <ele>1015.9</ele>
        <time>2022-09-11T08:35:40Z</time>
      </trkpt>
      <trkpt lat="44.57528" lon="6.22267">
        <ele>1014.7</ele>
        <time>2022-09-11T08:35:41Z</time>
      </trkpt>
      <trkpt lat="44.57529" lon="6.22284">
        <ele>1013.6</ele>
        <time>2022-09-11T08:35:42Z</time>
      </trkpt>
      <trkpt lat="44.57531" lon="6.22301">
        <ele>1012.4</ele>
        <time>2022-09-11T08:35:43Z</time>
      </trkpt>
      <trkpt lat="44.57535" lon="6.2232">
        <ele>1011.1</ele>
        <time>2022-09-11T08:35:44Z</time>
      </trkpt>
      <trkpt lat="44.5754" lon="6.22337">
        <ele>1009.8</ele>
        <time>2022-09-11T08:35:45Z</time>
      </trkpt>
      <trkpt lat="44.57547" lon="6.22352">
        <ele>1008.5</ele>
        <time>2022-09-11T08:35:46Z</time>
      </trkpt>
      <trkpt lat="44.57554" lon="6.22369">
        <ele>1007.1</ele>
        <time>2022-09-11T08:35:47Z</time>
      </trkpt>
      <trkpt lat="44.5756" lon="6.22383">
        <ele>1006</ele>
        <time>2022-09-11T08:35:48Z</time>
      </trkpt>
      <trkpt lat="44.57568" lon="6.22397">
        <ele>1004.7</ele>
        <time>2022-09-11T08:35:49Z</time>
      </trkpt>
      <trkpt lat="44.57576" lon="6.22411">
        <ele>1003.4</ele>
        <time>2022-09-11T08:35:50Z</time>
      </trkpt>
      <trkpt lat="44.57585" lon="6.22423">
        <ele>1002.2</ele>
        <time>2022-09-11T08:35:51Z</time>
      </trkpt>
      <trkpt lat="44.57593" lon="6.22436">
        <ele>1001.2</ele>
        <time>2022-09-11T08:35:52Z</time>
      </trkpt>
      <trkpt lat="44.57599" lon="6.22449">
        <ele>1000.3</ele>
        <time>2022-09-11T08:35:53Z</time>
      </trkpt>
      <trkpt lat="44.57603" lon="6.22461">
        <ele>999.6</ele>
        <time>2022-09-11T08:35:54Z</time>
      </trkpt>
      <trkpt lat="44.57606" lon="6.22472">
        <ele>999</ele>
        <time>2022-09-11T08:35:55Z</time>
      </trkpt>
      <trkpt lat="44.57606" lon="6.22485">
        <ele>998.3</ele>
        <time>2022-09-11T08:35:56Z</time>
      </trkpt>
      <trkpt lat="44.57604" lon="6.22496">
        <ele>997.5</ele>
        <time>2022-09-11T08:35:57Z</time>
      </trkpt>
      <trkpt lat="44.576" lon="6.22504">
        <ele>996.8</ele>
        <time>2022-09-11T08:35:58Z</time>
      </trkpt>
      <trkpt lat="44.57592" lon="6.22508">
        <ele>996</ele>
        <time>2022-09-11T08:35:59Z</time>
      </trkpt>
      <trkpt lat="44.57584" lon="6.22507">
        <ele>995.3</ele>
        <time>2022-09-11T08:36:00Z</time>
      </trkpt>
      <trkpt lat="44.57576" lon="6.22501">
        <ele>994.4</ele>
        <time>2022-09-11T08:36:01Z</time>
      </trkpt>
      <trkpt lat="44.57569" lon="6.22492">
        <ele>993.5</ele>
        <time>2022-09-11T08:36:02Z</time>
      </trkpt>
      <trkpt lat="44.57562" lon="6.22484">
        <ele>992.6</ele>
        <time>2022-09-11T08:36:03Z</time>
      </trkpt>
      <trkpt lat="44.57554" lon="6.22476">
        <ele>991.8</ele>
        <time>2022-09-11T08:36:04Z</time>
      </trkpt>
      <trkpt lat="44.57547" lon="6.22466">
        <ele>990.8</ele>
        <time>2022-09-11T08:36:05Z</time>
      </trkpt>
      <trkpt lat="44.57537" lon="6.22459">
        <ele>989.9</ele>
        <time>2022-09-11T08:36:06Z</time>
      </trkpt>
      <trkpt lat="44.57527" lon="6.22454">
        <ele>988.9</ele>
        <time>2022-09-11T08:36:07Z</time>
      </trkpt>
      <trkpt lat="44.57516" lon="6.2245">
        <ele>987.9</ele>
        <time>2022-09-11T08:36:08Z</time>
      </trkpt>
      <trkpt lat="44.57505" lon="6.22446">
        <ele>986.8</ele>
        <time>2022-09-11T08:36:09Z</time>
      </trkpt>
      <trkpt lat="44.57494" lon="6.22444">
        <ele>985.9</ele>
        <time>2022-09-11T08:36:10Z</time>
      </trkpt>
      <trkpt lat="44.57482" lon="6.22441">
        <ele>984.8</ele>
        <time>2022-09-11T08:36:11Z</time>
      </trkpt>
      <trkpt lat="44.57471" lon="6.22435">
        <ele>983.8</ele>
        <time>2022-09-11T08:36:12Z</time>
      </trkpt>
      <trkpt lat="44.5746" lon="6.22429">
        <ele>982.8</ele>
        <time>2022-09-11T08:36:13Z</time>
      </trkpt>
      <trkpt lat="44.5745" lon="6.22422">
        <ele>981.8</ele>
        <time>2022-09-11T08:36:14Z</time>
      </trkpt>
      <trkpt lat="44.5744" lon="6.22411">
        <ele>980.7</ele>
        <time>2022-09-11T08:36:15Z</time>
      </trkpt>
      <trkpt lat="44.57432" lon="6.224">
        <ele>979.7</ele>
        <time>2022-09-11T08:36:16Z</time>
      </trkpt>
      <trkpt lat="44.57424" lon="6.22386">
        <ele>978.7</ele>
        <time>2022-09-11T08:36:17Z</time>
      </trkpt>
      <trkpt lat="44.57419" lon="6.22372">
        <ele>977.7</ele>
        <time>2022-09-11T08:36:18Z</time>
      </trkpt>
      <trkpt lat="44.57415" lon="6.22357">
        <ele>976.8</ele>
        <time>2022-09-11T08:36:19Z</time>
      </trkpt>
      <trkpt lat="44.57412" lon="6.22343">
        <ele>976.1</ele>
        <time>2022-09-11T08:36:20Z</time>
      </trkpt>
      <trkpt lat="44.5741" lon="6.22331">
        <ele>975.3</ele>
        <time>2022-09-11T08:36:21Z</time>
      </trkpt>
      <trkpt lat="44.57407" lon="6.22321">
        <ele>974.7</ele>
        <time>2022-09-11T08:36:22Z</time>
      </trkpt>
      <trkpt lat="44.57402" lon="6.22315">
        <ele>974.2</ele>
        <time>2022-09-11T08:36:23Z</time>
      </trkpt>
      <trkpt lat="44.57395" lon="6.2231">
        <ele>973.5</ele>
        <time>2022-09-11T08:36:24Z</time>
      </trkpt>
      <trkpt lat="44.57388" lon="6.2231">
        <ele>972.9</ele>
        <time>2022-09-11T08:36:25Z</time>
      </trkpt>
      <trkpt lat="44.57384" lon="6.22321">
        <ele>972.1</ele>
        <time>2022-09-11T08:36:26Z</time>
      </trkpt>
      <trkpt lat="44.57379" lon="6.22335">
        <ele>971.3</ele>
        <time>2022-09-11T08:36:27Z</time>
      </trkpt>
      <trkpt lat="44.57378" lon="6.22347">
        <ele>970.8</ele>
        <time>2022-09-11T08:36:28Z</time>
      </trkpt>
      <trkpt lat="44.57374" lon="6.22357">
        <ele>970.4</ele>
        <time>2022-09-11T08:36:29Z</time>
      </trkpt>
      <trkpt lat="44.57368" lon="6.22364">
        <ele>970</ele>
        <time>2022-09-11T08:36:30Z</time>
      </trkpt>
      <trkpt lat="44.57361" lon="6.22367">
        <ele>968.5</ele>
        <time>2022-09-11T08:36:31Z</time>
      </trkpt>
      <trkpt lat="44.57354" lon="6.22365">
        <ele>967.6</ele>
        <time>2022-09-11T08:36:32Z</time>
      </trkpt>
      <trkpt lat="44.57345" lon="6.2236">
        <ele>966.5</ele>
        <time>2022-09-11T08:36:33Z</time>
      </trkpt>
      <trkpt lat="44.57336" lon="6.22357">
        <ele>965.6</ele>
        <time>2022-09-11T08:36:34Z</time>
      </trkpt>
      <trkpt lat="44.57328" lon="6.22352">
        <ele>964.7</ele>
        <time>2022-09-11T08:36:35Z</time>
      </trkpt>
      <trkpt lat="44.57319" lon="6.22345">
        <ele>963.7</ele>
        <time>2022-09-11T08:36:36Z</time>
      </trkpt>
      <trkpt lat="44.5731" lon="6.22339">
        <ele>962.8</ele>
        <time>2022-09-11T08:36:37Z</time>
      </trkpt>
      <trkpt lat="44.573" lon="6.22334">
        <ele>961.8</ele>
        <time>2022-09-11T08:36:38Z</time>
      </trkpt>
      <trkpt lat="44.5729" lon="6.22332">
        <ele>960.7</ele>
        <time>2022-09-11T08:36:39Z</time>
      </trkpt>
      <trkpt lat="44.57279" lon="6.22331">
        <ele>959.7</ele>
        <time>2022-09-11T08:36:40Z</time>
      </trkpt>
      <trkpt lat="44.57268" lon="6.2233">
        <ele>958.6</ele>
        <time>2022-09-11T08:36:41Z</time>
      </trkpt>
      <trkpt lat="44.57258" lon="6.22328">
        <ele>957.5</ele>
        <time>2022-09-11T08:36:42Z</time>
      </trkpt>
      <trkpt lat="44.57248" lon="6.22322">
        <ele>956.3</ele>
        <time>2022-09-11T08:36:43Z</time>
      </trkpt>
      <trkpt lat="44.57238" lon="6.22312">
        <ele>955</ele>
        <time>2022-09-11T08:36:44Z</time>
      </trkpt>
      <trkpt lat="44.57231" lon="6.22298">
        <ele>953.7</ele>
        <time>2022-09-11T08:36:45Z</time>
      </trkpt>
      <trkpt lat="44.57227" lon="6.22282">
        <ele>952.4</ele>
        <time>2022-09-11T08:36:46Z</time>
      </trkpt>
      <trkpt lat="44.57224" lon="6.22265">
        <ele>951.1</ele>
        <time>2022-09-11T08:36:47Z</time>
      </trkpt>
      <trkpt lat="44.57221" lon="6.22249">
        <ele>949.9</ele>
        <time>2022-09-11T08:36:48Z</time>
      </trkpt>
      <trkpt lat="44.57219" lon="6.22232">
        <ele>948.7</ele>
        <time>2022-09-11T08:36:49Z</time>
      </trkpt>
      <trkpt lat="44.57216" lon="6.22214">
        <ele>947.5</ele>
        <time>2022-09-11T08:36:50Z</time>
      </trkpt>
      <trkpt lat="44.57213" lon="6.22197">
        <ele>946.2</ele>
        <time>2022-09-11T08:36:51Z</time>
      </trkpt>
      <trkpt lat="44.5721" lon="6.22179">
        <ele>945</ele>
        <time>2022-09-11T08:36:52Z</time>
      </trkpt>
      <trkpt lat="44.57207" lon="6.22162">
        <ele>943.8</ele>
        <time>2022-09-11T08:36:53Z</time>
      </trkpt>
      <trkpt lat="44.57204" lon="6.22144">
        <ele>942.6</ele>
        <time>2022-09-11T08:36:54Z</time>
      </trkpt>
      <trkpt lat="44.57199" lon="6.22126">
        <ele>941.3</ele>
        <time>2022-09-11T08:36:55Z</time>
      </trkpt>
      <trkpt lat="44.57195" lon="6.2211">
        <ele>940.1</ele>
        <time>2022-09-11T08:36:56Z</time>
      </trkpt>
      <trkpt lat="44.5719" lon="6.22095">
        <ele>938.9</ele>
        <time>2022-09-11T08:36:57Z</time>
      </trkpt>
      <trkpt lat="44.57185" lon="6.22079">
        <ele>937.7</ele>
        <time>2022-09-11T08:36:58Z</time>
      </trkpt>
      <trkpt lat="44.57179" lon="6.22065">
        <ele>936.7</ele>
        <time>2022-09-11T08:36:59Z</time>
      </trkpt>
      <trkpt lat="44.57173" lon="6.22051">
        <ele>935.6</ele>
        <time>2022-09-11T08:37:00Z</time>
      </trkpt>
      <trkpt lat="44.57165" lon="6.22037">
        <ele>934.5</ele>
        <time>2022-09-11T08:37:01Z</time>
      </trkpt>
      <trkpt lat="44.57156" lon="6.22023">
        <ele>933.3</ele>
        <time>2022-09-11T08:37:02Z</time>
      </trkpt>
      <trkpt lat="44.57148" lon="6.2201">
        <ele>932.1</ele>
        <time>2022-09-11T08:37:03Z</time>
      </trkpt>
      <trkpt lat="44.57139" lon="6.21997">
        <ele>930.9</ele>
        <time>2022-09-11T08:37:04Z</time>
      </trkpt>
      <trkpt lat="44.5713" lon="6.21984">
        <ele>929.7</ele>
        <time>2022-09-11T08:37:05Z</time>
      </trkpt>
      <trkpt lat="44.57121" lon="6.21971">
        <ele>928.5</ele>
        <time>2022-09-11T08:37:06Z</time>
      </trkpt>
      <trkpt lat="44.57112" lon="6.21957">
        <ele>927.1</ele>
        <time>2022-09-11T08:37:07Z</time>
      </trkpt>
      <trkpt lat="44.57103" lon="6.21943">
        <ele>925.7</ele>
        <time>2022-09-11T08:37:08Z</time>
      </trkpt>
      <trkpt lat="44.57093" lon="6.2193">
        <ele>924.4</ele>
        <time>2022-09-11T08:37:09Z</time>
      </trkpt>
      <trkpt lat="44.57084" lon="6.21915">
        <ele>923</ele>
        <time>2022-09-11T08:37:10Z</time>
      </trkpt>
      <trkpt lat="44.57074" lon="6.21902">
        <ele>921.6</ele>
        <time>2022-09-11T08:37:11Z</time>
      </trkpt>
      <trkpt lat="44.57065" lon="6.21888">
        <ele>920.2</ele>
        <time>2022-09-11T08:37:12Z</time>
      </trkpt>
      <trkpt lat="44.57057" lon="6.21873">
        <ele>919</ele>
        <time>2022-09-11T08:37:13Z</time>
      </trkpt>
      <trkpt lat="44.5705" lon="6.21858">
        <ele>917.7</ele>
        <time>2022-09-11T08:37:14Z</time>
      </trkpt>
      <trkpt lat="44.57044" lon="6.21842">
        <ele>916.4</ele>
        <time>2022-09-11T08:37:15Z</time>
      </trkpt>
      <trkpt lat="44.57037" lon="6.21826">
        <ele>915.1</ele>
        <time>2022-09-11T08:37:16Z</time>
      </trkpt>
      <trkpt lat="44.57031" lon="6.21809">
        <ele>913.7</ele>
        <time>2022-09-11T08:37:17Z</time>
      </trkpt>
      <trkpt lat="44.57026" lon="6.21792">
        <ele>912.4</ele>
        <time>2022-09-11T08:37:18Z</time>
      </trkpt>
      <trkpt lat="44.57022" lon="6.21775">
        <ele>911.1</ele>
        <time>2022-09-11T08:37:19Z</time>
      </trkpt>
      <trkpt lat="44.57019" lon="6.21758">
        <ele>909.8</ele>
        <time>2022-09-11T08:37:20Z</time>
      </trkpt>
      <trkpt lat="44.57017" lon="6.2174">
        <ele>908.6</ele>
        <time>2022-09-11T08:37:21Z</time>
      </trkpt>
      <trkpt lat="44.57016" lon="6.21723">
        <ele>907.5</ele>
        <time>2022-09-11T08:37:22Z</time>
      </trkpt>
      <trkpt lat="44.57015" lon="6.21705">
        <ele>906.3</ele>
        <time>2022-09-11T08:37:23Z</time>
      </trkpt>
      <trkpt lat="44.57015" lon="6.21688">
        <ele>905.1</ele>
        <time>2022-09-11T08:37:24Z</time>
      </trkpt>
      <trkpt lat="44.57016" lon="6.2167">
        <ele>904.2</ele>
        <time>2022-09-11T08:37:25Z</time>
      </trkpt>
      <trkpt lat="44.57016" lon="6.21653">
        <ele>903.2</ele>
        <time>2022-09-11T08:37:26Z</time>
      </trkpt>
      <trkpt lat="44.57015" lon="6.21636">
        <ele>902.4</ele>
        <time>2022-09-11T08:37:27Z</time>
      </trkpt>
      <trkpt lat="44.57016" lon="6.21617">
        <ele>901.6</ele>
        <time>2022-09-11T08:37:28Z</time>
      </trkpt>
      <trkpt lat="44.57016" lon="6.216">
        <ele>900.9</ele>
        <time>2022-09-11T08:37:29Z</time>
      </trkpt>
      <trkpt lat="44.57017" lon="6.21584">
        <ele>900.3</ele>
        <time>2022-09-11T08:37:30Z</time>
      </trkpt>
      <trkpt lat="44.57017" lon="6.21568">
        <ele>899.7</ele>
        <time>2022-09-11T08:37:31Z</time>
      </trkpt>
      <trkpt lat="44.57017" lon="6.21551">
        <ele>899.1</ele>
        <time>2022-09-11T08:37:32Z</time>
      </trkpt>
      <trkpt lat="44.57017" lon="6.21534">
        <ele>898.4</ele>
        <time>2022-09-11T08:37:33Z</time>
      </trkpt>
      <trkpt lat="44.57017" lon="6.21519">
        <ele>897.6</ele>
        <time>2022-09-11T08:37:34Z</time>
      </trkpt>
      <trkpt lat="44.57016" lon="6.21504">
        <ele>896.8</ele>
        <time>2022-09-11T08:37:35Z</time>
      </trkpt>
      <trkpt lat="44.57016" lon="6.21489">
        <ele>895.9</ele>
        <time>2022-09-11T08:37:36Z</time>
      </trkpt>
      <trkpt lat="44.57014" lon="6.21474">
        <ele>895</ele>
        <time>2022-09-11T08:37:37Z</time>
      </trkpt>
      <trkpt lat="44.57012" lon="6.21459">
        <ele>894</ele>
        <time>2022-09-11T08:37:38Z</time>
      </trkpt>
      <trkpt lat="44.57009" lon="6.21445">
        <ele>893</ele>
        <time>2022-09-11T08:37:39Z</time>
      </trkpt>
      <trkpt lat="44.57006" lon="6.21429">
        <ele>891.9</ele>
        <time>2022-09-11T08:37:40Z</time>
      </trkpt>
      <trkpt lat="44.57003" lon="6.21413">
        <ele>890.9</ele>
        <time>2022-09-11T08:37:41Z</time>
      </trkpt>
      <trkpt lat="44.56999" lon="6.21398">
        <ele>889.9</ele>
        <time>2022-09-11T08:37:42Z</time>
      </trkpt>
      <trkpt lat="44.56995" lon="6.21383">
        <ele>889</ele>
        <time>2022-09-11T08:37:43Z</time>
      </trkpt>
      <trkpt lat="44.56991" lon="6.21368">
        <ele>888.1</ele>
        <time>2022-09-11T08:37:44Z</time>
      </trkpt>
      <trkpt lat="44.56986" lon="6.21352">
        <ele>887.4</ele>
        <time>2022-09-11T08:37:45Z</time>
      </trkpt>
      <trkpt lat="44.56981" lon="6.21338">
        <ele>886.6</ele>
        <time>2022-09-11T08:37:46Z</time>
      </trkpt>
      <trkpt lat="44.56976" lon="6.21324">
        <ele>886</ele>
        <time>2022-09-11T08:37:47Z</time>
      </trkpt>
      <trkpt lat="44.5697" lon="6.21308">
        <ele>885.2</ele>
        <time>2022-09-11T08:37:48Z</time>
      </trkpt>
      <trkpt lat="44.56965" lon="6.21292">
        <ele>884.4</ele>
        <time>2022-09-11T08:37:49Z</time>
      </trkpt>
      <trkpt lat="44.56959" lon="6.21279">
        <ele>883.7</ele>
        <time>2022-09-11T08:37:50Z</time>
      </trkpt>
      <trkpt lat="44.56955" lon="6.21266">
        <ele>883</ele>
        <time>2022-09-11T08:37:51Z</time>
      </trkpt>
      <trkpt lat="44.56951" lon="6.21254">
        <ele>882.4</ele>
        <time>2022-09-11T08:37:52Z</time>
      </trkpt>
      <trkpt lat="44.56945" lon="6.2124">
        <ele>881.7</ele>
        <time>2022-09-11T08:37:53Z</time>
      </trkpt>
      <trkpt lat="44.5694" lon="6.21228">
        <ele>881.1</ele>
        <time>2022-09-11T08:37:54Z</time>
      </trkpt>
      <trkpt lat="44.56935" lon="6.21214">
        <ele>880.4</ele>
        <time>2022-09-11T08:37:55Z</time>
      </trkpt>
      <trkpt lat="44.5693" lon="6.212">
        <ele>879.8</ele>
        <time>2022-09-11T08:37:56Z</time>
      </trkpt>
      <trkpt lat="44.56924" lon="6.21184">
        <ele>879.2</ele>
        <time>2022-09-11T08:37:57Z</time>
      </trkpt>
      <trkpt lat="44.56919" lon="6.2117">
        <ele>878.7</ele>
        <time>2022-09-11T08:37:58Z</time>
      </trkpt>
      <trkpt lat="44.56914" lon="6.21158">
        <ele>878.3</ele>
        <time>2022-09-11T08:37:59Z</time>
      </trkpt>
      <trkpt lat="44.56909" lon="6.21145">
        <ele>877.9</ele>
        <time>2022-09-11T08:38:00Z</time>
      </trkpt>
      <trkpt lat="44.56905" lon="6.21132">
        <ele>877.5</ele>
        <time>2022-09-11T08:38:01Z</time>
      </trkpt>
      <trkpt lat="44.56899" lon="6.21118">
        <ele>877</ele>
        <time>2022-09-11T08:38:02Z</time>
      </trkpt>
      <trkpt lat="44.56893" lon="6.21105">
        <ele>876.6</ele>
        <time>2022-09-11T08:38:03Z</time>
      </trkpt>
      <trkpt lat="44.56887" lon="6.21092">
        <ele>876.3</ele>
        <time>2022-09-11T08:38:04Z</time>
      </trkpt>
      <trkpt lat="44.56882" lon="6.2108">
        <ele>876</ele>
        <time>2022-09-11T08:38:05Z</time>
      </trkpt>
      <trkpt lat="44.56877" lon="6.21068">
        <ele>875.8</ele>
        <time>2022-09-11T08:38:06Z</time>
      </trkpt>
      <trkpt lat="44.56872" lon="6.21056">
        <ele>875.5</ele>
        <time>2022-09-11T08:38:07Z</time>
      </trkpt>
      <trkpt lat="44.56868" lon="6.21044">
        <ele>875.2</ele>
        <time>2022-09-11T08:38:08Z</time>
      </trkpt>
      <trkpt lat="44.56864" lon="6.21032">
        <ele>874.8</ele>
        <time>2022-09-11T08:38:09Z</time>
      </trkpt>
      <trkpt lat="44.56859" lon="6.2102">
        <ele>874.5</ele>
        <time>2022-09-11T08:38:10Z</time>
      </trkpt>
      <trkpt lat="44.56855" lon="6.21008">
        <ele>874.2</ele>
        <time>2022-09-11T08:38:11Z</time>
      </trkpt>
      <trkpt lat="44.5685" lon="6.20997">
        <ele>873.9</ele>
        <time>2022-09-11T08:38:12Z</time>
      </trkpt>
      <trkpt lat="44.56845" lon="6.20985">
        <ele>873.6</ele>
        <time>2022-09-11T08:38:13Z</time>
      </trkpt>
      <trkpt lat="44.56841" lon="6.20974">
        <ele>873.3</ele>
        <time>2022-09-11T08:38:14Z</time>
      </trkpt>
      <trkpt lat="44.56836" lon="6.20963">
        <ele>873</ele>
        <time>2022-09-11T08:38:15Z</time>
      </trkpt>
      <trkpt lat="44.56831" lon="6.20952">
        <ele>872.7</ele>
        <time>2022-09-11T08:38:16Z</time>
      </trkpt>
      <trkpt lat="44.56827" lon="6.20942">
        <ele>872.4</ele>
        <time>2022-09-11T08:38:17Z</time>
      </trkpt>
      <trkpt lat="44.56822" lon="6.20931">
        <ele>872.2</ele>
        <time>2022-09-11T08:38:18Z</time>
      </trkpt>
      <trkpt lat="44.56818" lon="6.2092">
        <ele>871.9</ele>
        <time>2022-09-11T08:38:19Z</time>
      </trkpt>
      <trkpt lat="44.56813" lon="6.2091">
        <ele>871.7</ele>
        <time>2022-09-11T08:38:20Z</time>
      </trkpt>
      <trkpt lat="44.56808" lon="6.20899">
        <ele>871.4</ele>
        <time>2022-09-11T08:38:21Z</time>
      </trkpt>
      <trkpt lat="44.56803" lon="6.20889">
        <ele>871.2</ele>
        <time>2022-09-11T08:38:22Z</time>
      </trkpt>
      <trkpt lat="44.56798" lon="6.20878">
        <ele>871</ele>
        <time>2022-09-11T08:38:23Z</time>
      </trkpt>
      <trkpt lat="44.56794" lon="6.20868">
        <ele>870.7</ele>
        <time>2022-09-11T08:38:24Z</time>
      </trkpt>
      <trkpt lat="44.5679" lon="6.20857">
        <ele>870.4</ele>
        <time>2022-09-11T08:38:25Z</time>
      </trkpt>
      <trkpt lat="44.56787" lon="6.20846">
        <ele>870.2</ele>
        <time>2022-09-11T08:38:26Z</time>
      </trkpt>
      <trkpt lat="44.56784" lon="6.20835">
        <ele>869.9</ele>
        <time>2022-09-11T08:38:27Z</time>
      </trkpt>
      <trkpt lat="44.56781" lon="6.20823">
        <ele>869.6</ele>
        <time>2022-09-11T08:38:28Z</time>
      </trkpt>
      <trkpt lat="44.56777" lon="6.2081">
        <ele>869.3</ele>
        <time>2022-09-11T08:38:29Z</time>
      </trkpt>
      <trkpt lat="44.56775" lon="6.20799">
        <ele>869</ele>
        <time>2022-09-11T08:38:30Z</time>
      </trkpt>
      <trkpt lat="44.56772" lon="6.20787">
        <ele>868.7</ele>
        <time>2022-09-11T08:38:31Z</time>
      </trkpt>
      <trkpt lat="44.56769" lon="6.20775">
        <ele>868.5</ele>
        <time>2022-09-11T08:38:32Z</time>
      </trkpt>
      <trkpt lat="44.56766" lon="6.20764">
        <ele>868.2</ele>
        <time>2022-09-11T08:38:33Z</time>
      </trkpt>
      <trkpt lat="44.56763" lon="6.20753">
        <ele>868</ele>
        <time>2022-09-11T08:38:34Z</time>
      </trkpt>
      <trkpt lat="44.5676" lon="6.20742">
        <ele>867.8</ele>
        <time>2022-09-11T08:38:35Z</time>
      </trkpt>
      <trkpt lat="44.56757" lon="6.2073">
        <ele>867.6</ele>
        <time>2022-09-11T08:38:36Z</time>
      </trkpt>
      <trkpt lat="44.56754" lon="6.20718">
        <ele>867.4</ele>
        <time>2022-09-11T08:38:37Z</time>
      </trkpt>
      <trkpt lat="44.56751" lon="6.20706">
        <ele>867.2</ele>
        <time>2022-09-11T08:38:38Z</time>
      </trkpt>
      <trkpt lat="44.56748" lon="6.20695">
        <ele>867.1</ele>
        <time>2022-09-11T08:38:39Z</time>
      </trkpt>
      <trkpt lat="44.56746" lon="6.20684">
        <ele>867</ele>
        <time>2022-09-11T08:38:40Z</time>
      </trkpt>
      <trkpt lat="44.56744" lon="6.20672">
        <ele>866.8</ele>
        <time>2022-09-11T08:38:41Z</time>
      </trkpt>
      <trkpt lat="44.56741" lon="6.20661">
        <ele>866.6</ele>
        <time>2022-09-11T08:38:42Z</time>
      </trkpt>
      <trkpt lat="44.56738" lon="6.20649">
        <ele>866.4</ele>
        <time>2022-09-11T08:38:43Z</time>
      </trkpt>
      <trkpt lat="44.56736" lon="6.20638">
        <ele>866.2</ele>
        <time>2022-09-11T08:38:44Z</time>
      </trkpt>
      <trkpt lat="44.56734" lon="6.20627">
        <ele>866.1</ele>
        <time>2022-09-11T08:38:45Z</time>
      </trkpt>
      <trkpt lat="44.56731" lon="6.20616">
        <ele>865.9</ele>
        <time>2022-09-11T08:38:46Z</time>
      </trkpt>
      <trkpt lat="44.56729" lon="6.20606">
        <ele>865.8</ele>
        <time>2022-09-11T08:38:47Z</time>
      </trkpt>
      <trkpt lat="44.56727" lon="6.20597">
        <ele>865.7</ele>
        <time>2022-09-11T08:38:48Z</time>
      </trkpt>
      <trkpt lat="44.56724" lon="6.20586">
        <ele>865.7</ele>
        <time>2022-09-11T08:38:49Z</time>
      </trkpt>
      <trkpt lat="44.56722" lon="6.20577">
        <ele>865.6</ele>
        <time>2022-09-11T08:38:50Z</time>
      </trkpt>
      <trkpt lat="44.56719" lon="6.20568">
        <ele>865.5</ele>
        <time>2022-09-11T08:38:51Z</time>
      </trkpt>
      <trkpt lat="44.56717" lon="6.20558">
        <ele>865.4</ele>
        <time>2022-09-11T08:38:52Z</time>
      </trkpt>
      <trkpt lat="44.56715" lon="6.20549">
        <ele>865.4</ele>
        <time>2022-09-11T08:38:53Z</time>
      </trkpt>
      <trkpt lat="44.56712" lon="6.20539">
        <ele>865.3</ele>
        <time>2022-09-11T08:38:54Z</time>
      </trkpt>
      <trkpt lat="44.5671" lon="6.20529">
        <ele>865.2</ele>
        <time>2022-09-11T08:38:55Z</time>
      </trkpt>
      <trkpt lat="44.56707" lon="6.2052">
        <ele>865.1</ele>
        <time>2022-09-11T08:38:56Z</time>
      </trkpt>
      <trkpt lat="44.56705" lon="6.20509">
        <ele>865</ele>
        <time>2022-09-11T08:38:57Z</time>
      </trkpt>
      <trkpt lat="44.56701" lon="6.205">
        <ele>865</ele>
        <time>2022-09-11T08:38:58Z</time>
      </trkpt>
      <trkpt lat="44.56699" lon="6.20491">
        <ele>864.9</ele>
        <time>2022-09-11T08:38:59Z</time>
      </trkpt>
      <trkpt lat="44.56696" lon="6.20482">
        <ele>864.7</ele>
        <time>2022-09-11T08:39:00Z</time>
      </trkpt>
      <trkpt lat="44.56693" lon="6.20473">
        <ele>864.6</ele>
        <time>2022-09-11T08:39:01Z</time>
      </trkpt>
      <trkpt lat="44.5669" lon="6.20464">
        <ele>864.4</ele>
        <time>2022-09-11T08:39:02Z</time>
      </trkpt>
      <trkpt lat="44.56687" lon="6.20456">
        <ele>864.2</ele>
        <time>2022-09-11T08:39:03Z</time>
      </trkpt>
      <trkpt lat="44.56685" lon="6.20447">
        <ele>864.1</ele>
        <time>2022-09-11T08:39:04Z</time>
      </trkpt>
      <trkpt lat="44.56682" lon="6.20438">
        <ele>863.9</ele>
        <time>2022-09-11T08:39:05Z</time>
      </trkpt>
      <trkpt lat="44.56678" lon="6.20429">
        <ele>863.7</ele>
        <time>2022-09-11T08:39:06Z</time>
      </trkpt>
      <trkpt lat="44.56674" lon="6.20419">
        <ele>863.6</ele>
        <time>2022-09-11T08:39:07Z</time>
      </trkpt>
      <trkpt lat="44.56671" lon="6.2041">
        <ele>863.4</ele>
        <time>2022-09-11T08:39:08Z</time>
      </trkpt>
      <trkpt lat="44.56667" lon="6.20401">
        <ele>863.3</ele>
        <time>2022-09-11T08:39:09Z</time>
      </trkpt>
      <trkpt lat="44.56662" lon="6.20391">
        <ele>863</ele>
        <time>2022-09-11T08:39:10Z</time>
      </trkpt>
      <trkpt lat="44.56657" lon="6.20381">
        <ele>862.6</ele>
        <time>2022-09-11T08:39:11Z</time>
      </trkpt>
      <trkpt lat="44.56652" lon="6.20372">
        <ele>862.3</ele>
        <time>2022-09-11T08:39:12Z</time>
      </trkpt>
      <trkpt lat="44.56648" lon="6.20361">
        <ele>862.1</ele>
        <time>2022-09-11T08:39:13Z</time>
      </trkpt>
      <trkpt lat="44.56643" lon="6.20351">
        <ele>861.9</ele>
        <time>2022-09-11T08:39:14Z</time>
      </trkpt>
      <trkpt lat="44.56638" lon="6.20341">
        <ele>861.6</ele>
        <time>2022-09-11T08:39:15Z</time>
      </trkpt>
      <trkpt lat="44.56633" lon="6.20331">
        <ele>861.5</ele>
        <time>2022-09-11T08:39:16Z</time>
      </trkpt>
      <trkpt lat="44.56629" lon="6.20323">
        <ele>861.3</ele>
        <time>2022-09-11T08:39:17Z</time>
      </trkpt>
      <trkpt lat="44.56624" lon="6.20314">
        <ele>861.1</ele>
        <time>2022-09-11T08:39:18Z</time>
      </trkpt>
      <trkpt lat="44.56619" lon="6.20305">
        <ele>861</ele>
        <time>2022-09-11T08:39:19Z</time>
      </trkpt>
      <trkpt lat="44.56615" lon="6.20297">
        <ele>860.9</ele>
        <time>2022-09-11T08:39:20Z</time>
      </trkpt>
      <trkpt lat="44.5661" lon="6.20288">
        <ele>860.8</ele>
        <time>2022-09-11T08:39:21Z</time>
      </trkpt>
      <trkpt lat="44.56606" lon="6.2028">
        <ele>860.8</ele>
        <time>2022-09-11T08:39:22Z</time>
      </trkpt>
      <trkpt lat="44.56601" lon="6.20271">
        <ele>860.7</ele>
        <time>2022-09-11T08:39:23Z</time>
      </trkpt>
      <trkpt lat="44.56596" lon="6.20263">
        <ele>860.7</ele>
        <time>2022-09-11T08:39:24Z</time>
      </trkpt>
      <trkpt lat="44.56592" lon="6.20255">
        <ele>860.6</ele>
        <time>2022-09-11T08:39:25Z</time>
      </trkpt>
      <trkpt lat="44.56587" lon="6.20247">
        <ele>860.6</ele>
        <time>2022-09-11T08:39:26Z</time>
      </trkpt>
      <trkpt lat="44.56583" lon="6.20239">
        <ele>860.6</ele>
        <time>2022-09-11T08:39:27Z</time>
      </trkpt>
      <trkpt lat="44.56579" lon="6.20231">
        <ele>860.6</ele>
        <time>2022-09-11T08:39:28Z</time>
      </trkpt>
      <trkpt lat="44.56574" lon="6.20223">
        <ele>860.6</ele>
        <time>2022-09-11T08:39:29Z</time>
      </trkpt>
      <trkpt lat="44.5657" lon="6.20215">
        <ele>860.6</ele>
        <time>2022-09-11T08:39:30Z</time>
      </trkpt>
      <trkpt lat="44.56565" lon="6.20208">
        <ele>860.6</ele>
        <time>2022-09-11T08:39:31Z</time>
      </trkpt>
      <trkpt lat="44.56561" lon="6.20201">
        <ele>860.6</ele>
        <time>2022-09-11T08:39:32Z</time>
      </trkpt>
      <trkpt lat="44.56557" lon="6.20193">
        <ele>860.6</ele>
        <time>2022-09-11T08:39:33Z</time>
      </trkpt>
      <trkpt lat="44.56553" lon="6.20185">
        <ele>860.6</ele>
        <time>2022-09-11T08:39:34Z</time>
      </trkpt>
      <trkpt lat="44.56549" lon="6.20178">
        <ele>860.7</ele>
        <time>2022-09-11T08:39:35Z</time>
      </trkpt>
      <trkpt lat="44.56546" lon="6.20169">
        <ele>860.7</ele>
        <time>2022-09-11T08:39:36Z</time>
      </trkpt>
      <trkpt lat="44.56542" lon="6.20161">
        <ele>860.8</ele>
        <time>2022-09-11T08:39:37Z</time>
      </trkpt>
      <trkpt lat="44.56539" lon="6.20153">
        <ele>860.9</ele>
        <time>2022-09-11T08:39:38Z</time>
      </trkpt>
      <trkpt lat="44.56536" lon="6.20146">
        <ele>861</ele>
        <time>2022-09-11T08:39:39Z</time>
      </trkpt>
      <trkpt lat="44.56533" lon="6.20138">
        <ele>861.1</ele>
        <time>2022-09-11T08:39:40Z</time>
      </trkpt>
      <trkpt lat="44.56531" lon="6.2013">
        <ele>861.1</ele>
        <time>2022-09-11T08:39:41Z</time>
      </trkpt>
      <trkpt lat="44.56528" lon="6.20123">
        <ele>861.2</ele>
        <time>2022-09-11T08:39:42Z</time>
      </trkpt>
      <trkpt lat="44.56526" lon="6.20116">
        <ele>861.3</ele>
        <time>2022-09-11T08:39:43Z</time>
      </trkpt>
      <trkpt lat="44.56523" lon="6.20109">
        <ele>861.4</ele>
        <time>2022-09-11T08:39:44Z</time>
      </trkpt>
      <trkpt lat="44.56521" lon="6.20102">
        <ele>861.4</ele>
        <time>2022-09-11T08:39:45Z</time>
      </trkpt>
      <trkpt lat="44.56518" lon="6.20094">
        <ele>861.5</ele>
        <time>2022-09-11T08:39:46Z</time>
      </trkpt>
      <trkpt lat="44.56516" lon="6.20087">
        <ele>861.5</ele>
        <time>2022-09-11T08:39:47Z</time>
      </trkpt>
      <trkpt lat="44.56513" lon="6.20082">
        <ele>861.6</ele>
        <time>2022-09-11T08:39:48Z</time>
      </trkpt>
      <trkpt lat="44.5651" lon="6.20076">
        <ele>861.6</ele>
        <time>2022-09-11T08:39:49Z</time>
      </trkpt>
      <trkpt lat="44.56507" lon="6.20069">
        <ele>861.7</ele>
        <time>2022-09-11T08:39:50Z</time>
      </trkpt>
      <trkpt lat="44.56505" lon="6.20062">
        <ele>861.7</ele>
        <time>2022-09-11T08:39:51Z</time>
      </trkpt>
      <trkpt lat="44.56503" lon="6.20055">
        <ele>861.8</ele>
        <time>2022-09-11T08:39:52Z</time>
      </trkpt>
      <trkpt lat="44.565" lon="6.20048">
        <ele>861.8</ele>
        <time>2022-09-11T08:39:53Z</time>
      </trkpt>
      <trkpt lat="44.56497" lon="6.20041">
        <ele>861.9</ele>
        <time>2022-09-11T08:39:54Z</time>
      </trkpt>
      <trkpt lat="44.56495" lon="6.20035">
        <ele>862</ele>
        <time>2022-09-11T08:39:55Z</time>
      </trkpt>
      <trkpt lat="44.56492" lon="6.20029">
        <ele>862.1</ele>
        <time>2022-09-11T08:39:56Z</time>
      </trkpt>
      <trkpt lat="44.56489" lon="6.20023">
        <ele>862.1</ele>
        <time>2022-09-11T08:39:57Z</time>
      </trkpt>
      <trkpt lat="44.56487" lon="6.20018">
        <ele>862.2</ele>
        <time>2022-09-11T08:39:58Z</time>
      </trkpt>
      <trkpt lat="44.56486" lon="6.20015">
        <ele>862.1</ele>
        <time>2022-09-11T08:39:59Z</time>
      </trkpt>
      <trkpt lat="44.56483" lon="6.2001">
        <ele>862.1</ele>
        <time>2022-09-11T08:40:00Z</time>
      </trkpt>
      <trkpt lat="44.5648" lon="6.20006">
        <ele>862.1</ele>
        <time>2022-09-11T08:40:01Z</time>
      </trkpt>
      <trkpt lat="44.56478" lon="6.20002">
        <ele>862.1</ele>
        <time>2022-09-11T08:40:02Z</time>
      </trkpt>
      <trkpt lat="44.56475" lon="6.19998">
        <ele>862.1</ele>
        <time>2022-09-11T08:40:03Z</time>
      </trkpt>
      <trkpt lat="44.56473" lon="6.19994">
        <ele>862.1</ele>
        <time>2022-09-11T08:40:04Z</time>
      </trkpt>
      <trkpt lat="44.56472" lon="6.19989">
        <ele>862.1</ele>
        <time>2022-09-11T08:40:05Z</time>
      </trkpt>
      <trkpt lat="44.5647" lon="6.19984">
        <ele>862</ele>
        <time>2022-09-11T08:40:06Z</time>
      </trkpt>
      <trkpt lat="44.56468" lon="6.19978">
        <ele>861.8</ele>
        <time>2022-09-11T08:40:07Z</time>
      </trkpt>
      <trkpt lat="44.56467" lon="6.19971">
        <ele>861.7</ele>
        <time>2022-09-11T08:40:08Z</time>
      </trkpt>
      <trkpt lat="44.56466" lon="6.19963">
        <ele>861.5</ele>
        <time>2022-09-11T08:40:09Z</time>
      </trkpt>
      <trkpt lat="44.56467" lon="6.19955">
        <ele>861.1</ele>
        <time>2022-09-11T08:40:10Z</time>
      </trkpt>
      <trkpt lat="44.56467" lon="6.19946">
        <ele>860.8</ele>
        <time>2022-09-11T08:40:11Z</time>
      </trkpt>
      <trkpt lat="44.56467" lon="6.19937">
        <ele>860.5</ele>
        <time>2022-09-11T08:40:12Z</time>
      </trkpt>
      <trkpt lat="44.56468" lon="6.19928">
        <ele>860.4</ele>
        <time>2022-09-11T08:40:13Z</time>
      </trkpt>
      <trkpt lat="44.56469" lon="6.19919">
        <ele>860.2</ele>
        <time>2022-09-11T08:40:14Z</time>
      </trkpt>
      <trkpt lat="44.5647" lon="6.1991">
        <ele>860</ele>
        <time>2022-09-11T08:40:15Z</time>
      </trkpt>
      <trkpt lat="44.56471" lon="6.199">
        <ele>859.8</ele>
        <time>2022-09-11T08:40:16Z</time>
      </trkpt>
      <trkpt lat="44.56472" lon="6.19891">
        <ele>859.7</ele>
        <time>2022-09-11T08:40:17Z</time>
      </trkpt>
      <trkpt lat="44.56473" lon="6.19881">
        <ele>859.5</ele>
        <time>2022-09-11T08:40:18Z</time>
      </trkpt>
      <trkpt lat="44.56475" lon="6.19872">
        <ele>859.4</ele>
        <time>2022-09-11T08:40:19Z</time>
      </trkpt>
      <trkpt lat="44.56476" lon="6.19863">
        <ele>859.3</ele>
        <time>2022-09-11T08:40:20Z</time>
      </trkpt>
      <trkpt lat="44.56477" lon="6.19856">
        <ele>859.3</ele>
        <time>2022-09-11T08:40:21Z</time>
      </trkpt>
      <trkpt lat="44.56477" lon="6.19849">
        <ele>859.2</ele>
        <time>2022-09-11T08:40:22Z</time>
      </trkpt>
      <trkpt lat="44.56478" lon="6.19843">
        <ele>859.2</ele>
        <time>2022-09-11T08:40:23Z</time>
      </trkpt>
      <trkpt lat="44.56479" lon="6.19837">
        <ele>859.1</ele>
        <time>2022-09-11T08:40:24Z</time>
      </trkpt>
      <trkpt lat="44.5648" lon="6.19831">
        <ele>859.1</ele>
        <time>2022-09-11T08:40:25Z</time>
      </trkpt>
      <trkpt lat="44.56481" lon="6.19824">
        <ele>859.1</ele>
        <time>2022-09-11T08:40:26Z</time>
      </trkpt>
      <trkpt lat="44.56482" lon="6.19818">
        <ele>859</ele>
        <time>2022-09-11T08:40:27Z</time>
      </trkpt>
      <trkpt lat="44.56483" lon="6.19812">
        <ele>859</ele>
        <time>2022-09-11T08:40:28Z</time>
      </trkpt>
      <trkpt lat="44.56484" lon="6.19805">
        <ele>859</ele>
        <time>2022-09-11T08:40:29Z</time>
      </trkpt>
      <trkpt lat="44.56485" lon="6.19799">
        <ele>858.9</ele>
        <time>2022-09-11T08:40:30Z</time>
      </trkpt>
      <trkpt lat="44.56485" lon="6.19794">
        <ele>858.9</ele>
        <time>2022-09-11T08:40:31Z</time>
      </trkpt>
      <trkpt lat="44.56486" lon="6.19788">
        <ele>858.9</ele>
        <time>2022-09-11T08:40:32Z</time>
      </trkpt>
      <trkpt lat="44.56488" lon="6.19782">
        <ele>858.8</ele>
        <time>2022-09-11T08:40:33Z</time>
      </trkpt>
      <trkpt lat="44.5649" lon="6.19776">
        <ele>858.8</ele>
        <time>2022-09-11T08:40:34Z</time>
      </trkpt>
      <trkpt lat="44.56494" lon="6.19771">
        <ele>858.8</ele>
        <time>2022-09-11T08:40:35Z</time>
      </trkpt>
      <trkpt lat="44.56497" lon="6.19766">
        <ele>858.7</ele>
        <time>2022-09-11T08:40:36Z</time>
      </trkpt>
      <trkpt lat="44.56501" lon="6.19761">
        <ele>858.7</ele>
        <time>2022-09-11T08:40:37Z</time>
      </trkpt>
      <trkpt lat="44.56504" lon="6.19756">
        <ele>858.7</ele>
        <time>2022-09-11T08:40:38Z</time>
      </trkpt>
      <trkpt lat="44.56507" lon="6.1975">
        <ele>858.7</ele>
        <time>2022-09-11T08:40:39Z</time>
      </trkpt>
      <trkpt lat="44.5651" lon="6.19744">
        <ele>858.7</ele>
        <time>2022-09-11T08:40:40Z</time>
      </trkpt>
      <trkpt lat="44.56514" lon="6.19739">
        <ele>858.7</ele>
        <time>2022-09-11T08:40:41Z</time>
      </trkpt>
      <trkpt lat="44.56517" lon="6.19734">
        <ele>858.6</ele>
        <time>2022-09-11T08:40:42Z</time>
      </trkpt>
      <trkpt lat="44.56521" lon="6.19729">
        <ele>858.6</ele>
        <time>2022-09-11T08:40:43Z</time>
      </trkpt>
      <trkpt lat="44.56524" lon="6.19724">
        <ele>858.6</ele>
        <time>2022-09-11T08:40:44Z</time>
      </trkpt>
      <trkpt lat="44.56527" lon="6.19718">
        <ele>858.6</ele>
        <time>2022-09-11T08:40:45Z</time>
      </trkpt>
      <trkpt lat="44.5653" lon="6.19712">
        <ele>858.6</ele>
        <time>2022-09-11T08:40:46Z</time>
      </trkpt>
      <trkpt lat="44.56534" lon="6.19706">
        <ele>858.6</ele>
        <time>2022-09-11T08:40:47Z</time>
      </trkpt>
      <trkpt lat="44.56537" lon="6.19701">
        <ele>858.6</ele>
        <time>2022-09-11T08:40:48Z</time>
      </trkpt>
      <trkpt lat="44.5654" lon="6.19695">
        <ele>858.6</ele>
        <time>2022-09-11T08:40:49Z</time>
      </trkpt>
      <trkpt lat="44.56543" lon="6.19689">
        <ele>858.5</ele>
        <time>2022-09-11T08:40:50Z</time>
      </trkpt>
      <trkpt lat="44.56547" lon="6.19684">
        <ele>858.5</ele>
        <time>2022-09-11T08:40:51Z</time>
      </trkpt>
      <trkpt lat="44.5655" lon="6.19678">
        <ele>858.5</ele>
        <time>2022-09-11T08:40:52Z</time>
      </trkpt>
      <trkpt lat="44.56554" lon="6.19673">
        <ele>858.5</ele>
        <time>2022-09-11T08:40:53Z</time>
      </trkpt>
      <trkpt lat="44.56558" lon="6.19668">
        <ele>858.5</ele>
        <time>2022-09-11T08:40:54Z</time>
      </trkpt>
      <trkpt lat="44.56562" lon="6.19662">
        <ele>858.4</ele>
        <time>2022-09-11T08:40:55Z</time>
      </trkpt>
      <trkpt lat="44.56566" lon="6.19657">
        <ele>858.4</ele>
        <time>2022-09-11T08:40:56Z</time>
      </trkpt>
      <trkpt lat="44.56569" lon="6.19651">
        <ele>858.4</ele>
        <time>2022-09-11T08:40:57Z</time>
      </trkpt>
      <trkpt lat="44.56573" lon="6.19645">
        <ele>858.4</ele>
        <time>2022-09-11T08:40:58Z</time>
      </trkpt>
      <trkpt lat="44.56576" lon="6.1964">
        <ele>858.3</ele>
        <time>2022-09-11T08:40:59Z</time>
      </trkpt>
      <trkpt lat="44.5658" lon="6.19634">
        <ele>858.3</ele>
        <time>2022-09-11T08:41:00Z</time>
      </trkpt>
      <trkpt lat="44.56583" lon="6.19629">
        <ele>858.3</ele>
        <time>2022-09-11T08:41:01Z</time>
      </trkpt>
      <trkpt lat="44.56587" lon="6.19624">
        <ele>858.3</ele>
        <time>2022-09-11T08:41:02Z</time>
      </trkpt>
      <trkpt lat="44.5659" lon="6.19619">
        <ele>858.3</ele>
        <time>2022-09-11T08:41:03Z</time>
      </trkpt>
      <trkpt lat="44.56594" lon="6.19614">
        <ele>858.2</ele>
        <time>2022-09-11T08:41:04Z</time>
      </trkpt>
      <trkpt lat="44.56597" lon="6.19609">
        <ele>858.2</ele>
        <time>2022-09-11T08:41:05Z</time>
      </trkpt>
      <trkpt lat="44.56599" lon="6.19604">
        <ele>858.2</ele>
        <time>2022-09-11T08:41:06Z</time>
      </trkpt>
      <trkpt lat="44.56601" lon="6.19601">
        <ele>858.2</ele>
        <time>2022-09-11T08:41:07Z</time>
      </trkpt>
      <trkpt lat="44.56603" lon="6.19598">
        <ele>858.2</ele>
        <time>2022-09-11T08:41:08Z</time>
      </trkpt>
      <trkpt lat="44.56604" lon="6.19596">
        <ele>858.2</ele>
        <time>2022-09-11T08:41:09Z</time>
      </trkpt>
      <trkpt lat="44.56604" lon="6.19594">
        <ele>858.2</ele>
        <time>2022-09-11T08:41:10Z</time>
      </trkpt>
      <trkpt lat="44.56605" lon="6.19594">
        <ele>858.2</ele>
        <time>2022-09-11T08:41:11Z</time>
      </trkpt>
      <trkpt lat="44.56605" lon="6.19594">
        <ele>858.2</ele>
        <time>2022-09-11T08:41:12Z</time>
      </trkpt>
      <trkpt lat="44.56605" lon="6.19594">
        <ele>858.2</ele>
        <time>2022-09-11T08:41:13Z</time>
      </trkpt>
      <trkpt lat="44.56605" lon="6.19594">
        <ele>858.2</ele>
        <time>2022-09-11T08:41:14Z</time>
      </trkpt>
      <trkpt lat="44.56605" lon="6.19595">
        <ele>858.2</ele>
        <time>2022-09-11T08:41:15Z</time>
      </trkpt>
      <trkpt lat="44.56606" lon="6.19595">
        <ele>858.2</ele>
        <time>2022-09-11T08:41:16Z</time>
      </trkpt>
      <trkpt lat="44.56607" lon="6.19597">
        <ele>858.2</ele>
        <time>2022-09-11T08:41:17Z</time>
      </trkpt>
      <trkpt lat="44.56606" lon="6.19597">
        <ele>858.2</ele>
        <time>2022-09-11T08:41:18Z</time>
      </trkpt>
      <trkpt lat="44.56605" lon="6.19597">
        <ele>858.2</ele>
        <time>2022-09-11T08:41:19Z</time>
      </trkpt>
      <trkpt lat="44.56604" lon="6.19597">
        <ele>858.2</ele>
        <time>2022-09-11T08:41:20Z</time>
      </trkpt>
      <trkpt lat="44.56603" lon="6.19594">
        <ele>858.2</ele>
        <time>2022-09-11T08:41:21Z</time>
      </trkpt>
      <trkpt lat="44.56602" lon="6.19592">
        <ele>858.2</ele>
        <time>2022-09-11T08:41:22Z</time>
      </trkpt>
      <trkpt lat="44.56602" lon="6.1959">
        <ele>858.2</ele>
        <time>2022-09-11T08:41:23Z</time>
      </trkpt>
      <trkpt lat="44.566" lon="6.1959">
        <ele>858.2</ele>
        <time>2022-09-11T08:41:24Z</time>
      </trkpt>
      <trkpt lat="44.56598" lon="6.19589">
        <ele>858.2</ele>
        <time>2022-09-11T08:41:25Z</time>
      </trkpt>
      <trkpt lat="44.56597" lon="6.19588">
        <ele>858.2</ele>
        <time>2022-09-11T08:41:26Z</time>
      </trkpt>
      <trkpt lat="44.56596" lon="6.19587">
        <ele>858.2</ele>
        <time>2022-09-11T08:41:27Z</time>
      </trkpt>
      <trkpt lat="44.56596" lon="6.19587">
        <ele>858.2</ele>
        <time>2022-09-11T08:41:28Z</time>
      </trkpt>
      <trkpt lat="44.56596" lon="6.19588">
        <ele>858.2</ele>
        <time>2022-09-11T08:41:29Z</time>
      </trkpt>
      <trkpt lat="44.56596" lon="6.19589">
        <ele>858.2</ele>
        <time>2022-09-11T08:41:30Z</time>
      </trkpt>
      <trkpt lat="44.56596" lon="6.1959">
        <ele>858.2</ele>
        <time>2022-09-11T08:41:31Z</time>
      </trkpt>
      <trkpt lat="44.56596" lon="6.1959">
        <ele>858.2</ele>
        <time>2022-09-11T08:41:32Z</time>
      </trkpt>
      <trkpt lat="44.56596" lon="6.1959">
        <ele>858.2</ele>
        <time>2022-09-11T08:41:33Z</time>
      </trkpt>
      <trkpt lat="44.56596" lon="6.19591">
        <ele>858.2</ele>
        <time>2022-09-11T08:41:34Z</time>
      </trkpt>
      <trkpt lat="44.56596" lon="6.19591">
        <ele>858.2</ele>
        <time>2022-09-11T08:41:35Z</time>
      </trkpt>
      <trkpt lat="44.56596" lon="6.19591">
        <ele>858.2</ele>
        <time>2022-09-11T08:41:36Z</time>
      </trkpt>
      <trkpt lat="44.56596" lon="6.19591">
        <ele>858.2</ele>
        <time>2022-09-11T08:41:37Z</time>
      </trkpt>
      <trkpt lat="44.56596" lon="6.19591">
        <ele>858.2</ele>
        <time>2022-09-11T08:41:38Z</time>
      </trkpt>
      <trkpt lat="44.56596" lon="6.19591">
        <ele>858.2</ele>
        <time>2022-09-11T08:41:39Z</time>
      </trkpt>
      <trkpt lat="44.56596" lon="6.19591">
        <ele>858.2</ele>
        <time>2022-09-11T08:41:40Z</time>
      </trkpt>
      <trkpt lat="44.56596" lon="6.19591">
        <ele>858.2</ele>
        <time>2022-09-11T08:41:41Z</time>
      </trkpt>
      <trkpt lat="44.56597" lon="6.19591">
        <ele>858.2</ele>
        <time>2022-09-11T08:41:42Z</time>
      </trkpt>
      <trkpt lat="44.56599" lon="6.19595">
        <ele>858.2</ele>
        <time>2022-09-11T08:45:08Z</time>
      </trkpt>
      <trkpt lat="44.566" lon="6.19595">
        <ele>858.2</ele>
        <time>2022-09-11T08:45:09Z</time>
      </trkpt>
      <trkpt lat="44.56602" lon="6.19595">
        <ele>858.2</ele>
        <time>2022-09-11T08:45:10Z</time>
      </trkpt>
      <trkpt lat="44.56603" lon="6.19594">
        <ele>858.2</ele>
        <time>2022-09-11T08:45:11Z</time>
      </trkpt>
      <trkpt lat="44.56605" lon="6.19592">
        <ele>858.2</ele>
        <time>2022-09-11T08:45:12Z</time>
      </trkpt>
      <trkpt lat="44.56606" lon="6.19591">
        <ele>858.2</ele>
        <time>2022-09-11T08:45:13Z</time>
      </trkpt>
      <trkpt lat="44.56606" lon="6.19589">
        <ele>858.2</ele>
        <time>2022-09-11T08:45:14Z</time>
      </trkpt>
      <trkpt lat="44.56607" lon="6.19588">
        <ele>858.2</ele>
        <time>2022-09-11T08:45:15Z</time>
      </trkpt>
      <trkpt lat="44.56607" lon="6.19587">
        <ele>858.2</ele>
        <time>2022-09-11T08:45:16Z</time>
      </trkpt>
      <trkpt lat="44.56607" lon="6.19587">
        <ele>858.2</ele>
        <time>2022-09-11T08:45:17Z</time>
      </trkpt>
      <trkpt lat="44.56607" lon="6.19586">
        <ele>858.2</ele>
        <time>2022-09-11T08:45:18Z</time>
      </trkpt>
      <trkpt lat="44.56608" lon="6.19585">
        <ele>858.2</ele>
        <time>2022-09-11T08:45:19Z</time>
      </trkpt>
      <trkpt lat="44.56608" lon="6.19584">
        <ele>858.2</ele>
        <time>2022-09-11T08:45:20Z</time>
      </trkpt>
      <trkpt lat="44.56609" lon="6.19584">
        <ele>858.2</ele>
        <time>2022-09-11T08:45:21Z</time>
      </trkpt>
      <trkpt lat="44.56609" lon="6.19583">
        <ele>858.2</ele>
        <time>2022-09-11T08:45:22Z</time>
      </trkpt>
      <trkpt lat="44.5661" lon="6.19583">
        <ele>858.2</ele>
        <time>2022-09-11T08:45:23Z</time>
      </trkpt>
      <trkpt lat="44.56611" lon="6.19582">
        <ele>858.2</ele>
        <time>2022-09-11T08:45:24Z</time>
      </trkpt>
      <trkpt lat="44.56611" lon="6.19582">
        <ele>858.2</ele>
        <time>2022-09-11T08:45:25Z</time>
      </trkpt>
      <trkpt lat="44.56612" lon="6.19582">
        <ele>858.2</ele>
        <time>2022-09-11T08:45:26Z</time>
      </trkpt>
      <trkpt lat="44.56612" lon="6.19582">
        <ele>858.2</ele>
        <time>2022-09-11T08:45:27Z</time>
      </trkpt>
      <trkpt lat="44.56613" lon="6.19583">
        <ele>858.2</ele>
        <time>2022-09-11T08:45:28Z</time>
      </trkpt>
      <trkpt lat="44.56614" lon="6.19583">
        <ele>858.2</ele>
        <time>2022-09-11T08:45:29Z</time>
      </trkpt>
      <trkpt lat="44.56615" lon="6.19583">
        <ele>858.1</ele>
        <time>2022-09-11T08:45:30Z</time>
      </trkpt>
      <trkpt lat="44.56616" lon="6.19582">
        <ele>858.1</ele>
        <time>2022-09-11T08:45:31Z</time>
      </trkpt>
      <trkpt lat="44.56616" lon="6.19581">
        <ele>858.1</ele>
        <time>2022-09-11T08:45:32Z</time>
      </trkpt>
      <trkpt lat="44.56617" lon="6.19581">
        <ele>858.1</ele>
        <time>2022-09-11T08:45:33Z</time>
      </trkpt>
      <trkpt lat="44.56618" lon="6.19581">
        <ele>858.1</ele>
        <time>2022-09-11T08:45:34Z</time>
      </trkpt>
      <trkpt lat="44.56619" lon="6.19581">
        <ele>858.1</ele>
        <time>2022-09-11T08:45:35Z</time>
      </trkpt>
      <trkpt lat="44.5662" lon="6.19581">
        <ele>858.1</ele>
        <time>2022-09-11T08:45:36Z</time>
      </trkpt>
      <trkpt lat="44.56621" lon="6.1958">
        <ele>858.1</ele>
        <time>2022-09-11T08:45:37Z</time>
      </trkpt>
      <trkpt lat="44.56622" lon="6.1958">
        <ele>858.1</ele>
        <time>2022-09-11T08:45:38Z</time>
      </trkpt>
      <trkpt lat="44.56623" lon="6.19579">
        <ele>858.1</ele>
        <time>2022-09-11T08:45:39Z</time>
      </trkpt>
      <trkpt lat="44.56623" lon="6.19578">
        <ele>858.1</ele>
        <time>2022-09-11T08:45:40Z</time>
      </trkpt>
      <trkpt lat="44.56624" lon="6.19577">
        <ele>858.1</ele>
        <time>2022-09-11T08:45:41Z</time>
      </trkpt>
      <trkpt lat="44.56625" lon="6.19575">
        <ele>858.1</ele>
        <time>2022-09-11T08:45:42Z</time>
      </trkpt>
      <trkpt lat="44.56625" lon="6.19574">
        <ele>858.1</ele>
        <time>2022-09-11T08:45:43Z</time>
      </trkpt>
      <trkpt lat="44.56625" lon="6.19573">
        <ele>858.1</ele>
        <time>2022-09-11T08:45:44Z</time>
      </trkpt>
      <trkpt lat="44.56626" lon="6.19572">
        <ele>858.1</ele>
        <time>2022-09-11T08:45:45Z</time>
      </trkpt>
      <trkpt lat="44.56626" lon="6.1957">
        <ele>858.1</ele>
        <time>2022-09-11T08:45:46Z</time>
      </trkpt>
      <trkpt lat="44.56626" lon="6.1957">
        <ele>858.1</ele>
        <time>2022-09-11T08:45:47Z</time>
      </trkpt>
      <trkpt lat="44.56625" lon="6.19569">
        <ele>858.1</ele>
        <time>2022-09-11T08:45:48Z</time>
      </trkpt>
      <trkpt lat="44.56625" lon="6.19568">
        <ele>858.1</ele>
        <time>2022-09-11T08:45:49Z</time>
      </trkpt>
      <trkpt lat="44.56624" lon="6.19568">
        <ele>858.1</ele>
        <time>2022-09-11T08:45:50Z</time>
      </trkpt>
      <trkpt lat="44.56624" lon="6.19567">
        <ele>858.1</ele>
        <time>2022-09-11T08:45:51Z</time>
      </trkpt>
      <trkpt lat="44.56624" lon="6.19567">
        <ele>858.1</ele>
        <time>2022-09-11T08:45:52Z</time>
      </trkpt>
      <trkpt lat="44.56623" lon="6.19567">
        <ele>858.1</ele>
        <time>2022-09-11T08:45:53Z</time>
      </trkpt>
      <trkpt lat="44.56623" lon="6.19567">
        <ele>858.1</ele>
        <time>2022-09-11T08:45:54Z</time>
      </trkpt>
      <trkpt lat="44.56623" lon="6.19567">
        <ele>858.1</ele>
        <time>2022-09-11T08:45:55Z</time>
      </trkpt>
      <trkpt lat="44.56622" lon="6.19567">
        <ele>858.1</ele>
        <time>2022-09-11T08:45:56Z</time>
      </trkpt>
      <trkpt lat="44.56622" lon="6.19567">
        <ele>858.1</ele>
        <time>2022-09-11T08:45:57Z</time>
      </trkpt>
      <trkpt lat="44.56622" lon="6.19567">
        <ele>858.1</ele>
        <time>2022-09-11T08:45:58Z</time>
      </trkpt>
      <trkpt lat="44.56622" lon="6.19567">
        <ele>858.1</ele>
        <time>2022-09-11T08:45:59Z</time>
      </trkpt>
      <trkpt lat="44.56621" lon="6.19567">
        <ele>858.1</ele>
        <time>2022-09-11T08:46:00Z</time>
      </trkpt>
      <trkpt lat="44.56621" lon="6.19567">
        <ele>858.1</ele>
        <time>2022-09-11T08:46:01Z</time>
      </trkpt>
      <trkpt lat="44.56621" lon="6.19567">
        <ele>858.1</ele>
        <time>2022-09-11T08:46:02Z</time>
      </trkpt>
      <trkpt lat="44.56621" lon="6.19567">
        <ele>858.1</ele>
        <time>2022-09-11T08:46:03Z</time>
      </trkpt>
      <trkpt lat="44.5662" lon="6.19567">
        <ele>858.1</ele>
        <time>2022-09-11T08:46:04Z</time>
      </trkpt>
      <trkpt lat="44.5662" lon="6.19567">
        <ele>858.1</ele>
        <time>2022-09-11T08:53:18Z</time>
      </trkpt>
      <trkpt lat="44.5662" lon="6.19567">
        <ele>858.1</ele>
        <time>2022-09-11T08:53:19Z</time>
      </trkpt>
      <trkpt lat="44.56619" lon="6.19568">
        <ele>858.1</ele>
        <time>2022-09-11T08:53:20Z</time>
      </trkpt>
      <trkpt lat="44.56619" lon="6.19568">
        <ele>858.1</ele>
        <time>2022-09-11T08:53:21Z</time>
      </trkpt>
      <trkpt lat="44.56618" lon="6.19567">
        <ele>858.1</ele>
        <time>2022-09-11T08:53:22Z</time>
      </trkpt>
      <trkpt lat="44.56617" lon="6.19567">
        <ele>858.1</ele>
        <time>2022-09-11T08:53:23Z</time>
      </trkpt>
      <trkpt lat="44.56616" lon="6.19566">
        <ele>858.1</ele>
        <time>2022-09-11T08:53:24Z</time>
      </trkpt>
      <trkpt lat="44.56614" lon="6.19566">
        <ele>858.1</ele>
        <time>2022-09-11T08:53:25Z</time>
      </trkpt>
      <trkpt lat="44.56612" lon="6.19565">
        <ele>858.2</ele>
        <time>2022-09-11T08:53:26Z</time>
      </trkpt>
      <trkpt lat="44.5661" lon="6.19566">
        <ele>858.2</ele>
        <time>2022-09-11T08:53:27Z</time>
      </trkpt>
      <trkpt lat="44.56608" lon="6.19567">
        <ele>858.2</ele>
        <time>2022-09-11T08:53:28Z</time>
      </trkpt>
      <trkpt lat="44.56606" lon="6.19569">
        <ele>858.2</ele>
        <time>2022-09-11T08:53:29Z</time>
      </trkpt>
      <trkpt lat="44.56604" lon="6.19573">
        <ele>858.2</ele>
        <time>2022-09-11T08:53:30Z</time>
      </trkpt>
      <trkpt lat="44.56602" lon="6.19575">
        <ele>858.2</ele>
        <time>2022-09-11T08:53:31Z</time>
      </trkpt>
      <trkpt lat="44.56601" lon="6.19579">
        <ele>858.2</ele>
        <time>2022-09-11T08:53:32Z</time>
      </trkpt>
      <trkpt lat="44.566" lon="6.19583">
        <ele>858.2</ele>
        <time>2022-09-11T08:53:33Z</time>
      </trkpt>
      <trkpt lat="44.56598" lon="6.19587">
        <ele>858.2</ele>
        <time>2022-09-11T08:53:34Z</time>
      </trkpt>
      <trkpt lat="44.56596" lon="6.19591">
        <ele>858.2</ele>
        <time>2022-09-11T08:53:35Z</time>
      </trkpt>
      <trkpt lat="44.56595" lon="6.19593">
        <ele>858.2</ele>
        <time>2022-09-11T08:53:36Z</time>
      </trkpt>
      <trkpt lat="44.56594" lon="6.19596">
        <ele>858.2</ele>
        <time>2022-09-11T08:53:37Z</time>
      </trkpt>
      <trkpt lat="44.56593" lon="6.19597">
        <ele>858.2</ele>
        <time>2022-09-11T08:53:38Z</time>
      </trkpt>
      <trkpt lat="44.56591" lon="6.196">
        <ele>858.2</ele>
        <time>2022-09-11T08:53:39Z</time>
      </trkpt>
      <trkpt lat="44.5659" lon="6.19604">
        <ele>858.2</ele>
        <time>2022-09-11T08:53:40Z</time>
      </trkpt>
      <trkpt lat="44.56589" lon="6.19605">
        <ele>858.2</ele>
        <time>2022-09-11T08:53:41Z</time>
      </trkpt>
      <trkpt lat="44.56587" lon="6.19609">
        <ele>858.3</ele>
        <time>2022-09-11T08:53:42Z</time>
      </trkpt>
      <trkpt lat="44.56586" lon="6.19611">
        <ele>858.3</ele>
        <time>2022-09-11T08:53:43Z</time>
      </trkpt>
      <trkpt lat="44.56584" lon="6.19614">
        <ele>858.3</ele>
        <time>2022-09-11T08:53:44Z</time>
      </trkpt>
      <trkpt lat="44.56583" lon="6.19617">
        <ele>858.3</ele>
        <time>2022-09-11T08:53:45Z</time>
      </trkpt>
      <trkpt lat="44.56581" lon="6.1962">
        <ele>858.3</ele>
        <time>2022-09-11T08:53:46Z</time>
      </trkpt>
      <trkpt lat="44.56579" lon="6.19623">
        <ele>858.3</ele>
        <time>2022-09-11T08:53:47Z</time>
      </trkpt>
      <trkpt lat="44.56577" lon="6.19627">
        <ele>858.3</ele>
        <time>2022-09-11T08:53:48Z</time>
      </trkpt>
      <trkpt lat="44.56574" lon="6.19631">
        <ele>858.3</ele>
        <time>2022-09-11T08:53:49Z</time>
      </trkpt>
      <trkpt lat="44.56573" lon="6.19633">
        <ele>858.3</ele>
        <time>2022-09-11T08:53:50Z</time>
      </trkpt>
      <trkpt lat="44.56571" lon="6.19637">
        <ele>858.3</ele>
        <time>2022-09-11T08:53:51Z</time>
      </trkpt>
      <trkpt lat="44.56569" lon="6.19642">
        <ele>858.4</ele>
        <time>2022-09-11T08:53:52Z</time>
      </trkpt>
      <trkpt lat="44.56568" lon="6.19643">
        <ele>858.4</ele>
        <time>2022-09-11T08:53:53Z</time>
      </trkpt>
      <trkpt lat="44.56565" lon="6.19648">
        <ele>858.4</ele>
        <time>2022-09-11T08:53:54Z</time>
      </trkpt>
      <trkpt lat="44.56563" lon="6.19652">
        <ele>858.4</ele>
        <time>2022-09-11T08:53:55Z</time>
      </trkpt>
      <trkpt lat="44.5656" lon="6.19657">
        <ele>858.4</ele>
        <time>2022-09-11T08:53:56Z</time>
      </trkpt>
      <trkpt lat="44.56557" lon="6.19661">
        <ele>858.5</ele>
        <time>2022-09-11T08:53:57Z</time>
      </trkpt>
      <trkpt lat="44.56553" lon="6.19669">
        <ele>858.5</ele>
        <time>2022-09-11T08:53:58Z</time>
      </trkpt>
      <trkpt lat="44.56551" lon="6.19673">
        <ele>858.5</ele>
        <time>2022-09-11T08:54:00Z</time>
      </trkpt>
      <trkpt lat="44.56548" lon="6.19677">
        <ele>858.5</ele>
        <time>2022-09-11T08:54:01Z</time>
      </trkpt>
      <trkpt lat="44.56546" lon="6.19681">
        <ele>858.5</ele>
        <time>2022-09-11T08:54:02Z</time>
      </trkpt>
      <trkpt lat="44.56543" lon="6.19685">
        <ele>858.5</ele>
        <time>2022-09-11T08:54:03Z</time>
      </trkpt>
      <trkpt lat="44.5654" lon="6.19689">
        <ele>858.5</ele>
        <time>2022-09-11T08:54:04Z</time>
      </trkpt>
      <trkpt lat="44.56537" lon="6.19694">
        <ele>858.6</ele>
        <time>2022-09-11T08:54:05Z</time>
      </trkpt>
      <trkpt lat="44.56535" lon="6.19698">
        <ele>858.6</ele>
        <time>2022-09-11T08:54:06Z</time>
      </trkpt>
      <trkpt lat="44.56532" lon="6.19701">
        <ele>858.6</ele>
        <time>2022-09-11T08:54:07Z</time>
      </trkpt>
      <trkpt lat="44.5653" lon="6.19706">
        <ele>858.6</ele>
        <time>2022-09-11T08:54:08Z</time>
      </trkpt>
      <trkpt lat="44.56524" lon="6.19712">
        <ele>858.6</ele>
        <time>2022-09-11T08:54:09Z</time>
      </trkpt>
      <trkpt lat="44.5652" lon="6.19719">
        <ele>858.6</ele>
        <time>2022-09-11T08:54:11Z</time>
      </trkpt>
      <trkpt lat="44.56517" lon="6.19723">
        <ele>858.6</ele>
        <time>2022-09-11T08:54:12Z</time>
      </trkpt>
      <trkpt lat="44.56515" lon="6.19727">
        <ele>858.6</ele>
        <time>2022-09-11T08:54:13Z</time>
      </trkpt>
      <trkpt lat="44.56513" lon="6.19731">
        <ele>858.6</ele>
        <time>2022-09-11T08:54:14Z</time>
      </trkpt>
      <trkpt lat="44.56511" lon="6.19735">
        <ele>858.7</ele>
        <time>2022-09-11T08:54:15Z</time>
      </trkpt>
      <trkpt lat="44.56509" lon="6.19739">
        <ele>858.7</ele>
        <time>2022-09-11T08:54:16Z</time>
      </trkpt>
      <trkpt lat="44.56507" lon="6.19743">
        <ele>858.7</ele>
        <time>2022-09-11T08:54:17Z</time>
      </trkpt>
      <trkpt lat="44.56504" lon="6.19748">
        <ele>858.7</ele>
        <time>2022-09-11T08:54:18Z</time>
      </trkpt>
      <trkpt lat="44.56501" lon="6.19752">
        <ele>858.7</ele>
        <time>2022-09-11T08:54:19Z</time>
      </trkpt>
      <trkpt lat="44.56499" lon="6.19756">
        <ele>858.7</ele>
        <time>2022-09-11T08:54:20Z</time>
      </trkpt>
      <trkpt lat="44.56497" lon="6.1976">
        <ele>858.7</ele>
        <time>2022-09-11T08:54:21Z</time>
      </trkpt>
      <trkpt lat="44.56495" lon="6.19762">
        <ele>858.7</ele>
        <time>2022-09-11T08:54:22Z</time>
      </trkpt>
      <trkpt lat="44.56494" lon="6.19766">
        <ele>858.8</ele>
        <time>2022-09-11T08:54:23Z</time>
      </trkpt>
      <trkpt lat="44.56493" lon="6.19768">
        <ele>858.8</ele>
        <time>2022-09-11T08:54:24Z</time>
      </trkpt>
      <trkpt lat="44.56491" lon="6.19771">
        <ele>858.8</ele>
        <time>2022-09-11T08:54:25Z</time>
      </trkpt>
      <trkpt lat="44.5649" lon="6.19772">
        <ele>858.8</ele>
        <time>2022-09-11T08:54:26Z</time>
      </trkpt>
      <trkpt lat="44.56488" lon="6.19775">
        <ele>858.8</ele>
        <time>2022-09-11T08:54:27Z</time>
      </trkpt>
      <trkpt lat="44.56487" lon="6.19776">
        <ele>858.8</ele>
        <time>2022-09-11T08:54:28Z</time>
      </trkpt>
      <trkpt lat="44.56485" lon="6.1978">
        <ele>858.8</ele>
        <time>2022-09-11T08:54:29Z</time>
      </trkpt>
      <trkpt lat="44.56485" lon="6.19784">
        <ele>858.9</ele>
        <time>2022-09-11T08:54:30Z</time>
      </trkpt>
      <trkpt lat="44.56484" lon="6.19788">
        <ele>858.9</ele>
        <time>2022-09-11T08:54:31Z</time>
      </trkpt>
      <trkpt lat="44.56483" lon="6.19795">
        <ele>858.9</ele>
        <time>2022-09-11T08:54:32Z</time>
      </trkpt>
      <trkpt lat="44.56483" lon="6.19802">
        <ele>859</ele>
        <time>2022-09-11T08:54:34Z</time>
      </trkpt>
      <trkpt lat="44.56483" lon="6.19804">
        <ele>859</ele>
        <time>2022-09-11T08:54:35Z</time>
      </trkpt>
      <trkpt lat="44.56483" lon="6.19807">
        <ele>859</ele>
        <time>2022-09-11T08:54:36Z</time>
      </trkpt>
      <trkpt lat="44.56483" lon="6.19811">
        <ele>859</ele>
        <time>2022-09-11T08:54:37Z</time>
      </trkpt>
      <trkpt lat="44.56482" lon="6.19816">
        <ele>859</ele>
        <time>2022-09-11T08:54:38Z</time>
      </trkpt>
      <trkpt lat="44.56482" lon="6.19818">
        <ele>859</ele>
        <time>2022-09-11T08:54:39Z</time>
      </trkpt>
      <trkpt lat="44.56482" lon="6.19823">
        <ele>859.1</ele>
        <time>2022-09-11T08:54:40Z</time>
      </trkpt>
      <trkpt lat="44.56481" lon="6.19827">
        <ele>859.1</ele>
        <time>2022-09-11T08:54:41Z</time>
      </trkpt>
      <trkpt lat="44.5648" lon="6.19831">
        <ele>859.1</ele>
        <time>2022-09-11T08:54:42Z</time>
      </trkpt>
      <trkpt lat="44.56477" lon="6.19839">
        <ele>859.2</ele>
        <time>2022-09-11T08:54:43Z</time>
      </trkpt>
      <trkpt lat="44.56473" lon="6.19842">
        <ele>859.2</ele>
        <time>2022-09-11T08:54:44Z</time>
      </trkpt>
      <trkpt lat="44.56468" lon="6.19841">
        <ele>859.1</ele>
        <time>2022-09-11T08:54:46Z</time>
      </trkpt>
      <trkpt lat="44.56459" lon="6.19839">
        <ele>858.9</ele>
        <time>2022-09-11T08:54:48Z</time>
      </trkpt>
      <trkpt lat="44.56454" lon="6.19839">
        <ele>858.9</ele>
        <time>2022-09-11T08:54:49Z</time>
      </trkpt>
      <trkpt lat="44.5645" lon="6.19838">
        <ele>858.8</ele>
        <time>2022-09-11T08:54:50Z</time>
      </trkpt>
      <trkpt lat="44.5644" lon="6.19835">
        <ele>858.8</ele>
        <time>2022-09-11T08:54:51Z</time>
      </trkpt>
      <trkpt lat="44.56431" lon="6.19833">
        <ele>858.8</ele>
        <time>2022-09-11T08:54:53Z</time>
      </trkpt>
      <trkpt lat="44.56427" lon="6.19833">
        <ele>858.8</ele>
        <time>2022-09-11T08:54:55Z</time>
      </trkpt>
      <trkpt lat="44.56423" lon="6.19832">
        <ele>858.8</ele>
        <time>2022-09-11T08:54:56Z</time>
      </trkpt>
      <trkpt lat="44.56417" lon="6.1983">
        <ele>858.8</ele>
        <time>2022-09-11T08:54:57Z</time>
      </trkpt>
      <trkpt lat="44.56413" lon="6.19829">
        <ele>858.8</ele>
        <time>2022-09-11T08:54:58Z</time>
      </trkpt>
      <trkpt lat="44.56407" lon="6.19826">
        <ele>858.7</ele>
        <time>2022-09-11T08:54:59Z</time>
      </trkpt>
      <trkpt lat="44.56404" lon="6.19825">
        <ele>858.7</ele>
        <time>2022-09-11T08:55:00Z</time>
      </trkpt>
      <trkpt lat="44.56398" lon="6.19822">
        <ele>858.6</ele>
        <time>2022-09-11T08:55:01Z</time>
      </trkpt>
      <trkpt lat="44.56391" lon="6.1982">
        <ele>858.5</ele>
        <time>2022-09-11T08:55:02Z</time>
      </trkpt>
      <trkpt lat="44.56385" lon="6.19817">
        <ele>858.3</ele>
        <time>2022-09-11T08:55:03Z</time>
      </trkpt>
      <trkpt lat="44.5638" lon="6.19816">
        <ele>858.1</ele>
        <time>2022-09-11T08:55:04Z</time>
      </trkpt>
      <trkpt lat="44.56374" lon="6.19814">
        <ele>857.9</ele>
        <time>2022-09-11T08:55:05Z</time>
      </trkpt>
      <trkpt lat="44.56369" lon="6.19812">
        <ele>857.8</ele>
        <time>2022-09-11T08:55:06Z</time>
      </trkpt>
      <trkpt lat="44.56363" lon="6.19811">
        <ele>857.7</ele>
        <time>2022-09-11T08:55:07Z</time>
      </trkpt>
      <trkpt lat="44.56357" lon="6.1981">
        <ele>857.6</ele>
        <time>2022-09-11T08:55:08Z</time>
      </trkpt>
      <trkpt lat="44.56352" lon="6.19809">
        <ele>857.5</ele>
        <time>2022-09-11T08:55:09Z</time>
      </trkpt>
      <trkpt lat="44.56344" lon="6.19807">
        <ele>857.4</ele>
        <time>2022-09-11T08:55:10Z</time>
      </trkpt>
      <trkpt lat="44.56342" lon="6.19806">
        <ele>857.4</ele>
        <time>2022-09-11T08:55:11Z</time>
      </trkpt>
      <trkpt lat="44.56337" lon="6.19806">
        <ele>857.4</ele>
        <time>2022-09-11T08:55:13Z</time>
      </trkpt>
      <trkpt lat="44.5633" lon="6.19799">
        <ele>857.2</ele>
        <time>2022-09-11T08:55:15Z</time>
      </trkpt>
      <trkpt lat="44.56329" lon="6.19793">
        <ele>857.1</ele>
        <time>2022-09-11T08:55:16Z</time>
      </trkpt>
      <trkpt lat="44.56329" lon="6.19784">
        <ele>857</ele>
        <time>2022-09-11T08:55:17Z</time>
      </trkpt>
      <trkpt lat="44.5633" lon="6.19777">
        <ele>856.9</ele>
        <time>2022-09-11T08:55:18Z</time>
      </trkpt>
      <trkpt lat="44.56333" lon="6.1977">
        <ele>856.9</ele>
        <time>2022-09-11T08:55:19Z</time>
      </trkpt>
      <trkpt lat="44.56337" lon="6.19763">
        <ele>856.9</ele>
        <time>2022-09-11T08:55:21Z</time>
      </trkpt>
      <trkpt lat="44.56339" lon="6.19756">
        <ele>856.9</ele>
        <time>2022-09-11T08:55:22Z</time>
      </trkpt>
      <trkpt lat="44.56341" lon="6.19749">
        <ele>856.9</ele>
        <time>2022-09-11T08:55:23Z</time>
      </trkpt>
      <trkpt lat="44.56344" lon="6.19742">
        <ele>857</ele>
        <time>2022-09-11T08:55:25Z</time>
      </trkpt>
      <trkpt lat="44.56346" lon="6.19736">
        <ele>857</ele>
        <time>2022-09-11T08:55:26Z</time>
      </trkpt>
      <trkpt lat="44.56348" lon="6.19731">
        <ele>857</ele>
        <time>2022-09-11T08:55:27Z</time>
      </trkpt>
      <trkpt lat="44.5635" lon="6.19726">
        <ele>857</ele>
        <time>2022-09-11T08:55:28Z</time>
      </trkpt>
      <trkpt lat="44.56352" lon="6.19714">
        <ele>857.1</ele>
        <time>2022-09-11T08:55:29Z</time>
      </trkpt>
      <trkpt lat="44.56351" lon="6.19708">
        <ele>857.1</ele>
        <time>2022-09-11T08:55:31Z</time>
      </trkpt>
      <trkpt lat="44.56349" lon="6.19697">
        <ele>857.1</ele>
        <time>2022-09-11T08:55:32Z</time>
      </trkpt>
      <trkpt lat="44.56345" lon="6.19692">
        <ele>857</ele>
        <time>2022-09-11T08:55:34Z</time>
      </trkpt>
      <trkpt lat="44.56342" lon="6.1969">
        <ele>857</ele>
        <time>2022-09-11T08:55:35Z</time>
      </trkpt>
      <trkpt lat="44.56339" lon="6.19687">
        <ele>857</ele>
        <time>2022-09-11T08:55:36Z</time>
      </trkpt>
      <trkpt lat="44.56335" lon="6.19685">
        <ele>857</ele>
        <time>2022-09-11T08:55:37Z</time>
      </trkpt>
      <trkpt lat="44.56331" lon="6.19684">
        <ele>857</ele>
        <time>2022-09-11T08:55:38Z</time>
      </trkpt>
      <trkpt lat="44.56327" lon="6.19684">
        <ele>856.9</ele>
        <time>2022-09-11T08:55:39Z</time>
      </trkpt>
      <trkpt lat="44.56322" lon="6.19686">
        <ele>856.9</ele>
        <time>2022-09-11T08:55:40Z</time>
      </trkpt>
      <trkpt lat="44.56317" lon="6.19694">
        <ele>856.6</ele>
        <time>2022-09-11T08:55:41Z</time>
      </trkpt>
      <trkpt lat="44.56314" lon="6.197">
        <ele>856.4</ele>
        <time>2022-09-11T08:55:42Z</time>
      </trkpt>
      <trkpt lat="44.56312" lon="6.19706">
        <ele>856.2</ele>
        <time>2022-09-11T08:55:43Z</time>
      </trkpt>
      <trkpt lat="44.5631" lon="6.19713">
        <ele>856</ele>
        <time>2022-09-11T08:55:44Z</time>
      </trkpt>
      <trkpt lat="44.56307" lon="6.1972">
        <ele>855.8</ele>
        <time>2022-09-11T08:55:45Z</time>
      </trkpt>
      <trkpt lat="44.56306" lon="6.19728">
        <ele>855.6</ele>
        <time>2022-09-11T08:55:46Z</time>
      </trkpt>
      <trkpt lat="44.56304" lon="6.19736">
        <ele>855.3</ele>
        <time>2022-09-11T08:55:47Z</time>
      </trkpt>
      <trkpt lat="44.56303" lon="6.19745">
        <ele>855.1</ele>
        <time>2022-09-11T08:55:48Z</time>
      </trkpt>
      <trkpt lat="44.563" lon="6.19753">
        <ele>854.9</ele>
        <time>2022-09-11T08:55:49Z</time>
      </trkpt>
      <trkpt lat="44.56297" lon="6.1976">
        <ele>854.7</ele>
        <time>2022-09-11T08:55:50Z</time>
      </trkpt>
      <trkpt lat="44.56295" lon="6.19767">
        <ele>854.5</ele>
        <time>2022-09-11T08:55:51Z</time>
      </trkpt>
      <trkpt lat="44.56293" lon="6.19775">
        <ele>854.3</ele>
        <time>2022-09-11T08:55:52Z</time>
      </trkpt>
      <trkpt lat="44.5629" lon="6.19783">
        <ele>854.1</ele>
        <time>2022-09-11T08:55:53Z</time>
      </trkpt>
      <trkpt lat="44.56286" lon="6.1979">
        <ele>853.9</ele>
        <time>2022-09-11T08:55:54Z</time>
      </trkpt>
      <trkpt lat="44.56281" lon="6.19796">
        <ele>853.7</ele>
        <time>2022-09-11T08:55:55Z</time>
      </trkpt>
      <trkpt lat="44.56274" lon="6.19799">
        <ele>853.3</ele>
        <time>2022-09-11T08:55:56Z</time>
      </trkpt>
      <trkpt lat="44.56266" lon="6.19799">
        <ele>853.2</ele>
        <time>2022-09-11T08:55:57Z</time>
      </trkpt>
      <trkpt lat="44.56259" lon="6.19797">
        <ele>853.2</ele>
        <time>2022-09-11T08:55:58Z</time>
      </trkpt>
      <trkpt lat="44.56253" lon="6.19795">
        <ele>853.2</ele>
        <time>2022-09-11T08:55:59Z</time>
      </trkpt>
      <trkpt lat="44.56247" lon="6.19793">
        <ele>853.2</ele>
        <time>2022-09-11T08:56:00Z</time>
      </trkpt>
      <trkpt lat="44.5624" lon="6.19791">
        <ele>853.2</ele>
        <time>2022-09-11T08:56:01Z</time>
      </trkpt>
      <trkpt lat="44.56234" lon="6.1979">
        <ele>853.2</ele>
        <time>2022-09-11T08:56:02Z</time>
      </trkpt>
      <trkpt lat="44.56229" lon="6.19789">
        <ele>853.3</ele>
        <time>2022-09-11T08:56:03Z</time>
      </trkpt>
      <trkpt lat="44.56223" lon="6.19787">
        <ele>853.3</ele>
        <time>2022-09-11T08:56:04Z</time>
      </trkpt>
      <trkpt lat="44.56217" lon="6.19786">
        <ele>853.3</ele>
        <time>2022-09-11T08:56:05Z</time>
      </trkpt>
      <trkpt lat="44.56211" lon="6.19783">
        <ele>853.2</ele>
        <time>2022-09-11T08:56:06Z</time>
      </trkpt>
      <trkpt lat="44.56204" lon="6.19782">
        <ele>853.3</ele>
        <time>2022-09-11T08:56:07Z</time>
      </trkpt>
      <trkpt lat="44.56198" lon="6.19781">
        <ele>853.3</ele>
        <time>2022-09-11T08:56:08Z</time>
      </trkpt>
      <trkpt lat="44.56193" lon="6.19779">
        <ele>853.4</ele>
        <time>2022-09-11T08:56:09Z</time>
      </trkpt>
      <trkpt lat="44.56189" lon="6.19775">
        <ele>853.5</ele>
        <time>2022-09-11T08:56:10Z</time>
      </trkpt>
      <trkpt lat="44.56184" lon="6.1977">
        <ele>853.7</ele>
        <time>2022-09-11T08:56:11Z</time>
      </trkpt>
      <trkpt lat="44.5618" lon="6.19766">
        <ele>853.8</ele>
        <time>2022-09-11T08:56:12Z</time>
      </trkpt>
      <trkpt lat="44.56177" lon="6.19762">
        <ele>854</ele>
        <time>2022-09-11T08:56:13Z</time>
      </trkpt>
      <trkpt lat="44.56173" lon="6.19756">
        <ele>854.2</ele>
        <time>2022-09-11T08:56:14Z</time>
      </trkpt>
      <trkpt lat="44.5617" lon="6.19752">
        <ele>854.4</ele>
        <time>2022-09-11T08:56:15Z</time>
      </trkpt>
      <trkpt lat="44.56168" lon="6.1975">
        <ele>854.5</ele>
        <time>2022-09-11T08:56:16Z</time>
      </trkpt>
      <trkpt lat="44.56165" lon="6.19747">
        <ele>854.6</ele>
        <time>2022-09-11T08:56:17Z</time>
      </trkpt>
      <trkpt lat="44.56162" lon="6.19744">
        <ele>854.8</ele>
        <time>2022-09-11T08:56:18Z</time>
      </trkpt>
      <trkpt lat="44.56158" lon="6.19742">
        <ele>854.9</ele>
        <time>2022-09-11T08:56:19Z</time>
      </trkpt>
      <trkpt lat="44.56155" lon="6.1974">
        <ele>855.1</ele>
        <time>2022-09-11T08:56:20Z</time>
      </trkpt>
      <trkpt lat="44.56151" lon="6.19737">
        <ele>855.2</ele>
        <time>2022-09-11T08:56:21Z</time>
      </trkpt>
      <trkpt lat="44.56148" lon="6.19734">
        <ele>855.3</ele>
        <time>2022-09-11T08:56:22Z</time>
      </trkpt>
      <trkpt lat="44.56145" lon="6.1973">
        <ele>855.4</ele>
        <time>2022-09-11T08:56:23Z</time>
      </trkpt>
      <trkpt lat="44.56141" lon="6.19726">
        <ele>855.5</ele>
        <time>2022-09-11T08:56:24Z</time>
      </trkpt>
      <trkpt lat="44.56138" lon="6.19723">
        <ele>855.6</ele>
        <time>2022-09-11T08:56:25Z</time>
      </trkpt>
      <trkpt lat="44.56134" lon="6.19721">
        <ele>855.7</ele>
        <time>2022-09-11T08:56:26Z</time>
      </trkpt>
      <trkpt lat="44.56131" lon="6.19718">
        <ele>855.8</ele>
        <time>2022-09-11T08:56:27Z</time>
      </trkpt>
      <trkpt lat="44.56128" lon="6.19716">
        <ele>855.8</ele>
        <time>2022-09-11T08:56:28Z</time>
      </trkpt>
      <trkpt lat="44.56123" lon="6.19712">
        <ele>855.9</ele>
        <time>2022-09-11T08:56:29Z</time>
      </trkpt>
      <trkpt lat="44.56119" lon="6.19708">
        <ele>856</ele>
        <time>2022-09-11T08:56:30Z</time>
      </trkpt>
      <trkpt lat="44.56116" lon="6.19706">
        <ele>856</ele>
        <time>2022-09-11T08:56:31Z</time>
      </trkpt>
      <trkpt lat="44.56113" lon="6.19703">
        <ele>856.1</ele>
        <time>2022-09-11T08:56:32Z</time>
      </trkpt>
      <trkpt lat="44.56109" lon="6.197">
        <ele>856.2</ele>
        <time>2022-09-11T08:56:33Z</time>
      </trkpt>
      <trkpt lat="44.56105" lon="6.19697">
        <ele>856.2</ele>
        <time>2022-09-11T08:56:34Z</time>
      </trkpt>
      <trkpt lat="44.56102" lon="6.19695">
        <ele>856.2</ele>
        <time>2022-09-11T08:56:35Z</time>
      </trkpt>
      <trkpt lat="44.56097" lon="6.19691">
        <ele>856.3</ele>
        <time>2022-09-11T08:56:36Z</time>
      </trkpt>
      <trkpt lat="44.56093" lon="6.19688">
        <ele>856.3</ele>
        <time>2022-09-11T08:56:37Z</time>
      </trkpt>
      <trkpt lat="44.56089" lon="6.19685">
        <ele>856.3</ele>
        <time>2022-09-11T08:56:38Z</time>
      </trkpt>
      <trkpt lat="44.56085" lon="6.19682">
        <ele>856.3</ele>
        <time>2022-09-11T08:56:39Z</time>
      </trkpt>
      <trkpt lat="44.56082" lon="6.19679">
        <ele>856.3</ele>
        <time>2022-09-11T08:56:40Z</time>
      </trkpt>
      <trkpt lat="44.56079" lon="6.19678">
        <ele>856.3</ele>
        <time>2022-09-11T08:56:41Z</time>
      </trkpt>
      <trkpt lat="44.56075" lon="6.19678">
        <ele>856.3</ele>
        <time>2022-09-11T08:56:42Z</time>
      </trkpt>
      <trkpt lat="44.56074" lon="6.19678">
        <ele>856.3</ele>
        <time>2022-09-11T08:56:43Z</time>
      </trkpt>
      <trkpt lat="44.56074" lon="6.19678">
        <ele>856.3</ele>
        <time>2022-09-11T08:56:44Z</time>
      </trkpt>
      <trkpt lat="44.56074" lon="6.19679">
        <ele>856.3</ele>
        <time>2022-09-11T08:56:45Z</time>
      </trkpt>
      <trkpt lat="44.56075" lon="6.19679">
        <ele>856.3</ele>
        <time>2022-09-11T08:56:46Z</time>
      </trkpt>
      <trkpt lat="44.56075" lon="6.19679">
        <ele>856.3</ele>
        <time>2022-09-11T08:56:47Z</time>
      </trkpt>
      <trkpt lat="44.56075" lon="6.19678">
        <ele>856.3</ele>
        <time>2022-09-11T08:56:48Z</time>
      </trkpt>
      <trkpt lat="44.56075" lon="6.19678">
        <ele>856.3</ele>
        <time>2022-09-11T08:56:49Z</time>
      </trkpt>
      <trkpt lat="44.56075" lon="6.19679">
        <ele>856.3</ele>
        <time>2022-09-11T08:56:50Z</time>
      </trkpt>
      <trkpt lat="44.56075" lon="6.19679">
        <ele>856.3</ele>
        <time>2022-09-11T08:56:51Z</time>
      </trkpt>
      <trkpt lat="44.56075" lon="6.19679">
        <ele>856.3</ele>
        <time>2022-09-11T08:56:52Z</time>
      </trkpt>
      <trkpt lat="44.56075" lon="6.1968">
        <ele>856.3</ele>
        <time>2022-09-11T08:56:53Z</time>
      </trkpt>
      <trkpt lat="44.56075" lon="6.19681">
        <ele>856.3</ele>
        <time>2022-09-11T08:56:54Z</time>
      </trkpt>
      <trkpt lat="44.56076" lon="6.1968">
        <ele>856.3</ele>
        <time>2022-09-11T08:56:55Z</time>
      </trkpt>
      <trkpt lat="44.56076" lon="6.1968">
        <ele>856.3</ele>
        <time>2022-09-11T08:56:56Z</time>
      </trkpt>
      <trkpt lat="44.56076" lon="6.1968">
        <ele>856.3</ele>
        <time>2022-09-11T08:56:57Z</time>
      </trkpt>
      <trkpt lat="44.56076" lon="6.1968">
        <ele>856.3</ele>
        <time>2022-09-11T08:56:58Z</time>
      </trkpt>
      <trkpt lat="44.56076" lon="6.1968">
        <ele>856.3</ele>
        <time>2022-09-11T08:56:59Z</time>
      </trkpt>
      <trkpt lat="44.56075" lon="6.19679">
        <ele>856.3</ele>
        <time>2022-09-11T08:57:00Z</time>
      </trkpt>
      <trkpt lat="44.56074" lon="6.19678">
        <ele>856.3</ele>
        <time>2022-09-11T08:57:01Z</time>
      </trkpt>
      <trkpt lat="44.56073" lon="6.19677">
        <ele>856.3</ele>
        <time>2022-09-11T08:57:02Z</time>
      </trkpt>
      <trkpt lat="44.56072" lon="6.19675">
        <ele>856.2</ele>
        <time>2022-09-11T08:57:03Z</time>
      </trkpt>
      <trkpt lat="44.56071" lon="6.19674">
        <ele>856.2</ele>
        <time>2022-09-11T08:57:04Z</time>
      </trkpt>
      <trkpt lat="44.5607" lon="6.19673">
        <ele>856.2</ele>
        <time>2022-09-11T08:57:37Z</time>
      </trkpt>
      <trkpt lat="44.56069" lon="6.19672">
        <ele>856.2</ele>
        <time>2022-09-11T08:57:38Z</time>
      </trkpt>
      <trkpt lat="44.56065" lon="6.19668">
        <ele>856.2</ele>
        <time>2022-09-11T08:57:41Z</time>
      </trkpt>
      <trkpt lat="44.56063" lon="6.19665">
        <ele>856.2</ele>
        <time>2022-09-11T08:57:42Z</time>
      </trkpt>
      <trkpt lat="44.5606" lon="6.19663">
        <ele>856.1</ele>
        <time>2022-09-11T08:57:43Z</time>
      </trkpt>
      <trkpt lat="44.56057" lon="6.19661">
        <ele>856.1</ele>
        <time>2022-09-11T08:57:44Z</time>
      </trkpt>
      <trkpt lat="44.56053" lon="6.19658">
        <ele>856</ele>
        <time>2022-09-11T08:57:45Z</time>
      </trkpt>
      <trkpt lat="44.56049" lon="6.19655">
        <ele>856</ele>
        <time>2022-09-11T08:57:46Z</time>
      </trkpt>
      <trkpt lat="44.56046" lon="6.19653">
        <ele>855.9</ele>
        <time>2022-09-11T08:57:47Z</time>
      </trkpt>
      <trkpt lat="44.56041" lon="6.1965">
        <ele>855.8</ele>
        <time>2022-09-11T08:57:48Z</time>
      </trkpt>
      <trkpt lat="44.56036" lon="6.19646">
        <ele>855.7</ele>
        <time>2022-09-11T08:57:49Z</time>
      </trkpt>
      <trkpt lat="44.56032" lon="6.19643">
        <ele>855.6</ele>
        <time>2022-09-11T08:57:50Z</time>
      </trkpt>
      <trkpt lat="44.56028" lon="6.1964">
        <ele>855.5</ele>
        <time>2022-09-11T08:57:51Z</time>
      </trkpt>
      <trkpt lat="44.56023" lon="6.19637">
        <ele>855.4</ele>
        <time>2022-09-11T08:57:52Z</time>
      </trkpt>
      <trkpt lat="44.56019" lon="6.19634">
        <ele>855.3</ele>
        <time>2022-09-11T08:57:53Z</time>
      </trkpt>
      <trkpt lat="44.56014" lon="6.19632">
        <ele>855.2</ele>
        <time>2022-09-11T08:57:54Z</time>
      </trkpt>
      <trkpt lat="44.56009" lon="6.19628">
        <ele>855.1</ele>
        <time>2022-09-11T08:57:55Z</time>
      </trkpt>
      <trkpt lat="44.56004" lon="6.19625">
        <ele>854.9</ele>
        <time>2022-09-11T08:57:56Z</time>
      </trkpt>
      <trkpt lat="44.55999" lon="6.19622">
        <ele>854.8</ele>
        <time>2022-09-11T08:57:57Z</time>
      </trkpt>
      <trkpt lat="44.55994" lon="6.19619">
        <ele>854.7</ele>
        <time>2022-09-11T08:57:58Z</time>
      </trkpt>
      <trkpt lat="44.5599" lon="6.19615">
        <ele>854.6</ele>
        <time>2022-09-11T08:57:59Z</time>
      </trkpt>
      <trkpt lat="44.55986" lon="6.19612">
        <ele>854.5</ele>
        <time>2022-09-11T08:58:00Z</time>
      </trkpt>
      <trkpt lat="44.55983" lon="6.19609">
        <ele>854.4</ele>
        <time>2022-09-11T08:58:01Z</time>
      </trkpt>
      <trkpt lat="44.55981" lon="6.19607">
        <ele>854.4</ele>
        <time>2022-09-11T08:58:02Z</time>
      </trkpt>
      <trkpt lat="44.5598" lon="6.19606">
        <ele>854.3</ele>
        <time>2022-09-11T08:58:03Z</time>
      </trkpt>
      <trkpt lat="44.5598" lon="6.19606">
        <ele>854.3</ele>
        <time>2022-09-11T08:58:04Z</time>
      </trkpt>
      <trkpt lat="44.5598" lon="6.19606">
        <ele>854.3</ele>
        <time>2022-09-11T08:58:05Z</time>
      </trkpt>
      <trkpt lat="44.55979" lon="6.19606">
        <ele>854.3</ele>
        <time>2022-09-11T08:58:06Z</time>
      </trkpt>
      <trkpt lat="44.55979" lon="6.19606">
        <ele>854.3</ele>
        <time>2022-09-11T08:58:07Z</time>
      </trkpt>
      <trkpt lat="44.55979" lon="6.19606">
        <ele>854.3</ele>
        <time>2022-09-11T08:58:08Z</time>
      </trkpt>
      <trkpt lat="44.55978" lon="6.19606">
        <ele>854.2</ele>
        <time>2022-09-11T08:58:09Z</time>
      </trkpt>
      <trkpt lat="44.55978" lon="6.19606">
        <ele>854.2</ele>
        <time>2022-09-11T08:58:10Z</time>
      </trkpt>
      <trkpt lat="44.55977" lon="6.19606">
        <ele>854.2</ele>
        <time>2022-09-11T08:58:11Z</time>
      </trkpt>
      <trkpt lat="44.55977" lon="6.19606">
        <ele>854.2</ele>
        <time>2022-09-11T08:58:12Z</time>
      </trkpt>
      <trkpt lat="44.55977" lon="6.19606">
        <ele>854.2</ele>
        <time>2022-09-11T08:58:13Z</time>
      </trkpt>
      <trkpt lat="44.55976" lon="6.19606">
        <ele>854.2</ele>
        <time>2022-09-11T08:58:14Z</time>
      </trkpt>
      <trkpt lat="44.55976" lon="6.19606">
        <ele>854.2</ele>
        <time>2022-09-11T08:58:15Z</time>
      </trkpt>
      <trkpt lat="44.55976" lon="6.19606">
        <ele>854.2</ele>
        <time>2022-09-11T08:58:16Z</time>
      </trkpt>
      <trkpt lat="44.55975" lon="6.19606">
        <ele>854.1</ele>
        <time>2022-09-11T08:58:17Z</time>
      </trkpt>
      <trkpt lat="44.55975" lon="6.19606">
        <ele>854.1</ele>
        <time>2022-09-11T08:58:18Z</time>
      </trkpt>
      <trkpt lat="44.55974" lon="6.19606">
        <ele>854.1</ele>
        <time>2022-09-11T08:58:19Z</time>
      </trkpt>
      <trkpt lat="44.55974" lon="6.19606">
        <ele>854.1</ele>
        <time>2022-09-11T08:59:10Z</time>
      </trkpt>
      <trkpt lat="44.55974" lon="6.19606">
        <ele>854.1</ele>
        <time>2022-09-11T08:59:11Z</time>
      </trkpt>
      <trkpt lat="44.55973" lon="6.19606">
        <ele>854.1</ele>
        <time>2022-09-11T08:59:12Z</time>
      </trkpt>
      <trkpt lat="44.5597" lon="6.19603">
        <ele>853.9</ele>
        <time>2022-09-11T08:59:13Z</time>
      </trkpt>
      <trkpt lat="44.55966" lon="6.19599">
        <ele>853.8</ele>
        <time>2022-09-11T08:59:14Z</time>
      </trkpt>
      <trkpt lat="44.55961" lon="6.19593">
        <ele>853.5</ele>
        <time>2022-09-11T08:59:16Z</time>
      </trkpt>
      <trkpt lat="44.55952" lon="6.19587">
        <ele>853.1</ele>
        <time>2022-09-11T08:59:18Z</time>
      </trkpt>
      <trkpt lat="44.55947" lon="6.19583">
        <ele>852.8</ele>
        <time>2022-09-11T08:59:19Z</time>
      </trkpt>
      <trkpt lat="44.55943" lon="6.1958">
        <ele>852.6</ele>
        <time>2022-09-11T08:59:20Z</time>
      </trkpt>
      <trkpt lat="44.55938" lon="6.19577">
        <ele>852.3</ele>
        <time>2022-09-11T08:59:21Z</time>
      </trkpt>
      <trkpt lat="44.55932" lon="6.19573">
        <ele>852</ele>
        <time>2022-09-11T08:59:22Z</time>
      </trkpt>
      <trkpt lat="44.55927" lon="6.19569">
        <ele>851.7</ele>
        <time>2022-09-11T08:59:23Z</time>
      </trkpt>
      <trkpt lat="44.55921" lon="6.19565">
        <ele>851.3</ele>
        <time>2022-09-11T08:59:24Z</time>
      </trkpt>
      <trkpt lat="44.55915" lon="6.19561">
        <ele>851</ele>
        <time>2022-09-11T08:59:25Z</time>
      </trkpt>
      <trkpt lat="44.55908" lon="6.19556">
        <ele>850.6</ele>
        <time>2022-09-11T08:59:26Z</time>
      </trkpt>
      <trkpt lat="44.55902" lon="6.19552">
        <ele>850.3</ele>
        <time>2022-09-11T08:59:27Z</time>
      </trkpt>
      <trkpt lat="44.55895" lon="6.19548">
        <ele>850</ele>
        <time>2022-09-11T08:59:28Z</time>
      </trkpt>
      <trkpt lat="44.55889" lon="6.19543">
        <ele>849.8</ele>
        <time>2022-09-11T08:59:29Z</time>
      </trkpt>
      <trkpt lat="44.55882" lon="6.19538">
        <ele>849.6</ele>
        <time>2022-09-11T08:59:30Z</time>
      </trkpt>
      <trkpt lat="44.55876" lon="6.19533">
        <ele>849.4</ele>
        <time>2022-09-11T08:59:31Z</time>
      </trkpt>
      <trkpt lat="44.5587" lon="6.19527">
        <ele>849.3</ele>
        <time>2022-09-11T08:59:32Z</time>
      </trkpt>
      <trkpt lat="44.55864" lon="6.19521">
        <ele>849.2</ele>
        <time>2022-09-11T08:59:33Z</time>
      </trkpt>
      <trkpt lat="44.55858" lon="6.19515">
        <ele>849.2</ele>
        <time>2022-09-11T08:59:34Z</time>
      </trkpt>
      <trkpt lat="44.55852" lon="6.19509">
        <ele>849.3</ele>
        <time>2022-09-11T08:59:35Z</time>
      </trkpt>
      <trkpt lat="44.55845" lon="6.19506">
        <ele>849.4</ele>
        <time>2022-09-11T08:59:36Z</time>
      </trkpt>
      <trkpt lat="44.55838" lon="6.19505">
        <ele>849.5</ele>
        <time>2022-09-11T08:59:37Z</time>
      </trkpt>
      <trkpt lat="44.55831" lon="6.19505">
        <ele>849.7</ele>
        <time>2022-09-11T08:59:38Z</time>
      </trkpt>
      <trkpt lat="44.55825" lon="6.19506">
        <ele>850</ele>
        <time>2022-09-11T08:59:39Z</time>
      </trkpt>
      <trkpt lat="44.55819" lon="6.19508">
        <ele>850.3</ele>
        <time>2022-09-11T08:59:40Z</time>
      </trkpt>
      <trkpt lat="44.55814" lon="6.19508">
        <ele>850.6</ele>
        <time>2022-09-11T08:59:41Z</time>
      </trkpt>
      <trkpt lat="44.55809" lon="6.19508">
        <ele>850.9</ele>
        <time>2022-09-11T08:59:42Z</time>
      </trkpt>
      <trkpt lat="44.55805" lon="6.19508">
        <ele>851.1</ele>
        <time>2022-09-11T08:59:43Z</time>
      </trkpt>
      <trkpt lat="44.55801" lon="6.19509">
        <ele>851.3</ele>
        <time>2022-09-11T08:59:44Z</time>
      </trkpt>
      <trkpt lat="44.55797" lon="6.19512">
        <ele>851.6</ele>
        <time>2022-09-11T08:59:45Z</time>
      </trkpt>
      <trkpt lat="44.55795" lon="6.19513">
        <ele>851.7</ele>
        <time>2022-09-11T08:59:46Z</time>
      </trkpt>
      <trkpt lat="44.55791" lon="6.19514">
        <ele>852</ele>
        <time>2022-09-11T08:59:47Z</time>
      </trkpt>
      <trkpt lat="44.55788" lon="6.19514">
        <ele>852.2</ele>
        <time>2022-09-11T08:59:48Z</time>
      </trkpt>
      <trkpt lat="44.55784" lon="6.19515">
        <ele>852.4</ele>
        <time>2022-09-11T08:59:49Z</time>
      </trkpt>
      <trkpt lat="44.5578" lon="6.19516">
        <ele>852.6</ele>
        <time>2022-09-11T08:59:50Z</time>
      </trkpt>
      <trkpt lat="44.55777" lon="6.19518">
        <ele>852.8</ele>
        <time>2022-09-11T08:59:51Z</time>
      </trkpt>
      <trkpt lat="44.55775" lon="6.19518">
        <ele>852.9</ele>
        <time>2022-09-11T08:59:52Z</time>
      </trkpt>
      <trkpt lat="44.55771" lon="6.19517">
        <ele>853.2</ele>
        <time>2022-09-11T08:59:53Z</time>
      </trkpt>
      <trkpt lat="44.55766" lon="6.19517">
        <ele>853.5</ele>
        <time>2022-09-11T08:59:54Z</time>
      </trkpt>
      <trkpt lat="44.55763" lon="6.19517">
        <ele>853.6</ele>
        <time>2022-09-11T08:59:55Z</time>
      </trkpt>
      <trkpt lat="44.55759" lon="6.19518">
        <ele>853.8</ele>
        <time>2022-09-11T08:59:56Z</time>
      </trkpt>
      <trkpt lat="44.55756" lon="6.19518">
        <ele>854</ele>
        <time>2022-09-11T08:59:57Z</time>
      </trkpt>
      <trkpt lat="44.55748" lon="6.19519">
        <ele>854.3</ele>
        <time>2022-09-11T08:59:59Z</time>
      </trkpt>
      <trkpt lat="44.5574" lon="6.19519">
        <ele>854.5</ele>
        <time>2022-09-11T09:00:01Z</time>
      </trkpt>
      <trkpt lat="44.55733" lon="6.19517">
        <ele>854.7</ele>
        <time>2022-09-11T09:00:03Z</time>
      </trkpt>
      <trkpt lat="44.5573" lon="6.19518">
        <ele>854.9</ele>
        <time>2022-09-11T09:00:05Z</time>
      </trkpt>
      <trkpt lat="44.55726" lon="6.19518">
        <ele>855</ele>
        <time>2022-09-11T09:00:06Z</time>
      </trkpt>
      <trkpt lat="44.55723" lon="6.19518">
        <ele>855.1</ele>
        <time>2022-09-11T09:00:07Z</time>
      </trkpt>
      <trkpt lat="44.55716" lon="6.19517">
        <ele>855.3</ele>
        <time>2022-09-11T09:00:08Z</time>
      </trkpt>
      <trkpt lat="44.55712" lon="6.19516">
        <ele>855.4</ele>
        <time>2022-09-11T09:00:10Z</time>
      </trkpt>
      <trkpt lat="44.55708" lon="6.19516">
        <ele>855.5</ele>
        <time>2022-09-11T09:00:11Z</time>
      </trkpt>
      <trkpt lat="44.55706" lon="6.19515">
        <ele>855.6</ele>
        <time>2022-09-11T09:00:12Z</time>
      </trkpt>
      <trkpt lat="44.55702" lon="6.19514">
        <ele>855.7</ele>
        <time>2022-09-11T09:00:13Z</time>
      </trkpt>
      <trkpt lat="44.55699" lon="6.19513">
        <ele>855.8</ele>
        <time>2022-09-11T09:00:14Z</time>
      </trkpt>
      <trkpt lat="44.55696" lon="6.19512">
        <ele>855.9</ele>
        <time>2022-09-11T09:00:15Z</time>
      </trkpt>
      <trkpt lat="44.55693" lon="6.19511">
        <ele>856</ele>
        <time>2022-09-11T09:00:16Z</time>
      </trkpt>
      <trkpt lat="44.55689" lon="6.19509">
        <ele>856.1</ele>
        <time>2022-09-11T09:00:17Z</time>
      </trkpt>
      <trkpt lat="44.55685" lon="6.19508">
        <ele>856.2</ele>
        <time>2022-09-11T09:00:18Z</time>
      </trkpt>
      <trkpt lat="44.55681" lon="6.19506">
        <ele>856.3</ele>
        <time>2022-09-11T09:00:19Z</time>
      </trkpt>
      <trkpt lat="44.55678" lon="6.19504">
        <ele>856.3</ele>
        <time>2022-09-11T09:00:20Z</time>
      </trkpt>
      <trkpt lat="44.55675" lon="6.19503">
        <ele>856.3</ele>
        <time>2022-09-11T09:00:21Z</time>
      </trkpt>
      <trkpt lat="44.55671" lon="6.19501">
        <ele>856.3</ele>
        <time>2022-09-11T09:00:22Z</time>
      </trkpt>
      <trkpt lat="44.55668" lon="6.195">
        <ele>856.3</ele>
        <time>2022-09-11T09:00:23Z</time>
      </trkpt>
      <trkpt lat="44.55663" lon="6.19498">
        <ele>856.3</ele>
        <time>2022-09-11T09:00:24Z</time>
      </trkpt>
      <trkpt lat="44.55659" lon="6.19496">
        <ele>856.2</ele>
        <time>2022-09-11T09:00:25Z</time>
      </trkpt>
      <trkpt lat="44.55655" lon="6.19494">
        <ele>856.1</ele>
        <time>2022-09-11T09:00:26Z</time>
      </trkpt>
      <trkpt lat="44.55649" lon="6.19491">
        <ele>855.9</ele>
        <time>2022-09-11T09:00:27Z</time>
      </trkpt>
      <trkpt lat="44.55644" lon="6.19489">
        <ele>855.7</ele>
        <time>2022-09-11T09:00:28Z</time>
      </trkpt>
      <trkpt lat="44.55639" lon="6.19486">
        <ele>855.4</ele>
        <time>2022-09-11T09:00:29Z</time>
      </trkpt>
      <trkpt lat="44.55633" lon="6.19482">
        <ele>855.1</ele>
        <time>2022-09-11T09:00:30Z</time>
      </trkpt>
      <trkpt lat="44.55628" lon="6.19477">
        <ele>854.8</ele>
        <time>2022-09-11T09:00:31Z</time>
      </trkpt>
      <trkpt lat="44.55623" lon="6.19471">
        <ele>854.4</ele>
        <time>2022-09-11T09:00:32Z</time>
      </trkpt>
      <trkpt lat="44.55618" lon="6.19465">
        <ele>854</ele>
        <time>2022-09-11T09:00:33Z</time>
      </trkpt>
      <trkpt lat="44.55613" lon="6.19457">
        <ele>853.7</ele>
        <time>2022-09-11T09:00:34Z</time>
      </trkpt>
      <trkpt lat="44.55609" lon="6.1945">
        <ele>853.4</ele>
        <time>2022-09-11T09:00:35Z</time>
      </trkpt>
      <trkpt lat="44.55604" lon="6.19442">
        <ele>853.1</ele>
        <time>2022-09-11T09:00:36Z</time>
      </trkpt>
      <trkpt lat="44.55601" lon="6.19433">
        <ele>852.9</ele>
        <time>2022-09-11T09:00:37Z</time>
      </trkpt>
      <trkpt lat="44.55596" lon="6.19425">
        <ele>852.7</ele>
        <time>2022-09-11T09:00:38Z</time>
      </trkpt>
      <trkpt lat="44.55592" lon="6.19418">
        <ele>852.6</ele>
        <time>2022-09-11T09:00:39Z</time>
      </trkpt>
      <trkpt lat="44.55584" lon="6.19414">
        <ele>852.6</ele>
        <time>2022-09-11T09:00:40Z</time>
      </trkpt>
      <trkpt lat="44.55578" lon="6.1942">
        <ele>852.5</ele>
        <time>2022-09-11T09:00:41Z</time>
      </trkpt>
      <trkpt lat="44.55574" lon="6.1943">
        <ele>852.4</ele>
        <time>2022-09-11T09:00:42Z</time>
      </trkpt>
      <trkpt lat="44.55571" lon="6.1944">
        <ele>852.2</ele>
        <time>2022-09-11T09:00:43Z</time>
      </trkpt>
      <trkpt lat="44.55568" lon="6.19448">
        <ele>852.1</ele>
        <time>2022-09-11T09:00:44Z</time>
      </trkpt>
      <trkpt lat="44.55563" lon="6.19452">
        <ele>852</ele>
        <time>2022-09-11T09:00:45Z</time>
      </trkpt>
      <trkpt lat="44.55556" lon="6.19453">
        <ele>852</ele>
        <time>2022-09-11T09:00:46Z</time>
      </trkpt>
      <trkpt lat="44.5555" lon="6.19451">
        <ele>851.9</ele>
        <time>2022-09-11T09:00:47Z</time>
      </trkpt>
      <trkpt lat="44.55544" lon="6.19447">
        <ele>851.9</ele>
        <time>2022-09-11T09:00:48Z</time>
      </trkpt>
      <trkpt lat="44.5554" lon="6.19443">
        <ele>851.9</ele>
        <time>2022-09-11T09:00:49Z</time>
      </trkpt>
      <trkpt lat="44.55535" lon="6.19441">
        <ele>851.8</ele>
        <time>2022-09-11T09:00:50Z</time>
      </trkpt>
      <trkpt lat="44.55529" lon="6.19439">
        <ele>851.8</ele>
        <time>2022-09-11T09:00:51Z</time>
      </trkpt>
      <trkpt lat="44.55523" lon="6.19438">
        <ele>851.7</ele>
        <time>2022-09-11T09:00:52Z</time>
      </trkpt>
      <trkpt lat="44.55516" lon="6.19438">
        <ele>851.6</ele>
        <time>2022-09-11T09:00:53Z</time>
      </trkpt>
      <trkpt lat="44.5551" lon="6.19439">
        <ele>851.6</ele>
        <time>2022-09-11T09:00:54Z</time>
      </trkpt>
      <trkpt lat="44.55504" lon="6.19443">
        <ele>851.5</ele>
        <time>2022-09-11T09:00:55Z</time>
      </trkpt>
      <trkpt lat="44.55498" lon="6.19447">
        <ele>851.5</ele>
        <time>2022-09-11T09:00:56Z</time>
      </trkpt>
      <trkpt lat="44.55492" lon="6.19451">
        <ele>851.5</ele>
        <time>2022-09-11T09:00:57Z</time>
      </trkpt>
      <trkpt lat="44.55486" lon="6.19453">
        <ele>851.5</ele>
        <time>2022-09-11T09:00:58Z</time>
      </trkpt>
      <trkpt lat="44.55481" lon="6.19454">
        <ele>851.7</ele>
        <time>2022-09-11T09:00:59Z</time>
      </trkpt>
      <trkpt lat="44.55475" lon="6.19454">
        <ele>851.8</ele>
        <time>2022-09-11T09:01:00Z</time>
      </trkpt>
      <trkpt lat="44.55469" lon="6.19453">
        <ele>851.9</ele>
        <time>2022-09-11T09:01:01Z</time>
      </trkpt>
      <trkpt lat="44.55463" lon="6.19451">
        <ele>852</ele>
        <time>2022-09-11T09:01:02Z</time>
      </trkpt>
      <trkpt lat="44.55458" lon="6.19448">
        <ele>852.1</ele>
        <time>2022-09-11T09:01:03Z</time>
      </trkpt>
      <trkpt lat="44.55452" lon="6.19445">
        <ele>852.2</ele>
        <time>2022-09-11T09:01:04Z</time>
      </trkpt>
      <trkpt lat="44.55447" lon="6.19443">
        <ele>852.3</ele>
        <time>2022-09-11T09:01:05Z</time>
      </trkpt>
      <trkpt lat="44.55442" lon="6.19441">
        <ele>852.4</ele>
        <time>2022-09-11T09:01:06Z</time>
      </trkpt>
      <trkpt lat="44.55437" lon="6.19438">
        <ele>852.5</ele>
        <time>2022-09-11T09:01:07Z</time>
      </trkpt>
      <trkpt lat="44.55433" lon="6.19435">
        <ele>852.6</ele>
        <time>2022-09-11T09:01:08Z</time>
      </trkpt>
      <trkpt lat="44.55429" lon="6.19431">
        <ele>852.7</ele>
        <time>2022-09-11T09:01:09Z</time>
      </trkpt>
      <trkpt lat="44.55424" lon="6.19428">
        <ele>852.8</ele>
        <time>2022-09-11T09:01:10Z</time>
      </trkpt>
      <trkpt lat="44.55419" lon="6.19425">
        <ele>852.9</ele>
        <time>2022-09-11T09:01:11Z</time>
      </trkpt>
      <trkpt lat="44.55415" lon="6.19423">
        <ele>853.1</ele>
        <time>2022-09-11T09:01:12Z</time>
      </trkpt>
      <trkpt lat="44.55411" lon="6.1942">
        <ele>853.2</ele>
        <time>2022-09-11T09:01:13Z</time>
      </trkpt>
      <trkpt lat="44.55406" lon="6.19418">
        <ele>853.4</ele>
        <time>2022-09-11T09:01:14Z</time>
      </trkpt>
      <trkpt lat="44.55402" lon="6.19415">
        <ele>853.6</ele>
        <time>2022-09-11T09:01:15Z</time>
      </trkpt>
      <trkpt lat="44.55398" lon="6.19412">
        <ele>853.8</ele>
        <time>2022-09-11T09:01:16Z</time>
      </trkpt>
      <trkpt lat="44.55395" lon="6.1941">
        <ele>853.9</ele>
        <time>2022-09-11T09:01:17Z</time>
      </trkpt>
      <trkpt lat="44.55391" lon="6.19406">
        <ele>854.2</ele>
        <time>2022-09-11T09:01:18Z</time>
      </trkpt>
      <trkpt lat="44.55387" lon="6.19405">
        <ele>854.3</ele>
        <time>2022-09-11T09:01:19Z</time>
      </trkpt>
      <trkpt lat="44.55383" lon="6.19402">
        <ele>854.5</ele>
        <time>2022-09-11T09:01:20Z</time>
      </trkpt>
      <trkpt lat="44.5538" lon="6.194">
        <ele>854.7</ele>
        <time>2022-09-11T09:01:21Z</time>
      </trkpt>
      <trkpt lat="44.55377" lon="6.19398">
        <ele>854.8</ele>
        <time>2022-09-11T09:01:22Z</time>
      </trkpt>
      <trkpt lat="44.55374" lon="6.19397">
        <ele>855</ele>
        <time>2022-09-11T09:01:23Z</time>
      </trkpt>
      <trkpt lat="44.5537" lon="6.19394">
        <ele>855.2</ele>
        <time>2022-09-11T09:01:24Z</time>
      </trkpt>
      <trkpt lat="44.55366" lon="6.1939">
        <ele>855.4</ele>
        <time>2022-09-11T09:01:25Z</time>
      </trkpt>
      <trkpt lat="44.55365" lon="6.19388">
        <ele>855.5</ele>
        <time>2022-09-11T09:01:26Z</time>
      </trkpt>
      <trkpt lat="44.55361" lon="6.19385">
        <ele>855.7</ele>
        <time>2022-09-11T09:01:27Z</time>
      </trkpt>
      <trkpt lat="44.55358" lon="6.19383">
        <ele>855.8</ele>
        <time>2022-09-11T09:01:28Z</time>
      </trkpt>
      <trkpt lat="44.55354" lon="6.1938">
        <ele>856</ele>
        <time>2022-09-11T09:01:29Z</time>
      </trkpt>
      <trkpt lat="44.55352" lon="6.19379">
        <ele>856.1</ele>
        <time>2022-09-11T09:01:30Z</time>
      </trkpt>
      <trkpt lat="44.55348" lon="6.19376">
        <ele>856.3</ele>
        <time>2022-09-11T09:01:31Z</time>
      </trkpt>
      <trkpt lat="44.55345" lon="6.19373">
        <ele>856.5</ele>
        <time>2022-09-11T09:01:32Z</time>
      </trkpt>
      <trkpt lat="44.55342" lon="6.19371">
        <ele>856.7</ele>
        <time>2022-09-11T09:01:33Z</time>
      </trkpt>
      <trkpt lat="44.55339" lon="6.19368">
        <ele>856.8</ele>
        <time>2022-09-11T09:01:34Z</time>
      </trkpt>
      <trkpt lat="44.55335" lon="6.19365">
        <ele>857</ele>
        <time>2022-09-11T09:01:35Z</time>
      </trkpt>
      <trkpt lat="44.55333" lon="6.19362">
        <ele>857.2</ele>
        <time>2022-09-11T09:01:36Z</time>
      </trkpt>
      <trkpt lat="44.5533" lon="6.19359">
        <ele>857.4</ele>
        <time>2022-09-11T09:01:37Z</time>
      </trkpt>
      <trkpt lat="44.55328" lon="6.19356">
        <ele>857.5</ele>
        <time>2022-09-11T09:01:38Z</time>
      </trkpt>
      <trkpt lat="44.55324" lon="6.19352">
        <ele>857.7</ele>
        <time>2022-09-11T09:01:39Z</time>
      </trkpt>
      <trkpt lat="44.55321" lon="6.19349">
        <ele>857.9</ele>
        <time>2022-09-11T09:01:40Z</time>
      </trkpt>
      <trkpt lat="44.55319" lon="6.19345">
        <ele>858.1</ele>
        <time>2022-09-11T09:01:41Z</time>
      </trkpt>
      <trkpt lat="44.55316" lon="6.19341">
        <ele>858.3</ele>
        <time>2022-09-11T09:01:42Z</time>
      </trkpt>
      <trkpt lat="44.55314" lon="6.19338">
        <ele>858.4</ele>
        <time>2022-09-11T09:01:43Z</time>
      </trkpt>
      <trkpt lat="44.55312" lon="6.19335">
        <ele>858.5</ele>
        <time>2022-09-11T09:01:44Z</time>
      </trkpt>
      <trkpt lat="44.55309" lon="6.1933">
        <ele>858.7</ele>
        <time>2022-09-11T09:01:45Z</time>
      </trkpt>
      <trkpt lat="44.55306" lon="6.19327">
        <ele>858.9</ele>
        <time>2022-09-11T09:01:46Z</time>
      </trkpt>
      <trkpt lat="44.55304" lon="6.19323">
        <ele>859.1</ele>
        <time>2022-09-11T09:01:47Z</time>
      </trkpt>
      <trkpt lat="44.55302" lon="6.19319">
        <ele>859.2</ele>
        <time>2022-09-11T09:01:48Z</time>
      </trkpt>
      <trkpt lat="44.55299" lon="6.19316">
        <ele>859.4</ele>
        <time>2022-09-11T09:01:49Z</time>
      </trkpt>
      <trkpt lat="44.55298" lon="6.19313">
        <ele>859.5</ele>
        <time>2022-09-11T09:01:50Z</time>
      </trkpt>
      <trkpt lat="44.55295" lon="6.19308">
        <ele>859.7</ele>
        <time>2022-09-11T09:01:51Z</time>
      </trkpt>
      <trkpt lat="44.55293" lon="6.19304">
        <ele>859.8</ele>
        <time>2022-09-11T09:01:52Z</time>
      </trkpt>
      <trkpt lat="44.55291" lon="6.19301">
        <ele>860</ele>
        <time>2022-09-11T09:01:53Z</time>
      </trkpt>
      <trkpt lat="44.55289" lon="6.19297">
        <ele>860.2</ele>
        <time>2022-09-11T09:01:54Z</time>
      </trkpt>
      <trkpt lat="44.55287" lon="6.19292">
        <ele>860.4</ele>
        <time>2022-09-11T09:01:55Z</time>
      </trkpt>
      <trkpt lat="44.55285" lon="6.19287">
        <ele>860.7</ele>
        <time>2022-09-11T09:01:56Z</time>
      </trkpt>
      <trkpt lat="44.55284" lon="6.19285">
        <ele>860.8</ele>
        <time>2022-09-11T09:01:57Z</time>
      </trkpt>
      <trkpt lat="44.55282" lon="6.1928">
        <ele>861</ele>
        <time>2022-09-11T09:01:58Z</time>
      </trkpt>
      <trkpt lat="44.5528" lon="6.19276">
        <ele>861.2</ele>
        <time>2022-09-11T09:01:59Z</time>
      </trkpt>
      <trkpt lat="44.55276" lon="6.19268">
        <ele>861.6</ele>
        <time>2022-09-11T09:02:00Z</time>
      </trkpt>
      <trkpt lat="44.55273" lon="6.19264">
        <ele>861.8</ele>
        <time>2022-09-11T09:02:02Z</time>
      </trkpt>
      <trkpt lat="44.55272" lon="6.1926">
        <ele>862</ele>
        <time>2022-09-11T09:02:03Z</time>
      </trkpt>
      <trkpt lat="44.5527" lon="6.19256">
        <ele>862.2</ele>
        <time>2022-09-11T09:02:04Z</time>
      </trkpt>
      <trkpt lat="44.55265" lon="6.19248">
        <ele>862.5</ele>
        <time>2022-09-11T09:02:05Z</time>
      </trkpt>
      <trkpt lat="44.55263" lon="6.19245">
        <ele>862.7</ele>
        <time>2022-09-11T09:02:06Z</time>
      </trkpt>
      <trkpt lat="44.5526" lon="6.19241">
        <ele>862.9</ele>
        <time>2022-09-11T09:02:08Z</time>
      </trkpt>
      <trkpt lat="44.55258" lon="6.19238">
        <ele>863</ele>
        <time>2022-09-11T09:02:09Z</time>
      </trkpt>
      <trkpt lat="44.55255" lon="6.19235">
        <ele>863.2</ele>
        <time>2022-09-11T09:02:10Z</time>
      </trkpt>
      <trkpt lat="44.55253" lon="6.19233">
        <ele>863.3</ele>
        <time>2022-09-11T09:02:11Z</time>
      </trkpt>
      <trkpt lat="44.55247" lon="6.19227">
        <ele>863.6</ele>
        <time>2022-09-11T09:02:12Z</time>
      </trkpt>
      <trkpt lat="44.55244" lon="6.19223">
        <ele>863.8</ele>
        <time>2022-09-11T09:02:14Z</time>
      </trkpt>
      <trkpt lat="44.55241" lon="6.1922">
        <ele>864</ele>
        <time>2022-09-11T09:02:15Z</time>
      </trkpt>
      <trkpt lat="44.55238" lon="6.19214">
        <ele>864.2</ele>
        <time>2022-09-11T09:02:16Z</time>
      </trkpt>
      <trkpt lat="44.55235" lon="6.19207">
        <ele>864.5</ele>
        <time>2022-09-11T09:02:18Z</time>
      </trkpt>
      <trkpt lat="44.55233" lon="6.19202">
        <ele>864.7</ele>
        <time>2022-09-11T09:02:19Z</time>
      </trkpt>
      <trkpt lat="44.55231" lon="6.19195">
        <ele>865.1</ele>
        <time>2022-09-11T09:02:20Z</time>
      </trkpt>
      <trkpt lat="44.5523" lon="6.19189">
        <ele>865.3</ele>
        <time>2022-09-11T09:02:21Z</time>
      </trkpt>
      <trkpt lat="44.5523" lon="6.19184">
        <ele>865.5</ele>
        <time>2022-09-11T09:02:22Z</time>
      </trkpt>
      <trkpt lat="44.55231" lon="6.19177">
        <ele>865.8</ele>
        <time>2022-09-11T09:02:23Z</time>
      </trkpt>
      <trkpt lat="44.55232" lon="6.19173">
        <ele>866.1</ele>
        <time>2022-09-11T09:02:24Z</time>
      </trkpt>
      <trkpt lat="44.55235" lon="6.19167">
        <ele>866.6</ele>
        <time>2022-09-11T09:02:26Z</time>
      </trkpt>
      <trkpt lat="44.55236" lon="6.19164">
        <ele>866.8</ele>
        <time>2022-09-11T09:02:27Z</time>
      </trkpt>
      <trkpt lat="44.55237" lon="6.19161">
        <ele>866.9</ele>
        <time>2022-09-11T09:02:28Z</time>
      </trkpt>
      <trkpt lat="44.55238" lon="6.19157">
        <ele>867.2</ele>
        <time>2022-09-11T09:02:30Z</time>
      </trkpt>
      <trkpt lat="44.55238" lon="6.19151">
        <ele>867.6</ele>
        <time>2022-09-11T09:02:31Z</time>
      </trkpt>
      <trkpt lat="44.55238" lon="6.1915">
        <ele>867.6</ele>
        <time>2022-09-11T09:02:32Z</time>
      </trkpt>
      <trkpt lat="44.55238" lon="6.19146">
        <ele>867.8</ele>
        <time>2022-09-11T09:02:34Z</time>
      </trkpt>
      <trkpt lat="44.55237" lon="6.19144">
        <ele>867.9</ele>
        <time>2022-09-11T09:02:35Z</time>
      </trkpt>
      <trkpt lat="44.55236" lon="6.19142">
        <ele>868.1</ele>
        <time>2022-09-11T09:02:36Z</time>
      </trkpt>
      <trkpt lat="44.55233" lon="6.19139">
        <ele>868.3</ele>
        <time>2022-09-11T09:02:37Z</time>
      </trkpt>
      <trkpt lat="44.55232" lon="6.19138">
        <ele>868.4</ele>
        <time>2022-09-11T09:02:38Z</time>
      </trkpt>
      <trkpt lat="44.55228" lon="6.19136">
        <ele>868.6</ele>
        <time>2022-09-11T09:02:39Z</time>
      </trkpt>
      <trkpt lat="44.55227" lon="6.19136">
        <ele>868.7</ele>
        <time>2022-09-11T09:02:40Z</time>
      </trkpt>
      <trkpt lat="44.55224" lon="6.19135">
        <ele>868.9</ele>
        <time>2022-09-11T09:02:41Z</time>
      </trkpt>
      <trkpt lat="44.55223" lon="6.19136">
        <ele>868.9</ele>
        <time>2022-09-11T09:02:42Z</time>
      </trkpt>
      <trkpt lat="44.5522" lon="6.19137">
        <ele>869.1</ele>
        <time>2022-09-11T09:02:43Z</time>
      </trkpt>
      <trkpt lat="44.55218" lon="6.1914">
        <ele>869.3</ele>
        <time>2022-09-11T09:02:44Z</time>
      </trkpt>
      <trkpt lat="44.55217" lon="6.19141">
        <ele>869.4</ele>
        <time>2022-09-11T09:02:45Z</time>
      </trkpt>
      <trkpt lat="44.55214" lon="6.19144">
        <ele>869.6</ele>
        <time>2022-09-11T09:02:46Z</time>
      </trkpt>
      <trkpt lat="44.55213" lon="6.19146">
        <ele>869.6</ele>
        <time>2022-09-11T09:02:47Z</time>
      </trkpt>
      <trkpt lat="44.55211" lon="6.19149">
        <ele>869.8</ele>
        <time>2022-09-11T09:02:48Z</time>
      </trkpt>
      <trkpt lat="44.5521" lon="6.1915">
        <ele>869.9</ele>
        <time>2022-09-11T09:02:49Z</time>
      </trkpt>
      <trkpt lat="44.55207" lon="6.19154">
        <ele>870.1</ele>
        <time>2022-09-11T09:02:50Z</time>
      </trkpt>
      <trkpt lat="44.55206" lon="6.19156">
        <ele>870.2</ele>
        <time>2022-09-11T09:02:51Z</time>
      </trkpt>
      <trkpt lat="44.55203" lon="6.19159">
        <ele>870.5</ele>
        <time>2022-09-11T09:02:52Z</time>
      </trkpt>
      <trkpt lat="44.55201" lon="6.1916">
        <ele>870.6</ele>
        <time>2022-09-11T09:02:53Z</time>
      </trkpt>
      <trkpt lat="44.55197" lon="6.19161">
        <ele>870.8</ele>
        <time>2022-09-11T09:02:54Z</time>
      </trkpt>
      <trkpt lat="44.55196" lon="6.19161">
        <ele>870.9</ele>
        <time>2022-09-11T09:02:55Z</time>
      </trkpt>
      <trkpt lat="44.55193" lon="6.19161">
        <ele>871.1</ele>
        <time>2022-09-11T09:02:56Z</time>
      </trkpt>
      <trkpt lat="44.55189" lon="6.1916">
        <ele>871.3</ele>
        <time>2022-09-11T09:02:57Z</time>
      </trkpt>
      <trkpt lat="44.55187" lon="6.19159">
        <ele>871.4</ele>
        <time>2022-09-11T09:02:58Z</time>
      </trkpt>
      <trkpt lat="44.55184" lon="6.19158">
        <ele>871.6</ele>
        <time>2022-09-11T09:02:59Z</time>
      </trkpt>
      <trkpt lat="44.55183" lon="6.19157">
        <ele>871.7</ele>
        <time>2022-09-11T09:03:00Z</time>
      </trkpt>
      <trkpt lat="44.55179" lon="6.19155">
        <ele>871.9</ele>
        <time>2022-09-11T09:03:01Z</time>
      </trkpt>
      <trkpt lat="44.55179" lon="6.19155">
        <ele>872</ele>
        <time>2022-09-11T09:03:02Z</time>
      </trkpt>
      <trkpt lat="44.55176" lon="6.19152">
        <ele>872.2</ele>
        <time>2022-09-11T09:03:03Z</time>
      </trkpt>
      <trkpt lat="44.55175" lon="6.19152">
        <ele>872.2</ele>
        <time>2022-09-11T09:03:04Z</time>
      </trkpt>
      <trkpt lat="44.55172" lon="6.19149">
        <ele>872.4</ele>
        <time>2022-09-11T09:03:05Z</time>
      </trkpt>
      <trkpt lat="44.55171" lon="6.19148">
        <ele>872.5</ele>
        <time>2022-09-11T09:03:06Z</time>
      </trkpt>
      <trkpt lat="44.55169" lon="6.19144">
        <ele>872.7</ele>
        <time>2022-09-11T09:03:07Z</time>
      </trkpt>
      <trkpt lat="44.55168" lon="6.19143">
        <ele>872.8</ele>
        <time>2022-09-11T09:03:08Z</time>
      </trkpt>
      <trkpt lat="44.55166" lon="6.19141">
        <ele>873</ele>
        <time>2022-09-11T09:03:09Z</time>
      </trkpt>
      <trkpt lat="44.55165" lon="6.1914">
        <ele>873</ele>
        <time>2022-09-11T09:03:10Z</time>
      </trkpt>
      <trkpt lat="44.55162" lon="6.19137">
        <ele>873.2</ele>
        <time>2022-09-11T09:03:11Z</time>
      </trkpt>
      <trkpt lat="44.55162" lon="6.19136">
        <ele>873.3</ele>
        <time>2022-09-11T09:03:12Z</time>
      </trkpt>
      <trkpt lat="44.55159" lon="6.19133">
        <ele>873.5</ele>
        <time>2022-09-11T09:03:13Z</time>
      </trkpt>
      <trkpt lat="44.55158" lon="6.19132">
        <ele>873.6</ele>
        <time>2022-09-11T09:03:14Z</time>
      </trkpt>
      <trkpt lat="44.55155" lon="6.19129">
        <ele>873.8</ele>
        <time>2022-09-11T09:03:15Z</time>
      </trkpt>
      <trkpt lat="44.55154" lon="6.19128">
        <ele>873.9</ele>
        <time>2022-09-11T09:03:16Z</time>
      </trkpt>
      <trkpt lat="44.55152" lon="6.19126">
        <ele>874.1</ele>
        <time>2022-09-11T09:03:17Z</time>
      </trkpt>
      <trkpt lat="44.55151" lon="6.19125">
        <ele>874.1</ele>
        <time>2022-09-11T09:03:18Z</time>
      </trkpt>
      <trkpt lat="44.55149" lon="6.19122">
        <ele>874.4</ele>
        <time>2022-09-11T09:03:19Z</time>
      </trkpt>
      <trkpt lat="44.55148" lon="6.19121">
        <ele>874.4</ele>
        <time>2022-09-11T09:03:20Z</time>
      </trkpt>
      <trkpt lat="44.55146" lon="6.19118">
        <ele>874.7</ele>
        <time>2022-09-11T09:03:21Z</time>
      </trkpt>
      <trkpt lat="44.55143" lon="6.19116">
        <ele>874.9</ele>
        <time>2022-09-11T09:03:22Z</time>
      </trkpt>
      <trkpt lat="44.55142" lon="6.19115">
        <ele>875</ele>
        <time>2022-09-11T09:03:23Z</time>
      </trkpt>
      <trkpt lat="44.5514" lon="6.19112">
        <ele>875.2</ele>
        <time>2022-09-11T09:03:24Z</time>
      </trkpt>
      <trkpt lat="44.55137" lon="6.1911">
        <ele>875.5</ele>
        <time>2022-09-11T09:03:25Z</time>
      </trkpt>
      <trkpt lat="44.55137" lon="6.19109">
        <ele>875.5</ele>
        <time>2022-09-11T09:03:26Z</time>
      </trkpt>
      <trkpt lat="44.55135" lon="6.19106">
        <ele>875.8</ele>
        <time>2022-09-11T09:03:27Z</time>
      </trkpt>
      <trkpt lat="44.55132" lon="6.19103">
        <ele>876</ele>
        <time>2022-09-11T09:03:28Z</time>
      </trkpt>
      <trkpt lat="44.55131" lon="6.19102">
        <ele>876.2</ele>
        <time>2022-09-11T09:03:29Z</time>
      </trkpt>
      <trkpt lat="44.55129" lon="6.19099">
        <ele>876.4</ele>
        <time>2022-09-11T09:03:30Z</time>
      </trkpt>
      <trkpt lat="44.55127" lon="6.19098">
        <ele>876.5</ele>
        <time>2022-09-11T09:03:31Z</time>
      </trkpt>
      <trkpt lat="44.55125" lon="6.19095">
        <ele>876.8</ele>
        <time>2022-09-11T09:03:32Z</time>
      </trkpt>
      <trkpt lat="44.55124" lon="6.19094">
        <ele>876.8</ele>
        <time>2022-09-11T09:03:33Z</time>
      </trkpt>
      <trkpt lat="44.55122" lon="6.1909">
        <ele>877.1</ele>
        <time>2022-09-11T09:03:34Z</time>
      </trkpt>
      <trkpt lat="44.55121" lon="6.19089">
        <ele>877.3</ele>
        <time>2022-09-11T09:03:35Z</time>
      </trkpt>
      <trkpt lat="44.55119" lon="6.19085">
        <ele>877.5</ele>
        <time>2022-09-11T09:03:36Z</time>
      </trkpt>
      <trkpt lat="44.55118" lon="6.19084">
        <ele>877.6</ele>
        <time>2022-09-11T09:03:37Z</time>
      </trkpt>
      <trkpt lat="44.55116" lon="6.19079">
        <ele>877.9</ele>
        <time>2022-09-11T09:03:38Z</time>
      </trkpt>
      <trkpt lat="44.55115" lon="6.19078">
        <ele>878</ele>
        <time>2022-09-11T09:03:39Z</time>
      </trkpt>
      <trkpt lat="44.55114" lon="6.19074">
        <ele>878.3</ele>
        <time>2022-09-11T09:03:40Z</time>
      </trkpt>
      <trkpt lat="44.55113" lon="6.19072">
        <ele>878.4</ele>
        <time>2022-09-11T09:03:41Z</time>
      </trkpt>
      <trkpt lat="44.55113" lon="6.1907">
        <ele>878.5</ele>
        <time>2022-09-11T09:03:42Z</time>
      </trkpt>
      <trkpt lat="44.55112" lon="6.19068">
        <ele>878.7</ele>
        <time>2022-09-11T09:03:43Z</time>
      </trkpt>
      <trkpt lat="44.55111" lon="6.19064">
        <ele>878.9</ele>
        <time>2022-09-11T09:03:44Z</time>
      </trkpt>
      <trkpt lat="44.5511" lon="6.19059">
        <ele>879.2</ele>
        <time>2022-09-11T09:03:45Z</time>
      </trkpt>
      <trkpt lat="44.5511" lon="6.19058">
        <ele>879.3</ele>
        <time>2022-09-11T09:03:46Z</time>
      </trkpt>
      <trkpt lat="44.55109" lon="6.19053">
        <ele>879.6</ele>
        <time>2022-09-11T09:03:47Z</time>
      </trkpt>
      <trkpt lat="44.55109" lon="6.19052">
        <ele>879.7</ele>
        <time>2022-09-11T09:03:48Z</time>
      </trkpt>
      <trkpt lat="44.55108" lon="6.19047">
        <ele>879.9</ele>
        <time>2022-09-11T09:03:49Z</time>
      </trkpt>
      <trkpt lat="44.55109" lon="6.19046">
        <ele>880</ele>
        <time>2022-09-11T09:03:50Z</time>
      </trkpt>
      <trkpt lat="44.55109" lon="6.1904">
        <ele>880.3</ele>
        <time>2022-09-11T09:03:51Z</time>
      </trkpt>
      <trkpt lat="44.55109" lon="6.19038">
        <ele>880.5</ele>
        <time>2022-09-11T09:03:52Z</time>
      </trkpt>
      <trkpt lat="44.5511" lon="6.19034">
        <ele>880.7</ele>
        <time>2022-09-11T09:03:54Z</time>
      </trkpt>
      <trkpt lat="44.55111" lon="6.19029">
        <ele>881.1</ele>
        <time>2022-09-11T09:03:55Z</time>
      </trkpt>
      <trkpt lat="44.55112" lon="6.19023">
        <ele>881.5</ele>
        <time>2022-09-11T09:03:57Z</time>
      </trkpt>
      <trkpt lat="44.55113" lon="6.1902">
        <ele>881.7</ele>
        <time>2022-09-11T09:03:58Z</time>
      </trkpt>
      <trkpt lat="44.55114" lon="6.19014">
        <ele>882.1</ele>
        <time>2022-09-11T09:04:00Z</time>
      </trkpt>
      <trkpt lat="44.55115" lon="6.19011">
        <ele>882.3</ele>
        <time>2022-09-11T09:04:02Z</time>
      </trkpt>
      <trkpt lat="44.55115" lon="6.19007">
        <ele>882.5</ele>
        <time>2022-09-11T09:04:03Z</time>
      </trkpt>
      <trkpt lat="44.55115" lon="6.19005">
        <ele>882.6</ele>
        <time>2022-09-11T09:04:04Z</time>
      </trkpt>
      <trkpt lat="44.55116" lon="6.19">
        <ele>882.9</ele>
        <time>2022-09-11T09:04:05Z</time>
      </trkpt>
      <trkpt lat="44.55116" lon="6.18999">
        <ele>883</ele>
        <time>2022-09-11T09:04:06Z</time>
      </trkpt>
      <trkpt lat="44.55116" lon="6.18994">
        <ele>883.3</ele>
        <time>2022-09-11T09:04:07Z</time>
      </trkpt>
      <trkpt lat="44.55115" lon="6.18989">
        <ele>883.6</ele>
        <time>2022-09-11T09:04:09Z</time>
      </trkpt>
      <trkpt lat="44.55114" lon="6.18987">
        <ele>883.7</ele>
        <time>2022-09-11T09:04:10Z</time>
      </trkpt>
      <trkpt lat="44.55112" lon="6.18982">
        <ele>883.7</ele>
        <time>2022-09-11T09:04:11Z</time>
      </trkpt>
      <trkpt lat="44.55111" lon="6.18979">
        <ele>883.7</ele>
        <time>2022-09-11T09:04:12Z</time>
      </trkpt>
      <trkpt lat="44.55109" lon="6.18976">
        <ele>883.7</ele>
        <time>2022-09-11T09:04:14Z</time>
      </trkpt>
      <trkpt lat="44.55105" lon="6.18974">
        <ele>883.7</ele>
        <time>2022-09-11T09:04:15Z</time>
      </trkpt>
      <trkpt lat="44.55103" lon="6.18973">
        <ele>883.7</ele>
        <time>2022-09-11T09:04:16Z</time>
      </trkpt>
      <trkpt lat="44.55099" lon="6.18972">
        <ele>883.8</ele>
        <time>2022-09-11T09:04:18Z</time>
      </trkpt>
      <trkpt lat="44.55096" lon="6.18972">
        <ele>883.9</ele>
        <time>2022-09-11T09:04:19Z</time>
      </trkpt>
      <trkpt lat="44.55095" lon="6.18972">
        <ele>883.9</ele>
        <time>2022-09-11T09:04:20Z</time>
      </trkpt>
      <trkpt lat="44.55091" lon="6.18974">
        <ele>884</ele>
        <time>2022-09-11T09:04:21Z</time>
      </trkpt>
      <trkpt lat="44.5509" lon="6.18974">
        <ele>884</ele>
        <time>2022-09-11T09:04:22Z</time>
      </trkpt>
      <trkpt lat="44.55088" lon="6.18976">
        <ele>884.1</ele>
        <time>2022-09-11T09:04:23Z</time>
      </trkpt>
      <trkpt lat="44.55085" lon="6.1898">
        <ele>884.1</ele>
        <time>2022-09-11T09:04:24Z</time>
      </trkpt>
      <trkpt lat="44.5508" lon="6.18984">
        <ele>884.2</ele>
        <time>2022-09-11T09:04:26Z</time>
      </trkpt>
      <trkpt lat="44.55076" lon="6.18986">
        <ele>884.3</ele>
        <time>2022-09-11T09:04:28Z</time>
      </trkpt>
      <trkpt lat="44.55073" lon="6.18987">
        <ele>884.4</ele>
        <time>2022-09-11T09:04:29Z</time>
      </trkpt>
      <trkpt lat="44.55069" lon="6.18988">
        <ele>884.4</ele>
        <time>2022-09-11T09:04:30Z</time>
      </trkpt>
      <trkpt lat="44.55066" lon="6.18988">
        <ele>884.5</ele>
        <time>2022-09-11T09:04:31Z</time>
      </trkpt>
      <trkpt lat="44.55062" lon="6.18987">
        <ele>884.6</ele>
        <time>2022-09-11T09:04:33Z</time>
      </trkpt>
      <trkpt lat="44.55057" lon="6.18985">
        <ele>884.7</ele>
        <time>2022-09-11T09:04:34Z</time>
      </trkpt>
      <trkpt lat="44.55053" lon="6.18981">
        <ele>884.7</ele>
        <time>2022-09-11T09:04:35Z</time>
      </trkpt>
      <trkpt lat="44.55048" lon="6.18977">
        <ele>884.8</ele>
        <time>2022-09-11T09:04:37Z</time>
      </trkpt>
      <trkpt lat="44.55043" lon="6.18971">
        <ele>885</ele>
        <time>2022-09-11T09:04:38Z</time>
      </trkpt>
      <trkpt lat="44.55039" lon="6.18966">
        <ele>885.1</ele>
        <time>2022-09-11T09:04:40Z</time>
      </trkpt>
      <trkpt lat="44.55036" lon="6.18963">
        <ele>885.2</ele>
        <time>2022-09-11T09:04:41Z</time>
      </trkpt>
      <trkpt lat="44.5503" lon="6.18957">
        <ele>885.5</ele>
        <time>2022-09-11T09:04:42Z</time>
      </trkpt>
      <trkpt lat="44.55025" lon="6.1895">
        <ele>885.7</ele>
        <time>2022-09-11T09:04:44Z</time>
      </trkpt>
      <trkpt lat="44.5502" lon="6.18943">
        <ele>886.1</ele>
        <time>2022-09-11T09:04:46Z</time>
      </trkpt>
      <trkpt lat="44.55016" lon="6.18937">
        <ele>886.3</ele>
        <time>2022-09-11T09:04:48Z</time>
      </trkpt>
      <trkpt lat="44.55014" lon="6.18933">
        <ele>886.5</ele>
        <time>2022-09-11T09:04:50Z</time>
      </trkpt>
      <trkpt lat="44.55012" lon="6.1893">
        <ele>886.7</ele>
        <time>2022-09-11T09:04:51Z</time>
      </trkpt>
      <trkpt lat="44.5501" lon="6.18927">
        <ele>886.9</ele>
        <time>2022-09-11T09:04:52Z</time>
      </trkpt>
      <trkpt lat="44.55008" lon="6.18923">
        <ele>887.1</ele>
        <time>2022-09-11T09:04:53Z</time>
      </trkpt>
      <trkpt lat="44.55007" lon="6.18919">
        <ele>887.2</ele>
        <time>2022-09-11T09:04:54Z</time>
      </trkpt>
      <trkpt lat="44.55006" lon="6.18915">
        <ele>887.4</ele>
        <time>2022-09-11T09:04:55Z</time>
      </trkpt>
      <trkpt lat="44.55006" lon="6.18911">
        <ele>887.6</ele>
        <time>2022-09-11T09:04:56Z</time>
      </trkpt>
      <trkpt lat="44.55005" lon="6.18906">
        <ele>887.8</ele>
        <time>2022-09-11T09:04:57Z</time>
      </trkpt>
      <trkpt lat="44.55005" lon="6.18901">
        <ele>888</ele>
        <time>2022-09-11T09:04:58Z</time>
      </trkpt>
      <trkpt lat="44.55005" lon="6.18897">
        <ele>888.2</ele>
        <time>2022-09-11T09:04:59Z</time>
      </trkpt>
      <trkpt lat="44.55006" lon="6.18892">
        <ele>888.4</ele>
        <time>2022-09-11T09:05:00Z</time>
      </trkpt>
      <trkpt lat="44.55006" lon="6.18888">
        <ele>888.7</ele>
        <time>2022-09-11T09:05:01Z</time>
      </trkpt>
      <trkpt lat="44.55006" lon="6.18884">
        <ele>888.9</ele>
        <time>2022-09-11T09:05:02Z</time>
      </trkpt>
      <trkpt lat="44.55007" lon="6.18878">
        <ele>889.1</ele>
        <time>2022-09-11T09:05:03Z</time>
      </trkpt>
      <trkpt lat="44.55008" lon="6.18876">
        <ele>889.3</ele>
        <time>2022-09-11T09:05:04Z</time>
      </trkpt>
      <trkpt lat="44.55008" lon="6.18872">
        <ele>889.5</ele>
        <time>2022-09-11T09:05:05Z</time>
      </trkpt>
      <trkpt lat="44.5501" lon="6.18867">
        <ele>889.8</ele>
        <time>2022-09-11T09:05:06Z</time>
      </trkpt>
      <trkpt lat="44.5501" lon="6.18866">
        <ele>889.9</ele>
        <time>2022-09-11T09:05:07Z</time>
      </trkpt>
      <trkpt lat="44.55011" lon="6.18861">
        <ele>890.2</ele>
        <time>2022-09-11T09:05:08Z</time>
      </trkpt>
      <trkpt lat="44.55012" lon="6.18858">
        <ele>890.4</ele>
        <time>2022-09-11T09:05:09Z</time>
      </trkpt>
      <trkpt lat="44.55012" lon="6.18854">
        <ele>890.6</ele>
        <time>2022-09-11T09:05:11Z</time>
      </trkpt>
      <trkpt lat="44.55012" lon="6.18848">
        <ele>890.9</ele>
        <time>2022-09-11T09:05:13Z</time>
      </trkpt>
      <trkpt lat="44.55011" lon="6.18841">
        <ele>891.3</ele>
        <time>2022-09-11T09:05:14Z</time>
      </trkpt>
      <trkpt lat="44.5501" lon="6.18837">
        <ele>891.6</ele>
        <time>2022-09-11T09:05:15Z</time>
      </trkpt>
      <trkpt lat="44.55009" lon="6.18833">
        <ele>891.8</ele>
        <time>2022-09-11T09:05:17Z</time>
      </trkpt>
      <trkpt lat="44.55008" lon="6.18831">
        <ele>891.9</ele>
        <time>2022-09-11T09:05:18Z</time>
      </trkpt>
      <trkpt lat="44.55005" lon="6.18828">
        <ele>892.2</ele>
        <time>2022-09-11T09:05:19Z</time>
      </trkpt>
      <trkpt lat="44.55003" lon="6.18828">
        <ele>892.3</ele>
        <time>2022-09-11T09:05:20Z</time>
      </trkpt>
      <trkpt lat="44.54999" lon="6.18826">
        <ele>892.5</ele>
        <time>2022-09-11T09:05:21Z</time>
      </trkpt>
      <trkpt lat="44.54995" lon="6.18826">
        <ele>892.7</ele>
        <time>2022-09-11T09:05:22Z</time>
      </trkpt>
      <trkpt lat="44.54989" lon="6.18829">
        <ele>893</ele>
        <time>2022-09-11T09:05:24Z</time>
      </trkpt>
      <trkpt lat="44.54987" lon="6.1883">
        <ele>893.1</ele>
        <time>2022-09-11T09:05:26Z</time>
      </trkpt>
      <trkpt lat="44.54983" lon="6.18833">
        <ele>893.3</ele>
        <time>2022-09-11T09:05:27Z</time>
      </trkpt>
      <trkpt lat="44.54982" lon="6.18834">
        <ele>893.3</ele>
        <time>2022-09-11T09:05:28Z</time>
      </trkpt>
      <trkpt lat="44.54978" lon="6.18835">
        <ele>893.5</ele>
        <time>2022-09-11T09:05:29Z</time>
      </trkpt>
      <trkpt lat="44.54977" lon="6.18836">
        <ele>893.5</ele>
        <time>2022-09-11T09:05:30Z</time>
      </trkpt>
      <trkpt lat="44.54975" lon="6.18837">
        <ele>893.6</ele>
        <time>2022-09-11T09:05:31Z</time>
      </trkpt>
      <trkpt lat="44.5497" lon="6.1884">
        <ele>893.8</ele>
        <time>2022-09-11T09:05:33Z</time>
      </trkpt>
      <trkpt lat="44.54966" lon="6.1884">
        <ele>894</ele>
        <time>2022-09-11T09:05:34Z</time>
      </trkpt>
      <trkpt lat="44.54964" lon="6.1884">
        <ele>894</ele>
        <time>2022-09-11T09:05:35Z</time>
      </trkpt>
      <trkpt lat="44.5496" lon="6.18839">
        <ele>894.1</ele>
        <time>2022-09-11T09:05:36Z</time>
      </trkpt>
      <trkpt lat="44.54959" lon="6.18839">
        <ele>894.2</ele>
        <time>2022-09-11T09:05:37Z</time>
      </trkpt>
      <trkpt lat="44.54956" lon="6.18838">
        <ele>894.3</ele>
        <time>2022-09-11T09:05:38Z</time>
      </trkpt>
      <trkpt lat="44.54953" lon="6.18836">
        <ele>894.4</ele>
        <time>2022-09-11T09:05:39Z</time>
      </trkpt>
      <trkpt lat="44.54951" lon="6.18835">
        <ele>894.5</ele>
        <time>2022-09-11T09:05:40Z</time>
      </trkpt>
      <trkpt lat="44.54949" lon="6.18834">
        <ele>894.6</ele>
        <time>2022-09-11T09:05:41Z</time>
      </trkpt>
      <trkpt lat="44.54946" lon="6.18832">
        <ele>894.7</ele>
        <time>2022-09-11T09:05:42Z</time>
      </trkpt>
      <trkpt lat="44.54944" lon="6.18831">
        <ele>894.8</ele>
        <time>2022-09-11T09:05:43Z</time>
      </trkpt>
      <trkpt lat="44.54941" lon="6.18829">
        <ele>894.9</ele>
        <time>2022-09-11T09:05:44Z</time>
      </trkpt>
      <trkpt lat="44.54938" lon="6.18828">
        <ele>895</ele>
        <time>2022-09-11T09:05:45Z</time>
      </trkpt>
      <trkpt lat="44.54935" lon="6.18826">
        <ele>895.1</ele>
        <time>2022-09-11T09:05:46Z</time>
      </trkpt>
      <trkpt lat="44.54933" lon="6.18825">
        <ele>895.2</ele>
        <time>2022-09-11T09:05:47Z</time>
      </trkpt>
      <trkpt lat="44.54929" lon="6.18823">
        <ele>895.4</ele>
        <time>2022-09-11T09:05:48Z</time>
      </trkpt>
      <trkpt lat="44.54928" lon="6.18823">
        <ele>895.4</ele>
        <time>2022-09-11T09:05:49Z</time>
      </trkpt>
      <trkpt lat="44.54924" lon="6.18821">
        <ele>895.6</ele>
        <time>2022-09-11T09:05:50Z</time>
      </trkpt>
      <trkpt lat="44.54922" lon="6.1882">
        <ele>895.6</ele>
        <time>2022-09-11T09:05:51Z</time>
      </trkpt>
      <trkpt lat="44.5492" lon="6.18818">
        <ele>895.8</ele>
        <time>2022-09-11T09:05:52Z</time>
      </trkpt>
      <trkpt lat="44.54917" lon="6.18816">
        <ele>895.9</ele>
        <time>2022-09-11T09:05:53Z</time>
      </trkpt>
      <trkpt lat="44.54915" lon="6.18815">
        <ele>896.1</ele>
        <time>2022-09-11T09:05:54Z</time>
      </trkpt>
      <trkpt lat="44.54912" lon="6.18813">
        <ele>896.2</ele>
        <time>2022-09-11T09:05:55Z</time>
      </trkpt>
      <trkpt lat="44.54909" lon="6.1881">
        <ele>896.5</ele>
        <time>2022-09-11T09:05:56Z</time>
      </trkpt>
      <trkpt lat="44.54906" lon="6.18807">
        <ele>896.7</ele>
        <time>2022-09-11T09:05:57Z</time>
      </trkpt>
      <trkpt lat="44.54903" lon="6.18804">
        <ele>896.9</ele>
        <time>2022-09-11T09:05:58Z</time>
      </trkpt>
      <trkpt lat="44.54897" lon="6.18799">
        <ele>897.3</ele>
        <time>2022-09-11T09:06:00Z</time>
      </trkpt>
      <trkpt lat="44.54894" lon="6.18795">
        <ele>897.6</ele>
        <time>2022-09-11T09:06:02Z</time>
      </trkpt>
      <trkpt lat="44.54892" lon="6.18792">
        <ele>897.8</ele>
        <time>2022-09-11T09:06:03Z</time>
      </trkpt>
      <trkpt lat="44.54891" lon="6.1879">
        <ele>897.9</ele>
        <time>2022-09-11T09:06:04Z</time>
      </trkpt>
      <trkpt lat="44.54888" lon="6.18786">
        <ele>898.1</ele>
        <time>2022-09-11T09:06:06Z</time>
      </trkpt>
      <trkpt lat="44.54886" lon="6.18782">
        <ele>898.4</ele>
        <time>2022-09-11T09:06:07Z</time>
      </trkpt>
      <trkpt lat="44.54884" lon="6.18778">
        <ele>898.6</ele>
        <time>2022-09-11T09:06:08Z</time>
      </trkpt>
      <trkpt lat="44.54882" lon="6.18775">
        <ele>898.8</ele>
        <time>2022-09-11T09:06:10Z</time>
      </trkpt>
      <trkpt lat="44.5488" lon="6.1877">
        <ele>899</ele>
        <time>2022-09-11T09:06:11Z</time>
      </trkpt>
      <trkpt lat="44.54879" lon="6.18767">
        <ele>899.2</ele>
        <time>2022-09-11T09:06:12Z</time>
      </trkpt>
      <trkpt lat="44.54877" lon="6.18763">
        <ele>899.4</ele>
        <time>2022-09-11T09:06:14Z</time>
      </trkpt>
      <trkpt lat="44.54876" lon="6.18759">
        <ele>899.6</ele>
        <time>2022-09-11T09:06:15Z</time>
      </trkpt>
      <trkpt lat="44.54875" lon="6.18758">
        <ele>899.7</ele>
        <time>2022-09-11T09:06:16Z</time>
      </trkpt>
      <trkpt lat="44.54873" lon="6.18753">
        <ele>899.9</ele>
        <time>2022-09-11T09:06:17Z</time>
      </trkpt>
      <trkpt lat="44.54872" lon="6.18752">
        <ele>900</ele>
        <time>2022-09-11T09:06:18Z</time>
      </trkpt>
      <trkpt lat="44.5487" lon="6.18747">
        <ele>900.3</ele>
        <time>2022-09-11T09:06:19Z</time>
      </trkpt>
      <trkpt lat="44.54869" lon="6.18746">
        <ele>900.3</ele>
        <time>2022-09-11T09:06:20Z</time>
      </trkpt>
      <trkpt lat="44.54868" lon="6.18741">
        <ele>900.5</ele>
        <time>2022-09-11T09:06:21Z</time>
      </trkpt>
      <trkpt lat="44.54868" lon="6.18741">
        <ele>900.6</ele>
        <time>2022-09-11T09:06:22Z</time>
      </trkpt>
      <trkpt lat="44.54868" lon="6.1874">
        <ele>900.6</ele>
        <time>2022-09-11T09:06:23Z</time>
      </trkpt>
      <trkpt lat="44.54868" lon="6.18742">
        <ele>900.7</ele>
        <time>2022-09-11T09:06:24Z</time>
      </trkpt>
      <trkpt lat="44.54868" lon="6.18743">
        <ele>900.7</ele>
        <time>2022-09-11T09:06:25Z</time>
      </trkpt>
      <trkpt lat="44.54868" lon="6.18743">
        <ele>900.8</ele>
        <time>2022-09-11T09:06:26Z</time>
      </trkpt>
      <trkpt lat="44.54868" lon="6.18744">
        <ele>900.8</ele>
        <time>2022-09-11T09:06:27Z</time>
      </trkpt>
      <trkpt lat="44.54868" lon="6.18744">
        <ele>900.8</ele>
        <time>2022-09-11T09:06:28Z</time>
      </trkpt>
      <trkpt lat="44.54868" lon="6.18744">
        <ele>900.8</ele>
        <time>2022-09-11T09:06:29Z</time>
      </trkpt>
      <trkpt lat="44.54868" lon="6.18744">
        <ele>900.8</ele>
        <time>2022-09-11T09:06:30Z</time>
      </trkpt>
      <trkpt lat="44.54868" lon="6.18744">
        <ele>900.8</ele>
        <time>2022-09-11T09:06:31Z</time>
      </trkpt>
      <trkpt lat="44.54868" lon="6.18744">
        <ele>900.8</ele>
        <time>2022-09-11T09:06:32Z</time>
      </trkpt>
      <trkpt lat="44.54868" lon="6.18744">
        <ele>900.8</ele>
        <time>2022-09-11T09:06:33Z</time>
      </trkpt>
      <trkpt lat="44.54865" lon="6.18741">
        <ele>901</ele>
        <time>2022-09-11T09:06:56Z</time>
      </trkpt>
      <trkpt lat="44.54865" lon="6.18739">
        <ele>901.2</ele>
        <time>2022-09-11T09:06:57Z</time>
      </trkpt>
      <trkpt lat="44.54864" lon="6.18737">
        <ele>901.3</ele>
        <time>2022-09-11T09:06:58Z</time>
      </trkpt>
      <trkpt lat="44.54862" lon="6.18733">
        <ele>901.5</ele>
        <time>2022-09-11T09:06:59Z</time>
      </trkpt>
      <trkpt lat="44.54862" lon="6.18731">
        <ele>901.5</ele>
        <time>2022-09-11T09:07:00Z</time>
      </trkpt>
      <trkpt lat="44.54862" lon="6.18727">
        <ele>901.8</ele>
        <time>2022-09-11T09:07:01Z</time>
      </trkpt>
      <trkpt lat="44.54861" lon="6.18724">
        <ele>901.9</ele>
        <time>2022-09-11T09:07:03Z</time>
      </trkpt>
      <trkpt lat="44.54859" lon="6.1872">
        <ele>902.2</ele>
        <time>2022-09-11T09:07:04Z</time>
      </trkpt>
      <trkpt lat="44.54858" lon="6.18716">
        <ele>902.4</ele>
        <time>2022-09-11T09:07:05Z</time>
      </trkpt>
      <trkpt lat="44.54856" lon="6.18713">
        <ele>902.6</ele>
        <time>2022-09-11T09:07:06Z</time>
      </trkpt>
      <trkpt lat="44.54854" lon="6.1871">
        <ele>902.8</ele>
        <time>2022-09-11T09:07:07Z</time>
      </trkpt>
      <trkpt lat="44.54852" lon="6.18707">
        <ele>903</ele>
        <time>2022-09-11T09:07:08Z</time>
      </trkpt>
      <trkpt lat="44.5485" lon="6.18703">
        <ele>903.2</ele>
        <time>2022-09-11T09:07:09Z</time>
      </trkpt>
      <trkpt lat="44.54849" lon="6.187">
        <ele>903.4</ele>
        <time>2022-09-11T09:07:10Z</time>
      </trkpt>
      <trkpt lat="44.54845" lon="6.18694">
        <ele>903.8</ele>
        <time>2022-09-11T09:07:11Z</time>
      </trkpt>
      <trkpt lat="44.54842" lon="6.1869">
        <ele>904.1</ele>
        <time>2022-09-11T09:07:13Z</time>
      </trkpt>
      <trkpt lat="44.5484" lon="6.18688">
        <ele>904.3</ele>
        <time>2022-09-11T09:07:14Z</time>
      </trkpt>
      <trkpt lat="44.54839" lon="6.18687">
        <ele>904.4</ele>
        <time>2022-09-11T09:07:15Z</time>
      </trkpt>
      <trkpt lat="44.54836" lon="6.18683">
        <ele>904.7</ele>
        <time>2022-09-11T09:07:16Z</time>
      </trkpt>
      <trkpt lat="44.54834" lon="6.18681">
        <ele>904.9</ele>
        <time>2022-09-11T09:07:18Z</time>
      </trkpt>
      <trkpt lat="44.54831" lon="6.18678">
        <ele>905.1</ele>
        <time>2022-09-11T09:07:19Z</time>
      </trkpt>
      <trkpt lat="44.54829" lon="6.18676">
        <ele>905.3</ele>
        <time>2022-09-11T09:07:20Z</time>
      </trkpt>
      <trkpt lat="44.54825" lon="6.18673">
        <ele>905.6</ele>
        <time>2022-09-11T09:07:21Z</time>
      </trkpt>
      <trkpt lat="44.54824" lon="6.18672">
        <ele>905.7</ele>
        <time>2022-09-11T09:07:22Z</time>
      </trkpt>
      <trkpt lat="44.54821" lon="6.18669">
        <ele>906</ele>
        <time>2022-09-11T09:07:23Z</time>
      </trkpt>
      <trkpt lat="44.5482" lon="6.18668">
        <ele>906.1</ele>
        <time>2022-09-11T09:07:24Z</time>
      </trkpt>
      <trkpt lat="44.54817" lon="6.18667">
        <ele>906.3</ele>
        <time>2022-09-11T09:07:25Z</time>
      </trkpt>
      <trkpt lat="44.54815" lon="6.18665">
        <ele>906.5</ele>
        <time>2022-09-11T09:07:26Z</time>
      </trkpt>
      <trkpt lat="44.54812" lon="6.18663">
        <ele>906.7</ele>
        <time>2022-09-11T09:07:27Z</time>
      </trkpt>
      <trkpt lat="44.54808" lon="6.18661">
        <ele>907</ele>
        <time>2022-09-11T09:07:28Z</time>
      </trkpt>
      <trkpt lat="44.54807" lon="6.1866">
        <ele>907.2</ele>
        <time>2022-09-11T09:07:29Z</time>
      </trkpt>
      <trkpt lat="44.54803" lon="6.18657">
        <ele>907.5</ele>
        <time>2022-09-11T09:07:30Z</time>
      </trkpt>
      <trkpt lat="44.54802" lon="6.18656">
        <ele>907.7</ele>
        <time>2022-09-11T09:07:31Z</time>
      </trkpt>
      <trkpt lat="44.54798" lon="6.18653">
        <ele>908.1</ele>
        <time>2022-09-11T09:07:32Z</time>
      </trkpt>
      <trkpt lat="44.54796" lon="6.18652">
        <ele>908.2</ele>
        <time>2022-09-11T09:07:33Z</time>
      </trkpt>
      <trkpt lat="44.54794" lon="6.18651">
        <ele>908.4</ele>
        <time>2022-09-11T09:07:34Z</time>
      </trkpt>
      <trkpt lat="44.54791" lon="6.18648">
        <ele>908.7</ele>
        <time>2022-09-11T09:07:35Z</time>
      </trkpt>
      <trkpt lat="44.54787" lon="6.18644">
        <ele>909.1</ele>
        <time>2022-09-11T09:07:36Z</time>
      </trkpt>
      <trkpt lat="44.54785" lon="6.18641">
        <ele>909.3</ele>
        <time>2022-09-11T09:07:38Z</time>
      </trkpt>
      <trkpt lat="44.54783" lon="6.18638">
        <ele>909.6</ele>
        <time>2022-09-11T09:07:39Z</time>
      </trkpt>
      <trkpt lat="44.5478" lon="6.18632">
        <ele>910</ele>
        <time>2022-09-11T09:07:40Z</time>
      </trkpt>
      <trkpt lat="44.54778" lon="6.18629">
        <ele>910.2</ele>
        <time>2022-09-11T09:07:41Z</time>
      </trkpt>
      <trkpt lat="44.54777" lon="6.18625">
        <ele>910.5</ele>
        <time>2022-09-11T09:07:42Z</time>
      </trkpt>
      <trkpt lat="44.54775" lon="6.18621">
        <ele>910.8</ele>
        <time>2022-09-11T09:07:44Z</time>
      </trkpt>
      <trkpt lat="44.54773" lon="6.18618">
        <ele>911.1</ele>
        <time>2022-09-11T09:07:45Z</time>
      </trkpt>
      <trkpt lat="44.54772" lon="6.18613">
        <ele>911.4</ele>
        <time>2022-09-11T09:07:46Z</time>
      </trkpt>
      <trkpt lat="44.54771" lon="6.18609">
        <ele>911.6</ele>
        <time>2022-09-11T09:07:47Z</time>
      </trkpt>
      <trkpt lat="44.54769" lon="6.18602">
        <ele>912.1</ele>
        <time>2022-09-11T09:07:49Z</time>
      </trkpt>
      <trkpt lat="44.54768" lon="6.18599">
        <ele>912.4</ele>
        <time>2022-09-11T09:07:50Z</time>
      </trkpt>
      <trkpt lat="44.54767" lon="6.18594">
        <ele>912.7</ele>
        <time>2022-09-11T09:07:51Z</time>
      </trkpt>
      <trkpt lat="44.54767" lon="6.18592">
        <ele>912.8</ele>
        <time>2022-09-11T09:07:52Z</time>
      </trkpt>
      <trkpt lat="44.54765" lon="6.18589">
        <ele>913</ele>
        <time>2022-09-11T09:07:53Z</time>
      </trkpt>
      <trkpt lat="44.54763" lon="6.18585">
        <ele>913.4</ele>
        <time>2022-09-11T09:07:54Z</time>
      </trkpt>
      <trkpt lat="44.54762" lon="6.18584">
        <ele>913.5</ele>
        <time>2022-09-11T09:07:55Z</time>
      </trkpt>
      <trkpt lat="44.5476" lon="6.18582">
        <ele>913.7</ele>
        <time>2022-09-11T09:07:56Z</time>
      </trkpt>
      <trkpt lat="44.54757" lon="6.18578">
        <ele>914.1</ele>
        <time>2022-09-11T09:07:57Z</time>
      </trkpt>
      <trkpt lat="44.54756" lon="6.18577">
        <ele>914.2</ele>
        <time>2022-09-11T09:07:58Z</time>
      </trkpt>
      <trkpt lat="44.54752" lon="6.18574">
        <ele>914.6</ele>
        <time>2022-09-11T09:07:59Z</time>
      </trkpt>
      <trkpt lat="44.54751" lon="6.18573">
        <ele>914.7</ele>
        <time>2022-09-11T09:08:00Z</time>
      </trkpt>
      <trkpt lat="44.54747" lon="6.1857">
        <ele>915</ele>
        <time>2022-09-11T09:08:01Z</time>
      </trkpt>
      <trkpt lat="44.54746" lon="6.18569">
        <ele>915.2</ele>
        <time>2022-09-11T09:08:02Z</time>
      </trkpt>
      <trkpt lat="44.54743" lon="6.18567">
        <ele>915.5</ele>
        <time>2022-09-11T09:08:03Z</time>
      </trkpt>
      <trkpt lat="44.54742" lon="6.18566">
        <ele>915.6</ele>
        <time>2022-09-11T09:08:04Z</time>
      </trkpt>
      <trkpt lat="44.5474" lon="6.18563">
        <ele>915.8</ele>
        <time>2022-09-11T09:08:05Z</time>
      </trkpt>
      <trkpt lat="44.54738" lon="6.1856">
        <ele>916.1</ele>
        <time>2022-09-11T09:08:06Z</time>
      </trkpt>
      <trkpt lat="44.54736" lon="6.18556">
        <ele>916.3</ele>
        <time>2022-09-11T09:08:07Z</time>
      </trkpt>
      <trkpt lat="44.54734" lon="6.18551">
        <ele>916.7</ele>
        <time>2022-09-11T09:08:08Z</time>
      </trkpt>
      <trkpt lat="44.54734" lon="6.1855">
        <ele>916.8</ele>
        <time>2022-09-11T09:08:09Z</time>
      </trkpt>
      <trkpt lat="44.54733" lon="6.18544">
        <ele>917.1</ele>
        <time>2022-09-11T09:08:10Z</time>
      </trkpt>
      <trkpt lat="44.54732" lon="6.18542">
        <ele>917.2</ele>
        <time>2022-09-11T09:08:11Z</time>
      </trkpt>
      <trkpt lat="44.54733" lon="6.18536">
        <ele>917.5</ele>
        <time>2022-09-11T09:08:12Z</time>
      </trkpt>
      <trkpt lat="44.54733" lon="6.18535">
        <ele>917.6</ele>
        <time>2022-09-11T09:08:13Z</time>
      </trkpt>
      <trkpt lat="44.54734" lon="6.1853">
        <ele>917.9</ele>
        <time>2022-09-11T09:08:14Z</time>
      </trkpt>
      <trkpt lat="44.54735" lon="6.18529">
        <ele>918</ele>
        <time>2022-09-11T09:08:15Z</time>
      </trkpt>
      <trkpt lat="44.54736" lon="6.18524">
        <ele>918.2</ele>
        <time>2022-09-11T09:08:16Z</time>
      </trkpt>
      <trkpt lat="44.54736" lon="6.18523">
        <ele>918.3</ele>
        <time>2022-09-11T09:08:17Z</time>
      </trkpt>
      <trkpt lat="44.54736" lon="6.18517">
        <ele>918.6</ele>
        <time>2022-09-11T09:08:18Z</time>
      </trkpt>
      <trkpt lat="44.54736" lon="6.18516">
        <ele>918.7</ele>
        <time>2022-09-11T09:08:19Z</time>
      </trkpt>
      <trkpt lat="44.54737" lon="6.18511">
        <ele>918.9</ele>
        <time>2022-09-11T09:08:20Z</time>
      </trkpt>
      <trkpt lat="44.54737" lon="6.18507">
        <ele>919</ele>
        <time>2022-09-11T09:08:21Z</time>
      </trkpt>
      <trkpt lat="44.54737" lon="6.18502">
        <ele>919.3</ele>
        <time>2022-09-11T09:08:22Z</time>
      </trkpt>
      <trkpt lat="44.54737" lon="6.185">
        <ele>919.4</ele>
        <time>2022-09-11T09:08:23Z</time>
      </trkpt>
      <trkpt lat="44.54736" lon="6.18495">
        <ele>919.5</ele>
        <time>2022-09-11T09:08:24Z</time>
      </trkpt>
      <trkpt lat="44.54736" lon="6.18493">
        <ele>919.6</ele>
        <time>2022-09-11T09:08:25Z</time>
      </trkpt>
      <trkpt lat="44.54734" lon="6.18489">
        <ele>919.8</ele>
        <time>2022-09-11T09:08:26Z</time>
      </trkpt>
      <trkpt lat="44.54733" lon="6.18487">
        <ele>919.8</ele>
        <time>2022-09-11T09:08:27Z</time>
      </trkpt>
      <trkpt lat="44.54732" lon="6.18485">
        <ele>919.9</ele>
        <time>2022-09-11T09:08:28Z</time>
      </trkpt>
      <trkpt lat="44.54731" lon="6.18484">
        <ele>920</ele>
        <time>2022-09-11T09:08:29Z</time>
      </trkpt>
      <trkpt lat="44.54729" lon="6.18481">
        <ele>920.2</ele>
        <time>2022-09-11T09:08:30Z</time>
      </trkpt>
      <trkpt lat="44.54728" lon="6.1848">
        <ele>920.2</ele>
        <time>2022-09-11T09:08:31Z</time>
      </trkpt>
      <trkpt lat="44.54726" lon="6.18478">
        <ele>920.3</ele>
        <time>2022-09-11T09:08:32Z</time>
      </trkpt>
      <trkpt lat="44.54723" lon="6.18474">
        <ele>920.5</ele>
        <time>2022-09-11T09:08:33Z</time>
      </trkpt>
      <trkpt lat="44.54722" lon="6.18474">
        <ele>920.5</ele>
        <time>2022-09-11T09:08:34Z</time>
      </trkpt>
      <trkpt lat="44.54719" lon="6.18472">
        <ele>920.7</ele>
        <time>2022-09-11T09:08:35Z</time>
      </trkpt>
      <trkpt lat="44.54715" lon="6.18471">
        <ele>920.9</ele>
        <time>2022-09-11T09:08:36Z</time>
      </trkpt>
      <trkpt lat="44.54714" lon="6.1847">
        <ele>921</ele>
        <time>2022-09-11T09:08:37Z</time>
      </trkpt>
      <trkpt lat="44.5471" lon="6.18469">
        <ele>921.2</ele>
        <time>2022-09-11T09:08:38Z</time>
      </trkpt>
      <trkpt lat="44.54708" lon="6.18469">
        <ele>921.3</ele>
        <time>2022-09-11T09:08:39Z</time>
      </trkpt>
      <trkpt lat="44.54705" lon="6.18469">
        <ele>921.4</ele>
        <time>2022-09-11T09:08:40Z</time>
      </trkpt>
      <trkpt lat="44.54701" lon="6.18467">
        <ele>921.6</ele>
        <time>2022-09-11T09:08:41Z</time>
      </trkpt>
      <trkpt lat="44.547" lon="6.18467">
        <ele>921.7</ele>
        <time>2022-09-11T09:08:42Z</time>
      </trkpt>
      <trkpt lat="44.54696" lon="6.18464">
        <ele>921.9</ele>
        <time>2022-09-11T09:08:43Z</time>
      </trkpt>
      <trkpt lat="44.54695" lon="6.18463">
        <ele>922</ele>
        <time>2022-09-11T09:08:44Z</time>
      </trkpt>
      <trkpt lat="44.54692" lon="6.1846">
        <ele>922.1</ele>
        <time>2022-09-11T09:08:45Z</time>
      </trkpt>
      <trkpt lat="44.5469" lon="6.18459">
        <ele>922.2</ele>
        <time>2022-09-11T09:08:46Z</time>
      </trkpt>
      <trkpt lat="44.54688" lon="6.18455">
        <ele>922.4</ele>
        <time>2022-09-11T09:08:47Z</time>
      </trkpt>
      <trkpt lat="44.54687" lon="6.18454">
        <ele>922.4</ele>
        <time>2022-09-11T09:08:48Z</time>
      </trkpt>
      <trkpt lat="44.54684" lon="6.1845">
        <ele>922.6</ele>
        <time>2022-09-11T09:08:49Z</time>
      </trkpt>
      <trkpt lat="44.54683" lon="6.18446">
        <ele>922.7</ele>
        <time>2022-09-11T09:08:50Z</time>
      </trkpt>
      <trkpt lat="44.54682" lon="6.18442">
        <ele>922.9</ele>
        <time>2022-09-11T09:08:51Z</time>
      </trkpt>
      <trkpt lat="44.54681" lon="6.1844">
        <ele>922.9</ele>
        <time>2022-09-11T09:08:52Z</time>
      </trkpt>
      <trkpt lat="44.5468" lon="6.18436">
        <ele>923.1</ele>
        <time>2022-09-11T09:08:53Z</time>
      </trkpt>
      <trkpt lat="44.5468" lon="6.18434">
        <ele>923.1</ele>
        <time>2022-09-11T09:08:54Z</time>
      </trkpt>
      <trkpt lat="44.54679" lon="6.18429">
        <ele>923.3</ele>
        <time>2022-09-11T09:08:55Z</time>
      </trkpt>
      <trkpt lat="44.54679" lon="6.18427">
        <ele>923.3</ele>
        <time>2022-09-11T09:08:56Z</time>
      </trkpt>
      <trkpt lat="44.54678" lon="6.18422">
        <ele>923.4</ele>
        <time>2022-09-11T09:08:57Z</time>
      </trkpt>
      <trkpt lat="44.54678" lon="6.1842">
        <ele>923.5</ele>
        <time>2022-09-11T09:08:58Z</time>
      </trkpt>
      <trkpt lat="44.54677" lon="6.18414">
        <ele>923.6</ele>
        <time>2022-09-11T09:08:59Z</time>
      </trkpt>
      <trkpt lat="44.54676" lon="6.18409">
        <ele>923.7</ele>
        <time>2022-09-11T09:09:01Z</time>
      </trkpt>
      <trkpt lat="44.54674" lon="6.18405">
        <ele>923.8</ele>
        <time>2022-09-11T09:09:02Z</time>
      </trkpt>
      <trkpt lat="44.54673" lon="6.18402">
        <ele>923.9</ele>
        <time>2022-09-11T09:09:03Z</time>
      </trkpt>
      <trkpt lat="44.54671" lon="6.18398">
        <ele>924.1</ele>
        <time>2022-09-11T09:09:05Z</time>
      </trkpt>
      <trkpt lat="44.5467" lon="6.18395">
        <ele>924.2</ele>
        <time>2022-09-11T09:09:06Z</time>
      </trkpt>
      <trkpt lat="44.54668" lon="6.18392">
        <ele>924.3</ele>
        <time>2022-09-11T09:09:07Z</time>
      </trkpt>
      <trkpt lat="44.54666" lon="6.18389">
        <ele>924.4</ele>
        <time>2022-09-11T09:09:08Z</time>
      </trkpt>
      <trkpt lat="44.54664" lon="6.18386">
        <ele>924.6</ele>
        <time>2022-09-11T09:09:09Z</time>
      </trkpt>
      <trkpt lat="44.54661" lon="6.1838">
        <ele>924.8</ele>
        <time>2022-09-11T09:09:10Z</time>
      </trkpt>
      <trkpt lat="44.5466" lon="6.18376">
        <ele>924.9</ele>
        <time>2022-09-11T09:09:11Z</time>
      </trkpt>
      <trkpt lat="44.54658" lon="6.18373">
        <ele>925.1</ele>
        <time>2022-09-11T09:09:13Z</time>
      </trkpt>
      <trkpt lat="44.54656" lon="6.1837">
        <ele>925.2</ele>
        <time>2022-09-11T09:09:14Z</time>
      </trkpt>
      <trkpt lat="44.54655" lon="6.18367">
        <ele>925.4</ele>
        <time>2022-09-11T09:09:15Z</time>
      </trkpt>
      <trkpt lat="44.54653" lon="6.18363">
        <ele>925.5</ele>
        <time>2022-09-11T09:09:16Z</time>
      </trkpt>
      <trkpt lat="44.54651" lon="6.18359">
        <ele>925.7</ele>
        <time>2022-09-11T09:09:17Z</time>
      </trkpt>
      <trkpt lat="44.5465" lon="6.18356">
        <ele>925.9</ele>
        <time>2022-09-11T09:09:18Z</time>
      </trkpt>
      <trkpt lat="44.54648" lon="6.18349">
        <ele>926.2</ele>
        <time>2022-09-11T09:09:19Z</time>
      </trkpt>
      <trkpt lat="44.54646" lon="6.18343">
        <ele>926.5</ele>
        <time>2022-09-11T09:09:21Z</time>
      </trkpt>
      <trkpt lat="44.54644" lon="6.18339">
        <ele>926.7</ele>
        <time>2022-09-11T09:09:23Z</time>
      </trkpt>
      <trkpt lat="44.54643" lon="6.18334">
        <ele>926.9</ele>
        <time>2022-09-11T09:09:24Z</time>
      </trkpt>
      <trkpt lat="44.54643" lon="6.1833">
        <ele>927</ele>
        <time>2022-09-11T09:09:25Z</time>
      </trkpt>
      <trkpt lat="44.54642" lon="6.18325">
        <ele>927.3</ele>
        <time>2022-09-11T09:09:26Z</time>
      </trkpt>
      <trkpt lat="44.54641" lon="6.18323">
        <ele>927.4</ele>
        <time>2022-09-11T09:09:27Z</time>
      </trkpt>
      <trkpt lat="44.54639" lon="6.18318">
        <ele>927.6</ele>
        <time>2022-09-11T09:09:28Z</time>
      </trkpt>
      <trkpt lat="44.54638" lon="6.18317">
        <ele>927.7</ele>
        <time>2022-09-11T09:09:29Z</time>
      </trkpt>
      <trkpt lat="44.54637" lon="6.18312">
        <ele>927.9</ele>
        <time>2022-09-11T09:09:30Z</time>
      </trkpt>
      <trkpt lat="44.54635" lon="6.18307">
        <ele>928.1</ele>
        <time>2022-09-11T09:09:31Z</time>
      </trkpt>
      <trkpt lat="44.54632" lon="6.18301">
        <ele>928.4</ele>
        <time>2022-09-11T09:09:33Z</time>
      </trkpt>
      <trkpt lat="44.54631" lon="6.18299">
        <ele>928.6</ele>
        <time>2022-09-11T09:09:34Z</time>
      </trkpt>
      <trkpt lat="44.54631" lon="6.18296">
        <ele>928.7</ele>
        <time>2022-09-11T09:09:35Z</time>
      </trkpt>
      <trkpt lat="44.54628" lon="6.18291">
        <ele>929</ele>
        <time>2022-09-11T09:09:36Z</time>
      </trkpt>
      <trkpt lat="44.54627" lon="6.18288">
        <ele>929.1</ele>
        <time>2022-09-11T09:09:37Z</time>
      </trkpt>
      <trkpt lat="44.54626" lon="6.18285">
        <ele>929.3</ele>
        <time>2022-09-11T09:09:38Z</time>
      </trkpt>
      <trkpt lat="44.54622" lon="6.18279">
        <ele>929.6</ele>
        <time>2022-09-11T09:09:40Z</time>
      </trkpt>
      <trkpt lat="44.54621" lon="6.18276">
        <ele>929.8</ele>
        <time>2022-09-11T09:09:41Z</time>
      </trkpt>
      <trkpt lat="44.54619" lon="6.18273">
        <ele>930</ele>
        <time>2022-09-11T09:09:42Z</time>
      </trkpt>
      <trkpt lat="44.54617" lon="6.1827">
        <ele>930.2</ele>
        <time>2022-09-11T09:09:44Z</time>
      </trkpt>
      <trkpt lat="44.54615" lon="6.18267">
        <ele>930.4</ele>
        <time>2022-09-11T09:09:45Z</time>
      </trkpt>
      <trkpt lat="44.54613" lon="6.18264">
        <ele>930.6</ele>
        <time>2022-09-11T09:09:46Z</time>
      </trkpt>
      <trkpt lat="44.54611" lon="6.18261">
        <ele>930.7</ele>
        <time>2022-09-11T09:09:47Z</time>
      </trkpt>
      <trkpt lat="44.54609" lon="6.18257">
        <ele>930.9</ele>
        <time>2022-09-11T09:09:48Z</time>
      </trkpt>
      <trkpt lat="44.54606" lon="6.18252">
        <ele>931.2</ele>
        <time>2022-09-11T09:09:49Z</time>
      </trkpt>
      <trkpt lat="44.54604" lon="6.18248">
        <ele>931.5</ele>
        <time>2022-09-11T09:09:50Z</time>
      </trkpt>
      <trkpt lat="44.54598" lon="6.18242">
        <ele>931.9</ele>
        <time>2022-09-11T09:09:52Z</time>
      </trkpt>
      <trkpt lat="44.54595" lon="6.18239">
        <ele>932.2</ele>
        <time>2022-09-11T09:09:54Z</time>
      </trkpt>
      <trkpt lat="44.54593" lon="6.18237">
        <ele>932.4</ele>
        <time>2022-09-11T09:09:55Z</time>
      </trkpt>
      <trkpt lat="44.54591" lon="6.18235">
        <ele>932.5</ele>
        <time>2022-09-11T09:09:56Z</time>
      </trkpt>
      <trkpt lat="44.54587" lon="6.18231">
        <ele>932.8</ele>
        <time>2022-09-11T09:09:57Z</time>
      </trkpt>
      <trkpt lat="44.54586" lon="6.1823">
        <ele>932.9</ele>
        <time>2022-09-11T09:09:58Z</time>
      </trkpt>
      <trkpt lat="44.54584" lon="6.18227">
        <ele>933.1</ele>
        <time>2022-09-11T09:09:59Z</time>
      </trkpt>
      <trkpt lat="44.54582" lon="6.18225">
        <ele>933.3</ele>
        <time>2022-09-11T09:10:00Z</time>
      </trkpt>
      <trkpt lat="44.54578" lon="6.1822">
        <ele>933.7</ele>
        <time>2022-09-11T09:10:01Z</time>
      </trkpt>
      <trkpt lat="44.54576" lon="6.18218">
        <ele>933.9</ele>
        <time>2022-09-11T09:10:02Z</time>
      </trkpt>
      <trkpt lat="44.54573" lon="6.18215">
        <ele>934.1</ele>
        <time>2022-09-11T09:10:04Z</time>
      </trkpt>
      <trkpt lat="44.5457" lon="6.1821">
        <ele>934.5</ele>
        <time>2022-09-11T09:10:05Z</time>
      </trkpt>
      <trkpt lat="44.54568" lon="6.18207">
        <ele>934.7</ele>
        <time>2022-09-11T09:10:07Z</time>
      </trkpt>
      <trkpt lat="44.54566" lon="6.18204">
        <ele>934.9</ele>
        <time>2022-09-11T09:10:08Z</time>
      </trkpt>
      <trkpt lat="44.54564" lon="6.18201">
        <ele>935.1</ele>
        <time>2022-09-11T09:10:09Z</time>
      </trkpt>
      <trkpt lat="44.54563" lon="6.18197">
        <ele>935.3</ele>
        <time>2022-09-11T09:10:10Z</time>
      </trkpt>
      <trkpt lat="44.54561" lon="6.1819">
        <ele>935.6</ele>
        <time>2022-09-11T09:10:11Z</time>
      </trkpt>
      <trkpt lat="44.5456" lon="6.18187">
        <ele>935.8</ele>
        <time>2022-09-11T09:10:12Z</time>
      </trkpt>
      <trkpt lat="44.54559" lon="6.18183">
        <ele>936</ele>
        <time>2022-09-11T09:10:14Z</time>
      </trkpt>
      <trkpt lat="44.54559" lon="6.18179">
        <ele>936.2</ele>
        <time>2022-09-11T09:10:15Z</time>
      </trkpt>
      <trkpt lat="44.54558" lon="6.18174">
        <ele>936.4</ele>
        <time>2022-09-11T09:10:16Z</time>
      </trkpt>
      <trkpt lat="44.54557" lon="6.1817">
        <ele>936.6</ele>
        <time>2022-09-11T09:10:18Z</time>
      </trkpt>
      <trkpt lat="44.54556" lon="6.18164">
        <ele>936.8</ele>
        <time>2022-09-11T09:10:19Z</time>
      </trkpt>
      <trkpt lat="44.54554" lon="6.1816">
        <ele>937</ele>
        <time>2022-09-11T09:10:20Z</time>
      </trkpt>
      <trkpt lat="44.54551" lon="6.18154">
        <ele>937.3</ele>
        <time>2022-09-11T09:10:22Z</time>
      </trkpt>
      <trkpt lat="44.5455" lon="6.18152">
        <ele>937.4</ele>
        <time>2022-09-11T09:10:23Z</time>
      </trkpt>
      <trkpt lat="44.54549" lon="6.1815">
        <ele>937.5</ele>
        <time>2022-09-11T09:10:24Z</time>
      </trkpt>
      <trkpt lat="44.54546" lon="6.18146">
        <ele>937.6</ele>
        <time>2022-09-11T09:10:25Z</time>
      </trkpt>
      <trkpt lat="44.54544" lon="6.18144">
        <ele>937.8</ele>
        <time>2022-09-11T09:10:26Z</time>
      </trkpt>
      <trkpt lat="44.5454" lon="6.1814">
        <ele>938</ele>
        <time>2022-09-11T09:10:28Z</time>
      </trkpt>
      <trkpt lat="44.54536" lon="6.18135">
        <ele>938.3</ele>
        <time>2022-09-11T09:10:29Z</time>
      </trkpt>
      <trkpt lat="44.54533" lon="6.18132">
        <ele>938.5</ele>
        <time>2022-09-11T09:10:31Z</time>
      </trkpt>
      <trkpt lat="44.54528" lon="6.18127">
        <ele>938.7</ele>
        <time>2022-09-11T09:10:32Z</time>
      </trkpt>
      <trkpt lat="44.54526" lon="6.18124">
        <ele>938.9</ele>
        <time>2022-09-11T09:10:34Z</time>
      </trkpt>
      <trkpt lat="44.54524" lon="6.18121">
        <ele>939.1</ele>
        <time>2022-09-11T09:10:35Z</time>
      </trkpt>
      <trkpt lat="44.54519" lon="6.18116">
        <ele>939.3</ele>
        <time>2022-09-11T09:10:36Z</time>
      </trkpt>
      <trkpt lat="44.54517" lon="6.18114">
        <ele>939.5</ele>
        <time>2022-09-11T09:10:38Z</time>
      </trkpt>
      <trkpt lat="44.54515" lon="6.18112">
        <ele>939.6</ele>
        <time>2022-09-11T09:10:39Z</time>
      </trkpt>
      <trkpt lat="44.54512" lon="6.1811">
        <ele>939.7</ele>
        <time>2022-09-11T09:10:40Z</time>
      </trkpt>
      <trkpt lat="44.54509" lon="6.18109">
        <ele>939.8</ele>
        <time>2022-09-11T09:10:41Z</time>
      </trkpt>
      <trkpt lat="44.54506" lon="6.18109">
        <ele>940</ele>
        <time>2022-09-11T09:10:42Z</time>
      </trkpt>
      <trkpt lat="44.54502" lon="6.18109">
        <ele>940.1</ele>
        <time>2022-09-11T09:10:43Z</time>
      </trkpt>
      <trkpt lat="44.54495" lon="6.18109">
        <ele>940.4</ele>
        <time>2022-09-11T09:10:44Z</time>
      </trkpt>
      <trkpt lat="44.54492" lon="6.18109">
        <ele>940.5</ele>
        <time>2022-09-11T09:10:45Z</time>
      </trkpt>
      <trkpt lat="44.54488" lon="6.18109">
        <ele>940.7</ele>
        <time>2022-09-11T09:10:47Z</time>
      </trkpt>
      <trkpt lat="44.54485" lon="6.18109">
        <ele>940.9</ele>
        <time>2022-09-11T09:10:48Z</time>
      </trkpt>
      <trkpt lat="44.54482" lon="6.18108">
        <ele>941</ele>
        <time>2022-09-11T09:10:49Z</time>
      </trkpt>
      <trkpt lat="44.54478" lon="6.18107">
        <ele>941.2</ele>
        <time>2022-09-11T09:10:50Z</time>
      </trkpt>
      <trkpt lat="44.54475" lon="6.18106">
        <ele>941.3</ele>
        <time>2022-09-11T09:10:51Z</time>
      </trkpt>
      <trkpt lat="44.54472" lon="6.18104">
        <ele>941.5</ele>
        <time>2022-09-11T09:10:52Z</time>
      </trkpt>
      <trkpt lat="44.54468" lon="6.18102">
        <ele>941.7</ele>
        <time>2022-09-11T09:10:53Z</time>
      </trkpt>
      <trkpt lat="44.54465" lon="6.181">
        <ele>941.9</ele>
        <time>2022-09-11T09:10:54Z</time>
      </trkpt>
      <trkpt lat="44.54462" lon="6.18098">
        <ele>942.1</ele>
        <time>2022-09-11T09:10:55Z</time>
      </trkpt>
      <trkpt lat="44.54459" lon="6.18096">
        <ele>942.2</ele>
        <time>2022-09-11T09:10:56Z</time>
      </trkpt>
      <trkpt lat="44.54457" lon="6.18093">
        <ele>942.4</ele>
        <time>2022-09-11T09:10:57Z</time>
      </trkpt>
      <trkpt lat="44.54454" lon="6.18091">
        <ele>942.5</ele>
        <time>2022-09-11T09:10:58Z</time>
      </trkpt>
      <trkpt lat="44.54452" lon="6.18089">
        <ele>942.7</ele>
        <time>2022-09-11T09:10:59Z</time>
      </trkpt>
      <trkpt lat="44.54449" lon="6.18086">
        <ele>942.8</ele>
        <time>2022-09-11T09:11:00Z</time>
      </trkpt>
      <trkpt lat="44.54447" lon="6.18084">
        <ele>943</ele>
        <time>2022-09-11T09:11:01Z</time>
      </trkpt>
      <trkpt lat="44.54445" lon="6.18081">
        <ele>943.2</ele>
        <time>2022-09-11T09:11:02Z</time>
      </trkpt>
      <trkpt lat="44.54442" lon="6.18078">
        <ele>943.4</ele>
        <time>2022-09-11T09:11:03Z</time>
      </trkpt>
      <trkpt lat="44.5444" lon="6.18075">
        <ele>943.5</ele>
        <time>2022-09-11T09:11:04Z</time>
      </trkpt>
      <trkpt lat="44.54438" lon="6.18073">
        <ele>943.7</ele>
        <time>2022-09-11T09:11:05Z</time>
      </trkpt>
      <trkpt lat="44.54435" lon="6.1807">
        <ele>943.9</ele>
        <time>2022-09-11T09:11:06Z</time>
      </trkpt>
      <trkpt lat="44.54432" lon="6.18066">
        <ele>944.2</ele>
        <time>2022-09-11T09:11:07Z</time>
      </trkpt>
      <trkpt lat="44.54431" lon="6.18065">
        <ele>944.3</ele>
        <time>2022-09-11T09:11:08Z</time>
      </trkpt>
      <trkpt lat="44.54429" lon="6.18062">
        <ele>944.5</ele>
        <time>2022-09-11T09:11:09Z</time>
      </trkpt>
      <trkpt lat="44.54426" lon="6.18059">
        <ele>944.7</ele>
        <time>2022-09-11T09:11:10Z</time>
      </trkpt>
      <trkpt lat="44.54422" lon="6.18053">
        <ele>945.1</ele>
        <time>2022-09-11T09:11:11Z</time>
      </trkpt>
      <trkpt lat="44.54421" lon="6.18051">
        <ele>945.3</ele>
        <time>2022-09-11T09:11:12Z</time>
      </trkpt>
      <trkpt lat="44.54418" lon="6.18046">
        <ele>945.6</ele>
        <time>2022-09-11T09:11:13Z</time>
      </trkpt>
      <trkpt lat="44.54416" lon="6.18042">
        <ele>945.9</ele>
        <time>2022-09-11T09:11:14Z</time>
      </trkpt>
      <trkpt lat="44.54413" lon="6.18038">
        <ele>946.1</ele>
        <time>2022-09-11T09:11:16Z</time>
      </trkpt>
      <trkpt lat="44.54411" lon="6.18035">
        <ele>946.3</ele>
        <time>2022-09-11T09:11:17Z</time>
      </trkpt>
      <trkpt lat="44.54409" lon="6.18033">
        <ele>946.5</ele>
        <time>2022-09-11T09:11:18Z</time>
      </trkpt>
      <trkpt lat="44.54406" lon="6.1803">
        <ele>946.8</ele>
        <time>2022-09-11T09:11:19Z</time>
      </trkpt>
      <trkpt lat="44.54404" lon="6.18027">
        <ele>947</ele>
        <time>2022-09-11T09:11:20Z</time>
      </trkpt>
      <trkpt lat="44.54401" lon="6.18024">
        <ele>947.2</ele>
        <time>2022-09-11T09:11:21Z</time>
      </trkpt>
      <trkpt lat="44.544" lon="6.18023">
        <ele>947.3</ele>
        <time>2022-09-11T09:11:22Z</time>
      </trkpt>
      <trkpt lat="44.54398" lon="6.1802">
        <ele>947.6</ele>
        <time>2022-09-11T09:11:23Z</time>
      </trkpt>
      <trkpt lat="44.54394" lon="6.18015">
        <ele>947.9</ele>
        <time>2022-09-11T09:11:24Z</time>
      </trkpt>
      <trkpt lat="44.54393" lon="6.18014">
        <ele>948</ele>
        <time>2022-09-11T09:11:25Z</time>
      </trkpt>
      <trkpt lat="44.5439" lon="6.18009">
        <ele>948.4</ele>
        <time>2022-09-11T09:11:26Z</time>
      </trkpt>
      <trkpt lat="44.54389" lon="6.18007">
        <ele>948.5</ele>
        <time>2022-09-11T09:11:27Z</time>
      </trkpt>
      <trkpt lat="44.54387" lon="6.18004">
        <ele>948.8</ele>
        <time>2022-09-11T09:11:28Z</time>
      </trkpt>
      <trkpt lat="44.54385" lon="6.18">
        <ele>949.1</ele>
        <time>2022-09-11T09:11:29Z</time>
      </trkpt>
      <trkpt lat="44.54383" lon="6.17995">
        <ele>949.3</ele>
        <time>2022-09-11T09:11:30Z</time>
      </trkpt>
      <trkpt lat="44.54382" lon="6.17994">
        <ele>949.4</ele>
        <time>2022-09-11T09:11:31Z</time>
      </trkpt>
      <trkpt lat="44.54381" lon="6.17989">
        <ele>949.7</ele>
        <time>2022-09-11T09:11:32Z</time>
      </trkpt>
      <trkpt lat="44.54381" lon="6.17987">
        <ele>949.8</ele>
        <time>2022-09-11T09:11:33Z</time>
      </trkpt>
      <trkpt lat="44.5438" lon="6.17985">
        <ele>950</ele>
        <time>2022-09-11T09:11:34Z</time>
      </trkpt>
      <trkpt lat="44.54379" lon="6.17983">
        <ele>950.1</ele>
        <time>2022-09-11T09:11:35Z</time>
      </trkpt>
      <trkpt lat="44.54378" lon="6.17978">
        <ele>950.4</ele>
        <time>2022-09-11T09:11:36Z</time>
      </trkpt>
      <trkpt lat="44.54377" lon="6.17977">
        <ele>950.4</ele>
        <time>2022-09-11T09:11:37Z</time>
      </trkpt>
      <trkpt lat="44.54374" lon="6.17974">
        <ele>950.7</ele>
        <time>2022-09-11T09:11:38Z</time>
      </trkpt>
      <trkpt lat="44.54373" lon="6.17973">
        <ele>950.8</ele>
        <time>2022-09-11T09:11:39Z</time>
      </trkpt>
      <trkpt lat="44.5437" lon="6.17969">
        <ele>951</ele>
        <time>2022-09-11T09:11:40Z</time>
      </trkpt>
      <trkpt lat="44.54369" lon="6.17968">
        <ele>951.1</ele>
        <time>2022-09-11T09:11:41Z</time>
      </trkpt>
      <trkpt lat="44.54367" lon="6.17966">
        <ele>951.3</ele>
        <time>2022-09-11T09:11:42Z</time>
      </trkpt>
      <trkpt lat="44.54363" lon="6.17963">
        <ele>951.5</ele>
        <time>2022-09-11T09:11:43Z</time>
      </trkpt>
      <trkpt lat="44.54362" lon="6.17963">
        <ele>951.6</ele>
        <time>2022-09-11T09:11:44Z</time>
      </trkpt>
      <trkpt lat="44.54359" lon="6.1796">
        <ele>951.8</ele>
        <time>2022-09-11T09:11:45Z</time>
      </trkpt>
      <trkpt lat="44.54358" lon="6.17959">
        <ele>951.9</ele>
        <time>2022-09-11T09:11:46Z</time>
      </trkpt>
      <trkpt lat="44.54355" lon="6.17957">
        <ele>952</ele>
        <time>2022-09-11T09:11:47Z</time>
      </trkpt>
      <trkpt lat="44.54352" lon="6.17955">
        <ele>952.2</ele>
        <time>2022-09-11T09:11:48Z</time>
      </trkpt>
      <trkpt lat="44.5435" lon="6.17955">
        <ele>952.3</ele>
        <time>2022-09-11T09:11:49Z</time>
      </trkpt>
      <trkpt lat="44.54348" lon="6.17953">
        <ele>952.4</ele>
        <time>2022-09-11T09:11:50Z</time>
      </trkpt>
      <trkpt lat="44.54345" lon="6.17951">
        <ele>952.6</ele>
        <time>2022-09-11T09:11:51Z</time>
      </trkpt>
      <trkpt lat="44.54342" lon="6.17949">
        <ele>952.8</ele>
        <time>2022-09-11T09:11:52Z</time>
      </trkpt>
      <trkpt lat="44.5434" lon="6.17948">
        <ele>952.8</ele>
        <time>2022-09-11T09:11:53Z</time>
      </trkpt>
      <trkpt lat="44.54336" lon="6.17946">
        <ele>953</ele>
        <time>2022-09-11T09:11:54Z</time>
      </trkpt>
      <trkpt lat="44.54335" lon="6.17946">
        <ele>953.1</ele>
        <time>2022-09-11T09:11:55Z</time>
      </trkpt>
      <trkpt lat="44.54331" lon="6.17945">
        <ele>953.3</ele>
        <time>2022-09-11T09:11:56Z</time>
      </trkpt>
      <trkpt lat="44.5433" lon="6.17944">
        <ele>953.4</ele>
        <time>2022-09-11T09:11:57Z</time>
      </trkpt>
      <trkpt lat="44.54327" lon="6.17944">
        <ele>953.5</ele>
        <time>2022-09-11T09:11:58Z</time>
      </trkpt>
      <trkpt lat="44.54324" lon="6.17942">
        <ele>953.7</ele>
        <time>2022-09-11T09:11:59Z</time>
      </trkpt>
      <trkpt lat="44.54321" lon="6.17941">
        <ele>953.8</ele>
        <time>2022-09-11T09:12:00Z</time>
      </trkpt>
      <trkpt lat="44.54316" lon="6.1794">
        <ele>954</ele>
        <time>2022-09-11T09:12:01Z</time>
      </trkpt>
      <trkpt lat="44.54314" lon="6.17939">
        <ele>954.2</ele>
        <time>2022-09-11T09:12:02Z</time>
      </trkpt>
      <trkpt lat="44.5431" lon="6.17937">
        <ele>954.3</ele>
        <time>2022-09-11T09:12:04Z</time>
      </trkpt>
      <trkpt lat="44.54309" lon="6.17937">
        <ele>954.4</ele>
        <time>2022-09-11T09:12:05Z</time>
      </trkpt>
      <trkpt lat="44.54305" lon="6.17934">
        <ele>954.6</ele>
        <time>2022-09-11T09:12:06Z</time>
      </trkpt>
      <trkpt lat="44.54303" lon="6.17933">
        <ele>954.7</ele>
        <time>2022-09-11T09:12:07Z</time>
      </trkpt>
      <trkpt lat="44.54299" lon="6.17931">
        <ele>954.9</ele>
        <time>2022-09-11T09:12:08Z</time>
      </trkpt>
      <trkpt lat="44.54297" lon="6.1793">
        <ele>954.9</ele>
        <time>2022-09-11T09:12:09Z</time>
      </trkpt>
      <trkpt lat="44.54292" lon="6.17927">
        <ele>955.2</ele>
        <time>2022-09-11T09:12:11Z</time>
      </trkpt>
      <trkpt lat="44.5429" lon="6.17925">
        <ele>955.3</ele>
        <time>2022-09-11T09:12:12Z</time>
      </trkpt>
      <trkpt lat="44.54287" lon="6.17924">
        <ele>955.4</ele>
        <time>2022-09-11T09:12:14Z</time>
      </trkpt>
      <trkpt lat="44.54285" lon="6.17922">
        <ele>955.5</ele>
        <time>2022-09-11T09:12:15Z</time>
      </trkpt>
      <trkpt lat="44.54282" lon="6.1792">
        <ele>955.6</ele>
        <time>2022-09-11T09:12:16Z</time>
      </trkpt>
      <trkpt lat="44.5428" lon="6.17918">
        <ele>955.8</ele>
        <time>2022-09-11T09:12:17Z</time>
      </trkpt>
      <trkpt lat="44.54276" lon="6.17915">
        <ele>955.9</ele>
        <time>2022-09-11T09:12:18Z</time>
      </trkpt>
      <trkpt lat="44.54275" lon="6.17915">
        <ele>956</ele>
        <time>2022-09-11T09:12:19Z</time>
      </trkpt>
      <trkpt lat="44.54269" lon="6.17911">
        <ele>956.2</ele>
        <time>2022-09-11T09:12:20Z</time>
      </trkpt>
      <trkpt lat="44.54267" lon="6.1791">
        <ele>956.4</ele>
        <time>2022-09-11T09:12:22Z</time>
      </trkpt>
      <trkpt lat="44.54264" lon="6.17908">
        <ele>956.5</ele>
        <time>2022-09-11T09:12:23Z</time>
      </trkpt>
      <trkpt lat="44.54261" lon="6.17907">
        <ele>956.6</ele>
        <time>2022-09-11T09:12:24Z</time>
      </trkpt>
      <trkpt lat="44.54258" lon="6.17905">
        <ele>956.7</ele>
        <time>2022-09-11T09:12:25Z</time>
      </trkpt>
      <trkpt lat="44.54255" lon="6.17904">
        <ele>956.8</ele>
        <time>2022-09-11T09:12:26Z</time>
      </trkpt>
      <trkpt lat="44.54252" lon="6.17903">
        <ele>957</ele>
        <time>2022-09-11T09:12:27Z</time>
      </trkpt>
      <trkpt lat="44.54249" lon="6.17901">
        <ele>957.1</ele>
        <time>2022-09-11T09:12:28Z</time>
      </trkpt>
      <trkpt lat="44.54246" lon="6.179">
        <ele>957.2</ele>
        <time>2022-09-11T09:12:29Z</time>
      </trkpt>
      <trkpt lat="44.54243" lon="6.17899">
        <ele>957.4</ele>
        <time>2022-09-11T09:12:30Z</time>
      </trkpt>
      <trkpt lat="44.54239" lon="6.17898">
        <ele>957.5</ele>
        <time>2022-09-11T09:12:31Z</time>
      </trkpt>
      <trkpt lat="44.54238" lon="6.17898">
        <ele>957.6</ele>
        <time>2022-09-11T09:12:32Z</time>
      </trkpt>
      <trkpt lat="44.54234" lon="6.17898">
        <ele>957.7</ele>
        <time>2022-09-11T09:12:33Z</time>
      </trkpt>
      <trkpt lat="44.5423" lon="6.17897">
        <ele>957.9</ele>
        <time>2022-09-11T09:12:34Z</time>
      </trkpt>
      <trkpt lat="44.54224" lon="6.17896">
        <ele>958.2</ele>
        <time>2022-09-11T09:12:36Z</time>
      </trkpt>
      <trkpt lat="44.54222" lon="6.17895">
        <ele>958.3</ele>
        <time>2022-09-11T09:12:37Z</time>
      </trkpt>
      <trkpt lat="44.5422" lon="6.17895">
        <ele>958.3</ele>
        <time>2022-09-11T09:12:38Z</time>
      </trkpt>
      <trkpt lat="44.54217" lon="6.17893">
        <ele>958.5</ele>
        <time>2022-09-11T09:12:39Z</time>
      </trkpt>
      <trkpt lat="44.54214" lon="6.17892">
        <ele>958.6</ele>
        <time>2022-09-11T09:12:40Z</time>
      </trkpt>
      <trkpt lat="44.5421" lon="6.17891">
        <ele>958.8</ele>
        <time>2022-09-11T09:12:41Z</time>
      </trkpt>
      <trkpt lat="44.54207" lon="6.17888">
        <ele>958.9</ele>
        <time>2022-09-11T09:12:42Z</time>
      </trkpt>
      <trkpt lat="44.54205" lon="6.17887">
        <ele>959</ele>
        <time>2022-09-11T09:12:43Z</time>
      </trkpt>
      <trkpt lat="44.54202" lon="6.17884">
        <ele>959.1</ele>
        <time>2022-09-11T09:12:44Z</time>
      </trkpt>
      <trkpt lat="44.54198" lon="6.17879">
        <ele>959.3</ele>
        <time>2022-09-11T09:12:46Z</time>
      </trkpt>
      <trkpt lat="44.54196" lon="6.17876">
        <ele>959.5</ele>
        <time>2022-09-11T09:12:48Z</time>
      </trkpt>
      <trkpt lat="44.54194" lon="6.17872">
        <ele>959.6</ele>
        <time>2022-09-11T09:12:49Z</time>
      </trkpt>
      <trkpt lat="44.5419" lon="6.17866">
        <ele>959.8</ele>
        <time>2022-09-11T09:12:50Z</time>
      </trkpt>
      <trkpt lat="44.54188" lon="6.17861">
        <ele>960</ele>
        <time>2022-09-11T09:12:52Z</time>
      </trkpt>
      <trkpt lat="44.54185" lon="6.17856">
        <ele>960.1</ele>
        <time>2022-09-11T09:12:53Z</time>
      </trkpt>
      <trkpt lat="44.54183" lon="6.17852">
        <ele>960.3</ele>
        <time>2022-09-11T09:12:54Z</time>
      </trkpt>
      <trkpt lat="44.54182" lon="6.17848">
        <ele>960.4</ele>
        <time>2022-09-11T09:12:55Z</time>
      </trkpt>
      <trkpt lat="44.54181" lon="6.17844">
        <ele>960.5</ele>
        <time>2022-09-11T09:12:56Z</time>
      </trkpt>
      <trkpt lat="44.54179" lon="6.1784">
        <ele>960.6</ele>
        <time>2022-09-11T09:12:58Z</time>
      </trkpt>
      <trkpt lat="44.54178" lon="6.17836">
        <ele>960.7</ele>
        <time>2022-09-11T09:12:59Z</time>
      </trkpt>
      <trkpt lat="44.54177" lon="6.17832">
        <ele>960.8</ele>
        <time>2022-09-11T09:13:00Z</time>
      </trkpt>
      <trkpt lat="44.54176" lon="6.17828">
        <ele>960.9</ele>
        <time>2022-09-11T09:13:01Z</time>
      </trkpt>
      <trkpt lat="44.54176" lon="6.17824">
        <ele>961</ele>
        <time>2022-09-11T09:13:02Z</time>
      </trkpt>
      <trkpt lat="44.54175" lon="6.17816">
        <ele>961.2</ele>
        <time>2022-09-11T09:13:03Z</time>
      </trkpt>
      <trkpt lat="44.54174" lon="6.1781">
        <ele>961.3</ele>
        <time>2022-09-11T09:13:05Z</time>
      </trkpt>
      <trkpt lat="44.54174" lon="6.17802">
        <ele>961.5</ele>
        <time>2022-09-11T09:13:06Z</time>
      </trkpt>
      <trkpt lat="44.54174" lon="6.17797">
        <ele>961.6</ele>
        <time>2022-09-11T09:13:08Z</time>
      </trkpt>
      <trkpt lat="44.54174" lon="6.17792">
        <ele>961.7</ele>
        <time>2022-09-11T09:13:09Z</time>
      </trkpt>
      <trkpt lat="44.54175" lon="6.17788">
        <ele>961.8</ele>
        <time>2022-09-11T09:13:10Z</time>
      </trkpt>
      <trkpt lat="44.54175" lon="6.17783">
        <ele>961.9</ele>
        <time>2022-09-11T09:13:11Z</time>
      </trkpt>
      <trkpt lat="44.54176" lon="6.17774">
        <ele>962.1</ele>
        <time>2022-09-11T09:13:12Z</time>
      </trkpt>
      <trkpt lat="44.54176" lon="6.17769">
        <ele>962.2</ele>
        <time>2022-09-11T09:13:13Z</time>
      </trkpt>
      <trkpt lat="44.54177" lon="6.17764">
        <ele>962.3</ele>
        <time>2022-09-11T09:13:14Z</time>
      </trkpt>
      <trkpt lat="44.54178" lon="6.17757">
        <ele>962.4</ele>
        <time>2022-09-11T09:13:16Z</time>
      </trkpt>
      <trkpt lat="44.54179" lon="6.17752">
        <ele>962.5</ele>
        <time>2022-09-11T09:13:17Z</time>
      </trkpt>
      <trkpt lat="44.5418" lon="6.17741">
        <ele>962.8</ele>
        <time>2022-09-11T09:13:18Z</time>
      </trkpt>
      <trkpt lat="44.54181" lon="6.17735">
        <ele>962.9</ele>
        <time>2022-09-11T09:13:20Z</time>
      </trkpt>
      <trkpt lat="44.54182" lon="6.17729">
        <ele>963.1</ele>
        <time>2022-09-11T09:13:21Z</time>
      </trkpt>
      <trkpt lat="44.54184" lon="6.17723">
        <ele>963.2</ele>
        <time>2022-09-11T09:13:22Z</time>
      </trkpt>
      <trkpt lat="44.54186" lon="6.17718">
        <ele>963.3</ele>
        <time>2022-09-11T09:13:23Z</time>
      </trkpt>
      <trkpt lat="44.54188" lon="6.17713">
        <ele>963.5</ele>
        <time>2022-09-11T09:13:24Z</time>
      </trkpt>
      <trkpt lat="44.5419" lon="6.17708">
        <ele>963.7</ele>
        <time>2022-09-11T09:13:25Z</time>
      </trkpt>
      <trkpt lat="44.54195" lon="6.17697">
        <ele>964.1</ele>
        <time>2022-09-11T09:13:27Z</time>
      </trkpt>
      <trkpt lat="44.54196" lon="6.17693">
        <ele>964.3</ele>
        <time>2022-09-11T09:13:28Z</time>
      </trkpt>
      <trkpt lat="44.54199" lon="6.17688">
        <ele>964.5</ele>
        <time>2022-09-11T09:13:29Z</time>
      </trkpt>
      <trkpt lat="44.54201" lon="6.17684">
        <ele>964.7</ele>
        <time>2022-09-11T09:13:31Z</time>
      </trkpt>
      <trkpt lat="44.54203" lon="6.1768">
        <ele>964.9</ele>
        <time>2022-09-11T09:13:32Z</time>
      </trkpt>
      <trkpt lat="44.54204" lon="6.17677">
        <ele>965.1</ele>
        <time>2022-09-11T09:13:33Z</time>
      </trkpt>
      <trkpt lat="44.54206" lon="6.17673">
        <ele>965.3</ele>
        <time>2022-09-11T09:13:34Z</time>
      </trkpt>
      <trkpt lat="44.54207" lon="6.17669">
        <ele>965.5</ele>
        <time>2022-09-11T09:13:35Z</time>
      </trkpt>
      <trkpt lat="44.54209" lon="6.17665">
        <ele>965.7</ele>
        <time>2022-09-11T09:13:36Z</time>
      </trkpt>
      <trkpt lat="44.5421" lon="6.17662">
        <ele>965.9</ele>
        <time>2022-09-11T09:13:37Z</time>
      </trkpt>
      <trkpt lat="44.54212" lon="6.17658">
        <ele>966.1</ele>
        <time>2022-09-11T09:13:38Z</time>
      </trkpt>
      <trkpt lat="44.54213" lon="6.17654">
        <ele>966.4</ele>
        <time>2022-09-11T09:13:39Z</time>
      </trkpt>
      <trkpt lat="44.54215" lon="6.17651">
        <ele>966.6</ele>
        <time>2022-09-11T09:13:40Z</time>
      </trkpt>
      <trkpt lat="44.54217" lon="6.17646">
        <ele>966.9</ele>
        <time>2022-09-11T09:13:41Z</time>
      </trkpt>
      <trkpt lat="44.54217" lon="6.17644">
        <ele>967</ele>
        <time>2022-09-11T09:13:42Z</time>
      </trkpt>
      <trkpt lat="44.54219" lon="6.1764">
        <ele>967.4</ele>
        <time>2022-09-11T09:13:43Z</time>
      </trkpt>
      <trkpt lat="44.5422" lon="6.17638">
        <ele>967.5</ele>
        <time>2022-09-11T09:13:44Z</time>
      </trkpt>
      <trkpt lat="44.54221" lon="6.17633">
        <ele>967.8</ele>
        <time>2022-09-11T09:13:45Z</time>
      </trkpt>
      <trkpt lat="44.54222" lon="6.17631">
        <ele>967.9</ele>
        <time>2022-09-11T09:13:46Z</time>
      </trkpt>
      <trkpt lat="44.54224" lon="6.17627">
        <ele>968.3</ele>
        <time>2022-09-11T09:13:47Z</time>
      </trkpt>
      <trkpt lat="44.54224" lon="6.17626">
        <ele>968.4</ele>
        <time>2022-09-11T09:13:48Z</time>
      </trkpt>
      <trkpt lat="44.54226" lon="6.17622">
        <ele>968.7</ele>
        <time>2022-09-11T09:13:49Z</time>
      </trkpt>
      <trkpt lat="44.54226" lon="6.17621">
        <ele>968.8</ele>
        <time>2022-09-11T09:13:50Z</time>
      </trkpt>
      <trkpt lat="44.54227" lon="6.17616">
        <ele>969.1</ele>
        <time>2022-09-11T09:13:51Z</time>
      </trkpt>
      <trkpt lat="44.54227" lon="6.17614">
        <ele>969.2</ele>
        <time>2022-09-11T09:13:52Z</time>
      </trkpt>
      <trkpt lat="44.54228" lon="6.1761">
        <ele>969.5</ele>
        <time>2022-09-11T09:13:53Z</time>
      </trkpt>
      <trkpt lat="44.54228" lon="6.17609">
        <ele>969.6</ele>
        <time>2022-09-11T09:13:54Z</time>
      </trkpt>
      <trkpt lat="44.5423" lon="6.17604">
        <ele>969.9</ele>
        <time>2022-09-11T09:13:55Z</time>
      </trkpt>
      <trkpt lat="44.5423" lon="6.17601">
        <ele>970.2</ele>
        <time>2022-09-11T09:13:56Z</time>
      </trkpt>
      <trkpt lat="44.54231" lon="6.17598">
        <ele>970.3</ele>
        <time>2022-09-11T09:13:58Z</time>
      </trkpt>
      <trkpt lat="44.54232" lon="6.17594">
        <ele>970.6</ele>
        <time>2022-09-11T09:13:59Z</time>
      </trkpt>
      <trkpt lat="44.54232" lon="6.17592">
        <ele>970.7</ele>
        <time>2022-09-11T09:14:00Z</time>
      </trkpt>
      <trkpt lat="44.54233" lon="6.17587">
        <ele>971.1</ele>
        <time>2022-09-11T09:14:01Z</time>
      </trkpt>
      <trkpt lat="44.54234" lon="6.17585">
        <ele>971.2</ele>
        <time>2022-09-11T09:14:02Z</time>
      </trkpt>
      <trkpt lat="44.54236" lon="6.17581">
        <ele>971.5</ele>
        <time>2022-09-11T09:14:04Z</time>
      </trkpt>
      <trkpt lat="44.54236" lon="6.17576">
        <ele>971.8</ele>
        <time>2022-09-11T09:14:05Z</time>
      </trkpt>
      <trkpt lat="44.54236" lon="6.17575">
        <ele>971.9</ele>
        <time>2022-09-11T09:14:06Z</time>
      </trkpt>
      <trkpt lat="44.54237" lon="6.1757">
        <ele>972.2</ele>
        <time>2022-09-11T09:14:07Z</time>
      </trkpt>
      <trkpt lat="44.54237" lon="6.17568">
        <ele>972.3</ele>
        <time>2022-09-11T09:14:08Z</time>
      </trkpt>
      <trkpt lat="44.54238" lon="6.17565">
        <ele>972.4</ele>
        <time>2022-09-11T09:14:09Z</time>
      </trkpt>
      <trkpt lat="44.54238" lon="6.1756">
        <ele>972.7</ele>
        <time>2022-09-11T09:14:11Z</time>
      </trkpt>
      <trkpt lat="44.54238" lon="6.17555">
        <ele>973</ele>
        <time>2022-09-11T09:14:12Z</time>
      </trkpt>
      <trkpt lat="44.54238" lon="6.17553">
        <ele>973</ele>
        <time>2022-09-11T09:14:13Z</time>
      </trkpt>
      <trkpt lat="44.54238" lon="6.17549">
        <ele>973.2</ele>
        <time>2022-09-11T09:14:14Z</time>
      </trkpt>
      <trkpt lat="44.54237" lon="6.17545">
        <ele>973.4</ele>
        <time>2022-09-11T09:14:15Z</time>
      </trkpt>
      <trkpt lat="44.54236" lon="6.17542">
        <ele>973.6</ele>
        <time>2022-09-11T09:14:16Z</time>
      </trkpt>
      <trkpt lat="44.54236" lon="6.17541">
        <ele>973.7</ele>
        <time>2022-09-11T09:14:17Z</time>
      </trkpt>
      <trkpt lat="44.54235" lon="6.17537">
        <ele>973.9</ele>
        <time>2022-09-11T09:14:18Z</time>
      </trkpt>
      <trkpt lat="44.54233" lon="6.17533">
        <ele>974.1</ele>
        <time>2022-09-11T09:14:20Z</time>
      </trkpt>
      <trkpt lat="44.54232" lon="6.17529">
        <ele>974.3</ele>
        <time>2022-09-11T09:14:21Z</time>
      </trkpt>
      <trkpt lat="44.54232" lon="6.17528">
        <ele>974.4</ele>
        <time>2022-09-11T09:14:22Z</time>
      </trkpt>
      <trkpt lat="44.54229" lon="6.17524">
        <ele>974.6</ele>
        <time>2022-09-11T09:14:23Z</time>
      </trkpt>
      <trkpt lat="44.54225" lon="6.17519">
        <ele>975</ele>
        <time>2022-09-11T09:14:25Z</time>
      </trkpt>
      <trkpt lat="44.54223" lon="6.17517">
        <ele>975.2</ele>
        <time>2022-09-11T09:14:26Z</time>
      </trkpt>
      <trkpt lat="44.5422" lon="6.17515">
        <ele>975.5</ele>
        <time>2022-09-11T09:14:28Z</time>
      </trkpt>
      <trkpt lat="44.54219" lon="6.17514">
        <ele>975.6</ele>
        <time>2022-09-11T09:14:29Z</time>
      </trkpt>
      <trkpt lat="44.54216" lon="6.17513">
        <ele>975.8</ele>
        <time>2022-09-11T09:14:30Z</time>
      </trkpt>
      <trkpt lat="44.54215" lon="6.17513">
        <ele>975.9</ele>
        <time>2022-09-11T09:14:31Z</time>
      </trkpt>
      <trkpt lat="44.54211" lon="6.17511">
        <ele>976.2</ele>
        <time>2022-09-11T09:14:32Z</time>
      </trkpt>
      <trkpt lat="44.54206" lon="6.1751">
        <ele>976.6</ele>
        <time>2022-09-11T09:14:34Z</time>
      </trkpt>
      <trkpt lat="44.54203" lon="6.17509">
        <ele>976.8</ele>
        <time>2022-09-11T09:14:36Z</time>
      </trkpt>
      <trkpt lat="44.54203" lon="6.17508">
        <ele>976.9</ele>
        <time>2022-09-11T09:14:37Z</time>
      </trkpt>
      <trkpt lat="44.54199" lon="6.17505">
        <ele>977.2</ele>
        <time>2022-09-11T09:14:38Z</time>
      </trkpt>
      <trkpt lat="44.54198" lon="6.17503">
        <ele>977.6</ele>
        <time>2022-09-11T09:14:39Z</time>
      </trkpt>
      <trkpt lat="44.54197" lon="6.17501">
        <ele>977.8</ele>
        <time>2022-09-11T09:14:40Z</time>
      </trkpt>
      <trkpt lat="44.54196" lon="6.17498">
        <ele>978</ele>
        <time>2022-09-11T09:14:41Z</time>
      </trkpt>
      <trkpt lat="44.54195" lon="6.17496">
        <ele>978.2</ele>
        <time>2022-09-11T09:14:43Z</time>
      </trkpt>
      <trkpt lat="44.54195" lon="6.17492">
        <ele>978.4</ele>
        <time>2022-09-11T09:14:44Z</time>
      </trkpt>
      <trkpt lat="44.54195" lon="6.17491">
        <ele>978.5</ele>
        <time>2022-09-11T09:14:45Z</time>
      </trkpt>
      <trkpt lat="44.54196" lon="6.17487">
        <ele>978.8</ele>
        <time>2022-09-11T09:14:46Z</time>
      </trkpt>
      <trkpt lat="44.54196" lon="6.17486">
        <ele>978.9</ele>
        <time>2022-09-11T09:14:47Z</time>
      </trkpt>
      <trkpt lat="44.54198" lon="6.17482">
        <ele>979.1</ele>
        <time>2022-09-11T09:14:48Z</time>
      </trkpt>
      <trkpt lat="44.54199" lon="6.17481">
        <ele>979.2</ele>
        <time>2022-09-11T09:14:49Z</time>
      </trkpt>
      <trkpt lat="44.54201" lon="6.17479">
        <ele>979.4</ele>
        <time>2022-09-11T09:14:50Z</time>
      </trkpt>
      <trkpt lat="44.54203" lon="6.17477">
        <ele>979.6</ele>
        <time>2022-09-11T09:14:52Z</time>
      </trkpt>
      <trkpt lat="44.54206" lon="6.17475">
        <ele>979.8</ele>
        <time>2022-09-11T09:14:53Z</time>
      </trkpt>
      <trkpt lat="44.54207" lon="6.17475">
        <ele>979.9</ele>
        <time>2022-09-11T09:14:54Z</time>
      </trkpt>
      <trkpt lat="44.54211" lon="6.17475">
        <ele>980</ele>
        <time>2022-09-11T09:14:55Z</time>
      </trkpt>
      <trkpt lat="44.54213" lon="6.17476">
        <ele>980.1</ele>
        <time>2022-09-11T09:14:56Z</time>
      </trkpt>
      <trkpt lat="44.54215" lon="6.17476">
        <ele>980.2</ele>
        <time>2022-09-11T09:14:57Z</time>
      </trkpt>
      <trkpt lat="44.54218" lon="6.17477">
        <ele>980.3</ele>
        <time>2022-09-11T09:14:59Z</time>
      </trkpt>
      <trkpt lat="44.54221" lon="6.17478">
        <ele>980.4</ele>
        <time>2022-09-11T09:15:00Z</time>
      </trkpt>
      <trkpt lat="44.54222" lon="6.17479">
        <ele>980.4</ele>
        <time>2022-09-11T09:15:01Z</time>
      </trkpt>
      <trkpt lat="44.54227" lon="6.17482">
        <ele>980.5</ele>
        <time>2022-09-11T09:15:02Z</time>
      </trkpt>
      <trkpt lat="44.5423" lon="6.17483">
        <ele>980.6</ele>
        <time>2022-09-11T09:15:04Z</time>
      </trkpt>
      <trkpt lat="44.54231" lon="6.17484">
        <ele>980.6</ele>
        <time>2022-09-11T09:15:05Z</time>
      </trkpt>
      <trkpt lat="44.54235" lon="6.17486">
        <ele>980.7</ele>
        <time>2022-09-11T09:15:06Z</time>
      </trkpt>
      <trkpt lat="44.54236" lon="6.17487">
        <ele>980.7</ele>
        <time>2022-09-11T09:15:07Z</time>
      </trkpt>
      <trkpt lat="44.54239" lon="6.17489">
        <ele>980.8</ele>
        <time>2022-09-11T09:15:08Z</time>
      </trkpt>
      <trkpt lat="44.54242" lon="6.17489">
        <ele>980.9</ele>
        <time>2022-09-11T09:15:10Z</time>
      </trkpt>
      <trkpt lat="44.54246" lon="6.1749">
        <ele>981</ele>
        <time>2022-09-11T09:15:12Z</time>
      </trkpt>
      <trkpt lat="44.54249" lon="6.1749">
        <ele>981.1</ele>
        <time>2022-09-11T09:15:13Z</time>
      </trkpt>
      <trkpt lat="44.5425" lon="6.1749">
        <ele>981.2</ele>
        <time>2022-09-11T09:15:14Z</time>
      </trkpt>
      <trkpt lat="44.54253" lon="6.17491">
        <ele>981.3</ele>
        <time>2022-09-11T09:15:15Z</time>
      </trkpt>
      <trkpt lat="44.54254" lon="6.17492">
        <ele>981.4</ele>
        <time>2022-09-11T09:15:16Z</time>
      </trkpt>
      <trkpt lat="44.54259" lon="6.17492">
        <ele>981.6</ele>
        <time>2022-09-11T09:15:17Z</time>
      </trkpt>
      <trkpt lat="44.54262" lon="6.17492">
        <ele>981.7</ele>
        <time>2022-09-11T09:15:18Z</time>
      </trkpt>
      <trkpt lat="44.54264" lon="6.17493">
        <ele>981.9</ele>
        <time>2022-09-11T09:15:20Z</time>
      </trkpt>
      <trkpt lat="44.54268" lon="6.17493">
        <ele>982.1</ele>
        <time>2022-09-11T09:15:21Z</time>
      </trkpt>
      <trkpt lat="44.54269" lon="6.17492">
        <ele>982.2</ele>
        <time>2022-09-11T09:15:22Z</time>
      </trkpt>
      <trkpt lat="44.54272" lon="6.17493">
        <ele>982.4</ele>
        <time>2022-09-11T09:15:23Z</time>
      </trkpt>
      <trkpt lat="44.54275" lon="6.17493">
        <ele>982.6</ele>
        <time>2022-09-11T09:15:24Z</time>
      </trkpt>
      <trkpt lat="44.54276" lon="6.17493">
        <ele>982.6</ele>
        <time>2022-09-11T09:15:25Z</time>
      </trkpt>
      <trkpt lat="44.5428" lon="6.17493">
        <ele>982.9</ele>
        <time>2022-09-11T09:15:26Z</time>
      </trkpt>
      <trkpt lat="44.54281" lon="6.17492">
        <ele>983</ele>
        <time>2022-09-11T09:15:27Z</time>
      </trkpt>
      <trkpt lat="44.54284" lon="6.17492">
        <ele>983.2</ele>
        <time>2022-09-11T09:15:28Z</time>
      </trkpt>
      <trkpt lat="44.54286" lon="6.17492">
        <ele>983.3</ele>
        <time>2022-09-11T09:15:29Z</time>
      </trkpt>
      <trkpt lat="44.54289" lon="6.17492">
        <ele>983.6</ele>
        <time>2022-09-11T09:15:30Z</time>
      </trkpt>
      <trkpt lat="44.5429" lon="6.17492">
        <ele>983.7</ele>
        <time>2022-09-11T09:15:31Z</time>
      </trkpt>
      <trkpt lat="44.54294" lon="6.17492">
        <ele>984</ele>
        <time>2022-09-11T09:15:32Z</time>
      </trkpt>
      <trkpt lat="44.54295" lon="6.17492">
        <ele>984.1</ele>
        <time>2022-09-11T09:15:33Z</time>
      </trkpt>
      <trkpt lat="44.54299" lon="6.17493">
        <ele>984.4</ele>
        <time>2022-09-11T09:15:34Z</time>
      </trkpt>
      <trkpt lat="44.54301" lon="6.17493">
        <ele>984.6</ele>
        <time>2022-09-11T09:15:35Z</time>
      </trkpt>
      <trkpt lat="44.54303" lon="6.17493">
        <ele>984.8</ele>
        <time>2022-09-11T09:15:37Z</time>
      </trkpt>
      <trkpt lat="44.54307" lon="6.17494">
        <ele>985.1</ele>
        <time>2022-09-11T09:15:38Z</time>
      </trkpt>
      <trkpt lat="44.54308" lon="6.17494">
        <ele>985.2</ele>
        <time>2022-09-11T09:15:39Z</time>
      </trkpt>
      <trkpt lat="44.54309" lon="6.17495">
        <ele>985.4</ele>
        <time>2022-09-11T09:15:40Z</time>
      </trkpt>
      <trkpt lat="44.54311" lon="6.17495">
        <ele>985.5</ele>
        <time>2022-09-11T09:15:41Z</time>
      </trkpt>
      <trkpt lat="44.54314" lon="6.17496">
        <ele>985.8</ele>
        <time>2022-09-11T09:15:42Z</time>
      </trkpt>
      <trkpt lat="44.54315" lon="6.17497">
        <ele>985.9</ele>
        <time>2022-09-11T09:15:43Z</time>
      </trkpt>
      <trkpt lat="44.54319" lon="6.17499">
        <ele>986.3</ele>
        <time>2022-09-11T09:15:45Z</time>
      </trkpt>
      <trkpt lat="44.54322" lon="6.175">
        <ele>986.6</ele>
        <time>2022-09-11T09:15:46Z</time>
      </trkpt>
      <trkpt lat="44.54323" lon="6.175">
        <ele>986.6</ele>
        <time>2022-09-11T09:15:47Z</time>
      </trkpt>
      <trkpt lat="44.54326" lon="6.17502">
        <ele>987</ele>
        <time>2022-09-11T09:15:48Z</time>
      </trkpt>
      <trkpt lat="44.54329" lon="6.17502">
        <ele>987.2</ele>
        <time>2022-09-11T09:15:49Z</time>
      </trkpt>
      <trkpt lat="44.54331" lon="6.17504">
        <ele>987.4</ele>
        <time>2022-09-11T09:15:51Z</time>
      </trkpt>
      <trkpt lat="44.54335" lon="6.17506">
        <ele>987.7</ele>
        <time>2022-09-11T09:15:52Z</time>
      </trkpt>
      <trkpt lat="44.54337" lon="6.17508">
        <ele>988</ele>
        <time>2022-09-11T09:15:54Z</time>
      </trkpt>
      <trkpt lat="44.54338" lon="6.17509">
        <ele>988.1</ele>
        <time>2022-09-11T09:15:55Z</time>
      </trkpt>
      <trkpt lat="44.5434" lon="6.1751">
        <ele>988.3</ele>
        <time>2022-09-11T09:15:56Z</time>
      </trkpt>
      <trkpt lat="44.54345" lon="6.17513">
        <ele>988.7</ele>
        <time>2022-09-11T09:15:58Z</time>
      </trkpt>
      <trkpt lat="44.54347" lon="6.17516">
        <ele>988.9</ele>
        <time>2022-09-11T09:15:59Z</time>
      </trkpt>
      <trkpt lat="44.54348" lon="6.17516">
        <ele>989</ele>
        <time>2022-09-11T09:16:00Z</time>
      </trkpt>
      <trkpt lat="44.54351" lon="6.17518">
        <ele>989.3</ele>
        <time>2022-09-11T09:16:01Z</time>
      </trkpt>
      <trkpt lat="44.54351" lon="6.17519">
        <ele>989.3</ele>
        <time>2022-09-11T09:16:02Z</time>
      </trkpt>
      <trkpt lat="44.54353" lon="6.17521">
        <ele>989.5</ele>
        <time>2022-09-11T09:16:03Z</time>
      </trkpt>
      <trkpt lat="44.54356" lon="6.17523">
        <ele>989.8</ele>
        <time>2022-09-11T09:16:04Z</time>
      </trkpt>
      <trkpt lat="44.5436" lon="6.17527">
        <ele>990.1</ele>
        <time>2022-09-11T09:16:06Z</time>
      </trkpt>
      <trkpt lat="44.54362" lon="6.17529">
        <ele>990.3</ele>
        <time>2022-09-11T09:16:08Z</time>
      </trkpt>
      <trkpt lat="44.54364" lon="6.17532">
        <ele>990.6</ele>
        <time>2022-09-11T09:16:09Z</time>
      </trkpt>
      <trkpt lat="44.54365" lon="6.17533">
        <ele>990.6</ele>
        <time>2022-09-11T09:16:10Z</time>
      </trkpt>
      <trkpt lat="44.54366" lon="6.17537">
        <ele>990.9</ele>
        <time>2022-09-11T09:16:11Z</time>
      </trkpt>
      <trkpt lat="44.54367" lon="6.17538">
        <ele>991</ele>
        <time>2022-09-11T09:16:12Z</time>
      </trkpt>
      <trkpt lat="44.54369" lon="6.17542">
        <ele>991.2</ele>
        <time>2022-09-11T09:16:13Z</time>
      </trkpt>
      <trkpt lat="44.5437" lon="6.17543">
        <ele>991.3</ele>
        <time>2022-09-11T09:16:14Z</time>
      </trkpt>
      <trkpt lat="44.54373" lon="6.17548">
        <ele>991.6</ele>
        <time>2022-09-11T09:16:15Z</time>
      </trkpt>
      <trkpt lat="44.54375" lon="6.17553">
        <ele>991.9</ele>
        <time>2022-09-11T09:16:17Z</time>
      </trkpt>
      <trkpt lat="44.54375" lon="6.17555">
        <ele>992.1</ele>
        <time>2022-09-11T09:16:18Z</time>
      </trkpt>
      <trkpt lat="44.54376" lon="6.17557">
        <ele>992.2</ele>
        <time>2022-09-11T09:16:19Z</time>
      </trkpt>
      <trkpt lat="44.54378" lon="6.17562">
        <ele>992.5</ele>
        <time>2022-09-11T09:16:20Z</time>
      </trkpt>
      <trkpt lat="44.54379" lon="6.17564">
        <ele>992.6</ele>
        <time>2022-09-11T09:16:21Z</time>
      </trkpt>
      <trkpt lat="44.5438" lon="6.17567">
        <ele>992.8</ele>
        <time>2022-09-11T09:16:22Z</time>
      </trkpt>
      <trkpt lat="44.54381" lon="6.17572">
        <ele>993</ele>
        <time>2022-09-11T09:16:23Z</time>
      </trkpt>
      <trkpt lat="44.54382" lon="6.17573">
        <ele>993.1</ele>
        <time>2022-09-11T09:16:24Z</time>
      </trkpt>
      <trkpt lat="44.54383" lon="6.17577">
        <ele>993.3</ele>
        <time>2022-09-11T09:16:25Z</time>
      </trkpt>
      <trkpt lat="44.54384" lon="6.17584">
        <ele>993.6</ele>
        <time>2022-09-11T09:16:26Z</time>
      </trkpt>
      <trkpt lat="44.54385" lon="6.17588">
        <ele>993.8</ele>
        <time>2022-09-11T09:16:28Z</time>
      </trkpt>
      <trkpt lat="44.54386" lon="6.17594">
        <ele>994.1</ele>
        <time>2022-09-11T09:16:29Z</time>
      </trkpt>
      <trkpt lat="44.54387" lon="6.17597">
        <ele>994.2</ele>
        <time>2022-09-11T09:16:30Z</time>
      </trkpt>
      <trkpt lat="44.54387" lon="6.17601">
        <ele>994.4</ele>
        <time>2022-09-11T09:16:32Z</time>
      </trkpt>
      <trkpt lat="44.54386" lon="6.17606">
        <ele>994.6</ele>
        <time>2022-09-11T09:16:33Z</time>
      </trkpt>
      <trkpt lat="44.54387" lon="6.17611">
        <ele>994.8</ele>
        <time>2022-09-11T09:16:34Z</time>
      </trkpt>
      <trkpt lat="44.54387" lon="6.17615">
        <ele>995</ele>
        <time>2022-09-11T09:16:35Z</time>
      </trkpt>
      <trkpt lat="44.54387" lon="6.17619">
        <ele>995.1</ele>
        <time>2022-09-11T09:16:37Z</time>
      </trkpt>
      <trkpt lat="44.54388" lon="6.17623">
        <ele>995.3</ele>
        <time>2022-09-11T09:16:38Z</time>
      </trkpt>
      <trkpt lat="44.54388" lon="6.1763">
        <ele>995.5</ele>
        <time>2022-09-11T09:16:39Z</time>
      </trkpt>
      <trkpt lat="44.54388" lon="6.17636">
        <ele>995.7</ele>
        <time>2022-09-11T09:16:40Z</time>
      </trkpt>
      <trkpt lat="44.54388" lon="6.17638">
        <ele>995.8</ele>
        <time>2022-09-11T09:16:41Z</time>
      </trkpt>
      <trkpt lat="44.54389" lon="6.17642">
        <ele>996</ele>
        <time>2022-09-11T09:16:43Z</time>
      </trkpt>
      <trkpt lat="44.54388" lon="6.17646">
        <ele>996.2</ele>
        <time>2022-09-11T09:16:44Z</time>
      </trkpt>
      <trkpt lat="44.54389" lon="6.17654">
        <ele>996.5</ele>
        <time>2022-09-11T09:16:45Z</time>
      </trkpt>
      <trkpt lat="44.5439" lon="6.17661">
        <ele>996.9</ele>
        <time>2022-09-11T09:16:47Z</time>
      </trkpt>
      <trkpt lat="44.5439" lon="6.17671">
        <ele>997.4</ele>
        <time>2022-09-11T09:16:49Z</time>
      </trkpt>
      <trkpt lat="44.5439" lon="6.17679">
        <ele>997.8</ele>
        <time>2022-09-11T09:16:51Z</time>
      </trkpt>
      <trkpt lat="44.5439" lon="6.17683">
        <ele>998</ele>
        <time>2022-09-11T09:16:52Z</time>
      </trkpt>
      <trkpt lat="44.54391" lon="6.17687">
        <ele>998.3</ele>
        <time>2022-09-11T09:16:54Z</time>
      </trkpt>
      <trkpt lat="44.54392" lon="6.17693">
        <ele>998.8</ele>
        <time>2022-09-11T09:16:55Z</time>
      </trkpt>
      <trkpt lat="44.54395" lon="6.17696">
        <ele>999.1</ele>
        <time>2022-09-11T09:16:56Z</time>
      </trkpt>
      <trkpt lat="44.54398" lon="6.17699">
        <ele>999.5</ele>
        <time>2022-09-11T09:16:57Z</time>
      </trkpt>
      <trkpt lat="44.54403" lon="6.177">
        <ele>999.9</ele>
        <time>2022-09-11T09:16:59Z</time>
      </trkpt>
      <trkpt lat="44.5441" lon="6.177">
        <ele>1000.5</ele>
        <time>2022-09-11T09:17:00Z</time>
      </trkpt>
      <trkpt lat="44.54413" lon="6.17698">
        <ele>1000.8</ele>
        <time>2022-09-11T09:17:02Z</time>
      </trkpt>
      <trkpt lat="44.54416" lon="6.17695">
        <ele>1001</ele>
        <time>2022-09-11T09:17:03Z</time>
      </trkpt>
      <trkpt lat="44.54418" lon="6.1769">
        <ele>1001.1</ele>
        <time>2022-09-11T09:17:04Z</time>
      </trkpt>
      <trkpt lat="44.54418" lon="6.17688">
        <ele>1001.2</ele>
        <time>2022-09-11T09:17:05Z</time>
      </trkpt>
      <trkpt lat="44.54419" lon="6.17685">
        <ele>1001.3</ele>
        <time>2022-09-11T09:17:06Z</time>
      </trkpt>
      <trkpt lat="44.54419" lon="6.17681">
        <ele>1001.3</ele>
        <time>2022-09-11T09:17:07Z</time>
      </trkpt>
      <trkpt lat="44.54419" lon="6.17676">
        <ele>1001.4</ele>
        <time>2022-09-11T09:17:08Z</time>
      </trkpt>
      <trkpt lat="44.54419" lon="6.17672">
        <ele>1001.4</ele>
        <time>2022-09-11T09:17:09Z</time>
      </trkpt>
      <trkpt lat="44.54419" lon="6.17668">
        <ele>1001.4</ele>
        <time>2022-09-11T09:17:10Z</time>
      </trkpt>
      <trkpt lat="44.5442" lon="6.17662">
        <ele>1001.5</ele>
        <time>2022-09-11T09:17:11Z</time>
      </trkpt>
      <trkpt lat="44.5442" lon="6.17654">
        <ele>1001.5</ele>
        <time>2022-09-11T09:17:12Z</time>
      </trkpt>
      <trkpt lat="44.5442" lon="6.1765">
        <ele>1001.6</ele>
        <time>2022-09-11T09:17:14Z</time>
      </trkpt>
      <trkpt lat="44.54421" lon="6.17643">
        <ele>1001.6</ele>
        <time>2022-09-11T09:17:15Z</time>
      </trkpt>
      <trkpt lat="44.54422" lon="6.17637">
        <ele>1001.7</ele>
        <time>2022-09-11T09:17:16Z</time>
      </trkpt>
      <trkpt lat="44.54422" lon="6.17632">
        <ele>1001.8</ele>
        <time>2022-09-11T09:17:18Z</time>
      </trkpt>
      <trkpt lat="44.54422" lon="6.17629">
        <ele>1001.9</ele>
        <time>2022-09-11T09:17:19Z</time>
      </trkpt>
      <trkpt lat="44.54423" lon="6.17623">
        <ele>1002.1</ele>
        <time>2022-09-11T09:17:20Z</time>
      </trkpt>
      <trkpt lat="44.54423" lon="6.17616">
        <ele>1002.4</ele>
        <time>2022-09-11T09:17:21Z</time>
      </trkpt>
      <trkpt lat="44.54423" lon="6.17612">
        <ele>1002.5</ele>
        <time>2022-09-11T09:17:23Z</time>
      </trkpt>
      <trkpt lat="44.54424" lon="6.17607">
        <ele>1002.7</ele>
        <time>2022-09-11T09:17:24Z</time>
      </trkpt>
      <trkpt lat="44.54425" lon="6.17603">
        <ele>1002.9</ele>
        <time>2022-09-11T09:17:26Z</time>
      </trkpt>
      <trkpt lat="44.54426" lon="6.176">
        <ele>1003.1</ele>
        <time>2022-09-11T09:17:27Z</time>
      </trkpt>
      <trkpt lat="44.54428" lon="6.17591">
        <ele>1003.6</ele>
        <time>2022-09-11T09:17:29Z</time>
      </trkpt>
      <trkpt lat="44.54429" lon="6.17588">
        <ele>1003.7</ele>
        <time>2022-09-11T09:17:31Z</time>
      </trkpt>
      <trkpt lat="44.54431" lon="6.17583">
        <ele>1004</ele>
        <time>2022-09-11T09:17:32Z</time>
      </trkpt>
      <trkpt lat="44.54431" lon="6.1758">
        <ele>1004.2</ele>
        <time>2022-09-11T09:17:33Z</time>
      </trkpt>
      <trkpt lat="44.54433" lon="6.17576">
        <ele>1004.4</ele>
        <time>2022-09-11T09:17:35Z</time>
      </trkpt>
      <trkpt lat="44.54434" lon="6.17571">
        <ele>1004.8</ele>
        <time>2022-09-11T09:17:36Z</time>
      </trkpt>
      <trkpt lat="44.54435" lon="6.17565">
        <ele>1005.1</ele>
        <time>2022-09-11T09:17:38Z</time>
      </trkpt>
      <trkpt lat="44.54436" lon="6.17562">
        <ele>1005.3</ele>
        <time>2022-09-11T09:17:39Z</time>
      </trkpt>
      <trkpt lat="44.54437" lon="6.17559">
        <ele>1005.5</ele>
        <time>2022-09-11T09:17:41Z</time>
      </trkpt>
      <trkpt lat="44.54438" lon="6.17554">
        <ele>1005.9</ele>
        <time>2022-09-11T09:17:42Z</time>
      </trkpt>
      <trkpt lat="44.54439" lon="6.17551">
        <ele>1006.1</ele>
        <time>2022-09-11T09:17:43Z</time>
      </trkpt>
      <trkpt lat="44.54439" lon="6.17548">
        <ele>1006.3</ele>
        <time>2022-09-11T09:17:45Z</time>
      </trkpt>
      <trkpt lat="44.5444" lon="6.17543">
        <ele>1006.7</ele>
        <time>2022-09-11T09:17:46Z</time>
      </trkpt>
      <trkpt lat="44.54442" lon="6.17538">
        <ele>1007</ele>
        <time>2022-09-11T09:17:48Z</time>
      </trkpt>
      <trkpt lat="44.54442" lon="6.17537">
        <ele>1007.1</ele>
        <time>2022-09-11T09:17:49Z</time>
      </trkpt>
      <trkpt lat="44.54443" lon="6.17533">
        <ele>1007.4</ele>
        <time>2022-09-11T09:17:50Z</time>
      </trkpt>
      <trkpt lat="44.54444" lon="6.17531">
        <ele>1007.5</ele>
        <time>2022-09-11T09:17:51Z</time>
      </trkpt>
      <trkpt lat="44.54445" lon="6.17527">
        <ele>1007.8</ele>
        <time>2022-09-11T09:17:52Z</time>
      </trkpt>
      <trkpt lat="44.54445" lon="6.17526">
        <ele>1008</ele>
        <time>2022-09-11T09:17:53Z</time>
      </trkpt>
      <trkpt lat="44.54446" lon="6.17521">
        <ele>1008.3</ele>
        <time>2022-09-11T09:17:54Z</time>
      </trkpt>
      <trkpt lat="44.54447" lon="6.1752">
        <ele>1008.4</ele>
        <time>2022-09-11T09:17:55Z</time>
      </trkpt>
      <trkpt lat="44.54448" lon="6.17516">
        <ele>1008.7</ele>
        <time>2022-09-11T09:17:56Z</time>
      </trkpt>
      <trkpt lat="44.54448" lon="6.17514">
        <ele>1008.8</ele>
        <time>2022-09-11T09:17:57Z</time>
      </trkpt>
      <trkpt lat="44.54449" lon="6.1751">
        <ele>1009.2</ele>
        <time>2022-09-11T09:17:58Z</time>
      </trkpt>
      <trkpt lat="44.54449" lon="6.17508">
        <ele>1009.3</ele>
        <time>2022-09-11T09:17:59Z</time>
      </trkpt>
      <trkpt lat="44.5445" lon="6.17504">
        <ele>1009.6</ele>
        <time>2022-09-11T09:18:00Z</time>
      </trkpt>
      <trkpt lat="44.54451" lon="6.17503">
        <ele>1009.7</ele>
        <time>2022-09-11T09:18:01Z</time>
      </trkpt>
      <trkpt lat="44.54452" lon="6.17499">
        <ele>1010</ele>
        <time>2022-09-11T09:18:02Z</time>
      </trkpt>
      <trkpt lat="44.54452" lon="6.17498">
        <ele>1010.1</ele>
        <time>2022-09-11T09:18:03Z</time>
      </trkpt>
      <trkpt lat="44.54453" lon="6.17494">
        <ele>1010.5</ele>
        <time>2022-09-11T09:18:04Z</time>
      </trkpt>
      <trkpt lat="44.54453" lon="6.17493">
        <ele>1010.5</ele>
        <time>2022-09-11T09:18:05Z</time>
      </trkpt>
      <trkpt lat="44.54453" lon="6.17488">
        <ele>1010.9</ele>
        <time>2022-09-11T09:18:06Z</time>
      </trkpt>
      <trkpt lat="44.54454" lon="6.17487">
        <ele>1011</ele>
        <time>2022-09-11T09:18:07Z</time>
      </trkpt>
      <trkpt lat="44.54454" lon="6.17483">
        <ele>1011.3</ele>
        <time>2022-09-11T09:18:08Z</time>
      </trkpt>
      <trkpt lat="44.54455" lon="6.17481">
        <ele>1011.4</ele>
        <time>2022-09-11T09:18:09Z</time>
      </trkpt>
      <trkpt lat="44.54455" lon="6.17477">
        <ele>1011.7</ele>
        <time>2022-09-11T09:18:10Z</time>
      </trkpt>
      <trkpt lat="44.54455" lon="6.17475">
        <ele>1011.9</ele>
        <time>2022-09-11T09:18:11Z</time>
      </trkpt>
      <trkpt lat="44.54456" lon="6.17471">
        <ele>1012.2</ele>
        <time>2022-09-11T09:18:12Z</time>
      </trkpt>
      <trkpt lat="44.54456" lon="6.17469">
        <ele>1012.3</ele>
        <time>2022-09-11T09:18:13Z</time>
      </trkpt>
      <trkpt lat="44.54456" lon="6.17464">
        <ele>1012.7</ele>
        <time>2022-09-11T09:18:14Z</time>
      </trkpt>
      <trkpt lat="44.54456" lon="6.17463">
        <ele>1012.8</ele>
        <time>2022-09-11T09:18:15Z</time>
      </trkpt>
      <trkpt lat="44.54457" lon="6.17458">
        <ele>1013.1</ele>
        <time>2022-09-11T09:18:16Z</time>
      </trkpt>
      <trkpt lat="44.54457" lon="6.17457">
        <ele>1013.2</ele>
        <time>2022-09-11T09:18:17Z</time>
      </trkpt>
      <trkpt lat="44.54457" lon="6.17453">
        <ele>1013.5</ele>
        <time>2022-09-11T09:18:18Z</time>
      </trkpt>
      <trkpt lat="44.54456" lon="6.17451">
        <ele>1013.7</ele>
        <time>2022-09-11T09:18:19Z</time>
      </trkpt>
      <trkpt lat="44.54457" lon="6.17445">
        <ele>1014.1</ele>
        <time>2022-09-11T09:18:20Z</time>
      </trkpt>
      <trkpt lat="44.54457" lon="6.17442">
        <ele>1014.4</ele>
        <time>2022-09-11T09:18:21Z</time>
      </trkpt>
      <trkpt lat="44.54457" lon="6.17439">
        <ele>1014.6</ele>
        <time>2022-09-11T09:18:22Z</time>
      </trkpt>
      <trkpt lat="44.54457" lon="6.17436">
        <ele>1014.8</ele>
        <time>2022-09-11T09:18:23Z</time>
      </trkpt>
      <trkpt lat="44.54457" lon="6.17432">
        <ele>1015</ele>
        <time>2022-09-11T09:18:25Z</time>
      </trkpt>
      <trkpt lat="44.54457" lon="6.17425">
        <ele>1015.6</ele>
        <time>2022-09-11T09:18:27Z</time>
      </trkpt>
      <trkpt lat="44.54458" lon="6.1742">
        <ele>1015.9</ele>
        <time>2022-09-11T09:18:29Z</time>
      </trkpt>
      <trkpt lat="44.54458" lon="6.17413">
        <ele>1016.5</ele>
        <time>2022-09-11T09:18:31Z</time>
      </trkpt>
      <trkpt lat="44.54458" lon="6.1741">
        <ele>1016.6</ele>
        <time>2022-09-11T09:18:32Z</time>
      </trkpt>
      <trkpt lat="44.54458" lon="6.17407">
        <ele>1016.8</ele>
        <time>2022-09-11T09:18:33Z</time>
      </trkpt>
      <trkpt lat="44.54458" lon="6.17403">
        <ele>1017.2</ele>
        <time>2022-09-11T09:18:35Z</time>
      </trkpt>
      <trkpt lat="44.54459" lon="6.17399">
        <ele>1017.4</ele>
        <time>2022-09-11T09:18:36Z</time>
      </trkpt>
      <trkpt lat="44.5446" lon="6.17394">
        <ele>1017.8</ele>
        <time>2022-09-11T09:18:38Z</time>
      </trkpt>
      <trkpt lat="44.5446" lon="6.17389">
        <ele>1018.1</ele>
        <time>2022-09-11T09:18:39Z</time>
      </trkpt>
      <trkpt lat="44.54461" lon="6.17387">
        <ele>1018.2</ele>
        <time>2022-09-11T09:18:40Z</time>
      </trkpt>
      <trkpt lat="44.54461" lon="6.17383">
        <ele>1018.5</ele>
        <time>2022-09-11T09:18:41Z</time>
      </trkpt>
      <trkpt lat="44.54462" lon="6.17381">
        <ele>1018.6</ele>
        <time>2022-09-11T09:18:42Z</time>
      </trkpt>
      <trkpt lat="44.54463" lon="6.17377">
        <ele>1018.9</ele>
        <time>2022-09-11T09:18:43Z</time>
      </trkpt>
      <trkpt lat="44.54463" lon="6.17375">
        <ele>1018.9</ele>
        <time>2022-09-11T09:18:44Z</time>
      </trkpt>
      <trkpt lat="44.54463" lon="6.17372">
        <ele>1019.2</ele>
        <time>2022-09-11T09:18:45Z</time>
      </trkpt>
      <trkpt lat="44.54464" lon="6.1737">
        <ele>1019.3</ele>
        <time>2022-09-11T09:18:46Z</time>
      </trkpt>
      <trkpt lat="44.54464" lon="6.17364">
        <ele>1019.6</ele>
        <time>2022-09-11T09:18:47Z</time>
      </trkpt>
      <trkpt lat="44.54466" lon="6.1736">
        <ele>1019.9</ele>
        <time>2022-09-11T09:18:49Z</time>
      </trkpt>
      <trkpt lat="44.54466" lon="6.17358">
        <ele>1020</ele>
        <time>2022-09-11T09:18:50Z</time>
      </trkpt>
      <trkpt lat="44.54467" lon="6.17354">
        <ele>1020.3</ele>
        <time>2022-09-11T09:18:51Z</time>
      </trkpt>
      <trkpt lat="44.54468" lon="6.17353">
        <ele>1020.4</ele>
        <time>2022-09-11T09:18:52Z</time>
      </trkpt>
      <trkpt lat="44.54469" lon="6.17349">
        <ele>1020.7</ele>
        <time>2022-09-11T09:18:53Z</time>
      </trkpt>
      <trkpt lat="44.54469" lon="6.17348">
        <ele>1020.7</ele>
        <time>2022-09-11T09:18:54Z</time>
      </trkpt>
      <trkpt lat="44.5447" lon="6.17344">
        <ele>1021</ele>
        <time>2022-09-11T09:18:55Z</time>
      </trkpt>
      <trkpt lat="44.5447" lon="6.17343">
        <ele>1021.1</ele>
        <time>2022-09-11T09:18:56Z</time>
      </trkpt>
      <trkpt lat="44.5447" lon="6.17338">
        <ele>1021.3</ele>
        <time>2022-09-11T09:18:57Z</time>
      </trkpt>
      <trkpt lat="44.54471" lon="6.17336">
        <ele>1021.4</ele>
        <time>2022-09-11T09:18:58Z</time>
      </trkpt>
      <trkpt lat="44.54472" lon="6.17332">
        <ele>1021.7</ele>
        <time>2022-09-11T09:18:59Z</time>
      </trkpt>
      <trkpt lat="44.54472" lon="6.17331">
        <ele>1021.8</ele>
        <time>2022-09-11T09:19:00Z</time>
      </trkpt>
      <trkpt lat="44.54472" lon="6.17327">
        <ele>1022</ele>
        <time>2022-09-11T09:19:01Z</time>
      </trkpt>
      <trkpt lat="44.54473" lon="6.17326">
        <ele>1022.1</ele>
        <time>2022-09-11T09:19:02Z</time>
      </trkpt>
      <trkpt lat="44.54474" lon="6.1732">
        <ele>1022.5</ele>
        <time>2022-09-11T09:19:03Z</time>
      </trkpt>
      <trkpt lat="44.54475" lon="6.17317">
        <ele>1022.6</ele>
        <time>2022-09-11T09:19:04Z</time>
      </trkpt>
      <trkpt lat="44.54475" lon="6.17314">
        <ele>1022.8</ele>
        <time>2022-09-11T09:19:06Z</time>
      </trkpt>
      <trkpt lat="44.54476" lon="6.1731">
        <ele>1023</ele>
        <time>2022-09-11T09:19:07Z</time>
      </trkpt>
      <trkpt lat="44.54477" lon="6.17309">
        <ele>1023.1</ele>
        <time>2022-09-11T09:19:08Z</time>
      </trkpt>
      <trkpt lat="44.54477" lon="6.17305">
        <ele>1023.3</ele>
        <time>2022-09-11T09:19:09Z</time>
      </trkpt>
      <trkpt lat="44.54477" lon="6.17303">
        <ele>1023.4</ele>
        <time>2022-09-11T09:19:10Z</time>
      </trkpt>
      <trkpt lat="44.54477" lon="6.17299">
        <ele>1023.6</ele>
        <time>2022-09-11T09:19:11Z</time>
      </trkpt>
      <trkpt lat="44.54477" lon="6.17298">
        <ele>1023.6</ele>
        <time>2022-09-11T09:19:12Z</time>
      </trkpt>
      <trkpt lat="44.54476" lon="6.17292">
        <ele>1023.9</ele>
        <time>2022-09-11T09:19:13Z</time>
      </trkpt>
      <trkpt lat="44.54475" lon="6.17286">
        <ele>1024.2</ele>
        <time>2022-09-11T09:19:15Z</time>
      </trkpt>
      <trkpt lat="44.54475" lon="6.17284">
        <ele>1024.3</ele>
        <time>2022-09-11T09:19:16Z</time>
      </trkpt>
      <trkpt lat="44.54474" lon="6.17279">
        <ele>1024.5</ele>
        <time>2022-09-11T09:19:18Z</time>
      </trkpt>
      <trkpt lat="44.54474" lon="6.17272">
        <ele>1024.8</ele>
        <time>2022-09-11T09:19:19Z</time>
      </trkpt>
      <trkpt lat="44.54474" lon="6.17269">
        <ele>1024.9</ele>
        <time>2022-09-11T09:19:20Z</time>
      </trkpt>
      <trkpt lat="44.54473" lon="6.17264">
        <ele>1025.1</ele>
        <time>2022-09-11T09:19:22Z</time>
      </trkpt>
      <trkpt lat="44.54472" lon="6.17259">
        <ele>1025.2</ele>
        <time>2022-09-11T09:19:23Z</time>
      </trkpt>
      <trkpt lat="44.54471" lon="6.17252">
        <ele>1025.4</ele>
        <time>2022-09-11T09:19:25Z</time>
      </trkpt>
      <trkpt lat="44.5447" lon="6.17249">
        <ele>1025.5</ele>
        <time>2022-09-11T09:19:26Z</time>
      </trkpt>
      <trkpt lat="44.5447" lon="6.17247">
        <ele>1025.6</ele>
        <time>2022-09-11T09:19:27Z</time>
      </trkpt>
      <trkpt lat="44.54469" lon="6.17243">
        <ele>1025.7</ele>
        <time>2022-09-11T09:19:28Z</time>
      </trkpt>
      <trkpt lat="44.54468" lon="6.17239">
        <ele>1025.8</ele>
        <time>2022-09-11T09:19:29Z</time>
      </trkpt>
      <trkpt lat="44.54465" lon="6.17231">
        <ele>1025.9</ele>
        <time>2022-09-11T09:19:30Z</time>
      </trkpt>
      <trkpt lat="44.54464" lon="6.17227">
        <ele>1026</ele>
        <time>2022-09-11T09:19:31Z</time>
      </trkpt>
      <trkpt lat="44.54463" lon="6.17222">
        <ele>1026.1</ele>
        <time>2022-09-11T09:19:33Z</time>
      </trkpt>
      <trkpt lat="44.54463" lon="6.17216">
        <ele>1026.2</ele>
        <time>2022-09-11T09:19:34Z</time>
      </trkpt>
      <trkpt lat="44.54462" lon="6.1721">
        <ele>1026.2</ele>
        <time>2022-09-11T09:19:35Z</time>
      </trkpt>
      <trkpt lat="44.54461" lon="6.17205">
        <ele>1026.3</ele>
        <time>2022-09-11T09:19:36Z</time>
      </trkpt>
      <trkpt lat="44.54461" lon="6.172">
        <ele>1026.3</ele>
        <time>2022-09-11T09:19:38Z</time>
      </trkpt>
      <trkpt lat="44.54461" lon="6.17196">
        <ele>1026.4</ele>
        <time>2022-09-11T09:19:39Z</time>
      </trkpt>
      <trkpt lat="44.5446" lon="6.17192">
        <ele>1026.4</ele>
        <time>2022-09-11T09:19:40Z</time>
      </trkpt>
      <trkpt lat="44.54458" lon="6.17185">
        <ele>1026.4</ele>
        <time>2022-09-11T09:19:41Z</time>
      </trkpt>
      <trkpt lat="44.54457" lon="6.1718">
        <ele>1026.4</ele>
        <time>2022-09-11T09:19:42Z</time>
      </trkpt>
      <trkpt lat="44.54455" lon="6.17175">
        <ele>1026.5</ele>
        <time>2022-09-11T09:19:43Z</time>
      </trkpt>
      <trkpt lat="44.54454" lon="6.17171">
        <ele>1026.5</ele>
        <time>2022-09-11T09:19:44Z</time>
      </trkpt>
      <trkpt lat="44.54454" lon="6.17165">
        <ele>1026.5</ele>
        <time>2022-09-11T09:19:46Z</time>
      </trkpt>
      <trkpt lat="44.54453" lon="6.1716">
        <ele>1026.6</ele>
        <time>2022-09-11T09:19:47Z</time>
      </trkpt>
      <trkpt lat="44.54451" lon="6.17154">
        <ele>1026.6</ele>
        <time>2022-09-11T09:19:48Z</time>
      </trkpt>
      <trkpt lat="44.5445" lon="6.17148">
        <ele>1026.6</ele>
        <time>2022-09-11T09:19:49Z</time>
      </trkpt>
      <trkpt lat="44.54449" lon="6.17143">
        <ele>1026.7</ele>
        <time>2022-09-11T09:19:50Z</time>
      </trkpt>
      <trkpt lat="44.54448" lon="6.17136">
        <ele>1026.7</ele>
        <time>2022-09-11T09:19:51Z</time>
      </trkpt>
      <trkpt lat="44.54447" lon="6.1713">
        <ele>1026.7</ele>
        <time>2022-09-11T09:19:52Z</time>
      </trkpt>
      <trkpt lat="44.54446" lon="6.17124">
        <ele>1026.7</ele>
        <time>2022-09-11T09:19:53Z</time>
      </trkpt>
      <trkpt lat="44.54445" lon="6.17119">
        <ele>1026.8</ele>
        <time>2022-09-11T09:19:54Z</time>
      </trkpt>
      <trkpt lat="44.54444" lon="6.1711">
        <ele>1026.8</ele>
        <time>2022-09-11T09:19:55Z</time>
      </trkpt>
      <trkpt lat="44.54442" lon="6.17103">
        <ele>1026.9</ele>
        <time>2022-09-11T09:19:56Z</time>
      </trkpt>
      <trkpt lat="44.54441" lon="6.17096">
        <ele>1027</ele>
        <time>2022-09-11T09:19:58Z</time>
      </trkpt>
      <trkpt lat="44.5444" lon="6.17085">
        <ele>1027.1</ele>
        <time>2022-09-11T09:19:59Z</time>
      </trkpt>
      <trkpt lat="44.54439" lon="6.17077">
        <ele>1027.2</ele>
        <time>2022-09-11T09:20:01Z</time>
      </trkpt>
      <trkpt lat="44.54438" lon="6.1707">
        <ele>1027.3</ele>
        <time>2022-09-11T09:20:02Z</time>
      </trkpt>
      <trkpt lat="44.54438" lon="6.17062">
        <ele>1027.5</ele>
        <time>2022-09-11T09:20:04Z</time>
      </trkpt>
      <trkpt lat="44.54438" lon="6.17056">
        <ele>1027.6</ele>
        <time>2022-09-11T09:20:05Z</time>
      </trkpt>
      <trkpt lat="44.54438" lon="6.1705">
        <ele>1027.7</ele>
        <time>2022-09-11T09:20:06Z</time>
      </trkpt>
      <trkpt lat="44.54439" lon="6.17042">
        <ele>1027.9</ele>
        <time>2022-09-11T09:20:07Z</time>
      </trkpt>
      <trkpt lat="44.5444" lon="6.17036">
        <ele>1028.1</ele>
        <time>2022-09-11T09:20:08Z</time>
      </trkpt>
      <trkpt lat="44.5444" lon="6.17031">
        <ele>1028.2</ele>
        <time>2022-09-11T09:20:09Z</time>
      </trkpt>
      <trkpt lat="44.5444" lon="6.17026">
        <ele>1028.3</ele>
        <time>2022-09-11T09:20:10Z</time>
      </trkpt>
      <trkpt lat="44.5444" lon="6.17019">
        <ele>1028.5</ele>
        <time>2022-09-11T09:20:11Z</time>
      </trkpt>
      <trkpt lat="44.5444" lon="6.17013">
        <ele>1028.6</ele>
        <time>2022-09-11T09:20:13Z</time>
      </trkpt>
      <trkpt lat="44.54441" lon="6.17004">
        <ele>1028.8</ele>
        <time>2022-09-11T09:20:14Z</time>
      </trkpt>
      <trkpt lat="44.54442" lon="6.16999">
        <ele>1029</ele>
        <time>2022-09-11T09:20:15Z</time>
      </trkpt>
      <trkpt lat="44.54443" lon="6.16993">
        <ele>1029.1</ele>
        <time>2022-09-11T09:20:17Z</time>
      </trkpt>
      <trkpt lat="44.54443" lon="6.16989">
        <ele>1029.2</ele>
        <time>2022-09-11T09:20:18Z</time>
      </trkpt>
      <trkpt lat="44.54443" lon="6.16983">
        <ele>1029.3</ele>
        <time>2022-09-11T09:20:19Z</time>
      </trkpt>
      <trkpt lat="44.54442" lon="6.16978">
        <ele>1029.4</ele>
        <time>2022-09-11T09:20:20Z</time>
      </trkpt>
      <trkpt lat="44.54442" lon="6.16973">
        <ele>1029.5</ele>
        <time>2022-09-11T09:20:21Z</time>
      </trkpt>
      <trkpt lat="44.54442" lon="6.16968">
        <ele>1029.6</ele>
        <time>2022-09-11T09:20:22Z</time>
      </trkpt>
      <trkpt lat="44.54443" lon="6.16964">
        <ele>1029.7</ele>
        <time>2022-09-11T09:20:23Z</time>
      </trkpt>
      <trkpt lat="44.54443" lon="6.16959">
        <ele>1029.8</ele>
        <time>2022-09-11T09:20:24Z</time>
      </trkpt>
      <trkpt lat="44.54444" lon="6.16953">
        <ele>1029.9</ele>
        <time>2022-09-11T09:20:25Z</time>
      </trkpt>
      <trkpt lat="44.54445" lon="6.16948">
        <ele>1030</ele>
        <time>2022-09-11T09:20:26Z</time>
      </trkpt>
      <trkpt lat="44.54446" lon="6.16943">
        <ele>1030.1</ele>
        <time>2022-09-11T09:20:27Z</time>
      </trkpt>
      <trkpt lat="44.54446" lon="6.16938">
        <ele>1030.2</ele>
        <time>2022-09-11T09:20:28Z</time>
      </trkpt>
      <trkpt lat="44.54446" lon="6.1693">
        <ele>1030.3</ele>
        <time>2022-09-11T09:20:30Z</time>
      </trkpt>
      <trkpt lat="44.54447" lon="6.1692">
        <ele>1030.4</ele>
        <time>2022-09-11T09:20:31Z</time>
      </trkpt>
      <trkpt lat="44.54447" lon="6.16914">
        <ele>1030.5</ele>
        <time>2022-09-11T09:20:33Z</time>
      </trkpt>
      <trkpt lat="44.54447" lon="6.16906">
        <ele>1030.6</ele>
        <time>2022-09-11T09:20:34Z</time>
      </trkpt>
      <trkpt lat="44.54447" lon="6.169">
        <ele>1030.7</ele>
        <time>2022-09-11T09:20:35Z</time>
      </trkpt>
      <trkpt lat="44.54447" lon="6.16892">
        <ele>1030.8</ele>
        <time>2022-09-11T09:20:36Z</time>
      </trkpt>
      <trkpt lat="44.54448" lon="6.16885">
        <ele>1030.9</ele>
        <time>2022-09-11T09:20:38Z</time>
      </trkpt>
      <trkpt lat="44.54448" lon="6.16879">
        <ele>1031</ele>
        <time>2022-09-11T09:20:39Z</time>
      </trkpt>
      <trkpt lat="44.54449" lon="6.16874">
        <ele>1031.1</ele>
        <time>2022-09-11T09:20:40Z</time>
      </trkpt>
      <trkpt lat="44.54449" lon="6.16869">
        <ele>1031.1</ele>
        <time>2022-09-11T09:20:41Z</time>
      </trkpt>
      <trkpt lat="44.54451" lon="6.16863">
        <ele>1031.2</ele>
        <time>2022-09-11T09:20:42Z</time>
      </trkpt>
      <trkpt lat="44.54452" lon="6.16857">
        <ele>1031.2</ele>
        <time>2022-09-11T09:20:43Z</time>
      </trkpt>
      <trkpt lat="44.54453" lon="6.16852">
        <ele>1031.3</ele>
        <time>2022-09-11T09:20:44Z</time>
      </trkpt>
      <trkpt lat="44.54455" lon="6.16847">
        <ele>1031.3</ele>
        <time>2022-09-11T09:20:45Z</time>
      </trkpt>
      <trkpt lat="44.54459" lon="6.16838">
        <ele>1031.4</ele>
        <time>2022-09-11T09:20:46Z</time>
      </trkpt>
      <trkpt lat="44.5446" lon="6.16833">
        <ele>1031.5</ele>
        <time>2022-09-11T09:20:48Z</time>
      </trkpt>
      <trkpt lat="44.54463" lon="6.16828">
        <ele>1031.5</ele>
        <time>2022-09-11T09:20:49Z</time>
      </trkpt>
      <trkpt lat="44.54464" lon="6.16826">
        <ele>1031.5</ele>
        <time>2022-09-11T09:20:50Z</time>
      </trkpt>
      <trkpt lat="44.54466" lon="6.16825">
        <ele>1031.6</ele>
        <time>2022-09-11T09:20:51Z</time>
      </trkpt>
      <trkpt lat="44.54466" lon="6.16824">
        <ele>1031.6</ele>
        <time>2022-09-11T09:20:52Z</time>
      </trkpt>
      <trkpt lat="44.54467" lon="6.16824">
        <ele>1031.6</ele>
        <time>2022-09-11T09:20:53Z</time>
      </trkpt>
      <trkpt lat="44.54467" lon="6.16824">
        <ele>1031.6</ele>
        <time>2022-09-11T09:20:54Z</time>
      </trkpt>
      <trkpt lat="44.54467" lon="6.16825">
        <ele>1031.6</ele>
        <time>2022-09-11T09:20:55Z</time>
      </trkpt>
      <trkpt lat="44.54467" lon="6.16825">
        <ele>1031.6</ele>
        <time>2022-09-11T09:20:56Z</time>
      </trkpt>
      <trkpt lat="44.54467" lon="6.16826">
        <ele>1031.6</ele>
        <time>2022-09-11T09:20:57Z</time>
      </trkpt>
      <trkpt lat="44.54467" lon="6.16826">
        <ele>1031.6</ele>
        <time>2022-09-11T09:20:58Z</time>
      </trkpt>
      <trkpt lat="44.54467" lon="6.16826">
        <ele>1031.6</ele>
        <time>2022-09-11T09:20:59Z</time>
      </trkpt>
      <trkpt lat="44.54467" lon="6.16826">
        <ele>1031.6</ele>
        <time>2022-09-11T09:21:00Z</time>
      </trkpt>
      <trkpt lat="44.54467" lon="6.16826">
        <ele>1031.6</ele>
        <time>2022-09-11T09:21:01Z</time>
      </trkpt>
      <trkpt lat="44.54467" lon="6.16826">
        <ele>1031.6</ele>
        <time>2022-09-11T09:21:02Z</time>
      </trkpt>
      <trkpt lat="44.54467" lon="6.16826">
        <ele>1031.6</ele>
        <time>2022-09-11T09:21:03Z</time>
      </trkpt>
      <trkpt lat="44.54467" lon="6.16826">
        <ele>1031.6</ele>
        <time>2022-09-11T09:21:04Z</time>
      </trkpt>
      <trkpt lat="44.54467" lon="6.16826">
        <ele>1031.6</ele>
        <time>2022-09-11T09:21:05Z</time>
      </trkpt>
      <trkpt lat="44.54467" lon="6.16826">
        <ele>1031.6</ele>
        <time>2022-09-11T09:21:06Z</time>
      </trkpt>
      <trkpt lat="44.5447" lon="6.16817">
        <ele>1031.7</ele>
        <time>2022-09-11T09:21:46Z</time>
      </trkpt>
      <trkpt lat="44.54473" lon="6.16814">
        <ele>1031.7</ele>
        <time>2022-09-11T09:21:47Z</time>
      </trkpt>
      <trkpt lat="44.54476" lon="6.16809">
        <ele>1031.8</ele>
        <time>2022-09-11T09:21:49Z</time>
      </trkpt>
      <trkpt lat="44.54477" lon="6.16807">
        <ele>1031.8</ele>
        <time>2022-09-11T09:21:50Z</time>
      </trkpt>
      <trkpt lat="44.54479" lon="6.16804">
        <ele>1031.8</ele>
        <time>2022-09-11T09:21:52Z</time>
      </trkpt>
      <trkpt lat="44.5448" lon="6.16803">
        <ele>1031.8</ele>
        <time>2022-09-11T09:21:53Z</time>
      </trkpt>
      <trkpt lat="44.54483" lon="6.16799">
        <ele>1031.8</ele>
        <time>2022-09-11T09:21:54Z</time>
      </trkpt>
      <trkpt lat="44.54486" lon="6.16796">
        <ele>1031.8</ele>
        <time>2022-09-11T09:21:56Z</time>
      </trkpt>
      <trkpt lat="44.54488" lon="6.16795">
        <ele>1031.8</ele>
        <time>2022-09-11T09:21:57Z</time>
      </trkpt>
      <trkpt lat="44.5449" lon="6.16792">
        <ele>1031.7</ele>
        <time>2022-09-11T09:21:59Z</time>
      </trkpt>
      <trkpt lat="44.54493" lon="6.1679">
        <ele>1031.7</ele>
        <time>2022-09-11T09:22:00Z</time>
      </trkpt>
      <trkpt lat="44.54496" lon="6.16787">
        <ele>1031.7</ele>
        <time>2022-09-11T09:22:02Z</time>
      </trkpt>
      <trkpt lat="44.54496" lon="6.16786">
        <ele>1031.6</ele>
        <time>2022-09-11T09:22:03Z</time>
      </trkpt>
      <trkpt lat="44.545" lon="6.16784">
        <ele>1031.6</ele>
        <time>2022-09-11T09:22:04Z</time>
      </trkpt>
      <trkpt lat="44.54504" lon="6.16782">
        <ele>1031.5</ele>
        <time>2022-09-11T09:22:06Z</time>
      </trkpt>
      <trkpt lat="44.54505" lon="6.16781">
        <ele>1031.5</ele>
        <time>2022-09-11T09:22:08Z</time>
      </trkpt>
      <trkpt lat="44.54507" lon="6.1678">
        <ele>1031.4</ele>
        <time>2022-09-11T09:22:09Z</time>
      </trkpt>
      <trkpt lat="44.54509" lon="6.16775">
        <ele>1031.3</ele>
        <time>2022-09-11T09:22:11Z</time>
      </trkpt>
      <trkpt lat="44.54512" lon="6.16773">
        <ele>1031.2</ele>
        <time>2022-09-11T09:22:12Z</time>
      </trkpt>
      <trkpt lat="44.54514" lon="6.16773">
        <ele>1031.2</ele>
        <time>2022-09-11T09:22:13Z</time>
      </trkpt>
      <trkpt lat="44.54518" lon="6.16771">
        <ele>1031.1</ele>
        <time>2022-09-11T09:22:14Z</time>
      </trkpt>
      <trkpt lat="44.5452" lon="6.16767">
        <ele>1031</ele>
        <time>2022-09-11T09:22:16Z</time>
      </trkpt>
      <trkpt lat="44.54523" lon="6.16766">
        <ele>1030.9</ele>
        <time>2022-09-11T09:22:17Z</time>
      </trkpt>
      <trkpt lat="44.54527" lon="6.16764">
        <ele>1030.8</ele>
        <time>2022-09-11T09:22:18Z</time>
      </trkpt>
      <trkpt lat="44.54528" lon="6.16764">
        <ele>1030.7</ele>
        <time>2022-09-11T09:22:19Z</time>
      </trkpt>
      <trkpt lat="44.54531" lon="6.16763">
        <ele>1030.6</ele>
        <time>2022-09-11T09:22:20Z</time>
      </trkpt>
      <trkpt lat="44.54534" lon="6.16761">
        <ele>1030.5</ele>
        <time>2022-09-11T09:22:21Z</time>
      </trkpt>
      <trkpt lat="44.54537" lon="6.1676">
        <ele>1030.5</ele>
        <time>2022-09-11T09:22:22Z</time>
      </trkpt>
      <trkpt lat="44.5454" lon="6.16759">
        <ele>1030.4</ele>
        <time>2022-09-11T09:22:23Z</time>
      </trkpt>
      <trkpt lat="44.54544" lon="6.16758">
        <ele>1030.3</ele>
        <time>2022-09-11T09:22:24Z</time>
      </trkpt>
      <trkpt lat="44.54548" lon="6.16757">
        <ele>1030.2</ele>
        <time>2022-09-11T09:22:25Z</time>
      </trkpt>
      <trkpt lat="44.54551" lon="6.16756">
        <ele>1030.1</ele>
        <time>2022-09-11T09:22:26Z</time>
      </trkpt>
      <trkpt lat="44.54555" lon="6.16754">
        <ele>1030</ele>
        <time>2022-09-11T09:22:27Z</time>
      </trkpt>
      <trkpt lat="44.54559" lon="6.16752">
        <ele>1029.9</ele>
        <time>2022-09-11T09:22:28Z</time>
      </trkpt>
      <trkpt lat="44.54563" lon="6.16751">
        <ele>1029.8</ele>
        <time>2022-09-11T09:22:29Z</time>
      </trkpt>
      <trkpt lat="44.54567" lon="6.1675">
        <ele>1029.7</ele>
        <time>2022-09-11T09:22:30Z</time>
      </trkpt>
      <trkpt lat="44.54572" lon="6.1675">
        <ele>1029.6</ele>
        <time>2022-09-11T09:22:31Z</time>
      </trkpt>
      <trkpt lat="44.54577" lon="6.16749">
        <ele>1029.5</ele>
        <time>2022-09-11T09:22:32Z</time>
      </trkpt>
      <trkpt lat="44.54582" lon="6.16747">
        <ele>1029.4</ele>
        <time>2022-09-11T09:22:33Z</time>
      </trkpt>
      <trkpt lat="44.54587" lon="6.16746">
        <ele>1029.3</ele>
        <time>2022-09-11T09:22:34Z</time>
      </trkpt>
      <trkpt lat="44.54592" lon="6.16744">
        <ele>1029.2</ele>
        <time>2022-09-11T09:22:35Z</time>
      </trkpt>
      <trkpt lat="44.54597" lon="6.16742">
        <ele>1029.2</ele>
        <time>2022-09-11T09:22:36Z</time>
      </trkpt>
      <trkpt lat="44.54603" lon="6.1674">
        <ele>1029.1</ele>
        <time>2022-09-11T09:22:37Z</time>
      </trkpt>
      <trkpt lat="44.54608" lon="6.16738">
        <ele>1029.1</ele>
        <time>2022-09-11T09:22:38Z</time>
      </trkpt>
      <trkpt lat="44.54613" lon="6.16737">
        <ele>1029</ele>
        <time>2022-09-11T09:22:39Z</time>
      </trkpt>
      <trkpt lat="44.54618" lon="6.16735">
        <ele>1029</ele>
        <time>2022-09-11T09:22:40Z</time>
      </trkpt>
      <trkpt lat="44.54624" lon="6.16733">
        <ele>1029</ele>
        <time>2022-09-11T09:22:41Z</time>
      </trkpt>
      <trkpt lat="44.54628" lon="6.16731">
        <ele>1028.9</ele>
        <time>2022-09-11T09:22:42Z</time>
      </trkpt>
      <trkpt lat="44.54634" lon="6.1673">
        <ele>1028.9</ele>
        <time>2022-09-11T09:22:43Z</time>
      </trkpt>
      <trkpt lat="44.54639" lon="6.16728">
        <ele>1028.9</ele>
        <time>2022-09-11T09:22:44Z</time>
      </trkpt>
      <trkpt lat="44.54645" lon="6.16727">
        <ele>1028.9</ele>
        <time>2022-09-11T09:22:45Z</time>
      </trkpt>
      <trkpt lat="44.54651" lon="6.16726">
        <ele>1029</ele>
        <time>2022-09-11T09:22:46Z</time>
      </trkpt>
      <trkpt lat="44.54656" lon="6.16725">
        <ele>1029.1</ele>
        <time>2022-09-11T09:22:47Z</time>
      </trkpt>
      <trkpt lat="44.54662" lon="6.16724">
        <ele>1029.1</ele>
        <time>2022-09-11T09:22:48Z</time>
      </trkpt>
      <trkpt lat="44.54667" lon="6.16723">
        <ele>1029.2</ele>
        <time>2022-09-11T09:22:49Z</time>
      </trkpt>
      <trkpt lat="44.54672" lon="6.16722">
        <ele>1029.3</ele>
        <time>2022-09-11T09:22:50Z</time>
      </trkpt>
      <trkpt lat="44.54677" lon="6.16721">
        <ele>1029.4</ele>
        <time>2022-09-11T09:22:51Z</time>
      </trkpt>
      <trkpt lat="44.54682" lon="6.16721">
        <ele>1029.6</ele>
        <time>2022-09-11T09:22:52Z</time>
      </trkpt>
      <trkpt lat="44.54688" lon="6.1672">
        <ele>1029.8</ele>
        <time>2022-09-11T09:22:53Z</time>
      </trkpt>
      <trkpt lat="44.54692" lon="6.16719">
        <ele>1029.9</ele>
        <time>2022-09-11T09:22:54Z</time>
      </trkpt>
      <trkpt lat="44.54697" lon="6.16717">
        <ele>1030.2</ele>
        <time>2022-09-11T09:22:55Z</time>
      </trkpt>
      <trkpt lat="44.54701" lon="6.16716">
        <ele>1030.3</ele>
        <time>2022-09-11T09:22:56Z</time>
      </trkpt>
      <trkpt lat="44.54705" lon="6.16715">
        <ele>1030.5</ele>
        <time>2022-09-11T09:22:57Z</time>
      </trkpt>
      <trkpt lat="44.54708" lon="6.16715">
        <ele>1030.7</ele>
        <time>2022-09-11T09:22:58Z</time>
      </trkpt>
      <trkpt lat="44.54712" lon="6.16715">
        <ele>1030.8</ele>
        <time>2022-09-11T09:22:59Z</time>
      </trkpt>
      <trkpt lat="44.54716" lon="6.16714">
        <ele>1031</ele>
        <time>2022-09-11T09:23:00Z</time>
      </trkpt>
      <trkpt lat="44.5472" lon="6.16713">
        <ele>1031.3</ele>
        <time>2022-09-11T09:23:01Z</time>
      </trkpt>
      <trkpt lat="44.54723" lon="6.16713">
        <ele>1031.4</ele>
        <time>2022-09-11T09:23:02Z</time>
      </trkpt>
      <trkpt lat="44.54726" lon="6.16713">
        <ele>1031.6</ele>
        <time>2022-09-11T09:23:03Z</time>
      </trkpt>
      <trkpt lat="44.5473" lon="6.16713">
        <ele>1031.8</ele>
        <time>2022-09-11T09:23:04Z</time>
      </trkpt>
      <trkpt lat="44.54734" lon="6.16712">
        <ele>1032.1</ele>
        <time>2022-09-11T09:23:05Z</time>
      </trkpt>
      <trkpt lat="44.54737" lon="6.16711">
        <ele>1032.3</ele>
        <time>2022-09-11T09:23:06Z</time>
      </trkpt>
      <trkpt lat="44.54743" lon="6.16709">
        <ele>1032.8</ele>
        <time>2022-09-11T09:23:07Z</time>
      </trkpt>
      <trkpt lat="44.54747" lon="6.16709">
        <ele>1033.1</ele>
        <time>2022-09-11T09:23:09Z</time>
      </trkpt>
      <trkpt lat="44.5475" lon="6.16708">
        <ele>1033.3</ele>
        <time>2022-09-11T09:23:10Z</time>
      </trkpt>
      <trkpt lat="44.54754" lon="6.16707">
        <ele>1033.7</ele>
        <time>2022-09-11T09:23:11Z</time>
      </trkpt>
      <trkpt lat="44.54757" lon="6.16706">
        <ele>1033.9</ele>
        <time>2022-09-11T09:23:12Z</time>
      </trkpt>
      <trkpt lat="44.5476" lon="6.16705">
        <ele>1034.1</ele>
        <time>2022-09-11T09:23:13Z</time>
      </trkpt>
      <trkpt lat="44.54763" lon="6.16704">
        <ele>1034.4</ele>
        <time>2022-09-11T09:23:14Z</time>
      </trkpt>
      <trkpt lat="44.54767" lon="6.16703">
        <ele>1034.7</ele>
        <time>2022-09-11T09:23:15Z</time>
      </trkpt>
      <trkpt lat="44.54771" lon="6.16703">
        <ele>1034.9</ele>
        <time>2022-09-11T09:23:17Z</time>
      </trkpt>
      <trkpt lat="44.54775" lon="6.16702">
        <ele>1035.3</ele>
        <time>2022-09-11T09:23:18Z</time>
      </trkpt>
      <trkpt lat="44.54779" lon="6.16701">
        <ele>1035.6</ele>
        <time>2022-09-11T09:23:19Z</time>
      </trkpt>
      <trkpt lat="44.54782" lon="6.167">
        <ele>1035.8</ele>
        <time>2022-09-11T09:23:21Z</time>
      </trkpt>
      <trkpt lat="44.54786" lon="6.16699">
        <ele>1036</ele>
        <time>2022-09-11T09:23:22Z</time>
      </trkpt>
      <trkpt lat="44.54789" lon="6.16697">
        <ele>1036.3</ele>
        <time>2022-09-11T09:23:23Z</time>
      </trkpt>
      <trkpt lat="44.54793" lon="6.16696">
        <ele>1036.5</ele>
        <time>2022-09-11T09:23:25Z</time>
      </trkpt>
      <trkpt lat="44.54797" lon="6.16695">
        <ele>1036.8</ele>
        <time>2022-09-11T09:23:26Z</time>
      </trkpt>
      <trkpt lat="44.54798" lon="6.16695">
        <ele>1036.9</ele>
        <time>2022-09-11T09:23:27Z</time>
      </trkpt>
      <trkpt lat="44.54803" lon="6.16694">
        <ele>1037.2</ele>
        <time>2022-09-11T09:23:29Z</time>
      </trkpt>
      <trkpt lat="44.54807" lon="6.16693">
        <ele>1037.5</ele>
        <time>2022-09-11T09:23:30Z</time>
      </trkpt>
      <trkpt lat="44.54809" lon="6.16693">
        <ele>1037.5</ele>
        <time>2022-09-11T09:23:31Z</time>
      </trkpt>
      <trkpt lat="44.54811" lon="6.16692">
        <ele>1037.5</ele>
        <time>2022-09-11T09:23:32Z</time>
      </trkpt>
      <trkpt lat="44.54816" lon="6.16691">
        <ele>1037.5</ele>
        <time>2022-09-11T09:23:33Z</time>
      </trkpt>
      <trkpt lat="44.5482" lon="6.16689">
        <ele>1037.5</ele>
        <time>2022-09-11T09:23:35Z</time>
      </trkpt>
      <trkpt lat="44.54821" lon="6.16688">
        <ele>1037.5</ele>
        <time>2022-09-11T09:23:36Z</time>
      </trkpt>
      <trkpt lat="44.54824" lon="6.16687">
        <ele>1037.4</ele>
        <time>2022-09-11T09:23:37Z</time>
      </trkpt>
      <trkpt lat="44.54825" lon="6.16686">
        <ele>1037.4</ele>
        <time>2022-09-11T09:23:38Z</time>
      </trkpt>
      <trkpt lat="44.54828" lon="6.16686">
        <ele>1037.4</ele>
        <time>2022-09-11T09:23:39Z</time>
      </trkpt>
      <trkpt lat="44.54829" lon="6.16686">
        <ele>1037.3</ele>
        <time>2022-09-11T09:23:41Z</time>
      </trkpt>
      <trkpt lat="44.54829" lon="6.16686">
        <ele>1037.3</ele>
        <time>2022-09-11T09:23:42Z</time>
      </trkpt>
      <trkpt lat="44.54829" lon="6.16686">
        <ele>1037.3</ele>
        <time>2022-09-11T09:23:43Z</time>
      </trkpt>
      <trkpt lat="44.54829" lon="6.16687">
        <ele>1037.3</ele>
        <time>2022-09-11T09:23:44Z</time>
      </trkpt>
      <trkpt lat="44.54829" lon="6.16687">
        <ele>1037.3</ele>
        <time>2022-09-11T09:23:45Z</time>
      </trkpt>
      <trkpt lat="44.54828" lon="6.16687">
        <ele>1037.3</ele>
        <time>2022-09-11T09:23:46Z</time>
      </trkpt>
      <trkpt lat="44.54828" lon="6.16688">
        <ele>1037.3</ele>
        <time>2022-09-11T09:23:47Z</time>
      </trkpt>
      <trkpt lat="44.54828" lon="6.16688">
        <ele>1037.3</ele>
        <time>2022-09-11T09:23:48Z</time>
      </trkpt>
      <trkpt lat="44.54828" lon="6.16688">
        <ele>1037.3</ele>
        <time>2022-09-11T09:23:49Z</time>
      </trkpt>
      <trkpt lat="44.54827" lon="6.16688">
        <ele>1037.3</ele>
        <time>2022-09-11T09:23:50Z</time>
      </trkpt>
      <trkpt lat="44.54827" lon="6.16688">
        <ele>1037.3</ele>
        <time>2022-09-11T09:23:51Z</time>
      </trkpt>
      <trkpt lat="44.54827" lon="6.16688">
        <ele>1037.3</ele>
        <time>2022-09-11T09:23:52Z</time>
      </trkpt>
      <trkpt lat="44.54827" lon="6.16688">
        <ele>1037.3</ele>
        <time>2022-09-11T09:23:53Z</time>
      </trkpt>
      <trkpt lat="44.54828" lon="6.16687">
        <ele>1037.2</ele>
        <time>2022-09-11T09:23:54Z</time>
      </trkpt>
      <trkpt lat="44.5483" lon="6.16685">
        <ele>1037.2</ele>
        <time>2022-09-11T09:25:25Z</time>
      </trkpt>
      <trkpt lat="44.54832" lon="6.16684">
        <ele>1037.1</ele>
        <time>2022-09-11T09:25:26Z</time>
      </trkpt>
      <trkpt lat="44.54834" lon="6.16682">
        <ele>1037.1</ele>
        <time>2022-09-11T09:25:27Z</time>
      </trkpt>
      <trkpt lat="44.54837" lon="6.16681">
        <ele>1037</ele>
        <time>2022-09-11T09:25:28Z</time>
      </trkpt>
      <trkpt lat="44.5484" lon="6.16679">
        <ele>1036.8</ele>
        <time>2022-09-11T09:25:29Z</time>
      </trkpt>
      <trkpt lat="44.54847" lon="6.16675">
        <ele>1036.6</ele>
        <time>2022-09-11T09:25:30Z</time>
      </trkpt>
      <trkpt lat="44.54851" lon="6.16673">
        <ele>1036.4</ele>
        <time>2022-09-11T09:25:32Z</time>
      </trkpt>
      <trkpt lat="44.54858" lon="6.16671">
        <ele>1036.2</ele>
        <time>2022-09-11T09:25:33Z</time>
      </trkpt>
      <trkpt lat="44.54863" lon="6.1667">
        <ele>1036</ele>
        <time>2022-09-11T09:25:34Z</time>
      </trkpt>
      <trkpt lat="44.54868" lon="6.16667">
        <ele>1035.7</ele>
        <time>2022-09-11T09:25:35Z</time>
      </trkpt>
      <trkpt lat="44.54873" lon="6.16665">
        <ele>1035.5</ele>
        <time>2022-09-11T09:25:36Z</time>
      </trkpt>
      <trkpt lat="44.54879" lon="6.16662">
        <ele>1035.3</ele>
        <time>2022-09-11T09:25:37Z</time>
      </trkpt>
      <trkpt lat="44.54885" lon="6.16661">
        <ele>1035</ele>
        <time>2022-09-11T09:25:38Z</time>
      </trkpt>
      <trkpt lat="44.54891" lon="6.16658">
        <ele>1034.6</ele>
        <time>2022-09-11T09:25:39Z</time>
      </trkpt>
      <trkpt lat="44.54897" lon="6.16656">
        <ele>1034.3</ele>
        <time>2022-09-11T09:25:40Z</time>
      </trkpt>
      <trkpt lat="44.54903" lon="6.16654">
        <ele>1033.9</ele>
        <time>2022-09-11T09:25:41Z</time>
      </trkpt>
      <trkpt lat="44.54909" lon="6.16651">
        <ele>1033.5</ele>
        <time>2022-09-11T09:25:42Z</time>
      </trkpt>
      <trkpt lat="44.54916" lon="6.16648">
        <ele>1033.1</ele>
        <time>2022-09-11T09:25:43Z</time>
      </trkpt>
      <trkpt lat="44.54922" lon="6.16645">
        <ele>1032.7</ele>
        <time>2022-09-11T09:25:44Z</time>
      </trkpt>
      <trkpt lat="44.54928" lon="6.16642">
        <ele>1032.2</ele>
        <time>2022-09-11T09:25:45Z</time>
      </trkpt>
      <trkpt lat="44.54935" lon="6.1664">
        <ele>1031.8</ele>
        <time>2022-09-11T09:25:46Z</time>
      </trkpt>
      <trkpt lat="44.54942" lon="6.16636">
        <ele>1031.3</ele>
        <time>2022-09-11T09:25:47Z</time>
      </trkpt>
      <trkpt lat="44.5495" lon="6.16633">
        <ele>1030.7</ele>
        <time>2022-09-11T09:25:48Z</time>
      </trkpt>
      <trkpt lat="44.54957" lon="6.16629">
        <ele>1030.2</ele>
        <time>2022-09-11T09:25:49Z</time>
      </trkpt>
      <trkpt lat="44.54964" lon="6.16626">
        <ele>1029.6</ele>
        <time>2022-09-11T09:25:50Z</time>
      </trkpt>
      <trkpt lat="44.54971" lon="6.16623">
        <ele>1029.1</ele>
        <time>2022-09-11T09:25:51Z</time>
      </trkpt>
      <trkpt lat="44.54978" lon="6.1662">
        <ele>1028.7</ele>
        <time>2022-09-11T09:25:52Z</time>
      </trkpt>
      <trkpt lat="44.54984" lon="6.16617">
        <ele>1028.2</ele>
        <time>2022-09-11T09:25:53Z</time>
      </trkpt>
      <trkpt lat="44.54989" lon="6.16615">
        <ele>1027.9</ele>
        <time>2022-09-11T09:25:54Z</time>
      </trkpt>
      <trkpt lat="44.54995" lon="6.16612">
        <ele>1027.4</ele>
        <time>2022-09-11T09:25:55Z</time>
      </trkpt>
      <trkpt lat="44.55" lon="6.16609">
        <ele>1027.1</ele>
        <time>2022-09-11T09:25:56Z</time>
      </trkpt>
      <trkpt lat="44.55004" lon="6.16605">
        <ele>1026.7</ele>
        <time>2022-09-11T09:25:57Z</time>
      </trkpt>
      <trkpt lat="44.55008" lon="6.16601">
        <ele>1026.4</ele>
        <time>2022-09-11T09:25:58Z</time>
      </trkpt>
      <trkpt lat="44.55011" lon="6.16598">
        <ele>1026.1</ele>
        <time>2022-09-11T09:25:59Z</time>
      </trkpt>
      <trkpt lat="44.55014" lon="6.16595">
        <ele>1025.9</ele>
        <time>2022-09-11T09:26:00Z</time>
      </trkpt>
      <trkpt lat="44.55015" lon="6.16594">
        <ele>1025.8</ele>
        <time>2022-09-11T09:26:01Z</time>
      </trkpt>
      <trkpt lat="44.55017" lon="6.16591">
        <ele>1025.6</ele>
        <time>2022-09-11T09:26:02Z</time>
      </trkpt>
      <trkpt lat="44.55019" lon="6.16587">
        <ele>1025.4</ele>
        <time>2022-09-11T09:26:03Z</time>
      </trkpt>
      <trkpt lat="44.5502" lon="6.16585">
        <ele>1025.3</ele>
        <time>2022-09-11T09:26:04Z</time>
      </trkpt>
      <trkpt lat="44.55022" lon="6.16582">
        <ele>1025</ele>
        <time>2022-09-11T09:26:05Z</time>
      </trkpt>
      <trkpt lat="44.55023" lon="6.16581">
        <ele>1025</ele>
        <time>2022-09-11T09:26:06Z</time>
      </trkpt>
      <trkpt lat="44.55025" lon="6.16578">
        <ele>1024.8</ele>
        <time>2022-09-11T09:26:07Z</time>
      </trkpt>
      <trkpt lat="44.55026" lon="6.16575">
        <ele>1024.6</ele>
        <time>2022-09-11T09:26:08Z</time>
      </trkpt>
      <trkpt lat="44.55026" lon="6.16574">
        <ele>1024.6</ele>
        <time>2022-09-11T09:26:09Z</time>
      </trkpt>
      <trkpt lat="44.55026" lon="6.16574">
        <ele>1024.6</ele>
        <time>2022-09-11T09:26:10Z</time>
      </trkpt>
      <trkpt lat="44.55026" lon="6.16573">
        <ele>1024.5</ele>
        <time>2022-09-11T09:26:11Z</time>
      </trkpt>
      <trkpt lat="44.55026" lon="6.16573">
        <ele>1024.5</ele>
        <time>2022-09-11T09:26:12Z</time>
      </trkpt>
      <trkpt lat="44.55027" lon="6.16572">
        <ele>1024.5</ele>
        <time>2022-09-11T09:26:13Z</time>
      </trkpt>
      <trkpt lat="44.55027" lon="6.16571">
        <ele>1024.5</ele>
        <time>2022-09-11T09:26:14Z</time>
      </trkpt>
      <trkpt lat="44.55027" lon="6.16571">
        <ele>1024.4</ele>
        <time>2022-09-11T09:26:15Z</time>
      </trkpt>
      <trkpt lat="44.55027" lon="6.1657">
        <ele>1024.4</ele>
        <time>2022-09-11T09:26:16Z</time>
      </trkpt>
      <trkpt lat="44.55027" lon="6.1657">
        <ele>1024.4</ele>
        <time>2022-09-11T09:26:17Z</time>
      </trkpt>
      <trkpt lat="44.55027" lon="6.16569">
        <ele>1024.4</ele>
        <time>2022-09-11T09:26:18Z</time>
      </trkpt>
      <trkpt lat="44.55027" lon="6.16569">
        <ele>1024.3</ele>
        <time>2022-09-11T09:26:19Z</time>
      </trkpt>
      <trkpt lat="44.55027" lon="6.16568">
        <ele>1024.3</ele>
        <time>2022-09-11T09:26:40Z</time>
      </trkpt>
      <trkpt lat="44.55027" lon="6.16567">
        <ele>1024.3</ele>
        <time>2022-09-11T09:26:41Z</time>
      </trkpt>
      <trkpt lat="44.55027" lon="6.16567">
        <ele>1024.3</ele>
        <time>2022-09-11T09:26:42Z</time>
      </trkpt>
      <trkpt lat="44.55029" lon="6.16561">
        <ele>1024</ele>
        <time>2022-09-11T09:26:43Z</time>
      </trkpt>
      <trkpt lat="44.5503" lon="6.16559">
        <ele>1023.8</ele>
        <time>2022-09-11T09:26:44Z</time>
      </trkpt>
      <trkpt lat="44.55031" lon="6.16555">
        <ele>1023.6</ele>
        <time>2022-09-11T09:26:45Z</time>
      </trkpt>
      <trkpt lat="44.55034" lon="6.1655">
        <ele>1023.3</ele>
        <time>2022-09-11T09:26:46Z</time>
      </trkpt>
      <trkpt lat="44.55035" lon="6.16546">
        <ele>1023.1</ele>
        <time>2022-09-11T09:26:47Z</time>
      </trkpt>
      <trkpt lat="44.55037" lon="6.16541">
        <ele>1022.8</ele>
        <time>2022-09-11T09:26:48Z</time>
      </trkpt>
      <trkpt lat="44.55039" lon="6.16537">
        <ele>1022.6</ele>
        <time>2022-09-11T09:26:49Z</time>
      </trkpt>
      <trkpt lat="44.55041" lon="6.16531">
        <ele>1022.3</ele>
        <time>2022-09-11T09:26:50Z</time>
      </trkpt>
      <trkpt lat="44.55045" lon="6.16523">
        <ele>1021.8</ele>
        <time>2022-09-11T09:26:51Z</time>
      </trkpt>
      <trkpt lat="44.55048" lon="6.16516">
        <ele>1021.4</ele>
        <time>2022-09-11T09:26:52Z</time>
      </trkpt>
      <trkpt lat="44.5505" lon="6.16509">
        <ele>1021</ele>
        <time>2022-09-11T09:26:53Z</time>
      </trkpt>
      <trkpt lat="44.55054" lon="6.16499">
        <ele>1020.4</ele>
        <time>2022-09-11T09:26:54Z</time>
      </trkpt>
      <trkpt lat="44.55051" lon="6.16497">
        <ele>1020.2</ele>
        <time>2022-09-11T09:26:56Z</time>
      </trkpt>
      <trkpt lat="44.55054" lon="6.16492">
        <ele>1019.9</ele>
        <time>2022-09-11T09:26:57Z</time>
      </trkpt>
      <trkpt lat="44.55057" lon="6.16488">
        <ele>1019.6</ele>
        <time>2022-09-11T09:26:58Z</time>
      </trkpt>
      <trkpt lat="44.55059" lon="6.16485">
        <ele>1019.3</ele>
        <time>2022-09-11T09:26:59Z</time>
      </trkpt>
      <trkpt lat="44.55062" lon="6.16483">
        <ele>1019.1</ele>
        <time>2022-09-11T09:27:00Z</time>
      </trkpt>
      <trkpt lat="44.55063" lon="6.16476">
        <ele>1018.7</ele>
        <time>2022-09-11T09:27:01Z</time>
      </trkpt>
      <trkpt lat="44.55067" lon="6.16472">
        <ele>1018.4</ele>
        <time>2022-09-11T09:27:03Z</time>
      </trkpt>
      <trkpt lat="44.55068" lon="6.1647">
        <ele>1018.3</ele>
        <time>2022-09-11T09:27:04Z</time>
      </trkpt>
      <trkpt lat="44.55069" lon="6.16469">
        <ele>1018.2</ele>
        <time>2022-09-11T09:27:05Z</time>
      </trkpt>
      <trkpt lat="44.5507" lon="6.16467">
        <ele>1018</ele>
        <time>2022-09-11T09:27:06Z</time>
      </trkpt>
      <trkpt lat="44.55073" lon="6.16461">
        <ele>1017.7</ele>
        <time>2022-09-11T09:27:08Z</time>
      </trkpt>
      <trkpt lat="44.55075" lon="6.16458">
        <ele>1017.5</ele>
        <time>2022-09-11T09:27:09Z</time>
      </trkpt>
      <trkpt lat="44.55077" lon="6.16455">
        <ele>1017.3</ele>
        <time>2022-09-11T09:27:10Z</time>
      </trkpt>
      <trkpt lat="44.55079" lon="6.16451">
        <ele>1017.1</ele>
        <time>2022-09-11T09:27:11Z</time>
      </trkpt>
      <trkpt lat="44.5508" lon="6.1645">
        <ele>1017</ele>
        <time>2022-09-11T09:27:12Z</time>
      </trkpt>
      <trkpt lat="44.55081" lon="6.16447">
        <ele>1016.9</ele>
        <time>2022-09-11T09:27:13Z</time>
      </trkpt>
      <trkpt lat="44.55082" lon="6.16446">
        <ele>1016.8</ele>
        <time>2022-09-11T09:27:14Z</time>
      </trkpt>
      <trkpt lat="44.55082" lon="6.16445">
        <ele>1016.7</ele>
        <time>2022-09-11T09:27:15Z</time>
      </trkpt>
      <trkpt lat="44.55083" lon="6.16444">
        <ele>1016.7</ele>
        <time>2022-09-11T09:27:16Z</time>
      </trkpt>
      <trkpt lat="44.55082" lon="6.16445">
        <ele>1016.6</ele>
        <time>2022-09-11T09:27:17Z</time>
      </trkpt>
      <trkpt lat="44.55082" lon="6.16445">
        <ele>1016.6</ele>
        <time>2022-09-11T09:27:18Z</time>
      </trkpt>
      <trkpt lat="44.55082" lon="6.16445">
        <ele>1016.6</ele>
        <time>2022-09-11T09:27:19Z</time>
      </trkpt>
      <trkpt lat="44.55083" lon="6.16444">
        <ele>1016.5</ele>
        <time>2022-09-11T09:27:20Z</time>
      </trkpt>
      <trkpt lat="44.55084" lon="6.16443">
        <ele>1016.5</ele>
        <time>2022-09-11T09:27:21Z</time>
      </trkpt>
      <trkpt lat="44.55085" lon="6.16441">
        <ele>1016.4</ele>
        <time>2022-09-11T09:27:22Z</time>
      </trkpt>
      <trkpt lat="44.55086" lon="6.16439">
        <ele>1016.3</ele>
        <time>2022-09-11T09:27:23Z</time>
      </trkpt>
      <trkpt lat="44.55088" lon="6.16436">
        <ele>1016.1</ele>
        <time>2022-09-11T09:27:24Z</time>
      </trkpt>
      <trkpt lat="44.55089" lon="6.16435">
        <ele>1016.1</ele>
        <time>2022-09-11T09:27:25Z</time>
      </trkpt>
      <trkpt lat="44.55092" lon="6.16432">
        <ele>1015.8</ele>
        <time>2022-09-11T09:27:26Z</time>
      </trkpt>
      <trkpt lat="44.55093" lon="6.16428">
        <ele>1015.7</ele>
        <time>2022-09-11T09:27:27Z</time>
      </trkpt>
      <trkpt lat="44.55095" lon="6.16425">
        <ele>1015.5</ele>
        <time>2022-09-11T09:27:28Z</time>
      </trkpt>
      <trkpt lat="44.55097" lon="6.16422">
        <ele>1015.4</ele>
        <time>2022-09-11T09:27:29Z</time>
      </trkpt>
      <trkpt lat="44.551" lon="6.16418">
        <ele>1015.2</ele>
        <time>2022-09-11T09:27:30Z</time>
      </trkpt>
      <trkpt lat="44.55103" lon="6.16415">
        <ele>1015</ele>
        <time>2022-09-11T09:27:31Z</time>
      </trkpt>
      <trkpt lat="44.55103" lon="6.16414">
        <ele>1014.9</ele>
        <time>2022-09-11T09:27:32Z</time>
      </trkpt>
      <trkpt lat="44.55105" lon="6.16412">
        <ele>1014.8</ele>
        <time>2022-09-11T09:27:33Z</time>
      </trkpt>
      <trkpt lat="44.55105" lon="6.16412">
        <ele>1014.8</ele>
        <time>2022-09-11T09:27:34Z</time>
      </trkpt>
      <trkpt lat="44.55105" lon="6.16411">
        <ele>1014.8</ele>
        <time>2022-09-11T09:27:35Z</time>
      </trkpt>
      <trkpt lat="44.55105" lon="6.16411">
        <ele>1014.8</ele>
        <time>2022-09-11T09:27:36Z</time>
      </trkpt>
      <trkpt lat="44.55106" lon="6.1641">
        <ele>1014.7</ele>
        <time>2022-09-11T09:27:37Z</time>
      </trkpt>
      <trkpt lat="44.55106" lon="6.1641">
        <ele>1014.7</ele>
        <time>2022-09-11T09:27:38Z</time>
      </trkpt>
      <trkpt lat="44.55106" lon="6.16409">
        <ele>1014.7</ele>
        <time>2022-09-11T09:27:39Z</time>
      </trkpt>
      <trkpt lat="44.55106" lon="6.16409">
        <ele>1014.7</ele>
        <time>2022-09-11T09:27:40Z</time>
      </trkpt>
      <trkpt lat="44.55107" lon="6.16409">
        <ele>1014.7</ele>
        <time>2022-09-11T09:27:41Z</time>
      </trkpt>
      <trkpt lat="44.55107" lon="6.16408">
        <ele>1014.6</ele>
        <time>2022-09-11T09:27:42Z</time>
      </trkpt>
      <trkpt lat="44.55107" lon="6.16408">
        <ele>1014.6</ele>
        <time>2022-09-11T09:27:43Z</time>
      </trkpt>
      <trkpt lat="44.55107" lon="6.16407">
        <ele>1014.6</ele>
        <time>2022-09-11T09:27:44Z</time>
      </trkpt>
      <trkpt lat="44.55108" lon="6.16407">
        <ele>1014.6</ele>
        <time>2022-09-11T09:27:45Z</time>
      </trkpt>
      <trkpt lat="44.55108" lon="6.16406">
        <ele>1014.5</ele>
        <time>2022-09-11T09:27:46Z</time>
      </trkpt>
      <trkpt lat="44.55108" lon="6.16406">
        <ele>1014.5</ele>
        <time>2022-09-11T09:27:47Z</time>
      </trkpt>
      <trkpt lat="44.55108" lon="6.16405">
        <ele>1014.5</ele>
        <time>2022-09-11T09:27:48Z</time>
      </trkpt>
      <trkpt lat="44.55108" lon="6.16405">
        <ele>1014.5</ele>
        <time>2022-09-11T09:28:16Z</time>
      </trkpt>
      <trkpt lat="44.55109" lon="6.16404">
        <ele>1014.5</ele>
        <time>2022-09-11T09:28:17Z</time>
      </trkpt>
      <trkpt lat="44.55109" lon="6.16404">
        <ele>1014.4</ele>
        <time>2022-09-11T09:28:18Z</time>
      </trkpt>
      <trkpt lat="44.55111" lon="6.164">
        <ele>1014.3</ele>
        <time>2022-09-11T09:28:19Z</time>
      </trkpt>
      <trkpt lat="44.55112" lon="6.16398">
        <ele>1014.2</ele>
        <time>2022-09-11T09:28:20Z</time>
      </trkpt>
      <trkpt lat="44.55114" lon="6.16394">
        <ele>1014</ele>
        <time>2022-09-11T09:28:21Z</time>
      </trkpt>
      <trkpt lat="44.55115" lon="6.16391">
        <ele>1013.8</ele>
        <time>2022-09-11T09:28:22Z</time>
      </trkpt>
      <trkpt lat="44.55117" lon="6.16387">
        <ele>1013.6</ele>
        <time>2022-09-11T09:28:23Z</time>
      </trkpt>
      <trkpt lat="44.5512" lon="6.16381">
        <ele>1013.3</ele>
        <time>2022-09-11T09:28:24Z</time>
      </trkpt>
      <trkpt lat="44.55123" lon="6.16376">
        <ele>1013.1</ele>
        <time>2022-09-11T09:28:25Z</time>
      </trkpt>
      <trkpt lat="44.55126" lon="6.1637">
        <ele>1012.8</ele>
        <time>2022-09-11T09:28:26Z</time>
      </trkpt>
      <trkpt lat="44.55129" lon="6.16364">
        <ele>1012.5</ele>
        <time>2022-09-11T09:28:27Z</time>
      </trkpt>
      <trkpt lat="44.55132" lon="6.16358">
        <ele>1012.2</ele>
        <time>2022-09-11T09:28:28Z</time>
      </trkpt>
      <trkpt lat="44.55135" lon="6.16352">
        <ele>1011.9</ele>
        <time>2022-09-11T09:28:29Z</time>
      </trkpt>
      <trkpt lat="44.55138" lon="6.16345">
        <ele>1011.6</ele>
        <time>2022-09-11T09:28:30Z</time>
      </trkpt>
      <trkpt lat="44.55141" lon="6.16338">
        <ele>1011.3</ele>
        <time>2022-09-11T09:28:31Z</time>
      </trkpt>
      <trkpt lat="44.55145" lon="6.1633">
        <ele>1010.9</ele>
        <time>2022-09-11T09:28:32Z</time>
      </trkpt>
      <trkpt lat="44.55149" lon="6.16322">
        <ele>1010.5</ele>
        <time>2022-09-11T09:28:33Z</time>
      </trkpt>
      <trkpt lat="44.55154" lon="6.16315">
        <ele>1010.1</ele>
        <time>2022-09-11T09:28:34Z</time>
      </trkpt>
      <trkpt lat="44.55158" lon="6.16308">
        <ele>1009.7</ele>
        <time>2022-09-11T09:28:35Z</time>
      </trkpt>
      <trkpt lat="44.55163" lon="6.163">
        <ele>1009.3</ele>
        <time>2022-09-11T09:28:36Z</time>
      </trkpt>
      <trkpt lat="44.55167" lon="6.16291">
        <ele>1008.9</ele>
        <time>2022-09-11T09:28:37Z</time>
      </trkpt>
      <trkpt lat="44.55172" lon="6.16284">
        <ele>1008.5</ele>
        <time>2022-09-11T09:28:38Z</time>
      </trkpt>
      <trkpt lat="44.55176" lon="6.16277">
        <ele>1008.1</ele>
        <time>2022-09-11T09:28:39Z</time>
      </trkpt>
      <trkpt lat="44.55181" lon="6.16269">
        <ele>1007.6</ele>
        <time>2022-09-11T09:28:40Z</time>
      </trkpt>
      <trkpt lat="44.55188" lon="6.16262">
        <ele>1007</ele>
        <time>2022-09-11T09:28:41Z</time>
      </trkpt>
      <trkpt lat="44.55195" lon="6.16256">
        <ele>1006.4</ele>
        <time>2022-09-11T09:28:42Z</time>
      </trkpt>
      <trkpt lat="44.55203" lon="6.16251">
        <ele>1005.7</ele>
        <time>2022-09-11T09:28:43Z</time>
      </trkpt>
      <trkpt lat="44.55213" lon="6.16249">
        <ele>1005</ele>
        <time>2022-09-11T09:28:44Z</time>
      </trkpt>
      <trkpt lat="44.55222" lon="6.16248">
        <ele>1004.3</ele>
        <time>2022-09-11T09:28:45Z</time>
      </trkpt>
      <trkpt lat="44.55231" lon="6.16249">
        <ele>1003.7</ele>
        <time>2022-09-11T09:28:46Z</time>
      </trkpt>
      <trkpt lat="44.55238" lon="6.16252">
        <ele>1003.1</ele>
        <time>2022-09-11T09:28:47Z</time>
      </trkpt>
      <trkpt lat="44.55245" lon="6.16256">
        <ele>1002.7</ele>
        <time>2022-09-11T09:28:48Z</time>
      </trkpt>
      <trkpt lat="44.55252" lon="6.16261">
        <ele>1002.4</ele>
        <time>2022-09-11T09:28:49Z</time>
      </trkpt>
      <trkpt lat="44.55259" lon="6.16265">
        <ele>1002</ele>
        <time>2022-09-11T09:28:50Z</time>
      </trkpt>
      <trkpt lat="44.55265" lon="6.1627">
        <ele>1001.8</ele>
        <time>2022-09-11T09:28:51Z</time>
      </trkpt>
      <trkpt lat="44.55269" lon="6.16274">
        <ele>1001.7</ele>
        <time>2022-09-11T09:28:52Z</time>
      </trkpt>
      <trkpt lat="44.55272" lon="6.16276">
        <ele>1001.6</ele>
        <time>2022-09-11T09:28:53Z</time>
      </trkpt>
      <trkpt lat="44.55276" lon="6.16279">
        <ele>1001.6</ele>
        <time>2022-09-11T09:28:54Z</time>
      </trkpt>
      <trkpt lat="44.55279" lon="6.16283">
        <ele>1001.7</ele>
        <time>2022-09-11T09:28:55Z</time>
      </trkpt>
      <trkpt lat="44.55283" lon="6.16286">
        <ele>1001.8</ele>
        <time>2022-09-11T09:28:56Z</time>
      </trkpt>
      <trkpt lat="44.55286" lon="6.1629">
        <ele>1001.9</ele>
        <time>2022-09-11T09:28:57Z</time>
      </trkpt>
      <trkpt lat="44.55289" lon="6.16293">
        <ele>1001.9</ele>
        <time>2022-09-11T09:28:58Z</time>
      </trkpt>
      <trkpt lat="44.55293" lon="6.16296">
        <ele>1002</ele>
        <time>2022-09-11T09:28:59Z</time>
      </trkpt>
      <trkpt lat="44.55296" lon="6.16298">
        <ele>1002.1</ele>
        <time>2022-09-11T09:29:00Z</time>
      </trkpt>
      <trkpt lat="44.55301" lon="6.16302">
        <ele>1002.3</ele>
        <time>2022-09-11T09:29:01Z</time>
      </trkpt>
      <trkpt lat="44.55304" lon="6.16304">
        <ele>1002.4</ele>
        <time>2022-09-11T09:29:02Z</time>
      </trkpt>
      <trkpt lat="44.55308" lon="6.16306">
        <ele>1002.6</ele>
        <time>2022-09-11T09:29:03Z</time>
      </trkpt>
      <trkpt lat="44.55311" lon="6.16309">
        <ele>1002.7</ele>
        <time>2022-09-11T09:29:04Z</time>
      </trkpt>
      <trkpt lat="44.55314" lon="6.16311">
        <ele>1002.9</ele>
        <time>2022-09-11T09:29:05Z</time>
      </trkpt>
      <trkpt lat="44.55317" lon="6.16314">
        <ele>1003.1</ele>
        <time>2022-09-11T09:29:06Z</time>
      </trkpt>
      <trkpt lat="44.5532" lon="6.16316">
        <ele>1003.3</ele>
        <time>2022-09-11T09:29:07Z</time>
      </trkpt>
      <trkpt lat="44.55322" lon="6.16318">
        <ele>1003.4</ele>
        <time>2022-09-11T09:29:08Z</time>
      </trkpt>
      <trkpt lat="44.55325" lon="6.16321">
        <ele>1003.6</ele>
        <time>2022-09-11T09:29:09Z</time>
      </trkpt>
      <trkpt lat="44.55328" lon="6.16324">
        <ele>1003.8</ele>
        <time>2022-09-11T09:29:10Z</time>
      </trkpt>
      <trkpt lat="44.55329" lon="6.16325">
        <ele>1003.9</ele>
        <time>2022-09-11T09:29:11Z</time>
      </trkpt>
      <trkpt lat="44.55332" lon="6.16327">
        <ele>1004.2</ele>
        <time>2022-09-11T09:29:12Z</time>
      </trkpt>
      <trkpt lat="44.55335" lon="6.1633">
        <ele>1004.4</ele>
        <time>2022-09-11T09:29:13Z</time>
      </trkpt>
      <trkpt lat="44.55337" lon="6.16332">
        <ele>1004.6</ele>
        <time>2022-09-11T09:29:14Z</time>
      </trkpt>
      <trkpt lat="44.55338" lon="6.16332">
        <ele>1004.5</ele>
        <time>2022-09-11T09:29:15Z</time>
      </trkpt>
      <trkpt lat="44.55338" lon="6.16334">
        <ele>1004.5</ele>
        <time>2022-09-11T09:29:16Z</time>
      </trkpt>
      <trkpt lat="44.55338" lon="6.16334">
        <ele>1004.5</ele>
        <time>2022-09-11T09:29:17Z</time>
      </trkpt>
      <trkpt lat="44.55338" lon="6.16335">
        <ele>1004.5</ele>
        <time>2022-09-11T09:29:18Z</time>
      </trkpt>
      <trkpt lat="44.55338" lon="6.16335">
        <ele>1004.5</ele>
        <time>2022-09-11T09:29:19Z</time>
      </trkpt>
      <trkpt lat="44.55338" lon="6.16336">
        <ele>1004.5</ele>
        <time>2022-09-11T09:29:20Z</time>
      </trkpt>
      <trkpt lat="44.55338" lon="6.16336">
        <ele>1004.5</ele>
        <time>2022-09-11T09:29:21Z</time>
      </trkpt>
      <trkpt lat="44.55338" lon="6.16337">
        <ele>1004.4</ele>
        <time>2022-09-11T09:29:22Z</time>
      </trkpt>
      <trkpt lat="44.55338" lon="6.16337">
        <ele>1004.4</ele>
        <time>2022-09-11T09:29:23Z</time>
      </trkpt>
      <trkpt lat="44.55338" lon="6.16338">
        <ele>1004.4</ele>
        <time>2022-09-11T09:29:24Z</time>
      </trkpt>
      <trkpt lat="44.55338" lon="6.16338">
        <ele>1004.4</ele>
        <time>2022-09-11T09:29:25Z</time>
      </trkpt>
      <trkpt lat="44.55338" lon="6.16339">
        <ele>1004.4</ele>
        <time>2022-09-11T09:29:26Z</time>
      </trkpt>
      <trkpt lat="44.55338" lon="6.16339">
        <ele>1004.4</ele>
        <time>2022-09-11T09:29:27Z</time>
      </trkpt>
      <trkpt lat="44.55338" lon="6.1634">
        <ele>1004.4</ele>
        <time>2022-09-11T09:29:32Z</time>
      </trkpt>
      <trkpt lat="44.55338" lon="6.1634">
        <ele>1004.4</ele>
        <time>2022-09-11T09:29:33Z</time>
      </trkpt>
      <trkpt lat="44.55338" lon="6.16341">
        <ele>1004.4</ele>
        <time>2022-09-11T09:29:34Z</time>
      </trkpt>
      <trkpt lat="44.55336" lon="6.16345">
        <ele>1004.3</ele>
        <time>2022-09-11T09:29:35Z</time>
      </trkpt>
      <trkpt lat="44.55335" lon="6.1635">
        <ele>1004.1</ele>
        <time>2022-09-11T09:29:36Z</time>
      </trkpt>
      <trkpt lat="44.55334" lon="6.16353">
        <ele>1004.1</ele>
        <time>2022-09-11T09:29:37Z</time>
      </trkpt>
      <trkpt lat="44.55333" lon="6.16358">
        <ele>1004</ele>
        <time>2022-09-11T09:29:38Z</time>
      </trkpt>
      <trkpt lat="44.55331" lon="6.16363">
        <ele>1003.9</ele>
        <time>2022-09-11T09:29:39Z</time>
      </trkpt>
      <trkpt lat="44.55331" lon="6.16365">
        <ele>1003.9</ele>
        <time>2022-09-11T09:29:40Z</time>
      </trkpt>
      <trkpt lat="44.5533" lon="6.1637">
        <ele>1003.8</ele>
        <time>2022-09-11T09:29:41Z</time>
      </trkpt>
      <trkpt lat="44.5533" lon="6.16375">
        <ele>1003.8</ele>
        <time>2022-09-11T09:29:42Z</time>
      </trkpt>
      <trkpt lat="44.5533" lon="6.1638">
        <ele>1003.7</ele>
        <time>2022-09-11T09:29:43Z</time>
      </trkpt>
      <trkpt lat="44.5533" lon="6.16382">
        <ele>1003.7</ele>
        <time>2022-09-11T09:29:44Z</time>
      </trkpt>
      <trkpt lat="44.5533" lon="6.16386">
        <ele>1003.7</ele>
        <time>2022-09-11T09:29:45Z</time>
      </trkpt>
      <trkpt lat="44.5533" lon="6.1639">
        <ele>1003.6</ele>
        <time>2022-09-11T09:29:46Z</time>
      </trkpt>
      <trkpt lat="44.5533" lon="6.16396">
        <ele>1003.7</ele>
        <time>2022-09-11T09:29:47Z</time>
      </trkpt>
      <trkpt lat="44.5533" lon="6.16397">
        <ele>1003.7</ele>
        <time>2022-09-11T09:29:48Z</time>
      </trkpt>
      <trkpt lat="44.55329" lon="6.16399">
        <ele>1003.7</ele>
        <time>2022-09-11T09:29:49Z</time>
      </trkpt>
      <trkpt lat="44.55329" lon="6.164">
        <ele>1003.7</ele>
        <time>2022-09-11T09:29:50Z</time>
      </trkpt>
      <trkpt lat="44.55329" lon="6.164">
        <ele>1003.7</ele>
        <time>2022-09-11T09:29:51Z</time>
      </trkpt>
      <trkpt lat="44.55328" lon="6.16401">
        <ele>1003.7</ele>
        <time>2022-09-11T09:29:52Z</time>
      </trkpt>
      <trkpt lat="44.55328" lon="6.16401">
        <ele>1003.7</ele>
        <time>2022-09-11T09:29:53Z</time>
      </trkpt>
      <trkpt lat="44.55329" lon="6.16401">
        <ele>1003.7</ele>
        <time>2022-09-11T09:29:54Z</time>
      </trkpt>
      <trkpt lat="44.55329" lon="6.164">
        <ele>1003.7</ele>
        <time>2022-09-11T09:29:55Z</time>
      </trkpt>
      <trkpt lat="44.55328" lon="6.16397">
        <ele>1003.8</ele>
        <time>2022-09-11T09:29:56Z</time>
      </trkpt>
      <trkpt lat="44.55327" lon="6.16393">
        <ele>1003.8</ele>
        <time>2022-09-11T09:29:57Z</time>
      </trkpt>
      <trkpt lat="44.55327" lon="6.16392">
        <ele>1003.8</ele>
        <time>2022-09-11T09:29:58Z</time>
      </trkpt>
      <trkpt lat="44.55327" lon="6.16386">
        <ele>1003.8</ele>
        <time>2022-09-11T09:29:59Z</time>
      </trkpt>
      <trkpt lat="44.55327" lon="6.16384">
        <ele>1003.9</ele>
        <time>2022-09-11T09:30:00Z</time>
      </trkpt>
      <trkpt lat="44.55327" lon="6.16378">
        <ele>1003.9</ele>
        <time>2022-09-11T09:30:02Z</time>
      </trkpt>
      <trkpt lat="44.55327" lon="6.16374">
        <ele>1003.9</ele>
        <time>2022-09-11T09:30:03Z</time>
      </trkpt>
      <trkpt lat="44.55327" lon="6.16368">
        <ele>1004</ele>
        <time>2022-09-11T09:30:04Z</time>
      </trkpt>
      <trkpt lat="44.55328" lon="6.16357">
        <ele>1004.1</ele>
        <time>2022-09-11T09:30:05Z</time>
      </trkpt>
      <trkpt lat="44.55329" lon="6.16351">
        <ele>1004.2</ele>
        <time>2022-09-11T09:30:07Z</time>
      </trkpt>
      <trkpt lat="44.55333" lon="6.1634">
        <ele>1004.4</ele>
        <time>2022-09-11T09:30:08Z</time>
      </trkpt>
      <trkpt lat="44.55335" lon="6.16336">
        <ele>1004.5</ele>
        <time>2022-09-11T09:30:10Z</time>
      </trkpt>
      <trkpt lat="44.55337" lon="6.16332">
        <ele>1004.6</ele>
        <time>2022-09-11T09:30:11Z</time>
      </trkpt>
      <trkpt lat="44.55339" lon="6.16328">
        <ele>1004.7</ele>
        <time>2022-09-11T09:30:12Z</time>
      </trkpt>
      <trkpt lat="44.55343" lon="6.16321">
        <ele>1005</ele>
        <time>2022-09-11T09:30:13Z</time>
      </trkpt>
      <trkpt lat="44.55346" lon="6.16314">
        <ele>1005.2</ele>
        <time>2022-09-11T09:30:14Z</time>
      </trkpt>
      <trkpt lat="44.55348" lon="6.1631">
        <ele>1005.3</ele>
        <time>2022-09-11T09:30:16Z</time>
      </trkpt>
      <trkpt lat="44.5535" lon="6.16305">
        <ele>1005.5</ele>
        <time>2022-09-11T09:30:17Z</time>
      </trkpt>
      <trkpt lat="44.55352" lon="6.16301">
        <ele>1005.6</ele>
        <time>2022-09-11T09:30:18Z</time>
      </trkpt>
      <trkpt lat="44.55354" lon="6.16297">
        <ele>1005.7</ele>
        <time>2022-09-11T09:30:19Z</time>
      </trkpt>
      <trkpt lat="44.55357" lon="6.16294">
        <ele>1005.8</ele>
        <time>2022-09-11T09:30:20Z</time>
      </trkpt>
      <trkpt lat="44.5536" lon="6.1629">
        <ele>1006</ele>
        <time>2022-09-11T09:30:21Z</time>
      </trkpt>
      <trkpt lat="44.55362" lon="6.16287">
        <ele>1006.1</ele>
        <time>2022-09-11T09:30:22Z</time>
      </trkpt>
      <trkpt lat="44.55367" lon="6.1628">
        <ele>1008.1</ele>
        <time>2022-09-11T09:30:24Z</time>
      </trkpt>
      <trkpt lat="44.5537" lon="6.16277">
        <ele>1009</ele>
        <time>2022-09-11T09:30:25Z</time>
      </trkpt>
      <trkpt lat="44.55373" lon="6.16275">
        <ele>1009.9</ele>
        <time>2022-09-11T09:30:26Z</time>
      </trkpt>
      <trkpt lat="44.55375" lon="6.16272">
        <ele>1010.7</ele>
        <time>2022-09-11T09:30:27Z</time>
      </trkpt>
      <trkpt lat="44.55378" lon="6.16272">
        <ele>1011.5</ele>
        <time>2022-09-11T09:30:28Z</time>
      </trkpt>
      <trkpt lat="44.55384" lon="6.16271">
        <ele>1013.1</ele>
        <time>2022-09-11T09:30:30Z</time>
      </trkpt>
      <trkpt lat="44.55387" lon="6.16269">
        <ele>1014</ele>
        <time>2022-09-11T09:30:31Z</time>
      </trkpt>
      <trkpt lat="44.55387" lon="6.16269">
        <ele>1014.2</ele>
        <time>2022-09-11T09:30:32Z</time>
      </trkpt>
      <trkpt lat="44.55388" lon="6.16267">
        <ele>1014.5</ele>
        <time>2022-09-11T09:30:33Z</time>
      </trkpt>
      <trkpt lat="44.55389" lon="6.16266">
        <ele>1014.8</ele>
        <time>2022-09-11T09:30:34Z</time>
      </trkpt>
      <trkpt lat="44.5539" lon="6.16265">
        <ele>1015.1</ele>
        <time>2022-09-11T09:30:35Z</time>
      </trkpt>
      <trkpt lat="44.55391" lon="6.16265">
        <ele>1015.4</ele>
        <time>2022-09-11T09:30:36Z</time>
      </trkpt>
      <trkpt lat="44.55391" lon="6.16265">
        <ele>1015.4</ele>
        <time>2022-09-11T09:30:37Z</time>
      </trkpt>
      <trkpt lat="44.5539" lon="6.16264">
        <ele>1015.7</ele>
        <time>2022-09-11T09:30:38Z</time>
      </trkpt>
      <trkpt lat="44.55389" lon="6.16264">
        <ele>1015.8</ele>
        <time>2022-09-11T09:30:39Z</time>
      </trkpt>
      <trkpt lat="44.55389" lon="6.16264">
        <ele>1015.9</ele>
        <time>2022-09-11T09:30:40Z</time>
      </trkpt>
      <trkpt lat="44.55389" lon="6.16264">
        <ele>1015.9</ele>
        <time>2022-09-11T09:30:41Z</time>
      </trkpt>
      <trkpt lat="44.55389" lon="6.16264">
        <ele>1015.9</ele>
        <time>2022-09-11T09:30:42Z</time>
      </trkpt>
      <trkpt lat="44.55389" lon="6.16264">
        <ele>1016</ele>
        <time>2022-09-11T09:30:43Z</time>
      </trkpt>
      <trkpt lat="44.55389" lon="6.16264">
        <ele>1016</ele>
        <time>2022-09-11T09:30:44Z</time>
      </trkpt>
      <trkpt lat="44.5539" lon="6.16264">
        <ele>1016.2</ele>
        <time>2022-09-11T09:30:45Z</time>
      </trkpt>
      <trkpt lat="44.5539" lon="6.16263">
        <ele>1016.4</ele>
        <time>2022-09-11T09:30:46Z</time>
      </trkpt>
      <trkpt lat="44.55391" lon="6.16262">
        <ele>1016.7</ele>
        <time>2022-09-11T09:30:47Z</time>
      </trkpt>
      <trkpt lat="44.55392" lon="6.16261">
        <ele>1016.8</ele>
        <time>2022-09-11T09:30:48Z</time>
      </trkpt>
      <trkpt lat="44.55393" lon="6.16261">
        <ele>1016.8</ele>
        <time>2022-09-11T09:30:49Z</time>
      </trkpt>
      <trkpt lat="44.55393" lon="6.1626">
        <ele>1016.8</ele>
        <time>2022-09-11T09:30:50Z</time>
      </trkpt>
      <trkpt lat="44.55395" lon="6.1626">
        <ele>1016.9</ele>
        <time>2022-09-11T09:30:51Z</time>
      </trkpt>
      <trkpt lat="44.55397" lon="6.16259">
        <ele>1017</ele>
        <time>2022-09-11T09:30:52Z</time>
      </trkpt>
      <trkpt lat="44.55397" lon="6.16259">
        <ele>1017</ele>
        <time>2022-09-11T09:30:53Z</time>
      </trkpt>
      <trkpt lat="44.55398" lon="6.16258">
        <ele>1017</ele>
        <time>2022-09-11T09:30:54Z</time>
      </trkpt>
      <trkpt lat="44.55398" lon="6.16258">
        <ele>1017.1</ele>
        <time>2022-09-11T09:30:55Z</time>
      </trkpt>
      <trkpt lat="44.55399" lon="6.16257">
        <ele>1017.1</ele>
        <time>2022-09-11T09:30:56Z</time>
      </trkpt>
      <trkpt lat="44.554" lon="6.16256">
        <ele>1017.2</ele>
        <time>2022-09-11T09:30:57Z</time>
      </trkpt>
      <trkpt lat="44.55401" lon="6.16255">
        <ele>1017.2</ele>
        <time>2022-09-11T09:30:58Z</time>
      </trkpt>
      <trkpt lat="44.55402" lon="6.16254">
        <ele>1017.3</ele>
        <time>2022-09-11T09:30:59Z</time>
      </trkpt>
      <trkpt lat="44.55402" lon="6.16253">
        <ele>1017.3</ele>
        <time>2022-09-11T09:31:00Z</time>
      </trkpt>
      <trkpt lat="44.55403" lon="6.16251">
        <ele>1017.4</ele>
        <time>2022-09-11T09:31:01Z</time>
      </trkpt>
      <trkpt lat="44.55404" lon="6.1625">
        <ele>1017.4</ele>
        <time>2022-09-11T09:31:02Z</time>
      </trkpt>
      <trkpt lat="44.55404" lon="6.16249">
        <ele>1017.5</ele>
        <time>2022-09-11T09:31:03Z</time>
      </trkpt>
      <trkpt lat="44.55405" lon="6.16246">
        <ele>1017.6</ele>
        <time>2022-09-11T09:31:04Z</time>
      </trkpt>
      <trkpt lat="44.55405" lon="6.16245">
        <ele>1017.6</ele>
        <time>2022-09-11T09:31:05Z</time>
      </trkpt>
      <trkpt lat="44.55406" lon="6.16244">
        <ele>1017.7</ele>
        <time>2022-09-11T09:31:06Z</time>
      </trkpt>
      <trkpt lat="44.55406" lon="6.16243">
        <ele>1017.8</ele>
        <time>2022-09-11T09:31:07Z</time>
      </trkpt>
      <trkpt lat="44.55407" lon="6.16241">
        <ele>1017.8</ele>
        <time>2022-09-11T09:31:08Z</time>
      </trkpt>
      <trkpt lat="44.55407" lon="6.1624">
        <ele>1017.9</ele>
        <time>2022-09-11T09:31:09Z</time>
      </trkpt>
      <trkpt lat="44.55408" lon="6.16238">
        <ele>1018</ele>
        <time>2022-09-11T09:31:10Z</time>
      </trkpt>
      <trkpt lat="44.55408" lon="6.16237">
        <ele>1018</ele>
        <time>2022-09-11T09:31:11Z</time>
      </trkpt>
      <trkpt lat="44.55409" lon="6.16237">
        <ele>1018.1</ele>
        <time>2022-09-11T09:31:12Z</time>
      </trkpt>
      <trkpt lat="44.55409" lon="6.16237">
        <ele>1018.1</ele>
        <time>2022-09-11T09:31:13Z</time>
      </trkpt>
      <trkpt lat="44.55409" lon="6.16236">
        <ele>1018.1</ele>
        <time>2022-09-11T09:31:14Z</time>
      </trkpt>
      <trkpt lat="44.55409" lon="6.16236">
        <ele>1018.1</ele>
        <time>2022-09-11T09:31:15Z</time>
      </trkpt>
      <trkpt lat="44.55408" lon="6.16236">
        <ele>1018.1</ele>
        <time>2022-09-11T09:31:16Z</time>
      </trkpt>
      <trkpt lat="44.55409" lon="6.16236">
        <ele>1018.1</ele>
        <time>2022-09-11T09:31:18Z</time>
      </trkpt>
      <trkpt lat="44.55409" lon="6.16237">
        <ele>1018.2</ele>
        <time>2022-09-11T09:31:19Z</time>
      </trkpt>
      <trkpt lat="44.55409" lon="6.16237">
        <ele>1018.2</ele>
        <time>2022-09-11T09:31:20Z</time>
      </trkpt>
      <trkpt lat="44.55409" lon="6.16237">
        <ele>1018.2</ele>
        <time>2022-09-11T09:31:21Z</time>
      </trkpt>
      <trkpt lat="44.55409" lon="6.16238">
        <ele>1018.2</ele>
        <time>2022-09-11T09:31:22Z</time>
      </trkpt>
      <trkpt lat="44.5541" lon="6.16238">
        <ele>1018.3</ele>
        <time>2022-09-11T09:31:23Z</time>
      </trkpt>
      <trkpt lat="44.5541" lon="6.16238">
        <ele>1018.3</ele>
        <time>2022-09-11T09:31:25Z</time>
      </trkpt>
      <trkpt lat="44.5541" lon="6.16239">
        <ele>1018.3</ele>
        <time>2022-09-11T09:31:27Z</time>
      </trkpt>
      <trkpt lat="44.5541" lon="6.16239">
        <ele>1018.3</ele>
        <time>2022-09-11T09:31:28Z</time>
      </trkpt>
      <trkpt lat="44.5541" lon="6.1624">
        <ele>1018.4</ele>
        <time>2022-09-11T09:31:29Z</time>
      </trkpt>
      <trkpt lat="44.55411" lon="6.1624">
        <ele>1018.4</ele>
        <time>2022-09-11T09:31:30Z</time>
      </trkpt>
      <trkpt lat="44.55411" lon="6.1624">
        <ele>1018.4</ele>
        <time>2022-09-11T09:31:31Z</time>
      </trkpt>
      <trkpt lat="44.55411" lon="6.16241">
        <ele>1018.4</ele>
        <time>2022-09-11T09:31:32Z</time>
      </trkpt>
      <trkpt lat="44.55411" lon="6.16241">
        <ele>1018.5</ele>
        <time>2022-09-11T09:31:33Z</time>
      </trkpt>
      <trkpt lat="44.55411" lon="6.16241">
        <ele>1018.5</ele>
        <time>2022-09-11T09:31:34Z</time>
      </trkpt>
      <trkpt lat="44.55412" lon="6.16242">
        <ele>1018.5</ele>
        <time>2022-09-11T09:31:35Z</time>
      </trkpt>
      <trkpt lat="44.55412" lon="6.16242">
        <ele>1018.5</ele>
        <time>2022-09-11T09:31:47Z</time>
      </trkpt>
      <trkpt lat="44.55412" lon="6.16242">
        <ele>1018.6</ele>
        <time>2022-09-11T09:31:48Z</time>
      </trkpt>
      <trkpt lat="44.55412" lon="6.16243">
        <ele>1018.7</ele>
        <time>2022-09-11T09:31:49Z</time>
      </trkpt>
      <trkpt lat="44.55412" lon="6.16243">
        <ele>1018.7</ele>
        <time>2022-09-11T09:31:50Z</time>
      </trkpt>
      <trkpt lat="44.55414" lon="6.16243">
        <ele>1018.7</ele>
        <time>2022-09-11T09:31:51Z</time>
      </trkpt>
      <trkpt lat="44.55415" lon="6.16243">
        <ele>1018.7</ele>
        <time>2022-09-11T09:31:52Z</time>
      </trkpt>
      <trkpt lat="44.55415" lon="6.16243">
        <ele>1018.8</ele>
        <time>2022-09-11T09:31:53Z</time>
      </trkpt>
      <trkpt lat="44.55415" lon="6.16242">
        <ele>1018.8</ele>
        <time>2022-09-11T09:31:54Z</time>
      </trkpt>
      <trkpt lat="44.55416" lon="6.16242">
        <ele>1018.8</ele>
        <time>2022-09-11T09:31:55Z</time>
      </trkpt>
      <trkpt lat="44.55416" lon="6.16242">
        <ele>1018.8</ele>
        <time>2022-09-11T09:31:56Z</time>
      </trkpt>
      <trkpt lat="44.55417" lon="6.16241">
        <ele>1018.9</ele>
        <time>2022-09-11T09:31:57Z</time>
      </trkpt>
      <trkpt lat="44.55417" lon="6.16242">
        <ele>1018.9</ele>
        <time>2022-09-11T09:31:58Z</time>
      </trkpt>
      <trkpt lat="44.55418" lon="6.16242">
        <ele>1018.9</ele>
        <time>2022-09-11T09:31:59Z</time>
      </trkpt>
      <trkpt lat="44.55419" lon="6.16242">
        <ele>1019</ele>
        <time>2022-09-11T09:32:00Z</time>
      </trkpt>
      <trkpt lat="44.55419" lon="6.16241">
        <ele>1019.1</ele>
        <time>2022-09-11T09:32:01Z</time>
      </trkpt>
      <trkpt lat="44.55419" lon="6.1624">
        <ele>1019.2</ele>
        <time>2022-09-11T09:32:02Z</time>
      </trkpt>
      <trkpt lat="44.55419" lon="6.16239">
        <ele>1019.2</ele>
        <time>2022-09-11T09:32:03Z</time>
      </trkpt>
      <trkpt lat="44.55419" lon="6.16238">
        <ele>1019.2</ele>
        <time>2022-09-11T09:32:04Z</time>
      </trkpt>
      <trkpt lat="44.55419" lon="6.16237">
        <ele>1019.3</ele>
        <time>2022-09-11T09:32:05Z</time>
      </trkpt>
      <trkpt lat="44.5542" lon="6.16232">
        <ele>1019.5</ele>
        <time>2022-09-11T09:32:06Z</time>
      </trkpt>
      <trkpt lat="44.5542" lon="6.16231">
        <ele>1019.6</ele>
        <time>2022-09-11T09:32:07Z</time>
      </trkpt>
      <trkpt lat="44.5542" lon="6.16229">
        <ele>1019.7</ele>
        <time>2022-09-11T09:32:08Z</time>
      </trkpt>
      <trkpt lat="44.5542" lon="6.16228">
        <ele>1019.7</ele>
        <time>2022-09-11T09:32:09Z</time>
      </trkpt>
      <trkpt lat="44.5542" lon="6.16227">
        <ele>1019.8</ele>
        <time>2022-09-11T09:32:10Z</time>
      </trkpt>
      <trkpt lat="44.5542" lon="6.16226">
        <ele>1019.8</ele>
        <time>2022-09-11T09:32:11Z</time>
      </trkpt>
      <trkpt lat="44.5542" lon="6.16223">
        <ele>1019.9</ele>
        <time>2022-09-11T09:32:12Z</time>
      </trkpt>
      <trkpt lat="44.5542" lon="6.16221">
        <ele>1020</ele>
        <time>2022-09-11T09:32:13Z</time>
      </trkpt>
      <trkpt lat="44.5542" lon="6.1622">
        <ele>1020</ele>
        <time>2022-09-11T09:32:14Z</time>
      </trkpt>
      <trkpt lat="44.55421" lon="6.1622">
        <ele>1020</ele>
        <time>2022-09-11T09:32:15Z</time>
      </trkpt>
      <trkpt lat="44.55421" lon="6.16219">
        <ele>1020</ele>
        <time>2022-09-11T09:32:16Z</time>
      </trkpt>
      <trkpt lat="44.55421" lon="6.16217">
        <ele>1020</ele>
        <time>2022-09-11T09:32:17Z</time>
      </trkpt>
      <trkpt lat="44.55422" lon="6.16216">
        <ele>1020.1</ele>
        <time>2022-09-11T09:32:18Z</time>
      </trkpt>
      <trkpt lat="44.55422" lon="6.16215">
        <ele>1020.1</ele>
        <time>2022-09-11T09:32:19Z</time>
      </trkpt>
      <trkpt lat="44.55422" lon="6.16214">
        <ele>1020.1</ele>
        <time>2022-09-11T09:32:20Z</time>
      </trkpt>
      <trkpt lat="44.55422" lon="6.16212">
        <ele>1020.1</ele>
        <time>2022-09-11T09:32:21Z</time>
      </trkpt>
      <trkpt lat="44.55422" lon="6.16207">
        <ele>1020.1</ele>
        <time>2022-09-11T09:32:23Z</time>
      </trkpt>
      <trkpt lat="44.55423" lon="6.16205">
        <ele>1020.1</ele>
        <time>2022-09-11T09:32:24Z</time>
      </trkpt>
      <trkpt lat="44.55423" lon="6.16203">
        <ele>1020.1</ele>
        <time>2022-09-11T09:32:26Z</time>
      </trkpt>
      <trkpt lat="44.55423" lon="6.16201">
        <ele>1020.1</ele>
        <time>2022-09-11T09:32:28Z</time>
      </trkpt>
      <trkpt lat="44.55423" lon="6.16199">
        <ele>1020.1</ele>
        <time>2022-09-11T09:32:29Z</time>
      </trkpt>
      <trkpt lat="44.55424" lon="6.16197">
        <ele>1020</ele>
        <time>2022-09-11T09:32:31Z</time>
      </trkpt>
      <trkpt lat="44.55425" lon="6.16196">
        <ele>1020</ele>
        <time>2022-09-11T09:32:32Z</time>
      </trkpt>
      <trkpt lat="44.55426" lon="6.16193">
        <ele>1019.9</ele>
        <time>2022-09-11T09:32:33Z</time>
      </trkpt>
      <trkpt lat="44.55427" lon="6.16192">
        <ele>1019.9</ele>
        <time>2022-09-11T09:32:34Z</time>
      </trkpt>
      <trkpt lat="44.55427" lon="6.1619">
        <ele>1019.9</ele>
        <time>2022-09-11T09:32:35Z</time>
      </trkpt>
      <trkpt lat="44.55428" lon="6.16189">
        <ele>1019.9</ele>
        <time>2022-09-11T09:32:36Z</time>
      </trkpt>
      <trkpt lat="44.55428" lon="6.16187">
        <ele>1019.9</ele>
        <time>2022-09-11T09:32:37Z</time>
      </trkpt>
      <trkpt lat="44.55428" lon="6.16186">
        <ele>1019.8</ele>
        <time>2022-09-11T09:32:38Z</time>
      </trkpt>
      <trkpt lat="44.55429" lon="6.16181">
        <ele>1019.8</ele>
        <time>2022-09-11T09:32:40Z</time>
      </trkpt>
      <trkpt lat="44.55429" lon="6.1618">
        <ele>1019.8</ele>
        <time>2022-09-11T09:32:41Z</time>
      </trkpt>
      <trkpt lat="44.5543" lon="6.16178">
        <ele>1019.7</ele>
        <time>2022-09-11T09:32:43Z</time>
      </trkpt>
      <trkpt lat="44.5543" lon="6.16177">
        <ele>1019.7</ele>
        <time>2022-09-11T09:32:44Z</time>
      </trkpt>
      <trkpt lat="44.5543" lon="6.16175">
        <ele>1019.7</ele>
        <time>2022-09-11T09:32:45Z</time>
      </trkpt>
      <trkpt lat="44.5543" lon="6.16174">
        <ele>1019.7</ele>
        <time>2022-09-11T09:32:46Z</time>
      </trkpt>
      <trkpt lat="44.5543" lon="6.16173">
        <ele>1019.7</ele>
        <time>2022-09-11T09:32:47Z</time>
      </trkpt>
      <trkpt lat="44.5543" lon="6.16172">
        <ele>1019.7</ele>
        <time>2022-09-11T09:32:48Z</time>
      </trkpt>
      <trkpt lat="44.55431" lon="6.16169">
        <ele>1019.7</ele>
        <time>2022-09-11T09:32:49Z</time>
      </trkpt>
      <trkpt lat="44.55432" lon="6.16168">
        <ele>1019.7</ele>
        <time>2022-09-11T09:32:50Z</time>
      </trkpt>
      <trkpt lat="44.55432" lon="6.16167">
        <ele>1019.7</ele>
        <time>2022-09-11T09:32:51Z</time>
      </trkpt>
      <trkpt lat="44.55433" lon="6.16166">
        <ele>1019.8</ele>
        <time>2022-09-11T09:32:52Z</time>
      </trkpt>
      <trkpt lat="44.55433" lon="6.16165">
        <ele>1019.8</ele>
        <time>2022-09-11T09:32:53Z</time>
      </trkpt>
      <trkpt lat="44.55434" lon="6.16164">
        <ele>1019.8</ele>
        <time>2022-09-11T09:32:54Z</time>
      </trkpt>
      <trkpt lat="44.55435" lon="6.16162">
        <ele>1019.8</ele>
        <time>2022-09-11T09:32:55Z</time>
      </trkpt>
      <trkpt lat="44.55436" lon="6.1616">
        <ele>1019.9</ele>
        <time>2022-09-11T09:32:57Z</time>
      </trkpt>
      <trkpt lat="44.55436" lon="6.16159">
        <ele>1019.9</ele>
        <time>2022-09-11T09:32:58Z</time>
      </trkpt>
      <trkpt lat="44.55436" lon="6.16158">
        <ele>1019.9</ele>
        <time>2022-09-11T09:32:59Z</time>
      </trkpt>
      <trkpt lat="44.55437" lon="6.16156">
        <ele>1020</ele>
        <time>2022-09-11T09:33:00Z</time>
      </trkpt>
      <trkpt lat="44.55438" lon="6.16155">
        <ele>1020</ele>
        <time>2022-09-11T09:33:01Z</time>
      </trkpt>
      <trkpt lat="44.55438" lon="6.16154">
        <ele>1020.1</ele>
        <time>2022-09-11T09:33:02Z</time>
      </trkpt>
      <trkpt lat="44.55438" lon="6.16153">
        <ele>1020.1</ele>
        <time>2022-09-11T09:33:03Z</time>
      </trkpt>
      <trkpt lat="44.55439" lon="6.16152">
        <ele>1020.1</ele>
        <time>2022-09-11T09:33:04Z</time>
      </trkpt>
      <trkpt lat="44.55439" lon="6.16151">
        <ele>1020.1</ele>
        <time>2022-09-11T09:33:05Z</time>
      </trkpt>
      <trkpt lat="44.5544" lon="6.1615">
        <ele>1020.1</ele>
        <time>2022-09-11T09:33:07Z</time>
      </trkpt>
      <trkpt lat="44.5544" lon="6.1615">
        <ele>1020.1</ele>
        <time>2022-09-11T09:33:08Z</time>
      </trkpt>
      <trkpt lat="44.55441" lon="6.16149">
        <ele>1020.1</ele>
        <time>2022-09-11T09:33:09Z</time>
      </trkpt>
      <trkpt lat="44.55441" lon="6.16149">
        <ele>1020.1</ele>
        <time>2022-09-11T09:33:10Z</time>
      </trkpt>
      <trkpt lat="44.55442" lon="6.16148">
        <ele>1020.1</ele>
        <time>2022-09-11T09:33:11Z</time>
      </trkpt>
      <trkpt lat="44.55442" lon="6.16147">
        <ele>1020.1</ele>
        <time>2022-09-11T09:33:12Z</time>
      </trkpt>
      <trkpt lat="44.55443" lon="6.16147">
        <ele>1020.1</ele>
        <time>2022-09-11T09:33:13Z</time>
      </trkpt>
      <trkpt lat="44.55443" lon="6.16147">
        <ele>1020.1</ele>
        <time>2022-09-11T09:33:14Z</time>
      </trkpt>
      <trkpt lat="44.55443" lon="6.16147">
        <ele>1020.1</ele>
        <time>2022-09-11T09:33:15Z</time>
      </trkpt>
      <trkpt lat="44.55444" lon="6.16146">
        <ele>1020.1</ele>
        <time>2022-09-11T09:33:16Z</time>
      </trkpt>
      <trkpt lat="44.55444" lon="6.16145">
        <ele>1020.1</ele>
        <time>2022-09-11T09:33:17Z</time>
      </trkpt>
      <trkpt lat="44.55444" lon="6.16145">
        <ele>1020.2</ele>
        <time>2022-09-11T09:33:18Z</time>
      </trkpt>
      <trkpt lat="44.55444" lon="6.16144">
        <ele>1020.2</ele>
        <time>2022-09-11T09:33:19Z</time>
      </trkpt>
      <trkpt lat="44.55444" lon="6.16143">
        <ele>1020.2</ele>
        <time>2022-09-11T09:33:20Z</time>
      </trkpt>
      <trkpt lat="44.55445" lon="6.16142">
        <ele>1020.2</ele>
        <time>2022-09-11T09:33:21Z</time>
      </trkpt>
      <trkpt lat="44.55445" lon="6.16141">
        <ele>1020.2</ele>
        <time>2022-09-11T09:33:23Z</time>
      </trkpt>
      <trkpt lat="44.55445" lon="6.16141">
        <ele>1020.2</ele>
        <time>2022-09-11T09:33:24Z</time>
      </trkpt>
      <trkpt lat="44.55445" lon="6.1614">
        <ele>1020.2</ele>
        <time>2022-09-11T09:33:25Z</time>
      </trkpt>
      <trkpt lat="44.55446" lon="6.1614">
        <ele>1020.2</ele>
        <time>2022-09-11T09:33:26Z</time>
      </trkpt>
      <trkpt lat="44.55446" lon="6.16139">
        <ele>1020.2</ele>
        <time>2022-09-11T09:33:27Z</time>
      </trkpt>
      <trkpt lat="44.55446" lon="6.16139">
        <ele>1020.2</ele>
        <time>2022-09-11T09:33:28Z</time>
      </trkpt>
      <trkpt lat="44.55446" lon="6.16139">
        <ele>1020.2</ele>
        <time>2022-09-11T09:33:29Z</time>
      </trkpt>
      <trkpt lat="44.55446" lon="6.16138">
        <ele>1020.2</ele>
        <time>2022-09-11T09:33:30Z</time>
      </trkpt>
      <trkpt lat="44.55446" lon="6.16137">
        <ele>1020.2</ele>
        <time>2022-09-11T09:33:31Z</time>
      </trkpt>
      <trkpt lat="44.55447" lon="6.16137">
        <ele>1020.2</ele>
        <time>2022-09-11T09:33:32Z</time>
      </trkpt>
      <trkpt lat="44.55447" lon="6.16135">
        <ele>1020.2</ele>
        <time>2022-09-11T09:33:33Z</time>
      </trkpt>
      <trkpt lat="44.55447" lon="6.16134">
        <ele>1020.2</ele>
        <time>2022-09-11T09:33:34Z</time>
      </trkpt>
      <trkpt lat="44.55447" lon="6.16133">
        <ele>1020.2</ele>
        <time>2022-09-11T09:33:35Z</time>
      </trkpt>
      <trkpt lat="44.55448" lon="6.16132">
        <ele>1020.2</ele>
        <time>2022-09-11T09:33:37Z</time>
      </trkpt>
      <trkpt lat="44.55448" lon="6.16131">
        <ele>1020.2</ele>
        <time>2022-09-11T09:33:38Z</time>
      </trkpt>
      <trkpt lat="44.55448" lon="6.16131">
        <ele>1020.2</ele>
        <time>2022-09-11T09:33:39Z</time>
      </trkpt>
      <trkpt lat="44.55449" lon="6.16131">
        <ele>1020.2</ele>
        <time>2022-09-11T09:33:40Z</time>
      </trkpt>
      <trkpt lat="44.55449" lon="6.16131">
        <ele>1020.2</ele>
        <time>2022-09-11T09:33:41Z</time>
      </trkpt>
      <trkpt lat="44.55449" lon="6.16131">
        <ele>1020.2</ele>
        <time>2022-09-11T09:33:43Z</time>
      </trkpt>
      <trkpt lat="44.55449" lon="6.1613">
        <ele>1020.2</ele>
        <time>2022-09-11T09:33:44Z</time>
      </trkpt>
      <trkpt lat="44.55449" lon="6.16129">
        <ele>1020.2</ele>
        <time>2022-09-11T09:33:45Z</time>
      </trkpt>
      <trkpt lat="44.5545" lon="6.16128">
        <ele>1020.3</ele>
        <time>2022-09-11T09:33:47Z</time>
      </trkpt>
      <trkpt lat="44.5545" lon="6.16126">
        <ele>1020.3</ele>
        <time>2022-09-11T09:33:48Z</time>
      </trkpt>
      <trkpt lat="44.55451" lon="6.16125">
        <ele>1020.3</ele>
        <time>2022-09-11T09:33:50Z</time>
      </trkpt>
      <trkpt lat="44.55451" lon="6.16124">
        <ele>1020.3</ele>
        <time>2022-09-11T09:33:52Z</time>
      </trkpt>
      <trkpt lat="44.55451" lon="6.16123">
        <ele>1020.3</ele>
        <time>2022-09-11T09:33:53Z</time>
      </trkpt>
      <trkpt lat="44.55452" lon="6.16123">
        <ele>1020.3</ele>
        <time>2022-09-11T09:33:54Z</time>
      </trkpt>
      <trkpt lat="44.55453" lon="6.16125">
        <ele>1020.3</ele>
        <time>2022-09-11T09:33:55Z</time>
      </trkpt>
      <trkpt lat="44.55453" lon="6.16126">
        <ele>1020.3</ele>
        <time>2022-09-11T09:33:56Z</time>
      </trkpt>
      <trkpt lat="44.55454" lon="6.16127">
        <ele>1020.3</ele>
        <time>2022-09-11T09:33:57Z</time>
      </trkpt>
      <trkpt lat="44.55454" lon="6.16129">
        <ele>1020.3</ele>
        <time>2022-09-11T09:33:59Z</time>
      </trkpt>
      <trkpt lat="44.55455" lon="6.1613">
        <ele>1020.3</ele>
        <time>2022-09-11T09:34:00Z</time>
      </trkpt>
      <trkpt lat="44.55455" lon="6.16131">
        <ele>1020.3</ele>
        <time>2022-09-11T09:34:01Z</time>
      </trkpt>
      <trkpt lat="44.55455" lon="6.16132">
        <ele>1020.3</ele>
        <time>2022-09-11T09:34:02Z</time>
      </trkpt>
      <trkpt lat="44.55456" lon="6.16135">
        <ele>1020.3</ele>
        <time>2022-09-11T09:34:04Z</time>
      </trkpt>
      <trkpt lat="44.55456" lon="6.16136">
        <ele>1020.4</ele>
        <time>2022-09-11T09:34:05Z</time>
      </trkpt>
      <trkpt lat="44.55457" lon="6.16138">
        <ele>1020.4</ele>
        <time>2022-09-11T09:34:06Z</time>
      </trkpt>
      <trkpt lat="44.55457" lon="6.16139">
        <ele>1020.4</ele>
        <time>2022-09-11T09:34:08Z</time>
      </trkpt>
      <trkpt lat="44.55457" lon="6.1614">
        <ele>1020.4</ele>
        <time>2022-09-11T09:34:09Z</time>
      </trkpt>
      <trkpt lat="44.55458" lon="6.16141">
        <ele>1020.4</ele>
        <time>2022-09-11T09:34:10Z</time>
      </trkpt>
      <trkpt lat="44.55458" lon="6.16142">
        <ele>1020.4</ele>
        <time>2022-09-11T09:34:11Z</time>
      </trkpt>
      <trkpt lat="44.55458" lon="6.16143">
        <ele>1020.4</ele>
        <time>2022-09-11T09:34:12Z</time>
      </trkpt>
      <trkpt lat="44.55459" lon="6.16144">
        <ele>1020.4</ele>
        <time>2022-09-11T09:34:13Z</time>
      </trkpt>
      <trkpt lat="44.55459" lon="6.16144">
        <ele>1020.4</ele>
        <time>2022-09-11T09:34:14Z</time>
      </trkpt>
      <trkpt lat="44.5546" lon="6.16144">
        <ele>1020.4</ele>
        <time>2022-09-11T09:34:15Z</time>
      </trkpt>
      <trkpt lat="44.5546" lon="6.16144">
        <ele>1020.4</ele>
        <time>2022-09-11T09:34:16Z</time>
      </trkpt>
      <trkpt lat="44.55461" lon="6.16144">
        <ele>1020.4</ele>
        <time>2022-09-11T09:34:17Z</time>
      </trkpt>
      <trkpt lat="44.55461" lon="6.16143">
        <ele>1020.4</ele>
        <time>2022-09-11T09:34:18Z</time>
      </trkpt>
      <trkpt lat="44.55462" lon="6.16142">
        <ele>1020.4</ele>
        <time>2022-09-11T09:34:19Z</time>
      </trkpt>
      <trkpt lat="44.55462" lon="6.1614">
        <ele>1020.4</ele>
        <time>2022-09-11T09:34:20Z</time>
      </trkpt>
      <trkpt lat="44.55463" lon="6.16139">
        <ele>1020.4</ele>
        <time>2022-09-11T09:34:21Z</time>
      </trkpt>
      <trkpt lat="44.55463" lon="6.16139">
        <ele>1020.4</ele>
        <time>2022-09-11T09:34:22Z</time>
      </trkpt>
      <trkpt lat="44.55464" lon="6.16139">
        <ele>1020.4</ele>
        <time>2022-09-11T09:34:23Z</time>
      </trkpt>
      <trkpt lat="44.55465" lon="6.1614">
        <ele>1020.5</ele>
        <time>2022-09-11T09:34:24Z</time>
      </trkpt>
      <trkpt lat="44.55465" lon="6.16142">
        <ele>1020.5</ele>
        <time>2022-09-11T09:34:26Z</time>
      </trkpt>
      <trkpt lat="44.55465" lon="6.16143">
        <ele>1020.5</ele>
        <time>2022-09-11T09:34:27Z</time>
      </trkpt>
      <trkpt lat="44.55465" lon="6.16145">
        <ele>1020.5</ele>
        <time>2022-09-11T09:34:28Z</time>
      </trkpt>
      <trkpt lat="44.55466" lon="6.16147">
        <ele>1020.5</ele>
        <time>2022-09-11T09:34:30Z</time>
      </trkpt>
      <trkpt lat="44.55466" lon="6.16148">
        <ele>1020.5</ele>
        <time>2022-09-11T09:34:31Z</time>
      </trkpt>
      <trkpt lat="44.55466" lon="6.16148">
        <ele>1020.5</ele>
        <time>2022-09-11T09:34:32Z</time>
      </trkpt>
      <trkpt lat="44.55467" lon="6.16149">
        <ele>1020.5</ele>
        <time>2022-09-11T09:34:33Z</time>
      </trkpt>
      <trkpt lat="44.55467" lon="6.16149">
        <ele>1020.5</ele>
        <time>2022-09-11T09:34:34Z</time>
      </trkpt>
      <trkpt lat="44.55467" lon="6.1615">
        <ele>1020.5</ele>
        <time>2022-09-11T09:34:35Z</time>
      </trkpt>
      <trkpt lat="44.55468" lon="6.1615">
        <ele>1020.5</ele>
        <time>2022-09-11T09:34:37Z</time>
      </trkpt>
      <trkpt lat="44.55469" lon="6.1615">
        <ele>1020.5</ele>
        <time>2022-09-11T09:34:39Z</time>
      </trkpt>
      <trkpt lat="44.5547" lon="6.16151">
        <ele>1020.5</ele>
        <time>2022-09-11T09:34:41Z</time>
      </trkpt>
      <trkpt lat="44.5547" lon="6.16152">
        <ele>1020.5</ele>
        <time>2022-09-11T09:34:43Z</time>
      </trkpt>
      <trkpt lat="44.5547" lon="6.16153">
        <ele>1020.5</ele>
        <time>2022-09-11T09:34:44Z</time>
      </trkpt>
      <trkpt lat="44.5547" lon="6.16154">
        <ele>1020.5</ele>
        <time>2022-09-11T09:34:45Z</time>
      </trkpt>
      <trkpt lat="44.55469" lon="6.16155">
        <ele>1020.6</ele>
        <time>2022-09-11T09:34:46Z</time>
      </trkpt>
      <trkpt lat="44.55469" lon="6.16157">
        <ele>1020.6</ele>
        <time>2022-09-11T09:34:48Z</time>
      </trkpt>
      <trkpt lat="44.55469" lon="6.16158">
        <ele>1020.6</ele>
        <time>2022-09-11T09:34:49Z</time>
      </trkpt>
      <trkpt lat="44.55469" lon="6.16158">
        <ele>1020.6</ele>
        <time>2022-09-11T09:34:50Z</time>
      </trkpt>
      <trkpt lat="44.55468" lon="6.16159">
        <ele>1020.6</ele>
        <time>2022-09-11T09:34:51Z</time>
      </trkpt>
      <trkpt lat="44.55468" lon="6.16159">
        <ele>1020.6</ele>
        <time>2022-09-11T09:34:53Z</time>
      </trkpt>
      <trkpt lat="44.55468" lon="6.1616">
        <ele>1020.6</ele>
        <time>2022-09-11T09:34:54Z</time>
      </trkpt>
      <trkpt lat="44.55467" lon="6.1616">
        <ele>1020.6</ele>
        <time>2022-09-11T09:34:55Z</time>
      </trkpt>
      <trkpt lat="44.55466" lon="6.16161">
        <ele>1020.6</ele>
        <time>2022-09-11T09:34:56Z</time>
      </trkpt>
      <trkpt lat="44.55466" lon="6.16162">
        <ele>1020.6</ele>
        <time>2022-09-11T09:34:57Z</time>
      </trkpt>
      <trkpt lat="44.55465" lon="6.16163">
        <ele>1020.6</ele>
        <time>2022-09-11T09:34:58Z</time>
      </trkpt>
      <trkpt lat="44.55465" lon="6.16164">
        <ele>1020.6</ele>
        <time>2022-09-11T09:34:59Z</time>
      </trkpt>
      <trkpt lat="44.55465" lon="6.16165">
        <ele>1020.6</ele>
        <time>2022-09-11T09:35:00Z</time>
      </trkpt>
      <trkpt lat="44.55465" lon="6.16166">
        <ele>1020.6</ele>
        <time>2022-09-11T09:35:02Z</time>
      </trkpt>
      <trkpt lat="44.55465" lon="6.16167">
        <ele>1020.6</ele>
        <time>2022-09-11T09:35:03Z</time>
      </trkpt>
      <trkpt lat="44.55465" lon="6.16167">
        <ele>1020.6</ele>
        <time>2022-09-11T09:35:04Z</time>
      </trkpt>
      <trkpt lat="44.55466" lon="6.16168">
        <ele>1020.6</ele>
        <time>2022-09-11T09:35:05Z</time>
      </trkpt>
      <trkpt lat="44.55466" lon="6.16168">
        <ele>1020.6</ele>
        <time>2022-09-11T09:35:06Z</time>
      </trkpt>
      <trkpt lat="44.55466" lon="6.16168">
        <ele>1020.6</ele>
        <time>2022-09-11T09:35:07Z</time>
      </trkpt>
      <trkpt lat="44.55466" lon="6.16168">
        <ele>1020.6</ele>
        <time>2022-09-11T09:35:08Z</time>
      </trkpt>
      <trkpt lat="44.55466" lon="6.16168">
        <ele>1020.6</ele>
        <time>2022-09-11T09:35:09Z</time>
      </trkpt>
      <trkpt lat="44.55466" lon="6.16168">
        <ele>1020.6</ele>
        <time>2022-09-11T09:35:10Z</time>
      </trkpt>
      <trkpt lat="44.55466" lon="6.16168">
        <ele>1020.6</ele>
        <time>2022-09-11T09:35:11Z</time>
      </trkpt>
      <trkpt lat="44.55466" lon="6.16168">
        <ele>1020.6</ele>
        <time>2022-09-11T09:35:12Z</time>
      </trkpt>
      <trkpt lat="44.55466" lon="6.16168">
        <ele>1020.6</ele>
        <time>2022-09-11T09:35:13Z</time>
      </trkpt>
      <trkpt lat="44.55466" lon="6.16169">
        <ele>1020.6</ele>
        <time>2022-09-11T09:35:14Z</time>
      </trkpt>
      <trkpt lat="44.55467" lon="6.16169">
        <ele>1020.6</ele>
        <time>2022-09-11T09:35:15Z</time>
      </trkpt>
      <trkpt lat="44.55467" lon="6.16169">
        <ele>1020.6</ele>
        <time>2022-09-11T09:35:16Z</time>
      </trkpt>
      <trkpt lat="44.55467" lon="6.16169">
        <ele>1020.6</ele>
        <time>2022-09-11T09:35:17Z</time>
      </trkpt>
      <trkpt lat="44.55467" lon="6.16169">
        <ele>1020.6</ele>
        <time>2022-09-11T09:35:18Z</time>
      </trkpt>
      <trkpt lat="44.55467" lon="6.16168">
        <ele>1020.6</ele>
        <time>2022-09-11T09:35:19Z</time>
      </trkpt>
      <trkpt lat="44.55467" lon="6.16168">
        <ele>1020.6</ele>
        <time>2022-09-11T09:35:20Z</time>
      </trkpt>
      <trkpt lat="44.55468" lon="6.16164">
        <ele>1020.6</ele>
        <time>2022-09-11T09:35:36Z</time>
      </trkpt>
      <trkpt lat="44.55469" lon="6.16163">
        <ele>1020.6</ele>
        <time>2022-09-11T09:35:38Z</time>
      </trkpt>
      <trkpt lat="44.5547" lon="6.16162">
        <ele>1020.6</ele>
        <time>2022-09-11T09:35:39Z</time>
      </trkpt>
      <trkpt lat="44.55471" lon="6.16162">
        <ele>1020.6</ele>
        <time>2022-09-11T09:35:40Z</time>
      </trkpt>
      <trkpt lat="44.55471" lon="6.16162">
        <ele>1020.6</ele>
        <time>2022-09-11T09:35:41Z</time>
      </trkpt>
      <trkpt lat="44.55471" lon="6.16162">
        <ele>1020.6</ele>
        <time>2022-09-11T09:35:42Z</time>
      </trkpt>
      <trkpt lat="44.55471" lon="6.16162">
        <ele>1020.6</ele>
        <time>2022-09-11T09:35:43Z</time>
      </trkpt>
      <trkpt lat="44.55472" lon="6.16162">
        <ele>1020.6</ele>
        <time>2022-09-11T09:35:44Z</time>
      </trkpt>
      <trkpt lat="44.55472" lon="6.16162">
        <ele>1020.6</ele>
        <time>2022-09-11T09:35:45Z</time>
      </trkpt>
      <trkpt lat="44.55472" lon="6.16161">
        <ele>1020.6</ele>
        <time>2022-09-11T09:35:46Z</time>
      </trkpt>
      <trkpt lat="44.55472" lon="6.1616">
        <ele>1020.6</ele>
        <time>2022-09-11T09:35:47Z</time>
      </trkpt>
      <trkpt lat="44.55472" lon="6.16159">
        <ele>1020.6</ele>
        <time>2022-09-11T09:35:48Z</time>
      </trkpt>
      <trkpt lat="44.55473" lon="6.16154">
        <ele>1020.6</ele>
        <time>2022-09-11T09:35:50Z</time>
      </trkpt>
      <trkpt lat="44.55473" lon="6.16153">
        <ele>1020.6</ele>
        <time>2022-09-11T09:35:51Z</time>
      </trkpt>
      <trkpt lat="44.55473" lon="6.16151">
        <ele>1020.6</ele>
        <time>2022-09-11T09:35:52Z</time>
      </trkpt>
      <trkpt lat="44.55474" lon="6.16149">
        <ele>1020.6</ele>
        <time>2022-09-11T09:35:53Z</time>
      </trkpt>
      <trkpt lat="44.55474" lon="6.16147">
        <ele>1020.6</ele>
        <time>2022-09-11T09:35:54Z</time>
      </trkpt>
      <trkpt lat="44.55475" lon="6.16144">
        <ele>1020.6</ele>
        <time>2022-09-11T09:35:55Z</time>
      </trkpt>
      <trkpt lat="44.55475" lon="6.16143">
        <ele>1020.6</ele>
        <time>2022-09-11T09:35:56Z</time>
      </trkpt>
      <trkpt lat="44.55475" lon="6.16141">
        <ele>1020.6</ele>
        <time>2022-09-11T09:35:57Z</time>
      </trkpt>
      <trkpt lat="44.55476" lon="6.16138">
        <ele>1020.6</ele>
        <time>2022-09-11T09:35:59Z</time>
      </trkpt>
      <trkpt lat="44.55476" lon="6.16136">
        <ele>1020.6</ele>
        <time>2022-09-11T09:36:01Z</time>
      </trkpt>
      <trkpt lat="44.55475" lon="6.16133">
        <ele>1020.6</ele>
        <time>2022-09-11T09:36:02Z</time>
      </trkpt>
      <trkpt lat="44.55475" lon="6.16131">
        <ele>1020.6</ele>
        <time>2022-09-11T09:36:04Z</time>
      </trkpt>
      <trkpt lat="44.55475" lon="6.1613">
        <ele>1020.6</ele>
        <time>2022-09-11T09:36:05Z</time>
      </trkpt>
      <trkpt lat="44.55474" lon="6.16129">
        <ele>1020.6</ele>
        <time>2022-09-11T09:36:06Z</time>
      </trkpt>
      <trkpt lat="44.55474" lon="6.16127">
        <ele>1020.6</ele>
        <time>2022-09-11T09:36:07Z</time>
      </trkpt>
      <trkpt lat="44.55473" lon="6.16126">
        <ele>1020.6</ele>
        <time>2022-09-11T09:36:09Z</time>
      </trkpt>
      <trkpt lat="44.55473" lon="6.16125">
        <ele>1020.6</ele>
        <time>2022-09-11T09:36:10Z</time>
      </trkpt>
      <trkpt lat="44.55472" lon="6.16124">
        <ele>1020.6</ele>
        <time>2022-09-11T09:36:11Z</time>
      </trkpt>
      <trkpt lat="44.55472" lon="6.16123">
        <ele>1020.6</ele>
        <time>2022-09-11T09:36:12Z</time>
      </trkpt>
      <trkpt lat="44.55472" lon="6.16122">
        <ele>1020.6</ele>
        <time>2022-09-11T09:36:13Z</time>
      </trkpt>
      <trkpt lat="44.55473" lon="6.16122">
        <ele>1020.6</ele>
        <time>2022-09-11T09:36:14Z</time>
      </trkpt>
      <trkpt lat="44.55473" lon="6.1612">
        <ele>1020.6</ele>
        <time>2022-09-11T09:36:16Z</time>
      </trkpt>
      <trkpt lat="44.55472" lon="6.16119">
        <ele>1020.6</ele>
        <time>2022-09-11T09:36:17Z</time>
      </trkpt>
      <trkpt lat="44.55471" lon="6.16118">
        <ele>1020.6</ele>
        <time>2022-09-11T09:36:18Z</time>
      </trkpt>
      <trkpt lat="44.55471" lon="6.16117">
        <ele>1020.6</ele>
        <time>2022-09-11T09:36:19Z</time>
      </trkpt>
      <trkpt lat="44.5547" lon="6.16116">
        <ele>1020.6</ele>
        <time>2022-09-11T09:36:20Z</time>
      </trkpt>
      <trkpt lat="44.5547" lon="6.16115">
        <ele>1020.6</ele>
        <time>2022-09-11T09:36:21Z</time>
      </trkpt>
      <trkpt lat="44.5547" lon="6.16114">
        <ele>1020.6</ele>
        <time>2022-09-11T09:36:22Z</time>
      </trkpt>
      <trkpt lat="44.5547" lon="6.16112">
        <ele>1020.6</ele>
        <time>2022-09-11T09:36:23Z</time>
      </trkpt>
      <trkpt lat="44.5547" lon="6.16111">
        <ele>1020.6</ele>
        <time>2022-09-11T09:36:24Z</time>
      </trkpt>
      <trkpt lat="44.55471" lon="6.16109">
        <ele>1020.6</ele>
        <time>2022-09-11T09:36:25Z</time>
      </trkpt>
      <trkpt lat="44.55471" lon="6.16108">
        <ele>1020.6</ele>
        <time>2022-09-11T09:36:26Z</time>
      </trkpt>
      <trkpt lat="44.55472" lon="6.16106">
        <ele>1020.6</ele>
        <time>2022-09-11T09:36:27Z</time>
      </trkpt>
      <trkpt lat="44.55474" lon="6.16105">
        <ele>1020.6</ele>
        <time>2022-09-11T09:36:29Z</time>
      </trkpt>
      <trkpt lat="44.55475" lon="6.16105">
        <ele>1020.6</ele>
        <time>2022-09-11T09:36:30Z</time>
      </trkpt>
      <trkpt lat="44.55477" lon="6.16105">
        <ele>1020.6</ele>
        <time>2022-09-11T09:36:32Z</time>
      </trkpt>
      <trkpt lat="44.55477" lon="6.16105">
        <ele>1020.6</ele>
        <time>2022-09-11T09:36:33Z</time>
      </trkpt>
      <trkpt lat="44.55479" lon="6.16105">
        <ele>1020.6</ele>
        <time>2022-09-11T09:36:34Z</time>
      </trkpt>
      <trkpt lat="44.55479" lon="6.16105">
        <ele>1020.6</ele>
        <time>2022-09-11T09:36:36Z</time>
      </trkpt>
      <trkpt lat="44.55479" lon="6.16104">
        <ele>1020.6</ele>
        <time>2022-09-11T09:36:37Z</time>
      </trkpt>
      <trkpt lat="44.55479" lon="6.16104">
        <ele>1020.6</ele>
        <time>2022-09-11T09:36:38Z</time>
      </trkpt>
      <trkpt lat="44.55479" lon="6.16104">
        <ele>1020.6</ele>
        <time>2022-09-11T09:36:39Z</time>
      </trkpt>
      <trkpt lat="44.55479" lon="6.16104">
        <ele>1020.6</ele>
        <time>2022-09-11T09:36:41Z</time>
      </trkpt>
      <trkpt lat="44.55479" lon="6.16103">
        <ele>1020.6</ele>
        <time>2022-09-11T09:36:42Z</time>
      </trkpt>
      <trkpt lat="44.55479" lon="6.16101">
        <ele>1020.6</ele>
        <time>2022-09-11T09:36:43Z</time>
      </trkpt>
      <trkpt lat="44.55481" lon="6.161">
        <ele>1020.6</ele>
        <time>2022-09-11T09:36:45Z</time>
      </trkpt>
      <trkpt lat="44.55481" lon="6.16099">
        <ele>1020.6</ele>
        <time>2022-09-11T09:36:46Z</time>
      </trkpt>
      <trkpt lat="44.55482" lon="6.16099">
        <ele>1020.6</ele>
        <time>2022-09-11T09:36:47Z</time>
      </trkpt>
      <trkpt lat="44.55482" lon="6.16098">
        <ele>1020.6</ele>
        <time>2022-09-11T09:36:48Z</time>
      </trkpt>
      <trkpt lat="44.55484" lon="6.16097">
        <ele>1020.6</ele>
        <time>2022-09-11T09:36:49Z</time>
      </trkpt>
      <trkpt lat="44.55485" lon="6.16097">
        <ele>1020.6</ele>
        <time>2022-09-11T09:36:51Z</time>
      </trkpt>
      <trkpt lat="44.55487" lon="6.16097">
        <ele>1020.6</ele>
        <time>2022-09-11T09:36:53Z</time>
      </trkpt>
      <trkpt lat="44.55487" lon="6.16097">
        <ele>1020.6</ele>
        <time>2022-09-11T09:36:54Z</time>
      </trkpt>
      <trkpt lat="44.55487" lon="6.16097">
        <ele>1020.6</ele>
        <time>2022-09-11T09:36:55Z</time>
      </trkpt>
      <trkpt lat="44.55487" lon="6.16097">
        <ele>1020.6</ele>
        <time>2022-09-11T09:36:56Z</time>
      </trkpt>
      <trkpt lat="44.55488" lon="6.16098">
        <ele>1020.6</ele>
        <time>2022-09-11T09:36:57Z</time>
      </trkpt>
      <trkpt lat="44.55488" lon="6.16098">
        <ele>1020.6</ele>
        <time>2022-09-11T09:36:58Z</time>
      </trkpt>
      <trkpt lat="44.55488" lon="6.16098">
        <ele>1020.6</ele>
        <time>2022-09-11T09:36:59Z</time>
      </trkpt>
      <trkpt lat="44.55488" lon="6.16098">
        <ele>1020.6</ele>
        <time>2022-09-11T09:37:00Z</time>
      </trkpt>
      <trkpt lat="44.55488" lon="6.16098">
        <ele>1020.6</ele>
        <time>2022-09-11T09:37:01Z</time>
      </trkpt>
      <trkpt lat="44.55489" lon="6.16097">
        <ele>1020.6</ele>
        <time>2022-09-11T09:37:03Z</time>
      </trkpt>
      <trkpt lat="44.55488" lon="6.16096">
        <ele>1020.6</ele>
        <time>2022-09-11T09:37:04Z</time>
      </trkpt>
      <trkpt lat="44.55488" lon="6.16094">
        <ele>1020.6</ele>
        <time>2022-09-11T09:37:05Z</time>
      </trkpt>
      <trkpt lat="44.55487" lon="6.16093">
        <ele>1020.6</ele>
        <time>2022-09-11T09:37:06Z</time>
      </trkpt>
      <trkpt lat="44.55487" lon="6.16092">
        <ele>1020.6</ele>
        <time>2022-09-11T09:37:07Z</time>
      </trkpt>
      <trkpt lat="44.55486" lon="6.16092">
        <ele>1020.6</ele>
        <time>2022-09-11T09:37:08Z</time>
      </trkpt>
      <trkpt lat="44.55486" lon="6.16092">
        <ele>1020.6</ele>
        <time>2022-09-11T09:37:09Z</time>
      </trkpt>
      <trkpt lat="44.55486" lon="6.16092">
        <ele>1020.6</ele>
        <time>2022-09-11T09:37:10Z</time>
      </trkpt>
      <trkpt lat="44.55486" lon="6.16092">
        <ele>1020.6</ele>
        <time>2022-09-11T09:37:11Z</time>
      </trkpt>
      <trkpt lat="44.55486" lon="6.16092">
        <ele>1020.6</ele>
        <time>2022-09-11T09:37:12Z</time>
      </trkpt>
      <trkpt lat="44.55486" lon="6.16092">
        <ele>1020.6</ele>
        <time>2022-09-11T09:37:13Z</time>
      </trkpt>
      <trkpt lat="44.55486" lon="6.16092">
        <ele>1020.6</ele>
        <time>2022-09-11T09:37:14Z</time>
      </trkpt>
      <trkpt lat="44.55486" lon="6.16092">
        <ele>1020.6</ele>
        <time>2022-09-11T09:37:15Z</time>
      </trkpt>
      <trkpt lat="44.55485" lon="6.16092">
        <ele>1020.6</ele>
        <time>2022-09-11T09:37:17Z</time>
      </trkpt>
      <trkpt lat="44.55484" lon="6.16093">
        <ele>1020.6</ele>
        <time>2022-09-11T09:37:19Z</time>
      </trkpt>
      <trkpt lat="44.55483" lon="6.16093">
        <ele>1020.6</ele>
        <time>2022-09-11T09:37:20Z</time>
      </trkpt>
      <trkpt lat="44.55483" lon="6.16094">
        <ele>1020.6</ele>
        <time>2022-09-11T09:37:21Z</time>
      </trkpt>
      <trkpt lat="44.55482" lon="6.16094">
        <ele>1020.6</ele>
        <time>2022-09-11T09:37:22Z</time>
      </trkpt>
      <trkpt lat="44.55482" lon="6.16095">
        <ele>1020.6</ele>
        <time>2022-09-11T09:37:23Z</time>
      </trkpt>
      <trkpt lat="44.5548" lon="6.16096">
        <ele>1020.6</ele>
        <time>2022-09-11T09:37:24Z</time>
      </trkpt>
      <trkpt lat="44.55479" lon="6.16098">
        <ele>1020.6</ele>
        <time>2022-09-11T09:37:25Z</time>
      </trkpt>
      <trkpt lat="44.55479" lon="6.16099">
        <ele>1020.6</ele>
        <time>2022-09-11T09:37:26Z</time>
      </trkpt>
      <trkpt lat="44.55478" lon="6.16101">
        <ele>1020.6</ele>
        <time>2022-09-11T09:37:27Z</time>
      </trkpt>
      <trkpt lat="44.55478" lon="6.16102">
        <ele>1020.6</ele>
        <time>2022-09-11T09:37:28Z</time>
      </trkpt>
      <trkpt lat="44.55478" lon="6.16103">
        <ele>1020.6</ele>
        <time>2022-09-11T09:37:29Z</time>
      </trkpt>
      <trkpt lat="44.55478" lon="6.16103">
        <ele>1020.6</ele>
        <time>2022-09-11T09:37:30Z</time>
      </trkpt>
      <trkpt lat="44.55478" lon="6.16104">
        <ele>1020.6</ele>
        <time>2022-09-11T09:37:31Z</time>
      </trkpt>
      <trkpt lat="44.55478" lon="6.16104">
        <ele>1020.6</ele>
        <time>2022-09-11T09:37:32Z</time>
      </trkpt>
      <trkpt lat="44.55478" lon="6.16104">
        <ele>1020.6</ele>
        <time>2022-09-11T09:37:33Z</time>
      </trkpt>
      <trkpt lat="44.55478" lon="6.16104">
        <ele>1020.6</ele>
        <time>2022-09-11T09:37:34Z</time>
      </trkpt>
      <trkpt lat="44.55478" lon="6.16104">
        <ele>1020.6</ele>
        <time>2022-09-11T09:37:35Z</time>
      </trkpt>
      <trkpt lat="44.55479" lon="6.16104">
        <ele>1020.6</ele>
        <time>2022-09-11T09:37:36Z</time>
      </trkpt>
      <trkpt lat="44.55479" lon="6.16104">
        <ele>1020.6</ele>
        <time>2022-09-11T09:37:37Z</time>
      </trkpt>
      <trkpt lat="44.55479" lon="6.16104">
        <ele>1020.6</ele>
        <time>2022-09-11T09:37:38Z</time>
      </trkpt>
      <trkpt lat="44.55479" lon="6.16104">
        <ele>1020.6</ele>
        <time>2022-09-11T09:37:39Z</time>
      </trkpt>
      <trkpt lat="44.55476" lon="6.16107">
        <ele>1020.6</ele>
        <time>2022-09-11T09:37:54Z</time>
      </trkpt>
      <trkpt lat="44.55476" lon="6.16109">
        <ele>1020.6</ele>
        <time>2022-09-11T09:37:55Z</time>
      </trkpt>
      <trkpt lat="44.55475" lon="6.1611">
        <ele>1020.6</ele>
        <time>2022-09-11T09:37:57Z</time>
      </trkpt>
      <trkpt lat="44.55473" lon="6.16111">
        <ele>1020.6</ele>
        <time>2022-09-11T09:37:58Z</time>
      </trkpt>
      <trkpt lat="44.55471" lon="6.16112">
        <ele>1020.6</ele>
        <time>2022-09-11T09:37:59Z</time>
      </trkpt>
      <trkpt lat="44.5547" lon="6.16111">
        <ele>1020.6</ele>
        <time>2022-09-11T09:38:01Z</time>
      </trkpt>
      <trkpt lat="44.55469" lon="6.16112">
        <ele>1020.6</ele>
        <time>2022-09-11T09:38:02Z</time>
      </trkpt>
      <trkpt lat="44.55469" lon="6.16114">
        <ele>1020.6</ele>
        <time>2022-09-11T09:38:03Z</time>
      </trkpt>
      <trkpt lat="44.55468" lon="6.16116">
        <ele>1020.6</ele>
        <time>2022-09-11T09:38:04Z</time>
      </trkpt>
      <trkpt lat="44.55468" lon="6.16118">
        <ele>1020.6</ele>
        <time>2022-09-11T09:38:05Z</time>
      </trkpt>
      <trkpt lat="44.55469" lon="6.1612">
        <ele>1020.6</ele>
        <time>2022-09-11T09:38:06Z</time>
      </trkpt>
      <trkpt lat="44.55469" lon="6.16122">
        <ele>1020.6</ele>
        <time>2022-09-11T09:38:08Z</time>
      </trkpt>
      <trkpt lat="44.5547" lon="6.16125">
        <ele>1020.6</ele>
        <time>2022-09-11T09:38:09Z</time>
      </trkpt>
      <trkpt lat="44.5547" lon="6.16127">
        <ele>1020.6</ele>
        <time>2022-09-11T09:38:11Z</time>
      </trkpt>
      <trkpt lat="44.55471" lon="6.16128">
        <ele>1020.6</ele>
        <time>2022-09-11T09:38:12Z</time>
      </trkpt>
      <trkpt lat="44.55471" lon="6.16129">
        <ele>1020.6</ele>
        <time>2022-09-11T09:38:13Z</time>
      </trkpt>
      <trkpt lat="44.55472" lon="6.1613">
        <ele>1020.6</ele>
        <time>2022-09-11T09:38:14Z</time>
      </trkpt>
      <trkpt lat="44.55473" lon="6.16132">
        <ele>1020.6</ele>
        <time>2022-09-11T09:38:15Z</time>
      </trkpt>
      <trkpt lat="44.55474" lon="6.16134">
        <ele>1020.6</ele>
        <time>2022-09-11T09:38:17Z</time>
      </trkpt>
      <trkpt lat="44.55474" lon="6.16135">
        <ele>1020.6</ele>
        <time>2022-09-11T09:38:18Z</time>
      </trkpt>
      <trkpt lat="44.55475" lon="6.16137">
        <ele>1020.6</ele>
        <time>2022-09-11T09:38:19Z</time>
      </trkpt>
      <trkpt lat="44.55475" lon="6.16139">
        <ele>1020.6</ele>
        <time>2022-09-11T09:38:20Z</time>
      </trkpt>
      <trkpt lat="44.55476" lon="6.1614">
        <ele>1020.6</ele>
        <time>2022-09-11T09:38:21Z</time>
      </trkpt>
      <trkpt lat="44.55476" lon="6.16142">
        <ele>1020.6</ele>
        <time>2022-09-11T09:38:22Z</time>
      </trkpt>
      <trkpt lat="44.55477" lon="6.16143">
        <ele>1020.6</ele>
        <time>2022-09-11T09:38:23Z</time>
      </trkpt>
      <trkpt lat="44.55477" lon="6.16143">
        <ele>1020.6</ele>
        <time>2022-09-11T09:38:24Z</time>
      </trkpt>
      <trkpt lat="44.55478" lon="6.16145">
        <ele>1020.6</ele>
        <time>2022-09-11T09:38:25Z</time>
      </trkpt>
      <trkpt lat="44.55478" lon="6.16146">
        <ele>1020.6</ele>
        <time>2022-09-11T09:38:26Z</time>
      </trkpt>
      <trkpt lat="44.55478" lon="6.16147">
        <ele>1020.6</ele>
        <time>2022-09-11T09:38:27Z</time>
      </trkpt>
      <trkpt lat="44.55478" lon="6.16148">
        <ele>1020.6</ele>
        <time>2022-09-11T09:38:28Z</time>
      </trkpt>
      <trkpt lat="44.55477" lon="6.16149">
        <ele>1020.6</ele>
        <time>2022-09-11T09:38:29Z</time>
      </trkpt>
      <trkpt lat="44.55477" lon="6.16149">
        <ele>1020.6</ele>
        <time>2022-09-11T09:38:30Z</time>
      </trkpt>
      <trkpt lat="44.55477" lon="6.16149">
        <ele>1020.6</ele>
        <time>2022-09-11T09:38:31Z</time>
      </trkpt>
      <trkpt lat="44.55477" lon="6.16149">
        <ele>1020.6</ele>
        <time>2022-09-11T09:38:33Z</time>
      </trkpt>
      <trkpt lat="44.55472" lon="6.16146">
        <ele>1020.6</ele>
        <time>2022-09-11T09:38:57Z</time>
      </trkpt>
      <trkpt lat="44.55472" lon="6.16147">
        <ele>1020.6</ele>
        <time>2022-09-11T09:38:58Z</time>
      </trkpt>
      <trkpt lat="44.55472" lon="6.16147">
        <ele>1020.6</ele>
        <time>2022-09-11T09:39:00Z</time>
      </trkpt>
      <trkpt lat="44.55472" lon="6.16148">
        <ele>1020.6</ele>
        <time>2022-09-11T09:39:01Z</time>
      </trkpt>
      <trkpt lat="44.55471" lon="6.16149">
        <ele>1020.6</ele>
        <time>2022-09-11T09:39:02Z</time>
      </trkpt>
      <trkpt lat="44.55471" lon="6.1615">
        <ele>1020.6</ele>
        <time>2022-09-11T09:39:03Z</time>
      </trkpt>
      <trkpt lat="44.5547" lon="6.16153">
        <ele>1020.6</ele>
        <time>2022-09-11T09:39:04Z</time>
      </trkpt>
      <trkpt lat="44.55469" lon="6.16154">
        <ele>1020.6</ele>
        <time>2022-09-11T09:39:05Z</time>
      </trkpt>
      <trkpt lat="44.55469" lon="6.16156">
        <ele>1020.6</ele>
        <time>2022-09-11T09:39:06Z</time>
      </trkpt>
      <trkpt lat="44.55467" lon="6.16158">
        <ele>1020.6</ele>
        <time>2022-09-11T09:39:07Z</time>
      </trkpt>
      <trkpt lat="44.55466" lon="6.16159">
        <ele>1020.6</ele>
        <time>2022-09-11T09:39:09Z</time>
      </trkpt>
      <trkpt lat="44.55465" lon="6.1616">
        <ele>1020.6</ele>
        <time>2022-09-11T09:39:10Z</time>
      </trkpt>
      <trkpt lat="44.55464" lon="6.16161">
        <ele>1020.6</ele>
        <time>2022-09-11T09:39:11Z</time>
      </trkpt>
      <trkpt lat="44.55464" lon="6.16162">
        <ele>1020.5</ele>
        <time>2022-09-11T09:39:12Z</time>
      </trkpt>
      <trkpt lat="44.55464" lon="6.16163">
        <ele>1020.5</ele>
        <time>2022-09-11T09:39:13Z</time>
      </trkpt>
      <trkpt lat="44.55465" lon="6.16165">
        <ele>1020.5</ele>
        <time>2022-09-11T09:39:14Z</time>
      </trkpt>
      <trkpt lat="44.55465" lon="6.16167">
        <ele>1020.5</ele>
        <time>2022-09-11T09:39:15Z</time>
      </trkpt>
      <trkpt lat="44.55464" lon="6.1617">
        <ele>1020.4</ele>
        <time>2022-09-11T09:39:16Z</time>
      </trkpt>
      <trkpt lat="44.55464" lon="6.16172">
        <ele>1020.4</ele>
        <time>2022-09-11T09:39:18Z</time>
      </trkpt>
      <trkpt lat="44.55463" lon="6.16173">
        <ele>1020.4</ele>
        <time>2022-09-11T09:39:19Z</time>
      </trkpt>
      <trkpt lat="44.55462" lon="6.16174">
        <ele>1020.4</ele>
        <time>2022-09-11T09:39:20Z</time>
      </trkpt>
      <trkpt lat="44.55462" lon="6.16175">
        <ele>1020.4</ele>
        <time>2022-09-11T09:39:21Z</time>
      </trkpt>
      <trkpt lat="44.55461" lon="6.16177">
        <ele>1020.4</ele>
        <time>2022-09-11T09:39:22Z</time>
      </trkpt>
      <trkpt lat="44.5546" lon="6.16178">
        <ele>1020.3</ele>
        <time>2022-09-11T09:39:23Z</time>
      </trkpt>
      <trkpt lat="44.5546" lon="6.16179">
        <ele>1020.3</ele>
        <time>2022-09-11T09:39:24Z</time>
      </trkpt>
      <trkpt lat="44.55459" lon="6.16181">
        <ele>1020.3</ele>
        <time>2022-09-11T09:39:25Z</time>
      </trkpt>
      <trkpt lat="44.55458" lon="6.16181">
        <ele>1020.3</ele>
        <time>2022-09-11T09:39:26Z</time>
      </trkpt>
      <trkpt lat="44.55458" lon="6.16182">
        <ele>1020.3</ele>
        <time>2022-09-11T09:39:27Z</time>
      </trkpt>
      <trkpt lat="44.55457" lon="6.16183">
        <ele>1020.3</ele>
        <time>2022-09-11T09:39:28Z</time>
      </trkpt>
      <trkpt lat="44.55456" lon="6.16185">
        <ele>1020.2</ele>
        <time>2022-09-11T09:39:29Z</time>
      </trkpt>
      <trkpt lat="44.55456" lon="6.16186">
        <ele>1020.2</ele>
        <time>2022-09-11T09:39:31Z</time>
      </trkpt>
      <trkpt lat="44.55455" lon="6.16187">
        <ele>1020.2</ele>
        <time>2022-09-11T09:39:32Z</time>
      </trkpt>
      <trkpt lat="44.55454" lon="6.16189">
        <ele>1020.2</ele>
        <time>2022-09-11T09:39:33Z</time>
      </trkpt>
      <trkpt lat="44.55454" lon="6.1619">
        <ele>1020.2</ele>
        <time>2022-09-11T09:39:34Z</time>
      </trkpt>
      <trkpt lat="44.55454" lon="6.16191">
        <ele>1020.1</ele>
        <time>2022-09-11T09:39:35Z</time>
      </trkpt>
      <trkpt lat="44.55453" lon="6.16192">
        <ele>1020.1</ele>
        <time>2022-09-11T09:39:36Z</time>
      </trkpt>
      <trkpt lat="44.55452" lon="6.16193">
        <ele>1020.1</ele>
        <time>2022-09-11T09:39:37Z</time>
      </trkpt>
      <trkpt lat="44.55452" lon="6.16194">
        <ele>1020.1</ele>
        <time>2022-09-11T09:39:38Z</time>
      </trkpt>
      <trkpt lat="44.55452" lon="6.16195">
        <ele>1020.1</ele>
        <time>2022-09-11T09:39:39Z</time>
      </trkpt>
      <trkpt lat="44.55451" lon="6.16197">
        <ele>1020.1</ele>
        <time>2022-09-11T09:39:40Z</time>
      </trkpt>
      <trkpt lat="44.55451" lon="6.16201">
        <ele>1020</ele>
        <time>2022-09-11T09:39:42Z</time>
      </trkpt>
      <trkpt lat="44.55451" lon="6.16201">
        <ele>1020</ele>
        <time>2022-09-11T09:39:44Z</time>
      </trkpt>
      <trkpt lat="44.55451" lon="6.16202">
        <ele>1020</ele>
        <time>2022-09-11T09:39:45Z</time>
      </trkpt>
      <trkpt lat="44.5545" lon="6.16203">
        <ele>1020</ele>
        <time>2022-09-11T09:39:46Z</time>
      </trkpt>
      <trkpt lat="44.5545" lon="6.16203">
        <ele>1020</ele>
        <time>2022-09-11T09:39:47Z</time>
      </trkpt>
      <trkpt lat="44.5545" lon="6.16204">
        <ele>1020</ele>
        <time>2022-09-11T09:39:48Z</time>
      </trkpt>
      <trkpt lat="44.5545" lon="6.16204">
        <ele>1020</ele>
        <time>2022-09-11T09:39:49Z</time>
      </trkpt>
      <trkpt lat="44.5545" lon="6.16205">
        <ele>1020</ele>
        <time>2022-09-11T09:39:50Z</time>
      </trkpt>
      <trkpt lat="44.5545" lon="6.16205">
        <ele>1020</ele>
        <time>2022-09-11T09:39:51Z</time>
      </trkpt>
      <trkpt lat="44.5545" lon="6.16206">
        <ele>1020</ele>
        <time>2022-09-11T09:39:52Z</time>
      </trkpt>
      <trkpt lat="44.5545" lon="6.16206">
        <ele>1020</ele>
        <time>2022-09-11T09:39:53Z</time>
      </trkpt>
      <trkpt lat="44.55449" lon="6.16207">
        <ele>1019.9</ele>
        <time>2022-09-11T09:39:54Z</time>
      </trkpt>
      <trkpt lat="44.55449" lon="6.16207">
        <ele>1019.9</ele>
        <time>2022-09-11T09:39:55Z</time>
      </trkpt>
      <trkpt lat="44.55449" lon="6.16208">
        <ele>1019.9</ele>
        <time>2022-09-11T09:39:56Z</time>
      </trkpt>
      <trkpt lat="44.55449" lon="6.16208">
        <ele>1019.9</ele>
        <time>2022-09-11T09:39:57Z</time>
      </trkpt>
      <trkpt lat="44.55449" lon="6.16209">
        <ele>1019.9</ele>
        <time>2022-09-11T09:39:58Z</time>
      </trkpt>
      <trkpt lat="44.55449" lon="6.16209">
        <ele>1019.9</ele>
        <time>2022-09-11T09:40:43Z</time>
      </trkpt>
      <trkpt lat="44.55449" lon="6.1621">
        <ele>1019.9</ele>
        <time>2022-09-11T09:40:44Z</time>
      </trkpt>
      <trkpt lat="44.55449" lon="6.1621">
        <ele>1019.9</ele>
        <time>2022-09-11T09:40:45Z</time>
      </trkpt>
      <trkpt lat="44.55448" lon="6.16212">
        <ele>1019.9</ele>
        <time>2022-09-11T09:40:46Z</time>
      </trkpt>
      <trkpt lat="44.55447" lon="6.16213">
        <ele>1019.9</ele>
        <time>2022-09-11T09:40:47Z</time>
      </trkpt>
      <trkpt lat="44.55445" lon="6.16216">
        <ele>1019.8</ele>
        <time>2022-09-11T09:40:48Z</time>
      </trkpt>
      <trkpt lat="44.55445" lon="6.16218">
        <ele>1019.8</ele>
        <time>2022-09-11T09:40:50Z</time>
      </trkpt>
      <trkpt lat="44.55444" lon="6.16219">
        <ele>1019.8</ele>
        <time>2022-09-11T09:40:51Z</time>
      </trkpt>
      <trkpt lat="44.55443" lon="6.16221">
        <ele>1019.7</ele>
        <time>2022-09-11T09:40:52Z</time>
      </trkpt>
      <trkpt lat="44.55443" lon="6.16223">
        <ele>1019.7</ele>
        <time>2022-09-11T09:40:53Z</time>
      </trkpt>
      <trkpt lat="44.55442" lon="6.16225">
        <ele>1019.7</ele>
        <time>2022-09-11T09:40:54Z</time>
      </trkpt>
      <trkpt lat="44.55442" lon="6.16227">
        <ele>1019.7</ele>
        <time>2022-09-11T09:40:55Z</time>
      </trkpt>
      <trkpt lat="44.55441" lon="6.16229">
        <ele>1019.7</ele>
        <time>2022-09-11T09:40:56Z</time>
      </trkpt>
      <trkpt lat="44.55441" lon="6.16231">
        <ele>1019.6</ele>
        <time>2022-09-11T09:40:58Z</time>
      </trkpt>
      <trkpt lat="44.55441" lon="6.16235">
        <ele>1019.6</ele>
        <time>2022-09-11T09:40:59Z</time>
      </trkpt>
      <trkpt lat="44.5544" lon="6.1624">
        <ele>1019.5</ele>
        <time>2022-09-11T09:41:01Z</time>
      </trkpt>
      <trkpt lat="44.5544" lon="6.16241">
        <ele>1019.5</ele>
        <time>2022-09-11T09:41:02Z</time>
      </trkpt>
      <trkpt lat="44.55439" lon="6.16242">
        <ele>1019.5</ele>
        <time>2022-09-11T09:41:03Z</time>
      </trkpt>
      <trkpt lat="44.55438" lon="6.16243">
        <ele>1019.5</ele>
        <time>2022-09-11T09:41:05Z</time>
      </trkpt>
      <trkpt lat="44.55437" lon="6.16244">
        <ele>1019.4</ele>
        <time>2022-09-11T09:41:06Z</time>
      </trkpt>
      <trkpt lat="44.55437" lon="6.16245">
        <ele>1019.4</ele>
        <time>2022-09-11T09:41:07Z</time>
      </trkpt>
      <trkpt lat="44.55436" lon="6.16247">
        <ele>1019.4</ele>
        <time>2022-09-11T09:41:08Z</time>
      </trkpt>
      <trkpt lat="44.55435" lon="6.16248">
        <ele>1019.4</ele>
        <time>2022-09-11T09:41:09Z</time>
      </trkpt>
      <trkpt lat="44.55435" lon="6.16249">
        <ele>1019.4</ele>
        <time>2022-09-11T09:41:10Z</time>
      </trkpt>
      <trkpt lat="44.55434" lon="6.1625">
        <ele>1019.4</ele>
        <time>2022-09-11T09:41:11Z</time>
      </trkpt>
      <trkpt lat="44.55434" lon="6.16251">
        <ele>1019.3</ele>
        <time>2022-09-11T09:41:12Z</time>
      </trkpt>
      <trkpt lat="44.55433" lon="6.16252">
        <ele>1019.3</ele>
        <time>2022-09-11T09:41:13Z</time>
      </trkpt>
      <trkpt lat="44.55433" lon="6.16253">
        <ele>1019.3</ele>
        <time>2022-09-11T09:41:14Z</time>
      </trkpt>
      <trkpt lat="44.55433" lon="6.16254">
        <ele>1019.3</ele>
        <time>2022-09-11T09:41:15Z</time>
      </trkpt>
      <trkpt lat="44.55433" lon="6.16255">
        <ele>1019.3</ele>
        <time>2022-09-11T09:41:16Z</time>
      </trkpt>
      <trkpt lat="44.55433" lon="6.16256">
        <ele>1019.3</ele>
        <time>2022-09-11T09:41:17Z</time>
      </trkpt>
      <trkpt lat="44.55433" lon="6.16257">
        <ele>1019.3</ele>
        <time>2022-09-11T09:41:18Z</time>
      </trkpt>
      <trkpt lat="44.55432" lon="6.16259">
        <ele>1019.2</ele>
        <time>2022-09-11T09:41:19Z</time>
      </trkpt>
      <trkpt lat="44.55432" lon="6.1626">
        <ele>1019.2</ele>
        <time>2022-09-11T09:41:21Z</time>
      </trkpt>
      <trkpt lat="44.55432" lon="6.16261">
        <ele>1019.2</ele>
        <time>2022-09-11T09:41:22Z</time>
      </trkpt>
      <trkpt lat="44.55431" lon="6.16262">
        <ele>1019.2</ele>
        <time>2022-09-11T09:41:23Z</time>
      </trkpt>
      <trkpt lat="44.55431" lon="6.16264">
        <ele>1019.2</ele>
        <time>2022-09-11T09:41:24Z</time>
      </trkpt>
      <trkpt lat="44.55431" lon="6.16265">
        <ele>1019.2</ele>
        <time>2022-09-11T09:41:25Z</time>
      </trkpt>
      <trkpt lat="44.5543" lon="6.16266">
        <ele>1019.2</ele>
        <time>2022-09-11T09:41:26Z</time>
      </trkpt>
      <trkpt lat="44.5543" lon="6.16267">
        <ele>1019.1</ele>
        <time>2022-09-11T09:41:27Z</time>
      </trkpt>
      <trkpt lat="44.5543" lon="6.16268">
        <ele>1019.1</ele>
        <time>2022-09-11T09:41:28Z</time>
      </trkpt>
      <trkpt lat="44.5543" lon="6.1627">
        <ele>1019.1</ele>
        <time>2022-09-11T09:41:29Z</time>
      </trkpt>
      <trkpt lat="44.55429" lon="6.16271">
        <ele>1019.1</ele>
        <time>2022-09-11T09:41:30Z</time>
      </trkpt>
      <trkpt lat="44.55428" lon="6.16273">
        <ele>1019.1</ele>
        <time>2022-09-11T09:41:31Z</time>
      </trkpt>
      <trkpt lat="44.55428" lon="6.16274">
        <ele>1019.1</ele>
        <time>2022-09-11T09:41:32Z</time>
      </trkpt>
      <trkpt lat="44.55426" lon="6.16276">
        <ele>1019</ele>
        <time>2022-09-11T09:41:34Z</time>
      </trkpt>
      <trkpt lat="44.55425" lon="6.16276">
        <ele>1019</ele>
        <time>2022-09-11T09:41:35Z</time>
      </trkpt>
      <trkpt lat="44.55423" lon="6.16278">
        <ele>1019.4</ele>
        <time>2022-09-11T09:41:36Z</time>
      </trkpt>
      <trkpt lat="44.55422" lon="6.16278">
        <ele>1019.5</ele>
        <time>2022-09-11T09:41:37Z</time>
      </trkpt>
      <trkpt lat="44.55421" lon="6.16279">
        <ele>1019.5</ele>
        <time>2022-09-11T09:41:38Z</time>
      </trkpt>
      <trkpt lat="44.55419" lon="6.1628">
        <ele>1019.5</ele>
        <time>2022-09-11T09:41:40Z</time>
      </trkpt>
      <trkpt lat="44.55419" lon="6.1628">
        <ele>1019.5</ele>
        <time>2022-09-11T09:41:41Z</time>
      </trkpt>
      <trkpt lat="44.55418" lon="6.16281">
        <ele>1019.6</ele>
        <time>2022-09-11T09:41:42Z</time>
      </trkpt>
      <trkpt lat="44.55417" lon="6.1628">
        <ele>1019.6</ele>
        <time>2022-09-11T09:41:43Z</time>
      </trkpt>
      <trkpt lat="44.55417" lon="6.1628">
        <ele>1019.6</ele>
        <time>2022-09-11T09:41:44Z</time>
      </trkpt>
      <trkpt lat="44.55416" lon="6.16278">
        <ele>1019.6</ele>
        <time>2022-09-11T09:41:45Z</time>
      </trkpt>
      <trkpt lat="44.55416" lon="6.16277">
        <ele>1019.6</ele>
        <time>2022-09-11T09:41:46Z</time>
      </trkpt>
      <trkpt lat="44.55415" lon="6.16275">
        <ele>1019.6</ele>
        <time>2022-09-11T09:41:47Z</time>
      </trkpt>
      <trkpt lat="44.55415" lon="6.16274">
        <ele>1019.6</ele>
        <time>2022-09-11T09:41:48Z</time>
      </trkpt>
      <trkpt lat="44.55415" lon="6.16272">
        <ele>1019.7</ele>
        <time>2022-09-11T09:41:49Z</time>
      </trkpt>
      <trkpt lat="44.55415" lon="6.1627">
        <ele>1019.7</ele>
        <time>2022-09-11T09:41:50Z</time>
      </trkpt>
      <trkpt lat="44.55415" lon="6.16269">
        <ele>1019.6</ele>
        <time>2022-09-11T09:41:51Z</time>
      </trkpt>
      <trkpt lat="44.55415" lon="6.16267">
        <ele>1019.6</ele>
        <time>2022-09-11T09:41:52Z</time>
      </trkpt>
      <trkpt lat="44.55414" lon="6.16265">
        <ele>1019.6</ele>
        <time>2022-09-11T09:41:53Z</time>
      </trkpt>
      <trkpt lat="44.55415" lon="6.16264">
        <ele>1019.6</ele>
        <time>2022-09-11T09:41:54Z</time>
      </trkpt>
      <trkpt lat="44.55415" lon="6.16263">
        <ele>1019.6</ele>
        <time>2022-09-11T09:41:55Z</time>
      </trkpt>
      <trkpt lat="44.55416" lon="6.16262">
        <ele>1019.6</ele>
        <time>2022-09-11T09:41:56Z</time>
      </trkpt>
      <trkpt lat="44.55416" lon="6.1626">
        <ele>1019.6</ele>
        <time>2022-09-11T09:41:57Z</time>
      </trkpt>
      <trkpt lat="44.55417" lon="6.16259">
        <ele>1019.5</ele>
        <time>2022-09-11T09:41:58Z</time>
      </trkpt>
      <trkpt lat="44.55418" lon="6.16258">
        <ele>1019.5</ele>
        <time>2022-09-11T09:41:59Z</time>
      </trkpt>
      <trkpt lat="44.55418" lon="6.16257">
        <ele>1019.5</ele>
        <time>2022-09-11T09:42:00Z</time>
      </trkpt>
      <trkpt lat="44.55419" lon="6.16256">
        <ele>1019.4</ele>
        <time>2022-09-11T09:42:01Z</time>
      </trkpt>
      <trkpt lat="44.5542" lon="6.16255">
        <ele>1019.4</ele>
        <time>2022-09-11T09:42:02Z</time>
      </trkpt>
      <trkpt lat="44.5542" lon="6.16254">
        <ele>1019.4</ele>
        <time>2022-09-11T09:42:03Z</time>
      </trkpt>
      <trkpt lat="44.55421" lon="6.16254">
        <ele>1019.4</ele>
        <time>2022-09-11T09:42:04Z</time>
      </trkpt>
      <trkpt lat="44.55421" lon="6.16253">
        <ele>1019.3</ele>
        <time>2022-09-11T09:42:05Z</time>
      </trkpt>
      <trkpt lat="44.55421" lon="6.16252">
        <ele>1019.3</ele>
        <time>2022-09-11T09:42:06Z</time>
      </trkpt>
      <trkpt lat="44.55421" lon="6.16251">
        <ele>1019.3</ele>
        <time>2022-09-11T09:42:07Z</time>
      </trkpt>
      <trkpt lat="44.55421" lon="6.1625">
        <ele>1019.3</ele>
        <time>2022-09-11T09:42:08Z</time>
      </trkpt>
      <trkpt lat="44.55421" lon="6.16249">
        <ele>1019.2</ele>
        <time>2022-09-11T09:42:09Z</time>
      </trkpt>
      <trkpt lat="44.55421" lon="6.16248">
        <ele>1019.2</ele>
        <time>2022-09-11T09:42:10Z</time>
      </trkpt>
      <trkpt lat="44.55421" lon="6.16247">
        <ele>1019.2</ele>
        <time>2022-09-11T09:42:11Z</time>
      </trkpt>
      <trkpt lat="44.55421" lon="6.16246">
        <ele>1019.1</ele>
        <time>2022-09-11T09:42:12Z</time>
      </trkpt>
      <trkpt lat="44.55421" lon="6.16245">
        <ele>1019.1</ele>
        <time>2022-09-11T09:42:13Z</time>
      </trkpt>
      <trkpt lat="44.55421" lon="6.16244">
        <ele>1019.1</ele>
        <time>2022-09-11T09:42:15Z</time>
      </trkpt>
      <trkpt lat="44.55421" lon="6.16243">
        <ele>1019</ele>
        <time>2022-09-11T09:42:16Z</time>
      </trkpt>
      <trkpt lat="44.5542" lon="6.16242">
        <ele>1019</ele>
        <time>2022-09-11T09:42:17Z</time>
      </trkpt>
      <trkpt lat="44.55419" lon="6.16241">
        <ele>1018.9</ele>
        <time>2022-09-11T09:42:18Z</time>
      </trkpt>
      <trkpt lat="44.55418" lon="6.1624">
        <ele>1018.9</ele>
        <time>2022-09-11T09:42:19Z</time>
      </trkpt>
      <trkpt lat="44.55417" lon="6.1624">
        <ele>1018.8</ele>
        <time>2022-09-11T09:42:20Z</time>
      </trkpt>
      <trkpt lat="44.55417" lon="6.16239">
        <ele>1018.8</ele>
        <time>2022-09-11T09:42:21Z</time>
      </trkpt>
      <trkpt lat="44.55416" lon="6.16238">
        <ele>1018.8</ele>
        <time>2022-09-11T09:42:22Z</time>
      </trkpt>
      <trkpt lat="44.55415" lon="6.16238">
        <ele>1018.7</ele>
        <time>2022-09-11T09:42:23Z</time>
      </trkpt>
      <trkpt lat="44.55414" lon="6.16237">
        <ele>1018.7</ele>
        <time>2022-09-11T09:42:24Z</time>
      </trkpt>
      <trkpt lat="44.55413" lon="6.16237">
        <ele>1018.7</ele>
        <time>2022-09-11T09:42:25Z</time>
      </trkpt>
      <trkpt lat="44.55412" lon="6.16236">
        <ele>1018.6</ele>
        <time>2022-09-11T09:42:26Z</time>
      </trkpt>
      <trkpt lat="44.5541" lon="6.16236">
        <ele>1018.5</ele>
        <time>2022-09-11T09:42:27Z</time>
      </trkpt>
      <trkpt lat="44.55409" lon="6.16236">
        <ele>1018.4</ele>
        <time>2022-09-11T09:42:28Z</time>
      </trkpt>
      <trkpt lat="44.55408" lon="6.16236">
        <ele>1018.3</ele>
        <time>2022-09-11T09:42:29Z</time>
      </trkpt>
      <trkpt lat="44.55407" lon="6.16236">
        <ele>1018.3</ele>
        <time>2022-09-11T09:42:31Z</time>
      </trkpt>
      <trkpt lat="44.55406" lon="6.16236">
        <ele>1018.2</ele>
        <time>2022-09-11T09:42:32Z</time>
      </trkpt>
      <trkpt lat="44.55406" lon="6.16236">
        <ele>1018.2</ele>
        <time>2022-09-11T09:42:33Z</time>
      </trkpt>
      <trkpt lat="44.55406" lon="6.16236">
        <ele>1018.2</ele>
        <time>2022-09-11T09:42:34Z</time>
      </trkpt>
      <trkpt lat="44.55406" lon="6.16237">
        <ele>1018.2</ele>
        <time>2022-09-11T09:42:35Z</time>
      </trkpt>
      <trkpt lat="44.55407" lon="6.16236">
        <ele>1018.2</ele>
        <time>2022-09-11T09:42:36Z</time>
      </trkpt>
      <trkpt lat="44.55407" lon="6.16236">
        <ele>1018.1</ele>
        <time>2022-09-11T09:42:38Z</time>
      </trkpt>
      <trkpt lat="44.55408" lon="6.16236">
        <ele>1018.1</ele>
        <time>2022-09-11T09:42:40Z</time>
      </trkpt>
      <trkpt lat="44.55409" lon="6.16236">
        <ele>1018.1</ele>
        <time>2022-09-11T09:42:41Z</time>
      </trkpt>
      <trkpt lat="44.5541" lon="6.16237">
        <ele>1018</ele>
        <time>2022-09-11T09:42:42Z</time>
      </trkpt>
      <trkpt lat="44.5541" lon="6.16238">
        <ele>1017.9</ele>
        <time>2022-09-11T09:42:43Z</time>
      </trkpt>
      <trkpt lat="44.5541" lon="6.16238">
        <ele>1017.9</ele>
        <time>2022-09-11T09:42:44Z</time>
      </trkpt>
      <trkpt lat="44.5541" lon="6.1624">
        <ele>1017.9</ele>
        <time>2022-09-11T09:42:45Z</time>
      </trkpt>
      <trkpt lat="44.55411" lon="6.16241">
        <ele>1017.8</ele>
        <time>2022-09-11T09:42:46Z</time>
      </trkpt>
      <trkpt lat="44.55411" lon="6.16243">
        <ele>1017.7</ele>
        <time>2022-09-11T09:42:48Z</time>
      </trkpt>
      <trkpt lat="44.55411" lon="6.16245">
        <ele>1017.6</ele>
        <time>2022-09-11T09:42:49Z</time>
      </trkpt>
      <trkpt lat="44.55409" lon="6.16249">
        <ele>1017.5</ele>
        <time>2022-09-11T09:42:50Z</time>
      </trkpt>
      <trkpt lat="44.55408" lon="6.16252">
        <ele>1017.4</ele>
        <time>2022-09-11T09:42:51Z</time>
      </trkpt>
      <trkpt lat="44.55407" lon="6.16253">
        <ele>1017.3</ele>
        <time>2022-09-11T09:42:52Z</time>
      </trkpt>
      <trkpt lat="44.55405" lon="6.16257">
        <ele>1017.2</ele>
        <time>2022-09-11T09:42:54Z</time>
      </trkpt>
      <trkpt lat="44.55404" lon="6.16257">
        <ele>1017.2</ele>
        <time>2022-09-11T09:42:55Z</time>
      </trkpt>
      <trkpt lat="44.55402" lon="6.16258">
        <ele>1017.1</ele>
        <time>2022-09-11T09:42:56Z</time>
      </trkpt>
      <trkpt lat="44.55401" lon="6.16259">
        <ele>1017.1</ele>
        <time>2022-09-11T09:42:57Z</time>
      </trkpt>
      <trkpt lat="44.55399" lon="6.16262">
        <ele>1017</ele>
        <time>2022-09-11T09:42:58Z</time>
      </trkpt>
      <trkpt lat="44.55399" lon="6.16263">
        <ele>1016.9</ele>
        <time>2022-09-11T09:42:59Z</time>
      </trkpt>
      <trkpt lat="44.55396" lon="6.16265">
        <ele>1016.8</ele>
        <time>2022-09-11T09:43:01Z</time>
      </trkpt>
      <trkpt lat="44.55395" lon="6.16265">
        <ele>1016.8</ele>
        <time>2022-09-11T09:43:02Z</time>
      </trkpt>
      <trkpt lat="44.55393" lon="6.16266">
        <ele>1016.7</ele>
        <time>2022-09-11T09:43:03Z</time>
      </trkpt>
      <trkpt lat="44.55392" lon="6.16267">
        <ele>1016.6</ele>
        <time>2022-09-11T09:43:04Z</time>
      </trkpt>
      <trkpt lat="44.55391" lon="6.16268">
        <ele>1016.6</ele>
        <time>2022-09-11T09:43:05Z</time>
      </trkpt>
      <trkpt lat="44.5539" lon="6.16268">
        <ele>1016.6</ele>
        <time>2022-09-11T09:43:06Z</time>
      </trkpt>
      <trkpt lat="44.55389" lon="6.16268">
        <ele>1016.6</ele>
        <time>2022-09-11T09:43:07Z</time>
      </trkpt>
      <trkpt lat="44.55387" lon="6.16267">
        <ele>1016.6</ele>
        <time>2022-09-11T09:43:08Z</time>
      </trkpt>
      <trkpt lat="44.55387" lon="6.16266">
        <ele>1016.6</ele>
        <time>2022-09-11T09:43:10Z</time>
      </trkpt>
      <trkpt lat="44.55386" lon="6.16267">
        <ele>1016.6</ele>
        <time>2022-09-11T09:43:12Z</time>
      </trkpt>
      <trkpt lat="44.55385" lon="6.16267">
        <ele>1016.6</ele>
        <time>2022-09-11T09:43:13Z</time>
      </trkpt>
      <trkpt lat="44.55385" lon="6.16268">
        <ele>1016.6</ele>
        <time>2022-09-11T09:43:14Z</time>
      </trkpt>
      <trkpt lat="44.55385" lon="6.16269">
        <ele>1016.6</ele>
        <time>2022-09-11T09:43:15Z</time>
      </trkpt>
      <trkpt lat="44.55385" lon="6.1627">
        <ele>1016.6</ele>
        <time>2022-09-11T09:43:16Z</time>
      </trkpt>
      <trkpt lat="44.55384" lon="6.16271">
        <ele>1016.6</ele>
        <time>2022-09-11T09:43:17Z</time>
      </trkpt>
      <trkpt lat="44.55384" lon="6.16273">
        <ele>1016.6</ele>
        <time>2022-09-11T09:43:18Z</time>
      </trkpt>
      <trkpt lat="44.55384" lon="6.16274">
        <ele>1016.6</ele>
        <time>2022-09-11T09:43:19Z</time>
      </trkpt>
      <trkpt lat="44.55383" lon="6.16278">
        <ele>1016.7</ele>
        <time>2022-09-11T09:43:20Z</time>
      </trkpt>
      <trkpt lat="44.55383" lon="6.16279">
        <ele>1016.7</ele>
        <time>2022-09-11T09:43:21Z</time>
      </trkpt>
      <trkpt lat="44.55382" lon="6.1628">
        <ele>1016.7</ele>
        <time>2022-09-11T09:43:22Z</time>
      </trkpt>
      <trkpt lat="44.55382" lon="6.16282">
        <ele>1016.7</ele>
        <time>2022-09-11T09:43:24Z</time>
      </trkpt>
      <trkpt lat="44.55382" lon="6.16284">
        <ele>1016.7</ele>
        <time>2022-09-11T09:43:25Z</time>
      </trkpt>
      <trkpt lat="44.55382" lon="6.16285">
        <ele>1016.7</ele>
        <time>2022-09-11T09:43:26Z</time>
      </trkpt>
      <trkpt lat="44.55381" lon="6.16287">
        <ele>1016.7</ele>
        <time>2022-09-11T09:43:27Z</time>
      </trkpt>
      <trkpt lat="44.55381" lon="6.16288">
        <ele>1016.7</ele>
        <time>2022-09-11T09:43:29Z</time>
      </trkpt>
      <trkpt lat="44.55381" lon="6.16289">
        <ele>1016.7</ele>
        <time>2022-09-11T09:43:30Z</time>
      </trkpt>
      <trkpt lat="44.55381" lon="6.1629">
        <ele>1016.7</ele>
        <time>2022-09-11T09:43:31Z</time>
      </trkpt>
      <trkpt lat="44.55381" lon="6.16291">
        <ele>1016.7</ele>
        <time>2022-09-11T09:43:32Z</time>
      </trkpt>
      <trkpt lat="44.55381" lon="6.16292">
        <ele>1016.7</ele>
        <time>2022-09-11T09:43:33Z</time>
      </trkpt>
      <trkpt lat="44.55381" lon="6.16293">
        <ele>1016.7</ele>
        <time>2022-09-11T09:43:34Z</time>
      </trkpt>
      <trkpt lat="44.55381" lon="6.16294">
        <ele>1016.7</ele>
        <time>2022-09-11T09:43:35Z</time>
      </trkpt>
      <trkpt lat="44.5538" lon="6.16295">
        <ele>1016.7</ele>
        <time>2022-09-11T09:43:36Z</time>
      </trkpt>
      <trkpt lat="44.5538" lon="6.16296">
        <ele>1016.7</ele>
        <time>2022-09-11T09:43:37Z</time>
      </trkpt>
      <trkpt lat="44.5538" lon="6.16297">
        <ele>1016.7</ele>
        <time>2022-09-11T09:43:38Z</time>
      </trkpt>
      <trkpt lat="44.5538" lon="6.16298">
        <ele>1016.7</ele>
        <time>2022-09-11T09:43:39Z</time>
      </trkpt>
      <trkpt lat="44.55379" lon="6.163">
        <ele>1016.7</ele>
        <time>2022-09-11T09:43:40Z</time>
      </trkpt>
      <trkpt lat="44.55379" lon="6.16301">
        <ele>1016.7</ele>
        <time>2022-09-11T09:43:41Z</time>
      </trkpt>
      <trkpt lat="44.55379" lon="6.16302">
        <ele>1016.7</ele>
        <time>2022-09-11T09:43:42Z</time>
      </trkpt>
      <trkpt lat="44.55378" lon="6.16303">
        <ele>1016.7</ele>
        <time>2022-09-11T09:43:43Z</time>
      </trkpt>
      <trkpt lat="44.55378" lon="6.16304">
        <ele>1016.7</ele>
        <time>2022-09-11T09:43:44Z</time>
      </trkpt>
      <trkpt lat="44.55377" lon="6.16306">
        <ele>1016.6</ele>
        <time>2022-09-11T09:43:45Z</time>
      </trkpt>
      <trkpt lat="44.55377" lon="6.16307">
        <ele>1016.6</ele>
        <time>2022-09-11T09:43:46Z</time>
      </trkpt>
      <trkpt lat="44.55376" lon="6.16308">
        <ele>1016.6</ele>
        <time>2022-09-11T09:43:47Z</time>
      </trkpt>
      <trkpt lat="44.55376" lon="6.16309">
        <ele>1016.6</ele>
        <time>2022-09-11T09:43:48Z</time>
      </trkpt>
      <trkpt lat="44.55376" lon="6.1631">
        <ele>1016.6</ele>
        <time>2022-09-11T09:43:49Z</time>
      </trkpt>
      <trkpt lat="44.55375" lon="6.1631">
        <ele>1016.6</ele>
        <time>2022-09-11T09:43:50Z</time>
      </trkpt>
      <trkpt lat="44.55375" lon="6.16311">
        <ele>1016.6</ele>
        <time>2022-09-11T09:43:51Z</time>
      </trkpt>
      <trkpt lat="44.55374" lon="6.16312">
        <ele>1016.6</ele>
        <time>2022-09-11T09:43:52Z</time>
      </trkpt>
      <trkpt lat="44.55374" lon="6.16313">
        <ele>1016.6</ele>
        <time>2022-09-11T09:43:53Z</time>
      </trkpt>
      <trkpt lat="44.55373" lon="6.16314">
        <ele>1016.6</ele>
        <time>2022-09-11T09:43:54Z</time>
      </trkpt>
      <trkpt lat="44.55372" lon="6.16316">
        <ele>1016.6</ele>
        <time>2022-09-11T09:43:55Z</time>
      </trkpt>
      <trkpt lat="44.55372" lon="6.16317">
        <ele>1016.6</ele>
        <time>2022-09-11T09:43:56Z</time>
      </trkpt>
      <trkpt lat="44.55371" lon="6.16318">
        <ele>1016.6</ele>
        <time>2022-09-11T09:43:57Z</time>
      </trkpt>
      <trkpt lat="44.5537" lon="6.1632">
        <ele>1016.6</ele>
        <time>2022-09-11T09:43:58Z</time>
      </trkpt>
      <trkpt lat="44.5537" lon="6.16321">
        <ele>1016.6</ele>
        <time>2022-09-11T09:43:59Z</time>
      </trkpt>
      <trkpt lat="44.55369" lon="6.16323">
        <ele>1016.6</ele>
        <time>2022-09-11T09:44:00Z</time>
      </trkpt>
      <trkpt lat="44.55369" lon="6.16324">
        <ele>1016.6</ele>
        <time>2022-09-11T09:44:01Z</time>
      </trkpt>
      <trkpt lat="44.55369" lon="6.16326">
        <ele>1016.6</ele>
        <time>2022-09-11T09:44:02Z</time>
      </trkpt>
      <trkpt lat="44.55368" lon="6.16327">
        <ele>1016.6</ele>
        <time>2022-09-11T09:44:03Z</time>
      </trkpt>
      <trkpt lat="44.55368" lon="6.16327">
        <ele>1016.6</ele>
        <time>2022-09-11T09:44:04Z</time>
      </trkpt>
      <trkpt lat="44.55368" lon="6.16328">
        <ele>1016.6</ele>
        <time>2022-09-11T09:44:05Z</time>
      </trkpt>
      <trkpt lat="44.55367" lon="6.1633">
        <ele>1016.6</ele>
        <time>2022-09-11T09:44:06Z</time>
      </trkpt>
      <trkpt lat="44.55367" lon="6.16331">
        <ele>1016.6</ele>
        <time>2022-09-11T09:44:07Z</time>
      </trkpt>
      <trkpt lat="44.55367" lon="6.16333">
        <ele>1016.6</ele>
        <time>2022-09-11T09:44:08Z</time>
      </trkpt>
      <trkpt lat="44.55367" lon="6.16335">
        <ele>1016.6</ele>
        <time>2022-09-11T09:44:10Z</time>
      </trkpt>
      <trkpt lat="44.55366" lon="6.16337">
        <ele>1016.6</ele>
        <time>2022-09-11T09:44:11Z</time>
      </trkpt>
      <trkpt lat="44.55366" lon="6.1634">
        <ele>1016.6</ele>
        <time>2022-09-11T09:44:12Z</time>
      </trkpt>
      <trkpt lat="44.55366" lon="6.16341">
        <ele>1016.6</ele>
        <time>2022-09-11T09:44:14Z</time>
      </trkpt>
      <trkpt lat="44.55365" lon="6.16342">
        <ele>1016.6</ele>
        <time>2022-09-11T09:44:15Z</time>
      </trkpt>
      <trkpt lat="44.55365" lon="6.16343">
        <ele>1016.6</ele>
        <time>2022-09-11T09:44:16Z</time>
      </trkpt>
      <trkpt lat="44.55365" lon="6.16344">
        <ele>1016.6</ele>
        <time>2022-09-11T09:44:17Z</time>
      </trkpt>
      <trkpt lat="44.55364" lon="6.16346">
        <ele>1016.6</ele>
        <time>2022-09-11T09:44:19Z</time>
      </trkpt>
      <trkpt lat="44.55364" lon="6.16348">
        <ele>1016.6</ele>
        <time>2022-09-11T09:44:20Z</time>
      </trkpt>
      <trkpt lat="44.55364" lon="6.16348">
        <ele>1016.6</ele>
        <time>2022-09-11T09:44:21Z</time>
      </trkpt>
      <trkpt lat="44.55364" lon="6.16349">
        <ele>1016.6</ele>
        <time>2022-09-11T09:44:22Z</time>
      </trkpt>
      <trkpt lat="44.55364" lon="6.16351">
        <ele>1016.6</ele>
        <time>2022-09-11T09:44:24Z</time>
      </trkpt>
      <trkpt lat="44.55364" lon="6.16352">
        <ele>1016.6</ele>
        <time>2022-09-11T09:44:25Z</time>
      </trkpt>
      <trkpt lat="44.55364" lon="6.16354">
        <ele>1016.5</ele>
        <time>2022-09-11T09:44:26Z</time>
      </trkpt>
      <trkpt lat="44.55364" lon="6.16355">
        <ele>1016.5</ele>
        <time>2022-09-11T09:44:28Z</time>
      </trkpt>
      <trkpt lat="44.55364" lon="6.16358">
        <ele>1016.5</ele>
        <time>2022-09-11T09:44:29Z</time>
      </trkpt>
      <trkpt lat="44.55363" lon="6.16359">
        <ele>1016.5</ele>
        <time>2022-09-11T09:44:31Z</time>
      </trkpt>
      <trkpt lat="44.55363" lon="6.1636">
        <ele>1016.5</ele>
        <time>2022-09-11T09:44:32Z</time>
      </trkpt>
      <trkpt lat="44.55363" lon="6.16362">
        <ele>1016.4</ele>
        <time>2022-09-11T09:44:33Z</time>
      </trkpt>
      <trkpt lat="44.55362" lon="6.16363">
        <ele>1016.4</ele>
        <time>2022-09-11T09:44:35Z</time>
      </trkpt>
      <trkpt lat="44.55363" lon="6.16365">
        <ele>1016.4</ele>
        <time>2022-09-11T09:44:36Z</time>
      </trkpt>
      <trkpt lat="44.55363" lon="6.16366">
        <ele>1016.4</ele>
        <time>2022-09-11T09:44:37Z</time>
      </trkpt>
      <trkpt lat="44.55362" lon="6.16367">
        <ele>1016.3</ele>
        <time>2022-09-11T09:44:38Z</time>
      </trkpt>
      <trkpt lat="44.55362" lon="6.16368">
        <ele>1016.3</ele>
        <time>2022-09-11T09:44:40Z</time>
      </trkpt>
      <trkpt lat="44.55362" lon="6.16369">
        <ele>1016.3</ele>
        <time>2022-09-11T09:44:41Z</time>
      </trkpt>
      <trkpt lat="44.55362" lon="6.1637">
        <ele>1016.3</ele>
        <time>2022-09-11T09:44:42Z</time>
      </trkpt>
      <trkpt lat="44.55362" lon="6.16371">
        <ele>1016.3</ele>
        <time>2022-09-11T09:44:43Z</time>
      </trkpt>
      <trkpt lat="44.55362" lon="6.16372">
        <ele>1016.2</ele>
        <time>2022-09-11T09:44:44Z</time>
      </trkpt>
      <trkpt lat="44.55362" lon="6.16373">
        <ele>1016.2</ele>
        <time>2022-09-11T09:44:45Z</time>
      </trkpt>
      <trkpt lat="44.55362" lon="6.16374">
        <ele>1016.2</ele>
        <time>2022-09-11T09:44:46Z</time>
      </trkpt>
      <trkpt lat="44.55362" lon="6.16375">
        <ele>1016.1</ele>
        <time>2022-09-11T09:44:47Z</time>
      </trkpt>
      <trkpt lat="44.55361" lon="6.16376">
        <ele>1016.1</ele>
        <time>2022-09-11T09:44:48Z</time>
      </trkpt>
      <trkpt lat="44.5536" lon="6.16376">
        <ele>1016.1</ele>
        <time>2022-09-11T09:44:49Z</time>
      </trkpt>
      <trkpt lat="44.5536" lon="6.16377">
        <ele>1016</ele>
        <time>2022-09-11T09:44:50Z</time>
      </trkpt>
      <trkpt lat="44.55359" lon="6.16378">
        <ele>1016</ele>
        <time>2022-09-11T09:44:51Z</time>
      </trkpt>
      <trkpt lat="44.55359" lon="6.16378">
        <ele>1016</ele>
        <time>2022-09-11T09:44:52Z</time>
      </trkpt>
      <trkpt lat="44.55359" lon="6.16378">
        <ele>1015.9</ele>
        <time>2022-09-11T09:44:53Z</time>
      </trkpt>
      <trkpt lat="44.55359" lon="6.16379">
        <ele>1015.9</ele>
        <time>2022-09-11T09:44:54Z</time>
      </trkpt>
      <trkpt lat="44.55359" lon="6.16378">
        <ele>1015.9</ele>
        <time>2022-09-11T09:44:55Z</time>
      </trkpt>
      <trkpt lat="44.55358" lon="6.16378">
        <ele>1015.9</ele>
        <time>2022-09-11T09:44:56Z</time>
      </trkpt>
      <trkpt lat="44.55358" lon="6.16379">
        <ele>1015.9</ele>
        <time>2022-09-11T09:44:57Z</time>
      </trkpt>
      <trkpt lat="44.55358" lon="6.16379">
        <ele>1015.9</ele>
        <time>2022-09-11T09:44:58Z</time>
      </trkpt>
      <trkpt lat="44.55358" lon="6.16379">
        <ele>1015.9</ele>
        <time>2022-09-11T09:44:59Z</time>
      </trkpt>
      <trkpt lat="44.55358" lon="6.16379">
        <ele>1015.9</ele>
        <time>2022-09-11T09:45:00Z</time>
      </trkpt>
      <trkpt lat="44.55358" lon="6.16379">
        <ele>1015.9</ele>
        <time>2022-09-11T09:45:01Z</time>
      </trkpt>
      <trkpt lat="44.55358" lon="6.16379">
        <ele>1015.9</ele>
        <time>2022-09-11T09:45:02Z</time>
      </trkpt>
      <trkpt lat="44.55358" lon="6.16379">
        <ele>1015.9</ele>
        <time>2022-09-11T09:45:03Z</time>
      </trkpt>
      <trkpt lat="44.55358" lon="6.16379">
        <ele>1015.9</ele>
        <time>2022-09-11T09:45:04Z</time>
      </trkpt>
      <trkpt lat="44.55358" lon="6.16379">
        <ele>1015.9</ele>
        <time>2022-09-11T09:45:05Z</time>
      </trkpt>
      <trkpt lat="44.55361" lon="6.16374">
        <ele>1015.5</ele>
        <time>2022-09-11T09:45:17Z</time>
      </trkpt>
      <trkpt lat="44.55361" lon="6.16374">
        <ele>1015.5</ele>
        <time>2022-09-11T09:45:18Z</time>
      </trkpt>
      <trkpt lat="44.55362" lon="6.16374">
        <ele>1015.4</ele>
        <time>2022-09-11T09:45:19Z</time>
      </trkpt>
      <trkpt lat="44.55363" lon="6.16374">
        <ele>1015.3</ele>
        <time>2022-09-11T09:45:20Z</time>
      </trkpt>
      <trkpt lat="44.55364" lon="6.16374">
        <ele>1015.1</ele>
        <time>2022-09-11T09:45:21Z</time>
      </trkpt>
      <trkpt lat="44.55365" lon="6.16375">
        <ele>1015</ele>
        <time>2022-09-11T09:45:22Z</time>
      </trkpt>
      <trkpt lat="44.55365" lon="6.16375">
        <ele>1014.9</ele>
        <time>2022-09-11T09:45:23Z</time>
      </trkpt>
      <trkpt lat="44.55366" lon="6.16376">
        <ele>1014.8</ele>
        <time>2022-09-11T09:45:24Z</time>
      </trkpt>
      <trkpt lat="44.55367" lon="6.16376">
        <ele>1014.8</ele>
        <time>2022-09-11T09:45:25Z</time>
      </trkpt>
      <trkpt lat="44.55367" lon="6.16377">
        <ele>1014.7</ele>
        <time>2022-09-11T09:45:26Z</time>
      </trkpt>
      <trkpt lat="44.55368" lon="6.16377">
        <ele>1014.6</ele>
        <time>2022-09-11T09:45:27Z</time>
      </trkpt>
      <trkpt lat="44.55368" lon="6.16376">
        <ele>1014.5</ele>
        <time>2022-09-11T09:45:28Z</time>
      </trkpt>
      <trkpt lat="44.55369" lon="6.16376">
        <ele>1014.4</ele>
        <time>2022-09-11T09:45:29Z</time>
      </trkpt>
      <trkpt lat="44.55369" lon="6.16376">
        <ele>1014.4</ele>
        <time>2022-09-11T09:45:30Z</time>
      </trkpt>
      <trkpt lat="44.55369" lon="6.16376">
        <ele>1014.3</ele>
        <time>2022-09-11T09:45:31Z</time>
      </trkpt>
      <trkpt lat="44.5537" lon="6.16375">
        <ele>1014.3</ele>
        <time>2022-09-11T09:45:32Z</time>
      </trkpt>
      <trkpt lat="44.5537" lon="6.16375">
        <ele>1014.3</ele>
        <time>2022-09-11T09:45:33Z</time>
      </trkpt>
      <trkpt lat="44.5537" lon="6.16375">
        <ele>1014.3</ele>
        <time>2022-09-11T09:45:34Z</time>
      </trkpt>
      <trkpt lat="44.5537" lon="6.16375">
        <ele>1014.3</ele>
        <time>2022-09-11T09:45:35Z</time>
      </trkpt>
      <trkpt lat="44.5537" lon="6.16375">
        <ele>1014.2</ele>
        <time>2022-09-11T09:45:36Z</time>
      </trkpt>
      <trkpt lat="44.5537" lon="6.16375">
        <ele>1014.2</ele>
        <time>2022-09-11T09:45:37Z</time>
      </trkpt>
      <trkpt lat="44.5537" lon="6.16375">
        <ele>1014.2</ele>
        <time>2022-09-11T09:45:38Z</time>
      </trkpt>
      <trkpt lat="44.55369" lon="6.16375">
        <ele>1014.2</ele>
        <time>2022-09-11T09:45:39Z</time>
      </trkpt>
      <trkpt lat="44.5537" lon="6.16375">
        <ele>1014.2</ele>
        <time>2022-09-11T09:45:40Z</time>
      </trkpt>
      <trkpt lat="44.5537" lon="6.16375">
        <ele>1014.2</ele>
        <time>2022-09-11T09:45:41Z</time>
      </trkpt>
      <trkpt lat="44.5537" lon="6.16375">
        <ele>1014.1</ele>
        <time>2022-09-11T09:45:42Z</time>
      </trkpt>
      <trkpt lat="44.5537" lon="6.16375">
        <ele>1014.1</ele>
        <time>2022-09-11T09:45:43Z</time>
      </trkpt>
      <trkpt lat="44.55366" lon="6.16375">
        <ele>1013.6</ele>
        <time>2022-09-11T09:45:54Z</time>
      </trkpt>
      <trkpt lat="44.55366" lon="6.16375">
        <ele>1013.4</ele>
        <time>2022-09-11T09:45:55Z</time>
      </trkpt>
      <trkpt lat="44.55365" lon="6.16375">
        <ele>1013.3</ele>
        <time>2022-09-11T09:45:56Z</time>
      </trkpt>
      <trkpt lat="44.55365" lon="6.16374">
        <ele>1013.2</ele>
        <time>2022-09-11T09:45:57Z</time>
      </trkpt>
      <trkpt lat="44.55364" lon="6.16374">
        <ele>1013.1</ele>
        <time>2022-09-11T09:45:58Z</time>
      </trkpt>
      <trkpt lat="44.55364" lon="6.16373">
        <ele>1013</ele>
        <time>2022-09-11T09:45:59Z</time>
      </trkpt>
      <trkpt lat="44.55363" lon="6.16373">
        <ele>1012.9</ele>
        <time>2022-09-11T09:46:00Z</time>
      </trkpt>
      <trkpt lat="44.55363" lon="6.16371">
        <ele>1012.6</ele>
        <time>2022-09-11T09:46:01Z</time>
      </trkpt>
      <trkpt lat="44.55362" lon="6.1637">
        <ele>1012.5</ele>
        <time>2022-09-11T09:46:02Z</time>
      </trkpt>
      <trkpt lat="44.55362" lon="6.16369">
        <ele>1012.4</ele>
        <time>2022-09-11T09:46:03Z</time>
      </trkpt>
      <trkpt lat="44.55363" lon="6.16368">
        <ele>1012.5</ele>
        <time>2022-09-11T09:46:04Z</time>
      </trkpt>
      <trkpt lat="44.55363" lon="6.16368">
        <ele>1012.6</ele>
        <time>2022-09-11T09:46:05Z</time>
      </trkpt>
      <trkpt lat="44.55363" lon="6.16367">
        <ele>1012.7</ele>
        <time>2022-09-11T09:46:06Z</time>
      </trkpt>
      <trkpt lat="44.55363" lon="6.16367">
        <ele>1012.7</ele>
        <time>2022-09-11T09:46:07Z</time>
      </trkpt>
      <trkpt lat="44.55363" lon="6.16367">
        <ele>1012.7</ele>
        <time>2022-09-11T09:46:08Z</time>
      </trkpt>
      <trkpt lat="44.55363" lon="6.16368">
        <ele>1012.8</ele>
        <time>2022-09-11T09:46:09Z</time>
      </trkpt>
      <trkpt lat="44.55363" lon="6.16368">
        <ele>1012.8</ele>
        <time>2022-09-11T09:46:10Z</time>
      </trkpt>
      <trkpt lat="44.55363" lon="6.16368">
        <ele>1012.8</ele>
        <time>2022-09-11T09:46:11Z</time>
      </trkpt>
      <trkpt lat="44.55363" lon="6.16367">
        <ele>1013</ele>
        <time>2022-09-11T09:46:12Z</time>
      </trkpt>
      <trkpt lat="44.55363" lon="6.16366">
        <ele>1013.2</ele>
        <time>2022-09-11T09:46:13Z</time>
      </trkpt>
      <trkpt lat="44.55363" lon="6.16364">
        <ele>1013.6</ele>
        <time>2022-09-11T09:46:14Z</time>
      </trkpt>
      <trkpt lat="44.55363" lon="6.16362">
        <ele>1014</ele>
        <time>2022-09-11T09:46:15Z</time>
      </trkpt>
      <trkpt lat="44.55363" lon="6.16359">
        <ele>1014.4</ele>
        <time>2022-09-11T09:46:16Z</time>
      </trkpt>
      <trkpt lat="44.55363" lon="6.16357">
        <ele>1014.7</ele>
        <time>2022-09-11T09:46:17Z</time>
      </trkpt>
      <trkpt lat="44.55364" lon="6.16352">
        <ele>1015.4</ele>
        <time>2022-09-11T09:46:18Z</time>
      </trkpt>
      <trkpt lat="44.55364" lon="6.1635">
        <ele>1015.6</ele>
        <time>2022-09-11T09:46:19Z</time>
      </trkpt>
      <trkpt lat="44.55365" lon="6.16347">
        <ele>1015.9</ele>
        <time>2022-09-11T09:46:20Z</time>
      </trkpt>
      <trkpt lat="44.55366" lon="6.16341">
        <ele>1016.2</ele>
        <time>2022-09-11T09:46:21Z</time>
      </trkpt>
      <trkpt lat="44.55366" lon="6.1634">
        <ele>1016.3</ele>
        <time>2022-09-11T09:46:22Z</time>
      </trkpt>
      <trkpt lat="44.55367" lon="6.16336">
        <ele>1016.4</ele>
        <time>2022-09-11T09:46:23Z</time>
      </trkpt>
      <trkpt lat="44.55369" lon="6.16332">
        <ele>1016.5</ele>
        <time>2022-09-11T09:46:24Z</time>
      </trkpt>
      <trkpt lat="44.5537" lon="6.16327">
        <ele>1016.6</ele>
        <time>2022-09-11T09:46:25Z</time>
      </trkpt>
      <trkpt lat="44.55371" lon="6.16322">
        <ele>1016.6</ele>
        <time>2022-09-11T09:46:26Z</time>
      </trkpt>
      <trkpt lat="44.55373" lon="6.16317">
        <ele>1016.6</ele>
        <time>2022-09-11T09:46:27Z</time>
      </trkpt>
      <trkpt lat="44.55374" lon="6.16311">
        <ele>1016.6</ele>
        <time>2022-09-11T09:46:28Z</time>
      </trkpt>
      <trkpt lat="44.55376" lon="6.16306">
        <ele>1016.6</ele>
        <time>2022-09-11T09:46:29Z</time>
      </trkpt>
      <trkpt lat="44.55378" lon="6.16297">
        <ele>1016.6</ele>
        <time>2022-09-11T09:46:30Z</time>
      </trkpt>
      <trkpt lat="44.55381" lon="6.1629">
        <ele>1016.7</ele>
        <time>2022-09-11T09:46:31Z</time>
      </trkpt>
      <trkpt lat="44.55383" lon="6.16285">
        <ele>1016.7</ele>
        <time>2022-09-11T09:46:32Z</time>
      </trkpt>
      <trkpt lat="44.55384" lon="6.16282">
        <ele>1016.7</ele>
        <time>2022-09-11T09:46:33Z</time>
      </trkpt>
      <trkpt lat="44.55385" lon="6.16278">
        <ele>1016.7</ele>
        <time>2022-09-11T09:46:34Z</time>
      </trkpt>
      <trkpt lat="44.55387" lon="6.16275">
        <ele>1016.6</ele>
        <time>2022-09-11T09:46:35Z</time>
      </trkpt>
      <trkpt lat="44.55387" lon="6.16274">
        <ele>1016.6</ele>
        <time>2022-09-11T09:46:36Z</time>
      </trkpt>
      <trkpt lat="44.55388" lon="6.16271">
        <ele>1016.6</ele>
        <time>2022-09-11T09:46:37Z</time>
      </trkpt>
      <trkpt lat="44.55388" lon="6.1627">
        <ele>1016.6</ele>
        <time>2022-09-11T09:46:38Z</time>
      </trkpt>
      <trkpt lat="44.55389" lon="6.16268">
        <ele>1016.6</ele>
        <time>2022-09-11T09:46:39Z</time>
      </trkpt>
      <trkpt lat="44.55389" lon="6.16263">
        <ele>1016.7</ele>
        <time>2022-09-11T09:46:40Z</time>
      </trkpt>
      <trkpt lat="44.55389" lon="6.16261">
        <ele>1016.7</ele>
        <time>2022-09-11T09:46:41Z</time>
      </trkpt>
      <trkpt lat="44.55386" lon="6.16256">
        <ele>1013.6</ele>
        <time>2022-09-11T09:46:42Z</time>
      </trkpt>
      <trkpt lat="44.55385" lon="6.16254">
        <ele>1012.2</ele>
        <time>2022-09-11T09:46:43Z</time>
      </trkpt>
      <trkpt lat="44.55382" lon="6.16251">
        <ele>1007.5</ele>
        <time>2022-09-11T09:46:44Z</time>
      </trkpt>
      <trkpt lat="44.5538" lon="6.1625">
        <ele>1007.5</ele>
        <time>2022-09-11T09:46:45Z</time>
      </trkpt>
      <trkpt lat="44.55379" lon="6.16249">
        <ele>1007.6</ele>
        <time>2022-09-11T09:46:46Z</time>
      </trkpt>
      <trkpt lat="44.55379" lon="6.16248">
        <ele>1007.6</ele>
        <time>2022-09-11T09:46:47Z</time>
      </trkpt>
      <trkpt lat="44.55379" lon="6.16248">
        <ele>1007.6</ele>
        <time>2022-09-11T09:46:48Z</time>
      </trkpt>
      <trkpt lat="44.5538" lon="6.16247">
        <ele>1007.6</ele>
        <time>2022-09-11T09:46:49Z</time>
      </trkpt>
      <trkpt lat="44.5538" lon="6.16247">
        <ele>1007.7</ele>
        <time>2022-09-11T09:46:50Z</time>
      </trkpt>
      <trkpt lat="44.55381" lon="6.16246">
        <ele>1007.7</ele>
        <time>2022-09-11T09:46:51Z</time>
      </trkpt>
      <trkpt lat="44.55381" lon="6.16246">
        <ele>1007.7</ele>
        <time>2022-09-11T09:46:52Z</time>
      </trkpt>
      <trkpt lat="44.55381" lon="6.16245">
        <ele>1007.7</ele>
        <time>2022-09-11T09:46:53Z</time>
      </trkpt>
      <trkpt lat="44.55382" lon="6.16245">
        <ele>1007.7</ele>
        <time>2022-09-11T09:46:54Z</time>
      </trkpt>
      <trkpt lat="44.55382" lon="6.16244">
        <ele>1007.7</ele>
        <time>2022-09-11T09:46:55Z</time>
      </trkpt>
      <trkpt lat="44.55382" lon="6.16244">
        <ele>1007.8</ele>
        <time>2022-09-11T09:46:56Z</time>
      </trkpt>
      <trkpt lat="44.55383" lon="6.16243">
        <ele>1007.8</ele>
        <time>2022-09-11T09:46:57Z</time>
      </trkpt>
      <trkpt lat="44.55383" lon="6.16242">
        <ele>1007.8</ele>
        <time>2022-09-11T09:47:22Z</time>
      </trkpt>
      <trkpt lat="44.55384" lon="6.16242">
        <ele>1007.8</ele>
        <time>2022-09-11T09:47:23Z</time>
      </trkpt>
      <trkpt lat="44.55384" lon="6.16241">
        <ele>1007.8</ele>
        <time>2022-09-11T09:47:24Z</time>
      </trkpt>
      <trkpt lat="44.55385" lon="6.16239">
        <ele>1007.9</ele>
        <time>2022-09-11T09:47:25Z</time>
      </trkpt>
      <trkpt lat="44.55385" lon="6.16237">
        <ele>1007.9</ele>
        <time>2022-09-11T09:47:26Z</time>
      </trkpt>
      <trkpt lat="44.55387" lon="6.16233">
        <ele>1008</ele>
        <time>2022-09-11T09:47:27Z</time>
      </trkpt>
      <trkpt lat="44.55388" lon="6.16231">
        <ele>1008.1</ele>
        <time>2022-09-11T09:47:28Z</time>
      </trkpt>
      <trkpt lat="44.55389" lon="6.16229">
        <ele>1008.1</ele>
        <time>2022-09-11T09:47:30Z</time>
      </trkpt>
      <trkpt lat="44.5539" lon="6.16227">
        <ele>1008.2</ele>
        <time>2022-09-11T09:47:31Z</time>
      </trkpt>
      <trkpt lat="44.55391" lon="6.16225">
        <ele>1008.2</ele>
        <time>2022-09-11T09:47:32Z</time>
      </trkpt>
      <trkpt lat="44.55391" lon="6.16223">
        <ele>1008.3</ele>
        <time>2022-09-11T09:47:33Z</time>
      </trkpt>
      <trkpt lat="44.55392" lon="6.1622">
        <ele>1008.4</ele>
        <time>2022-09-11T09:47:34Z</time>
      </trkpt>
      <trkpt lat="44.55393" lon="6.16216">
        <ele>1008.5</ele>
        <time>2022-09-11T09:47:36Z</time>
      </trkpt>
      <trkpt lat="44.55396" lon="6.16212">
        <ele>1008.6</ele>
        <time>2022-09-11T09:47:39Z</time>
      </trkpt>
      <trkpt lat="44.55397" lon="6.1621">
        <ele>1008.7</ele>
        <time>2022-09-11T09:47:40Z</time>
      </trkpt>
      <trkpt lat="44.55397" lon="6.16208">
        <ele>1008.5</ele>
        <time>2022-09-11T09:47:41Z</time>
      </trkpt>
      <trkpt lat="44.55397" lon="6.16206">
        <ele>1008.4</ele>
        <time>2022-09-11T09:47:42Z</time>
      </trkpt>
      <trkpt lat="44.55396" lon="6.16203">
        <ele>1008.2</ele>
        <time>2022-09-11T09:47:43Z</time>
      </trkpt>
      <trkpt lat="44.55395" lon="6.16201">
        <ele>1008</ele>
        <time>2022-09-11T09:47:44Z</time>
      </trkpt>
      <trkpt lat="44.55393" lon="6.162">
        <ele>1007.9</ele>
        <time>2022-09-11T09:47:45Z</time>
      </trkpt>
      <trkpt lat="44.55392" lon="6.16198">
        <ele>1007.7</ele>
        <time>2022-09-11T09:47:46Z</time>
      </trkpt>
      <trkpt lat="44.55391" lon="6.16196">
        <ele>1007.6</ele>
        <time>2022-09-11T09:47:48Z</time>
      </trkpt>
      <trkpt lat="44.55388" lon="6.16194">
        <ele>1007.5</ele>
        <time>2022-09-11T09:47:49Z</time>
      </trkpt>
      <trkpt lat="44.55387" lon="6.16192">
        <ele>1007.4</ele>
        <time>2022-09-11T09:47:50Z</time>
      </trkpt>
      <trkpt lat="44.55386" lon="6.1619">
        <ele>1007.3</ele>
        <time>2022-09-11T09:47:52Z</time>
      </trkpt>
      <trkpt lat="44.55385" lon="6.16188">
        <ele>1007.3</ele>
        <time>2022-09-11T09:47:53Z</time>
      </trkpt>
      <trkpt lat="44.55384" lon="6.16188">
        <ele>1007.2</ele>
        <time>2022-09-11T09:47:54Z</time>
      </trkpt>
      <trkpt lat="44.55382" lon="6.16186">
        <ele>1007.2</ele>
        <time>2022-09-11T09:47:55Z</time>
      </trkpt>
      <trkpt lat="44.55381" lon="6.16185">
        <ele>1007.1</ele>
        <time>2022-09-11T09:47:57Z</time>
      </trkpt>
      <trkpt lat="44.55381" lon="6.16185">
        <ele>1007.1</ele>
        <time>2022-09-11T09:47:58Z</time>
      </trkpt>
      <trkpt lat="44.5538" lon="6.16183">
        <ele>1007.1</ele>
        <time>2022-09-11T09:47:59Z</time>
      </trkpt>
      <trkpt lat="44.55379" lon="6.16181">
        <ele>1007</ele>
        <time>2022-09-11T09:48:01Z</time>
      </trkpt>
      <trkpt lat="44.55378" lon="6.1618">
        <ele>1007</ele>
        <time>2022-09-11T09:48:02Z</time>
      </trkpt>
      <trkpt lat="44.55377" lon="6.16178">
        <ele>1007</ele>
        <time>2022-09-11T09:48:04Z</time>
      </trkpt>
      <trkpt lat="44.55376" lon="6.16177">
        <ele>1007.1</ele>
        <time>2022-09-11T09:48:05Z</time>
      </trkpt>
      <trkpt lat="44.55376" lon="6.16176">
        <ele>1007.1</ele>
        <time>2022-09-11T09:48:06Z</time>
      </trkpt>
      <trkpt lat="44.55376" lon="6.16176">
        <ele>1007.1</ele>
        <time>2022-09-11T09:48:08Z</time>
      </trkpt>
      <trkpt lat="44.55376" lon="6.16176">
        <ele>1007.1</ele>
        <time>2022-09-11T09:48:09Z</time>
      </trkpt>
      <trkpt lat="44.55377" lon="6.16176">
        <ele>1007.1</ele>
        <time>2022-09-11T09:48:10Z</time>
      </trkpt>
      <trkpt lat="44.55377" lon="6.16176">
        <ele>1007.1</ele>
        <time>2022-09-11T09:48:11Z</time>
      </trkpt>
      <trkpt lat="44.55377" lon="6.16176">
        <ele>1007.1</ele>
        <time>2022-09-11T09:48:12Z</time>
      </trkpt>
      <trkpt lat="44.55377" lon="6.16176">
        <ele>1007.1</ele>
        <time>2022-09-11T09:48:13Z</time>
      </trkpt>
      <trkpt lat="44.55377" lon="6.16176">
        <ele>1007.1</ele>
        <time>2022-09-11T09:48:14Z</time>
      </trkpt>
      <trkpt lat="44.55377" lon="6.16176">
        <ele>1007.1</ele>
        <time>2022-09-11T09:48:15Z</time>
      </trkpt>
      <trkpt lat="44.55377" lon="6.16176">
        <ele>1007.1</ele>
        <time>2022-09-11T09:48:16Z</time>
      </trkpt>
      <trkpt lat="44.55377" lon="6.16174">
        <ele>1007.1</ele>
        <time>2022-09-11T09:48:25Z</time>
      </trkpt>
      <trkpt lat="44.55379" lon="6.16173">
        <ele>1007.2</ele>
        <time>2022-09-11T09:48:26Z</time>
      </trkpt>
      <trkpt lat="44.5538" lon="6.16175">
        <ele>1007.2</ele>
        <time>2022-09-11T09:48:27Z</time>
      </trkpt>
      <trkpt lat="44.55382" lon="6.16178">
        <ele>1007.3</ele>
        <time>2022-09-11T09:48:28Z</time>
      </trkpt>
      <trkpt lat="44.55383" lon="6.16181">
        <ele>1007.3</ele>
        <time>2022-09-11T09:48:30Z</time>
      </trkpt>
      <trkpt lat="44.55384" lon="6.16183">
        <ele>1007.3</ele>
        <time>2022-09-11T09:48:31Z</time>
      </trkpt>
      <trkpt lat="44.55385" lon="6.16184">
        <ele>1007.4</ele>
        <time>2022-09-11T09:48:32Z</time>
      </trkpt>
      <trkpt lat="44.55386" lon="6.16185">
        <ele>1007.4</ele>
        <time>2022-09-11T09:48:33Z</time>
      </trkpt>
      <trkpt lat="44.55388" lon="6.16187">
        <ele>1007.4</ele>
        <time>2022-09-11T09:48:34Z</time>
      </trkpt>
      <trkpt lat="44.55389" lon="6.16188">
        <ele>1007.5</ele>
        <time>2022-09-11T09:48:35Z</time>
      </trkpt>
      <trkpt lat="44.55389" lon="6.16189">
        <ele>1007.5</ele>
        <time>2022-09-11T09:48:36Z</time>
      </trkpt>
      <trkpt lat="44.55391" lon="6.16191">
        <ele>1007.5</ele>
        <time>2022-09-11T09:48:37Z</time>
      </trkpt>
      <trkpt lat="44.55392" lon="6.16193">
        <ele>1007.5</ele>
        <time>2022-09-11T09:48:38Z</time>
      </trkpt>
      <trkpt lat="44.55392" lon="6.16194">
        <ele>1007.6</ele>
        <time>2022-09-11T09:48:39Z</time>
      </trkpt>
      <trkpt lat="44.55393" lon="6.16196">
        <ele>1007.7</ele>
        <time>2022-09-11T09:48:40Z</time>
      </trkpt>
      <trkpt lat="44.55395" lon="6.162">
        <ele>1007.9</ele>
        <time>2022-09-11T09:48:41Z</time>
      </trkpt>
      <trkpt lat="44.55396" lon="6.16201">
        <ele>1008.1</ele>
        <time>2022-09-11T09:48:43Z</time>
      </trkpt>
      <trkpt lat="44.55397" lon="6.16202">
        <ele>1008.2</ele>
        <time>2022-09-11T09:48:44Z</time>
      </trkpt>
      <trkpt lat="44.55398" lon="6.16204">
        <ele>1008.3</ele>
        <time>2022-09-11T09:48:45Z</time>
      </trkpt>
      <trkpt lat="44.55397" lon="6.16207">
        <ele>1008.5</ele>
        <time>2022-09-11T09:48:46Z</time>
      </trkpt>
      <trkpt lat="44.55397" lon="6.1621">
        <ele>1008.6</ele>
        <time>2022-09-11T09:48:48Z</time>
      </trkpt>
      <trkpt lat="44.55396" lon="6.16215">
        <ele>1008.5</ele>
        <time>2022-09-11T09:48:49Z</time>
      </trkpt>
      <trkpt lat="44.55394" lon="6.1622">
        <ele>1008.3</ele>
        <time>2022-09-11T09:48:50Z</time>
      </trkpt>
      <trkpt lat="44.55391" lon="6.16224">
        <ele>1008.2</ele>
        <time>2022-09-11T09:48:52Z</time>
      </trkpt>
      <trkpt lat="44.55389" lon="6.16229">
        <ele>1008</ele>
        <time>2022-09-11T09:48:53Z</time>
      </trkpt>
      <trkpt lat="44.55387" lon="6.16234">
        <ele>1007.9</ele>
        <time>2022-09-11T09:48:54Z</time>
      </trkpt>
      <trkpt lat="44.55385" lon="6.16238">
        <ele>1007.7</ele>
        <time>2022-09-11T09:48:55Z</time>
      </trkpt>
      <trkpt lat="44.5538" lon="6.16247">
        <ele>1007.4</ele>
        <time>2022-09-11T09:48:56Z</time>
      </trkpt>
      <trkpt lat="44.55376" lon="6.16256">
        <ele>1007.1</ele>
        <time>2022-09-11T09:48:58Z</time>
      </trkpt>
      <trkpt lat="44.55372" lon="6.16262">
        <ele>1006.9</ele>
        <time>2022-09-11T09:48:59Z</time>
      </trkpt>
      <trkpt lat="44.5537" lon="6.16268">
        <ele>1006.7</ele>
        <time>2022-09-11T09:49:00Z</time>
      </trkpt>
      <trkpt lat="44.55366" lon="6.16274">
        <ele>1006.5</ele>
        <time>2022-09-11T09:49:01Z</time>
      </trkpt>
      <trkpt lat="44.55363" lon="6.16279">
        <ele>1006.3</ele>
        <time>2022-09-11T09:49:02Z</time>
      </trkpt>
      <trkpt lat="44.5536" lon="6.16284">
        <ele>1006.1</ele>
        <time>2022-09-11T09:49:03Z</time>
      </trkpt>
      <trkpt lat="44.55358" lon="6.16288">
        <ele>1006</ele>
        <time>2022-09-11T09:49:04Z</time>
      </trkpt>
      <trkpt lat="44.55358" lon="6.16289">
        <ele>1005.9</ele>
        <time>2022-09-11T09:49:05Z</time>
      </trkpt>
      <trkpt lat="44.55355" lon="6.16292">
        <ele>1005.8</ele>
        <time>2022-09-11T09:49:06Z</time>
      </trkpt>
      <trkpt lat="44.55351" lon="6.16297">
        <ele>1005.6</ele>
        <time>2022-09-11T09:49:07Z</time>
      </trkpt>
      <trkpt lat="44.55348" lon="6.16302">
        <ele>1005.5</ele>
        <time>2022-09-11T09:49:08Z</time>
      </trkpt>
      <trkpt lat="44.55346" lon="6.16308">
        <ele>1005.3</ele>
        <time>2022-09-11T09:49:10Z</time>
      </trkpt>
      <trkpt lat="44.55343" lon="6.16316">
        <ele>1005.1</ele>
        <time>2022-09-11T09:49:11Z</time>
      </trkpt>
      <trkpt lat="44.55341" lon="6.16323">
        <ele>1004.9</ele>
        <time>2022-09-11T09:49:12Z</time>
      </trkpt>
      <trkpt lat="44.55338" lon="6.16329">
        <ele>1004.7</ele>
        <time>2022-09-11T09:49:13Z</time>
      </trkpt>
      <trkpt lat="44.55335" lon="6.16334">
        <ele>1004.5</ele>
        <time>2022-09-11T09:49:15Z</time>
      </trkpt>
      <trkpt lat="44.55331" lon="6.16343">
        <ele>1004.3</ele>
        <time>2022-09-11T09:49:16Z</time>
      </trkpt>
      <trkpt lat="44.55327" lon="6.16351">
        <ele>1004.1</ele>
        <time>2022-09-11T09:49:18Z</time>
      </trkpt>
      <trkpt lat="44.55325" lon="6.16357">
        <ele>1004</ele>
        <time>2022-09-11T09:49:19Z</time>
      </trkpt>
      <trkpt lat="44.55324" lon="6.16364">
        <ele>1003.9</ele>
        <time>2022-09-11T09:49:20Z</time>
      </trkpt>
      <trkpt lat="44.55324" lon="6.1637">
        <ele>1003.8</ele>
        <time>2022-09-11T09:49:21Z</time>
      </trkpt>
      <trkpt lat="44.55324" lon="6.16377">
        <ele>1003.8</ele>
        <time>2022-09-11T09:49:22Z</time>
      </trkpt>
      <trkpt lat="44.55323" lon="6.16383">
        <ele>1003.7</ele>
        <time>2022-09-11T09:49:23Z</time>
      </trkpt>
      <trkpt lat="44.55323" lon="6.16391">
        <ele>1003.6</ele>
        <time>2022-09-11T09:49:25Z</time>
      </trkpt>
      <trkpt lat="44.55324" lon="6.16402">
        <ele>1003.4</ele>
        <time>2022-09-11T09:49:26Z</time>
      </trkpt>
      <trkpt lat="44.55324" lon="6.16407">
        <ele>1003.3</ele>
        <time>2022-09-11T09:49:28Z</time>
      </trkpt>
      <trkpt lat="44.55324" lon="6.16412">
        <ele>1003.3</ele>
        <time>2022-09-11T09:49:29Z</time>
      </trkpt>
      <trkpt lat="44.55324" lon="6.16418">
        <ele>1003.1</ele>
        <time>2022-09-11T09:49:30Z</time>
      </trkpt>
      <trkpt lat="44.55325" lon="6.16428">
        <ele>1002.8</ele>
        <time>2022-09-11T09:49:31Z</time>
      </trkpt>
      <trkpt lat="44.55325" lon="6.16434">
        <ele>1002.6</ele>
        <time>2022-09-11T09:49:33Z</time>
      </trkpt>
      <trkpt lat="44.55325" lon="6.16439">
        <ele>1002.2</ele>
        <time>2022-09-11T09:49:34Z</time>
      </trkpt>
      <trkpt lat="44.55324" lon="6.16441">
        <ele>1002</ele>
        <time>2022-09-11T09:49:35Z</time>
      </trkpt>
      <trkpt lat="44.55324" lon="6.16445">
        <ele>1001.7</ele>
        <time>2022-09-11T09:49:36Z</time>
      </trkpt>
      <trkpt lat="44.5532" lon="6.1645">
        <ele>1001.1</ele>
        <time>2022-09-11T09:49:37Z</time>
      </trkpt>
      <trkpt lat="44.55318" lon="6.16452">
        <ele>1000.8</ele>
        <time>2022-09-11T09:49:39Z</time>
      </trkpt>
      <trkpt lat="44.55317" lon="6.16453">
        <ele>1000.7</ele>
        <time>2022-09-11T09:49:40Z</time>
      </trkpt>
      <trkpt lat="44.55316" lon="6.16451">
        <ele>1000.6</ele>
        <time>2022-09-11T09:49:41Z</time>
      </trkpt>
      <trkpt lat="44.55316" lon="6.1645">
        <ele>1000.5</ele>
        <time>2022-09-11T09:49:42Z</time>
      </trkpt>
      <trkpt lat="44.55316" lon="6.1645">
        <ele>1000.5</ele>
        <time>2022-09-11T09:49:43Z</time>
      </trkpt>
      <trkpt lat="44.55316" lon="6.1645">
        <ele>1000.4</ele>
        <time>2022-09-11T09:49:44Z</time>
      </trkpt>
      <trkpt lat="44.55312" lon="6.16454">
        <ele>1000</ele>
        <time>2022-09-11T09:49:46Z</time>
      </trkpt>
      <trkpt lat="44.55307" lon="6.16461">
        <ele>999.4</ele>
        <time>2022-09-11T09:49:48Z</time>
      </trkpt>
      <trkpt lat="44.55301" lon="6.1647">
        <ele>998.8</ele>
        <time>2022-09-11T09:49:50Z</time>
      </trkpt>
      <trkpt lat="44.55297" lon="6.16476">
        <ele>998.4</ele>
        <time>2022-09-11T09:49:51Z</time>
      </trkpt>
      <trkpt lat="44.55293" lon="6.16481">
        <ele>998.1</ele>
        <time>2022-09-11T09:49:52Z</time>
      </trkpt>
      <trkpt lat="44.55288" lon="6.16487">
        <ele>997.8</ele>
        <time>2022-09-11T09:49:53Z</time>
      </trkpt>
      <trkpt lat="44.55284" lon="6.16493">
        <ele>997.6</ele>
        <time>2022-09-11T09:49:54Z</time>
      </trkpt>
      <trkpt lat="44.5528" lon="6.16501">
        <ele>997.5</ele>
        <time>2022-09-11T09:49:55Z</time>
      </trkpt>
      <trkpt lat="44.55276" lon="6.16508">
        <ele>997.5</ele>
        <time>2022-09-11T09:49:56Z</time>
      </trkpt>
      <trkpt lat="44.55273" lon="6.16515">
        <ele>997.5</ele>
        <time>2022-09-11T09:49:57Z</time>
      </trkpt>
      <trkpt lat="44.55271" lon="6.16525">
        <ele>997.5</ele>
        <time>2022-09-11T09:49:58Z</time>
      </trkpt>
      <trkpt lat="44.55272" lon="6.16534">
        <ele>997.5</ele>
        <time>2022-09-11T09:49:59Z</time>
      </trkpt>
      <trkpt lat="44.55277" lon="6.1654">
        <ele>997.5</ele>
        <time>2022-09-11T09:50:00Z</time>
      </trkpt>
      <trkpt lat="44.55282" lon="6.16541">
        <ele>997.5</ele>
        <time>2022-09-11T09:50:01Z</time>
      </trkpt>
      <trkpt lat="44.55288" lon="6.1654">
        <ele>997.4</ele>
        <time>2022-09-11T09:50:02Z</time>
      </trkpt>
      <trkpt lat="44.55293" lon="6.1654">
        <ele>997.3</ele>
        <time>2022-09-11T09:50:03Z</time>
      </trkpt>
      <trkpt lat="44.55298" lon="6.1654">
        <ele>997.2</ele>
        <time>2022-09-11T09:50:04Z</time>
      </trkpt>
      <trkpt lat="44.55302" lon="6.1654">
        <ele>997.1</ele>
        <time>2022-09-11T09:50:05Z</time>
      </trkpt>
      <trkpt lat="44.55307" lon="6.16539">
        <ele>996.9</ele>
        <time>2022-09-11T09:50:06Z</time>
      </trkpt>
      <trkpt lat="44.55311" lon="6.16539">
        <ele>996.8</ele>
        <time>2022-09-11T09:50:07Z</time>
      </trkpt>
      <trkpt lat="44.55316" lon="6.16536">
        <ele>996.6</ele>
        <time>2022-09-11T09:50:08Z</time>
      </trkpt>
      <trkpt lat="44.55322" lon="6.16532">
        <ele>996.4</ele>
        <time>2022-09-11T09:50:09Z</time>
      </trkpt>
      <trkpt lat="44.55327" lon="6.16528">
        <ele>996.2</ele>
        <time>2022-09-11T09:50:10Z</time>
      </trkpt>
      <trkpt lat="44.55333" lon="6.16525">
        <ele>996</ele>
        <time>2022-09-11T09:50:11Z</time>
      </trkpt>
      <trkpt lat="44.55338" lon="6.16522">
        <ele>995.7</ele>
        <time>2022-09-11T09:50:12Z</time>
      </trkpt>
      <trkpt lat="44.55345" lon="6.16522">
        <ele>995.3</ele>
        <time>2022-09-11T09:50:13Z</time>
      </trkpt>
      <trkpt lat="44.55351" lon="6.16523">
        <ele>995</ele>
        <time>2022-09-11T09:50:14Z</time>
      </trkpt>
      <trkpt lat="44.55358" lon="6.16526">
        <ele>994.7</ele>
        <time>2022-09-11T09:50:15Z</time>
      </trkpt>
      <trkpt lat="44.55363" lon="6.1653">
        <ele>994.5</ele>
        <time>2022-09-11T09:50:16Z</time>
      </trkpt>
      <trkpt lat="44.55368" lon="6.16538">
        <ele>994.3</ele>
        <time>2022-09-11T09:50:17Z</time>
      </trkpt>
      <trkpt lat="44.55372" lon="6.16545">
        <ele>994.2</ele>
        <time>2022-09-11T09:50:18Z</time>
      </trkpt>
      <trkpt lat="44.55376" lon="6.16554">
        <ele>994.1</ele>
        <time>2022-09-11T09:50:19Z</time>
      </trkpt>
      <trkpt lat="44.55378" lon="6.16563">
        <ele>994.1</ele>
        <time>2022-09-11T09:50:20Z</time>
      </trkpt>
      <trkpt lat="44.5538" lon="6.16571">
        <ele>994.1</ele>
        <time>2022-09-11T09:50:21Z</time>
      </trkpt>
      <trkpt lat="44.55381" lon="6.16579">
        <ele>994.2</ele>
        <time>2022-09-11T09:50:22Z</time>
      </trkpt>
      <trkpt lat="44.55382" lon="6.16587">
        <ele>994.3</ele>
        <time>2022-09-11T09:50:23Z</time>
      </trkpt>
      <trkpt lat="44.55383" lon="6.16594">
        <ele>994.4</ele>
        <time>2022-09-11T09:50:24Z</time>
      </trkpt>
      <trkpt lat="44.55381" lon="6.16598">
        <ele>994.5</ele>
        <time>2022-09-11T09:50:25Z</time>
      </trkpt>
      <trkpt lat="44.5538" lon="6.16602">
        <ele>994.6</ele>
        <time>2022-09-11T09:50:26Z</time>
      </trkpt>
      <trkpt lat="44.5538" lon="6.16605">
        <ele>994.7</ele>
        <time>2022-09-11T09:50:27Z</time>
      </trkpt>
      <trkpt lat="44.55382" lon="6.16611">
        <ele>994.9</ele>
        <time>2022-09-11T09:50:28Z</time>
      </trkpt>
      <trkpt lat="44.55382" lon="6.16617">
        <ele>995.1</ele>
        <time>2022-09-11T09:50:29Z</time>
      </trkpt>
      <trkpt lat="44.55382" lon="6.16622">
        <ele>995.3</ele>
        <time>2022-09-11T09:50:30Z</time>
      </trkpt>
      <trkpt lat="44.55382" lon="6.16627">
        <ele>995.4</ele>
        <time>2022-09-11T09:50:31Z</time>
      </trkpt>
      <trkpt lat="44.55382" lon="6.16632">
        <ele>995.6</ele>
        <time>2022-09-11T09:50:32Z</time>
      </trkpt>
      <trkpt lat="44.55382" lon="6.16642">
        <ele>996</ele>
        <time>2022-09-11T09:50:33Z</time>
      </trkpt>
      <trkpt lat="44.55382" lon="6.16647">
        <ele>996.1</ele>
        <time>2022-09-11T09:50:35Z</time>
      </trkpt>
      <trkpt lat="44.55382" lon="6.16652">
        <ele>996.3</ele>
        <time>2022-09-11T09:50:36Z</time>
      </trkpt>
      <trkpt lat="44.55382" lon="6.16658">
        <ele>996.5</ele>
        <time>2022-09-11T09:50:37Z</time>
      </trkpt>
      <trkpt lat="44.55383" lon="6.16664">
        <ele>996.6</ele>
        <time>2022-09-11T09:50:38Z</time>
      </trkpt>
      <trkpt lat="44.55383" lon="6.1667">
        <ele>996.8</ele>
        <time>2022-09-11T09:50:39Z</time>
      </trkpt>
      <trkpt lat="44.55384" lon="6.16677">
        <ele>997</ele>
        <time>2022-09-11T09:50:40Z</time>
      </trkpt>
      <trkpt lat="44.55385" lon="6.16687">
        <ele>997.2</ele>
        <time>2022-09-11T09:50:42Z</time>
      </trkpt>
      <trkpt lat="44.55385" lon="6.16692">
        <ele>997.4</ele>
        <time>2022-09-11T09:50:44Z</time>
      </trkpt>
      <trkpt lat="44.55385" lon="6.16698">
        <ele>997.5</ele>
        <time>2022-09-11T09:50:45Z</time>
      </trkpt>
      <trkpt lat="44.55385" lon="6.16702">
        <ele>997.7</ele>
        <time>2022-09-11T09:50:46Z</time>
      </trkpt>
      <trkpt lat="44.55385" lon="6.16708">
        <ele>997.8</ele>
        <time>2022-09-11T09:50:47Z</time>
      </trkpt>
      <trkpt lat="44.55386" lon="6.16714">
        <ele>998</ele>
        <time>2022-09-11T09:50:48Z</time>
      </trkpt>
      <trkpt lat="44.55387" lon="6.16722">
        <ele>998.3</ele>
        <time>2022-09-11T09:50:50Z</time>
      </trkpt>
      <trkpt lat="44.55387" lon="6.16727">
        <ele>998.4</ele>
        <time>2022-09-11T09:50:51Z</time>
      </trkpt>
      <trkpt lat="44.55388" lon="6.16732">
        <ele>998.6</ele>
        <time>2022-09-11T09:50:52Z</time>
      </trkpt>
      <trkpt lat="44.55388" lon="6.16736">
        <ele>998.7</ele>
        <time>2022-09-11T09:50:53Z</time>
      </trkpt>
      <trkpt lat="44.55388" lon="6.1674">
        <ele>998.9</ele>
        <time>2022-09-11T09:50:54Z</time>
      </trkpt>
      <trkpt lat="44.55388" lon="6.16747">
        <ele>999.1</ele>
        <time>2022-09-11T09:50:55Z</time>
      </trkpt>
      <trkpt lat="44.55388" lon="6.16751">
        <ele>999.3</ele>
        <time>2022-09-11T09:50:56Z</time>
      </trkpt>
      <trkpt lat="44.55389" lon="6.16757">
        <ele>999.6</ele>
        <time>2022-09-11T09:50:57Z</time>
      </trkpt>
      <trkpt lat="44.55389" lon="6.16762">
        <ele>999.8</ele>
        <time>2022-09-11T09:50:59Z</time>
      </trkpt>
      <trkpt lat="44.55389" lon="6.16767">
        <ele>1000</ele>
        <time>2022-09-11T09:51:00Z</time>
      </trkpt>
      <trkpt lat="44.55389" lon="6.16772">
        <ele>1000.2</ele>
        <time>2022-09-11T09:51:01Z</time>
      </trkpt>
      <trkpt lat="44.5539" lon="6.16776">
        <ele>1000.4</ele>
        <time>2022-09-11T09:51:02Z</time>
      </trkpt>
      <trkpt lat="44.55391" lon="6.16781">
        <ele>1000.7</ele>
        <time>2022-09-11T09:51:03Z</time>
      </trkpt>
      <trkpt lat="44.55392" lon="6.1679">
        <ele>1001.1</ele>
        <time>2022-09-11T09:51:05Z</time>
      </trkpt>
      <trkpt lat="44.55392" lon="6.16795">
        <ele>1001.4</ele>
        <time>2022-09-11T09:51:06Z</time>
      </trkpt>
      <trkpt lat="44.55392" lon="6.16798">
        <ele>1001.6</ele>
        <time>2022-09-11T09:51:07Z</time>
      </trkpt>
      <trkpt lat="44.55393" lon="6.16802">
        <ele>1001.8</ele>
        <time>2022-09-11T09:51:08Z</time>
      </trkpt>
      <trkpt lat="44.55394" lon="6.16807">
        <ele>1002.1</ele>
        <time>2022-09-11T09:51:09Z</time>
      </trkpt>
      <trkpt lat="44.55394" lon="6.16809">
        <ele>1002.2</ele>
        <time>2022-09-11T09:51:10Z</time>
      </trkpt>
      <trkpt lat="44.55395" lon="6.16814">
        <ele>1002.5</ele>
        <time>2022-09-11T09:51:11Z</time>
      </trkpt>
      <trkpt lat="44.55395" lon="6.16815">
        <ele>1002.6</ele>
        <time>2022-09-11T09:51:12Z</time>
      </trkpt>
      <trkpt lat="44.55395" lon="6.16817">
        <ele>1002.7</ele>
        <time>2022-09-11T09:51:13Z</time>
      </trkpt>
      <trkpt lat="44.55395" lon="6.16819">
        <ele>1002.8</ele>
        <time>2022-09-11T09:51:14Z</time>
      </trkpt>
      <trkpt lat="44.55396" lon="6.16825">
        <ele>1003.1</ele>
        <time>2022-09-11T09:51:15Z</time>
      </trkpt>
      <trkpt lat="44.55397" lon="6.16826">
        <ele>1003.2</ele>
        <time>2022-09-11T09:51:16Z</time>
      </trkpt>
      <trkpt lat="44.55397" lon="6.1683">
        <ele>1003.5</ele>
        <time>2022-09-11T09:51:17Z</time>
      </trkpt>
      <trkpt lat="44.55397" lon="6.16836">
        <ele>1003.8</ele>
        <time>2022-09-11T09:51:18Z</time>
      </trkpt>
      <trkpt lat="44.55398" lon="6.16837">
        <ele>1003.9</ele>
        <time>2022-09-11T09:51:19Z</time>
      </trkpt>
      <trkpt lat="44.55399" lon="6.16841">
        <ele>1004.2</ele>
        <time>2022-09-11T09:51:20Z</time>
      </trkpt>
      <trkpt lat="44.55399" lon="6.16843">
        <ele>1004.3</ele>
        <time>2022-09-11T09:51:21Z</time>
      </trkpt>
      <trkpt lat="44.55399" lon="6.16847">
        <ele>1004.6</ele>
        <time>2022-09-11T09:51:22Z</time>
      </trkpt>
      <trkpt lat="44.554" lon="6.16853">
        <ele>1004.9</ele>
        <time>2022-09-11T09:51:23Z</time>
      </trkpt>
      <trkpt lat="44.554" lon="6.16858">
        <ele>1005.2</ele>
        <time>2022-09-11T09:51:25Z</time>
      </trkpt>
      <trkpt lat="44.554" lon="6.16861">
        <ele>1005.5</ele>
        <time>2022-09-11T09:51:26Z</time>
      </trkpt>
      <trkpt lat="44.55399" lon="6.16867">
        <ele>1005.8</ele>
        <time>2022-09-11T09:51:27Z</time>
      </trkpt>
      <trkpt lat="44.55398" lon="6.16872">
        <ele>1006.1</ele>
        <time>2022-09-11T09:51:28Z</time>
      </trkpt>
      <trkpt lat="44.55398" lon="6.16876">
        <ele>1006.3</ele>
        <time>2022-09-11T09:51:29Z</time>
      </trkpt>
      <trkpt lat="44.55397" lon="6.16882">
        <ele>1006.7</ele>
        <time>2022-09-11T09:51:31Z</time>
      </trkpt>
      <trkpt lat="44.55396" lon="6.16885">
        <ele>1006.8</ele>
        <time>2022-09-11T09:51:32Z</time>
      </trkpt>
      <trkpt lat="44.55395" lon="6.16888">
        <ele>1007</ele>
        <time>2022-09-11T09:51:34Z</time>
      </trkpt>
      <trkpt lat="44.55394" lon="6.16892">
        <ele>1007.2</ele>
        <time>2022-09-11T09:51:35Z</time>
      </trkpt>
      <trkpt lat="44.55394" lon="6.16894">
        <ele>1007.3</ele>
        <time>2022-09-11T09:51:36Z</time>
      </trkpt>
      <trkpt lat="44.55392" lon="6.16897">
        <ele>1007.4</ele>
        <time>2022-09-11T09:51:37Z</time>
      </trkpt>
      <trkpt lat="44.55391" lon="6.16904">
        <ele>1007.7</ele>
        <time>2022-09-11T09:51:38Z</time>
      </trkpt>
      <trkpt lat="44.5539" lon="6.1691">
        <ele>1007.9</ele>
        <time>2022-09-11T09:51:40Z</time>
      </trkpt>
      <trkpt lat="44.55389" lon="6.16911">
        <ele>1008</ele>
        <time>2022-09-11T09:51:41Z</time>
      </trkpt>
      <trkpt lat="44.55388" lon="6.16915">
        <ele>1008.2</ele>
        <time>2022-09-11T09:51:42Z</time>
      </trkpt>
      <trkpt lat="44.55387" lon="6.1692">
        <ele>1008.3</ele>
        <time>2022-09-11T09:51:43Z</time>
      </trkpt>
      <trkpt lat="44.55386" lon="6.16924">
        <ele>1008.4</ele>
        <time>2022-09-11T09:51:44Z</time>
      </trkpt>
      <trkpt lat="44.55385" lon="6.16932">
        <ele>1008.7</ele>
        <time>2022-09-11T09:51:45Z</time>
      </trkpt>
      <trkpt lat="44.55384" lon="6.16937">
        <ele>1008.8</ele>
        <time>2022-09-11T09:51:47Z</time>
      </trkpt>
      <trkpt lat="44.55384" lon="6.16942">
        <ele>1009</ele>
        <time>2022-09-11T09:51:48Z</time>
      </trkpt>
      <trkpt lat="44.55384" lon="6.16946">
        <ele>1009.1</ele>
        <time>2022-09-11T09:51:49Z</time>
      </trkpt>
      <trkpt lat="44.55384" lon="6.16954">
        <ele>1009.3</ele>
        <time>2022-09-11T09:51:50Z</time>
      </trkpt>
      <trkpt lat="44.55383" lon="6.16966">
        <ele>1009.7</ele>
        <time>2022-09-11T09:51:52Z</time>
      </trkpt>
      <trkpt lat="44.55384" lon="6.1697">
        <ele>1009.8</ele>
        <time>2022-09-11T09:51:54Z</time>
      </trkpt>
      <trkpt lat="44.55384" lon="6.16974">
        <ele>1009.9</ele>
        <time>2022-09-11T09:51:55Z</time>
      </trkpt>
      <trkpt lat="44.55385" lon="6.16982">
        <ele>1010.2</ele>
        <time>2022-09-11T09:51:56Z</time>
      </trkpt>
      <trkpt lat="44.55386" lon="6.16987">
        <ele>1010.3</ele>
        <time>2022-09-11T09:51:58Z</time>
      </trkpt>
      <trkpt lat="44.55386" lon="6.16992">
        <ele>1010.5</ele>
        <time>2022-09-11T09:51:59Z</time>
      </trkpt>
      <trkpt lat="44.55387" lon="6.16997">
        <ele>1010.6</ele>
        <time>2022-09-11T09:52:00Z</time>
      </trkpt>
      <trkpt lat="44.55388" lon="6.17001">
        <ele>1010.8</ele>
        <time>2022-09-11T09:52:01Z</time>
      </trkpt>
      <trkpt lat="44.55389" lon="6.17006">
        <ele>1011</ele>
        <time>2022-09-11T09:52:02Z</time>
      </trkpt>
      <trkpt lat="44.5539" lon="6.1701">
        <ele>1011.2</ele>
        <time>2022-09-11T09:52:03Z</time>
      </trkpt>
      <trkpt lat="44.55391" lon="6.17015">
        <ele>1011.3</ele>
        <time>2022-09-11T09:52:04Z</time>
      </trkpt>
      <trkpt lat="44.55393" lon="6.17019">
        <ele>1011.5</ele>
        <time>2022-09-11T09:52:05Z</time>
      </trkpt>
      <trkpt lat="44.55393" lon="6.17023">
        <ele>1011.7</ele>
        <time>2022-09-11T09:52:06Z</time>
      </trkpt>
      <trkpt lat="44.55394" lon="6.17027">
        <ele>1011.9</ele>
        <time>2022-09-11T09:52:07Z</time>
      </trkpt>
      <trkpt lat="44.55396" lon="6.17032">
        <ele>1012.2</ele>
        <time>2022-09-11T09:52:08Z</time>
      </trkpt>
      <trkpt lat="44.55396" lon="6.17033">
        <ele>1012.3</ele>
        <time>2022-09-11T09:52:09Z</time>
      </trkpt>
      <trkpt lat="44.55398" lon="6.17038">
        <ele>1012.6</ele>
        <time>2022-09-11T09:52:10Z</time>
      </trkpt>
      <trkpt lat="44.55398" lon="6.1704">
        <ele>1012.7</ele>
        <time>2022-09-11T09:52:11Z</time>
      </trkpt>
      <trkpt lat="44.554" lon="6.17045">
        <ele>1012.9</ele>
        <time>2022-09-11T09:52:12Z</time>
      </trkpt>
      <trkpt lat="44.554" lon="6.17046">
        <ele>1013</ele>
        <time>2022-09-11T09:52:13Z</time>
      </trkpt>
      <trkpt lat="44.55402" lon="6.17051">
        <ele>1013.3</ele>
        <time>2022-09-11T09:52:14Z</time>
      </trkpt>
      <trkpt lat="44.55402" lon="6.17053">
        <ele>1013.4</ele>
        <time>2022-09-11T09:52:15Z</time>
      </trkpt>
      <trkpt lat="44.55403" lon="6.17057">
        <ele>1013.6</ele>
        <time>2022-09-11T09:52:16Z</time>
      </trkpt>
      <trkpt lat="44.55403" lon="6.17058">
        <ele>1013.7</ele>
        <time>2022-09-11T09:52:17Z</time>
      </trkpt>
      <trkpt lat="44.55404" lon="6.17063">
        <ele>1014</ele>
        <time>2022-09-11T09:52:18Z</time>
      </trkpt>
      <trkpt lat="44.55404" lon="6.17065">
        <ele>1014.1</ele>
        <time>2022-09-11T09:52:19Z</time>
      </trkpt>
      <trkpt lat="44.55404" lon="6.17069">
        <ele>1014.3</ele>
        <time>2022-09-11T09:52:20Z</time>
      </trkpt>
      <trkpt lat="44.55405" lon="6.17073">
        <ele>1014.6</ele>
        <time>2022-09-11T09:52:21Z</time>
      </trkpt>
      <trkpt lat="44.55405" lon="6.17075">
        <ele>1014.6</ele>
        <time>2022-09-11T09:52:22Z</time>
      </trkpt>
      <trkpt lat="44.55405" lon="6.1708">
        <ele>1014.9</ele>
        <time>2022-09-11T09:52:23Z</time>
      </trkpt>
      <trkpt lat="44.55405" lon="6.17081">
        <ele>1015</ele>
        <time>2022-09-11T09:52:24Z</time>
      </trkpt>
      <trkpt lat="44.55405" lon="6.17084">
        <ele>1015.2</ele>
        <time>2022-09-11T09:52:25Z</time>
      </trkpt>
      <trkpt lat="44.55406" lon="6.17089">
        <ele>1015.5</ele>
        <time>2022-09-11T09:52:27Z</time>
      </trkpt>
      <trkpt lat="44.55407" lon="6.17093">
        <ele>1015.7</ele>
        <time>2022-09-11T09:52:28Z</time>
      </trkpt>
      <trkpt lat="44.55407" lon="6.17095">
        <ele>1015.8</ele>
        <time>2022-09-11T09:52:29Z</time>
      </trkpt>
      <trkpt lat="44.55407" lon="6.17099">
        <ele>1016</ele>
        <time>2022-09-11T09:52:30Z</time>
      </trkpt>
      <trkpt lat="44.55407" lon="6.171">
        <ele>1016.1</ele>
        <time>2022-09-11T09:52:31Z</time>
      </trkpt>
      <trkpt lat="44.55407" lon="6.17104">
        <ele>1016.3</ele>
        <time>2022-09-11T09:52:32Z</time>
      </trkpt>
      <trkpt lat="44.55407" lon="6.17105">
        <ele>1016.4</ele>
        <time>2022-09-11T09:52:33Z</time>
      </trkpt>
      <trkpt lat="44.55408" lon="6.17112">
        <ele>1016.7</ele>
        <time>2022-09-11T09:52:35Z</time>
      </trkpt>
      <trkpt lat="44.55409" lon="6.17116">
        <ele>1016.9</ele>
        <time>2022-09-11T09:52:36Z</time>
      </trkpt>
      <trkpt lat="44.55409" lon="6.17118">
        <ele>1017</ele>
        <time>2022-09-11T09:52:37Z</time>
      </trkpt>
      <trkpt lat="44.5541" lon="6.17123">
        <ele>1017.1</ele>
        <time>2022-09-11T09:52:38Z</time>
      </trkpt>
      <trkpt lat="44.5541" lon="6.17125">
        <ele>1017.2</ele>
        <time>2022-09-11T09:52:39Z</time>
      </trkpt>
      <trkpt lat="44.55411" lon="6.17129">
        <ele>1017.3</ele>
        <time>2022-09-11T09:52:40Z</time>
      </trkpt>
      <trkpt lat="44.55411" lon="6.17134">
        <ele>1017.5</ele>
        <time>2022-09-11T09:52:41Z</time>
      </trkpt>
      <trkpt lat="44.55411" lon="6.17136">
        <ele>1017.5</ele>
        <time>2022-09-11T09:52:42Z</time>
      </trkpt>
      <trkpt lat="44.55411" lon="6.1714">
        <ele>1017.7</ele>
        <time>2022-09-11T09:52:43Z</time>
      </trkpt>
      <trkpt lat="44.55412" lon="6.17144">
        <ele>1017.8</ele>
        <time>2022-09-11T09:52:44Z</time>
      </trkpt>
      <trkpt lat="44.55413" lon="6.17148">
        <ele>1017.9</ele>
        <time>2022-09-11T09:52:45Z</time>
      </trkpt>
      <trkpt lat="44.55414" lon="6.17153">
        <ele>1018</ele>
        <time>2022-09-11T09:52:46Z</time>
      </trkpt>
      <trkpt lat="44.55415" lon="6.17157">
        <ele>1018.1</ele>
        <time>2022-09-11T09:52:47Z</time>
      </trkpt>
      <trkpt lat="44.55415" lon="6.17161">
        <ele>1018.1</ele>
        <time>2022-09-11T09:52:48Z</time>
      </trkpt>
      <trkpt lat="44.55416" lon="6.17165">
        <ele>1018.2</ele>
        <time>2022-09-11T09:52:49Z</time>
      </trkpt>
      <trkpt lat="44.55417" lon="6.17169">
        <ele>1018.3</ele>
        <time>2022-09-11T09:52:50Z</time>
      </trkpt>
      <trkpt lat="44.55418" lon="6.17173">
        <ele>1018.4</ele>
        <time>2022-09-11T09:52:51Z</time>
      </trkpt>
      <trkpt lat="44.55418" lon="6.17178">
        <ele>1018.4</ele>
        <time>2022-09-11T09:52:52Z</time>
      </trkpt>
      <trkpt lat="44.55418" lon="6.17182">
        <ele>1018.5</ele>
        <time>2022-09-11T09:52:53Z</time>
      </trkpt>
      <trkpt lat="44.5542" lon="6.17189">
        <ele>1018.6</ele>
        <time>2022-09-11T09:52:54Z</time>
      </trkpt>
      <trkpt lat="44.5542" lon="6.17193">
        <ele>1018.7</ele>
        <time>2022-09-11T09:52:55Z</time>
      </trkpt>
      <trkpt lat="44.55421" lon="6.17199">
        <ele>1018.7</ele>
        <time>2022-09-11T09:52:56Z</time>
      </trkpt>
      <trkpt lat="44.55422" lon="6.17205">
        <ele>1018.8</ele>
        <time>2022-09-11T09:52:57Z</time>
      </trkpt>
      <trkpt lat="44.55422" lon="6.1721">
        <ele>1018.9</ele>
        <time>2022-09-11T09:52:59Z</time>
      </trkpt>
      <trkpt lat="44.55422" lon="6.17215">
        <ele>1018.9</ele>
        <time>2022-09-11T09:53:00Z</time>
      </trkpt>
      <trkpt lat="44.55424" lon="6.17225">
        <ele>1018.9</ele>
        <time>2022-09-11T09:53:01Z</time>
      </trkpt>
      <trkpt lat="44.55424" lon="6.1723">
        <ele>1018.9</ele>
        <time>2022-09-11T09:53:03Z</time>
      </trkpt>
      <trkpt lat="44.55424" lon="6.17235">
        <ele>1018.9</ele>
        <time>2022-09-11T09:53:04Z</time>
      </trkpt>
      <trkpt lat="44.55425" lon="6.1724">
        <ele>1018.8</ele>
        <time>2022-09-11T09:53:05Z</time>
      </trkpt>
      <trkpt lat="44.55425" lon="6.17247">
        <ele>1018.8</ele>
        <time>2022-09-11T09:53:06Z</time>
      </trkpt>
      <trkpt lat="44.55426" lon="6.17253">
        <ele>1018.7</ele>
        <time>2022-09-11T09:53:07Z</time>
      </trkpt>
      <trkpt lat="44.55426" lon="6.17259">
        <ele>1018.6</ele>
        <time>2022-09-11T09:53:08Z</time>
      </trkpt>
      <trkpt lat="44.55427" lon="6.17265">
        <ele>1018.6</ele>
        <time>2022-09-11T09:53:09Z</time>
      </trkpt>
      <trkpt lat="44.55428" lon="6.17274">
        <ele>1018.4</ele>
        <time>2022-09-11T09:53:10Z</time>
      </trkpt>
      <trkpt lat="44.55429" lon="6.17282">
        <ele>1018.3</ele>
        <time>2022-09-11T09:53:11Z</time>
      </trkpt>
      <trkpt lat="44.55429" lon="6.17289">
        <ele>1018.1</ele>
        <time>2022-09-11T09:53:12Z</time>
      </trkpt>
      <trkpt lat="44.5543" lon="6.17296">
        <ele>1018</ele>
        <time>2022-09-11T09:53:13Z</time>
      </trkpt>
      <trkpt lat="44.5543" lon="6.17303">
        <ele>1017.8</ele>
        <time>2022-09-11T09:53:14Z</time>
      </trkpt>
      <trkpt lat="44.55431" lon="6.17312">
        <ele>1017.6</ele>
        <time>2022-09-11T09:53:15Z</time>
      </trkpt>
      <trkpt lat="44.55431" lon="6.1732">
        <ele>1017.4</ele>
        <time>2022-09-11T09:53:16Z</time>
      </trkpt>
      <trkpt lat="44.55432" lon="6.17328">
        <ele>1017.1</ele>
        <time>2022-09-11T09:53:17Z</time>
      </trkpt>
      <trkpt lat="44.55432" lon="6.17337">
        <ele>1016.9</ele>
        <time>2022-09-11T09:53:18Z</time>
      </trkpt>
      <trkpt lat="44.55432" lon="6.17346">
        <ele>1016.7</ele>
        <time>2022-09-11T09:53:19Z</time>
      </trkpt>
      <trkpt lat="44.55433" lon="6.17355">
        <ele>1016.5</ele>
        <time>2022-09-11T09:53:20Z</time>
      </trkpt>
      <trkpt lat="44.55434" lon="6.17365">
        <ele>1016.3</ele>
        <time>2022-09-11T09:53:21Z</time>
      </trkpt>
      <trkpt lat="44.55435" lon="6.17375">
        <ele>1016.2</ele>
        <time>2022-09-11T09:53:22Z</time>
      </trkpt>
      <trkpt lat="44.55435" lon="6.17384">
        <ele>1016.2</ele>
        <time>2022-09-11T09:53:23Z</time>
      </trkpt>
      <trkpt lat="44.55436" lon="6.17393">
        <ele>1016.1</ele>
        <time>2022-09-11T09:53:24Z</time>
      </trkpt>
      <trkpt lat="44.55437" lon="6.17401">
        <ele>1016.2</ele>
        <time>2022-09-11T09:53:25Z</time>
      </trkpt>
      <trkpt lat="44.55438" lon="6.17409">
        <ele>1016.2</ele>
        <time>2022-09-11T09:53:26Z</time>
      </trkpt>
      <trkpt lat="44.55438" lon="6.17417">
        <ele>1016.3</ele>
        <time>2022-09-11T09:53:27Z</time>
      </trkpt>
      <trkpt lat="44.5544" lon="6.17424">
        <ele>1016.3</ele>
        <time>2022-09-11T09:53:28Z</time>
      </trkpt>
      <trkpt lat="44.55442" lon="6.17431">
        <ele>1016.3</ele>
        <time>2022-09-11T09:53:29Z</time>
      </trkpt>
      <trkpt lat="44.55443" lon="6.17439">
        <ele>1016.3</ele>
        <time>2022-09-11T09:53:30Z</time>
      </trkpt>
      <trkpt lat="44.55444" lon="6.17446">
        <ele>1016.3</ele>
        <time>2022-09-11T09:53:31Z</time>
      </trkpt>
      <trkpt lat="44.55444" lon="6.17453">
        <ele>1016.4</ele>
        <time>2022-09-11T09:53:32Z</time>
      </trkpt>
      <trkpt lat="44.55444" lon="6.1746">
        <ele>1016.4</ele>
        <time>2022-09-11T09:53:33Z</time>
      </trkpt>
      <trkpt lat="44.55444" lon="6.17467">
        <ele>1016.4</ele>
        <time>2022-09-11T09:53:34Z</time>
      </trkpt>
      <trkpt lat="44.55444" lon="6.17474">
        <ele>1016.4</ele>
        <time>2022-09-11T09:53:35Z</time>
      </trkpt>
      <trkpt lat="44.55444" lon="6.17481">
        <ele>1016.4</ele>
        <time>2022-09-11T09:53:36Z</time>
      </trkpt>
      <trkpt lat="44.55444" lon="6.17488">
        <ele>1016.4</ele>
        <time>2022-09-11T09:53:37Z</time>
      </trkpt>
      <trkpt lat="44.55445" lon="6.17495">
        <ele>1016.3</ele>
        <time>2022-09-11T09:53:38Z</time>
      </trkpt>
      <trkpt lat="44.55446" lon="6.17499">
        <ele>1016.3</ele>
        <time>2022-09-11T09:53:39Z</time>
      </trkpt>
      <trkpt lat="44.55448" lon="6.17506">
        <ele>1016.2</ele>
        <time>2022-09-11T09:53:40Z</time>
      </trkpt>
      <trkpt lat="44.55449" lon="6.17513">
        <ele>1016.1</ele>
        <time>2022-09-11T09:53:41Z</time>
      </trkpt>
      <trkpt lat="44.5545" lon="6.17521">
        <ele>1015.9</ele>
        <time>2022-09-11T09:53:42Z</time>
      </trkpt>
      <trkpt lat="44.55452" lon="6.17529">
        <ele>1015.6</ele>
        <time>2022-09-11T09:53:43Z</time>
      </trkpt>
      <trkpt lat="44.55454" lon="6.17536">
        <ele>1015.4</ele>
        <time>2022-09-11T09:53:44Z</time>
      </trkpt>
      <trkpt lat="44.55456" lon="6.17543">
        <ele>1015.2</ele>
        <time>2022-09-11T09:53:45Z</time>
      </trkpt>
      <trkpt lat="44.55457" lon="6.17551">
        <ele>1014.9</ele>
        <time>2022-09-11T09:53:46Z</time>
      </trkpt>
      <trkpt lat="44.55459" lon="6.1756">
        <ele>1014.6</ele>
        <time>2022-09-11T09:53:47Z</time>
      </trkpt>
      <trkpt lat="44.55461" lon="6.17569">
        <ele>1014.2</ele>
        <time>2022-09-11T09:53:48Z</time>
      </trkpt>
      <trkpt lat="44.55463" lon="6.17578">
        <ele>1013.9</ele>
        <time>2022-09-11T09:53:49Z</time>
      </trkpt>
      <trkpt lat="44.55465" lon="6.17588">
        <ele>1013.5</ele>
        <time>2022-09-11T09:53:50Z</time>
      </trkpt>
      <trkpt lat="44.55466" lon="6.17598">
        <ele>1013.2</ele>
        <time>2022-09-11T09:53:51Z</time>
      </trkpt>
      <trkpt lat="44.55467" lon="6.17609">
        <ele>1012.9</ele>
        <time>2022-09-11T09:53:52Z</time>
      </trkpt>
      <trkpt lat="44.55469" lon="6.1762">
        <ele>1012.6</ele>
        <time>2022-09-11T09:53:53Z</time>
      </trkpt>
      <trkpt lat="44.5547" lon="6.17631">
        <ele>1012.3</ele>
        <time>2022-09-11T09:53:54Z</time>
      </trkpt>
      <trkpt lat="44.55472" lon="6.17641">
        <ele>1012.1</ele>
        <time>2022-09-11T09:53:55Z</time>
      </trkpt>
      <trkpt lat="44.55474" lon="6.17652">
        <ele>1011.9</ele>
        <time>2022-09-11T09:53:56Z</time>
      </trkpt>
      <trkpt lat="44.55474" lon="6.17663">
        <ele>1011.7</ele>
        <time>2022-09-11T09:53:57Z</time>
      </trkpt>
      <trkpt lat="44.55475" lon="6.17673">
        <ele>1011.5</ele>
        <time>2022-09-11T09:53:58Z</time>
      </trkpt>
      <trkpt lat="44.55476" lon="6.17683">
        <ele>1011.3</ele>
        <time>2022-09-11T09:53:59Z</time>
      </trkpt>
      <trkpt lat="44.55477" lon="6.17694">
        <ele>1011.1</ele>
        <time>2022-09-11T09:54:00Z</time>
      </trkpt>
      <trkpt lat="44.55479" lon="6.17704">
        <ele>1010.9</ele>
        <time>2022-09-11T09:54:01Z</time>
      </trkpt>
      <trkpt lat="44.5548" lon="6.17714">
        <ele>1010.8</ele>
        <time>2022-09-11T09:54:02Z</time>
      </trkpt>
      <trkpt lat="44.55482" lon="6.17724">
        <ele>1010.7</ele>
        <time>2022-09-11T09:54:03Z</time>
      </trkpt>
      <trkpt lat="44.55484" lon="6.17735">
        <ele>1010.6</ele>
        <time>2022-09-11T09:54:04Z</time>
      </trkpt>
      <trkpt lat="44.55486" lon="6.17745">
        <ele>1010.6</ele>
        <time>2022-09-11T09:54:05Z</time>
      </trkpt>
      <trkpt lat="44.55489" lon="6.17754">
        <ele>1010.7</ele>
        <time>2022-09-11T09:54:06Z</time>
      </trkpt>
      <trkpt lat="44.55491" lon="6.17763">
        <ele>1010.9</ele>
        <time>2022-09-11T09:54:07Z</time>
      </trkpt>
      <trkpt lat="44.55494" lon="6.17772">
        <ele>1011.2</ele>
        <time>2022-09-11T09:54:08Z</time>
      </trkpt>
      <trkpt lat="44.55496" lon="6.1778">
        <ele>1011.5</ele>
        <time>2022-09-11T09:54:09Z</time>
      </trkpt>
      <trkpt lat="44.55499" lon="6.17787">
        <ele>1011.9</ele>
        <time>2022-09-11T09:54:10Z</time>
      </trkpt>
      <trkpt lat="44.55503" lon="6.17793">
        <ele>1012.3</ele>
        <time>2022-09-11T09:54:11Z</time>
      </trkpt>
      <trkpt lat="44.55506" lon="6.17798">
        <ele>1012.7</ele>
        <time>2022-09-11T09:54:12Z</time>
      </trkpt>
      <trkpt lat="44.55509" lon="6.17803">
        <ele>1013</ele>
        <time>2022-09-11T09:54:13Z</time>
      </trkpt>
      <trkpt lat="44.55512" lon="6.17807">
        <ele>1013.4</ele>
        <time>2022-09-11T09:54:14Z</time>
      </trkpt>
      <trkpt lat="44.55514" lon="6.17811">
        <ele>1013.7</ele>
        <time>2022-09-11T09:54:15Z</time>
      </trkpt>
      <trkpt lat="44.55515" lon="6.17813">
        <ele>1013.8</ele>
        <time>2022-09-11T09:54:16Z</time>
      </trkpt>
      <trkpt lat="44.55517" lon="6.17816">
        <ele>1014.1</ele>
        <time>2022-09-11T09:54:17Z</time>
      </trkpt>
      <trkpt lat="44.55519" lon="6.1782">
        <ele>1014.3</ele>
        <time>2022-09-11T09:54:18Z</time>
      </trkpt>
      <trkpt lat="44.5552" lon="6.17824">
        <ele>1014.6</ele>
        <time>2022-09-11T09:54:19Z</time>
      </trkpt>
      <trkpt lat="44.55521" lon="6.17828">
        <ele>1014.8</ele>
        <time>2022-09-11T09:54:20Z</time>
      </trkpt>
      <trkpt lat="44.55522" lon="6.17833">
        <ele>1015.1</ele>
        <time>2022-09-11T09:54:21Z</time>
      </trkpt>
      <trkpt lat="44.55522" lon="6.17835">
        <ele>1015.2</ele>
        <time>2022-09-11T09:54:22Z</time>
      </trkpt>
      <trkpt lat="44.55523" lon="6.17842">
        <ele>1015.6</ele>
        <time>2022-09-11T09:54:23Z</time>
      </trkpt>
      <trkpt lat="44.55523" lon="6.17849">
        <ele>1016</ele>
        <time>2022-09-11T09:54:25Z</time>
      </trkpt>
      <trkpt lat="44.55523" lon="6.17851">
        <ele>1016.1</ele>
        <time>2022-09-11T09:54:26Z</time>
      </trkpt>
      <trkpt lat="44.55524" lon="6.17854">
        <ele>1016.3</ele>
        <time>2022-09-11T09:54:27Z</time>
      </trkpt>
      <trkpt lat="44.55525" lon="6.17859">
        <ele>1016.5</ele>
        <time>2022-09-11T09:54:28Z</time>
      </trkpt>
      <trkpt lat="44.55525" lon="6.17862">
        <ele>1016.7</ele>
        <time>2022-09-11T09:54:29Z</time>
      </trkpt>
      <trkpt lat="44.55526" lon="6.17866">
        <ele>1016.9</ele>
        <time>2022-09-11T09:54:30Z</time>
      </trkpt>
      <trkpt lat="44.55526" lon="6.17871">
        <ele>1017.1</ele>
        <time>2022-09-11T09:54:31Z</time>
      </trkpt>
      <trkpt lat="44.55526" lon="6.17873">
        <ele>1017.2</ele>
        <time>2022-09-11T09:54:32Z</time>
      </trkpt>
      <trkpt lat="44.55527" lon="6.17876">
        <ele>1017.3</ele>
        <time>2022-09-11T09:54:33Z</time>
      </trkpt>
      <trkpt lat="44.55528" lon="6.17883">
        <ele>1017.6</ele>
        <time>2022-09-11T09:54:35Z</time>
      </trkpt>
      <trkpt lat="44.55527" lon="6.17887">
        <ele>1017.7</ele>
        <time>2022-09-11T09:54:37Z</time>
      </trkpt>
      <trkpt lat="44.55527" lon="6.17893">
        <ele>1017.9</ele>
        <time>2022-09-11T09:54:38Z</time>
      </trkpt>
      <trkpt lat="44.55526" lon="6.17896">
        <ele>1018</ele>
        <time>2022-09-11T09:54:39Z</time>
      </trkpt>
      <trkpt lat="44.55526" lon="6.179">
        <ele>1018.1</ele>
        <time>2022-09-11T09:54:40Z</time>
      </trkpt>
      <trkpt lat="44.55526" lon="6.17905">
        <ele>1018.3</ele>
        <time>2022-09-11T09:54:41Z</time>
      </trkpt>
      <trkpt lat="44.55526" lon="6.17911">
        <ele>1018.4</ele>
        <time>2022-09-11T09:54:42Z</time>
      </trkpt>
      <trkpt lat="44.55525" lon="6.17921">
        <ele>1018.6</ele>
        <time>2022-09-11T09:54:44Z</time>
      </trkpt>
      <trkpt lat="44.55526" lon="6.17932">
        <ele>1018.7</ele>
        <time>2022-09-11T09:54:46Z</time>
      </trkpt>
      <trkpt lat="44.55526" lon="6.17937">
        <ele>1018.7</ele>
        <time>2022-09-11T09:54:48Z</time>
      </trkpt>
      <trkpt lat="44.55526" lon="6.17943">
        <ele>1018.7</ele>
        <time>2022-09-11T09:54:49Z</time>
      </trkpt>
      <trkpt lat="44.55527" lon="6.17948">
        <ele>1018.7</ele>
        <time>2022-09-11T09:54:50Z</time>
      </trkpt>
      <trkpt lat="44.55527" lon="6.17953">
        <ele>1018.6</ele>
        <time>2022-09-11T09:54:51Z</time>
      </trkpt>
      <trkpt lat="44.55528" lon="6.17958">
        <ele>1018.5</ele>
        <time>2022-09-11T09:54:52Z</time>
      </trkpt>
      <trkpt lat="44.55529" lon="6.17967">
        <ele>1018.3</ele>
        <time>2022-09-11T09:54:53Z</time>
      </trkpt>
      <trkpt lat="44.55529" lon="6.17974">
        <ele>1018.2</ele>
        <time>2022-09-11T09:54:54Z</time>
      </trkpt>
      <trkpt lat="44.5553" lon="6.17981">
        <ele>1018.2</ele>
        <time>2022-09-11T09:54:55Z</time>
      </trkpt>
      <trkpt lat="44.55531" lon="6.17988">
        <ele>1018.2</ele>
        <time>2022-09-11T09:54:56Z</time>
      </trkpt>
      <trkpt lat="44.55532" lon="6.17997">
        <ele>1017.8</ele>
        <time>2022-09-11T09:54:57Z</time>
      </trkpt>
      <trkpt lat="44.55533" lon="6.18005">
        <ele>1017.5</ele>
        <time>2022-09-11T09:54:58Z</time>
      </trkpt>
      <trkpt lat="44.55534" lon="6.18013">
        <ele>1017.1</ele>
        <time>2022-09-11T09:54:59Z</time>
      </trkpt>
      <trkpt lat="44.55535" lon="6.18022">
        <ele>1016.7</ele>
        <time>2022-09-11T09:55:00Z</time>
      </trkpt>
      <trkpt lat="44.55537" lon="6.18032">
        <ele>1016.1</ele>
        <time>2022-09-11T09:55:01Z</time>
      </trkpt>
      <trkpt lat="44.55539" lon="6.18041">
        <ele>1015.6</ele>
        <time>2022-09-11T09:55:02Z</time>
      </trkpt>
      <trkpt lat="44.5554" lon="6.18051">
        <ele>1014.9</ele>
        <time>2022-09-11T09:55:03Z</time>
      </trkpt>
      <trkpt lat="44.55542" lon="6.18062">
        <ele>1014.2</ele>
        <time>2022-09-11T09:55:04Z</time>
      </trkpt>
      <trkpt lat="44.55543" lon="6.18073">
        <ele>1013.4</ele>
        <time>2022-09-11T09:55:05Z</time>
      </trkpt>
      <trkpt lat="44.55543" lon="6.18085">
        <ele>1012.6</ele>
        <time>2022-09-11T09:55:06Z</time>
      </trkpt>
      <trkpt lat="44.55542" lon="6.18098">
        <ele>1011.6</ele>
        <time>2022-09-11T09:55:07Z</time>
      </trkpt>
      <trkpt lat="44.55541" lon="6.1811">
        <ele>1010.7</ele>
        <time>2022-09-11T09:55:08Z</time>
      </trkpt>
      <trkpt lat="44.5554" lon="6.18121">
        <ele>1009.9</ele>
        <time>2022-09-11T09:55:09Z</time>
      </trkpt>
      <trkpt lat="44.55539" lon="6.18133">
        <ele>1009.1</ele>
        <time>2022-09-11T09:55:10Z</time>
      </trkpt>
      <trkpt lat="44.55539" lon="6.18145">
        <ele>1008.2</ele>
        <time>2022-09-11T09:55:11Z</time>
      </trkpt>
      <trkpt lat="44.55539" lon="6.18157">
        <ele>1007.4</ele>
        <time>2022-09-11T09:55:12Z</time>
      </trkpt>
      <trkpt lat="44.5554" lon="6.18166">
        <ele>1006.8</ele>
        <time>2022-09-11T09:55:13Z</time>
      </trkpt>
      <trkpt lat="44.55542" lon="6.18176">
        <ele>1006.1</ele>
        <time>2022-09-11T09:55:14Z</time>
      </trkpt>
      <trkpt lat="44.55545" lon="6.18184">
        <ele>1005.5</ele>
        <time>2022-09-11T09:55:15Z</time>
      </trkpt>
      <trkpt lat="44.55548" lon="6.18192">
        <ele>1004.9</ele>
        <time>2022-09-11T09:55:16Z</time>
      </trkpt>
      <trkpt lat="44.55552" lon="6.18198">
        <ele>1004.3</ele>
        <time>2022-09-11T09:55:17Z</time>
      </trkpt>
      <trkpt lat="44.55557" lon="6.18204">
        <ele>1003.7</ele>
        <time>2022-09-11T09:55:18Z</time>
      </trkpt>
      <trkpt lat="44.55562" lon="6.18211">
        <ele>1003.1</ele>
        <time>2022-09-11T09:55:19Z</time>
      </trkpt>
      <trkpt lat="44.55568" lon="6.18217">
        <ele>1002.6</ele>
        <time>2022-09-11T09:55:20Z</time>
      </trkpt>
      <trkpt lat="44.55573" lon="6.18222">
        <ele>1002</ele>
        <time>2022-09-11T09:55:21Z</time>
      </trkpt>
      <trkpt lat="44.55577" lon="6.18228">
        <ele>1001.5</ele>
        <time>2022-09-11T09:55:22Z</time>
      </trkpt>
      <trkpt lat="44.5558" lon="6.18236">
        <ele>1000.8</ele>
        <time>2022-09-11T09:55:23Z</time>
      </trkpt>
      <trkpt lat="44.55583" lon="6.18246">
        <ele>1000.1</ele>
        <time>2022-09-11T09:55:24Z</time>
      </trkpt>
      <trkpt lat="44.55585" lon="6.18257">
        <ele>999.2</ele>
        <time>2022-09-11T09:55:25Z</time>
      </trkpt>
      <trkpt lat="44.55587" lon="6.18269">
        <ele>998.3</ele>
        <time>2022-09-11T09:55:26Z</time>
      </trkpt>
      <trkpt lat="44.55588" lon="6.18282">
        <ele>997.3</ele>
        <time>2022-09-11T09:55:27Z</time>
      </trkpt>
      <trkpt lat="44.5559" lon="6.18295">
        <ele>996.3</ele>
        <time>2022-09-11T09:55:28Z</time>
      </trkpt>
      <trkpt lat="44.55593" lon="6.18307">
        <ele>995.4</ele>
        <time>2022-09-11T09:55:29Z</time>
      </trkpt>
      <trkpt lat="44.55596" lon="6.18319">
        <ele>994.4</ele>
        <time>2022-09-11T09:55:30Z</time>
      </trkpt>
      <trkpt lat="44.556" lon="6.1833">
        <ele>993.5</ele>
        <time>2022-09-11T09:55:31Z</time>
      </trkpt>
      <trkpt lat="44.55603" lon="6.1834">
        <ele>992.7</ele>
        <time>2022-09-11T09:55:32Z</time>
      </trkpt>
      <trkpt lat="44.55607" lon="6.1835">
        <ele>991.8</ele>
        <time>2022-09-11T09:55:33Z</time>
      </trkpt>
      <trkpt lat="44.5561" lon="6.18361">
        <ele>990.9</ele>
        <time>2022-09-11T09:55:34Z</time>
      </trkpt>
      <trkpt lat="44.55611" lon="6.18374">
        <ele>989.9</ele>
        <time>2022-09-11T09:55:35Z</time>
      </trkpt>
      <trkpt lat="44.5561" lon="6.18388">
        <ele>988.9</ele>
        <time>2022-09-11T09:55:36Z</time>
      </trkpt>
      <trkpt lat="44.55608" lon="6.18402">
        <ele>987.9</ele>
        <time>2022-09-11T09:55:37Z</time>
      </trkpt>
      <trkpt lat="44.55604" lon="6.18415">
        <ele>986.8</ele>
        <time>2022-09-11T09:55:38Z</time>
      </trkpt>
      <trkpt lat="44.556" lon="6.18429">
        <ele>985.8</ele>
        <time>2022-09-11T09:55:39Z</time>
      </trkpt>
      <trkpt lat="44.55598" lon="6.18442">
        <ele>984.9</ele>
        <time>2022-09-11T09:55:40Z</time>
      </trkpt>
      <trkpt lat="44.55597" lon="6.18455">
        <ele>984.1</ele>
        <time>2022-09-11T09:55:41Z</time>
      </trkpt>
      <trkpt lat="44.55596" lon="6.18469">
        <ele>983.4</ele>
        <time>2022-09-11T09:55:42Z</time>
      </trkpt>
      <trkpt lat="44.55597" lon="6.18482">
        <ele>982.6</ele>
        <time>2022-09-11T09:55:43Z</time>
      </trkpt>
      <trkpt lat="44.55598" lon="6.18495">
        <ele>981.9</ele>
        <time>2022-09-11T09:55:44Z</time>
      </trkpt>
      <trkpt lat="44.556" lon="6.18506">
        <ele>981.3</ele>
        <time>2022-09-11T09:55:45Z</time>
      </trkpt>
      <trkpt lat="44.55601" lon="6.18517">
        <ele>980.7</ele>
        <time>2022-09-11T09:55:46Z</time>
      </trkpt>
      <trkpt lat="44.55601" lon="6.18528">
        <ele>980.1</ele>
        <time>2022-09-11T09:55:47Z</time>
      </trkpt>
      <trkpt lat="44.55601" lon="6.18538">
        <ele>979.6</ele>
        <time>2022-09-11T09:55:48Z</time>
      </trkpt>
      <trkpt lat="44.55601" lon="6.18547">
        <ele>979.1</ele>
        <time>2022-09-11T09:55:49Z</time>
      </trkpt>
      <trkpt lat="44.55603" lon="6.18553">
        <ele>978.8</ele>
        <time>2022-09-11T09:55:50Z</time>
      </trkpt>
      <trkpt lat="44.55608" lon="6.18554">
        <ele>978.5</ele>
        <time>2022-09-11T09:55:51Z</time>
      </trkpt>
      <trkpt lat="44.55613" lon="6.1855">
        <ele>977.9</ele>
        <time>2022-09-11T09:55:52Z</time>
      </trkpt>
      <trkpt lat="44.55616" lon="6.18542">
        <ele>977.2</ele>
        <time>2022-09-11T09:55:53Z</time>
      </trkpt>
      <trkpt lat="44.55618" lon="6.18534">
        <ele>976.5</ele>
        <time>2022-09-11T09:55:54Z</time>
      </trkpt>
      <trkpt lat="44.55619" lon="6.18524">
        <ele>975.8</ele>
        <time>2022-09-11T09:55:55Z</time>
      </trkpt>
      <trkpt lat="44.5562" lon="6.18513">
        <ele>975</ele>
        <time>2022-09-11T09:55:56Z</time>
      </trkpt>
      <trkpt lat="44.55622" lon="6.18502">
        <ele>974.2</ele>
        <time>2022-09-11T09:55:57Z</time>
      </trkpt>
      <trkpt lat="44.55625" lon="6.1849">
        <ele>973.4</ele>
        <time>2022-09-11T09:55:58Z</time>
      </trkpt>
      <trkpt lat="44.55628" lon="6.18478">
        <ele>972.7</ele>
        <time>2022-09-11T09:55:59Z</time>
      </trkpt>
      <trkpt lat="44.55631" lon="6.18466">
        <ele>971.9</ele>
        <time>2022-09-11T09:56:00Z</time>
      </trkpt>
      <trkpt lat="44.55635" lon="6.18454">
        <ele>971.2</ele>
        <time>2022-09-11T09:56:01Z</time>
      </trkpt>
      <trkpt lat="44.55641" lon="6.18444">
        <ele>970.4</ele>
        <time>2022-09-11T09:56:02Z</time>
      </trkpt>
      <trkpt lat="44.55649" lon="6.18436">
        <ele>969.6</ele>
        <time>2022-09-11T09:56:03Z</time>
      </trkpt>
      <trkpt lat="44.55658" lon="6.18429">
        <ele>968.7</ele>
        <time>2022-09-11T09:56:04Z</time>
      </trkpt>
      <trkpt lat="44.55664" lon="6.18418">
        <ele>967.8</ele>
        <time>2022-09-11T09:56:05Z</time>
      </trkpt>
      <trkpt lat="44.5567" lon="6.18405">
        <ele>966.9</ele>
        <time>2022-09-11T09:56:06Z</time>
      </trkpt>
      <trkpt lat="44.55675" lon="6.18392">
        <ele>966</ele>
        <time>2022-09-11T09:56:07Z</time>
      </trkpt>
      <trkpt lat="44.5568" lon="6.18378">
        <ele>965.2</ele>
        <time>2022-09-11T09:56:08Z</time>
      </trkpt>
      <trkpt lat="44.55683" lon="6.18364">
        <ele>964.4</ele>
        <time>2022-09-11T09:56:09Z</time>
      </trkpt>
      <trkpt lat="44.55685" lon="6.18349">
        <ele>963.7</ele>
        <time>2022-09-11T09:56:10Z</time>
      </trkpt>
      <trkpt lat="44.55685" lon="6.18334">
        <ele>962.9</ele>
        <time>2022-09-11T09:56:11Z</time>
      </trkpt>
      <trkpt lat="44.55688" lon="6.18319">
        <ele>962</ele>
        <time>2022-09-11T09:56:12Z</time>
      </trkpt>
      <trkpt lat="44.55695" lon="6.18308">
        <ele>961</ele>
        <time>2022-09-11T09:56:13Z</time>
      </trkpt>
      <trkpt lat="44.55704" lon="6.18298">
        <ele>959.9</ele>
        <time>2022-09-11T09:56:14Z</time>
      </trkpt>
      <trkpt lat="44.55713" lon="6.18288">
        <ele>958.7</ele>
        <time>2022-09-11T09:56:15Z</time>
      </trkpt>
      <trkpt lat="44.55721" lon="6.18276">
        <ele>957.4</ele>
        <time>2022-09-11T09:56:16Z</time>
      </trkpt>
      <trkpt lat="44.55728" lon="6.18263">
        <ele>956.3</ele>
        <time>2022-09-11T09:56:17Z</time>
      </trkpt>
      <trkpt lat="44.55733" lon="6.18247">
        <ele>955.1</ele>
        <time>2022-09-11T09:56:18Z</time>
      </trkpt>
      <trkpt lat="44.55738" lon="6.18231">
        <ele>954</ele>
        <time>2022-09-11T09:56:19Z</time>
      </trkpt>
      <trkpt lat="44.55743" lon="6.18216">
        <ele>952.8</ele>
        <time>2022-09-11T09:56:20Z</time>
      </trkpt>
      <trkpt lat="44.55748" lon="6.182">
        <ele>951.5</ele>
        <time>2022-09-11T09:56:21Z</time>
      </trkpt>
      <trkpt lat="44.55753" lon="6.18184">
        <ele>950.3</ele>
        <time>2022-09-11T09:56:22Z</time>
      </trkpt>
      <trkpt lat="44.55758" lon="6.18168">
        <ele>949.2</ele>
        <time>2022-09-11T09:56:23Z</time>
      </trkpt>
      <trkpt lat="44.55763" lon="6.18152">
        <ele>948.2</ele>
        <time>2022-09-11T09:56:24Z</time>
      </trkpt>
      <trkpt lat="44.5577" lon="6.18138">
        <ele>947.1</ele>
        <time>2022-09-11T09:56:25Z</time>
      </trkpt>
      <trkpt lat="44.55779" lon="6.18125">
        <ele>945.9</ele>
        <time>2022-09-11T09:56:26Z</time>
      </trkpt>
      <trkpt lat="44.55787" lon="6.18113">
        <ele>944.9</ele>
        <time>2022-09-11T09:56:27Z</time>
      </trkpt>
      <trkpt lat="44.55794" lon="6.18098">
        <ele>943.8</ele>
        <time>2022-09-11T09:56:28Z</time>
      </trkpt>
      <trkpt lat="44.558" lon="6.18082">
        <ele>942.8</ele>
        <time>2022-09-11T09:56:29Z</time>
      </trkpt>
      <trkpt lat="44.55806" lon="6.18066">
        <ele>941.8</ele>
        <time>2022-09-11T09:56:30Z</time>
      </trkpt>
      <trkpt lat="44.5581" lon="6.1805">
        <ele>940.8</ele>
        <time>2022-09-11T09:56:31Z</time>
      </trkpt>
      <trkpt lat="44.55815" lon="6.18035">
        <ele>939.9</ele>
        <time>2022-09-11T09:56:32Z</time>
      </trkpt>
      <trkpt lat="44.55819" lon="6.18021">
        <ele>939.2</ele>
        <time>2022-09-11T09:56:33Z</time>
      </trkpt>
      <trkpt lat="44.55823" lon="6.18009">
        <ele>938.8</ele>
        <time>2022-09-11T09:56:34Z</time>
      </trkpt>
      <trkpt lat="44.55828" lon="6.18001">
        <ele>938.4</ele>
        <time>2022-09-11T09:56:35Z</time>
      </trkpt>
      <trkpt lat="44.55836" lon="6.17996">
        <ele>938</ele>
        <time>2022-09-11T09:56:36Z</time>
      </trkpt>
      <trkpt lat="44.55844" lon="6.17998">
        <ele>937.6</ele>
        <time>2022-09-11T09:56:37Z</time>
      </trkpt>
      <trkpt lat="44.5585" lon="6.18006">
        <ele>937.2</ele>
        <time>2022-09-11T09:56:38Z</time>
      </trkpt>
      <trkpt lat="44.55853" lon="6.18018">
        <ele>936.9</ele>
        <time>2022-09-11T09:56:39Z</time>
      </trkpt>
      <trkpt lat="44.55852" lon="6.1803">
        <ele>936.6</ele>
        <time>2022-09-11T09:56:40Z</time>
      </trkpt>
      <trkpt lat="44.55851" lon="6.18041">
        <ele>936.4</ele>
        <time>2022-09-11T09:56:41Z</time>
      </trkpt>
      <trkpt lat="44.5585" lon="6.18051">
        <ele>936.2</ele>
        <time>2022-09-11T09:56:42Z</time>
      </trkpt>
      <trkpt lat="44.55849" lon="6.18061">
        <ele>936.1</ele>
        <time>2022-09-11T09:56:43Z</time>
      </trkpt>
      <trkpt lat="44.55848" lon="6.18072">
        <ele>935.9</ele>
        <time>2022-09-11T09:56:44Z</time>
      </trkpt>
      <trkpt lat="44.55848" lon="6.18082">
        <ele>935.7</ele>
        <time>2022-09-11T09:56:45Z</time>
      </trkpt>
      <trkpt lat="44.55848" lon="6.18092">
        <ele>935.5</ele>
        <time>2022-09-11T09:56:46Z</time>
      </trkpt>
      <trkpt lat="44.55848" lon="6.18102">
        <ele>935.2</ele>
        <time>2022-09-11T09:56:47Z</time>
      </trkpt>
      <trkpt lat="44.55849" lon="6.18113">
        <ele>934.9</ele>
        <time>2022-09-11T09:56:48Z</time>
      </trkpt>
      <trkpt lat="44.55849" lon="6.18124">
        <ele>934.7</ele>
        <time>2022-09-11T09:56:49Z</time>
      </trkpt>
      <trkpt lat="44.55849" lon="6.18135">
        <ele>934.4</ele>
        <time>2022-09-11T09:56:50Z</time>
      </trkpt>
      <trkpt lat="44.55849" lon="6.18146">
        <ele>934.2</ele>
        <time>2022-09-11T09:56:51Z</time>
      </trkpt>
      <trkpt lat="44.55849" lon="6.18158">
        <ele>933.9</ele>
        <time>2022-09-11T09:56:52Z</time>
      </trkpt>
      <trkpt lat="44.5585" lon="6.18169">
        <ele>933.7</ele>
        <time>2022-09-11T09:56:53Z</time>
      </trkpt>
      <trkpt lat="44.55851" lon="6.1818">
        <ele>933.4</ele>
        <time>2022-09-11T09:56:54Z</time>
      </trkpt>
      <trkpt lat="44.55852" lon="6.18192">
        <ele>933.1</ele>
        <time>2022-09-11T09:56:55Z</time>
      </trkpt>
      <trkpt lat="44.55852" lon="6.18203">
        <ele>932.8</ele>
        <time>2022-09-11T09:56:56Z</time>
      </trkpt>
      <trkpt lat="44.55853" lon="6.18215">
        <ele>932.5</ele>
        <time>2022-09-11T09:56:57Z</time>
      </trkpt>
      <trkpt lat="44.55854" lon="6.18226">
        <ele>932.2</ele>
        <time>2022-09-11T09:56:58Z</time>
      </trkpt>
      <trkpt lat="44.55855" lon="6.18238">
        <ele>931.9</ele>
        <time>2022-09-11T09:56:59Z</time>
      </trkpt>
      <trkpt lat="44.55857" lon="6.18249">
        <ele>931.6</ele>
        <time>2022-09-11T09:57:00Z</time>
      </trkpt>
      <trkpt lat="44.55859" lon="6.18261">
        <ele>931.3</ele>
        <time>2022-09-11T09:57:01Z</time>
      </trkpt>
      <trkpt lat="44.55861" lon="6.18272">
        <ele>931</ele>
        <time>2022-09-11T09:57:02Z</time>
      </trkpt>
      <trkpt lat="44.55863" lon="6.18284">
        <ele>930.7</ele>
        <time>2022-09-11T09:57:03Z</time>
      </trkpt>
      <trkpt lat="44.55865" lon="6.18295">
        <ele>930.4</ele>
        <time>2022-09-11T09:57:04Z</time>
      </trkpt>
      <trkpt lat="44.55866" lon="6.18307">
        <ele>930.1</ele>
        <time>2022-09-11T09:57:05Z</time>
      </trkpt>
      <trkpt lat="44.55866" lon="6.1832">
        <ele>929.8</ele>
        <time>2022-09-11T09:57:06Z</time>
      </trkpt>
      <trkpt lat="44.55866" lon="6.18332">
        <ele>929.5</ele>
        <time>2022-09-11T09:57:07Z</time>
      </trkpt>
      <trkpt lat="44.55865" lon="6.18344">
        <ele>929.2</ele>
        <time>2022-09-11T09:57:08Z</time>
      </trkpt>
      <trkpt lat="44.55865" lon="6.18355">
        <ele>928.9</ele>
        <time>2022-09-11T09:57:09Z</time>
      </trkpt>
      <trkpt lat="44.55865" lon="6.18366">
        <ele>928.7</ele>
        <time>2022-09-11T09:57:10Z</time>
      </trkpt>
      <trkpt lat="44.55864" lon="6.18377">
        <ele>928.3</ele>
        <time>2022-09-11T09:57:11Z</time>
      </trkpt>
      <trkpt lat="44.55864" lon="6.18389">
        <ele>928</ele>
        <time>2022-09-11T09:57:12Z</time>
      </trkpt>
      <trkpt lat="44.55863" lon="6.18401">
        <ele>927.7</ele>
        <time>2022-09-11T09:57:13Z</time>
      </trkpt>
      <trkpt lat="44.55863" lon="6.18412">
        <ele>927.2</ele>
        <time>2022-09-11T09:57:14Z</time>
      </trkpt>
      <trkpt lat="44.55863" lon="6.18424">
        <ele>926.7</ele>
        <time>2022-09-11T09:57:15Z</time>
      </trkpt>
      <trkpt lat="44.55864" lon="6.18435">
        <ele>926.2</ele>
        <time>2022-09-11T09:57:16Z</time>
      </trkpt>
      <trkpt lat="44.55864" lon="6.18447">
        <ele>925.7</ele>
        <time>2022-09-11T09:57:17Z</time>
      </trkpt>
      <trkpt lat="44.55865" lon="6.18458">
        <ele>925.2</ele>
        <time>2022-09-11T09:57:18Z</time>
      </trkpt>
      <trkpt lat="44.55866" lon="6.1847">
        <ele>924.8</ele>
        <time>2022-09-11T09:57:19Z</time>
      </trkpt>
      <trkpt lat="44.55867" lon="6.18482">
        <ele>924.3</ele>
        <time>2022-09-11T09:57:20Z</time>
      </trkpt>
      <trkpt lat="44.55868" lon="6.18495">
        <ele>923.8</ele>
        <time>2022-09-11T09:57:21Z</time>
      </trkpt>
      <trkpt lat="44.55869" lon="6.18507">
        <ele>923.3</ele>
        <time>2022-09-11T09:57:22Z</time>
      </trkpt>
      <trkpt lat="44.55869" lon="6.1852">
        <ele>922.7</ele>
        <time>2022-09-11T09:57:23Z</time>
      </trkpt>
      <trkpt lat="44.55869" lon="6.18533">
        <ele>922</ele>
        <time>2022-09-11T09:57:24Z</time>
      </trkpt>
      <trkpt lat="44.55869" lon="6.18546">
        <ele>921.3</ele>
        <time>2022-09-11T09:57:25Z</time>
      </trkpt>
      <trkpt lat="44.55869" lon="6.18559">
        <ele>920.6</ele>
        <time>2022-09-11T09:57:26Z</time>
      </trkpt>
      <trkpt lat="44.55868" lon="6.18573">
        <ele>919.8</ele>
        <time>2022-09-11T09:57:27Z</time>
      </trkpt>
      <trkpt lat="44.55868" lon="6.18587">
        <ele>919.1</ele>
        <time>2022-09-11T09:57:28Z</time>
      </trkpt>
      <trkpt lat="44.55867" lon="6.18602">
        <ele>918.4</ele>
        <time>2022-09-11T09:57:29Z</time>
      </trkpt>
      <trkpt lat="44.55867" lon="6.18616">
        <ele>917.7</ele>
        <time>2022-09-11T09:57:30Z</time>
      </trkpt>
      <trkpt lat="44.55866" lon="6.18631">
        <ele>917</ele>
        <time>2022-09-11T09:57:31Z</time>
      </trkpt>
      <trkpt lat="44.55865" lon="6.18646">
        <ele>916.4</ele>
        <time>2022-09-11T09:57:32Z</time>
      </trkpt>
      <trkpt lat="44.55864" lon="6.1866">
        <ele>915.9</ele>
        <time>2022-09-11T09:57:33Z</time>
      </trkpt>
      <trkpt lat="44.55861" lon="6.18675">
        <ele>915.4</ele>
        <time>2022-09-11T09:57:34Z</time>
      </trkpt>
      <trkpt lat="44.55859" lon="6.18689">
        <ele>915</ele>
        <time>2022-09-11T09:57:35Z</time>
      </trkpt>
      <trkpt lat="44.55856" lon="6.18702">
        <ele>914.5</ele>
        <time>2022-09-11T09:57:36Z</time>
      </trkpt>
      <trkpt lat="44.55854" lon="6.18714">
        <ele>914</ele>
        <time>2022-09-11T09:57:37Z</time>
      </trkpt>
      <trkpt lat="44.55853" lon="6.18725">
        <ele>913.6</ele>
        <time>2022-09-11T09:57:38Z</time>
      </trkpt>
      <trkpt lat="44.55852" lon="6.18734">
        <ele>913.1</ele>
        <time>2022-09-11T09:57:39Z</time>
      </trkpt>
      <trkpt lat="44.55852" lon="6.18741">
        <ele>912.8</ele>
        <time>2022-09-11T09:57:40Z</time>
      </trkpt>
      <trkpt lat="44.55853" lon="6.18746">
        <ele>912.5</ele>
        <time>2022-09-11T09:57:41Z</time>
      </trkpt>
      <trkpt lat="44.55853" lon="6.18748">
        <ele>912.4</ele>
        <time>2022-09-11T09:57:42Z</time>
      </trkpt>
      <trkpt lat="44.55854" lon="6.18749">
        <ele>912.3</ele>
        <time>2022-09-11T09:57:43Z</time>
      </trkpt>
      <trkpt lat="44.55854" lon="6.1875">
        <ele>912.3</ele>
        <time>2022-09-11T09:57:44Z</time>
      </trkpt>
      <trkpt lat="44.55855" lon="6.1875">
        <ele>912.2</ele>
        <time>2022-09-11T09:57:45Z</time>
      </trkpt>
      <trkpt lat="44.55855" lon="6.18751">
        <ele>912.2</ele>
        <time>2022-09-11T09:57:46Z</time>
      </trkpt>
      <trkpt lat="44.55855" lon="6.18751">
        <ele>912.2</ele>
        <time>2022-09-11T09:57:47Z</time>
      </trkpt>
      <trkpt lat="44.55855" lon="6.18752">
        <ele>912.1</ele>
        <time>2022-09-11T09:57:48Z</time>
      </trkpt>
      <trkpt lat="44.55855" lon="6.18752">
        <ele>912.1</ele>
        <time>2022-09-11T09:57:49Z</time>
      </trkpt>
      <trkpt lat="44.55855" lon="6.18753">
        <ele>912.1</ele>
        <time>2022-09-11T09:57:50Z</time>
      </trkpt>
      <trkpt lat="44.55856" lon="6.18753">
        <ele>912.1</ele>
        <time>2022-09-11T09:57:51Z</time>
      </trkpt>
      <trkpt lat="44.55856" lon="6.18754">
        <ele>912</ele>
        <time>2022-09-11T09:57:52Z</time>
      </trkpt>
      <trkpt lat="44.55856" lon="6.18754">
        <ele>912</ele>
        <time>2022-09-11T09:57:53Z</time>
      </trkpt>
      <trkpt lat="44.55856" lon="6.18755">
        <ele>912</ele>
        <time>2022-09-11T09:57:54Z</time>
      </trkpt>
      <trkpt lat="44.55856" lon="6.18755">
        <ele>911.9</ele>
        <time>2022-09-11T09:57:55Z</time>
      </trkpt>
      <trkpt lat="44.55856" lon="6.18756">
        <ele>911.9</ele>
        <time>2022-09-11T09:57:56Z</time>
      </trkpt>
      <trkpt lat="44.55857" lon="6.18756">
        <ele>911.9</ele>
        <time>2022-09-11T09:57:57Z</time>
      </trkpt>
      <trkpt lat="44.55857" lon="6.18757">
        <ele>911.8</ele>
        <time>2022-09-11T09:57:58Z</time>
      </trkpt>
      <trkpt lat="44.55857" lon="6.18757">
        <ele>911.8</ele>
        <time>2022-09-11T09:57:59Z</time>
      </trkpt>
      <trkpt lat="44.55857" lon="6.18758">
        <ele>911.8</ele>
        <time>2022-09-11T09:58:00Z</time>
      </trkpt>
      <trkpt lat="44.55857" lon="6.18758">
        <ele>911.8</ele>
        <time>2022-09-11T09:58:01Z</time>
      </trkpt>
      <trkpt lat="44.55857" lon="6.18759">
        <ele>911.7</ele>
        <time>2022-09-11T09:58:02Z</time>
      </trkpt>
      <trkpt lat="44.55858" lon="6.18759">
        <ele>911.7</ele>
        <time>2022-09-11T10:00:24Z</time>
      </trkpt>
      <trkpt lat="44.55858" lon="6.1876">
        <ele>911.7</ele>
        <time>2022-09-11T10:00:25Z</time>
      </trkpt>
      <trkpt lat="44.55858" lon="6.1876">
        <ele>911.6</ele>
        <time>2022-09-11T10:00:26Z</time>
      </trkpt>
      <trkpt lat="44.55858" lon="6.18763">
        <ele>911.5</ele>
        <time>2022-09-11T10:00:27Z</time>
      </trkpt>
      <trkpt lat="44.55858" lon="6.18765">
        <ele>911.4</ele>
        <time>2022-09-11T10:00:28Z</time>
      </trkpt>
      <trkpt lat="44.55859" lon="6.18765">
        <ele>911.3</ele>
        <time>2022-09-11T10:00:29Z</time>
      </trkpt>
      <trkpt lat="44.55859" lon="6.18766">
        <ele>911.3</ele>
        <time>2022-09-11T10:00:30Z</time>
      </trkpt>
      <trkpt lat="44.5586" lon="6.18767">
        <ele>911.2</ele>
        <time>2022-09-11T10:00:31Z</time>
      </trkpt>
      <trkpt lat="44.5586" lon="6.18767">
        <ele>911.2</ele>
        <time>2022-09-11T10:00:32Z</time>
      </trkpt>
      <trkpt lat="44.5586" lon="6.18768">
        <ele>911.1</ele>
        <time>2022-09-11T10:00:33Z</time>
      </trkpt>
      <trkpt lat="44.55861" lon="6.18768">
        <ele>911.1</ele>
        <time>2022-09-11T10:00:34Z</time>
      </trkpt>
      <trkpt lat="44.55861" lon="6.18769">
        <ele>911</ele>
        <time>2022-09-11T10:00:35Z</time>
      </trkpt>
      <trkpt lat="44.55861" lon="6.1877">
        <ele>911</ele>
        <time>2022-09-11T10:00:36Z</time>
      </trkpt>
      <trkpt lat="44.55862" lon="6.1877">
        <ele>911</ele>
        <time>2022-09-11T10:00:37Z</time>
      </trkpt>
      <trkpt lat="44.55862" lon="6.18771">
        <ele>910.9</ele>
        <time>2022-09-11T10:00:38Z</time>
      </trkpt>
      <trkpt lat="44.55862" lon="6.18771">
        <ele>910.9</ele>
        <time>2022-09-11T10:00:39Z</time>
      </trkpt>
      <trkpt lat="44.55863" lon="6.18772">
        <ele>910.8</ele>
        <time>2022-09-11T10:00:57Z</time>
      </trkpt>
      <trkpt lat="44.55863" lon="6.18772">
        <ele>910.8</ele>
        <time>2022-09-11T10:00:58Z</time>
      </trkpt>
      <trkpt lat="44.55863" lon="6.18773">
        <ele>910.8</ele>
        <time>2022-09-11T10:00:59Z</time>
      </trkpt>
      <trkpt lat="44.55866" lon="6.18778">
        <ele>910.4</ele>
        <time>2022-09-11T10:01:00Z</time>
      </trkpt>
      <trkpt lat="44.55868" lon="6.18783">
        <ele>910.1</ele>
        <time>2022-09-11T10:01:01Z</time>
      </trkpt>
      <trkpt lat="44.55874" lon="6.18794">
        <ele>909.4</ele>
        <time>2022-09-11T10:01:03Z</time>
      </trkpt>
      <trkpt lat="44.55877" lon="6.188">
        <ele>909</ele>
        <time>2022-09-11T10:01:04Z</time>
      </trkpt>
      <trkpt lat="44.5588" lon="6.18808">
        <ele>908.6</ele>
        <time>2022-09-11T10:01:05Z</time>
      </trkpt>
      <trkpt lat="44.55883" lon="6.18816">
        <ele>908.2</ele>
        <time>2022-09-11T10:01:06Z</time>
      </trkpt>
      <trkpt lat="44.55886" lon="6.18824">
        <ele>907.7</ele>
        <time>2022-09-11T10:01:07Z</time>
      </trkpt>
      <trkpt lat="44.5589" lon="6.18833">
        <ele>907.2</ele>
        <time>2022-09-11T10:01:08Z</time>
      </trkpt>
      <trkpt lat="44.55894" lon="6.18842">
        <ele>906.7</ele>
        <time>2022-09-11T10:01:09Z</time>
      </trkpt>
      <trkpt lat="44.55897" lon="6.18852">
        <ele>906.1</ele>
        <time>2022-09-11T10:01:10Z</time>
      </trkpt>
      <trkpt lat="44.55899" lon="6.18863">
        <ele>905.4</ele>
        <time>2022-09-11T10:01:11Z</time>
      </trkpt>
      <trkpt lat="44.55899" lon="6.18875">
        <ele>904.7</ele>
        <time>2022-09-11T10:01:12Z</time>
      </trkpt>
      <trkpt lat="44.55897" lon="6.18888">
        <ele>903.9</ele>
        <time>2022-09-11T10:01:13Z</time>
      </trkpt>
      <trkpt lat="44.55895" lon="6.18901">
        <ele>903</ele>
        <time>2022-09-11T10:01:14Z</time>
      </trkpt>
      <trkpt lat="44.55894" lon="6.18914">
        <ele>902</ele>
        <time>2022-09-11T10:01:15Z</time>
      </trkpt>
      <trkpt lat="44.55893" lon="6.18928">
        <ele>901</ele>
        <time>2022-09-11T10:01:16Z</time>
      </trkpt>
      <trkpt lat="44.55892" lon="6.18943">
        <ele>900</ele>
        <time>2022-09-11T10:01:17Z</time>
      </trkpt>
      <trkpt lat="44.55892" lon="6.18958">
        <ele>899</ele>
        <time>2022-09-11T10:01:18Z</time>
      </trkpt>
      <trkpt lat="44.55892" lon="6.18973">
        <ele>898</ele>
        <time>2022-09-11T10:01:19Z</time>
      </trkpt>
      <trkpt lat="44.55893" lon="6.18989">
        <ele>897</ele>
        <time>2022-09-11T10:01:20Z</time>
      </trkpt>
      <trkpt lat="44.55894" lon="6.19005">
        <ele>896.2</ele>
        <time>2022-09-11T10:01:21Z</time>
      </trkpt>
      <trkpt lat="44.55896" lon="6.1902">
        <ele>895.3</ele>
        <time>2022-09-11T10:01:22Z</time>
      </trkpt>
      <trkpt lat="44.55897" lon="6.19036">
        <ele>894.4</ele>
        <time>2022-09-11T10:01:23Z</time>
      </trkpt>
      <trkpt lat="44.55898" lon="6.19051">
        <ele>893.4</ele>
        <time>2022-09-11T10:01:24Z</time>
      </trkpt>
      <trkpt lat="44.55899" lon="6.19067">
        <ele>892.3</ele>
        <time>2022-09-11T10:01:25Z</time>
      </trkpt>
      <trkpt lat="44.559" lon="6.19083">
        <ele>891.2</ele>
        <time>2022-09-11T10:01:26Z</time>
      </trkpt>
      <trkpt lat="44.559" lon="6.19099">
        <ele>890</ele>
        <time>2022-09-11T10:01:27Z</time>
      </trkpt>
      <trkpt lat="44.559" lon="6.19116">
        <ele>888.7</ele>
        <time>2022-09-11T10:01:28Z</time>
      </trkpt>
      <trkpt lat="44.559" lon="6.19133">
        <ele>887.4</ele>
        <time>2022-09-11T10:01:29Z</time>
      </trkpt>
      <trkpt lat="44.559" lon="6.1915">
        <ele>886.2</ele>
        <time>2022-09-11T10:01:30Z</time>
      </trkpt>
      <trkpt lat="44.559" lon="6.19167">
        <ele>885</ele>
        <time>2022-09-11T10:01:31Z</time>
      </trkpt>
      <trkpt lat="44.559" lon="6.19184">
        <ele>883.8</ele>
        <time>2022-09-11T10:01:32Z</time>
      </trkpt>
      <trkpt lat="44.55901" lon="6.19201">
        <ele>882.6</ele>
        <time>2022-09-11T10:01:33Z</time>
      </trkpt>
      <trkpt lat="44.55903" lon="6.19216">
        <ele>881.4</ele>
        <time>2022-09-11T10:01:34Z</time>
      </trkpt>
      <trkpt lat="44.55905" lon="6.19231">
        <ele>880.2</ele>
        <time>2022-09-11T10:01:35Z</time>
      </trkpt>
      <trkpt lat="44.55907" lon="6.19246">
        <ele>879</ele>
        <time>2022-09-11T10:01:36Z</time>
      </trkpt>
      <trkpt lat="44.55909" lon="6.19262">
        <ele>877.7</ele>
        <time>2022-09-11T10:01:37Z</time>
      </trkpt>
      <trkpt lat="44.55912" lon="6.19278">
        <ele>876.4</ele>
        <time>2022-09-11T10:01:38Z</time>
      </trkpt>
      <trkpt lat="44.55913" lon="6.19295">
        <ele>875.1</ele>
        <time>2022-09-11T10:01:39Z</time>
      </trkpt>
      <trkpt lat="44.55914" lon="6.19311">
        <ele>873.8</ele>
        <time>2022-09-11T10:01:40Z</time>
      </trkpt>
      <trkpt lat="44.55916" lon="6.19328">
        <ele>872.4</ele>
        <time>2022-09-11T10:01:41Z</time>
      </trkpt>
      <trkpt lat="44.55918" lon="6.19346">
        <ele>871</ele>
        <time>2022-09-11T10:01:42Z</time>
      </trkpt>
      <trkpt lat="44.5592" lon="6.19363">
        <ele>869.7</ele>
        <time>2022-09-11T10:01:43Z</time>
      </trkpt>
      <trkpt lat="44.55923" lon="6.19381">
        <ele>868.2</ele>
        <time>2022-09-11T10:01:44Z</time>
      </trkpt>
      <trkpt lat="44.55925" lon="6.19398">
        <ele>866.9</ele>
        <time>2022-09-11T10:01:45Z</time>
      </trkpt>
      <trkpt lat="44.55928" lon="6.19416">
        <ele>865.6</ele>
        <time>2022-09-11T10:01:46Z</time>
      </trkpt>
      <trkpt lat="44.55931" lon="6.19434">
        <ele>864.3</ele>
        <time>2022-09-11T10:01:47Z</time>
      </trkpt>
      <trkpt lat="44.55934" lon="6.19451">
        <ele>863.1</ele>
        <time>2022-09-11T10:01:48Z</time>
      </trkpt>
      <trkpt lat="44.55937" lon="6.19469">
        <ele>861.8</ele>
        <time>2022-09-11T10:01:49Z</time>
      </trkpt>
      <trkpt lat="44.5594" lon="6.19487">
        <ele>860.6</ele>
        <time>2022-09-11T10:01:50Z</time>
      </trkpt>
      <trkpt lat="44.55945" lon="6.19504">
        <ele>859.5</ele>
        <time>2022-09-11T10:01:51Z</time>
      </trkpt>
      <trkpt lat="44.5595" lon="6.19521">
        <ele>858.6</ele>
        <time>2022-09-11T10:01:52Z</time>
      </trkpt>
      <trkpt lat="44.55955" lon="6.19537">
        <ele>857.8</ele>
        <time>2022-09-11T10:01:53Z</time>
      </trkpt>
      <trkpt lat="44.5596" lon="6.19553">
        <ele>857.1</ele>
        <time>2022-09-11T10:01:54Z</time>
      </trkpt>
      <trkpt lat="44.55965" lon="6.19568">
        <ele>856.6</ele>
        <time>2022-09-11T10:01:55Z</time>
      </trkpt>
      <trkpt lat="44.55969" lon="6.19582">
        <ele>856.1</ele>
        <time>2022-09-11T10:01:56Z</time>
      </trkpt>
      <trkpt lat="44.55973" lon="6.19594">
        <ele>855.5</ele>
        <time>2022-09-11T10:01:57Z</time>
      </trkpt>
      <trkpt lat="44.55978" lon="6.19605">
        <ele>854.9</ele>
        <time>2022-09-11T10:01:58Z</time>
      </trkpt>
      <trkpt lat="44.55984" lon="6.19615">
        <ele>854.5</ele>
        <time>2022-09-11T10:01:59Z</time>
      </trkpt>
      <trkpt lat="44.55991" lon="6.19623">
        <ele>854.7</ele>
        <time>2022-09-11T10:02:00Z</time>
      </trkpt>
      <trkpt lat="44.55999" lon="6.19629">
        <ele>854.9</ele>
        <time>2022-09-11T10:02:01Z</time>
      </trkpt>
      <trkpt lat="44.56006" lon="6.19634">
        <ele>855</ele>
        <time>2022-09-11T10:02:02Z</time>
      </trkpt>
      <trkpt lat="44.56013" lon="6.19638">
        <ele>855.2</ele>
        <time>2022-09-11T10:02:03Z</time>
      </trkpt>
      <trkpt lat="44.5602" lon="6.19643">
        <ele>855.4</ele>
        <time>2022-09-11T10:02:04Z</time>
      </trkpt>
      <trkpt lat="44.56027" lon="6.19647">
        <ele>855.5</ele>
        <time>2022-09-11T10:02:05Z</time>
      </trkpt>
      <trkpt lat="44.56034" lon="6.19651">
        <ele>855.7</ele>
        <time>2022-09-11T10:02:06Z</time>
      </trkpt>
      <trkpt lat="44.5604" lon="6.19655">
        <ele>855.8</ele>
        <time>2022-09-11T10:02:07Z</time>
      </trkpt>
      <trkpt lat="44.56046" lon="6.1966">
        <ele>855.9</ele>
        <time>2022-09-11T10:02:08Z</time>
      </trkpt>
      <trkpt lat="44.56051" lon="6.19664">
        <ele>856</ele>
        <time>2022-09-11T10:02:09Z</time>
      </trkpt>
      <trkpt lat="44.56057" lon="6.19667">
        <ele>856.1</ele>
        <time>2022-09-11T10:02:10Z</time>
      </trkpt>
      <trkpt lat="44.56062" lon="6.19671">
        <ele>856.2</ele>
        <time>2022-09-11T10:02:11Z</time>
      </trkpt>
      <trkpt lat="44.56069" lon="6.19675">
        <ele>856.2</ele>
        <time>2022-09-11T10:02:12Z</time>
      </trkpt>
      <trkpt lat="44.56074" lon="6.19679">
        <ele>856.3</ele>
        <time>2022-09-11T10:02:13Z</time>
      </trkpt>
      <trkpt lat="44.56079" lon="6.19683">
        <ele>856.3</ele>
        <time>2022-09-11T10:02:14Z</time>
      </trkpt>
      <trkpt lat="44.56085" lon="6.19688">
        <ele>856.3</ele>
        <time>2022-09-11T10:02:15Z</time>
      </trkpt>
      <trkpt lat="44.56091" lon="6.19692">
        <ele>856.3</ele>
        <time>2022-09-11T10:02:16Z</time>
      </trkpt>
      <trkpt lat="44.56096" lon="6.19695">
        <ele>856.3</ele>
        <time>2022-09-11T10:02:17Z</time>
      </trkpt>
      <trkpt lat="44.56102" lon="6.19699">
        <ele>856.3</ele>
        <time>2022-09-11T10:02:18Z</time>
      </trkpt>
      <trkpt lat="44.56107" lon="6.19704">
        <ele>856.2</ele>
        <time>2022-09-11T10:02:19Z</time>
      </trkpt>
      <trkpt lat="44.56113" lon="6.19709">
        <ele>856.1</ele>
        <time>2022-09-11T10:02:20Z</time>
      </trkpt>
      <trkpt lat="44.56119" lon="6.19713">
        <ele>856</ele>
        <time>2022-09-11T10:02:21Z</time>
      </trkpt>
      <trkpt lat="44.56124" lon="6.19717">
        <ele>855.9</ele>
        <time>2022-09-11T10:02:22Z</time>
      </trkpt>
      <trkpt lat="44.5613" lon="6.19721">
        <ele>855.8</ele>
        <time>2022-09-11T10:02:23Z</time>
      </trkpt>
      <trkpt lat="44.56136" lon="6.19725">
        <ele>855.7</ele>
        <time>2022-09-11T10:02:24Z</time>
      </trkpt>
      <trkpt lat="44.56142" lon="6.1973">
        <ele>855.6</ele>
        <time>2022-09-11T10:02:25Z</time>
      </trkpt>
      <trkpt lat="44.56147" lon="6.19735">
        <ele>855.4</ele>
        <time>2022-09-11T10:02:26Z</time>
      </trkpt>
      <trkpt lat="44.56153" lon="6.1974">
        <ele>855.3</ele>
        <time>2022-09-11T10:02:27Z</time>
      </trkpt>
      <trkpt lat="44.56158" lon="6.19746">
        <ele>855</ele>
        <time>2022-09-11T10:02:28Z</time>
      </trkpt>
      <trkpt lat="44.56163" lon="6.19753">
        <ele>854.7</ele>
        <time>2022-09-11T10:02:29Z</time>
      </trkpt>
      <trkpt lat="44.56168" lon="6.19759">
        <ele>854.5</ele>
        <time>2022-09-11T10:02:30Z</time>
      </trkpt>
      <trkpt lat="44.56174" lon="6.19766">
        <ele>854.2</ele>
        <time>2022-09-11T10:02:31Z</time>
      </trkpt>
      <trkpt lat="44.5618" lon="6.19773">
        <ele>853.9</ele>
        <time>2022-09-11T10:02:32Z</time>
      </trkpt>
      <trkpt lat="44.56186" lon="6.19779">
        <ele>853.6</ele>
        <time>2022-09-11T10:02:33Z</time>
      </trkpt>
      <trkpt lat="44.56193" lon="6.19783">
        <ele>853.4</ele>
        <time>2022-09-11T10:02:34Z</time>
      </trkpt>
      <trkpt lat="44.56201" lon="6.19786">
        <ele>853.3</ele>
        <time>2022-09-11T10:02:35Z</time>
      </trkpt>
      <trkpt lat="44.56209" lon="6.19788">
        <ele>853.3</ele>
        <time>2022-09-11T10:02:36Z</time>
      </trkpt>
      <trkpt lat="44.56216" lon="6.19789">
        <ele>853.3</ele>
        <time>2022-09-11T10:02:37Z</time>
      </trkpt>
      <trkpt lat="44.56223" lon="6.1979">
        <ele>853.3</ele>
        <time>2022-09-11T10:02:38Z</time>
      </trkpt>
      <trkpt lat="44.5623" lon="6.19792">
        <ele>853.2</ele>
        <time>2022-09-11T10:02:39Z</time>
      </trkpt>
      <trkpt lat="44.56237" lon="6.19793">
        <ele>853.2</ele>
        <time>2022-09-11T10:02:40Z</time>
      </trkpt>
      <trkpt lat="44.56244" lon="6.19796">
        <ele>853.2</ele>
        <time>2022-09-11T10:02:41Z</time>
      </trkpt>
      <trkpt lat="44.5625" lon="6.19798">
        <ele>853.2</ele>
        <time>2022-09-11T10:02:42Z</time>
      </trkpt>
      <trkpt lat="44.56257" lon="6.198">
        <ele>853.2</ele>
        <time>2022-09-11T10:02:43Z</time>
      </trkpt>
      <trkpt lat="44.56262" lon="6.19802">
        <ele>853.2</ele>
        <time>2022-09-11T10:02:44Z</time>
      </trkpt>
      <trkpt lat="44.56267" lon="6.19804">
        <ele>853.2</ele>
        <time>2022-09-11T10:02:45Z</time>
      </trkpt>
      <trkpt lat="44.56269" lon="6.19805">
        <ele>853.3</ele>
        <time>2022-09-11T10:02:46Z</time>
      </trkpt>
      <trkpt lat="44.5627" lon="6.19806">
        <ele>853.3</ele>
        <time>2022-09-11T10:02:47Z</time>
      </trkpt>
      <trkpt lat="44.56272" lon="6.19807">
        <ele>853.3</ele>
        <time>2022-09-11T10:02:48Z</time>
      </trkpt>
      <trkpt lat="44.56273" lon="6.19808">
        <ele>853.3</ele>
        <time>2022-09-11T10:02:49Z</time>
      </trkpt>
      <trkpt lat="44.56274" lon="6.19811">
        <ele>853.4</ele>
        <time>2022-09-11T10:02:50Z</time>
      </trkpt>
      <trkpt lat="44.56275" lon="6.19812">
        <ele>853.4</ele>
        <time>2022-09-11T10:02:51Z</time>
      </trkpt>
      <trkpt lat="44.56276" lon="6.19814">
        <ele>853.4</ele>
        <time>2022-09-11T10:02:52Z</time>
      </trkpt>
      <trkpt lat="44.56278" lon="6.19813">
        <ele>853.4</ele>
        <time>2022-09-11T10:02:53Z</time>
      </trkpt>
      <trkpt lat="44.5628" lon="6.1981">
        <ele>853.5</ele>
        <time>2022-09-11T10:02:54Z</time>
      </trkpt>
      <trkpt lat="44.56284" lon="6.19805">
        <ele>853.7</ele>
        <time>2022-09-11T10:02:55Z</time>
      </trkpt>
      <trkpt lat="44.56286" lon="6.19803">
        <ele>853.8</ele>
        <time>2022-09-11T10:02:56Z</time>
      </trkpt>
      <trkpt lat="44.56289" lon="6.198">
        <ele>853.9</ele>
        <time>2022-09-11T10:02:58Z</time>
      </trkpt>
      <trkpt lat="44.56291" lon="6.19796">
        <ele>854</ele>
        <time>2022-09-11T10:02:59Z</time>
      </trkpt>
      <trkpt lat="44.56293" lon="6.19792">
        <ele>854.1</ele>
        <time>2022-09-11T10:03:00Z</time>
      </trkpt>
      <trkpt lat="44.56295" lon="6.19788">
        <ele>854.2</ele>
        <time>2022-09-11T10:03:01Z</time>
      </trkpt>
      <trkpt lat="44.56297" lon="6.19782">
        <ele>854.3</ele>
        <time>2022-09-11T10:03:02Z</time>
      </trkpt>
      <trkpt lat="44.56299" lon="6.19778">
        <ele>854.5</ele>
        <time>2022-09-11T10:03:04Z</time>
      </trkpt>
      <trkpt lat="44.56301" lon="6.19774">
        <ele>854.6</ele>
        <time>2022-09-11T10:03:05Z</time>
      </trkpt>
      <trkpt lat="44.56302" lon="6.1977">
        <ele>854.7</ele>
        <time>2022-09-11T10:03:06Z</time>
      </trkpt>
      <trkpt lat="44.56304" lon="6.19766">
        <ele>854.8</ele>
        <time>2022-09-11T10:03:07Z</time>
      </trkpt>
      <trkpt lat="44.56304" lon="6.19761">
        <ele>854.9</ele>
        <time>2022-09-11T10:03:08Z</time>
      </trkpt>
      <trkpt lat="44.56306" lon="6.19756">
        <ele>855</ele>
        <time>2022-09-11T10:03:09Z</time>
      </trkpt>
      <trkpt lat="44.56307" lon="6.1975">
        <ele>855.2</ele>
        <time>2022-09-11T10:03:10Z</time>
      </trkpt>
      <trkpt lat="44.56308" lon="6.19744">
        <ele>855.3</ele>
        <time>2022-09-11T10:03:11Z</time>
      </trkpt>
      <trkpt lat="44.5631" lon="6.19738">
        <ele>855.4</ele>
        <time>2022-09-11T10:03:12Z</time>
      </trkpt>
      <trkpt lat="44.5631" lon="6.19733">
        <ele>855.5</ele>
        <time>2022-09-11T10:03:14Z</time>
      </trkpt>
      <trkpt lat="44.56311" lon="6.19726">
        <ele>855.7</ele>
        <time>2022-09-11T10:03:15Z</time>
      </trkpt>
      <trkpt lat="44.56312" lon="6.1972">
        <ele>855.9</ele>
        <time>2022-09-11T10:03:16Z</time>
      </trkpt>
      <trkpt lat="44.56314" lon="6.19713">
        <ele>856.1</ele>
        <time>2022-09-11T10:03:17Z</time>
      </trkpt>
      <trkpt lat="44.56315" lon="6.19708">
        <ele>856.3</ele>
        <time>2022-09-11T10:03:19Z</time>
      </trkpt>
      <trkpt lat="44.56317" lon="6.19703">
        <ele>856.4</ele>
        <time>2022-09-11T10:03:20Z</time>
      </trkpt>
      <trkpt lat="44.56319" lon="6.19698">
        <ele>856.6</ele>
        <time>2022-09-11T10:03:21Z</time>
      </trkpt>
      <trkpt lat="44.56321" lon="6.19695">
        <ele>856.7</ele>
        <time>2022-09-11T10:03:22Z</time>
      </trkpt>
      <trkpt lat="44.56325" lon="6.19694">
        <ele>857</ele>
        <time>2022-09-11T10:03:23Z</time>
      </trkpt>
      <trkpt lat="44.56329" lon="6.19694">
        <ele>857</ele>
        <time>2022-09-11T10:03:24Z</time>
      </trkpt>
      <trkpt lat="44.56332" lon="6.19697">
        <ele>857</ele>
        <time>2022-09-11T10:03:25Z</time>
      </trkpt>
      <trkpt lat="44.56335" lon="6.19699">
        <ele>857</ele>
        <time>2022-09-11T10:03:26Z</time>
      </trkpt>
      <trkpt lat="44.56338" lon="6.19701">
        <ele>857</ele>
        <time>2022-09-11T10:03:27Z</time>
      </trkpt>
      <trkpt lat="44.56341" lon="6.19703">
        <ele>857</ele>
        <time>2022-09-11T10:03:28Z</time>
      </trkpt>
      <trkpt lat="44.56344" lon="6.1971">
        <ele>857.1</ele>
        <time>2022-09-11T10:03:29Z</time>
      </trkpt>
      <trkpt lat="44.56346" lon="6.1972">
        <ele>857</ele>
        <time>2022-09-11T10:03:31Z</time>
      </trkpt>
      <trkpt lat="44.56345" lon="6.19728">
        <ele>857</ele>
        <time>2022-09-11T10:03:32Z</time>
      </trkpt>
      <trkpt lat="44.5634" lon="6.19741">
        <ele>857</ele>
        <time>2022-09-11T10:03:34Z</time>
      </trkpt>
      <trkpt lat="44.56338" lon="6.19747">
        <ele>856.9</ele>
        <time>2022-09-11T10:03:35Z</time>
      </trkpt>
      <trkpt lat="44.56335" lon="6.19753">
        <ele>856.9</ele>
        <time>2022-09-11T10:03:36Z</time>
      </trkpt>
      <trkpt lat="44.56333" lon="6.19759">
        <ele>856.9</ele>
        <time>2022-09-11T10:03:37Z</time>
      </trkpt>
      <trkpt lat="44.56331" lon="6.19765">
        <ele>856.9</ele>
        <time>2022-09-11T10:03:38Z</time>
      </trkpt>
      <trkpt lat="44.56329" lon="6.19772">
        <ele>856.9</ele>
        <time>2022-09-11T10:03:39Z</time>
      </trkpt>
      <trkpt lat="44.56327" lon="6.19779">
        <ele>856.9</ele>
        <time>2022-09-11T10:03:40Z</time>
      </trkpt>
      <trkpt lat="44.56326" lon="6.19785">
        <ele>857</ele>
        <time>2022-09-11T10:03:41Z</time>
      </trkpt>
      <trkpt lat="44.56325" lon="6.19792">
        <ele>857.1</ele>
        <time>2022-09-11T10:03:42Z</time>
      </trkpt>
      <trkpt lat="44.56325" lon="6.19799">
        <ele>857.1</ele>
        <time>2022-09-11T10:03:43Z</time>
      </trkpt>
      <trkpt lat="44.56328" lon="6.19804">
        <ele>857.2</ele>
        <time>2022-09-11T10:03:44Z</time>
      </trkpt>
      <trkpt lat="44.56332" lon="6.19808">
        <ele>857.3</ele>
        <time>2022-09-11T10:03:45Z</time>
      </trkpt>
      <trkpt lat="44.56337" lon="6.1981">
        <ele>857.4</ele>
        <time>2022-09-11T10:03:46Z</time>
      </trkpt>
      <trkpt lat="44.56342" lon="6.1981">
        <ele>857.4</ele>
        <time>2022-09-11T10:03:47Z</time>
      </trkpt>
      <trkpt lat="44.56345" lon="6.19811">
        <ele>857.5</ele>
        <time>2022-09-11T10:03:48Z</time>
      </trkpt>
      <trkpt lat="44.5635" lon="6.19812">
        <ele>857.5</ele>
        <time>2022-09-11T10:03:49Z</time>
      </trkpt>
      <trkpt lat="44.56352" lon="6.19812">
        <ele>857.5</ele>
        <time>2022-09-11T10:03:50Z</time>
      </trkpt>
      <trkpt lat="44.56356" lon="6.19813">
        <ele>857.6</ele>
        <time>2022-09-11T10:03:51Z</time>
      </trkpt>
      <trkpt lat="44.5636" lon="6.19813">
        <ele>857.6</ele>
        <time>2022-09-11T10:03:52Z</time>
      </trkpt>
      <trkpt lat="44.56365" lon="6.19814">
        <ele>857.7</ele>
        <time>2022-09-11T10:03:53Z</time>
      </trkpt>
      <trkpt lat="44.56371" lon="6.19815">
        <ele>857.9</ele>
        <time>2022-09-11T10:03:54Z</time>
      </trkpt>
      <trkpt lat="44.56375" lon="6.19816">
        <ele>858</ele>
        <time>2022-09-11T10:03:55Z</time>
      </trkpt>
      <trkpt lat="44.5638" lon="6.19817">
        <ele>858.1</ele>
        <time>2022-09-11T10:03:57Z</time>
      </trkpt>
      <trkpt lat="44.56384" lon="6.19818">
        <ele>858.2</ele>
        <time>2022-09-11T10:03:58Z</time>
      </trkpt>
      <trkpt lat="44.56388" lon="6.19818">
        <ele>858.4</ele>
        <time>2022-09-11T10:03:59Z</time>
      </trkpt>
      <trkpt lat="44.56392" lon="6.19818">
        <ele>858.5</ele>
        <time>2022-09-11T10:04:00Z</time>
      </trkpt>
      <trkpt lat="44.56395" lon="6.19819">
        <ele>858.6</ele>
        <time>2022-09-11T10:04:01Z</time>
      </trkpt>
      <trkpt lat="44.56399" lon="6.1982">
        <ele>858.6</ele>
        <time>2022-09-11T10:04:02Z</time>
      </trkpt>
      <trkpt lat="44.56402" lon="6.19822">
        <ele>858.7</ele>
        <time>2022-09-11T10:04:03Z</time>
      </trkpt>
      <trkpt lat="44.56407" lon="6.19825">
        <ele>858.7</ele>
        <time>2022-09-11T10:04:05Z</time>
      </trkpt>
      <trkpt lat="44.5641" lon="6.19827">
        <ele>858.8</ele>
        <time>2022-09-11T10:04:06Z</time>
      </trkpt>
      <trkpt lat="44.56416" lon="6.1983">
        <ele>858.8</ele>
        <time>2022-09-11T10:04:07Z</time>
      </trkpt>
      <trkpt lat="44.56422" lon="6.19833">
        <ele>858.8</ele>
        <time>2022-09-11T10:04:09Z</time>
      </trkpt>
      <trkpt lat="44.5643" lon="6.19838">
        <ele>858.8</ele>
        <time>2022-09-11T10:04:10Z</time>
      </trkpt>
      <trkpt lat="44.56435" lon="6.1984">
        <ele>858.8</ele>
        <time>2022-09-11T10:04:11Z</time>
      </trkpt>
      <trkpt lat="44.5644" lon="6.19842">
        <ele>858.8</ele>
        <time>2022-09-11T10:04:12Z</time>
      </trkpt>
      <trkpt lat="44.56446" lon="6.19844">
        <ele>858.8</ele>
        <time>2022-09-11T10:04:13Z</time>
      </trkpt>
      <trkpt lat="44.56452" lon="6.19845">
        <ele>858.8</ele>
        <time>2022-09-11T10:04:14Z</time>
      </trkpt>
      <trkpt lat="44.56457" lon="6.19845">
        <ele>858.9</ele>
        <time>2022-09-11T10:04:15Z</time>
      </trkpt>
      <trkpt lat="44.56461" lon="6.19846">
        <ele>858.9</ele>
        <time>2022-09-11T10:04:16Z</time>
      </trkpt>
      <trkpt lat="44.56466" lon="6.19846">
        <ele>859</ele>
        <time>2022-09-11T10:04:17Z</time>
      </trkpt>
      <trkpt lat="44.56471" lon="6.19843">
        <ele>859.1</ele>
        <time>2022-09-11T10:04:19Z</time>
      </trkpt>
      <trkpt lat="44.56474" lon="6.19845">
        <ele>859.2</ele>
        <time>2022-09-11T10:04:20Z</time>
      </trkpt>
      <trkpt lat="44.56477" lon="6.19845">
        <ele>859.2</ele>
        <time>2022-09-11T10:04:22Z</time>
      </trkpt>
      <trkpt lat="44.5648" lon="6.19841">
        <ele>859.2</ele>
        <time>2022-09-11T10:04:24Z</time>
      </trkpt>
      <trkpt lat="44.5648" lon="6.19837">
        <ele>859.1</ele>
        <time>2022-09-11T10:04:25Z</time>
      </trkpt>
      <trkpt lat="44.56481" lon="6.19831">
        <ele>859.1</ele>
        <time>2022-09-11T10:04:26Z</time>
      </trkpt>
      <trkpt lat="44.56481" lon="6.19826">
        <ele>859.1</ele>
        <time>2022-09-11T10:04:27Z</time>
      </trkpt>
      <trkpt lat="44.56482" lon="6.1982">
        <ele>859</ele>
        <time>2022-09-11T10:04:28Z</time>
      </trkpt>
      <trkpt lat="44.56484" lon="6.19808">
        <ele>859</ele>
        <time>2022-09-11T10:04:29Z</time>
      </trkpt>
      <trkpt lat="44.56487" lon="6.19799">
        <ele>858.9</ele>
        <time>2022-09-11T10:04:31Z</time>
      </trkpt>
      <trkpt lat="44.56488" lon="6.19793">
        <ele>858.9</ele>
        <time>2022-09-11T10:04:32Z</time>
      </trkpt>
      <trkpt lat="44.5649" lon="6.19786">
        <ele>858.8</ele>
        <time>2022-09-11T10:04:33Z</time>
      </trkpt>
      <trkpt lat="44.56492" lon="6.1978">
        <ele>858.8</ele>
        <time>2022-09-11T10:04:34Z</time>
      </trkpt>
      <trkpt lat="44.56495" lon="6.19775">
        <ele>858.8</ele>
        <time>2022-09-11T10:04:35Z</time>
      </trkpt>
      <trkpt lat="44.56498" lon="6.19769">
        <ele>858.8</ele>
        <time>2022-09-11T10:04:36Z</time>
      </trkpt>
      <trkpt lat="44.56502" lon="6.19764">
        <ele>858.7</ele>
        <time>2022-09-11T10:04:37Z</time>
      </trkpt>
      <trkpt lat="44.56505" lon="6.19759">
        <ele>858.7</ele>
        <time>2022-09-11T10:04:38Z</time>
      </trkpt>
      <trkpt lat="44.56508" lon="6.19754">
        <ele>858.7</ele>
        <time>2022-09-11T10:04:39Z</time>
      </trkpt>
      <trkpt lat="44.56511" lon="6.19749">
        <ele>858.7</ele>
        <time>2022-09-11T10:04:40Z</time>
      </trkpt>
      <trkpt lat="44.56514" lon="6.19743">
        <ele>858.7</ele>
        <time>2022-09-11T10:04:41Z</time>
      </trkpt>
      <trkpt lat="44.56518" lon="6.19737">
        <ele>858.6</ele>
        <time>2022-09-11T10:04:42Z</time>
      </trkpt>
      <trkpt lat="44.56521" lon="6.19732">
        <ele>858.6</ele>
        <time>2022-09-11T10:04:43Z</time>
      </trkpt>
      <trkpt lat="44.56525" lon="6.19727">
        <ele>858.6</ele>
        <time>2022-09-11T10:04:44Z</time>
      </trkpt>
      <trkpt lat="44.56528" lon="6.19722">
        <ele>858.6</ele>
        <time>2022-09-11T10:04:45Z</time>
      </trkpt>
      <trkpt lat="44.56532" lon="6.19717">
        <ele>858.6</ele>
        <time>2022-09-11T10:04:46Z</time>
      </trkpt>
      <trkpt lat="44.56535" lon="6.19712">
        <ele>858.6</ele>
        <time>2022-09-11T10:04:47Z</time>
      </trkpt>
      <trkpt lat="44.56539" lon="6.19706">
        <ele>858.6</ele>
        <time>2022-09-11T10:04:48Z</time>
      </trkpt>
      <trkpt lat="44.56543" lon="6.197">
        <ele>858.6</ele>
        <time>2022-09-11T10:04:49Z</time>
      </trkpt>
      <trkpt lat="44.56546" lon="6.19693">
        <ele>858.5</ele>
        <time>2022-09-11T10:04:50Z</time>
      </trkpt>
      <trkpt lat="44.56549" lon="6.19687">
        <ele>858.5</ele>
        <time>2022-09-11T10:04:51Z</time>
      </trkpt>
      <trkpt lat="44.56553" lon="6.19681">
        <ele>858.5</ele>
        <time>2022-09-11T10:04:52Z</time>
      </trkpt>
      <trkpt lat="44.56557" lon="6.19676">
        <ele>858.5</ele>
        <time>2022-09-11T10:04:53Z</time>
      </trkpt>
      <trkpt lat="44.56562" lon="6.1967">
        <ele>858.5</ele>
        <time>2022-09-11T10:04:54Z</time>
      </trkpt>
      <trkpt lat="44.56566" lon="6.19664">
        <ele>858.4</ele>
        <time>2022-09-11T10:04:55Z</time>
      </trkpt>
      <trkpt lat="44.5657" lon="6.19658">
        <ele>858.4</ele>
        <time>2022-09-11T10:04:56Z</time>
      </trkpt>
      <trkpt lat="44.56575" lon="6.19651">
        <ele>858.4</ele>
        <time>2022-09-11T10:04:57Z</time>
      </trkpt>
      <trkpt lat="44.56579" lon="6.19645">
        <ele>858.3</ele>
        <time>2022-09-11T10:04:58Z</time>
      </trkpt>
      <trkpt lat="44.56583" lon="6.19638">
        <ele>858.3</ele>
        <time>2022-09-11T10:04:59Z</time>
      </trkpt>
      <trkpt lat="44.56587" lon="6.19631">
        <ele>858.3</ele>
        <time>2022-09-11T10:05:00Z</time>
      </trkpt>
      <trkpt lat="44.56591" lon="6.19624">
        <ele>858.3</ele>
        <time>2022-09-11T10:05:01Z</time>
      </trkpt>
      <trkpt lat="44.56595" lon="6.19619">
        <ele>858.3</ele>
        <time>2022-09-11T10:05:02Z</time>
      </trkpt>
      <trkpt lat="44.56599" lon="6.19613">
        <ele>858.2</ele>
        <time>2022-09-11T10:05:03Z</time>
      </trkpt>
      <trkpt lat="44.56603" lon="6.19606">
        <ele>858.2</ele>
        <time>2022-09-11T10:05:04Z</time>
      </trkpt>
      <trkpt lat="44.56605" lon="6.19599">
        <ele>858.2</ele>
        <time>2022-09-11T10:05:05Z</time>
      </trkpt>
      <trkpt lat="44.56607" lon="6.19591">
        <ele>858.2</ele>
        <time>2022-09-11T10:05:06Z</time>
      </trkpt>
      <trkpt lat="44.5661" lon="6.19585">
        <ele>858.2</ele>
        <time>2022-09-11T10:05:07Z</time>
      </trkpt>
      <trkpt lat="44.56614" lon="6.1958">
        <ele>858.2</ele>
        <time>2022-09-11T10:05:08Z</time>
      </trkpt>
      <trkpt lat="44.56619" lon="6.19578">
        <ele>858.1</ele>
        <time>2022-09-11T10:05:09Z</time>
      </trkpt>
      <trkpt lat="44.56625" lon="6.19578">
        <ele>858</ele>
        <time>2022-09-11T10:05:10Z</time>
      </trkpt>
      <trkpt lat="44.56631" lon="6.19579">
        <ele>858</ele>
        <time>2022-09-11T10:05:11Z</time>
      </trkpt>
      <trkpt lat="44.56637" lon="6.19582">
        <ele>857.9</ele>
        <time>2022-09-11T10:05:12Z</time>
      </trkpt>
      <trkpt lat="44.56643" lon="6.19585">
        <ele>857.8</ele>
        <time>2022-09-11T10:05:13Z</time>
      </trkpt>
      <trkpt lat="44.56649" lon="6.19588">
        <ele>857.8</ele>
        <time>2022-09-11T10:05:14Z</time>
      </trkpt>
      <trkpt lat="44.56655" lon="6.1959">
        <ele>857.7</ele>
        <time>2022-09-11T10:05:15Z</time>
      </trkpt>
      <trkpt lat="44.56661" lon="6.19592">
        <ele>857.7</ele>
        <time>2022-09-11T10:05:16Z</time>
      </trkpt>
      <trkpt lat="44.56667" lon="6.19594">
        <ele>857.6</ele>
        <time>2022-09-11T10:05:17Z</time>
      </trkpt>
      <trkpt lat="44.56674" lon="6.19595">
        <ele>857.6</ele>
        <time>2022-09-11T10:05:18Z</time>
      </trkpt>
      <trkpt lat="44.56679" lon="6.19596">
        <ele>857.5</ele>
        <time>2022-09-11T10:05:19Z</time>
      </trkpt>
      <trkpt lat="44.56685" lon="6.19597">
        <ele>857.5</ele>
        <time>2022-09-11T10:05:20Z</time>
      </trkpt>
      <trkpt lat="44.56692" lon="6.19596">
        <ele>857.5</ele>
        <time>2022-09-11T10:05:21Z</time>
      </trkpt>
      <trkpt lat="44.56698" lon="6.19596">
        <ele>857.5</ele>
        <time>2022-09-11T10:05:22Z</time>
      </trkpt>
      <trkpt lat="44.56704" lon="6.19595">
        <ele>857.5</ele>
        <time>2022-09-11T10:05:23Z</time>
      </trkpt>
      <trkpt lat="44.5671" lon="6.19592">
        <ele>857.5</ele>
        <time>2022-09-11T10:05:24Z</time>
      </trkpt>
      <trkpt lat="44.56715" lon="6.19589">
        <ele>857.5</ele>
        <time>2022-09-11T10:05:25Z</time>
      </trkpt>
      <trkpt lat="44.56721" lon="6.19585">
        <ele>857.5</ele>
        <time>2022-09-11T10:05:26Z</time>
      </trkpt>
      <trkpt lat="44.56726" lon="6.1958">
        <ele>857.5</ele>
        <time>2022-09-11T10:05:27Z</time>
      </trkpt>
      <trkpt lat="44.56731" lon="6.19575">
        <ele>857.4</ele>
        <time>2022-09-11T10:05:28Z</time>
      </trkpt>
      <trkpt lat="44.56736" lon="6.19569">
        <ele>857.4</ele>
        <time>2022-09-11T10:05:29Z</time>
      </trkpt>
      <trkpt lat="44.56739" lon="6.19563">
        <ele>857.4</ele>
        <time>2022-09-11T10:05:30Z</time>
      </trkpt>
      <trkpt lat="44.56743" lon="6.19556">
        <ele>857.4</ele>
        <time>2022-09-11T10:05:31Z</time>
      </trkpt>
      <trkpt lat="44.56746" lon="6.19549">
        <ele>857.4</ele>
        <time>2022-09-11T10:05:32Z</time>
      </trkpt>
      <trkpt lat="44.56749" lon="6.19541">
        <ele>857.4</ele>
        <time>2022-09-11T10:05:33Z</time>
      </trkpt>
      <trkpt lat="44.56752" lon="6.19534">
        <ele>857.4</ele>
        <time>2022-09-11T10:05:34Z</time>
      </trkpt>
      <trkpt lat="44.56756" lon="6.19526">
        <ele>857.4</ele>
        <time>2022-09-11T10:05:35Z</time>
      </trkpt>
      <trkpt lat="44.56759" lon="6.19519">
        <ele>857.3</ele>
        <time>2022-09-11T10:05:36Z</time>
      </trkpt>
      <trkpt lat="44.56762" lon="6.19512">
        <ele>857.3</ele>
        <time>2022-09-11T10:05:37Z</time>
      </trkpt>
      <trkpt lat="44.56766" lon="6.19504">
        <ele>857.3</ele>
        <time>2022-09-11T10:05:38Z</time>
      </trkpt>
      <trkpt lat="44.56768" lon="6.19498">
        <ele>857.3</ele>
        <time>2022-09-11T10:05:39Z</time>
      </trkpt>
      <trkpt lat="44.56771" lon="6.19491">
        <ele>857.3</ele>
        <time>2022-09-11T10:05:40Z</time>
      </trkpt>
      <trkpt lat="44.56774" lon="6.19483">
        <ele>857.3</ele>
        <time>2022-09-11T10:05:41Z</time>
      </trkpt>
      <trkpt lat="44.56777" lon="6.19476">
        <ele>857.3</ele>
        <time>2022-09-11T10:05:42Z</time>
      </trkpt>
      <trkpt lat="44.5678" lon="6.19469">
        <ele>857.3</ele>
        <time>2022-09-11T10:05:43Z</time>
      </trkpt>
      <trkpt lat="44.56783" lon="6.19461">
        <ele>857.3</ele>
        <time>2022-09-11T10:05:44Z</time>
      </trkpt>
      <trkpt lat="44.56786" lon="6.19454">
        <ele>857.3</ele>
        <time>2022-09-11T10:05:45Z</time>
      </trkpt>
      <trkpt lat="44.56789" lon="6.19448">
        <ele>857.2</ele>
        <time>2022-09-11T10:05:46Z</time>
      </trkpt>
      <trkpt lat="44.56792" lon="6.19441">
        <ele>857.2</ele>
        <time>2022-09-11T10:05:47Z</time>
      </trkpt>
      <trkpt lat="44.56795" lon="6.19436">
        <ele>857.2</ele>
        <time>2022-09-11T10:05:48Z</time>
      </trkpt>
      <trkpt lat="44.56797" lon="6.19429">
        <ele>857.2</ele>
        <time>2022-09-11T10:05:49Z</time>
      </trkpt>
      <trkpt lat="44.568" lon="6.19422">
        <ele>857.2</ele>
        <time>2022-09-11T10:05:50Z</time>
      </trkpt>
      <trkpt lat="44.56803" lon="6.19415">
        <ele>857.2</ele>
        <time>2022-09-11T10:05:51Z</time>
      </trkpt>
      <trkpt lat="44.56805" lon="6.19408">
        <ele>857.2</ele>
        <time>2022-09-11T10:05:52Z</time>
      </trkpt>
      <trkpt lat="44.56808" lon="6.19401">
        <ele>857.1</ele>
        <time>2022-09-11T10:05:53Z</time>
      </trkpt>
      <trkpt lat="44.56811" lon="6.19394">
        <ele>857.1</ele>
        <time>2022-09-11T10:05:54Z</time>
      </trkpt>
      <trkpt lat="44.56813" lon="6.19388">
        <ele>857</ele>
        <time>2022-09-11T10:05:55Z</time>
      </trkpt>
      <trkpt lat="44.56816" lon="6.19381">
        <ele>857</ele>
        <time>2022-09-11T10:05:56Z</time>
      </trkpt>
      <trkpt lat="44.5682" lon="6.19374">
        <ele>856.9</ele>
        <time>2022-09-11T10:05:57Z</time>
      </trkpt>
      <trkpt lat="44.56823" lon="6.19366">
        <ele>856.8</ele>
        <time>2022-09-11T10:05:58Z</time>
      </trkpt>
      <trkpt lat="44.56826" lon="6.19359">
        <ele>856.7</ele>
        <time>2022-09-11T10:05:59Z</time>
      </trkpt>
      <trkpt lat="44.5683" lon="6.19353">
        <ele>856.6</ele>
        <time>2022-09-11T10:06:00Z</time>
      </trkpt>
      <trkpt lat="44.56833" lon="6.19345">
        <ele>856.5</ele>
        <time>2022-09-11T10:06:01Z</time>
      </trkpt>
      <trkpt lat="44.56837" lon="6.19336">
        <ele>856.4</ele>
        <time>2022-09-11T10:06:02Z</time>
      </trkpt>
      <trkpt lat="44.5684" lon="6.19328">
        <ele>856.3</ele>
        <time>2022-09-11T10:06:03Z</time>
      </trkpt>
      <trkpt lat="44.56844" lon="6.19319">
        <ele>856.2</ele>
        <time>2022-09-11T10:06:04Z</time>
      </trkpt>
      <trkpt lat="44.56847" lon="6.1931">
        <ele>856.1</ele>
        <time>2022-09-11T10:06:05Z</time>
      </trkpt>
      <trkpt lat="44.5685" lon="6.19302">
        <ele>856</ele>
        <time>2022-09-11T10:06:06Z</time>
      </trkpt>
      <trkpt lat="44.56854" lon="6.19294">
        <ele>855.9</ele>
        <time>2022-09-11T10:06:07Z</time>
      </trkpt>
      <trkpt lat="44.56857" lon="6.19285">
        <ele>855.8</ele>
        <time>2022-09-11T10:06:08Z</time>
      </trkpt>
      <trkpt lat="44.5686" lon="6.19277">
        <ele>855.7</ele>
        <time>2022-09-11T10:06:09Z</time>
      </trkpt>
      <trkpt lat="44.56864" lon="6.19267">
        <ele>855.5</ele>
        <time>2022-09-11T10:06:10Z</time>
      </trkpt>
      <trkpt lat="44.56867" lon="6.19258">
        <ele>855.4</ele>
        <time>2022-09-11T10:06:11Z</time>
      </trkpt>
      <trkpt lat="44.56872" lon="6.19249">
        <ele>855.3</ele>
        <time>2022-09-11T10:06:12Z</time>
      </trkpt>
      <trkpt lat="44.56875" lon="6.1924">
        <ele>855.2</ele>
        <time>2022-09-11T10:06:13Z</time>
      </trkpt>
      <trkpt lat="44.56879" lon="6.19231">
        <ele>855.1</ele>
        <time>2022-09-11T10:06:14Z</time>
      </trkpt>
      <trkpt lat="44.56882" lon="6.19221">
        <ele>855</ele>
        <time>2022-09-11T10:06:15Z</time>
      </trkpt>
      <trkpt lat="44.56886" lon="6.19213">
        <ele>854.9</ele>
        <time>2022-09-11T10:06:16Z</time>
      </trkpt>
      <trkpt lat="44.5689" lon="6.19205">
        <ele>854.8</ele>
        <time>2022-09-11T10:06:17Z</time>
      </trkpt>
      <trkpt lat="44.56894" lon="6.19196">
        <ele>854.8</ele>
        <time>2022-09-11T10:06:18Z</time>
      </trkpt>
      <trkpt lat="44.56898" lon="6.19188">
        <ele>854.7</ele>
        <time>2022-09-11T10:06:19Z</time>
      </trkpt>
      <trkpt lat="44.56902" lon="6.19179">
        <ele>854.6</ele>
        <time>2022-09-11T10:06:20Z</time>
      </trkpt>
      <trkpt lat="44.56906" lon="6.19172">
        <ele>854.6</ele>
        <time>2022-09-11T10:06:21Z</time>
      </trkpt>
      <trkpt lat="44.5691" lon="6.19164">
        <ele>854.6</ele>
        <time>2022-09-11T10:06:22Z</time>
      </trkpt>
      <trkpt lat="44.56914" lon="6.19157">
        <ele>854.5</ele>
        <time>2022-09-11T10:06:23Z</time>
      </trkpt>
      <trkpt lat="44.56918" lon="6.1915">
        <ele>854.5</ele>
        <time>2022-09-11T10:06:24Z</time>
      </trkpt>
      <trkpt lat="44.56923" lon="6.19143">
        <ele>854.5</ele>
        <time>2022-09-11T10:06:25Z</time>
      </trkpt>
      <trkpt lat="44.56927" lon="6.19136">
        <ele>854.4</ele>
        <time>2022-09-11T10:06:26Z</time>
      </trkpt>
      <trkpt lat="44.56931" lon="6.19129">
        <ele>854.4</ele>
        <time>2022-09-11T10:06:27Z</time>
      </trkpt>
      <trkpt lat="44.56936" lon="6.19122">
        <ele>854.3</ele>
        <time>2022-09-11T10:06:28Z</time>
      </trkpt>
      <trkpt lat="44.5694" lon="6.19115">
        <ele>854.3</ele>
        <time>2022-09-11T10:06:29Z</time>
      </trkpt>
      <trkpt lat="44.56944" lon="6.19107">
        <ele>854.3</ele>
        <time>2022-09-11T10:06:30Z</time>
      </trkpt>
      <trkpt lat="44.56949" lon="6.191">
        <ele>854.3</ele>
        <time>2022-09-11T10:06:31Z</time>
      </trkpt>
      <trkpt lat="44.56953" lon="6.19092">
        <ele>854.3</ele>
        <time>2022-09-11T10:06:32Z</time>
      </trkpt>
      <trkpt lat="44.56958" lon="6.19085">
        <ele>854.3</ele>
        <time>2022-09-11T10:06:33Z</time>
      </trkpt>
      <trkpt lat="44.56962" lon="6.19078">
        <ele>854.3</ele>
        <time>2022-09-11T10:06:34Z</time>
      </trkpt>
      <trkpt lat="44.56966" lon="6.19071">
        <ele>854.3</ele>
        <time>2022-09-11T10:06:35Z</time>
      </trkpt>
      <trkpt lat="44.56971" lon="6.19065">
        <ele>854.3</ele>
        <time>2022-09-11T10:06:36Z</time>
      </trkpt>
      <trkpt lat="44.56975" lon="6.19058">
        <ele>854.3</ele>
        <time>2022-09-11T10:06:37Z</time>
      </trkpt>
      <trkpt lat="44.56981" lon="6.19052">
        <ele>854.2</ele>
        <time>2022-09-11T10:06:38Z</time>
      </trkpt>
      <trkpt lat="44.56986" lon="6.19047">
        <ele>854.2</ele>
        <time>2022-09-11T10:06:39Z</time>
      </trkpt>
      <trkpt lat="44.56991" lon="6.19043">
        <ele>854.2</ele>
        <time>2022-09-11T10:06:40Z</time>
      </trkpt>
      <trkpt lat="44.56997" lon="6.19038">
        <ele>854.1</ele>
        <time>2022-09-11T10:06:41Z</time>
      </trkpt>
      <trkpt lat="44.57001" lon="6.19034">
        <ele>854.1</ele>
        <time>2022-09-11T10:06:42Z</time>
      </trkpt>
      <trkpt lat="44.57006" lon="6.19029">
        <ele>854.1</ele>
        <time>2022-09-11T10:06:43Z</time>
      </trkpt>
      <trkpt lat="44.57011" lon="6.19024">
        <ele>854.1</ele>
        <time>2022-09-11T10:06:44Z</time>
      </trkpt>
      <trkpt lat="44.57016" lon="6.19018">
        <ele>854.1</ele>
        <time>2022-09-11T10:06:45Z</time>
      </trkpt>
      <trkpt lat="44.57021" lon="6.19013">
        <ele>854.1</ele>
        <time>2022-09-11T10:06:46Z</time>
      </trkpt>
      <trkpt lat="44.57026" lon="6.19008">
        <ele>854.1</ele>
        <time>2022-09-11T10:06:47Z</time>
      </trkpt>
      <trkpt lat="44.57031" lon="6.19003">
        <ele>854.1</ele>
        <time>2022-09-11T10:06:48Z</time>
      </trkpt>
      <trkpt lat="44.57036" lon="6.18997">
        <ele>854</ele>
        <time>2022-09-11T10:06:49Z</time>
      </trkpt>
      <trkpt lat="44.57041" lon="6.18991">
        <ele>854</ele>
        <time>2022-09-11T10:06:50Z</time>
      </trkpt>
      <trkpt lat="44.57045" lon="6.18984">
        <ele>854</ele>
        <time>2022-09-11T10:06:51Z</time>
      </trkpt>
      <trkpt lat="44.5705" lon="6.18978">
        <ele>854</ele>
        <time>2022-09-11T10:06:52Z</time>
      </trkpt>
      <trkpt lat="44.57054" lon="6.18972">
        <ele>854.1</ele>
        <time>2022-09-11T10:06:53Z</time>
      </trkpt>
      <trkpt lat="44.57058" lon="6.18965">
        <ele>854.1</ele>
        <time>2022-09-11T10:06:54Z</time>
      </trkpt>
      <trkpt lat="44.57061" lon="6.18958">
        <ele>854.1</ele>
        <time>2022-09-11T10:06:55Z</time>
      </trkpt>
      <trkpt lat="44.57065" lon="6.18951">
        <ele>854.2</ele>
        <time>2022-09-11T10:06:56Z</time>
      </trkpt>
      <trkpt lat="44.57069" lon="6.18945">
        <ele>854.2</ele>
        <time>2022-09-11T10:06:57Z</time>
      </trkpt>
      <trkpt lat="44.57072" lon="6.18938">
        <ele>854.2</ele>
        <time>2022-09-11T10:06:58Z</time>
      </trkpt>
      <trkpt lat="44.57076" lon="6.18932">
        <ele>854.3</ele>
        <time>2022-09-11T10:06:59Z</time>
      </trkpt>
      <trkpt lat="44.5708" lon="6.18925">
        <ele>854.3</ele>
        <time>2022-09-11T10:07:00Z</time>
      </trkpt>
      <trkpt lat="44.57083" lon="6.18918">
        <ele>854.3</ele>
        <time>2022-09-11T10:07:01Z</time>
      </trkpt>
      <trkpt lat="44.57086" lon="6.18911">
        <ele>854.4</ele>
        <time>2022-09-11T10:07:02Z</time>
      </trkpt>
      <trkpt lat="44.5709" lon="6.18904">
        <ele>854.4</ele>
        <time>2022-09-11T10:07:03Z</time>
      </trkpt>
      <trkpt lat="44.57095" lon="6.18897">
        <ele>854.5</ele>
        <time>2022-09-11T10:07:04Z</time>
      </trkpt>
      <trkpt lat="44.57099" lon="6.1889">
        <ele>854.5</ele>
        <time>2022-09-11T10:07:05Z</time>
      </trkpt>
      <trkpt lat="44.57102" lon="6.18884">
        <ele>854.5</ele>
        <time>2022-09-11T10:07:06Z</time>
      </trkpt>
      <trkpt lat="44.57107" lon="6.18879">
        <ele>854.5</ele>
        <time>2022-09-11T10:07:07Z</time>
      </trkpt>
      <trkpt lat="44.57112" lon="6.18873">
        <ele>854.5</ele>
        <time>2022-09-11T10:07:08Z</time>
      </trkpt>
      <trkpt lat="44.57116" lon="6.18867">
        <ele>854.5</ele>
        <time>2022-09-11T10:07:09Z</time>
      </trkpt>
      <trkpt lat="44.57121" lon="6.18861">
        <ele>854.4</ele>
        <time>2022-09-11T10:07:10Z</time>
      </trkpt>
      <trkpt lat="44.57126" lon="6.18856">
        <ele>854.4</ele>
        <time>2022-09-11T10:07:11Z</time>
      </trkpt>
      <trkpt lat="44.57131" lon="6.18852">
        <ele>854.4</ele>
        <time>2022-09-11T10:07:12Z</time>
      </trkpt>
      <trkpt lat="44.57136" lon="6.18848">
        <ele>854.4</ele>
        <time>2022-09-11T10:07:13Z</time>
      </trkpt>
      <trkpt lat="44.57142" lon="6.18845">
        <ele>854.4</ele>
        <time>2022-09-11T10:07:14Z</time>
      </trkpt>
      <trkpt lat="44.57148" lon="6.18842">
        <ele>854.4</ele>
        <time>2022-09-11T10:07:15Z</time>
      </trkpt>
      <trkpt lat="44.57154" lon="6.18839">
        <ele>854.5</ele>
        <time>2022-09-11T10:07:16Z</time>
      </trkpt>
      <trkpt lat="44.5716" lon="6.18836">
        <ele>854.5</ele>
        <time>2022-09-11T10:07:17Z</time>
      </trkpt>
      <trkpt lat="44.57165" lon="6.18833">
        <ele>854.6</ele>
        <time>2022-09-11T10:07:18Z</time>
      </trkpt>
      <trkpt lat="44.57171" lon="6.18831">
        <ele>854.6</ele>
        <time>2022-09-11T10:07:19Z</time>
      </trkpt>
      <trkpt lat="44.57176" lon="6.18829">
        <ele>854.7</ele>
        <time>2022-09-11T10:07:20Z</time>
      </trkpt>
      <trkpt lat="44.57182" lon="6.18826">
        <ele>854.8</ele>
        <time>2022-09-11T10:07:21Z</time>
      </trkpt>
      <trkpt lat="44.57187" lon="6.18823">
        <ele>854.9</ele>
        <time>2022-09-11T10:07:22Z</time>
      </trkpt>
      <trkpt lat="44.57191" lon="6.1882">
        <ele>855</ele>
        <time>2022-09-11T10:07:23Z</time>
      </trkpt>
      <trkpt lat="44.57196" lon="6.18817">
        <ele>855.2</ele>
        <time>2022-09-11T10:07:24Z</time>
      </trkpt>
      <trkpt lat="44.57201" lon="6.18814">
        <ele>855.3</ele>
        <time>2022-09-11T10:07:25Z</time>
      </trkpt>
      <trkpt lat="44.57205" lon="6.1881">
        <ele>855.5</ele>
        <time>2022-09-11T10:07:26Z</time>
      </trkpt>
      <trkpt lat="44.5721" lon="6.18807">
        <ele>855.7</ele>
        <time>2022-09-11T10:07:27Z</time>
      </trkpt>
      <trkpt lat="44.57214" lon="6.18803">
        <ele>855.8</ele>
        <time>2022-09-11T10:07:28Z</time>
      </trkpt>
      <trkpt lat="44.57217" lon="6.18799">
        <ele>855.9</ele>
        <time>2022-09-11T10:07:29Z</time>
      </trkpt>
      <trkpt lat="44.5722" lon="6.18794">
        <ele>856.1</ele>
        <time>2022-09-11T10:07:30Z</time>
      </trkpt>
      <trkpt lat="44.57222" lon="6.18789">
        <ele>856.2</ele>
        <time>2022-09-11T10:07:31Z</time>
      </trkpt>
      <trkpt lat="44.57224" lon="6.18786">
        <ele>856.2</ele>
        <time>2022-09-11T10:07:32Z</time>
      </trkpt>
      <trkpt lat="44.57227" lon="6.1878">
        <ele>856.3</ele>
        <time>2022-09-11T10:07:33Z</time>
      </trkpt>
      <trkpt lat="44.57229" lon="6.18773">
        <ele>856.4</ele>
        <time>2022-09-11T10:07:34Z</time>
      </trkpt>
      <trkpt lat="44.57231" lon="6.18768">
        <ele>856.5</ele>
        <time>2022-09-11T10:07:35Z</time>
      </trkpt>
      <trkpt lat="44.57234" lon="6.18763">
        <ele>856.5</ele>
        <time>2022-09-11T10:07:36Z</time>
      </trkpt>
      <trkpt lat="44.57235" lon="6.18758">
        <ele>856.6</ele>
        <time>2022-09-11T10:07:37Z</time>
      </trkpt>
      <trkpt lat="44.57236" lon="6.18752">
        <ele>856.7</ele>
        <time>2022-09-11T10:07:38Z</time>
      </trkpt>
      <trkpt lat="44.57236" lon="6.18745">
        <ele>856.7</ele>
        <time>2022-09-11T10:07:39Z</time>
      </trkpt>
      <trkpt lat="44.57236" lon="6.18738">
        <ele>856.8</ele>
        <time>2022-09-11T10:07:40Z</time>
      </trkpt>
      <trkpt lat="44.57236" lon="6.18731">
        <ele>856.9</ele>
        <time>2022-09-11T10:07:41Z</time>
      </trkpt>
      <trkpt lat="44.57236" lon="6.18725">
        <ele>857</ele>
        <time>2022-09-11T10:07:42Z</time>
      </trkpt>
      <trkpt lat="44.57236" lon="6.18718">
        <ele>857.1</ele>
        <time>2022-09-11T10:07:43Z</time>
      </trkpt>
      <trkpt lat="44.57236" lon="6.1871">
        <ele>857.2</ele>
        <time>2022-09-11T10:07:44Z</time>
      </trkpt>
      <trkpt lat="44.57236" lon="6.18704">
        <ele>857.3</ele>
        <time>2022-09-11T10:07:45Z</time>
      </trkpt>
      <trkpt lat="44.57237" lon="6.18698">
        <ele>857.3</ele>
        <time>2022-09-11T10:07:46Z</time>
      </trkpt>
      <trkpt lat="44.57238" lon="6.18691">
        <ele>857.4</ele>
        <time>2022-09-11T10:07:47Z</time>
      </trkpt>
      <trkpt lat="44.57238" lon="6.18684">
        <ele>857.4</ele>
        <time>2022-09-11T10:07:48Z</time>
      </trkpt>
      <trkpt lat="44.57239" lon="6.18677">
        <ele>857.4</ele>
        <time>2022-09-11T10:07:49Z</time>
      </trkpt>
      <trkpt lat="44.5724" lon="6.1867">
        <ele>857.5</ele>
        <time>2022-09-11T10:07:50Z</time>
      </trkpt>
      <trkpt lat="44.57241" lon="6.18663">
        <ele>857.5</ele>
        <time>2022-09-11T10:07:51Z</time>
      </trkpt>
      <trkpt lat="44.57243" lon="6.18656">
        <ele>857.5</ele>
        <time>2022-09-11T10:07:52Z</time>
      </trkpt>
      <trkpt lat="44.57245" lon="6.18649">
        <ele>857.5</ele>
        <time>2022-09-11T10:07:53Z</time>
      </trkpt>
      <trkpt lat="44.57246" lon="6.18642">
        <ele>857.6</ele>
        <time>2022-09-11T10:07:54Z</time>
      </trkpt>
      <trkpt lat="44.57249" lon="6.18636">
        <ele>857.6</ele>
        <time>2022-09-11T10:07:55Z</time>
      </trkpt>
      <trkpt lat="44.57251" lon="6.1863">
        <ele>857.7</ele>
        <time>2022-09-11T10:07:56Z</time>
      </trkpt>
      <trkpt lat="44.57254" lon="6.18623">
        <ele>857.7</ele>
        <time>2022-09-11T10:07:57Z</time>
      </trkpt>
      <trkpt lat="44.57256" lon="6.18616">
        <ele>857.8</ele>
        <time>2022-09-11T10:07:58Z</time>
      </trkpt>
      <trkpt lat="44.57259" lon="6.1861">
        <ele>857.9</ele>
        <time>2022-09-11T10:07:59Z</time>
      </trkpt>
      <trkpt lat="44.57261" lon="6.18605">
        <ele>857.9</ele>
        <time>2022-09-11T10:08:00Z</time>
      </trkpt>
      <trkpt lat="44.57264" lon="6.18599">
        <ele>858</ele>
        <time>2022-09-11T10:08:01Z</time>
      </trkpt>
      <trkpt lat="44.57267" lon="6.18593">
        <ele>858.1</ele>
        <time>2022-09-11T10:08:02Z</time>
      </trkpt>
      <trkpt lat="44.5727" lon="6.18587">
        <ele>858.2</ele>
        <time>2022-09-11T10:08:03Z</time>
      </trkpt>
      <trkpt lat="44.57272" lon="6.1858">
        <ele>858.4</ele>
        <time>2022-09-11T10:08:04Z</time>
      </trkpt>
      <trkpt lat="44.57274" lon="6.18573">
        <ele>858.5</ele>
        <time>2022-09-11T10:08:05Z</time>
      </trkpt>
      <trkpt lat="44.57276" lon="6.18566">
        <ele>858.6</ele>
        <time>2022-09-11T10:08:06Z</time>
      </trkpt>
      <trkpt lat="44.57278" lon="6.1856">
        <ele>858.8</ele>
        <time>2022-09-11T10:08:07Z</time>
      </trkpt>
      <trkpt lat="44.5728" lon="6.18554">
        <ele>859</ele>
        <time>2022-09-11T10:08:08Z</time>
      </trkpt>
      <trkpt lat="44.57281" lon="6.18548">
        <ele>859.2</ele>
        <time>2022-09-11T10:08:09Z</time>
      </trkpt>
      <trkpt lat="44.57283" lon="6.18542">
        <ele>859.4</ele>
        <time>2022-09-11T10:08:10Z</time>
      </trkpt>
      <trkpt lat="44.57284" lon="6.18534">
        <ele>859.7</ele>
        <time>2022-09-11T10:08:11Z</time>
      </trkpt>
      <trkpt lat="44.57285" lon="6.18528">
        <ele>860</ele>
        <time>2022-09-11T10:08:12Z</time>
      </trkpt>
      <trkpt lat="44.57287" lon="6.18521">
        <ele>860.3</ele>
        <time>2022-09-11T10:08:13Z</time>
      </trkpt>
      <trkpt lat="44.57288" lon="6.18517">
        <ele>860.5</ele>
        <time>2022-09-11T10:08:14Z</time>
      </trkpt>
      <trkpt lat="44.57289" lon="6.18512">
        <ele>860.7</ele>
        <time>2022-09-11T10:08:15Z</time>
      </trkpt>
      <trkpt lat="44.57291" lon="6.18507">
        <ele>861</ele>
        <time>2022-09-11T10:08:16Z</time>
      </trkpt>
      <trkpt lat="44.57293" lon="6.18502">
        <ele>861.2</ele>
        <time>2022-09-11T10:08:17Z</time>
      </trkpt>
      <trkpt lat="44.57294" lon="6.18497">
        <ele>861.5</ele>
        <time>2022-09-11T10:08:18Z</time>
      </trkpt>
      <trkpt lat="44.57295" lon="6.18494">
        <ele>861.6</ele>
        <time>2022-09-11T10:08:19Z</time>
      </trkpt>
      <trkpt lat="44.57296" lon="6.1849">
        <ele>861.8</ele>
        <time>2022-09-11T10:08:20Z</time>
      </trkpt>
      <trkpt lat="44.57298" lon="6.18488">
        <ele>862</ele>
        <time>2022-09-11T10:08:21Z</time>
      </trkpt>
      <trkpt lat="44.57299" lon="6.18484">
        <ele>862.2</ele>
        <time>2022-09-11T10:08:22Z</time>
      </trkpt>
      <trkpt lat="44.57299" lon="6.18479">
        <ele>862.5</ele>
        <time>2022-09-11T10:08:23Z</time>
      </trkpt>
      <trkpt lat="44.573" lon="6.18474">
        <ele>862.7</ele>
        <time>2022-09-11T10:08:24Z</time>
      </trkpt>
      <trkpt lat="44.57301" lon="6.1847">
        <ele>863</ele>
        <time>2022-09-11T10:08:25Z</time>
      </trkpt>
      <trkpt lat="44.57302" lon="6.18465">
        <ele>863.2</ele>
        <time>2022-09-11T10:08:26Z</time>
      </trkpt>
      <trkpt lat="44.57303" lon="6.18462">
        <ele>863.3</ele>
        <time>2022-09-11T10:08:27Z</time>
      </trkpt>
      <trkpt lat="44.57304" lon="6.18458">
        <ele>863.3</ele>
        <time>2022-09-11T10:08:28Z</time>
      </trkpt>
      <trkpt lat="44.57305" lon="6.18454">
        <ele>863.4</ele>
        <time>2022-09-11T10:08:29Z</time>
      </trkpt>
      <trkpt lat="44.57306" lon="6.1845">
        <ele>863.4</ele>
        <time>2022-09-11T10:08:30Z</time>
      </trkpt>
      <trkpt lat="44.57309" lon="6.18437">
        <ele>863.8</ele>
        <time>2022-09-11T10:08:32Z</time>
      </trkpt>
      <trkpt lat="44.5731" lon="6.1843">
        <ele>864.1</ele>
        <time>2022-09-11T10:08:34Z</time>
      </trkpt>
      <trkpt lat="44.57311" lon="6.18426">
        <ele>864.3</ele>
        <time>2022-09-11T10:08:35Z</time>
      </trkpt>
      <trkpt lat="44.57313" lon="6.18422">
        <ele>864.5</ele>
        <time>2022-09-11T10:08:37Z</time>
      </trkpt>
      <trkpt lat="44.57314" lon="6.18418">
        <ele>864.7</ele>
        <time>2022-09-11T10:08:38Z</time>
      </trkpt>
      <trkpt lat="44.57315" lon="6.18415">
        <ele>864.9</ele>
        <time>2022-09-11T10:08:39Z</time>
      </trkpt>
      <trkpt lat="44.57316" lon="6.18408">
        <ele>865.2</ele>
        <time>2022-09-11T10:08:40Z</time>
      </trkpt>
      <trkpt lat="44.57318" lon="6.18402">
        <ele>865.5</ele>
        <time>2022-09-11T10:08:42Z</time>
      </trkpt>
      <trkpt lat="44.57319" lon="6.18397">
        <ele>865.8</ele>
        <time>2022-09-11T10:08:44Z</time>
      </trkpt>
      <trkpt lat="44.5732" lon="6.18391">
        <ele>866.1</ele>
        <time>2022-09-11T10:08:45Z</time>
      </trkpt>
      <trkpt lat="44.5732" lon="6.18389">
        <ele>866.2</ele>
        <time>2022-09-11T10:08:46Z</time>
      </trkpt>
      <trkpt lat="44.57321" lon="6.18382">
        <ele>866.5</ele>
        <time>2022-09-11T10:08:47Z</time>
      </trkpt>
      <trkpt lat="44.57322" lon="6.18379">
        <ele>866.7</ele>
        <time>2022-09-11T10:08:49Z</time>
      </trkpt>
      <trkpt lat="44.57323" lon="6.18375">
        <ele>866.9</ele>
        <time>2022-09-11T10:08:50Z</time>
      </trkpt>
      <trkpt lat="44.57323" lon="6.18371">
        <ele>867.1</ele>
        <time>2022-09-11T10:08:51Z</time>
      </trkpt>
      <trkpt lat="44.57325" lon="6.18364">
        <ele>867.4</ele>
        <time>2022-09-11T10:08:52Z</time>
      </trkpt>
      <trkpt lat="44.57327" lon="6.18358">
        <ele>867.8</ele>
        <time>2022-09-11T10:08:54Z</time>
      </trkpt>
      <trkpt lat="44.57328" lon="6.18355">
        <ele>867.9</ele>
        <time>2022-09-11T10:08:55Z</time>
      </trkpt>
      <trkpt lat="44.57328" lon="6.18353">
        <ele>868</ele>
        <time>2022-09-11T10:08:56Z</time>
      </trkpt>
      <trkpt lat="44.57331" lon="6.18348">
        <ele>868.3</ele>
        <time>2022-09-11T10:08:57Z</time>
      </trkpt>
      <trkpt lat="44.57332" lon="6.18345">
        <ele>868.5</ele>
        <time>2022-09-11T10:08:58Z</time>
      </trkpt>
      <trkpt lat="44.57334" lon="6.1834">
        <ele>868.8</ele>
        <time>2022-09-11T10:09:00Z</time>
      </trkpt>
      <trkpt lat="44.57337" lon="6.18336">
        <ele>869.1</ele>
        <time>2022-09-11T10:09:01Z</time>
      </trkpt>
      <trkpt lat="44.5734" lon="6.18332">
        <ele>869.3</ele>
        <time>2022-09-11T10:09:03Z</time>
      </trkpt>
      <trkpt lat="44.57341" lon="6.18331">
        <ele>869.4</ele>
        <time>2022-09-11T10:09:04Z</time>
      </trkpt>
      <trkpt lat="44.57343" lon="6.18327">
        <ele>869.7</ele>
        <time>2022-09-11T10:09:05Z</time>
      </trkpt>
      <trkpt lat="44.57346" lon="6.18323">
        <ele>869.9</ele>
        <time>2022-09-11T10:09:06Z</time>
      </trkpt>
      <trkpt lat="44.57349" lon="6.1832">
        <ele>870.2</ele>
        <time>2022-09-11T10:09:08Z</time>
      </trkpt>
      <trkpt lat="44.5735" lon="6.18319">
        <ele>870.2</ele>
        <time>2022-09-11T10:09:09Z</time>
      </trkpt>
      <trkpt lat="44.57353" lon="6.18315">
        <ele>870.5</ele>
        <time>2022-09-11T10:09:10Z</time>
      </trkpt>
      <trkpt lat="44.57355" lon="6.18313">
        <ele>870.7</ele>
        <time>2022-09-11T10:09:11Z</time>
      </trkpt>
      <trkpt lat="44.57358" lon="6.1831">
        <ele>870.9</ele>
        <time>2022-09-11T10:09:13Z</time>
      </trkpt>
      <trkpt lat="44.57362" lon="6.18305">
        <ele>871.2</ele>
        <time>2022-09-11T10:09:14Z</time>
      </trkpt>
      <trkpt lat="44.57364" lon="6.18302">
        <ele>871.4</ele>
        <time>2022-09-11T10:09:16Z</time>
      </trkpt>
      <trkpt lat="44.57365" lon="6.183">
        <ele>871.5</ele>
        <time>2022-09-11T10:09:17Z</time>
      </trkpt>
      <trkpt lat="44.57367" lon="6.18298">
        <ele>871.6</ele>
        <time>2022-09-11T10:09:18Z</time>
      </trkpt>
      <trkpt lat="44.5737" lon="6.18295">
        <ele>871.8</ele>
        <time>2022-09-11T10:09:19Z</time>
      </trkpt>
      <trkpt lat="44.57372" lon="6.18293">
        <ele>871.9</ele>
        <time>2022-09-11T10:09:20Z</time>
      </trkpt>
      <trkpt lat="44.57375" lon="6.1829">
        <ele>872.2</ele>
        <time>2022-09-11T10:09:21Z</time>
      </trkpt>
      <trkpt lat="44.57376" lon="6.18289">
        <ele>872.2</ele>
        <time>2022-09-11T10:09:22Z</time>
      </trkpt>
      <trkpt lat="44.57379" lon="6.18285">
        <ele>872.4</ele>
        <time>2022-09-11T10:09:23Z</time>
      </trkpt>
      <trkpt lat="44.5738" lon="6.18284">
        <ele>872.5</ele>
        <time>2022-09-11T10:09:24Z</time>
      </trkpt>
      <trkpt lat="44.57383" lon="6.18281">
        <ele>872.7</ele>
        <time>2022-09-11T10:09:25Z</time>
      </trkpt>
      <trkpt lat="44.57385" lon="6.1828">
        <ele>872.8</ele>
        <time>2022-09-11T10:09:26Z</time>
      </trkpt>
      <trkpt lat="44.57388" lon="6.18277">
        <ele>873</ele>
        <time>2022-09-11T10:09:27Z</time>
      </trkpt>
      <trkpt lat="44.5739" lon="6.18275">
        <ele>873.1</ele>
        <time>2022-09-11T10:09:28Z</time>
      </trkpt>
      <trkpt lat="44.57393" lon="6.18272">
        <ele>873.4</ele>
        <time>2022-09-11T10:09:29Z</time>
      </trkpt>
      <trkpt lat="44.57394" lon="6.18271">
        <ele>873.4</ele>
        <time>2022-09-11T10:09:30Z</time>
      </trkpt>
      <trkpt lat="44.57398" lon="6.18268">
        <ele>873.6</ele>
        <time>2022-09-11T10:09:31Z</time>
      </trkpt>
      <trkpt lat="44.57399" lon="6.18267">
        <ele>873.7</ele>
        <time>2022-09-11T10:09:32Z</time>
      </trkpt>
      <trkpt lat="44.57401" lon="6.18264">
        <ele>873.9</ele>
        <time>2022-09-11T10:09:33Z</time>
      </trkpt>
      <trkpt lat="44.57405" lon="6.18261">
        <ele>874.1</ele>
        <time>2022-09-11T10:09:34Z</time>
      </trkpt>
      <trkpt lat="44.5741" lon="6.18258">
        <ele>874.4</ele>
        <time>2022-09-11T10:09:36Z</time>
      </trkpt>
      <trkpt lat="44.57411" lon="6.18256">
        <ele>874.5</ele>
        <time>2022-09-11T10:09:37Z</time>
      </trkpt>
      <trkpt lat="44.57413" lon="6.18255">
        <ele>874.6</ele>
        <time>2022-09-11T10:09:38Z</time>
      </trkpt>
      <trkpt lat="44.57418" lon="6.1825">
        <ele>874.9</ele>
        <time>2022-09-11T10:09:40Z</time>
      </trkpt>
      <trkpt lat="44.57422" lon="6.18247">
        <ele>875.1</ele>
        <time>2022-09-11T10:09:41Z</time>
      </trkpt>
      <trkpt lat="44.57425" lon="6.18244">
        <ele>875.3</ele>
        <time>2022-09-11T10:09:42Z</time>
      </trkpt>
      <trkpt lat="44.57429" lon="6.1824">
        <ele>875.6</ele>
        <time>2022-09-11T10:09:44Z</time>
      </trkpt>
      <trkpt lat="44.5743" lon="6.18239">
        <ele>875.7</ele>
        <time>2022-09-11T10:09:45Z</time>
      </trkpt>
      <trkpt lat="44.57432" lon="6.18237">
        <ele>875.8</ele>
        <time>2022-09-11T10:09:46Z</time>
      </trkpt>
      <trkpt lat="44.57435" lon="6.18235">
        <ele>876</ele>
        <time>2022-09-11T10:09:47Z</time>
      </trkpt>
      <trkpt lat="44.57439" lon="6.18231">
        <ele>876.3</ele>
        <time>2022-09-11T10:09:49Z</time>
      </trkpt>
      <trkpt lat="44.57442" lon="6.18227">
        <ele>876.5</ele>
        <time>2022-09-11T10:09:50Z</time>
      </trkpt>
      <trkpt lat="44.57444" lon="6.18226">
        <ele>876.6</ele>
        <time>2022-09-11T10:09:51Z</time>
      </trkpt>
      <trkpt lat="44.57448" lon="6.18221">
        <ele>876.9</ele>
        <time>2022-09-11T10:09:53Z</time>
      </trkpt>
      <trkpt lat="44.5745" lon="6.18218">
        <ele>877.1</ele>
        <time>2022-09-11T10:09:54Z</time>
      </trkpt>
      <trkpt lat="44.57452" lon="6.18215">
        <ele>877.2</ele>
        <time>2022-09-11T10:09:55Z</time>
      </trkpt>
      <trkpt lat="44.57454" lon="6.18212">
        <ele>877.4</ele>
        <time>2022-09-11T10:09:56Z</time>
      </trkpt>
      <trkpt lat="44.57456" lon="6.18209">
        <ele>877.6</ele>
        <time>2022-09-11T10:09:57Z</time>
      </trkpt>
      <trkpt lat="44.57457" lon="6.18206">
        <ele>877.8</ele>
        <time>2022-09-11T10:09:58Z</time>
      </trkpt>
      <trkpt lat="44.57459" lon="6.18201">
        <ele>878</ele>
        <time>2022-09-11T10:09:59Z</time>
      </trkpt>
      <trkpt lat="44.57461" lon="6.18197">
        <ele>878.2</ele>
        <time>2022-09-11T10:10:00Z</time>
      </trkpt>
      <trkpt lat="44.57465" lon="6.18191">
        <ele>878.6</ele>
        <time>2022-09-11T10:10:02Z</time>
      </trkpt>
      <trkpt lat="44.57466" lon="6.18187">
        <ele>878.7</ele>
        <time>2022-09-11T10:10:03Z</time>
      </trkpt>
      <trkpt lat="44.57469" lon="6.18182">
        <ele>879</ele>
        <time>2022-09-11T10:10:05Z</time>
      </trkpt>
      <trkpt lat="44.5747" lon="6.1818">
        <ele>879.1</ele>
        <time>2022-09-11T10:10:06Z</time>
      </trkpt>
      <trkpt lat="44.57471" lon="6.18178">
        <ele>879.3</ele>
        <time>2022-09-11T10:10:07Z</time>
      </trkpt>
      <trkpt lat="44.57474" lon="6.18174">
        <ele>879.5</ele>
        <time>2022-09-11T10:10:08Z</time>
      </trkpt>
      <trkpt lat="44.57475" lon="6.18173">
        <ele>879.6</ele>
        <time>2022-09-11T10:10:09Z</time>
      </trkpt>
      <trkpt lat="44.57477" lon="6.18167">
        <ele>879.9</ele>
        <time>2022-09-11T10:10:10Z</time>
      </trkpt>
      <trkpt lat="44.57479" lon="6.18163">
        <ele>880.1</ele>
        <time>2022-09-11T10:10:12Z</time>
      </trkpt>
      <trkpt lat="44.5748" lon="6.18161">
        <ele>880.2</ele>
        <time>2022-09-11T10:10:13Z</time>
      </trkpt>
      <trkpt lat="44.57482" lon="6.18157">
        <ele>880.5</ele>
        <time>2022-09-11T10:10:14Z</time>
      </trkpt>
      <trkpt lat="44.57483" lon="6.18156">
        <ele>880.6</ele>
        <time>2022-09-11T10:10:15Z</time>
      </trkpt>
      <trkpt lat="44.57485" lon="6.18152">
        <ele>880.8</ele>
        <time>2022-09-11T10:10:16Z</time>
      </trkpt>
      <trkpt lat="44.57486" lon="6.1815">
        <ele>880.9</ele>
        <time>2022-09-11T10:10:17Z</time>
      </trkpt>
      <trkpt lat="44.57488" lon="6.18146">
        <ele>881.1</ele>
        <time>2022-09-11T10:10:18Z</time>
      </trkpt>
      <trkpt lat="44.57489" lon="6.18144">
        <ele>881.2</ele>
        <time>2022-09-11T10:10:19Z</time>
      </trkpt>
      <trkpt lat="44.57491" lon="6.18141">
        <ele>881.4</ele>
        <time>2022-09-11T10:10:20Z</time>
      </trkpt>
      <trkpt lat="44.57493" lon="6.18138">
        <ele>881.6</ele>
        <time>2022-09-11T10:10:21Z</time>
      </trkpt>
      <trkpt lat="44.57495" lon="6.18135">
        <ele>881.8</ele>
        <time>2022-09-11T10:10:22Z</time>
      </trkpt>
      <trkpt lat="44.57497" lon="6.18131">
        <ele>881.9</ele>
        <time>2022-09-11T10:10:23Z</time>
      </trkpt>
      <trkpt lat="44.57499" lon="6.18129">
        <ele>882.1</ele>
        <time>2022-09-11T10:10:24Z</time>
      </trkpt>
      <trkpt lat="44.57501" lon="6.18126">
        <ele>882.3</ele>
        <time>2022-09-11T10:10:25Z</time>
      </trkpt>
      <trkpt lat="44.57503" lon="6.18123">
        <ele>882.5</ele>
        <time>2022-09-11T10:10:26Z</time>
      </trkpt>
      <trkpt lat="44.57506" lon="6.18119">
        <ele>882.7</ele>
        <time>2022-09-11T10:10:27Z</time>
      </trkpt>
      <trkpt lat="44.57508" lon="6.18118">
        <ele>882.8</ele>
        <time>2022-09-11T10:10:28Z</time>
      </trkpt>
      <trkpt lat="44.5751" lon="6.18115">
        <ele>883</ele>
        <time>2022-09-11T10:10:29Z</time>
      </trkpt>
      <trkpt lat="44.57513" lon="6.18112">
        <ele>883.2</ele>
        <time>2022-09-11T10:10:30Z</time>
      </trkpt>
      <trkpt lat="44.57514" lon="6.1811">
        <ele>883.3</ele>
        <time>2022-09-11T10:10:31Z</time>
      </trkpt>
      <trkpt lat="44.57516" lon="6.18108">
        <ele>883.5</ele>
        <time>2022-09-11T10:10:32Z</time>
      </trkpt>
      <trkpt lat="44.57519" lon="6.18106">
        <ele>883.7</ele>
        <time>2022-09-11T10:10:33Z</time>
      </trkpt>
      <trkpt lat="44.57521" lon="6.18103">
        <ele>883.9</ele>
        <time>2022-09-11T10:10:34Z</time>
      </trkpt>
      <trkpt lat="44.57524" lon="6.18102">
        <ele>884</ele>
        <time>2022-09-11T10:10:35Z</time>
      </trkpt>
      <trkpt lat="44.57527" lon="6.18101">
        <ele>884.2</ele>
        <time>2022-09-11T10:10:36Z</time>
      </trkpt>
      <trkpt lat="44.57529" lon="6.18099">
        <ele>884.4</ele>
        <time>2022-09-11T10:10:37Z</time>
      </trkpt>
      <trkpt lat="44.57532" lon="6.18097">
        <ele>884.5</ele>
        <time>2022-09-11T10:10:38Z</time>
      </trkpt>
      <trkpt lat="44.57534" lon="6.18094">
        <ele>884.7</ele>
        <time>2022-09-11T10:10:39Z</time>
      </trkpt>
      <trkpt lat="44.57538" lon="6.18091">
        <ele>884.9</ele>
        <time>2022-09-11T10:10:41Z</time>
      </trkpt>
      <trkpt lat="44.57543" lon="6.18088">
        <ele>885.2</ele>
        <time>2022-09-11T10:10:42Z</time>
      </trkpt>
      <trkpt lat="44.57546" lon="6.18086">
        <ele>885.4</ele>
        <time>2022-09-11T10:10:44Z</time>
      </trkpt>
      <trkpt lat="44.57549" lon="6.18083">
        <ele>885.6</ele>
        <time>2022-09-11T10:10:45Z</time>
      </trkpt>
      <trkpt lat="44.57552" lon="6.1808">
        <ele>885.8</ele>
        <time>2022-09-11T10:10:46Z</time>
      </trkpt>
      <trkpt lat="44.57556" lon="6.18077">
        <ele>886</ele>
        <time>2022-09-11T10:10:48Z</time>
      </trkpt>
      <trkpt lat="44.57559" lon="6.18074">
        <ele>886.2</ele>
        <time>2022-09-11T10:10:49Z</time>
      </trkpt>
      <trkpt lat="44.57563" lon="6.18069">
        <ele>886.5</ele>
        <time>2022-09-11T10:10:50Z</time>
      </trkpt>
      <trkpt lat="44.57565" lon="6.18066">
        <ele>886.6</ele>
        <time>2022-09-11T10:10:52Z</time>
      </trkpt>
      <trkpt lat="44.5757" lon="6.18059">
        <ele>887</ele>
        <time>2022-09-11T10:10:54Z</time>
      </trkpt>
      <trkpt lat="44.57574" lon="6.18053">
        <ele>887.3</ele>
        <time>2022-09-11T10:10:55Z</time>
      </trkpt>
      <trkpt lat="44.57577" lon="6.1805">
        <ele>887.5</ele>
        <time>2022-09-11T10:10:56Z</time>
      </trkpt>
      <trkpt lat="44.57579" lon="6.18047">
        <ele>887.7</ele>
        <time>2022-09-11T10:10:58Z</time>
      </trkpt>
      <trkpt lat="44.57582" lon="6.18044">
        <ele>887.9</ele>
        <time>2022-09-11T10:10:59Z</time>
      </trkpt>
      <trkpt lat="44.57584" lon="6.18041">
        <ele>888.1</ele>
        <time>2022-09-11T10:11:00Z</time>
      </trkpt>
      <trkpt lat="44.57586" lon="6.18038">
        <ele>888.3</ele>
        <time>2022-09-11T10:11:01Z</time>
      </trkpt>
      <trkpt lat="44.57588" lon="6.18035">
        <ele>888.4</ele>
        <time>2022-09-11T10:11:02Z</time>
      </trkpt>
      <trkpt lat="44.57592" lon="6.1803">
        <ele>888.7</ele>
        <time>2022-09-11T10:11:03Z</time>
      </trkpt>
      <trkpt lat="44.57596" lon="6.18026">
        <ele>889</ele>
        <time>2022-09-11T10:11:05Z</time>
      </trkpt>
      <trkpt lat="44.57597" lon="6.18024">
        <ele>889.1</ele>
        <time>2022-09-11T10:11:06Z</time>
      </trkpt>
      <trkpt lat="44.57599" lon="6.18023">
        <ele>889.2</ele>
        <time>2022-09-11T10:11:07Z</time>
      </trkpt>
      <trkpt lat="44.57601" lon="6.1802">
        <ele>889.4</ele>
        <time>2022-09-11T10:11:08Z</time>
      </trkpt>
      <trkpt lat="44.57603" lon="6.18017">
        <ele>889.6</ele>
        <time>2022-09-11T10:11:09Z</time>
      </trkpt>
      <trkpt lat="44.57605" lon="6.18014">
        <ele>889.7</ele>
        <time>2022-09-11T10:11:10Z</time>
      </trkpt>
      <trkpt lat="44.57608" lon="6.18011">
        <ele>889.9</ele>
        <time>2022-09-11T10:11:11Z</time>
      </trkpt>
      <trkpt lat="44.57609" lon="6.1801">
        <ele>890</ele>
        <time>2022-09-11T10:11:12Z</time>
      </trkpt>
      <trkpt lat="44.57612" lon="6.18007">
        <ele>890.1</ele>
        <time>2022-09-11T10:11:13Z</time>
      </trkpt>
      <trkpt lat="44.57615" lon="6.18004">
        <ele>890.4</ele>
        <time>2022-09-11T10:11:14Z</time>
      </trkpt>
      <trkpt lat="44.57618" lon="6.18">
        <ele>890.6</ele>
        <time>2022-09-11T10:11:16Z</time>
      </trkpt>
      <trkpt lat="44.57621" lon="6.17998">
        <ele>890.8</ele>
        <time>2022-09-11T10:11:17Z</time>
      </trkpt>
      <trkpt lat="44.57625" lon="6.17993">
        <ele>891.1</ele>
        <time>2022-09-11T10:11:18Z</time>
      </trkpt>
      <trkpt lat="44.57627" lon="6.17991">
        <ele>891.3</ele>
        <time>2022-09-11T10:11:19Z</time>
      </trkpt>
      <trkpt lat="44.5763" lon="6.17989">
        <ele>891.5</ele>
        <time>2022-09-11T10:11:20Z</time>
      </trkpt>
      <trkpt lat="44.57633" lon="6.17987">
        <ele>891.7</ele>
        <time>2022-09-11T10:11:22Z</time>
      </trkpt>
      <trkpt lat="44.57636" lon="6.17986">
        <ele>891.8</ele>
        <time>2022-09-11T10:11:23Z</time>
      </trkpt>
      <trkpt lat="44.57638" lon="6.17984">
        <ele>892</ele>
        <time>2022-09-11T10:11:24Z</time>
      </trkpt>
      <trkpt lat="44.57641" lon="6.17982">
        <ele>892.2</ele>
        <time>2022-09-11T10:11:25Z</time>
      </trkpt>
      <trkpt lat="44.57643" lon="6.17981">
        <ele>892.4</ele>
        <time>2022-09-11T10:11:26Z</time>
      </trkpt>
      <trkpt lat="44.57647" lon="6.17978">
        <ele>892.6</ele>
        <time>2022-09-11T10:11:27Z</time>
      </trkpt>
      <trkpt lat="44.57648" lon="6.17977">
        <ele>892.7</ele>
        <time>2022-09-11T10:11:28Z</time>
      </trkpt>
      <trkpt lat="44.57651" lon="6.17975">
        <ele>892.9</ele>
        <time>2022-09-11T10:11:29Z</time>
      </trkpt>
      <trkpt lat="44.57656" lon="6.17973">
        <ele>893.2</ele>
        <time>2022-09-11T10:11:30Z</time>
      </trkpt>
      <trkpt lat="44.57659" lon="6.1797">
        <ele>893.4</ele>
        <time>2022-09-11T10:11:32Z</time>
      </trkpt>
      <trkpt lat="44.57662" lon="6.17969">
        <ele>893.6</ele>
        <time>2022-09-11T10:11:33Z</time>
      </trkpt>
      <trkpt lat="44.57665" lon="6.17968">
        <ele>893.8</ele>
        <time>2022-09-11T10:11:34Z</time>
      </trkpt>
      <trkpt lat="44.57669" lon="6.17966">
        <ele>894.1</ele>
        <time>2022-09-11T10:11:35Z</time>
      </trkpt>
      <trkpt lat="44.5767" lon="6.17965">
        <ele>894.2</ele>
        <time>2022-09-11T10:11:36Z</time>
      </trkpt>
      <trkpt lat="44.57674" lon="6.17963">
        <ele>894.4</ele>
        <time>2022-09-11T10:11:37Z</time>
      </trkpt>
      <trkpt lat="44.57675" lon="6.17962">
        <ele>894.5</ele>
        <time>2022-09-11T10:11:38Z</time>
      </trkpt>
      <trkpt lat="44.5768" lon="6.17959">
        <ele>894.8</ele>
        <time>2022-09-11T10:11:40Z</time>
      </trkpt>
      <trkpt lat="44.57684" lon="6.17956">
        <ele>895.1</ele>
        <time>2022-09-11T10:11:41Z</time>
      </trkpt>
      <trkpt lat="44.57687" lon="6.17955">
        <ele>895.3</ele>
        <time>2022-09-11T10:11:42Z</time>
      </trkpt>
      <trkpt lat="44.5769" lon="6.17953">
        <ele>895.5</ele>
        <time>2022-09-11T10:11:43Z</time>
      </trkpt>
      <trkpt lat="44.57694" lon="6.17951">
        <ele>895.7</ele>
        <time>2022-09-11T10:11:45Z</time>
      </trkpt>
      <trkpt lat="44.57699" lon="6.17949">
        <ele>896</ele>
        <time>2022-09-11T10:11:46Z</time>
      </trkpt>
      <trkpt lat="44.57705" lon="6.17947">
        <ele>896.3</ele>
        <time>2022-09-11T10:11:48Z</time>
      </trkpt>
      <trkpt lat="44.57708" lon="6.17946">
        <ele>896.5</ele>
        <time>2022-09-11T10:11:49Z</time>
      </trkpt>
      <trkpt lat="44.57711" lon="6.17946">
        <ele>896.7</ele>
        <time>2022-09-11T10:11:51Z</time>
      </trkpt>
      <trkpt lat="44.57714" lon="6.17945">
        <ele>896.8</ele>
        <time>2022-09-11T10:11:52Z</time>
      </trkpt>
      <trkpt lat="44.57717" lon="6.17944">
        <ele>897</ele>
        <time>2022-09-11T10:11:53Z</time>
      </trkpt>
      <trkpt lat="44.5772" lon="6.17944">
        <ele>897.1</ele>
        <time>2022-09-11T10:11:54Z</time>
      </trkpt>
      <trkpt lat="44.57723" lon="6.17943">
        <ele>897.3</ele>
        <time>2022-09-11T10:11:55Z</time>
      </trkpt>
      <trkpt lat="44.57727" lon="6.17943">
        <ele>897.4</ele>
        <time>2022-09-11T10:11:56Z</time>
      </trkpt>
      <trkpt lat="44.5773" lon="6.17942">
        <ele>897.6</ele>
        <time>2022-09-11T10:11:57Z</time>
      </trkpt>
      <trkpt lat="44.57733" lon="6.17942">
        <ele>897.7</ele>
        <time>2022-09-11T10:11:58Z</time>
      </trkpt>
      <trkpt lat="44.57736" lon="6.17941">
        <ele>897.9</ele>
        <time>2022-09-11T10:11:59Z</time>
      </trkpt>
      <trkpt lat="44.5774" lon="6.1794">
        <ele>898.1</ele>
        <time>2022-09-11T10:12:00Z</time>
      </trkpt>
      <trkpt lat="44.57743" lon="6.1794">
        <ele>898.2</ele>
        <time>2022-09-11T10:12:01Z</time>
      </trkpt>
      <trkpt lat="44.57746" lon="6.17939">
        <ele>898.4</ele>
        <time>2022-09-11T10:12:02Z</time>
      </trkpt>
      <trkpt lat="44.5775" lon="6.17939">
        <ele>898.5</ele>
        <time>2022-09-11T10:12:03Z</time>
      </trkpt>
      <trkpt lat="44.57753" lon="6.17938">
        <ele>898.6</ele>
        <time>2022-09-11T10:12:04Z</time>
      </trkpt>
      <trkpt lat="44.57756" lon="6.17938">
        <ele>898.8</ele>
        <time>2022-09-11T10:12:05Z</time>
      </trkpt>
      <trkpt lat="44.57759" lon="6.17938">
        <ele>898.9</ele>
        <time>2022-09-11T10:12:06Z</time>
      </trkpt>
      <trkpt lat="44.57763" lon="6.17937">
        <ele>899</ele>
        <time>2022-09-11T10:12:07Z</time>
      </trkpt>
      <trkpt lat="44.57766" lon="6.17937">
        <ele>899.1</ele>
        <time>2022-09-11T10:12:08Z</time>
      </trkpt>
      <trkpt lat="44.57773" lon="6.17937">
        <ele>899.4</ele>
        <time>2022-09-11T10:12:09Z</time>
      </trkpt>
      <trkpt lat="44.57777" lon="6.17936">
        <ele>899.5</ele>
        <time>2022-09-11T10:12:11Z</time>
      </trkpt>
      <trkpt lat="44.5778" lon="6.17936">
        <ele>899.6</ele>
        <time>2022-09-11T10:12:12Z</time>
      </trkpt>
      <trkpt lat="44.57783" lon="6.17936">
        <ele>899.7</ele>
        <time>2022-09-11T10:12:13Z</time>
      </trkpt>
      <trkpt lat="44.57789" lon="6.17934">
        <ele>899.8</ele>
        <time>2022-09-11T10:12:14Z</time>
      </trkpt>
      <trkpt lat="44.57792" lon="6.17931">
        <ele>900</ele>
        <time>2022-09-11T10:12:16Z</time>
      </trkpt>
      <trkpt lat="44.57796" lon="6.17928">
        <ele>900.1</ele>
        <time>2022-09-11T10:12:17Z</time>
      </trkpt>
      <trkpt lat="44.578" lon="6.17925">
        <ele>900.2</ele>
        <time>2022-09-11T10:12:18Z</time>
      </trkpt>
      <trkpt lat="44.57802" lon="6.17922">
        <ele>900.3</ele>
        <time>2022-09-11T10:12:19Z</time>
      </trkpt>
      <trkpt lat="44.57804" lon="6.17918">
        <ele>900.4</ele>
        <time>2022-09-11T10:12:20Z</time>
      </trkpt>
      <trkpt lat="44.57809" lon="6.17912">
        <ele>900.6</ele>
        <time>2022-09-11T10:12:21Z</time>
      </trkpt>
      <trkpt lat="44.57812" lon="6.17908">
        <ele>900.8</ele>
        <time>2022-09-11T10:12:23Z</time>
      </trkpt>
      <trkpt lat="44.57814" lon="6.17904">
        <ele>900.9</ele>
        <time>2022-09-11T10:12:24Z</time>
      </trkpt>
      <trkpt lat="44.57816" lon="6.17901">
        <ele>901</ele>
        <time>2022-09-11T10:12:25Z</time>
      </trkpt>
      <trkpt lat="44.57819" lon="6.17897">
        <ele>901.1</ele>
        <time>2022-09-11T10:12:26Z</time>
      </trkpt>
      <trkpt lat="44.57821" lon="6.17893">
        <ele>901.3</ele>
        <time>2022-09-11T10:12:27Z</time>
      </trkpt>
      <trkpt lat="44.57823" lon="6.1789">
        <ele>901.4</ele>
        <time>2022-09-11T10:12:28Z</time>
      </trkpt>
      <trkpt lat="44.57826" lon="6.17883">
        <ele>901.7</ele>
        <time>2022-09-11T10:12:29Z</time>
      </trkpt>
      <trkpt lat="44.57828" lon="6.1788">
        <ele>901.8</ele>
        <time>2022-09-11T10:12:30Z</time>
      </trkpt>
      <trkpt lat="44.5783" lon="6.17876">
        <ele>902</ele>
        <time>2022-09-11T10:12:31Z</time>
      </trkpt>
      <trkpt lat="44.57831" lon="6.17871">
        <ele>902.2</ele>
        <time>2022-09-11T10:12:32Z</time>
      </trkpt>
      <trkpt lat="44.57832" lon="6.17866">
        <ele>902.4</ele>
        <time>2022-09-11T10:12:33Z</time>
      </trkpt>
      <trkpt lat="44.57833" lon="6.17862">
        <ele>902.5</ele>
        <time>2022-09-11T10:12:34Z</time>
      </trkpt>
      <trkpt lat="44.57835" lon="6.17857">
        <ele>902.8</ele>
        <time>2022-09-11T10:12:36Z</time>
      </trkpt>
      <trkpt lat="44.57836" lon="6.17853">
        <ele>903</ele>
        <time>2022-09-11T10:12:37Z</time>
      </trkpt>
      <trkpt lat="44.57837" lon="6.17848">
        <ele>903.2</ele>
        <time>2022-09-11T10:12:38Z</time>
      </trkpt>
      <trkpt lat="44.57838" lon="6.17843">
        <ele>903.4</ele>
        <time>2022-09-11T10:12:39Z</time>
      </trkpt>
      <trkpt lat="44.57838" lon="6.17837">
        <ele>903.7</ele>
        <time>2022-09-11T10:12:40Z</time>
      </trkpt>
      <trkpt lat="44.57839" lon="6.17829">
        <ele>904.1</ele>
        <time>2022-09-11T10:12:42Z</time>
      </trkpt>
      <trkpt lat="44.57839" lon="6.17825">
        <ele>904.3</ele>
        <time>2022-09-11T10:12:43Z</time>
      </trkpt>
      <trkpt lat="44.57839" lon="6.17821">
        <ele>904.5</ele>
        <time>2022-09-11T10:12:44Z</time>
      </trkpt>
      <trkpt lat="44.5784" lon="6.17813">
        <ele>904.9</ele>
        <time>2022-09-11T10:12:46Z</time>
      </trkpt>
      <trkpt lat="44.5784" lon="6.17809">
        <ele>905.1</ele>
        <time>2022-09-11T10:12:48Z</time>
      </trkpt>
      <trkpt lat="44.57841" lon="6.17804">
        <ele>905.4</ele>
        <time>2022-09-11T10:12:49Z</time>
      </trkpt>
      <trkpt lat="44.57841" lon="6.17802">
        <ele>905.5</ele>
        <time>2022-09-11T10:12:50Z</time>
      </trkpt>
      <trkpt lat="44.57842" lon="6.17798">
        <ele>905.7</ele>
        <time>2022-09-11T10:12:51Z</time>
      </trkpt>
      <trkpt lat="44.57843" lon="6.17794">
        <ele>905.9</ele>
        <time>2022-09-11T10:12:52Z</time>
      </trkpt>
      <trkpt lat="44.57843" lon="6.17789">
        <ele>906.1</ele>
        <time>2022-09-11T10:12:53Z</time>
      </trkpt>
      <trkpt lat="44.57843" lon="6.17788">
        <ele>906.2</ele>
        <time>2022-09-11T10:12:54Z</time>
      </trkpt>
      <trkpt lat="44.57844" lon="6.17784">
        <ele>906.4</ele>
        <time>2022-09-11T10:12:55Z</time>
      </trkpt>
      <trkpt lat="44.57845" lon="6.1778">
        <ele>906.6</ele>
        <time>2022-09-11T10:12:56Z</time>
      </trkpt>
      <trkpt lat="44.57846" lon="6.17775">
        <ele>906.9</ele>
        <time>2022-09-11T10:12:57Z</time>
      </trkpt>
      <trkpt lat="44.57847" lon="6.17772">
        <ele>907.1</ele>
        <time>2022-09-11T10:12:58Z</time>
      </trkpt>
      <trkpt lat="44.57848" lon="6.17768">
        <ele>907.3</ele>
        <time>2022-09-11T10:12:59Z</time>
      </trkpt>
      <trkpt lat="44.57849" lon="6.17762">
        <ele>907.6</ele>
        <time>2022-09-11T10:13:00Z</time>
      </trkpt>
      <trkpt lat="44.5785" lon="6.17761">
        <ele>907.7</ele>
        <time>2022-09-11T10:13:01Z</time>
      </trkpt>
      <trkpt lat="44.57851" lon="6.17756">
        <ele>907.9</ele>
        <time>2022-09-11T10:13:02Z</time>
      </trkpt>
      <trkpt lat="44.57852" lon="6.17754">
        <ele>908</ele>
        <time>2022-09-11T10:13:03Z</time>
      </trkpt>
      <trkpt lat="44.57854" lon="6.17748">
        <ele>908.4</ele>
        <time>2022-09-11T10:13:04Z</time>
      </trkpt>
      <trkpt lat="44.57855" lon="6.17745">
        <ele>908.5</ele>
        <time>2022-09-11T10:13:05Z</time>
      </trkpt>
      <trkpt lat="44.57857" lon="6.17741">
        <ele>908.7</ele>
        <time>2022-09-11T10:13:07Z</time>
      </trkpt>
      <trkpt lat="44.57858" lon="6.17737">
        <ele>908.9</ele>
        <time>2022-09-11T10:13:08Z</time>
      </trkpt>
      <trkpt lat="44.57861" lon="6.1773">
        <ele>909.3</ele>
        <time>2022-09-11T10:13:10Z</time>
      </trkpt>
      <trkpt lat="44.57864" lon="6.17725">
        <ele>909.6</ele>
        <time>2022-09-11T10:13:11Z</time>
      </trkpt>
      <trkpt lat="44.57865" lon="6.17721">
        <ele>909.8</ele>
        <time>2022-09-11T10:13:12Z</time>
      </trkpt>
      <trkpt lat="44.57868" lon="6.17714">
        <ele>910.2</ele>
        <time>2022-09-11T10:13:14Z</time>
      </trkpt>
      <trkpt lat="44.5787" lon="6.1771">
        <ele>910.4</ele>
        <time>2022-09-11T10:13:15Z</time>
      </trkpt>
      <trkpt lat="44.57871" lon="6.17707">
        <ele>910.6</ele>
        <time>2022-09-11T10:13:17Z</time>
      </trkpt>
      <trkpt lat="44.57873" lon="6.17703">
        <ele>910.7</ele>
        <time>2022-09-11T10:13:18Z</time>
      </trkpt>
      <trkpt lat="44.57875" lon="6.17697">
        <ele>911.1</ele>
        <time>2022-09-11T10:13:19Z</time>
      </trkpt>
      <trkpt lat="44.57877" lon="6.17694">
        <ele>911.2</ele>
        <time>2022-09-11T10:13:20Z</time>
      </trkpt>
      <trkpt lat="44.57878" lon="6.1769">
        <ele>911.4</ele>
        <time>2022-09-11T10:13:22Z</time>
      </trkpt>
      <trkpt lat="44.57879" lon="6.17685">
        <ele>911.7</ele>
        <time>2022-09-11T10:13:23Z</time>
      </trkpt>
      <trkpt lat="44.5788" lon="6.17684">
        <ele>911.7</ele>
        <time>2022-09-11T10:13:24Z</time>
      </trkpt>
      <trkpt lat="44.57882" lon="6.17678">
        <ele>912</ele>
        <time>2022-09-11T10:13:25Z</time>
      </trkpt>
      <trkpt lat="44.57883" lon="6.17676">
        <ele>912.1</ele>
        <time>2022-09-11T10:13:26Z</time>
      </trkpt>
      <trkpt lat="44.57884" lon="6.17672">
        <ele>912.3</ele>
        <time>2022-09-11T10:13:27Z</time>
      </trkpt>
      <trkpt lat="44.57885" lon="6.17669">
        <ele>912.5</ele>
        <time>2022-09-11T10:13:28Z</time>
      </trkpt>
      <trkpt lat="44.57887" lon="6.17664">
        <ele>912.8</ele>
        <time>2022-09-11T10:13:29Z</time>
      </trkpt>
      <trkpt lat="44.57888" lon="6.17662">
        <ele>912.9</ele>
        <time>2022-09-11T10:13:30Z</time>
      </trkpt>
      <trkpt lat="44.57889" lon="6.17659">
        <ele>913</ele>
        <time>2022-09-11T10:13:32Z</time>
      </trkpt>
      <trkpt lat="44.57891" lon="6.17656">
        <ele>913.2</ele>
        <time>2022-09-11T10:13:33Z</time>
      </trkpt>
      <trkpt lat="44.57894" lon="6.17651">
        <ele>913.5</ele>
        <time>2022-09-11T10:13:34Z</time>
      </trkpt>
      <trkpt lat="44.57896" lon="6.17647">
        <ele>913.7</ele>
        <time>2022-09-11T10:13:36Z</time>
      </trkpt>
      <trkpt lat="44.579" lon="6.17642">
        <ele>914.1</ele>
        <time>2022-09-11T10:13:37Z</time>
      </trkpt>
      <trkpt lat="44.57902" lon="6.1764">
        <ele>914.2</ele>
        <time>2022-09-11T10:13:38Z</time>
      </trkpt>
      <trkpt lat="44.57904" lon="6.17636">
        <ele>914.5</ele>
        <time>2022-09-11T10:13:40Z</time>
      </trkpt>
      <trkpt lat="44.57907" lon="6.17632">
        <ele>914.8</ele>
        <time>2022-09-11T10:13:41Z</time>
      </trkpt>
      <trkpt lat="44.57909" lon="6.17631">
        <ele>914.9</ele>
        <time>2022-09-11T10:13:42Z</time>
      </trkpt>
      <trkpt lat="44.57911" lon="6.17629">
        <ele>915</ele>
        <time>2022-09-11T10:13:43Z</time>
      </trkpt>
      <trkpt lat="44.57913" lon="6.17627">
        <ele>915.2</ele>
        <time>2022-09-11T10:13:45Z</time>
      </trkpt>
      <trkpt lat="44.57917" lon="6.17623">
        <ele>915.6</ele>
        <time>2022-09-11T10:13:46Z</time>
      </trkpt>
      <trkpt lat="44.57919" lon="6.17621">
        <ele>915.7</ele>
        <time>2022-09-11T10:13:48Z</time>
      </trkpt>
      <trkpt lat="44.57923" lon="6.17618">
        <ele>916</ele>
        <time>2022-09-11T10:13:49Z</time>
      </trkpt>
      <trkpt lat="44.57924" lon="6.17617">
        <ele>916.1</ele>
        <time>2022-09-11T10:13:50Z</time>
      </trkpt>
      <trkpt lat="44.57927" lon="6.17614">
        <ele>916.4</ele>
        <time>2022-09-11T10:13:51Z</time>
      </trkpt>
      <trkpt lat="44.57928" lon="6.17614">
        <ele>916.5</ele>
        <time>2022-09-11T10:13:52Z</time>
      </trkpt>
      <trkpt lat="44.57931" lon="6.17611">
        <ele>916.7</ele>
        <time>2022-09-11T10:13:53Z</time>
      </trkpt>
      <trkpt lat="44.57936" lon="6.17608">
        <ele>917</ele>
        <time>2022-09-11T10:13:54Z</time>
      </trkpt>
      <trkpt lat="44.57938" lon="6.17607">
        <ele>917.2</ele>
        <time>2022-09-11T10:13:56Z</time>
      </trkpt>
      <trkpt lat="44.57943" lon="6.17604">
        <ele>917.6</ele>
        <time>2022-09-11T10:13:57Z</time>
      </trkpt>
      <trkpt lat="44.57946" lon="6.17603">
        <ele>917.8</ele>
        <time>2022-09-11T10:13:59Z</time>
      </trkpt>
      <trkpt lat="44.5795" lon="6.17602">
        <ele>918.1</ele>
        <time>2022-09-11T10:14:00Z</time>
      </trkpt>
      <trkpt lat="44.57951" lon="6.17602">
        <ele>918.2</ele>
        <time>2022-09-11T10:14:01Z</time>
      </trkpt>
      <trkpt lat="44.57954" lon="6.17602">
        <ele>918.4</ele>
        <time>2022-09-11T10:14:02Z</time>
      </trkpt>
      <trkpt lat="44.57957" lon="6.17602">
        <ele>918.6</ele>
        <time>2022-09-11T10:14:03Z</time>
      </trkpt>
      <trkpt lat="44.57961" lon="6.17604">
        <ele>918.9</ele>
        <time>2022-09-11T10:14:04Z</time>
      </trkpt>
      <trkpt lat="44.57963" lon="6.17605">
        <ele>919.1</ele>
        <time>2022-09-11T10:14:05Z</time>
      </trkpt>
      <trkpt lat="44.57966" lon="6.17607">
        <ele>919.3</ele>
        <time>2022-09-11T10:14:07Z</time>
      </trkpt>
      <trkpt lat="44.57969" lon="6.17609">
        <ele>919.6</ele>
        <time>2022-09-11T10:14:08Z</time>
      </trkpt>
      <trkpt lat="44.57972" lon="6.17611">
        <ele>919.9</ele>
        <time>2022-09-11T10:14:10Z</time>
      </trkpt>
      <trkpt lat="44.57976" lon="6.17614">
        <ele>920.2</ele>
        <time>2022-09-11T10:14:11Z</time>
      </trkpt>
      <trkpt lat="44.57978" lon="6.17616">
        <ele>920.4</ele>
        <time>2022-09-11T10:14:12Z</time>
      </trkpt>
      <trkpt lat="44.57982" lon="6.1762">
        <ele>920.8</ele>
        <time>2022-09-11T10:14:14Z</time>
      </trkpt>
      <trkpt lat="44.57986" lon="6.17624">
        <ele>921.2</ele>
        <time>2022-09-11T10:14:16Z</time>
      </trkpt>
      <trkpt lat="44.57988" lon="6.17625">
        <ele>921.4</ele>
        <time>2022-09-11T10:14:17Z</time>
      </trkpt>
      <trkpt lat="44.57993" lon="6.17628">
        <ele>921.8</ele>
        <time>2022-09-11T10:14:19Z</time>
      </trkpt>
      <trkpt lat="44.57996" lon="6.17627">
        <ele>922.1</ele>
        <time>2022-09-11T10:14:21Z</time>
      </trkpt>
      <trkpt lat="44.57999" lon="6.17626">
        <ele>922.3</ele>
        <time>2022-09-11T10:14:22Z</time>
      </trkpt>
      <trkpt lat="44.58002" lon="6.17625">
        <ele>922.6</ele>
        <time>2022-09-11T10:14:23Z</time>
      </trkpt>
      <trkpt lat="44.58006" lon="6.17621">
        <ele>923</ele>
        <time>2022-09-11T10:14:25Z</time>
      </trkpt>
      <trkpt lat="44.58008" lon="6.1762">
        <ele>923.1</ele>
        <time>2022-09-11T10:14:26Z</time>
      </trkpt>
      <trkpt lat="44.58009" lon="6.17618">
        <ele>923.3</ele>
        <time>2022-09-11T10:14:27Z</time>
      </trkpt>
      <trkpt lat="44.5801" lon="6.17615">
        <ele>923.5</ele>
        <time>2022-09-11T10:14:28Z</time>
      </trkpt>
      <trkpt lat="44.5801" lon="6.17614">
        <ele>923.5</ele>
        <time>2022-09-11T10:14:30Z</time>
      </trkpt>
      <trkpt lat="44.5801" lon="6.17613">
        <ele>923.6</ele>
        <time>2022-09-11T10:14:31Z</time>
      </trkpt>
      <trkpt lat="44.5801" lon="6.17612">
        <ele>923.6</ele>
        <time>2022-09-11T10:14:33Z</time>
      </trkpt>
      <trkpt lat="44.5801" lon="6.17611">
        <ele>923.7</ele>
        <time>2022-09-11T10:14:34Z</time>
      </trkpt>
      <trkpt lat="44.5801" lon="6.1761">
        <ele>923.7</ele>
        <time>2022-09-11T10:14:35Z</time>
      </trkpt>
      <trkpt lat="44.5801" lon="6.1761">
        <ele>923.8</ele>
        <time>2022-09-11T10:14:36Z</time>
      </trkpt>
      <trkpt lat="44.5801" lon="6.17605">
        <ele>924</ele>
        <time>2022-09-11T10:14:38Z</time>
      </trkpt>
      <trkpt lat="44.58009" lon="6.17603">
        <ele>924.1</ele>
        <time>2022-09-11T10:14:39Z</time>
      </trkpt>
      <trkpt lat="44.58009" lon="6.17601">
        <ele>924.2</ele>
        <time>2022-09-11T10:14:40Z</time>
      </trkpt>
      <trkpt lat="44.58009" lon="6.176">
        <ele>924.3</ele>
        <time>2022-09-11T10:14:41Z</time>
      </trkpt>
      <trkpt lat="44.58009" lon="6.176">
        <ele>924.3</ele>
        <time>2022-09-11T10:14:42Z</time>
      </trkpt>
      <trkpt lat="44.58009" lon="6.176">
        <ele>924.3</ele>
        <time>2022-09-11T10:14:43Z</time>
      </trkpt>
      <trkpt lat="44.58009" lon="6.176">
        <ele>924.3</ele>
        <time>2022-09-11T10:14:44Z</time>
      </trkpt>
      <trkpt lat="44.58009" lon="6.176">
        <ele>924.3</ele>
        <time>2022-09-11T10:14:45Z</time>
      </trkpt>
      <trkpt lat="44.58009" lon="6.176">
        <ele>924.3</ele>
        <time>2022-09-11T10:14:46Z</time>
      </trkpt>
      <trkpt lat="44.58009" lon="6.176">
        <ele>924.3</ele>
        <time>2022-09-11T10:14:47Z</time>
      </trkpt>
      <trkpt lat="44.58009" lon="6.176">
        <ele>924.3</ele>
        <time>2022-09-11T10:14:48Z</time>
      </trkpt>
      <trkpt lat="44.58009" lon="6.176">
        <ele>924.3</ele>
        <time>2022-09-11T10:14:49Z</time>
      </trkpt>
      <trkpt lat="44.58009" lon="6.17599">
        <ele>924.3</ele>
        <time>2022-09-11T10:14:50Z</time>
      </trkpt>
      <trkpt lat="44.58008" lon="6.17597">
        <ele>924.4</ele>
        <time>2022-09-11T10:16:53Z</time>
      </trkpt>
      <trkpt lat="44.5801" lon="6.17592">
        <ele>924.7</ele>
        <time>2022-09-11T10:16:55Z</time>
      </trkpt>
      <trkpt lat="44.58012" lon="6.17589">
        <ele>924.9</ele>
        <time>2022-09-11T10:16:56Z</time>
      </trkpt>
      <trkpt lat="44.58013" lon="6.17588">
        <ele>925</ele>
        <time>2022-09-11T10:16:57Z</time>
      </trkpt>
      <trkpt lat="44.58014" lon="6.17583">
        <ele>925.2</ele>
        <time>2022-09-11T10:16:58Z</time>
      </trkpt>
      <trkpt lat="44.58014" lon="6.17578">
        <ele>925.5</ele>
        <time>2022-09-11T10:16:59Z</time>
      </trkpt>
      <trkpt lat="44.58014" lon="6.17576">
        <ele>925.6</ele>
        <time>2022-09-11T10:17:00Z</time>
      </trkpt>
      <trkpt lat="44.58014" lon="6.17569">
        <ele>925.9</ele>
        <time>2022-09-11T10:17:02Z</time>
      </trkpt>
      <trkpt lat="44.58014" lon="6.17567">
        <ele>926</ele>
        <time>2022-09-11T10:17:03Z</time>
      </trkpt>
      <trkpt lat="44.58014" lon="6.17565">
        <ele>926.2</ele>
        <time>2022-09-11T10:17:04Z</time>
      </trkpt>
      <trkpt lat="44.58014" lon="6.17559">
        <ele>926.5</ele>
        <time>2022-09-11T10:17:05Z</time>
      </trkpt>
      <trkpt lat="44.58014" lon="6.17556">
        <ele>926.6</ele>
        <time>2022-09-11T10:17:06Z</time>
      </trkpt>
      <trkpt lat="44.58015" lon="6.17551">
        <ele>926.9</ele>
        <time>2022-09-11T10:17:07Z</time>
      </trkpt>
      <trkpt lat="44.58015" lon="6.17548">
        <ele>927</ele>
        <time>2022-09-11T10:17:08Z</time>
      </trkpt>
      <trkpt lat="44.58016" lon="6.17544">
        <ele>927.2</ele>
        <time>2022-09-11T10:17:10Z</time>
      </trkpt>
      <trkpt lat="44.58018" lon="6.1754">
        <ele>927.5</ele>
        <time>2022-09-11T10:17:11Z</time>
      </trkpt>
      <trkpt lat="44.58018" lon="6.17538">
        <ele>927.6</ele>
        <time>2022-09-11T10:17:12Z</time>
      </trkpt>
      <trkpt lat="44.58021" lon="6.17534">
        <ele>927.9</ele>
        <time>2022-09-11T10:17:13Z</time>
      </trkpt>
      <trkpt lat="44.58021" lon="6.17532">
        <ele>928</ele>
        <time>2022-09-11T10:17:14Z</time>
      </trkpt>
      <trkpt lat="44.58024" lon="6.17529">
        <ele>928.3</ele>
        <time>2022-09-11T10:17:15Z</time>
      </trkpt>
      <trkpt lat="44.58025" lon="6.17528">
        <ele>928.4</ele>
        <time>2022-09-11T10:17:16Z</time>
      </trkpt>
      <trkpt lat="44.58028" lon="6.17525">
        <ele>928.7</ele>
        <time>2022-09-11T10:17:17Z</time>
      </trkpt>
      <trkpt lat="44.58029" lon="6.17524">
        <ele>928.9</ele>
        <time>2022-09-11T10:17:18Z</time>
      </trkpt>
      <trkpt lat="44.58032" lon="6.17522">
        <ele>929.1</ele>
        <time>2022-09-11T10:17:19Z</time>
      </trkpt>
      <trkpt lat="44.58035" lon="6.17521">
        <ele>929.4</ele>
        <time>2022-09-11T10:17:20Z</time>
      </trkpt>
      <trkpt lat="44.58036" lon="6.1752">
        <ele>929.5</ele>
        <time>2022-09-11T10:17:21Z</time>
      </trkpt>
      <trkpt lat="44.58038" lon="6.1752">
        <ele>929.7</ele>
        <time>2022-09-11T10:17:22Z</time>
      </trkpt>
      <trkpt lat="44.58041" lon="6.17518">
        <ele>930</ele>
        <time>2022-09-11T10:17:23Z</time>
      </trkpt>
      <trkpt lat="44.58044" lon="6.17517">
        <ele>930.3</ele>
        <time>2022-09-11T10:17:25Z</time>
      </trkpt>
      <trkpt lat="44.58047" lon="6.17517">
        <ele>930.6</ele>
        <time>2022-09-11T10:17:26Z</time>
      </trkpt>
      <trkpt lat="44.58048" lon="6.17517">
        <ele>930.7</ele>
        <time>2022-09-11T10:17:27Z</time>
      </trkpt>
      <trkpt lat="44.58052" lon="6.17516">
        <ele>931.1</ele>
        <time>2022-09-11T10:17:28Z</time>
      </trkpt>
      <trkpt lat="44.58053" lon="6.17516">
        <ele>931.2</ele>
        <time>2022-09-11T10:17:29Z</time>
      </trkpt>
      <trkpt lat="44.58057" lon="6.17516">
        <ele>931.6</ele>
        <time>2022-09-11T10:17:30Z</time>
      </trkpt>
      <trkpt lat="44.58059" lon="6.17516">
        <ele>931.8</ele>
        <time>2022-09-11T10:17:31Z</time>
      </trkpt>
      <trkpt lat="44.58062" lon="6.17515">
        <ele>932.1</ele>
        <time>2022-09-11T10:17:33Z</time>
      </trkpt>
      <trkpt lat="44.58065" lon="6.17515">
        <ele>932.4</ele>
        <time>2022-09-11T10:17:34Z</time>
      </trkpt>
      <trkpt lat="44.58067" lon="6.17515">
        <ele>932.6</ele>
        <time>2022-09-11T10:17:35Z</time>
      </trkpt>
      <trkpt lat="44.5807" lon="6.17514">
        <ele>932.9</ele>
        <time>2022-09-11T10:17:36Z</time>
      </trkpt>
      <trkpt lat="44.58071" lon="6.17514">
        <ele>933</ele>
        <time>2022-09-11T10:17:37Z</time>
      </trkpt>
      <trkpt lat="44.58074" lon="6.17515">
        <ele>933.3</ele>
        <time>2022-09-11T10:17:38Z</time>
      </trkpt>
      <trkpt lat="44.58075" lon="6.17515">
        <ele>933.4</ele>
        <time>2022-09-11T10:17:39Z</time>
      </trkpt>
      <trkpt lat="44.5808" lon="6.17515">
        <ele>933.8</ele>
        <time>2022-09-11T10:17:40Z</time>
      </trkpt>
      <trkpt lat="44.58082" lon="6.17515">
        <ele>934</ele>
        <time>2022-09-11T10:17:41Z</time>
      </trkpt>
      <trkpt lat="44.58084" lon="6.17515">
        <ele>934.1</ele>
        <time>2022-09-11T10:17:43Z</time>
      </trkpt>
      <trkpt lat="44.58087" lon="6.17514">
        <ele>934.4</ele>
        <time>2022-09-11T10:17:44Z</time>
      </trkpt>
      <trkpt lat="44.58088" lon="6.17514">
        <ele>934.4</ele>
        <time>2022-09-11T10:17:45Z</time>
      </trkpt>
      <trkpt lat="44.58089" lon="6.17512">
        <ele>934.6</ele>
        <time>2022-09-11T10:17:46Z</time>
      </trkpt>
      <trkpt lat="44.58091" lon="6.17511">
        <ele>934.7</ele>
        <time>2022-09-11T10:17:47Z</time>
      </trkpt>
      <trkpt lat="44.58094" lon="6.17507">
        <ele>935</ele>
        <time>2022-09-11T10:17:48Z</time>
      </trkpt>
      <trkpt lat="44.58095" lon="6.17504">
        <ele>935.1</ele>
        <time>2022-09-11T10:17:49Z</time>
      </trkpt>
      <trkpt lat="44.58096" lon="6.17498">
        <ele>935.5</ele>
        <time>2022-09-11T10:17:52Z</time>
      </trkpt>
      <trkpt lat="44.58096" lon="6.17494">
        <ele>935.7</ele>
        <time>2022-09-11T10:17:53Z</time>
      </trkpt>
      <trkpt lat="44.58094" lon="6.1749">
        <ele>935.9</ele>
        <time>2022-09-11T10:17:55Z</time>
      </trkpt>
      <trkpt lat="44.58094" lon="6.17488">
        <ele>935.9</ele>
        <time>2022-09-11T10:17:56Z</time>
      </trkpt>
      <trkpt lat="44.58091" lon="6.17483">
        <ele>936.3</ele>
        <time>2022-09-11T10:17:58Z</time>
      </trkpt>
      <trkpt lat="44.58088" lon="6.17477">
        <ele>936.5</ele>
        <time>2022-09-11T10:17:59Z</time>
      </trkpt>
      <trkpt lat="44.58087" lon="6.17475">
        <ele>936.7</ele>
        <time>2022-09-11T10:18:00Z</time>
      </trkpt>
      <trkpt lat="44.58085" lon="6.17473">
        <ele>936.8</ele>
        <time>2022-09-11T10:18:02Z</time>
      </trkpt>
      <trkpt lat="44.58083" lon="6.1747">
        <ele>937</ele>
        <time>2022-09-11T10:18:03Z</time>
      </trkpt>
      <trkpt lat="44.58082" lon="6.17469">
        <ele>937.1</ele>
        <time>2022-09-11T10:18:04Z</time>
      </trkpt>
      <trkpt lat="44.5808" lon="6.17466">
        <ele>937.3</ele>
        <time>2022-09-11T10:18:05Z</time>
      </trkpt>
      <trkpt lat="44.58078" lon="6.17463">
        <ele>937.4</ele>
        <time>2022-09-11T10:18:06Z</time>
      </trkpt>
      <trkpt lat="44.58076" lon="6.17461">
        <ele>937.6</ele>
        <time>2022-09-11T10:18:08Z</time>
      </trkpt>
      <trkpt lat="44.58074" lon="6.17458">
        <ele>937.8</ele>
        <time>2022-09-11T10:18:09Z</time>
      </trkpt>
      <trkpt lat="44.58073" lon="6.17457">
        <ele>937.8</ele>
        <time>2022-09-11T10:18:10Z</time>
      </trkpt>
      <trkpt lat="44.5807" lon="6.17452">
        <ele>938.1</ele>
        <time>2022-09-11T10:18:11Z</time>
      </trkpt>
      <trkpt lat="44.58068" lon="6.17447">
        <ele>938.4</ele>
        <time>2022-09-11T10:18:13Z</time>
      </trkpt>
      <trkpt lat="44.58068" lon="6.17445">
        <ele>938.5</ele>
        <time>2022-09-11T10:18:14Z</time>
      </trkpt>
      <trkpt lat="44.58067" lon="6.17443">
        <ele>938.6</ele>
        <time>2022-09-11T10:18:15Z</time>
      </trkpt>
      <trkpt lat="44.58066" lon="6.17439">
        <ele>938.9</ele>
        <time>2022-09-11T10:18:16Z</time>
      </trkpt>
      <trkpt lat="44.58065" lon="6.17436">
        <ele>939</ele>
        <time>2022-09-11T10:18:17Z</time>
      </trkpt>
      <trkpt lat="44.58065" lon="6.17433">
        <ele>939.1</ele>
        <time>2022-09-11T10:18:19Z</time>
      </trkpt>
      <trkpt lat="44.58065" lon="6.17428">
        <ele>939.4</ele>
        <time>2022-09-11T10:18:20Z</time>
      </trkpt>
      <trkpt lat="44.58064" lon="6.17427">
        <ele>939.4</ele>
        <time>2022-09-11T10:18:21Z</time>
      </trkpt>
      <trkpt lat="44.58064" lon="6.17422">
        <ele>939.7</ele>
        <time>2022-09-11T10:18:22Z</time>
      </trkpt>
      <trkpt lat="44.58064" lon="6.17419">
        <ele>939.9</ele>
        <time>2022-09-11T10:18:23Z</time>
      </trkpt>
      <trkpt lat="44.58065" lon="6.17414">
        <ele>940.1</ele>
        <time>2022-09-11T10:18:25Z</time>
      </trkpt>
      <trkpt lat="44.58065" lon="6.17413">
        <ele>940.2</ele>
        <time>2022-09-11T10:18:26Z</time>
      </trkpt>
      <trkpt lat="44.58068" lon="6.17409">
        <ele>940.5</ele>
        <time>2022-09-11T10:18:27Z</time>
      </trkpt>
      <trkpt lat="44.58071" lon="6.17406">
        <ele>940.9</ele>
        <time>2022-09-11T10:18:29Z</time>
      </trkpt>
      <trkpt lat="44.58075" lon="6.17404">
        <ele>941.2</ele>
        <time>2022-09-11T10:18:30Z</time>
      </trkpt>
      <trkpt lat="44.58076" lon="6.17403">
        <ele>941.3</ele>
        <time>2022-09-11T10:18:31Z</time>
      </trkpt>
      <trkpt lat="44.58078" lon="6.17402">
        <ele>941.5</ele>
        <time>2022-09-11T10:18:32Z</time>
      </trkpt>
      <trkpt lat="44.5808" lon="6.17401">
        <ele>941.6</ele>
        <time>2022-09-11T10:18:34Z</time>
      </trkpt>
      <trkpt lat="44.58083" lon="6.17399">
        <ele>941.9</ele>
        <time>2022-09-11T10:18:35Z</time>
      </trkpt>
      <trkpt lat="44.58085" lon="6.17397">
        <ele>942.1</ele>
        <time>2022-09-11T10:18:37Z</time>
      </trkpt>
      <trkpt lat="44.58088" lon="6.17395">
        <ele>942.3</ele>
        <time>2022-09-11T10:18:38Z</time>
      </trkpt>
      <trkpt lat="44.58091" lon="6.17393">
        <ele>942.6</ele>
        <time>2022-09-11T10:18:40Z</time>
      </trkpt>
      <trkpt lat="44.58095" lon="6.17391">
        <ele>942.9</ele>
        <time>2022-09-11T10:18:41Z</time>
      </trkpt>
      <trkpt lat="44.58099" lon="6.17389">
        <ele>943.3</ele>
        <time>2022-09-11T10:18:43Z</time>
      </trkpt>
      <trkpt lat="44.581" lon="6.17388">
        <ele>943.4</ele>
        <time>2022-09-11T10:18:44Z</time>
      </trkpt>
      <trkpt lat="44.58102" lon="6.17386">
        <ele>943.6</ele>
        <time>2022-09-11T10:18:46Z</time>
      </trkpt>
      <trkpt lat="44.58104" lon="6.17385">
        <ele>943.8</ele>
        <time>2022-09-11T10:18:47Z</time>
      </trkpt>
      <trkpt lat="44.58105" lon="6.17384">
        <ele>943.9</ele>
        <time>2022-09-11T10:18:48Z</time>
      </trkpt>
      <trkpt lat="44.58108" lon="6.17383">
        <ele>944.1</ele>
        <time>2022-09-11T10:18:49Z</time>
      </trkpt>
      <trkpt lat="44.58109" lon="6.17382">
        <ele>944.2</ele>
        <time>2022-09-11T10:18:50Z</time>
      </trkpt>
      <trkpt lat="44.58113" lon="6.1738">
        <ele>944.6</ele>
        <time>2022-09-11T10:18:51Z</time>
      </trkpt>
      <trkpt lat="44.58117" lon="6.17379">
        <ele>944.8</ele>
        <time>2022-09-11T10:18:53Z</time>
      </trkpt>
      <trkpt lat="44.58118" lon="6.17379">
        <ele>944.9</ele>
        <time>2022-09-11T10:18:54Z</time>
      </trkpt>
      <trkpt lat="44.5812" lon="6.17379">
        <ele>945.1</ele>
        <time>2022-09-11T10:18:55Z</time>
      </trkpt>
      <trkpt lat="44.58121" lon="6.17379">
        <ele>945.2</ele>
        <time>2022-09-11T10:18:56Z</time>
      </trkpt>
      <trkpt lat="44.58124" lon="6.17379">
        <ele>945.4</ele>
        <time>2022-09-11T10:18:57Z</time>
      </trkpt>
      <trkpt lat="44.58125" lon="6.17378">
        <ele>945.5</ele>
        <time>2022-09-11T10:18:58Z</time>
      </trkpt>
      <trkpt lat="44.58128" lon="6.17378">
        <ele>945.7</ele>
        <time>2022-09-11T10:18:59Z</time>
      </trkpt>
      <trkpt lat="44.58129" lon="6.17378">
        <ele>945.8</ele>
        <time>2022-09-11T10:19:00Z</time>
      </trkpt>
      <trkpt lat="44.58133" lon="6.17378">
        <ele>946.1</ele>
        <time>2022-09-11T10:19:01Z</time>
      </trkpt>
      <trkpt lat="44.58136" lon="6.17378">
        <ele>946.3</ele>
        <time>2022-09-11T10:19:02Z</time>
      </trkpt>
      <trkpt lat="44.58137" lon="6.17378">
        <ele>946.4</ele>
        <time>2022-09-11T10:19:03Z</time>
      </trkpt>
      <trkpt lat="44.58141" lon="6.17379">
        <ele>946.7</ele>
        <time>2022-09-11T10:19:05Z</time>
      </trkpt>
      <trkpt lat="44.58142" lon="6.17379">
        <ele>946.8</ele>
        <time>2022-09-11T10:19:06Z</time>
      </trkpt>
      <trkpt lat="44.58145" lon="6.17379">
        <ele>947</ele>
        <time>2022-09-11T10:19:08Z</time>
      </trkpt>
      <trkpt lat="44.58148" lon="6.17379">
        <ele>947.2</ele>
        <time>2022-09-11T10:19:09Z</time>
      </trkpt>
      <trkpt lat="44.58151" lon="6.17379">
        <ele>947.5</ele>
        <time>2022-09-11T10:19:10Z</time>
      </trkpt>
      <trkpt lat="44.58155" lon="6.17379">
        <ele>947.7</ele>
        <time>2022-09-11T10:19:11Z</time>
      </trkpt>
      <trkpt lat="44.58156" lon="6.17379">
        <ele>947.8</ele>
        <time>2022-09-11T10:19:12Z</time>
      </trkpt>
      <trkpt lat="44.58159" lon="6.17379">
        <ele>948.1</ele>
        <time>2022-09-11T10:19:13Z</time>
      </trkpt>
      <trkpt lat="44.5816" lon="6.1738">
        <ele>948.1</ele>
        <time>2022-09-11T10:19:14Z</time>
      </trkpt>
      <trkpt lat="44.58163" lon="6.17379">
        <ele>948.4</ele>
        <time>2022-09-11T10:19:16Z</time>
      </trkpt>
      <trkpt lat="44.58164" lon="6.17379">
        <ele>948.5</ele>
        <time>2022-09-11T10:19:17Z</time>
      </trkpt>
      <trkpt lat="44.58167" lon="6.17378">
        <ele>948.7</ele>
        <time>2022-09-11T10:19:18Z</time>
      </trkpt>
      <trkpt lat="44.58168" lon="6.17378">
        <ele>948.8</ele>
        <time>2022-09-11T10:19:19Z</time>
      </trkpt>
      <trkpt lat="44.58171" lon="6.17377">
        <ele>949</ele>
        <time>2022-09-11T10:19:20Z</time>
      </trkpt>
      <trkpt lat="44.58172" lon="6.17377">
        <ele>949.1</ele>
        <time>2022-09-11T10:19:22Z</time>
      </trkpt>
      <trkpt lat="44.58175" lon="6.17377">
        <ele>949.4</ele>
        <time>2022-09-11T10:19:23Z</time>
      </trkpt>
      <trkpt lat="44.58176" lon="6.17377">
        <ele>949.4</ele>
        <time>2022-09-11T10:19:24Z</time>
      </trkpt>
      <trkpt lat="44.5818" lon="6.17377">
        <ele>949.8</ele>
        <time>2022-09-11T10:19:25Z</time>
      </trkpt>
      <trkpt lat="44.58182" lon="6.17377">
        <ele>949.9</ele>
        <time>2022-09-11T10:19:26Z</time>
      </trkpt>
      <trkpt lat="44.58186" lon="6.17377">
        <ele>950.2</ele>
        <time>2022-09-11T10:19:28Z</time>
      </trkpt>
      <trkpt lat="44.5819" lon="6.17377">
        <ele>950.5</ele>
        <time>2022-09-11T10:19:29Z</time>
      </trkpt>
      <trkpt lat="44.58193" lon="6.17377">
        <ele>950.7</ele>
        <time>2022-09-11T10:19:31Z</time>
      </trkpt>
      <trkpt lat="44.58194" lon="6.17377">
        <ele>950.8</ele>
        <time>2022-09-11T10:19:32Z</time>
      </trkpt>
      <trkpt lat="44.58197" lon="6.17378">
        <ele>951.1</ele>
        <time>2022-09-11T10:19:33Z</time>
      </trkpt>
      <trkpt lat="44.58198" lon="6.17378">
        <ele>951.1</ele>
        <time>2022-09-11T10:19:34Z</time>
      </trkpt>
      <trkpt lat="44.58201" lon="6.17378">
        <ele>951.3</ele>
        <time>2022-09-11T10:19:35Z</time>
      </trkpt>
      <trkpt lat="44.58201" lon="6.17378">
        <ele>951.4</ele>
        <time>2022-09-11T10:19:36Z</time>
      </trkpt>
      <trkpt lat="44.58203" lon="6.17379">
        <ele>951.6</ele>
        <time>2022-09-11T10:19:37Z</time>
      </trkpt>
      <trkpt lat="44.58205" lon="6.17379">
        <ele>951.7</ele>
        <time>2022-09-11T10:19:38Z</time>
      </trkpt>
      <trkpt lat="44.58206" lon="6.1738">
        <ele>951.8</ele>
        <time>2022-09-11T10:19:39Z</time>
      </trkpt>
      <trkpt lat="44.58208" lon="6.1738">
        <ele>951.9</ele>
        <time>2022-09-11T10:19:40Z</time>
      </trkpt>
      <trkpt lat="44.5821" lon="6.17381">
        <ele>952.1</ele>
        <time>2022-09-11T10:19:41Z</time>
      </trkpt>
      <trkpt lat="44.58213" lon="6.17382">
        <ele>952.3</ele>
        <time>2022-09-11T10:19:42Z</time>
      </trkpt>
      <trkpt lat="44.58215" lon="6.17382">
        <ele>952.5</ele>
        <time>2022-09-11T10:19:44Z</time>
      </trkpt>
      <trkpt lat="44.58219" lon="6.17383">
        <ele>952.7</ele>
        <time>2022-09-11T10:19:45Z</time>
      </trkpt>
      <trkpt lat="44.5822" lon="6.17383">
        <ele>952.8</ele>
        <time>2022-09-11T10:19:46Z</time>
      </trkpt>
      <trkpt lat="44.58225" lon="6.17383">
        <ele>953.1</ele>
        <time>2022-09-11T10:19:48Z</time>
      </trkpt>
      <trkpt lat="44.58228" lon="6.17381">
        <ele>953.3</ele>
        <time>2022-09-11T10:19:49Z</time>
      </trkpt>
      <trkpt lat="44.58232" lon="6.17377">
        <ele>953.6</ele>
        <time>2022-09-11T10:19:50Z</time>
      </trkpt>
      <trkpt lat="44.58234" lon="6.17373">
        <ele>953.8</ele>
        <time>2022-09-11T10:19:51Z</time>
      </trkpt>
      <trkpt lat="44.58234" lon="6.17371">
        <ele>953.9</ele>
        <time>2022-09-11T10:19:52Z</time>
      </trkpt>
      <trkpt lat="44.58236" lon="6.17365">
        <ele>954.2</ele>
        <time>2022-09-11T10:19:54Z</time>
      </trkpt>
      <trkpt lat="44.58237" lon="6.17363">
        <ele>954.3</ele>
        <time>2022-09-11T10:19:55Z</time>
      </trkpt>
      <trkpt lat="44.58237" lon="6.17361">
        <ele>954.4</ele>
        <time>2022-09-11T10:19:56Z</time>
      </trkpt>
      <trkpt lat="44.58237" lon="6.17355">
        <ele>954.7</ele>
        <time>2022-09-11T10:19:57Z</time>
      </trkpt>
      <trkpt lat="44.58238" lon="6.17353">
        <ele>954.8</ele>
        <time>2022-09-11T10:19:58Z</time>
      </trkpt>
      <trkpt lat="44.58236" lon="6.17349">
        <ele>955</ele>
        <time>2022-09-11T10:20:00Z</time>
      </trkpt>
      <trkpt lat="44.58236" lon="6.17347">
        <ele>955.1</ele>
        <time>2022-09-11T10:20:01Z</time>
      </trkpt>
      <trkpt lat="44.58235" lon="6.17346">
        <ele>955.2</ele>
        <time>2022-09-11T10:20:02Z</time>
      </trkpt>
      <trkpt lat="44.58233" lon="6.17343">
        <ele>955.4</ele>
        <time>2022-09-11T10:20:03Z</time>
      </trkpt>
      <trkpt lat="44.58233" lon="6.17342">
        <ele>955.4</ele>
        <time>2022-09-11T10:20:04Z</time>
      </trkpt>
      <trkpt lat="44.58231" lon="6.17337">
        <ele>955.7</ele>
        <time>2022-09-11T10:20:05Z</time>
      </trkpt>
      <trkpt lat="44.5823" lon="6.17335">
        <ele>955.9</ele>
        <time>2022-09-11T10:20:06Z</time>
      </trkpt>
      <trkpt lat="44.58229" lon="6.17333">
        <ele>956</ele>
        <time>2022-09-11T10:20:08Z</time>
      </trkpt>
      <trkpt lat="44.58226" lon="6.17329">
        <ele>956.3</ele>
        <time>2022-09-11T10:20:09Z</time>
      </trkpt>
      <trkpt lat="44.58225" lon="6.17325">
        <ele>956.6</ele>
        <time>2022-09-11T10:20:11Z</time>
      </trkpt>
      <trkpt lat="44.58224" lon="6.17323">
        <ele>956.7</ele>
        <time>2022-09-11T10:20:12Z</time>
      </trkpt>
      <trkpt lat="44.58222" lon="6.1732">
        <ele>956.9</ele>
        <time>2022-09-11T10:20:13Z</time>
      </trkpt>
      <trkpt lat="44.58221" lon="6.17319">
        <ele>957</ele>
        <time>2022-09-11T10:20:14Z</time>
      </trkpt>
      <trkpt lat="44.58219" lon="6.17316">
        <ele>957.3</ele>
        <time>2022-09-11T10:20:15Z</time>
      </trkpt>
      <trkpt lat="44.58218" lon="6.17315">
        <ele>957.3</ele>
        <time>2022-09-11T10:20:16Z</time>
      </trkpt>
      <trkpt lat="44.58215" lon="6.17311">
        <ele>957.7</ele>
        <time>2022-09-11T10:20:18Z</time>
      </trkpt>
      <trkpt lat="44.58214" lon="6.17309">
        <ele>957.8</ele>
        <time>2022-09-11T10:20:19Z</time>
      </trkpt>
      <trkpt lat="44.58214" lon="6.17308">
        <ele>957.9</ele>
        <time>2022-09-11T10:20:20Z</time>
      </trkpt>
      <trkpt lat="44.58212" lon="6.17304">
        <ele>958.2</ele>
        <time>2022-09-11T10:20:21Z</time>
      </trkpt>
      <trkpt lat="44.58211" lon="6.17303">
        <ele>958.3</ele>
        <time>2022-09-11T10:20:22Z</time>
      </trkpt>
      <trkpt lat="44.58209" lon="6.17299">
        <ele>958.6</ele>
        <time>2022-09-11T10:20:23Z</time>
      </trkpt>
      <trkpt lat="44.58209" lon="6.17298">
        <ele>958.7</ele>
        <time>2022-09-11T10:20:24Z</time>
      </trkpt>
      <trkpt lat="44.58207" lon="6.17294">
        <ele>959</ele>
        <time>2022-09-11T10:20:25Z</time>
      </trkpt>
      <trkpt lat="44.58206" lon="6.17293">
        <ele>959.2</ele>
        <time>2022-09-11T10:20:26Z</time>
      </trkpt>
      <trkpt lat="44.58204" lon="6.17287">
        <ele>959.6</ele>
        <time>2022-09-11T10:20:27Z</time>
      </trkpt>
      <trkpt lat="44.58203" lon="6.17284">
        <ele>959.8</ele>
        <time>2022-09-11T10:20:28Z</time>
      </trkpt>
      <trkpt lat="44.58202" lon="6.17281">
        <ele>960.1</ele>
        <time>2022-09-11T10:20:30Z</time>
      </trkpt>
      <trkpt lat="44.58202" lon="6.17279">
        <ele>960.3</ele>
        <time>2022-09-11T10:20:31Z</time>
      </trkpt>
      <trkpt lat="44.58202" lon="6.17276">
        <ele>960.5</ele>
        <time>2022-09-11T10:20:32Z</time>
      </trkpt>
      <trkpt lat="44.58203" lon="6.17272">
        <ele>960.8</ele>
        <time>2022-09-11T10:20:33Z</time>
      </trkpt>
      <trkpt lat="44.58204" lon="6.17271">
        <ele>960.9</ele>
        <time>2022-09-11T10:20:34Z</time>
      </trkpt>
      <trkpt lat="44.58204" lon="6.17269">
        <ele>961.1</ele>
        <time>2022-09-11T10:20:35Z</time>
      </trkpt>
      <trkpt lat="44.58205" lon="6.17267">
        <ele>961.3</ele>
        <time>2022-09-11T10:20:36Z</time>
      </trkpt>
      <trkpt lat="44.58208" lon="6.17264">
        <ele>961.6</ele>
        <time>2022-09-11T10:20:37Z</time>
      </trkpt>
      <trkpt lat="44.58209" lon="6.17263">
        <ele>961.8</ele>
        <time>2022-09-11T10:20:38Z</time>
      </trkpt>
      <trkpt lat="44.58214" lon="6.1726">
        <ele>962.3</ele>
        <time>2022-09-11T10:20:39Z</time>
      </trkpt>
      <trkpt lat="44.58217" lon="6.17259">
        <ele>962.6</ele>
        <time>2022-09-11T10:20:41Z</time>
      </trkpt>
      <trkpt lat="44.58219" lon="6.17258">
        <ele>962.8</ele>
        <time>2022-09-11T10:20:42Z</time>
      </trkpt>
      <trkpt lat="44.5822" lon="6.17258">
        <ele>962.9</ele>
        <time>2022-09-11T10:20:43Z</time>
      </trkpt>
      <trkpt lat="44.58224" lon="6.17258">
        <ele>963.3</ele>
        <time>2022-09-11T10:20:44Z</time>
      </trkpt>
      <trkpt lat="44.58225" lon="6.17258">
        <ele>963.4</ele>
        <time>2022-09-11T10:20:45Z</time>
      </trkpt>
      <trkpt lat="44.58228" lon="6.17258">
        <ele>963.8</ele>
        <time>2022-09-11T10:20:46Z</time>
      </trkpt>
      <trkpt lat="44.58229" lon="6.17257">
        <ele>963.9</ele>
        <time>2022-09-11T10:20:47Z</time>
      </trkpt>
      <trkpt lat="44.58232" lon="6.17257">
        <ele>964.2</ele>
        <time>2022-09-11T10:20:48Z</time>
      </trkpt>
      <trkpt lat="44.58233" lon="6.17257">
        <ele>964.4</ele>
        <time>2022-09-11T10:20:49Z</time>
      </trkpt>
      <trkpt lat="44.58236" lon="6.17257">
        <ele>964.7</ele>
        <time>2022-09-11T10:20:50Z</time>
      </trkpt>
      <trkpt lat="44.58237" lon="6.17257">
        <ele>964.7</ele>
        <time>2022-09-11T10:20:51Z</time>
      </trkpt>
      <trkpt lat="44.5824" lon="6.17256">
        <ele>965</ele>
        <time>2022-09-11T10:20:52Z</time>
      </trkpt>
      <trkpt lat="44.58241" lon="6.17256">
        <ele>965.1</ele>
        <time>2022-09-11T10:20:53Z</time>
      </trkpt>
      <trkpt lat="44.58244" lon="6.17255">
        <ele>965.4</ele>
        <time>2022-09-11T10:20:54Z</time>
      </trkpt>
      <trkpt lat="44.58245" lon="6.17255">
        <ele>965.5</ele>
        <time>2022-09-11T10:20:55Z</time>
      </trkpt>
      <trkpt lat="44.58248" lon="6.17254">
        <ele>965.8</ele>
        <time>2022-09-11T10:20:56Z</time>
      </trkpt>
      <trkpt lat="44.58249" lon="6.17253">
        <ele>965.9</ele>
        <time>2022-09-11T10:20:57Z</time>
      </trkpt>
      <trkpt lat="44.58252" lon="6.17252">
        <ele>966.1</ele>
        <time>2022-09-11T10:20:58Z</time>
      </trkpt>
      <trkpt lat="44.58253" lon="6.17251">
        <ele>966.2</ele>
        <time>2022-09-11T10:20:59Z</time>
      </trkpt>
      <trkpt lat="44.58256" lon="6.17251">
        <ele>966.5</ele>
        <time>2022-09-11T10:21:00Z</time>
      </trkpt>
      <trkpt lat="44.58259" lon="6.17251">
        <ele>966.8</ele>
        <time>2022-09-11T10:21:01Z</time>
      </trkpt>
      <trkpt lat="44.58262" lon="6.1725">
        <ele>967</ele>
        <time>2022-09-11T10:21:02Z</time>
      </trkpt>
      <trkpt lat="44.58264" lon="6.17249">
        <ele>967.2</ele>
        <time>2022-09-11T10:21:03Z</time>
      </trkpt>
      <trkpt lat="44.58266" lon="6.17248">
        <ele>967.4</ele>
        <time>2022-09-11T10:21:05Z</time>
      </trkpt>
      <trkpt lat="44.58269" lon="6.17247">
        <ele>967.6</ele>
        <time>2022-09-11T10:21:06Z</time>
      </trkpt>
      <trkpt lat="44.58272" lon="6.17246">
        <ele>967.9</ele>
        <time>2022-09-11T10:21:07Z</time>
      </trkpt>
      <trkpt lat="44.58273" lon="6.17246">
        <ele>968</ele>
        <time>2022-09-11T10:21:08Z</time>
      </trkpt>
      <trkpt lat="44.58276" lon="6.17244">
        <ele>968.2</ele>
        <time>2022-09-11T10:21:09Z</time>
      </trkpt>
      <trkpt lat="44.58278" lon="6.17243">
        <ele>968.4</ele>
        <time>2022-09-11T10:21:10Z</time>
      </trkpt>
      <trkpt lat="44.58283" lon="6.17241">
        <ele>968.9</ele>
        <time>2022-09-11T10:21:12Z</time>
      </trkpt>
      <trkpt lat="44.58285" lon="6.1724">
        <ele>969.1</ele>
        <time>2022-09-11T10:21:14Z</time>
      </trkpt>
      <trkpt lat="44.5829" lon="6.17238">
        <ele>969.4</ele>
        <time>2022-09-11T10:21:15Z</time>
      </trkpt>
      <trkpt lat="44.58292" lon="6.17237">
        <ele>969.6</ele>
        <time>2022-09-11T10:21:16Z</time>
      </trkpt>
      <trkpt lat="44.58294" lon="6.17235">
        <ele>969.9</ele>
        <time>2022-09-11T10:21:18Z</time>
      </trkpt>
      <trkpt lat="44.58299" lon="6.17232">
        <ele>970.3</ele>
        <time>2022-09-11T10:21:19Z</time>
      </trkpt>
      <trkpt lat="44.58302" lon="6.17231">
        <ele>970.6</ele>
        <time>2022-09-11T10:21:21Z</time>
      </trkpt>
      <trkpt lat="44.58305" lon="6.17229">
        <ele>970.8</ele>
        <time>2022-09-11T10:21:22Z</time>
      </trkpt>
      <trkpt lat="44.58306" lon="6.17229">
        <ele>970.9</ele>
        <time>2022-09-11T10:21:23Z</time>
      </trkpt>
      <trkpt lat="44.5831" lon="6.17228">
        <ele>971.3</ele>
        <time>2022-09-11T10:21:25Z</time>
      </trkpt>
      <trkpt lat="44.58312" lon="6.17227">
        <ele>971.4</ele>
        <time>2022-09-11T10:21:26Z</time>
      </trkpt>
      <trkpt lat="44.58313" lon="6.17226">
        <ele>971.6</ele>
        <time>2022-09-11T10:21:27Z</time>
      </trkpt>
      <trkpt lat="44.58316" lon="6.17225">
        <ele>971.9</ele>
        <time>2022-09-11T10:21:28Z</time>
      </trkpt>
      <trkpt lat="44.58318" lon="6.17224">
        <ele>972</ele>
        <time>2022-09-11T10:21:29Z</time>
      </trkpt>
      <trkpt lat="44.58322" lon="6.17223">
        <ele>972.4</ele>
        <time>2022-09-11T10:21:30Z</time>
      </trkpt>
      <trkpt lat="44.58326" lon="6.17221">
        <ele>972.8</ele>
        <time>2022-09-11T10:21:32Z</time>
      </trkpt>
      <trkpt lat="44.58328" lon="6.1722">
        <ele>973</ele>
        <time>2022-09-11T10:21:33Z</time>
      </trkpt>
      <trkpt lat="44.58329" lon="6.1722">
        <ele>973.1</ele>
        <time>2022-09-11T10:21:34Z</time>
      </trkpt>
      <trkpt lat="44.58333" lon="6.17216">
        <ele>973.6</ele>
        <time>2022-09-11T10:21:35Z</time>
      </trkpt>
      <trkpt lat="44.58337" lon="6.17214">
        <ele>973.9</ele>
        <time>2022-09-11T10:21:37Z</time>
      </trkpt>
      <trkpt lat="44.58338" lon="6.17213">
        <ele>974</ele>
        <time>2022-09-11T10:21:38Z</time>
      </trkpt>
      <trkpt lat="44.58341" lon="6.17212">
        <ele>974.3</ele>
        <time>2022-09-11T10:21:39Z</time>
      </trkpt>
      <trkpt lat="44.58344" lon="6.17211">
        <ele>974.5</ele>
        <time>2022-09-11T10:21:40Z</time>
      </trkpt>
      <trkpt lat="44.58347" lon="6.17209">
        <ele>974.7</ele>
        <time>2022-09-11T10:21:41Z</time>
      </trkpt>
      <trkpt lat="44.58349" lon="6.17207">
        <ele>974.9</ele>
        <time>2022-09-11T10:21:42Z</time>
      </trkpt>
      <trkpt lat="44.5835" lon="6.17203">
        <ele>975.1</ele>
        <time>2022-09-11T10:21:43Z</time>
      </trkpt>
      <trkpt lat="44.58351" lon="6.17198">
        <ele>975.3</ele>
        <time>2022-09-11T10:21:44Z</time>
      </trkpt>
      <trkpt lat="44.58352" lon="6.17194">
        <ele>975.3</ele>
        <time>2022-09-11T10:21:45Z</time>
      </trkpt>
      <trkpt lat="44.58351" lon="6.17188">
        <ele>975.3</ele>
        <time>2022-09-11T10:21:46Z</time>
      </trkpt>
      <trkpt lat="44.5835" lon="6.17183">
        <ele>975.3</ele>
        <time>2022-09-11T10:21:47Z</time>
      </trkpt>
      <trkpt lat="44.58348" lon="6.17175">
        <ele>975.6</ele>
        <time>2022-09-11T10:21:49Z</time>
      </trkpt>
      <trkpt lat="44.58346" lon="6.17172">
        <ele>975.7</ele>
        <time>2022-09-11T10:21:50Z</time>
      </trkpt>
      <trkpt lat="44.58343" lon="6.17168">
        <ele>976</ele>
        <time>2022-09-11T10:21:51Z</time>
      </trkpt>
      <trkpt lat="44.5834" lon="6.17166">
        <ele>976.2</ele>
        <time>2022-09-11T10:21:52Z</time>
      </trkpt>
      <trkpt lat="44.58336" lon="6.17165">
        <ele>976.4</ele>
        <time>2022-09-11T10:21:53Z</time>
      </trkpt>
      <trkpt lat="44.58333" lon="6.17164">
        <ele>976.7</ele>
        <time>2022-09-11T10:21:55Z</time>
      </trkpt>
      <trkpt lat="44.58332" lon="6.17164">
        <ele>976.8</ele>
        <time>2022-09-11T10:21:56Z</time>
      </trkpt>
      <trkpt lat="44.58328" lon="6.17163">
        <ele>977</ele>
        <time>2022-09-11T10:21:57Z</time>
      </trkpt>
      <trkpt lat="44.58326" lon="6.17163">
        <ele>977.1</ele>
        <time>2022-09-11T10:21:58Z</time>
      </trkpt>
      <trkpt lat="44.58323" lon="6.17163">
        <ele>977.3</ele>
        <time>2022-09-11T10:21:59Z</time>
      </trkpt>
      <trkpt lat="44.58319" lon="6.17162">
        <ele>977.6</ele>
        <time>2022-09-11T10:22:00Z</time>
      </trkpt>
      <trkpt lat="44.58315" lon="6.17161">
        <ele>977.9</ele>
        <time>2022-09-11T10:22:02Z</time>
      </trkpt>
      <trkpt lat="44.5831" lon="6.17159">
        <ele>978.3</ele>
        <time>2022-09-11T10:22:03Z</time>
      </trkpt>
      <trkpt lat="44.58307" lon="6.17158">
        <ele>978.5</ele>
        <time>2022-09-11T10:22:05Z</time>
      </trkpt>
      <trkpt lat="44.58304" lon="6.17157">
        <ele>978.7</ele>
        <time>2022-09-11T10:22:06Z</time>
      </trkpt>
      <trkpt lat="44.58301" lon="6.17156">
        <ele>978.9</ele>
        <time>2022-09-11T10:22:07Z</time>
      </trkpt>
      <trkpt lat="44.58298" lon="6.17155">
        <ele>979.1</ele>
        <time>2022-09-11T10:22:08Z</time>
      </trkpt>
      <trkpt lat="44.58293" lon="6.17153">
        <ele>979.5</ele>
        <time>2022-09-11T10:22:10Z</time>
      </trkpt>
      <trkpt lat="44.58291" lon="6.17153">
        <ele>979.7</ele>
        <time>2022-09-11T10:22:11Z</time>
      </trkpt>
      <trkpt lat="44.5829" lon="6.17153">
        <ele>979.8</ele>
        <time>2022-09-11T10:22:12Z</time>
      </trkpt>
      <trkpt lat="44.58286" lon="6.17152">
        <ele>980.1</ele>
        <time>2022-09-11T10:22:13Z</time>
      </trkpt>
      <trkpt lat="44.58283" lon="6.1715">
        <ele>980.3</ele>
        <time>2022-09-11T10:22:14Z</time>
      </trkpt>
      <trkpt lat="44.5828" lon="6.1715">
        <ele>980.6</ele>
        <time>2022-09-11T10:22:15Z</time>
      </trkpt>
      <trkpt lat="44.58275" lon="6.1715">
        <ele>980.9</ele>
        <time>2022-09-11T10:22:17Z</time>
      </trkpt>
      <trkpt lat="44.58274" lon="6.1715">
        <ele>981</ele>
        <time>2022-09-11T10:22:18Z</time>
      </trkpt>
      <trkpt lat="44.58272" lon="6.1715">
        <ele>981.2</ele>
        <time>2022-09-11T10:22:19Z</time>
      </trkpt>
      <trkpt lat="44.58269" lon="6.1715">
        <ele>981.4</ele>
        <time>2022-09-11T10:22:20Z</time>
      </trkpt>
      <trkpt lat="44.58268" lon="6.1715">
        <ele>981.5</ele>
        <time>2022-09-11T10:22:21Z</time>
      </trkpt>
      <trkpt lat="44.58265" lon="6.1715">
        <ele>981.7</ele>
        <time>2022-09-11T10:22:22Z</time>
      </trkpt>
      <trkpt lat="44.58263" lon="6.1715">
        <ele>981.8</ele>
        <time>2022-09-11T10:22:23Z</time>
      </trkpt>
      <trkpt lat="44.5826" lon="6.17149">
        <ele>982.1</ele>
        <time>2022-09-11T10:22:24Z</time>
      </trkpt>
      <trkpt lat="44.58259" lon="6.17148">
        <ele>982.2</ele>
        <time>2022-09-11T10:22:25Z</time>
      </trkpt>
      <trkpt lat="44.58256" lon="6.17146">
        <ele>982.5</ele>
        <time>2022-09-11T10:22:26Z</time>
      </trkpt>
      <trkpt lat="44.58255" lon="6.17145">
        <ele>982.5</ele>
        <time>2022-09-11T10:22:27Z</time>
      </trkpt>
      <trkpt lat="44.58252" lon="6.17141">
        <ele>982.8</ele>
        <time>2022-09-11T10:22:28Z</time>
      </trkpt>
      <trkpt lat="44.58251" lon="6.1714">
        <ele>982.9</ele>
        <time>2022-09-11T10:22:29Z</time>
      </trkpt>
      <trkpt lat="44.5825" lon="6.17136">
        <ele>983.2</ele>
        <time>2022-09-11T10:22:30Z</time>
      </trkpt>
      <trkpt lat="44.58249" lon="6.17135">
        <ele>983.2</ele>
        <time>2022-09-11T10:22:31Z</time>
      </trkpt>
      <trkpt lat="44.58247" lon="6.1713">
        <ele>983.5</ele>
        <time>2022-09-11T10:22:32Z</time>
      </trkpt>
      <trkpt lat="44.58246" lon="6.17129">
        <ele>983.6</ele>
        <time>2022-09-11T10:22:33Z</time>
      </trkpt>
      <trkpt lat="44.58244" lon="6.17126">
        <ele>983.8</ele>
        <time>2022-09-11T10:22:34Z</time>
      </trkpt>
      <trkpt lat="44.58241" lon="6.17122">
        <ele>984.1</ele>
        <time>2022-09-11T10:22:35Z</time>
      </trkpt>
      <trkpt lat="44.58241" lon="6.1712">
        <ele>984.2</ele>
        <time>2022-09-11T10:22:36Z</time>
      </trkpt>
      <trkpt lat="44.58238" lon="6.17117">
        <ele>984.5</ele>
        <time>2022-09-11T10:22:37Z</time>
      </trkpt>
      <trkpt lat="44.58235" lon="6.17112">
        <ele>984.8</ele>
        <time>2022-09-11T10:22:38Z</time>
      </trkpt>
      <trkpt lat="44.58232" lon="6.17109">
        <ele>985</ele>
        <time>2022-09-11T10:22:40Z</time>
      </trkpt>
      <trkpt lat="44.58229" lon="6.17103">
        <ele>985.4</ele>
        <time>2022-09-11T10:22:41Z</time>
      </trkpt>
      <trkpt lat="44.58228" lon="6.17099">
        <ele>985.6</ele>
        <time>2022-09-11T10:22:43Z</time>
      </trkpt>
      <trkpt lat="44.58226" lon="6.17094">
        <ele>985.9</ele>
        <time>2022-09-11T10:22:45Z</time>
      </trkpt>
      <trkpt lat="44.58226" lon="6.17088">
        <ele>986.2</ele>
        <time>2022-09-11T10:22:46Z</time>
      </trkpt>
      <trkpt lat="44.58225" lon="6.17086">
        <ele>986.3</ele>
        <time>2022-09-11T10:22:47Z</time>
      </trkpt>
      <trkpt lat="44.58226" lon="6.17081">
        <ele>986.5</ele>
        <time>2022-09-11T10:22:48Z</time>
      </trkpt>
      <trkpt lat="44.58227" lon="6.17077">
        <ele>986.7</ele>
        <time>2022-09-11T10:22:49Z</time>
      </trkpt>
      <trkpt lat="44.58228" lon="6.17071">
        <ele>987.1</ele>
        <time>2022-09-11T10:22:51Z</time>
      </trkpt>
      <trkpt lat="44.58228" lon="6.17069">
        <ele>987.2</ele>
        <time>2022-09-11T10:22:52Z</time>
      </trkpt>
      <trkpt lat="44.58228" lon="6.17067">
        <ele>987.3</ele>
        <time>2022-09-11T10:22:53Z</time>
      </trkpt>
      <trkpt lat="44.5823" lon="6.17062">
        <ele>987.6</ele>
        <time>2022-09-11T10:22:54Z</time>
      </trkpt>
      <trkpt lat="44.58231" lon="6.17059">
        <ele>987.8</ele>
        <time>2022-09-11T10:22:55Z</time>
      </trkpt>
      <trkpt lat="44.58232" lon="6.17055">
        <ele>988</ele>
        <time>2022-09-11T10:22:57Z</time>
      </trkpt>
      <trkpt lat="44.58233" lon="6.1705">
        <ele>988.2</ele>
        <time>2022-09-11T10:22:58Z</time>
      </trkpt>
      <trkpt lat="44.58234" lon="6.17049">
        <ele>988.3</ele>
        <time>2022-09-11T10:22:59Z</time>
      </trkpt>
      <trkpt lat="44.58235" lon="6.17042">
        <ele>988.7</ele>
        <time>2022-09-11T10:23:00Z</time>
      </trkpt>
      <trkpt lat="44.58236" lon="6.17039">
        <ele>988.8</ele>
        <time>2022-09-11T10:23:01Z</time>
      </trkpt>
      <trkpt lat="44.58237" lon="6.17034">
        <ele>989.1</ele>
        <time>2022-09-11T10:23:02Z</time>
      </trkpt>
      <trkpt lat="44.58238" lon="6.17028">
        <ele>989.5</ele>
        <time>2022-09-11T10:23:04Z</time>
      </trkpt>
      <trkpt lat="44.58239" lon="6.17025">
        <ele>989.7</ele>
        <time>2022-09-11T10:23:05Z</time>
      </trkpt>
      <trkpt lat="44.5824" lon="6.17021">
        <ele>989.9</ele>
        <time>2022-09-11T10:23:07Z</time>
      </trkpt>
      <trkpt lat="44.5824" lon="6.17018">
        <ele>990</ele>
        <time>2022-09-11T10:23:08Z</time>
      </trkpt>
      <trkpt lat="44.5824" lon="6.17016">
        <ele>990.1</ele>
        <time>2022-09-11T10:23:09Z</time>
      </trkpt>
      <trkpt lat="44.58242" lon="6.1701">
        <ele>990.4</ele>
        <time>2022-09-11T10:23:10Z</time>
      </trkpt>
      <trkpt lat="44.58242" lon="6.17008">
        <ele>990.6</ele>
        <time>2022-09-11T10:23:11Z</time>
      </trkpt>
      <trkpt lat="44.58243" lon="6.17004">
        <ele>990.8</ele>
        <time>2022-09-11T10:23:12Z</time>
      </trkpt>
      <trkpt lat="44.58244" lon="6.17001">
        <ele>991</ele>
        <time>2022-09-11T10:23:14Z</time>
      </trkpt>
      <trkpt lat="44.58246" lon="6.16996">
        <ele>991.2</ele>
        <time>2022-09-11T10:23:15Z</time>
      </trkpt>
      <trkpt lat="44.58247" lon="6.16991">
        <ele>991.5</ele>
        <time>2022-09-11T10:23:16Z</time>
      </trkpt>
      <trkpt lat="44.58249" lon="6.16982">
        <ele>992</ele>
        <time>2022-09-11T10:23:18Z</time>
      </trkpt>
      <trkpt lat="44.5825" lon="6.16978">
        <ele>992.2</ele>
        <time>2022-09-11T10:23:20Z</time>
      </trkpt>
      <trkpt lat="44.58251" lon="6.16974">
        <ele>992.5</ele>
        <time>2022-09-11T10:23:21Z</time>
      </trkpt>
      <trkpt lat="44.58252" lon="6.16969">
        <ele>992.8</ele>
        <time>2022-09-11T10:23:22Z</time>
      </trkpt>
      <trkpt lat="44.58253" lon="6.16967">
        <ele>992.9</ele>
        <time>2022-09-11T10:23:23Z</time>
      </trkpt>
      <trkpt lat="44.58254" lon="6.16962">
        <ele>993.1</ele>
        <time>2022-09-11T10:23:24Z</time>
      </trkpt>
      <trkpt lat="44.58254" lon="6.1696">
        <ele>993.3</ele>
        <time>2022-09-11T10:23:25Z</time>
      </trkpt>
      <trkpt lat="44.58254" lon="6.16956">
        <ele>993.5</ele>
        <time>2022-09-11T10:23:26Z</time>
      </trkpt>
      <trkpt lat="44.58255" lon="6.16951">
        <ele>993.7</ele>
        <time>2022-09-11T10:23:27Z</time>
      </trkpt>
      <trkpt lat="44.58255" lon="6.1695">
        <ele>993.8</ele>
        <time>2022-09-11T10:23:28Z</time>
      </trkpt>
      <trkpt lat="44.58257" lon="6.16945">
        <ele>994</ele>
        <time>2022-09-11T10:23:29Z</time>
      </trkpt>
      <trkpt lat="44.58257" lon="6.16943">
        <ele>994.1</ele>
        <time>2022-09-11T10:23:30Z</time>
      </trkpt>
      <trkpt lat="44.58258" lon="6.16938">
        <ele>994.4</ele>
        <time>2022-09-11T10:23:31Z</time>
      </trkpt>
      <trkpt lat="44.58258" lon="6.16936">
        <ele>994.5</ele>
        <time>2022-09-11T10:23:32Z</time>
      </trkpt>
      <trkpt lat="44.58259" lon="6.16932">
        <ele>994.7</ele>
        <time>2022-09-11T10:23:33Z</time>
      </trkpt>
      <trkpt lat="44.5826" lon="6.16928">
        <ele>994.9</ele>
        <time>2022-09-11T10:23:34Z</time>
      </trkpt>
      <trkpt lat="44.58261" lon="6.16925">
        <ele>995.1</ele>
        <time>2022-09-11T10:23:35Z</time>
      </trkpt>
      <trkpt lat="44.58263" lon="6.1692">
        <ele>995.4</ele>
        <time>2022-09-11T10:23:36Z</time>
      </trkpt>
      <trkpt lat="44.58263" lon="6.16918">
        <ele>995.5</ele>
        <time>2022-09-11T10:23:37Z</time>
      </trkpt>
      <trkpt lat="44.58265" lon="6.16912">
        <ele>995.8</ele>
        <time>2022-09-11T10:23:38Z</time>
      </trkpt>
      <trkpt lat="44.58265" lon="6.16909">
        <ele>996</ele>
        <time>2022-09-11T10:23:39Z</time>
      </trkpt>
      <trkpt lat="44.58267" lon="6.16906">
        <ele>996.2</ele>
        <time>2022-09-11T10:23:41Z</time>
      </trkpt>
      <trkpt lat="44.58268" lon="6.16902">
        <ele>996.4</ele>
        <time>2022-09-11T10:23:42Z</time>
      </trkpt>
      <trkpt lat="44.58269" lon="6.16899">
        <ele>996.6</ele>
        <time>2022-09-11T10:23:43Z</time>
      </trkpt>
      <trkpt lat="44.58271" lon="6.16894">
        <ele>996.9</ele>
        <time>2022-09-11T10:23:44Z</time>
      </trkpt>
      <trkpt lat="44.58271" lon="6.16893">
        <ele>997</ele>
        <time>2022-09-11T10:23:45Z</time>
      </trkpt>
      <trkpt lat="44.58273" lon="6.16888">
        <ele>997.3</ele>
        <time>2022-09-11T10:23:46Z</time>
      </trkpt>
      <trkpt lat="44.58274" lon="6.16886">
        <ele>997.4</ele>
        <time>2022-09-11T10:23:47Z</time>
      </trkpt>
      <trkpt lat="44.58275" lon="6.16882">
        <ele>997.6</ele>
        <time>2022-09-11T10:23:48Z</time>
      </trkpt>
      <trkpt lat="44.58276" lon="6.16881">
        <ele>997.7</ele>
        <time>2022-09-11T10:23:49Z</time>
      </trkpt>
      <trkpt lat="44.58278" lon="6.16876">
        <ele>998</ele>
        <time>2022-09-11T10:23:50Z</time>
      </trkpt>
      <trkpt lat="44.58279" lon="6.16875">
        <ele>998.1</ele>
        <time>2022-09-11T10:23:51Z</time>
      </trkpt>
      <trkpt lat="44.58281" lon="6.16872">
        <ele>998.3</ele>
        <time>2022-09-11T10:23:52Z</time>
      </trkpt>
      <trkpt lat="44.58283" lon="6.1687">
        <ele>998.5</ele>
        <time>2022-09-11T10:23:53Z</time>
      </trkpt>
      <trkpt lat="44.58287" lon="6.16868">
        <ele>998.8</ele>
        <time>2022-09-11T10:23:54Z</time>
      </trkpt>
      <trkpt lat="44.58289" lon="6.16866">
        <ele>999</ele>
        <time>2022-09-11T10:23:55Z</time>
      </trkpt>
      <trkpt lat="44.58293" lon="6.16863">
        <ele>999.4</ele>
        <time>2022-09-11T10:23:57Z</time>
      </trkpt>
      <trkpt lat="44.58295" lon="6.16862">
        <ele>999.5</ele>
        <time>2022-09-11T10:23:58Z</time>
      </trkpt>
      <trkpt lat="44.58298" lon="6.1686">
        <ele>999.8</ele>
        <time>2022-09-11T10:24:00Z</time>
      </trkpt>
      <trkpt lat="44.583" lon="6.1686">
        <ele>1000</ele>
        <time>2022-09-11T10:24:01Z</time>
      </trkpt>
      <trkpt lat="44.58302" lon="6.16859">
        <ele>1000.1</ele>
        <time>2022-09-11T10:24:03Z</time>
      </trkpt>
      <trkpt lat="44.58305" lon="6.16858">
        <ele>1000.4</ele>
        <time>2022-09-11T10:24:04Z</time>
      </trkpt>
      <trkpt lat="44.58306" lon="6.16857">
        <ele>1000.5</ele>
        <time>2022-09-11T10:24:05Z</time>
      </trkpt>
      <trkpt lat="44.58309" lon="6.16856">
        <ele>1000.8</ele>
        <time>2022-09-11T10:24:06Z</time>
      </trkpt>
      <trkpt lat="44.5831" lon="6.16856">
        <ele>1000.9</ele>
        <time>2022-09-11T10:24:07Z</time>
      </trkpt>
      <trkpt lat="44.58314" lon="6.16853">
        <ele>1001.2</ele>
        <time>2022-09-11T10:24:09Z</time>
      </trkpt>
      <trkpt lat="44.58316" lon="6.16852">
        <ele>1001.4</ele>
        <time>2022-09-11T10:24:10Z</time>
      </trkpt>
      <trkpt lat="44.58318" lon="6.16851">
        <ele>1001.5</ele>
        <time>2022-09-11T10:24:11Z</time>
      </trkpt>
      <trkpt lat="44.58321" lon="6.16849">
        <ele>1001.8</ele>
        <time>2022-09-11T10:24:12Z</time>
      </trkpt>
      <trkpt lat="44.58323" lon="6.16846">
        <ele>1002.1</ele>
        <time>2022-09-11T10:24:13Z</time>
      </trkpt>
      <trkpt lat="44.58324" lon="6.16845">
        <ele>1002.1</ele>
        <time>2022-09-11T10:24:14Z</time>
      </trkpt>
      <trkpt lat="44.58327" lon="6.16841">
        <ele>1002.5</ele>
        <time>2022-09-11T10:24:16Z</time>
      </trkpt>
      <trkpt lat="44.58328" lon="6.1684">
        <ele>1002.6</ele>
        <time>2022-09-11T10:24:17Z</time>
      </trkpt>
      <trkpt lat="44.5833" lon="6.16838">
        <ele>1002.8</ele>
        <time>2022-09-11T10:24:19Z</time>
      </trkpt>
      <trkpt lat="44.58334" lon="6.16835">
        <ele>1003.2</ele>
        <time>2022-09-11T10:24:20Z</time>
      </trkpt>
      <trkpt lat="44.58335" lon="6.16834">
        <ele>1003.3</ele>
        <time>2022-09-11T10:24:21Z</time>
      </trkpt>
      <trkpt lat="44.58337" lon="6.16831">
        <ele>1003.5</ele>
        <time>2022-09-11T10:24:23Z</time>
      </trkpt>
      <trkpt lat="44.5834" lon="6.16828">
        <ele>1003.8</ele>
        <time>2022-09-11T10:24:24Z</time>
      </trkpt>
      <trkpt lat="44.58341" lon="6.16828">
        <ele>1003.9</ele>
        <time>2022-09-11T10:24:25Z</time>
      </trkpt>
      <trkpt lat="44.58344" lon="6.16823">
        <ele>1004.3</ele>
        <time>2022-09-11T10:24:26Z</time>
      </trkpt>
      <trkpt lat="44.58346" lon="6.1682">
        <ele>1004.6</ele>
        <time>2022-09-11T10:24:28Z</time>
      </trkpt>
      <trkpt lat="44.58347" lon="6.16819">
        <ele>1004.7</ele>
        <time>2022-09-11T10:24:29Z</time>
      </trkpt>
      <trkpt lat="44.58349" lon="6.16816">
        <ele>1005</ele>
        <time>2022-09-11T10:24:30Z</time>
      </trkpt>
      <trkpt lat="44.5835" lon="6.16814">
        <ele>1005.1</ele>
        <time>2022-09-11T10:24:31Z</time>
      </trkpt>
      <trkpt lat="44.58352" lon="6.16809">
        <ele>1005.5</ele>
        <time>2022-09-11T10:24:32Z</time>
      </trkpt>
      <trkpt lat="44.58353" lon="6.16806">
        <ele>1005.7</ele>
        <time>2022-09-11T10:24:33Z</time>
      </trkpt>
      <trkpt lat="44.58354" lon="6.16804">
        <ele>1005.8</ele>
        <time>2022-09-11T10:24:35Z</time>
      </trkpt>
      <trkpt lat="44.58354" lon="6.16799">
        <ele>1006.1</ele>
        <time>2022-09-11T10:24:36Z</time>
      </trkpt>
      <trkpt lat="44.58355" lon="6.16794">
        <ele>1006.4</ele>
        <time>2022-09-11T10:24:38Z</time>
      </trkpt>
      <trkpt lat="44.58355" lon="6.16792">
        <ele>1006.5</ele>
        <time>2022-09-11T10:24:39Z</time>
      </trkpt>
      <trkpt lat="44.58355" lon="6.16788">
        <ele>1006.7</ele>
        <time>2022-09-11T10:24:40Z</time>
      </trkpt>
      <trkpt lat="44.58355" lon="6.16787">
        <ele>1006.8</ele>
        <time>2022-09-11T10:24:41Z</time>
      </trkpt>
      <trkpt lat="44.58354" lon="6.16784">
        <ele>1007</ele>
        <time>2022-09-11T10:24:42Z</time>
      </trkpt>
      <trkpt lat="44.58354" lon="6.1678">
        <ele>1007.2</ele>
        <time>2022-09-11T10:24:44Z</time>
      </trkpt>
      <trkpt lat="44.58355" lon="6.16775">
        <ele>1007.5</ele>
        <time>2022-09-11T10:24:45Z</time>
      </trkpt>
      <trkpt lat="44.58355" lon="6.16773">
        <ele>1007.6</ele>
        <time>2022-09-11T10:24:46Z</time>
      </trkpt>
      <trkpt lat="44.58354" lon="6.16769">
        <ele>1007.9</ele>
        <time>2022-09-11T10:24:47Z</time>
      </trkpt>
      <trkpt lat="44.58354" lon="6.16767">
        <ele>1008</ele>
        <time>2022-09-11T10:24:48Z</time>
      </trkpt>
      <trkpt lat="44.58355" lon="6.16761">
        <ele>1008.3</ele>
        <time>2022-09-11T10:24:49Z</time>
      </trkpt>
      <trkpt lat="44.58355" lon="6.16758">
        <ele>1008.5</ele>
        <time>2022-09-11T10:24:50Z</time>
      </trkpt>
      <trkpt lat="44.58355" lon="6.16755">
        <ele>1008.7</ele>
        <time>2022-09-11T10:24:52Z</time>
      </trkpt>
      <trkpt lat="44.58357" lon="6.16751">
        <ele>1008.9</ele>
        <time>2022-09-11T10:24:53Z</time>
      </trkpt>
      <trkpt lat="44.58357" lon="6.16747">
        <ele>1009.2</ele>
        <time>2022-09-11T10:24:54Z</time>
      </trkpt>
      <trkpt lat="44.58359" lon="6.16743">
        <ele>1009.4</ele>
        <time>2022-09-11T10:24:56Z</time>
      </trkpt>
      <trkpt lat="44.5836" lon="6.16739">
        <ele>1009.7</ele>
        <time>2022-09-11T10:24:57Z</time>
      </trkpt>
      <trkpt lat="44.58361" lon="6.16736">
        <ele>1009.9</ele>
        <time>2022-09-11T10:24:58Z</time>
      </trkpt>
      <trkpt lat="44.58362" lon="6.16733">
        <ele>1010.1</ele>
        <time>2022-09-11T10:24:59Z</time>
      </trkpt>
      <trkpt lat="44.58364" lon="6.16728">
        <ele>1010.4</ele>
        <time>2022-09-11T10:25:01Z</time>
      </trkpt>
      <trkpt lat="44.58365" lon="6.16724">
        <ele>1010.6</ele>
        <time>2022-09-11T10:25:02Z</time>
      </trkpt>
      <trkpt lat="44.58366" lon="6.16721">
        <ele>1010.8</ele>
        <time>2022-09-11T10:25:03Z</time>
      </trkpt>
      <trkpt lat="44.58368" lon="6.16717">
        <ele>1011.2</ele>
        <time>2022-09-11T10:25:04Z</time>
      </trkpt>
      <trkpt lat="44.58369" lon="6.16715">
        <ele>1011.3</ele>
        <time>2022-09-11T10:25:05Z</time>
      </trkpt>
      <trkpt lat="44.58371" lon="6.16712">
        <ele>1011.5</ele>
        <time>2022-09-11T10:25:06Z</time>
      </trkpt>
      <trkpt lat="44.58372" lon="6.16708">
        <ele>1011.7</ele>
        <time>2022-09-11T10:25:07Z</time>
      </trkpt>
      <trkpt lat="44.58373" lon="6.16705">
        <ele>1012</ele>
        <time>2022-09-11T10:25:08Z</time>
      </trkpt>
      <trkpt lat="44.58374" lon="6.16702">
        <ele>1012.2</ele>
        <time>2022-09-11T10:25:10Z</time>
      </trkpt>
      <trkpt lat="44.58376" lon="6.16698">
        <ele>1012.4</ele>
        <time>2022-09-11T10:25:11Z</time>
      </trkpt>
      <trkpt lat="44.58376" lon="6.16696">
        <ele>1012.5</ele>
        <time>2022-09-11T10:25:12Z</time>
      </trkpt>
      <trkpt lat="44.58377" lon="6.16693">
        <ele>1012.8</ele>
        <time>2022-09-11T10:25:13Z</time>
      </trkpt>
      <trkpt lat="44.58378" lon="6.16691">
        <ele>1012.9</ele>
        <time>2022-09-11T10:25:14Z</time>
      </trkpt>
      <trkpt lat="44.58379" lon="6.16688">
        <ele>1013.1</ele>
        <time>2022-09-11T10:25:15Z</time>
      </trkpt>
      <trkpt lat="44.5838" lon="6.16683">
        <ele>1013.4</ele>
        <time>2022-09-11T10:25:16Z</time>
      </trkpt>
      <trkpt lat="44.58381" lon="6.16682">
        <ele>1013.5</ele>
        <time>2022-09-11T10:25:17Z</time>
      </trkpt>
      <trkpt lat="44.58383" lon="6.16677">
        <ele>1013.8</ele>
        <time>2022-09-11T10:25:18Z</time>
      </trkpt>
      <trkpt lat="44.58384" lon="6.16674">
        <ele>1014</ele>
        <time>2022-09-11T10:25:19Z</time>
      </trkpt>
      <trkpt lat="44.58385" lon="6.16671">
        <ele>1014.1</ele>
        <time>2022-09-11T10:25:21Z</time>
      </trkpt>
      <trkpt lat="44.58387" lon="6.16666">
        <ele>1014.5</ele>
        <time>2022-09-11T10:25:22Z</time>
      </trkpt>
      <trkpt lat="44.58387" lon="6.16663">
        <ele>1014.7</ele>
        <time>2022-09-11T10:25:23Z</time>
      </trkpt>
      <trkpt lat="44.58389" lon="6.16659">
        <ele>1014.9</ele>
        <time>2022-09-11T10:25:25Z</time>
      </trkpt>
      <trkpt lat="44.5839" lon="6.16655">
        <ele>1015.2</ele>
        <time>2022-09-11T10:25:26Z</time>
      </trkpt>
      <trkpt lat="44.5839" lon="6.16653">
        <ele>1015.3</ele>
        <time>2022-09-11T10:25:27Z</time>
      </trkpt>
      <trkpt lat="44.58392" lon="6.16648">
        <ele>1015.6</ele>
        <time>2022-09-11T10:25:28Z</time>
      </trkpt>
      <trkpt lat="44.58392" lon="6.16645">
        <ele>1015.7</ele>
        <time>2022-09-11T10:25:29Z</time>
      </trkpt>
      <trkpt lat="44.58393" lon="6.16641">
        <ele>1016</ele>
        <time>2022-09-11T10:25:30Z</time>
      </trkpt>
      <trkpt lat="44.58394" lon="6.1664">
        <ele>1016</ele>
        <time>2022-09-11T10:25:31Z</time>
      </trkpt>
      <trkpt lat="44.58395" lon="6.16636">
        <ele>1016.2</ele>
        <time>2022-09-11T10:25:32Z</time>
      </trkpt>
      <trkpt lat="44.58396" lon="6.16632">
        <ele>1016.4</ele>
        <time>2022-09-11T10:25:33Z</time>
      </trkpt>
      <trkpt lat="44.58398" lon="6.16627">
        <ele>1016.8</ele>
        <time>2022-09-11T10:25:35Z</time>
      </trkpt>
      <trkpt lat="44.58399" lon="6.16625">
        <ele>1016.9</ele>
        <time>2022-09-11T10:25:36Z</time>
      </trkpt>
      <trkpt lat="44.584" lon="6.16621">
        <ele>1017.1</ele>
        <time>2022-09-11T10:25:37Z</time>
      </trkpt>
      <trkpt lat="44.58402" lon="6.16616">
        <ele>1017.4</ele>
        <time>2022-09-11T10:25:39Z</time>
      </trkpt>
      <trkpt lat="44.58402" lon="6.16615">
        <ele>1017.5</ele>
        <time>2022-09-11T10:25:40Z</time>
      </trkpt>
      <trkpt lat="44.58405" lon="6.16608">
        <ele>1017.9</ele>
        <time>2022-09-11T10:25:42Z</time>
      </trkpt>
      <trkpt lat="44.58406" lon="6.16604">
        <ele>1018.2</ele>
        <time>2022-09-11T10:25:44Z</time>
      </trkpt>
      <trkpt lat="44.58408" lon="6.16601">
        <ele>1018.4</ele>
        <time>2022-09-11T10:25:45Z</time>
      </trkpt>
      <trkpt lat="44.5841" lon="6.16595">
        <ele>1018.8</ele>
        <time>2022-09-11T10:25:47Z</time>
      </trkpt>
      <trkpt lat="44.58411" lon="6.16593">
        <ele>1019</ele>
        <time>2022-09-11T10:25:48Z</time>
      </trkpt>
      <trkpt lat="44.58411" lon="6.16591">
        <ele>1019.1</ele>
        <time>2022-09-11T10:25:49Z</time>
      </trkpt>
      <trkpt lat="44.58413" lon="6.16587">
        <ele>1019.4</ele>
        <time>2022-09-11T10:25:50Z</time>
      </trkpt>
      <trkpt lat="44.58415" lon="6.16583">
        <ele>1019.6</ele>
        <time>2022-09-11T10:25:51Z</time>
      </trkpt>
      <trkpt lat="44.58417" lon="6.16579">
        <ele>1019.9</ele>
        <time>2022-09-11T10:25:52Z</time>
      </trkpt>
      <trkpt lat="44.5842" lon="6.16575">
        <ele>1020.3</ele>
        <time>2022-09-11T10:25:54Z</time>
      </trkpt>
      <trkpt lat="44.58421" lon="6.16574">
        <ele>1020.4</ele>
        <time>2022-09-11T10:25:55Z</time>
      </trkpt>
      <trkpt lat="44.58422" lon="6.16573">
        <ele>1020.5</ele>
        <time>2022-09-11T10:25:56Z</time>
      </trkpt>
      <trkpt lat="44.58426" lon="6.16571">
        <ele>1020.8</ele>
        <time>2022-09-11T10:25:57Z</time>
      </trkpt>
      <trkpt lat="44.58427" lon="6.16571">
        <ele>1020.9</ele>
        <time>2022-09-11T10:25:58Z</time>
      </trkpt>
      <trkpt lat="44.5843" lon="6.1657">
        <ele>1021.2</ele>
        <time>2022-09-11T10:25:59Z</time>
      </trkpt>
      <trkpt lat="44.58431" lon="6.1657">
        <ele>1021.4</ele>
        <time>2022-09-11T10:26:00Z</time>
      </trkpt>
      <trkpt lat="44.58436" lon="6.16569">
        <ele>1021.8</ele>
        <time>2022-09-11T10:26:01Z</time>
      </trkpt>
      <trkpt lat="44.58439" lon="6.16568">
        <ele>1022.1</ele>
        <time>2022-09-11T10:26:02Z</time>
      </trkpt>
      <trkpt lat="44.58443" lon="6.16566">
        <ele>1022.5</ele>
        <time>2022-09-11T10:26:04Z</time>
      </trkpt>
      <trkpt lat="44.58445" lon="6.16565">
        <ele>1022.7</ele>
        <time>2022-09-11T10:26:06Z</time>
      </trkpt>
      <trkpt lat="44.58449" lon="6.16562">
        <ele>1023.1</ele>
        <time>2022-09-11T10:26:07Z</time>
      </trkpt>
      <trkpt lat="44.58451" lon="6.1656">
        <ele>1023.3</ele>
        <time>2022-09-11T10:26:08Z</time>
      </trkpt>
      <trkpt lat="44.58452" lon="6.16553">
        <ele>1023.7</ele>
        <time>2022-09-11T10:26:10Z</time>
      </trkpt>
      <trkpt lat="44.58452" lon="6.16548">
        <ele>1023.9</ele>
        <time>2022-09-11T10:26:12Z</time>
      </trkpt>
      <trkpt lat="44.58451" lon="6.16544">
        <ele>1024.1</ele>
        <time>2022-09-11T10:26:13Z</time>
      </trkpt>
      <trkpt lat="44.5845" lon="6.1654">
        <ele>1024.3</ele>
        <time>2022-09-11T10:26:14Z</time>
      </trkpt>
      <trkpt lat="44.58449" lon="6.16536">
        <ele>1024.4</ele>
        <time>2022-09-11T10:26:15Z</time>
      </trkpt>
      <trkpt lat="44.58447" lon="6.1653">
        <ele>1024.7</ele>
        <time>2022-09-11T10:26:16Z</time>
      </trkpt>
      <trkpt lat="44.58446" lon="6.16527">
        <ele>1024.9</ele>
        <time>2022-09-11T10:26:18Z</time>
      </trkpt>
      <trkpt lat="44.58445" lon="6.16523">
        <ele>1025.1</ele>
        <time>2022-09-11T10:26:19Z</time>
      </trkpt>
      <trkpt lat="44.58444" lon="6.16518">
        <ele>1025.4</ele>
        <time>2022-09-11T10:26:20Z</time>
      </trkpt>
      <trkpt lat="44.58443" lon="6.16516">
        <ele>1025.5</ele>
        <time>2022-09-11T10:26:21Z</time>
      </trkpt>
      <trkpt lat="44.58443" lon="6.16512">
        <ele>1025.7</ele>
        <time>2022-09-11T10:26:22Z</time>
      </trkpt>
      <trkpt lat="44.58442" lon="6.16507">
        <ele>1025.9</ele>
        <time>2022-09-11T10:26:23Z</time>
      </trkpt>
      <trkpt lat="44.58442" lon="6.16505">
        <ele>1026</ele>
        <time>2022-09-11T10:26:24Z</time>
      </trkpt>
      <trkpt lat="44.58443" lon="6.16501">
        <ele>1026.2</ele>
        <time>2022-09-11T10:26:25Z</time>
      </trkpt>
      <trkpt lat="44.58443" lon="6.165">
        <ele>1026.3</ele>
        <time>2022-09-11T10:26:26Z</time>
      </trkpt>
      <trkpt lat="44.58444" lon="6.16496">
        <ele>1026.5</ele>
        <time>2022-09-11T10:26:27Z</time>
      </trkpt>
      <trkpt lat="44.58444" lon="6.16494">
        <ele>1026.6</ele>
        <time>2022-09-11T10:26:28Z</time>
      </trkpt>
      <trkpt lat="44.58445" lon="6.16491">
        <ele>1026.8</ele>
        <time>2022-09-11T10:26:29Z</time>
      </trkpt>
      <trkpt lat="44.58446" lon="6.16486">
        <ele>1027</ele>
        <time>2022-09-11T10:26:31Z</time>
      </trkpt>
      <trkpt lat="44.58448" lon="6.16482">
        <ele>1027.3</ele>
        <time>2022-09-11T10:26:32Z</time>
      </trkpt>
      <trkpt lat="44.58449" lon="6.16481">
        <ele>1027.3</ele>
        <time>2022-09-11T10:26:33Z</time>
      </trkpt>
      <trkpt lat="44.58451" lon="6.16477">
        <ele>1027.6</ele>
        <time>2022-09-11T10:26:34Z</time>
      </trkpt>
      <trkpt lat="44.58451" lon="6.16475">
        <ele>1027.7</ele>
        <time>2022-09-11T10:26:35Z</time>
      </trkpt>
      <trkpt lat="44.58454" lon="6.16471">
        <ele>1028</ele>
        <time>2022-09-11T10:26:36Z</time>
      </trkpt>
      <trkpt lat="44.58454" lon="6.16469">
        <ele>1028.1</ele>
        <time>2022-09-11T10:26:37Z</time>
      </trkpt>
      <trkpt lat="44.58456" lon="6.16464">
        <ele>1028.4</ele>
        <time>2022-09-11T10:26:38Z</time>
      </trkpt>
      <trkpt lat="44.58457" lon="6.16462">
        <ele>1028.5</ele>
        <time>2022-09-11T10:26:39Z</time>
      </trkpt>
      <trkpt lat="44.58459" lon="6.16458">
        <ele>1028.8</ele>
        <time>2022-09-11T10:26:41Z</time>
      </trkpt>
      <trkpt lat="44.5846" lon="6.16456">
        <ele>1028.9</ele>
        <time>2022-09-11T10:26:42Z</time>
      </trkpt>
      <trkpt lat="44.58461" lon="6.16451">
        <ele>1029.2</ele>
        <time>2022-09-11T10:26:43Z</time>
      </trkpt>
      <trkpt lat="44.58461" lon="6.1645">
        <ele>1029.3</ele>
        <time>2022-09-11T10:26:44Z</time>
      </trkpt>
      <trkpt lat="44.58464" lon="6.16445">
        <ele>1029.6</ele>
        <time>2022-09-11T10:26:45Z</time>
      </trkpt>
      <trkpt lat="44.58464" lon="6.16443">
        <ele>1029.7</ele>
        <time>2022-09-11T10:26:46Z</time>
      </trkpt>
      <trkpt lat="44.58466" lon="6.16439">
        <ele>1030</ele>
        <time>2022-09-11T10:26:47Z</time>
      </trkpt>
      <trkpt lat="44.58467" lon="6.16435">
        <ele>1030.2</ele>
        <time>2022-09-11T10:26:48Z</time>
      </trkpt>
      <trkpt lat="44.58468" lon="6.16431">
        <ele>1030.4</ele>
        <time>2022-09-11T10:26:49Z</time>
      </trkpt>
      <trkpt lat="44.58469" lon="6.16427">
        <ele>1030.6</ele>
        <time>2022-09-11T10:26:51Z</time>
      </trkpt>
      <trkpt lat="44.58469" lon="6.16426">
        <ele>1030.7</ele>
        <time>2022-09-11T10:26:52Z</time>
      </trkpt>
      <trkpt lat="44.58471" lon="6.16421">
        <ele>1031</ele>
        <time>2022-09-11T10:26:53Z</time>
      </trkpt>
      <trkpt lat="44.58471" lon="6.1642">
        <ele>1031.1</ele>
        <time>2022-09-11T10:26:54Z</time>
      </trkpt>
      <trkpt lat="44.58473" lon="6.16416">
        <ele>1031.3</ele>
        <time>2022-09-11T10:26:55Z</time>
      </trkpt>
      <trkpt lat="44.58474" lon="6.16412">
        <ele>1031.5</ele>
        <time>2022-09-11T10:26:56Z</time>
      </trkpt>
      <trkpt lat="44.58475" lon="6.16407">
        <ele>1031.7</ele>
        <time>2022-09-11T10:26:57Z</time>
      </trkpt>
      <trkpt lat="44.58476" lon="6.16406">
        <ele>1031.8</ele>
        <time>2022-09-11T10:26:58Z</time>
      </trkpt>
      <trkpt lat="44.58478" lon="6.16401">
        <ele>1032.1</ele>
        <time>2022-09-11T10:26:59Z</time>
      </trkpt>
      <trkpt lat="44.58478" lon="6.164">
        <ele>1032.2</ele>
        <time>2022-09-11T10:27:00Z</time>
      </trkpt>
      <trkpt lat="44.5848" lon="6.16397">
        <ele>1032.4</ele>
        <time>2022-09-11T10:27:01Z</time>
      </trkpt>
      <trkpt lat="44.58482" lon="6.16392">
        <ele>1032.7</ele>
        <time>2022-09-11T10:27:02Z</time>
      </trkpt>
      <trkpt lat="44.58483" lon="6.16391">
        <ele>1032.7</ele>
        <time>2022-09-11T10:27:03Z</time>
      </trkpt>
      <trkpt lat="44.58486" lon="6.16387">
        <ele>1033</ele>
        <time>2022-09-11T10:27:04Z</time>
      </trkpt>
      <trkpt lat="44.58487" lon="6.16385">
        <ele>1033.1</ele>
        <time>2022-09-11T10:27:05Z</time>
      </trkpt>
      <trkpt lat="44.5849" lon="6.16383">
        <ele>1033.4</ele>
        <time>2022-09-11T10:27:06Z</time>
      </trkpt>
      <trkpt lat="44.58491" lon="6.16382">
        <ele>1033.5</ele>
        <time>2022-09-11T10:27:07Z</time>
      </trkpt>
      <trkpt lat="44.58494" lon="6.1638">
        <ele>1033.8</ele>
        <time>2022-09-11T10:27:08Z</time>
      </trkpt>
      <trkpt lat="44.58496" lon="6.1638">
        <ele>1033.9</ele>
        <time>2022-09-11T10:27:09Z</time>
      </trkpt>
      <trkpt lat="44.58499" lon="6.1638">
        <ele>1034.2</ele>
        <time>2022-09-11T10:27:10Z</time>
      </trkpt>
      <trkpt lat="44.585" lon="6.1638">
        <ele>1034.3</ele>
        <time>2022-09-11T10:27:11Z</time>
      </trkpt>
      <trkpt lat="44.58503" lon="6.1638">
        <ele>1034.6</ele>
        <time>2022-09-11T10:27:12Z</time>
      </trkpt>
      <trkpt lat="44.58504" lon="6.1638">
        <ele>1034.7</ele>
        <time>2022-09-11T10:27:13Z</time>
      </trkpt>
      <trkpt lat="44.58507" lon="6.1638">
        <ele>1034.9</ele>
        <time>2022-09-11T10:27:14Z</time>
      </trkpt>
      <trkpt lat="44.58508" lon="6.1638">
        <ele>1035.1</ele>
        <time>2022-09-11T10:27:15Z</time>
      </trkpt>
      <trkpt lat="44.58512" lon="6.1638">
        <ele>1035.3</ele>
        <time>2022-09-11T10:27:16Z</time>
      </trkpt>
      <trkpt lat="44.58513" lon="6.1638">
        <ele>1035.4</ele>
        <time>2022-09-11T10:27:17Z</time>
      </trkpt>
      <trkpt lat="44.58516" lon="6.1638">
        <ele>1035.7</ele>
        <time>2022-09-11T10:27:18Z</time>
      </trkpt>
      <trkpt lat="44.58517" lon="6.1638">
        <ele>1035.8</ele>
        <time>2022-09-11T10:27:19Z</time>
      </trkpt>
      <trkpt lat="44.5852" lon="6.16379">
        <ele>1036.1</ele>
        <time>2022-09-11T10:27:20Z</time>
      </trkpt>
      <trkpt lat="44.58521" lon="6.16379">
        <ele>1036.2</ele>
        <time>2022-09-11T10:27:21Z</time>
      </trkpt>
      <trkpt lat="44.58523" lon="6.16378">
        <ele>1036.5</ele>
        <time>2022-09-11T10:27:22Z</time>
      </trkpt>
      <trkpt lat="44.58527" lon="6.16376">
        <ele>1036.8</ele>
        <time>2022-09-11T10:27:23Z</time>
      </trkpt>
      <trkpt lat="44.58528" lon="6.16375">
        <ele>1036.9</ele>
        <time>2022-09-11T10:27:24Z</time>
      </trkpt>
      <trkpt lat="44.58531" lon="6.16374">
        <ele>1037.2</ele>
        <time>2022-09-11T10:27:25Z</time>
      </trkpt>
      <trkpt lat="44.58532" lon="6.16373">
        <ele>1037.3</ele>
        <time>2022-09-11T10:27:26Z</time>
      </trkpt>
      <trkpt lat="44.58536" lon="6.16372">
        <ele>1037.6</ele>
        <time>2022-09-11T10:27:28Z</time>
      </trkpt>
      <trkpt lat="44.58537" lon="6.16372">
        <ele>1037.7</ele>
        <time>2022-09-11T10:27:29Z</time>
      </trkpt>
      <trkpt lat="44.58541" lon="6.16371">
        <ele>1038</ele>
        <time>2022-09-11T10:27:30Z</time>
      </trkpt>
      <trkpt lat="44.58545" lon="6.16369">
        <ele>1038.4</ele>
        <time>2022-09-11T10:27:32Z</time>
      </trkpt>
      <trkpt lat="44.58547" lon="6.16368">
        <ele>1038.5</ele>
        <time>2022-09-11T10:27:33Z</time>
      </trkpt>
      <trkpt lat="44.58548" lon="6.16368">
        <ele>1038.6</ele>
        <time>2022-09-11T10:27:34Z</time>
      </trkpt>
      <trkpt lat="44.58552" lon="6.16365">
        <ele>1038.9</ele>
        <time>2022-09-11T10:27:35Z</time>
      </trkpt>
      <trkpt lat="44.58555" lon="6.16363">
        <ele>1039.2</ele>
        <time>2022-09-11T10:27:36Z</time>
      </trkpt>
      <trkpt lat="44.58558" lon="6.16361">
        <ele>1039.4</ele>
        <time>2022-09-11T10:27:37Z</time>
      </trkpt>
      <trkpt lat="44.5856" lon="6.16359">
        <ele>1039.6</ele>
        <time>2022-09-11T10:27:39Z</time>
      </trkpt>
      <trkpt lat="44.58562" lon="6.16355">
        <ele>1039.9</ele>
        <time>2022-09-11T10:27:40Z</time>
      </trkpt>
      <trkpt lat="44.58563" lon="6.16354">
        <ele>1040</ele>
        <time>2022-09-11T10:27:41Z</time>
      </trkpt>
      <trkpt lat="44.58564" lon="6.1635">
        <ele>1040.2</ele>
        <time>2022-09-11T10:27:42Z</time>
      </trkpt>
      <trkpt lat="44.58565" lon="6.16345">
        <ele>1040.4</ele>
        <time>2022-09-11T10:27:43Z</time>
      </trkpt>
      <trkpt lat="44.58566" lon="6.16344">
        <ele>1040.5</ele>
        <time>2022-09-11T10:27:44Z</time>
      </trkpt>
      <trkpt lat="44.58566" lon="6.16338">
        <ele>1040.8</ele>
        <time>2022-09-11T10:27:45Z</time>
      </trkpt>
      <trkpt lat="44.58565" lon="6.16336">
        <ele>1040.9</ele>
        <time>2022-09-11T10:27:46Z</time>
      </trkpt>
      <trkpt lat="44.58564" lon="6.16332">
        <ele>1041.1</ele>
        <time>2022-09-11T10:27:47Z</time>
      </trkpt>
      <trkpt lat="44.58563" lon="6.16329">
        <ele>1041.3</ele>
        <time>2022-09-11T10:27:48Z</time>
      </trkpt>
      <trkpt lat="44.5856" lon="6.16325">
        <ele>1041.5</ele>
        <time>2022-09-11T10:27:49Z</time>
      </trkpt>
      <trkpt lat="44.58558" lon="6.16322">
        <ele>1041.7</ele>
        <time>2022-09-11T10:27:50Z</time>
      </trkpt>
      <trkpt lat="44.58553" lon="6.16318">
        <ele>1042.1</ele>
        <time>2022-09-11T10:27:51Z</time>
      </trkpt>
      <trkpt lat="44.5855" lon="6.16316">
        <ele>1042.4</ele>
        <time>2022-09-11T10:27:53Z</time>
      </trkpt>
      <trkpt lat="44.58547" lon="6.16316">
        <ele>1042.6</ele>
        <time>2022-09-11T10:27:54Z</time>
      </trkpt>
      <trkpt lat="44.58544" lon="6.16314">
        <ele>1042.9</ele>
        <time>2022-09-11T10:27:55Z</time>
      </trkpt>
      <trkpt lat="44.58542" lon="6.16313">
        <ele>1043</ele>
        <time>2022-09-11T10:27:56Z</time>
      </trkpt>
      <trkpt lat="44.58539" lon="6.16311">
        <ele>1043.3</ele>
        <time>2022-09-11T10:27:57Z</time>
      </trkpt>
      <trkpt lat="44.58537" lon="6.1631">
        <ele>1043.4</ele>
        <time>2022-09-11T10:27:58Z</time>
      </trkpt>
      <trkpt lat="44.58535" lon="6.16308">
        <ele>1043.6</ele>
        <time>2022-09-11T10:27:59Z</time>
      </trkpt>
      <trkpt lat="44.58533" lon="6.16305">
        <ele>1043.8</ele>
        <time>2022-09-11T10:28:00Z</time>
      </trkpt>
      <trkpt lat="44.58531" lon="6.16303">
        <ele>1044</ele>
        <time>2022-09-11T10:28:01Z</time>
      </trkpt>
      <trkpt lat="44.58529" lon="6.16298">
        <ele>1044.4</ele>
        <time>2022-09-11T10:28:02Z</time>
      </trkpt>
      <trkpt lat="44.58529" lon="6.16296">
        <ele>1044.5</ele>
        <time>2022-09-11T10:28:03Z</time>
      </trkpt>
      <trkpt lat="44.58528" lon="6.16293">
        <ele>1044.8</ele>
        <time>2022-09-11T10:28:04Z</time>
      </trkpt>
      <trkpt lat="44.58529" lon="6.16289">
        <ele>1045</ele>
        <time>2022-09-11T10:28:05Z</time>
      </trkpt>
      <trkpt lat="44.58531" lon="6.16284">
        <ele>1045.3</ele>
        <time>2022-09-11T10:28:06Z</time>
      </trkpt>
      <trkpt lat="44.58531" lon="6.16282">
        <ele>1045.4</ele>
        <time>2022-09-11T10:28:07Z</time>
      </trkpt>
      <trkpt lat="44.58533" lon="6.1628">
        <ele>1045.6</ele>
        <time>2022-09-11T10:28:08Z</time>
      </trkpt>
      <trkpt lat="44.58537" lon="6.16275">
        <ele>1046</ele>
        <time>2022-09-11T10:28:09Z</time>
      </trkpt>
      <trkpt lat="44.58538" lon="6.16274">
        <ele>1046.2</ele>
        <time>2022-09-11T10:28:10Z</time>
      </trkpt>
      <trkpt lat="44.58541" lon="6.16272">
        <ele>1046.4</ele>
        <time>2022-09-11T10:28:12Z</time>
      </trkpt>
      <trkpt lat="44.58544" lon="6.16269">
        <ele>1046.7</ele>
        <time>2022-09-11T10:28:13Z</time>
      </trkpt>
      <trkpt lat="44.58547" lon="6.16266">
        <ele>1046.9</ele>
        <time>2022-09-11T10:28:14Z</time>
      </trkpt>
      <trkpt lat="44.5855" lon="6.16265">
        <ele>1047.1</ele>
        <time>2022-09-11T10:28:15Z</time>
      </trkpt>
      <trkpt lat="44.58551" lon="6.16264">
        <ele>1047.2</ele>
        <time>2022-09-11T10:28:16Z</time>
      </trkpt>
      <trkpt lat="44.58554" lon="6.16262">
        <ele>1047.5</ele>
        <time>2022-09-11T10:28:17Z</time>
      </trkpt>
      <trkpt lat="44.58558" lon="6.1626">
        <ele>1047.8</ele>
        <time>2022-09-11T10:28:19Z</time>
      </trkpt>
      <trkpt lat="44.58559" lon="6.1626">
        <ele>1047.8</ele>
        <time>2022-09-11T10:28:20Z</time>
      </trkpt>
      <trkpt lat="44.58562" lon="6.16259">
        <ele>1048.1</ele>
        <time>2022-09-11T10:28:21Z</time>
      </trkpt>
      <trkpt lat="44.58565" lon="6.16258">
        <ele>1048.4</ele>
        <time>2022-09-11T10:28:22Z</time>
      </trkpt>
      <trkpt lat="44.58567" lon="6.16258">
        <ele>1048.5</ele>
        <time>2022-09-11T10:28:23Z</time>
      </trkpt>
      <trkpt lat="44.5857" lon="6.16258">
        <ele>1048.7</ele>
        <time>2022-09-11T10:28:25Z</time>
      </trkpt>
      <trkpt lat="44.58574" lon="6.16258">
        <ele>1049</ele>
        <time>2022-09-11T10:28:26Z</time>
      </trkpt>
      <trkpt lat="44.58579" lon="6.16258">
        <ele>1049.4</ele>
        <time>2022-09-11T10:28:28Z</time>
      </trkpt>
      <trkpt lat="44.58581" lon="6.16258">
        <ele>1049.6</ele>
        <time>2022-09-11T10:28:30Z</time>
      </trkpt>
      <trkpt lat="44.58585" lon="6.16258">
        <ele>1049.9</ele>
        <time>2022-09-11T10:28:31Z</time>
      </trkpt>
      <trkpt lat="44.58586" lon="6.16258">
        <ele>1049.9</ele>
        <time>2022-09-11T10:28:32Z</time>
      </trkpt>
      <trkpt lat="44.58589" lon="6.16257">
        <ele>1050.2</ele>
        <time>2022-09-11T10:28:33Z</time>
      </trkpt>
      <trkpt lat="44.5859" lon="6.16257">
        <ele>1050.3</ele>
        <time>2022-09-11T10:28:34Z</time>
      </trkpt>
      <trkpt lat="44.58593" lon="6.16258">
        <ele>1050.6</ele>
        <time>2022-09-11T10:28:35Z</time>
      </trkpt>
      <trkpt lat="44.58595" lon="6.16258">
        <ele>1050.7</ele>
        <time>2022-09-11T10:28:36Z</time>
      </trkpt>
      <trkpt lat="44.58598" lon="6.16259">
        <ele>1051</ele>
        <time>2022-09-11T10:28:37Z</time>
      </trkpt>
      <trkpt lat="44.58602" lon="6.16259">
        <ele>1051.3</ele>
        <time>2022-09-11T10:28:39Z</time>
      </trkpt>
      <trkpt lat="44.58603" lon="6.1626">
        <ele>1051.4</ele>
        <time>2022-09-11T10:28:40Z</time>
      </trkpt>
      <trkpt lat="44.58606" lon="6.1626">
        <ele>1051.7</ele>
        <time>2022-09-11T10:28:41Z</time>
      </trkpt>
      <trkpt lat="44.58608" lon="6.1626">
        <ele>1051.8</ele>
        <time>2022-09-11T10:28:42Z</time>
      </trkpt>
      <trkpt lat="44.5861" lon="6.1626">
        <ele>1052</ele>
        <time>2022-09-11T10:28:44Z</time>
      </trkpt>
      <trkpt lat="44.58613" lon="6.1626">
        <ele>1052.3</ele>
        <time>2022-09-11T10:28:45Z</time>
      </trkpt>
      <trkpt lat="44.58615" lon="6.1626">
        <ele>1052.5</ele>
        <time>2022-09-11T10:28:46Z</time>
      </trkpt>
      <trkpt lat="44.58619" lon="6.16261">
        <ele>1052.8</ele>
        <time>2022-09-11T10:28:47Z</time>
      </trkpt>
      <trkpt lat="44.5862" lon="6.16262">
        <ele>1052.9</ele>
        <time>2022-09-11T10:28:48Z</time>
      </trkpt>
      <trkpt lat="44.58624" lon="6.16261">
        <ele>1053.2</ele>
        <time>2022-09-11T10:28:49Z</time>
      </trkpt>
      <trkpt lat="44.58627" lon="6.16259">
        <ele>1053.5</ele>
        <time>2022-09-11T10:28:51Z</time>
      </trkpt>
      <trkpt lat="44.5863" lon="6.16258">
        <ele>1053.7</ele>
        <time>2022-09-11T10:28:52Z</time>
      </trkpt>
      <trkpt lat="44.58633" lon="6.16255">
        <ele>1054</ele>
        <time>2022-09-11T10:28:53Z</time>
      </trkpt>
      <trkpt lat="44.58635" lon="6.16253">
        <ele>1054.1</ele>
        <time>2022-09-11T10:28:54Z</time>
      </trkpt>
      <trkpt lat="44.58638" lon="6.16249">
        <ele>1054.5</ele>
        <time>2022-09-11T10:28:55Z</time>
      </trkpt>
      <trkpt lat="44.58641" lon="6.16246">
        <ele>1054.7</ele>
        <time>2022-09-11T10:28:57Z</time>
      </trkpt>
      <trkpt lat="44.58643" lon="6.16244">
        <ele>1054.9</ele>
        <time>2022-09-11T10:28:58Z</time>
      </trkpt>
      <trkpt lat="44.58645" lon="6.16241">
        <ele>1055.1</ele>
        <time>2022-09-11T10:28:59Z</time>
      </trkpt>
      <trkpt lat="44.58648" lon="6.16239">
        <ele>1055.4</ele>
        <time>2022-09-11T10:29:01Z</time>
      </trkpt>
      <trkpt lat="44.58652" lon="6.16237">
        <ele>1055.7</ele>
        <time>2022-09-11T10:29:02Z</time>
      </trkpt>
      <trkpt lat="44.58653" lon="6.16236">
        <ele>1055.8</ele>
        <time>2022-09-11T10:29:03Z</time>
      </trkpt>
      <trkpt lat="44.58656" lon="6.16235">
        <ele>1056</ele>
        <time>2022-09-11T10:29:04Z</time>
      </trkpt>
      <trkpt lat="44.58659" lon="6.16235">
        <ele>1056.3</ele>
        <time>2022-09-11T10:29:05Z</time>
      </trkpt>
      <trkpt lat="44.5866" lon="6.16234">
        <ele>1056.3</ele>
        <time>2022-09-11T10:29:06Z</time>
      </trkpt>
      <trkpt lat="44.58664" lon="6.16235">
        <ele>1056.6</ele>
        <time>2022-09-11T10:29:07Z</time>
      </trkpt>
      <trkpt lat="44.58665" lon="6.16235">
        <ele>1056.7</ele>
        <time>2022-09-11T10:29:08Z</time>
      </trkpt>
      <trkpt lat="44.58669" lon="6.16236">
        <ele>1057.1</ele>
        <time>2022-09-11T10:29:10Z</time>
      </trkpt>
      <trkpt lat="44.58671" lon="6.16236">
        <ele>1057.2</ele>
        <time>2022-09-11T10:29:11Z</time>
      </trkpt>
      <trkpt lat="44.58675" lon="6.16234">
        <ele>1057.5</ele>
        <time>2022-09-11T10:29:13Z</time>
      </trkpt>
      <trkpt lat="44.58678" lon="6.16231">
        <ele>1057.8</ele>
        <time>2022-09-11T10:29:15Z</time>
      </trkpt>
      <trkpt lat="44.58678" lon="6.1623">
        <ele>1057.9</ele>
        <time>2022-09-11T10:29:16Z</time>
      </trkpt>
      <trkpt lat="44.5868" lon="6.16225">
        <ele>1058.2</ele>
        <time>2022-09-11T10:29:17Z</time>
      </trkpt>
      <trkpt lat="44.58682" lon="6.16221">
        <ele>1058.4</ele>
        <time>2022-09-11T10:29:18Z</time>
      </trkpt>
      <trkpt lat="44.58682" lon="6.16213">
        <ele>1058.8</ele>
        <time>2022-09-11T10:29:20Z</time>
      </trkpt>
      <trkpt lat="44.58682" lon="6.1621">
        <ele>1058.9</ele>
        <time>2022-09-11T10:29:21Z</time>
      </trkpt>
      <trkpt lat="44.58681" lon="6.16207">
        <ele>1059.1</ele>
        <time>2022-09-11T10:29:22Z</time>
      </trkpt>
      <trkpt lat="44.5868" lon="6.16204">
        <ele>1059.3</ele>
        <time>2022-09-11T10:29:23Z</time>
      </trkpt>
      <trkpt lat="44.58677" lon="6.16199">
        <ele>1059.6</ele>
        <time>2022-09-11T10:29:24Z</time>
      </trkpt>
      <trkpt lat="44.58676" lon="6.16198">
        <ele>1059.7</ele>
        <time>2022-09-11T10:29:25Z</time>
      </trkpt>
      <trkpt lat="44.58673" lon="6.16195">
        <ele>1059.9</ele>
        <time>2022-09-11T10:29:26Z</time>
      </trkpt>
      <trkpt lat="44.5867" lon="6.16193">
        <ele>1060.1</ele>
        <time>2022-09-11T10:29:28Z</time>
      </trkpt>
      <trkpt lat="44.58666" lon="6.16189">
        <ele>1060.4</ele>
        <time>2022-09-11T10:29:29Z</time>
      </trkpt>
      <trkpt lat="44.58664" lon="6.16187">
        <ele>1060.6</ele>
        <time>2022-09-11T10:29:31Z</time>
      </trkpt>
      <trkpt lat="44.58661" lon="6.16185">
        <ele>1060.8</ele>
        <time>2022-09-11T10:29:32Z</time>
      </trkpt>
      <trkpt lat="44.58658" lon="6.16183">
        <ele>1061</ele>
        <time>2022-09-11T10:29:33Z</time>
      </trkpt>
      <trkpt lat="44.58657" lon="6.16182">
        <ele>1061.1</ele>
        <time>2022-09-11T10:29:34Z</time>
      </trkpt>
      <trkpt lat="44.58654" lon="6.1618">
        <ele>1061.3</ele>
        <time>2022-09-11T10:29:35Z</time>
      </trkpt>
      <trkpt lat="44.58652" lon="6.1618">
        <ele>1061.4</ele>
        <time>2022-09-11T10:29:36Z</time>
      </trkpt>
      <trkpt lat="44.58649" lon="6.16178">
        <ele>1061.7</ele>
        <time>2022-09-11T10:29:37Z</time>
      </trkpt>
      <trkpt lat="44.58648" lon="6.16177">
        <ele>1061.8</ele>
        <time>2022-09-11T10:29:38Z</time>
      </trkpt>
      <trkpt lat="44.58645" lon="6.16175">
        <ele>1062</ele>
        <time>2022-09-11T10:29:39Z</time>
      </trkpt>
      <trkpt lat="44.58644" lon="6.16174">
        <ele>1062.1</ele>
        <time>2022-09-11T10:29:40Z</time>
      </trkpt>
      <trkpt lat="44.58641" lon="6.16172">
        <ele>1062.3</ele>
        <time>2022-09-11T10:29:41Z</time>
      </trkpt>
      <trkpt lat="44.5864" lon="6.16171">
        <ele>1062.4</ele>
        <time>2022-09-11T10:29:42Z</time>
      </trkpt>
      <trkpt lat="44.58638" lon="6.16167">
        <ele>1062.6</ele>
        <time>2022-09-11T10:29:43Z</time>
      </trkpt>
      <trkpt lat="44.58637" lon="6.16166">
        <ele>1062.7</ele>
        <time>2022-09-11T10:29:44Z</time>
      </trkpt>
      <trkpt lat="44.58635" lon="6.16162">
        <ele>1063</ele>
        <time>2022-09-11T10:29:45Z</time>
      </trkpt>
      <trkpt lat="44.58635" lon="6.1616">
        <ele>1063.1</ele>
        <time>2022-09-11T10:29:46Z</time>
      </trkpt>
      <trkpt lat="44.58633" lon="6.16156">
        <ele>1063.4</ele>
        <time>2022-09-11T10:29:47Z</time>
      </trkpt>
      <trkpt lat="44.58632" lon="6.16155">
        <ele>1063.4</ele>
        <time>2022-09-11T10:29:48Z</time>
      </trkpt>
      <trkpt lat="44.58631" lon="6.16151">
        <ele>1063.7</ele>
        <time>2022-09-11T10:29:49Z</time>
      </trkpt>
      <trkpt lat="44.5863" lon="6.1615">
        <ele>1063.8</ele>
        <time>2022-09-11T10:29:50Z</time>
      </trkpt>
      <trkpt lat="44.58629" lon="6.16145">
        <ele>1064.1</ele>
        <time>2022-09-11T10:29:51Z</time>
      </trkpt>
      <trkpt lat="44.58629" lon="6.16143">
        <ele>1064.2</ele>
        <time>2022-09-11T10:29:52Z</time>
      </trkpt>
      <trkpt lat="44.58628" lon="6.16137">
        <ele>1064.5</ele>
        <time>2022-09-11T10:29:53Z</time>
      </trkpt>
      <trkpt lat="44.58628" lon="6.1613">
        <ele>1064.8</ele>
        <time>2022-09-11T10:29:55Z</time>
      </trkpt>
      <trkpt lat="44.58629" lon="6.16127">
        <ele>1065</ele>
        <time>2022-09-11T10:29:56Z</time>
      </trkpt>
      <trkpt lat="44.58631" lon="6.16122">
        <ele>1065.3</ele>
        <time>2022-09-11T10:29:58Z</time>
      </trkpt>
      <trkpt lat="44.58632" lon="6.16121">
        <ele>1065.4</ele>
        <time>2022-09-11T10:29:59Z</time>
      </trkpt>
      <trkpt lat="44.58635" lon="6.16118">
        <ele>1065.6</ele>
        <time>2022-09-11T10:30:00Z</time>
      </trkpt>
      <trkpt lat="44.58636" lon="6.16118">
        <ele>1065.7</ele>
        <time>2022-09-11T10:30:01Z</time>
      </trkpt>
      <trkpt lat="44.58638" lon="6.16114">
        <ele>1066</ele>
        <time>2022-09-11T10:30:02Z</time>
      </trkpt>
      <trkpt lat="44.58639" lon="6.16113">
        <ele>1066.1</ele>
        <time>2022-09-11T10:30:03Z</time>
      </trkpt>
      <trkpt lat="44.58642" lon="6.1611">
        <ele>1066.3</ele>
        <time>2022-09-11T10:30:04Z</time>
      </trkpt>
      <trkpt lat="44.58643" lon="6.16109">
        <ele>1066.5</ele>
        <time>2022-09-11T10:30:05Z</time>
      </trkpt>
      <trkpt lat="44.58646" lon="6.16105">
        <ele>1066.8</ele>
        <time>2022-09-11T10:30:06Z</time>
      </trkpt>
      <trkpt lat="44.58647" lon="6.16104">
        <ele>1066.9</ele>
        <time>2022-09-11T10:30:07Z</time>
      </trkpt>
      <trkpt lat="44.58649" lon="6.16101">
        <ele>1067.1</ele>
        <time>2022-09-11T10:30:09Z</time>
      </trkpt>
      <trkpt lat="44.58652" lon="6.16097">
        <ele>1067.4</ele>
        <time>2022-09-11T10:30:10Z</time>
      </trkpt>
      <trkpt lat="44.58655" lon="6.16092">
        <ele>1067.8</ele>
        <time>2022-09-11T10:30:12Z</time>
      </trkpt>
      <trkpt lat="44.58656" lon="6.16091">
        <ele>1067.9</ele>
        <time>2022-09-11T10:30:13Z</time>
      </trkpt>
      <trkpt lat="44.58656" lon="6.16089">
        <ele>1068</ele>
        <time>2022-09-11T10:30:14Z</time>
      </trkpt>
      <trkpt lat="44.58658" lon="6.16085">
        <ele>1068.3</ele>
        <time>2022-09-11T10:30:15Z</time>
      </trkpt>
      <trkpt lat="44.5866" lon="6.16082">
        <ele>1068.5</ele>
        <time>2022-09-11T10:30:16Z</time>
      </trkpt>
      <trkpt lat="44.58662" lon="6.16079">
        <ele>1068.7</ele>
        <time>2022-09-11T10:30:18Z</time>
      </trkpt>
      <trkpt lat="44.58664" lon="6.16075">
        <ele>1069</ele>
        <time>2022-09-11T10:30:19Z</time>
      </trkpt>
      <trkpt lat="44.58665" lon="6.16074">
        <ele>1069.1</ele>
        <time>2022-09-11T10:30:20Z</time>
      </trkpt>
      <trkpt lat="44.58667" lon="6.1607">
        <ele>1069.4</ele>
        <time>2022-09-11T10:30:21Z</time>
      </trkpt>
      <trkpt lat="44.58668" lon="6.16068">
        <ele>1069.5</ele>
        <time>2022-09-11T10:30:22Z</time>
      </trkpt>
      <trkpt lat="44.5867" lon="6.16064">
        <ele>1069.8</ele>
        <time>2022-09-11T10:30:23Z</time>
      </trkpt>
      <trkpt lat="44.58671" lon="6.16063">
        <ele>1069.9</ele>
        <time>2022-09-11T10:30:24Z</time>
      </trkpt>
      <trkpt lat="44.58673" lon="6.16057">
        <ele>1070.3</ele>
        <time>2022-09-11T10:30:25Z</time>
      </trkpt>
      <trkpt lat="44.58674" lon="6.16054">
        <ele>1070.5</ele>
        <time>2022-09-11T10:30:26Z</time>
      </trkpt>
      <trkpt lat="44.58675" lon="6.16051">
        <ele>1070.7</ele>
        <time>2022-09-11T10:30:27Z</time>
      </trkpt>
      <trkpt lat="44.58677" lon="6.16047">
        <ele>1071</ele>
        <time>2022-09-11T10:30:29Z</time>
      </trkpt>
      <trkpt lat="44.58678" lon="6.16046">
        <ele>1071.1</ele>
        <time>2022-09-11T10:30:30Z</time>
      </trkpt>
      <trkpt lat="44.5868" lon="6.16041">
        <ele>1071.4</ele>
        <time>2022-09-11T10:30:31Z</time>
      </trkpt>
      <trkpt lat="44.58681" lon="6.1604">
        <ele>1071.4</ele>
        <time>2022-09-11T10:30:32Z</time>
      </trkpt>
      <trkpt lat="44.58682" lon="6.16035">
        <ele>1071.7</ele>
        <time>2022-09-11T10:30:33Z</time>
      </trkpt>
      <trkpt lat="44.58682" lon="6.16034">
        <ele>1071.8</ele>
        <time>2022-09-11T10:30:34Z</time>
      </trkpt>
      <trkpt lat="44.58684" lon="6.1603">
        <ele>1072.1</ele>
        <time>2022-09-11T10:30:35Z</time>
      </trkpt>
      <trkpt lat="44.58685" lon="6.16028">
        <ele>1072.2</ele>
        <time>2022-09-11T10:30:36Z</time>
      </trkpt>
      <trkpt lat="44.58687" lon="6.16023">
        <ele>1072.5</ele>
        <time>2022-09-11T10:30:37Z</time>
      </trkpt>
      <trkpt lat="44.5869" lon="6.16018">
        <ele>1072.9</ele>
        <time>2022-09-11T10:30:39Z</time>
      </trkpt>
      <trkpt lat="44.58692" lon="6.16013">
        <ele>1073.2</ele>
        <time>2022-09-11T10:30:41Z</time>
      </trkpt>
      <trkpt lat="44.58693" lon="6.16011">
        <ele>1073.3</ele>
        <time>2022-09-11T10:30:42Z</time>
      </trkpt>
      <trkpt lat="44.58693" lon="6.16009">
        <ele>1073.4</ele>
        <time>2022-09-11T10:30:43Z</time>
      </trkpt>
      <trkpt lat="44.58695" lon="6.16005">
        <ele>1073.7</ele>
        <time>2022-09-11T10:30:44Z</time>
      </trkpt>
      <trkpt lat="44.58695" lon="6.16004">
        <ele>1073.7</ele>
        <time>2022-09-11T10:30:45Z</time>
      </trkpt>
      <trkpt lat="44.58697" lon="6.16">
        <ele>1074</ele>
        <time>2022-09-11T10:30:46Z</time>
      </trkpt>
      <trkpt lat="44.58697" lon="6.15998">
        <ele>1074.1</ele>
        <time>2022-09-11T10:30:47Z</time>
      </trkpt>
      <trkpt lat="44.58699" lon="6.15995">
        <ele>1074.4</ele>
        <time>2022-09-11T10:30:48Z</time>
      </trkpt>
      <trkpt lat="44.587" lon="6.15993">
        <ele>1074.5</ele>
        <time>2022-09-11T10:30:49Z</time>
      </trkpt>
      <trkpt lat="44.58701" lon="6.15988">
        <ele>1074.8</ele>
        <time>2022-09-11T10:30:50Z</time>
      </trkpt>
      <trkpt lat="44.58702" lon="6.15987">
        <ele>1074.9</ele>
        <time>2022-09-11T10:30:51Z</time>
      </trkpt>
      <trkpt lat="44.58704" lon="6.15982">
        <ele>1075.2</ele>
        <time>2022-09-11T10:30:52Z</time>
      </trkpt>
      <trkpt lat="44.58706" lon="6.15978">
        <ele>1075.5</ele>
        <time>2022-09-11T10:30:54Z</time>
      </trkpt>
      <trkpt lat="44.58707" lon="6.15977">
        <ele>1075.6</ele>
        <time>2022-09-11T10:30:55Z</time>
      </trkpt>
      <trkpt lat="44.58708" lon="6.15972">
        <ele>1075.9</ele>
        <time>2022-09-11T10:30:57Z</time>
      </trkpt>
      <trkpt lat="44.58708" lon="6.15968">
        <ele>1076.1</ele>
        <time>2022-09-11T10:30:58Z</time>
      </trkpt>
      <trkpt lat="44.58709" lon="6.15967">
        <ele>1076.3</ele>
        <time>2022-09-11T10:30:59Z</time>
      </trkpt>
      <trkpt lat="44.58709" lon="6.15967">
        <ele>1076.3</ele>
        <time>2022-09-11T10:31:01Z</time>
      </trkpt>
      <trkpt lat="44.5871" lon="6.15968">
        <ele>1076.4</ele>
        <time>2022-09-11T10:31:03Z</time>
      </trkpt>
      <trkpt lat="44.5871" lon="6.15968">
        <ele>1076.4</ele>
        <time>2022-09-11T10:31:04Z</time>
      </trkpt>
      <trkpt lat="44.5871" lon="6.15969">
        <ele>1076.5</ele>
        <time>2022-09-11T10:31:05Z</time>
      </trkpt>
      <trkpt lat="44.5871" lon="6.1597">
        <ele>1076.5</ele>
        <time>2022-09-11T10:31:06Z</time>
      </trkpt>
      <trkpt lat="44.58711" lon="6.1597">
        <ele>1076.6</ele>
        <time>2022-09-11T10:31:07Z</time>
      </trkpt>
      <trkpt lat="44.58711" lon="6.15971">
        <ele>1076.6</ele>
        <time>2022-09-11T10:31:08Z</time>
      </trkpt>
      <trkpt lat="44.58711" lon="6.15971">
        <ele>1076.7</ele>
        <time>2022-09-11T10:31:09Z</time>
      </trkpt>
      <trkpt lat="44.58712" lon="6.15972">
        <ele>1076.7</ele>
        <time>2022-09-11T10:31:10Z</time>
      </trkpt>
      <trkpt lat="44.58712" lon="6.15972">
        <ele>1076.8</ele>
        <time>2022-09-11T10:31:11Z</time>
      </trkpt>
      <trkpt lat="44.58712" lon="6.15973">
        <ele>1076.8</ele>
        <time>2022-09-11T10:31:12Z</time>
      </trkpt>
      <trkpt lat="44.58712" lon="6.15974">
        <ele>1076.9</ele>
        <time>2022-09-11T10:31:13Z</time>
      </trkpt>
      <trkpt lat="44.58713" lon="6.15974">
        <ele>1076.9</ele>
        <time>2022-09-11T10:31:46Z</time>
      </trkpt>
      <trkpt lat="44.58713" lon="6.15975">
        <ele>1077</ele>
        <time>2022-09-11T10:31:47Z</time>
      </trkpt>
      <trkpt lat="44.58713" lon="6.15975">
        <ele>1077</ele>
        <time>2022-09-11T10:31:48Z</time>
      </trkpt>
      <trkpt lat="44.58717" lon="6.15977">
        <ele>1077.4</ele>
        <time>2022-09-11T10:31:50Z</time>
      </trkpt>
      <trkpt lat="44.58721" lon="6.15977">
        <ele>1077.7</ele>
        <time>2022-09-11T10:31:51Z</time>
      </trkpt>
      <trkpt lat="44.58723" lon="6.15977">
        <ele>1078</ele>
        <time>2022-09-11T10:31:52Z</time>
      </trkpt>
      <trkpt lat="44.58727" lon="6.15978">
        <ele>1078.3</ele>
        <time>2022-09-11T10:31:54Z</time>
      </trkpt>
      <trkpt lat="44.5873" lon="6.15977">
        <ele>1078.6</ele>
        <time>2022-09-11T10:31:55Z</time>
      </trkpt>
      <trkpt lat="44.58732" lon="6.15977">
        <ele>1078.8</ele>
        <time>2022-09-11T10:31:56Z</time>
      </trkpt>
      <trkpt lat="44.58735" lon="6.15975">
        <ele>1079.1</ele>
        <time>2022-09-11T10:31:58Z</time>
      </trkpt>
      <trkpt lat="44.58738" lon="6.15969">
        <ele>1079.6</ele>
        <time>2022-09-11T10:31:59Z</time>
      </trkpt>
      <trkpt lat="44.5874" lon="6.15966">
        <ele>1079.6</ele>
        <time>2022-09-11T10:32:00Z</time>
      </trkpt>
      <trkpt lat="44.58742" lon="6.15958">
        <ele>1079.7</ele>
        <time>2022-09-11T10:32:02Z</time>
      </trkpt>
      <trkpt lat="44.58742" lon="6.15952">
        <ele>1079.9</ele>
        <time>2022-09-11T10:32:04Z</time>
      </trkpt>
      <trkpt lat="44.58741" lon="6.15947">
        <ele>1080.2</ele>
        <time>2022-09-11T10:32:05Z</time>
      </trkpt>
      <trkpt lat="44.5874" lon="6.15944">
        <ele>1080.3</ele>
        <time>2022-09-11T10:32:06Z</time>
      </trkpt>
      <trkpt lat="44.58739" lon="6.15941">
        <ele>1080.5</ele>
        <time>2022-09-11T10:32:08Z</time>
      </trkpt>
      <trkpt lat="44.58738" lon="6.15935">
        <ele>1080.7</ele>
        <time>2022-09-11T10:32:09Z</time>
      </trkpt>
      <trkpt lat="44.58738" lon="6.15932">
        <ele>1080.9</ele>
        <time>2022-09-11T10:32:10Z</time>
      </trkpt>
      <trkpt lat="44.58737" lon="6.15928">
        <ele>1081</ele>
        <time>2022-09-11T10:32:11Z</time>
      </trkpt>
      <trkpt lat="44.58737" lon="6.15919">
        <ele>1081.4</ele>
        <time>2022-09-11T10:32:13Z</time>
      </trkpt>
      <trkpt lat="44.58737" lon="6.15915">
        <ele>1081.6</ele>
        <time>2022-09-11T10:32:15Z</time>
      </trkpt>
      <trkpt lat="44.58737" lon="6.15909">
        <ele>1081.9</ele>
        <time>2022-09-11T10:32:16Z</time>
      </trkpt>
      <trkpt lat="44.58737" lon="6.15906">
        <ele>1082.1</ele>
        <time>2022-09-11T10:32:17Z</time>
      </trkpt>
      <trkpt lat="44.58738" lon="6.15903">
        <ele>1082.2</ele>
        <time>2022-09-11T10:32:19Z</time>
      </trkpt>
      <trkpt lat="44.5874" lon="6.159">
        <ele>1082.5</ele>
        <time>2022-09-11T10:32:20Z</time>
      </trkpt>
      <trkpt lat="44.58741" lon="6.15899">
        <ele>1082.6</ele>
        <time>2022-09-11T10:32:21Z</time>
      </trkpt>
      <trkpt lat="44.58743" lon="6.15896">
        <ele>1082.8</ele>
        <time>2022-09-11T10:32:22Z</time>
      </trkpt>
      <trkpt lat="44.58744" lon="6.15895">
        <ele>1082.9</ele>
        <time>2022-09-11T10:32:23Z</time>
      </trkpt>
      <trkpt lat="44.58747" lon="6.15893">
        <ele>1083.2</ele>
        <time>2022-09-11T10:32:24Z</time>
      </trkpt>
      <trkpt lat="44.58747" lon="6.15891">
        <ele>1083.3</ele>
        <time>2022-09-11T10:32:25Z</time>
      </trkpt>
      <trkpt lat="44.5875" lon="6.15889">
        <ele>1083.5</ele>
        <time>2022-09-11T10:32:26Z</time>
      </trkpt>
      <trkpt lat="44.58751" lon="6.15887">
        <ele>1083.7</ele>
        <time>2022-09-11T10:32:27Z</time>
      </trkpt>
      <trkpt lat="44.58754" lon="6.15883">
        <ele>1084</ele>
        <time>2022-09-11T10:32:29Z</time>
      </trkpt>
      <trkpt lat="44.58756" lon="6.15881">
        <ele>1084.2</ele>
        <time>2022-09-11T10:32:30Z</time>
      </trkpt>
      <trkpt lat="44.5876" lon="6.15878">
        <ele>1084.6</ele>
        <time>2022-09-11T10:32:32Z</time>
      </trkpt>
      <trkpt lat="44.58761" lon="6.15876">
        <ele>1084.7</ele>
        <time>2022-09-11T10:32:33Z</time>
      </trkpt>
      <trkpt lat="44.58763" lon="6.15873">
        <ele>1085</ele>
        <time>2022-09-11T10:32:35Z</time>
      </trkpt>
      <trkpt lat="44.58765" lon="6.1587">
        <ele>1085.2</ele>
        <time>2022-09-11T10:32:36Z</time>
      </trkpt>
      <trkpt lat="44.58765" lon="6.15868">
        <ele>1085.3</ele>
        <time>2022-09-11T10:32:37Z</time>
      </trkpt>
      <trkpt lat="44.58766" lon="6.15864">
        <ele>1085.6</ele>
        <time>2022-09-11T10:32:38Z</time>
      </trkpt>
      <trkpt lat="44.58767" lon="6.15863">
        <ele>1085.7</ele>
        <time>2022-09-11T10:32:39Z</time>
      </trkpt>
      <trkpt lat="44.58769" lon="6.15858">
        <ele>1086</ele>
        <time>2022-09-11T10:32:40Z</time>
      </trkpt>
      <trkpt lat="44.58769" lon="6.15856">
        <ele>1086.1</ele>
        <time>2022-09-11T10:32:41Z</time>
      </trkpt>
      <trkpt lat="44.5877" lon="6.15852">
        <ele>1086.3</ele>
        <time>2022-09-11T10:32:42Z</time>
      </trkpt>
      <trkpt lat="44.58771" lon="6.15846">
        <ele>1086.6</ele>
        <time>2022-09-11T10:32:44Z</time>
      </trkpt>
      <trkpt lat="44.58772" lon="6.15842">
        <ele>1086.9</ele>
        <time>2022-09-11T10:32:46Z</time>
      </trkpt>
      <trkpt lat="44.58772" lon="6.1584">
        <ele>1087</ele>
        <time>2022-09-11T10:32:47Z</time>
      </trkpt>
      <trkpt lat="44.58773" lon="6.15836">
        <ele>1087.2</ele>
        <time>2022-09-11T10:32:48Z</time>
      </trkpt>
      <trkpt lat="44.58773" lon="6.15834">
        <ele>1087.3</ele>
        <time>2022-09-11T10:32:49Z</time>
      </trkpt>
      <trkpt lat="44.58774" lon="6.1583">
        <ele>1087.5</ele>
        <time>2022-09-11T10:32:50Z</time>
      </trkpt>
      <trkpt lat="44.58776" lon="6.15825">
        <ele>1087.9</ele>
        <time>2022-09-11T10:32:52Z</time>
      </trkpt>
      <trkpt lat="44.58777" lon="6.15823">
        <ele>1088.1</ele>
        <time>2022-09-11T10:32:53Z</time>
      </trkpt>
      <trkpt lat="44.58778" lon="6.15822">
        <ele>1088.2</ele>
        <time>2022-09-11T10:32:54Z</time>
      </trkpt>
      <trkpt lat="44.5878" lon="6.15818">
        <ele>1088.5</ele>
        <time>2022-09-11T10:32:56Z</time>
      </trkpt>
      <trkpt lat="44.58781" lon="6.15817">
        <ele>1088.5</ele>
        <time>2022-09-11T10:32:57Z</time>
      </trkpt>
      <trkpt lat="44.58783" lon="6.15814">
        <ele>1088.8</ele>
        <time>2022-09-11T10:32:58Z</time>
      </trkpt>
      <trkpt lat="44.58785" lon="6.15811">
        <ele>1089.1</ele>
        <time>2022-09-11T10:32:59Z</time>
      </trkpt>
      <trkpt lat="44.58789" lon="6.15808">
        <ele>1089.4</ele>
        <time>2022-09-11T10:33:01Z</time>
      </trkpt>
      <trkpt lat="44.5879" lon="6.15807">
        <ele>1089.5</ele>
        <time>2022-09-11T10:33:02Z</time>
      </trkpt>
      <trkpt lat="44.58792" lon="6.15805">
        <ele>1089.8</ele>
        <time>2022-09-11T10:33:03Z</time>
      </trkpt>
      <trkpt lat="44.58793" lon="6.15804">
        <ele>1089.9</ele>
        <time>2022-09-11T10:33:04Z</time>
      </trkpt>
      <trkpt lat="44.58797" lon="6.15802">
        <ele>1090.2</ele>
        <time>2022-09-11T10:33:05Z</time>
      </trkpt>
      <trkpt lat="44.58798" lon="6.15801">
        <ele>1090.3</ele>
        <time>2022-09-11T10:33:06Z</time>
      </trkpt>
      <trkpt lat="44.58802" lon="6.158">
        <ele>1090.7</ele>
        <time>2022-09-11T10:33:07Z</time>
      </trkpt>
      <trkpt lat="44.58804" lon="6.15799">
        <ele>1090.9</ele>
        <time>2022-09-11T10:33:08Z</time>
      </trkpt>
      <trkpt lat="44.58806" lon="6.15799">
        <ele>1091</ele>
        <time>2022-09-11T10:33:09Z</time>
      </trkpt>
      <trkpt lat="44.58809" lon="6.15798">
        <ele>1091.3</ele>
        <time>2022-09-11T10:33:11Z</time>
      </trkpt>
      <trkpt lat="44.58812" lon="6.15798">
        <ele>1091.6</ele>
        <time>2022-09-11T10:33:12Z</time>
      </trkpt>
      <trkpt lat="44.58816" lon="6.15798">
        <ele>1091.9</ele>
        <time>2022-09-11T10:33:13Z</time>
      </trkpt>
      <trkpt lat="44.58817" lon="6.15798">
        <ele>1092</ele>
        <time>2022-09-11T10:33:14Z</time>
      </trkpt>
      <trkpt lat="44.5882" lon="6.15799">
        <ele>1092.3</ele>
        <time>2022-09-11T10:33:15Z</time>
      </trkpt>
      <trkpt lat="44.58821" lon="6.158">
        <ele>1092.4</ele>
        <time>2022-09-11T10:33:16Z</time>
      </trkpt>
      <trkpt lat="44.58825" lon="6.158">
        <ele>1092.7</ele>
        <time>2022-09-11T10:33:17Z</time>
      </trkpt>
      <trkpt lat="44.58827" lon="6.158">
        <ele>1092.9</ele>
        <time>2022-09-11T10:33:18Z</time>
      </trkpt>
      <trkpt lat="44.5883" lon="6.158">
        <ele>1093.2</ele>
        <time>2022-09-11T10:33:20Z</time>
      </trkpt>
      <trkpt lat="44.58831" lon="6.158">
        <ele>1093.3</ele>
        <time>2022-09-11T10:33:21Z</time>
      </trkpt>
      <trkpt lat="44.58832" lon="6.158">
        <ele>1093.4</ele>
        <time>2022-09-11T10:33:22Z</time>
      </trkpt>
      <trkpt lat="44.58835" lon="6.15799">
        <ele>1093.7</ele>
        <time>2022-09-11T10:33:23Z</time>
      </trkpt>
      <trkpt lat="44.58836" lon="6.15798">
        <ele>1093.8</ele>
        <time>2022-09-11T10:33:24Z</time>
      </trkpt>
      <trkpt lat="44.58839" lon="6.15797">
        <ele>1094.1</ele>
        <time>2022-09-11T10:33:25Z</time>
      </trkpt>
      <trkpt lat="44.5884" lon="6.15797">
        <ele>1094.2</ele>
        <time>2022-09-11T10:33:26Z</time>
      </trkpt>
      <trkpt lat="44.58843" lon="6.15796">
        <ele>1094.4</ele>
        <time>2022-09-11T10:33:27Z</time>
      </trkpt>
      <trkpt lat="44.58844" lon="6.15796">
        <ele>1094.5</ele>
        <time>2022-09-11T10:33:28Z</time>
      </trkpt>
      <trkpt lat="44.58848" lon="6.15792">
        <ele>1094.9</ele>
        <time>2022-09-11T10:33:29Z</time>
      </trkpt>
      <trkpt lat="44.58851" lon="6.15789">
        <ele>1095.3</ele>
        <time>2022-09-11T10:33:31Z</time>
      </trkpt>
      <trkpt lat="44.58853" lon="6.15785">
        <ele>1095.6</ele>
        <time>2022-09-11T10:33:33Z</time>
      </trkpt>
      <trkpt lat="44.58854" lon="6.15783">
        <ele>1095.7</ele>
        <time>2022-09-11T10:33:34Z</time>
      </trkpt>
      <trkpt lat="44.58855" lon="6.1578">
        <ele>1095.9</ele>
        <time>2022-09-11T10:33:35Z</time>
      </trkpt>
      <trkpt lat="44.58855" lon="6.15775">
        <ele>1096.2</ele>
        <time>2022-09-11T10:33:36Z</time>
      </trkpt>
      <trkpt lat="44.58855" lon="6.1577">
        <ele>1096.4</ele>
        <time>2022-09-11T10:33:38Z</time>
      </trkpt>
      <trkpt lat="44.58855" lon="6.15769">
        <ele>1096.5</ele>
        <time>2022-09-11T10:33:39Z</time>
      </trkpt>
      <trkpt lat="44.58854" lon="6.15764">
        <ele>1096.8</ele>
        <time>2022-09-11T10:33:40Z</time>
      </trkpt>
      <trkpt lat="44.58854" lon="6.15761">
        <ele>1096.9</ele>
        <time>2022-09-11T10:33:41Z</time>
      </trkpt>
      <trkpt lat="44.58853" lon="6.15758">
        <ele>1097.1</ele>
        <time>2022-09-11T10:33:43Z</time>
      </trkpt>
      <trkpt lat="44.58853" lon="6.15753">
        <ele>1097.4</ele>
        <time>2022-09-11T10:33:44Z</time>
      </trkpt>
      <trkpt lat="44.58853" lon="6.15749">
        <ele>1097.6</ele>
        <time>2022-09-11T10:33:45Z</time>
      </trkpt>
      <trkpt lat="44.58854" lon="6.15743">
        <ele>1098</ele>
        <time>2022-09-11T10:33:47Z</time>
      </trkpt>
      <trkpt lat="44.58854" lon="6.15741">
        <ele>1098.2</ele>
        <time>2022-09-11T10:33:48Z</time>
      </trkpt>
      <trkpt lat="44.58855" lon="6.15738">
        <ele>1098.4</ele>
        <time>2022-09-11T10:33:50Z</time>
      </trkpt>
      <trkpt lat="44.58856" lon="6.15736">
        <ele>1098.5</ele>
        <time>2022-09-11T10:33:51Z</time>
      </trkpt>
      <trkpt lat="44.58858" lon="6.15733">
        <ele>1098.8</ele>
        <time>2022-09-11T10:33:53Z</time>
      </trkpt>
      <trkpt lat="44.58859" lon="6.15731">
        <ele>1099</ele>
        <time>2022-09-11T10:33:54Z</time>
      </trkpt>
      <trkpt lat="44.5886" lon="6.1573">
        <ele>1099</ele>
        <time>2022-09-11T10:33:55Z</time>
      </trkpt>
      <trkpt lat="44.58861" lon="6.15729">
        <ele>1099.1</ele>
        <time>2022-09-11T10:33:56Z</time>
      </trkpt>
      <trkpt lat="44.58863" lon="6.15726">
        <ele>1099.4</ele>
        <time>2022-09-11T10:33:57Z</time>
      </trkpt>
      <trkpt lat="44.58864" lon="6.15725">
        <ele>1099.5</ele>
        <time>2022-09-11T10:33:58Z</time>
      </trkpt>
      <trkpt lat="44.58867" lon="6.15722">
        <ele>1099.8</ele>
        <time>2022-09-11T10:34:00Z</time>
      </trkpt>
      <trkpt lat="44.58868" lon="6.15721">
        <ele>1100</ele>
        <time>2022-09-11T10:34:01Z</time>
      </trkpt>
      <trkpt lat="44.58872" lon="6.15719">
        <ele>1100.3</ele>
        <time>2022-09-11T10:34:03Z</time>
      </trkpt>
      <trkpt lat="44.58873" lon="6.15718">
        <ele>1100.4</ele>
        <time>2022-09-11T10:34:04Z</time>
      </trkpt>
      <trkpt lat="44.58875" lon="6.15716">
        <ele>1100.6</ele>
        <time>2022-09-11T10:34:05Z</time>
      </trkpt>
      <trkpt lat="44.58878" lon="6.15714">
        <ele>1100.9</ele>
        <time>2022-09-11T10:34:06Z</time>
      </trkpt>
      <trkpt lat="44.58879" lon="6.15714">
        <ele>1101</ele>
        <time>2022-09-11T10:34:07Z</time>
      </trkpt>
      <trkpt lat="44.58883" lon="6.15712">
        <ele>1101.4</ele>
        <time>2022-09-11T10:34:09Z</time>
      </trkpt>
      <trkpt lat="44.58884" lon="6.15711">
        <ele>1101.5</ele>
        <time>2022-09-11T10:34:10Z</time>
      </trkpt>
      <trkpt lat="44.58888" lon="6.15708">
        <ele>1101.9</ele>
        <time>2022-09-11T10:34:12Z</time>
      </trkpt>
      <trkpt lat="44.58889" lon="6.15708">
        <ele>1102</ele>
        <time>2022-09-11T10:34:13Z</time>
      </trkpt>
      <trkpt lat="44.5889" lon="6.15707">
        <ele>1102.2</ele>
        <time>2022-09-11T10:34:14Z</time>
      </trkpt>
      <trkpt lat="44.58894" lon="6.15705">
        <ele>1102.5</ele>
        <time>2022-09-11T10:34:15Z</time>
      </trkpt>
      <trkpt lat="44.58897" lon="6.15704">
        <ele>1102.8</ele>
        <time>2022-09-11T10:34:17Z</time>
      </trkpt>
      <trkpt lat="44.58898" lon="6.15704">
        <ele>1103</ele>
        <time>2022-09-11T10:34:18Z</time>
      </trkpt>
      <trkpt lat="44.58901" lon="6.15703">
        <ele>1103.3</ele>
        <time>2022-09-11T10:34:19Z</time>
      </trkpt>
      <trkpt lat="44.58902" lon="6.15703">
        <ele>1103.4</ele>
        <time>2022-09-11T10:34:20Z</time>
      </trkpt>
      <trkpt lat="44.58905" lon="6.15701">
        <ele>1103.7</ele>
        <time>2022-09-11T10:34:21Z</time>
      </trkpt>
      <trkpt lat="44.58907" lon="6.15699">
        <ele>1103.9</ele>
        <time>2022-09-11T10:34:22Z</time>
      </trkpt>
      <trkpt lat="44.58909" lon="6.15698">
        <ele>1104.1</ele>
        <time>2022-09-11T10:34:24Z</time>
      </trkpt>
      <trkpt lat="44.58912" lon="6.15696">
        <ele>1104.4</ele>
        <time>2022-09-11T10:34:25Z</time>
      </trkpt>
      <trkpt lat="44.58912" lon="6.15695">
        <ele>1104.4</ele>
        <time>2022-09-11T10:34:26Z</time>
      </trkpt>
      <trkpt lat="44.58916" lon="6.15691">
        <ele>1104.8</ele>
        <time>2022-09-11T10:34:28Z</time>
      </trkpt>
      <trkpt lat="44.58918" lon="6.15687">
        <ele>1105.1</ele>
        <time>2022-09-11T10:34:29Z</time>
      </trkpt>
      <trkpt lat="44.58918" lon="6.15686">
        <ele>1105.2</ele>
        <time>2022-09-11T10:34:30Z</time>
      </trkpt>
      <trkpt lat="44.5892" lon="6.15682">
        <ele>1105.4</ele>
        <time>2022-09-11T10:34:32Z</time>
      </trkpt>
      <trkpt lat="44.58921" lon="6.15678">
        <ele>1105.6</ele>
        <time>2022-09-11T10:34:33Z</time>
      </trkpt>
      <trkpt lat="44.58922" lon="6.15674">
        <ele>1105.8</ele>
        <time>2022-09-11T10:34:34Z</time>
      </trkpt>
      <trkpt lat="44.58922" lon="6.15671">
        <ele>1106</ele>
        <time>2022-09-11T10:34:36Z</time>
      </trkpt>
      <trkpt lat="44.58923" lon="6.15666">
        <ele>1106.3</ele>
        <time>2022-09-11T10:34:37Z</time>
      </trkpt>
      <trkpt lat="44.58923" lon="6.15665">
        <ele>1106.3</ele>
        <time>2022-09-11T10:34:38Z</time>
      </trkpt>
      <trkpt lat="44.58924" lon="6.15661">
        <ele>1106.6</ele>
        <time>2022-09-11T10:34:39Z</time>
      </trkpt>
      <trkpt lat="44.58925" lon="6.15657">
        <ele>1106.8</ele>
        <time>2022-09-11T10:34:40Z</time>
      </trkpt>
      <trkpt lat="44.58925" lon="6.15655">
        <ele>1106.9</ele>
        <time>2022-09-11T10:34:41Z</time>
      </trkpt>
      <trkpt lat="44.58927" lon="6.1565">
        <ele>1107.2</ele>
        <time>2022-09-11T10:34:42Z</time>
      </trkpt>
      <trkpt lat="44.58927" lon="6.15648">
        <ele>1107.3</ele>
        <time>2022-09-11T10:34:43Z</time>
      </trkpt>
      <trkpt lat="44.58928" lon="6.15645">
        <ele>1107.5</ele>
        <time>2022-09-11T10:34:44Z</time>
      </trkpt>
      <trkpt lat="44.58928" lon="6.15642">
        <ele>1107.7</ele>
        <time>2022-09-11T10:34:46Z</time>
      </trkpt>
      <trkpt lat="44.58929" lon="6.1564">
        <ele>1107.9</ele>
        <time>2022-09-11T10:34:47Z</time>
      </trkpt>
      <trkpt lat="44.5893" lon="6.15639">
        <ele>1108</ele>
        <time>2022-09-11T10:34:48Z</time>
      </trkpt>
      <trkpt lat="44.58931" lon="6.15636">
        <ele>1108.1</ele>
        <time>2022-09-11T10:34:49Z</time>
      </trkpt>
      <trkpt lat="44.58932" lon="6.15634">
        <ele>1108.3</ele>
        <time>2022-09-11T10:34:50Z</time>
      </trkpt>
      <trkpt lat="44.58933" lon="6.15631">
        <ele>1108.5</ele>
        <time>2022-09-11T10:34:51Z</time>
      </trkpt>
      <trkpt lat="44.58934" lon="6.1563">
        <ele>1108.6</ele>
        <time>2022-09-11T10:34:52Z</time>
      </trkpt>
      <trkpt lat="44.58936" lon="6.15627">
        <ele>1108.8</ele>
        <time>2022-09-11T10:34:53Z</time>
      </trkpt>
      <trkpt lat="44.58936" lon="6.15626">
        <ele>1108.9</ele>
        <time>2022-09-11T10:34:54Z</time>
      </trkpt>
      <trkpt lat="44.58938" lon="6.15622">
        <ele>1109.2</ele>
        <time>2022-09-11T10:34:55Z</time>
      </trkpt>
      <trkpt lat="44.58939" lon="6.1562">
        <ele>1109.3</ele>
        <time>2022-09-11T10:34:56Z</time>
      </trkpt>
      <trkpt lat="44.58941" lon="6.15617">
        <ele>1109.6</ele>
        <time>2022-09-11T10:34:57Z</time>
      </trkpt>
      <trkpt lat="44.58943" lon="6.15614">
        <ele>1109.9</ele>
        <time>2022-09-11T10:34:59Z</time>
      </trkpt>
      <trkpt lat="44.58944" lon="6.15613">
        <ele>1110</ele>
        <time>2022-09-11T10:35:00Z</time>
      </trkpt>
      <trkpt lat="44.58946" lon="6.15609">
        <ele>1110.3</ele>
        <time>2022-09-11T10:35:01Z</time>
      </trkpt>
      <trkpt lat="44.58948" lon="6.15606">
        <ele>1110.6</ele>
        <time>2022-09-11T10:35:02Z</time>
      </trkpt>
      <trkpt lat="44.5895" lon="6.15604">
        <ele>1110.8</ele>
        <time>2022-09-11T10:35:03Z</time>
      </trkpt>
      <trkpt lat="44.58952" lon="6.15602">
        <ele>1111</ele>
        <time>2022-09-11T10:35:05Z</time>
      </trkpt>
      <trkpt lat="44.58954" lon="6.15598">
        <ele>1111.4</ele>
        <time>2022-09-11T10:35:06Z</time>
      </trkpt>
      <trkpt lat="44.58955" lon="6.15597">
        <ele>1111.5</ele>
        <time>2022-09-11T10:35:07Z</time>
      </trkpt>
      <trkpt lat="44.58958" lon="6.15594">
        <ele>1111.8</ele>
        <time>2022-09-11T10:35:08Z</time>
      </trkpt>
      <trkpt lat="44.58959" lon="6.15593">
        <ele>1111.9</ele>
        <time>2022-09-11T10:35:09Z</time>
      </trkpt>
      <trkpt lat="44.58962" lon="6.1559">
        <ele>1112.3</ele>
        <time>2022-09-11T10:35:10Z</time>
      </trkpt>
      <trkpt lat="44.58964" lon="6.15589">
        <ele>1112.5</ele>
        <time>2022-09-11T10:35:11Z</time>
      </trkpt>
      <trkpt lat="44.58966" lon="6.15587">
        <ele>1112.7</ele>
        <time>2022-09-11T10:35:13Z</time>
      </trkpt>
      <trkpt lat="44.58969" lon="6.15586">
        <ele>1113</ele>
        <time>2022-09-11T10:35:14Z</time>
      </trkpt>
      <trkpt lat="44.5897" lon="6.15585">
        <ele>1113.1</ele>
        <time>2022-09-11T10:35:15Z</time>
      </trkpt>
      <trkpt lat="44.58973" lon="6.15585">
        <ele>1113.5</ele>
        <time>2022-09-11T10:35:16Z</time>
      </trkpt>
      <trkpt lat="44.58974" lon="6.15585">
        <ele>1113.6</ele>
        <time>2022-09-11T10:35:17Z</time>
      </trkpt>
      <trkpt lat="44.58977" lon="6.15585">
        <ele>1113.9</ele>
        <time>2022-09-11T10:35:18Z</time>
      </trkpt>
      <trkpt lat="44.58978" lon="6.15585">
        <ele>1114</ele>
        <time>2022-09-11T10:35:19Z</time>
      </trkpt>
      <trkpt lat="44.58981" lon="6.15585">
        <ele>1114.3</ele>
        <time>2022-09-11T10:35:20Z</time>
      </trkpt>
      <trkpt lat="44.58982" lon="6.15584">
        <ele>1114.4</ele>
        <time>2022-09-11T10:35:21Z</time>
      </trkpt>
      <trkpt lat="44.58986" lon="6.15583">
        <ele>1114.7</ele>
        <time>2022-09-11T10:35:22Z</time>
      </trkpt>
      <trkpt lat="44.58987" lon="6.15582">
        <ele>1114.9</ele>
        <time>2022-09-11T10:35:23Z</time>
      </trkpt>
      <trkpt lat="44.5899" lon="6.15581">
        <ele>1115.1</ele>
        <time>2022-09-11T10:35:24Z</time>
      </trkpt>
      <trkpt lat="44.58991" lon="6.15579">
        <ele>1115.4</ele>
        <time>2022-09-11T10:35:26Z</time>
      </trkpt>
      <trkpt lat="44.58994" lon="6.15574">
        <ele>1115.8</ele>
        <time>2022-09-11T10:35:27Z</time>
      </trkpt>
      <trkpt lat="44.58996" lon="6.15568">
        <ele>1115.8</ele>
        <time>2022-09-11T10:35:29Z</time>
      </trkpt>
      <trkpt lat="44.58996" lon="6.15564">
        <ele>1115.8</ele>
        <time>2022-09-11T10:35:30Z</time>
      </trkpt>
      <trkpt lat="44.58997" lon="6.15559">
        <ele>1115.8</ele>
        <time>2022-09-11T10:35:32Z</time>
      </trkpt>
      <trkpt lat="44.58998" lon="6.15554">
        <ele>1116.1</ele>
        <time>2022-09-11T10:35:33Z</time>
      </trkpt>
      <trkpt lat="44.58998" lon="6.1555">
        <ele>1116.3</ele>
        <time>2022-09-11T10:35:34Z</time>
      </trkpt>
      <trkpt lat="44.58999" lon="6.15544">
        <ele>1116.6</ele>
        <time>2022-09-11T10:35:36Z</time>
      </trkpt>
      <trkpt lat="44.59" lon="6.15542">
        <ele>1116.7</ele>
        <time>2022-09-11T10:35:37Z</time>
      </trkpt>
      <trkpt lat="44.59" lon="6.1554">
        <ele>1116.8</ele>
        <time>2022-09-11T10:35:38Z</time>
      </trkpt>
      <trkpt lat="44.59001" lon="6.15537">
        <ele>1117</ele>
        <time>2022-09-11T10:35:39Z</time>
      </trkpt>
      <trkpt lat="44.59002" lon="6.15532">
        <ele>1117.3</ele>
        <time>2022-09-11T10:35:40Z</time>
      </trkpt>
      <trkpt lat="44.59003" lon="6.15527">
        <ele>1117.5</ele>
        <time>2022-09-11T10:35:41Z</time>
      </trkpt>
      <trkpt lat="44.59003" lon="6.15525">
        <ele>1117.7</ele>
        <time>2022-09-11T10:35:42Z</time>
      </trkpt>
      <trkpt lat="44.59004" lon="6.15521">
        <ele>1117.9</ele>
        <time>2022-09-11T10:35:43Z</time>
      </trkpt>
      <trkpt lat="44.59005" lon="6.15516">
        <ele>1118.1</ele>
        <time>2022-09-11T10:35:45Z</time>
      </trkpt>
      <trkpt lat="44.59005" lon="6.15515">
        <ele>1118.2</ele>
        <time>2022-09-11T10:35:46Z</time>
      </trkpt>
      <trkpt lat="44.59007" lon="6.15511">
        <ele>1118.5</ele>
        <time>2022-09-11T10:35:47Z</time>
      </trkpt>
      <trkpt lat="44.59007" lon="6.15509">
        <ele>1118.6</ele>
        <time>2022-09-11T10:35:48Z</time>
      </trkpt>
      <trkpt lat="44.5901" lon="6.15504">
        <ele>1118.7</ele>
        <time>2022-09-11T10:35:49Z</time>
      </trkpt>
      <trkpt lat="44.59011" lon="6.15502">
        <ele>1118.8</ele>
        <time>2022-09-11T10:35:50Z</time>
      </trkpt>
      <trkpt lat="44.59013" lon="6.15499">
        <ele>1118.8</ele>
        <time>2022-09-11T10:35:51Z</time>
      </trkpt>
      <trkpt lat="44.59016" lon="6.15497">
        <ele>1118.8</ele>
        <time>2022-09-11T10:35:53Z</time>
      </trkpt>
      <trkpt lat="44.59017" lon="6.15496">
        <ele>1118.9</ele>
        <time>2022-09-11T10:35:54Z</time>
      </trkpt>
      <trkpt lat="44.5902" lon="6.15493">
        <ele>1119.1</ele>
        <time>2022-09-11T10:35:55Z</time>
      </trkpt>
      <trkpt lat="44.59021" lon="6.15492">
        <ele>1119.2</ele>
        <time>2022-09-11T10:35:56Z</time>
      </trkpt>
      <trkpt lat="44.59023" lon="6.15489">
        <ele>1119.4</ele>
        <time>2022-09-11T10:35:57Z</time>
      </trkpt>
      <trkpt lat="44.59024" lon="6.15488">
        <ele>1119.4</ele>
        <time>2022-09-11T10:35:58Z</time>
      </trkpt>
      <trkpt lat="44.59028" lon="6.15485">
        <ele>1119.7</ele>
        <time>2022-09-11T10:35:59Z</time>
      </trkpt>
      <trkpt lat="44.59031" lon="6.15482">
        <ele>1119.9</ele>
        <time>2022-09-11T10:36:01Z</time>
      </trkpt>
      <trkpt lat="44.59032" lon="6.15481">
        <ele>1120</ele>
        <time>2022-09-11T10:36:02Z</time>
      </trkpt>
      <trkpt lat="44.59033" lon="6.1548">
        <ele>1120.1</ele>
        <time>2022-09-11T10:36:03Z</time>
      </trkpt>
      <trkpt lat="44.59036" lon="6.15477">
        <ele>1120.3</ele>
        <time>2022-09-11T10:36:04Z</time>
      </trkpt>
      <trkpt lat="44.59037" lon="6.15476">
        <ele>1120.4</ele>
        <time>2022-09-11T10:36:05Z</time>
      </trkpt>
      <trkpt lat="44.5904" lon="6.15472">
        <ele>1120.7</ele>
        <time>2022-09-11T10:36:06Z</time>
      </trkpt>
      <trkpt lat="44.59041" lon="6.15471">
        <ele>1120.7</ele>
        <time>2022-09-11T10:36:07Z</time>
      </trkpt>
      <trkpt lat="44.59043" lon="6.15469">
        <ele>1120.9</ele>
        <time>2022-09-11T10:36:08Z</time>
      </trkpt>
      <trkpt lat="44.59045" lon="6.15467">
        <ele>1121.1</ele>
        <time>2022-09-11T10:36:09Z</time>
      </trkpt>
      <trkpt lat="44.59048" lon="6.15465">
        <ele>1121.2</ele>
        <time>2022-09-11T10:36:11Z</time>
      </trkpt>
      <trkpt lat="44.5905" lon="6.15462">
        <ele>1121.5</ele>
        <time>2022-09-11T10:36:12Z</time>
      </trkpt>
      <trkpt lat="44.59053" lon="6.1546">
        <ele>1121.7</ele>
        <time>2022-09-11T10:36:13Z</time>
      </trkpt>
      <trkpt lat="44.59056" lon="6.15459">
        <ele>1121.8</ele>
        <time>2022-09-11T10:36:14Z</time>
      </trkpt>
      <trkpt lat="44.59057" lon="6.15458">
        <ele>1122</ele>
        <time>2022-09-11T10:36:16Z</time>
      </trkpt>
      <trkpt lat="44.59061" lon="6.15455">
        <ele>1122.3</ele>
        <time>2022-09-11T10:36:17Z</time>
      </trkpt>
      <trkpt lat="44.59063" lon="6.15452">
        <ele>1122.5</ele>
        <time>2022-09-11T10:36:19Z</time>
      </trkpt>
      <trkpt lat="44.59064" lon="6.15452">
        <ele>1122.6</ele>
        <time>2022-09-11T10:36:20Z</time>
      </trkpt>
      <trkpt lat="44.59068" lon="6.15449">
        <ele>1122.8</ele>
        <time>2022-09-11T10:36:21Z</time>
      </trkpt>
      <trkpt lat="44.59069" lon="6.15448">
        <ele>1123</ele>
        <time>2022-09-11T10:36:22Z</time>
      </trkpt>
      <trkpt lat="44.59073" lon="6.15445">
        <ele>1123.2</ele>
        <time>2022-09-11T10:36:24Z</time>
      </trkpt>
      <trkpt lat="44.59076" lon="6.15442">
        <ele>1123.5</ele>
        <time>2022-09-11T10:36:26Z</time>
      </trkpt>
      <trkpt lat="44.59076" lon="6.15441">
        <ele>1123.6</ele>
        <time>2022-09-11T10:36:27Z</time>
      </trkpt>
      <trkpt lat="44.5908" lon="6.15438">
        <ele>1123.9</ele>
        <time>2022-09-11T10:36:28Z</time>
      </trkpt>
      <trkpt lat="44.59082" lon="6.15437">
        <ele>1124</ele>
        <time>2022-09-11T10:36:29Z</time>
      </trkpt>
      <trkpt lat="44.59084" lon="6.15435">
        <ele>1124.2</ele>
        <time>2022-09-11T10:36:31Z</time>
      </trkpt>
      <trkpt lat="44.59086" lon="6.15432">
        <ele>1124.4</ele>
        <time>2022-09-11T10:36:32Z</time>
      </trkpt>
      <trkpt lat="44.59087" lon="6.15431">
        <ele>1124.5</ele>
        <time>2022-09-11T10:36:33Z</time>
      </trkpt>
      <trkpt lat="44.5909" lon="6.15428">
        <ele>1124.8</ele>
        <time>2022-09-11T10:36:34Z</time>
      </trkpt>
      <trkpt lat="44.59091" lon="6.15427">
        <ele>1124.9</ele>
        <time>2022-09-11T10:36:35Z</time>
      </trkpt>
      <trkpt lat="44.59093" lon="6.15423">
        <ele>1125.2</ele>
        <time>2022-09-11T10:36:36Z</time>
      </trkpt>
      <trkpt lat="44.59094" lon="6.15422">
        <ele>1125.2</ele>
        <time>2022-09-11T10:36:37Z</time>
      </trkpt>
      <trkpt lat="44.59096" lon="6.1542">
        <ele>1125.5</ele>
        <time>2022-09-11T10:36:38Z</time>
      </trkpt>
      <trkpt lat="44.59097" lon="6.15419">
        <ele>1125.6</ele>
        <time>2022-09-11T10:36:39Z</time>
      </trkpt>
      <trkpt lat="44.591" lon="6.15417">
        <ele>1125.8</ele>
        <time>2022-09-11T10:36:40Z</time>
      </trkpt>
      <trkpt lat="44.591" lon="6.15416">
        <ele>1125.9</ele>
        <time>2022-09-11T10:36:41Z</time>
      </trkpt>
      <trkpt lat="44.59104" lon="6.15412">
        <ele>1126.2</ele>
        <time>2022-09-11T10:36:43Z</time>
      </trkpt>
      <trkpt lat="44.59106" lon="6.1541">
        <ele>1126.5</ele>
        <time>2022-09-11T10:36:44Z</time>
      </trkpt>
      <trkpt lat="44.59107" lon="6.15409">
        <ele>1126.6</ele>
        <time>2022-09-11T10:36:45Z</time>
      </trkpt>
      <trkpt lat="44.5911" lon="6.15407">
        <ele>1126.9</ele>
        <time>2022-09-11T10:36:46Z</time>
      </trkpt>
      <trkpt lat="44.59111" lon="6.15406">
        <ele>1127</ele>
        <time>2022-09-11T10:36:47Z</time>
      </trkpt>
      <trkpt lat="44.59114" lon="6.15404">
        <ele>1127.3</ele>
        <time>2022-09-11T10:36:48Z</time>
      </trkpt>
      <trkpt lat="44.59115" lon="6.15403">
        <ele>1127.4</ele>
        <time>2022-09-11T10:36:49Z</time>
      </trkpt>
      <trkpt lat="44.59118" lon="6.15401">
        <ele>1127.7</ele>
        <time>2022-09-11T10:36:50Z</time>
      </trkpt>
      <trkpt lat="44.59119" lon="6.15401">
        <ele>1127.8</ele>
        <time>2022-09-11T10:36:51Z</time>
      </trkpt>
      <trkpt lat="44.59121" lon="6.15399">
        <ele>1128</ele>
        <time>2022-09-11T10:36:52Z</time>
      </trkpt>
      <trkpt lat="44.59122" lon="6.15399">
        <ele>1128.1</ele>
        <time>2022-09-11T10:36:53Z</time>
      </trkpt>
      <trkpt lat="44.59125" lon="6.15397">
        <ele>1128.4</ele>
        <time>2022-09-11T10:36:54Z</time>
      </trkpt>
      <trkpt lat="44.59126" lon="6.15397">
        <ele>1128.5</ele>
        <time>2022-09-11T10:36:55Z</time>
      </trkpt>
      <trkpt lat="44.5913" lon="6.15395">
        <ele>1128.8</ele>
        <time>2022-09-11T10:36:56Z</time>
      </trkpt>
      <trkpt lat="44.59133" lon="6.15393">
        <ele>1129.2</ele>
        <time>2022-09-11T10:36:58Z</time>
      </trkpt>
      <trkpt lat="44.59134" lon="6.15392">
        <ele>1129.3</ele>
        <time>2022-09-11T10:36:59Z</time>
      </trkpt>
      <trkpt lat="44.59138" lon="6.1539">
        <ele>1129.7</ele>
        <time>2022-09-11T10:37:00Z</time>
      </trkpt>
      <trkpt lat="44.59139" lon="6.1539">
        <ele>1129.8</ele>
        <time>2022-09-11T10:37:01Z</time>
      </trkpt>
      <trkpt lat="44.59142" lon="6.15387">
        <ele>1130.3</ele>
        <time>2022-09-11T10:37:02Z</time>
      </trkpt>
      <trkpt lat="44.59145" lon="6.15385">
        <ele>1130.6</ele>
        <time>2022-09-11T10:37:04Z</time>
      </trkpt>
      <trkpt lat="44.59148" lon="6.15382">
        <ele>1131</ele>
        <time>2022-09-11T10:37:05Z</time>
      </trkpt>
      <trkpt lat="44.5915" lon="6.1538">
        <ele>1131.2</ele>
        <time>2022-09-11T10:37:06Z</time>
      </trkpt>
      <trkpt lat="44.59151" lon="6.15378">
        <ele>1131.4</ele>
        <time>2022-09-11T10:37:08Z</time>
      </trkpt>
      <trkpt lat="44.59154" lon="6.15375">
        <ele>1131.8</ele>
        <time>2022-09-11T10:37:09Z</time>
      </trkpt>
      <trkpt lat="44.59155" lon="6.15374">
        <ele>1131.9</ele>
        <time>2022-09-11T10:37:10Z</time>
      </trkpt>
      <trkpt lat="44.59157" lon="6.15371">
        <ele>1132.3</ele>
        <time>2022-09-11T10:37:11Z</time>
      </trkpt>
      <trkpt lat="44.59158" lon="6.15369">
        <ele>1132.4</ele>
        <time>2022-09-11T10:37:12Z</time>
      </trkpt>
      <trkpt lat="44.5916" lon="6.15367">
        <ele>1132.7</ele>
        <time>2022-09-11T10:37:13Z</time>
      </trkpt>
      <trkpt lat="44.59161" lon="6.15365">
        <ele>1132.8</ele>
        <time>2022-09-11T10:37:14Z</time>
      </trkpt>
      <trkpt lat="44.59163" lon="6.15362">
        <ele>1133.1</ele>
        <time>2022-09-11T10:37:15Z</time>
      </trkpt>
      <trkpt lat="44.59166" lon="6.15357">
        <ele>1133.5</ele>
        <time>2022-09-11T10:37:17Z</time>
      </trkpt>
      <trkpt lat="44.59167" lon="6.15355">
        <ele>1133.7</ele>
        <time>2022-09-11T10:37:19Z</time>
      </trkpt>
      <trkpt lat="44.59169" lon="6.15351">
        <ele>1134</ele>
        <time>2022-09-11T10:37:20Z</time>
      </trkpt>
      <trkpt lat="44.5917" lon="6.15349">
        <ele>1134.2</ele>
        <time>2022-09-11T10:37:21Z</time>
      </trkpt>
      <trkpt lat="44.59171" lon="6.15347">
        <ele>1134.4</ele>
        <time>2022-09-11T10:37:22Z</time>
      </trkpt>
      <trkpt lat="44.59173" lon="6.15344">
        <ele>1134.6</ele>
        <time>2022-09-11T10:37:24Z</time>
      </trkpt>
      <trkpt lat="44.59176" lon="6.15341">
        <ele>1134.9</ele>
        <time>2022-09-11T10:37:25Z</time>
      </trkpt>
      <trkpt lat="44.59177" lon="6.1534">
        <ele>1135</ele>
        <time>2022-09-11T10:37:26Z</time>
      </trkpt>
      <trkpt lat="44.5918" lon="6.15336">
        <ele>1135.4</ele>
        <time>2022-09-11T10:37:27Z</time>
      </trkpt>
      <trkpt lat="44.59182" lon="6.15334">
        <ele>1135.6</ele>
        <time>2022-09-11T10:37:28Z</time>
      </trkpt>
      <trkpt lat="44.59186" lon="6.15332">
        <ele>1135.9</ele>
        <time>2022-09-11T10:37:30Z</time>
      </trkpt>
      <trkpt lat="44.59188" lon="6.15331">
        <ele>1136.1</ele>
        <time>2022-09-11T10:37:32Z</time>
      </trkpt>
      <trkpt lat="44.59191" lon="6.1533">
        <ele>1136.4</ele>
        <time>2022-09-11T10:37:33Z</time>
      </trkpt>
      <trkpt lat="44.59192" lon="6.15329">
        <ele>1136.5</ele>
        <time>2022-09-11T10:37:34Z</time>
      </trkpt>
      <trkpt lat="44.59194" lon="6.15328">
        <ele>1136.6</ele>
        <time>2022-09-11T10:37:35Z</time>
      </trkpt>
      <trkpt lat="44.59196" lon="6.15328">
        <ele>1136.8</ele>
        <time>2022-09-11T10:37:36Z</time>
      </trkpt>
      <trkpt lat="44.59197" lon="6.15327">
        <ele>1136.9</ele>
        <time>2022-09-11T10:37:37Z</time>
      </trkpt>
      <trkpt lat="44.59201" lon="6.15327">
        <ele>1137.3</ele>
        <time>2022-09-11T10:37:38Z</time>
      </trkpt>
      <trkpt lat="44.59203" lon="6.15326">
        <ele>1137.5</ele>
        <time>2022-09-11T10:37:40Z</time>
      </trkpt>
      <trkpt lat="44.59205" lon="6.15326">
        <ele>1137.6</ele>
        <time>2022-09-11T10:37:41Z</time>
      </trkpt>
      <trkpt lat="44.59207" lon="6.15326">
        <ele>1137.8</ele>
        <time>2022-09-11T10:37:42Z</time>
      </trkpt>
      <trkpt lat="44.59209" lon="6.15326">
        <ele>1137.9</ele>
        <time>2022-09-11T10:37:43Z</time>
      </trkpt>
      <trkpt lat="44.5921" lon="6.15326">
        <ele>1138.1</ele>
        <time>2022-09-11T10:37:44Z</time>
      </trkpt>
      <trkpt lat="44.59213" lon="6.15326">
        <ele>1138.4</ele>
        <time>2022-09-11T10:37:45Z</time>
      </trkpt>
      <trkpt lat="44.59214" lon="6.15326">
        <ele>1138.4</ele>
        <time>2022-09-11T10:37:46Z</time>
      </trkpt>
      <trkpt lat="44.59216" lon="6.15325">
        <ele>1138.6</ele>
        <time>2022-09-11T10:37:47Z</time>
      </trkpt>
      <trkpt lat="44.59219" lon="6.15325">
        <ele>1138.8</ele>
        <time>2022-09-11T10:37:48Z</time>
      </trkpt>
      <trkpt lat="44.59221" lon="6.15325">
        <ele>1138.9</ele>
        <time>2022-09-11T10:37:50Z</time>
      </trkpt>
      <trkpt lat="44.59222" lon="6.15325">
        <ele>1139</ele>
        <time>2022-09-11T10:37:51Z</time>
      </trkpt>
      <trkpt lat="44.59224" lon="6.15324">
        <ele>1139.2</ele>
        <time>2022-09-11T10:37:52Z</time>
      </trkpt>
      <trkpt lat="44.59227" lon="6.15323">
        <ele>1139.4</ele>
        <time>2022-09-11T10:37:53Z</time>
      </trkpt>
      <trkpt lat="44.59229" lon="6.15323">
        <ele>1139.5</ele>
        <time>2022-09-11T10:37:54Z</time>
      </trkpt>
      <trkpt lat="44.59231" lon="6.15322">
        <ele>1139.7</ele>
        <time>2022-09-11T10:37:56Z</time>
      </trkpt>
      <trkpt lat="44.59233" lon="6.15321">
        <ele>1139.9</ele>
        <time>2022-09-11T10:37:57Z</time>
      </trkpt>
      <trkpt lat="44.59235" lon="6.15321">
        <ele>1140</ele>
        <time>2022-09-11T10:37:58Z</time>
      </trkpt>
      <trkpt lat="44.59238" lon="6.1532">
        <ele>1140.2</ele>
        <time>2022-09-11T10:37:59Z</time>
      </trkpt>
      <trkpt lat="44.59242" lon="6.1532">
        <ele>1140.5</ele>
        <time>2022-09-11T10:38:01Z</time>
      </trkpt>
      <trkpt lat="44.59244" lon="6.15319">
        <ele>1140.6</ele>
        <time>2022-09-11T10:38:02Z</time>
      </trkpt>
      <trkpt lat="44.59246" lon="6.15319">
        <ele>1140.7</ele>
        <time>2022-09-11T10:38:04Z</time>
      </trkpt>
      <trkpt lat="44.59247" lon="6.15319">
        <ele>1140.9</ele>
        <time>2022-09-11T10:38:05Z</time>
      </trkpt>
      <trkpt lat="44.59251" lon="6.15317">
        <ele>1141.2</ele>
        <time>2022-09-11T10:38:06Z</time>
      </trkpt>
      <trkpt lat="44.59252" lon="6.15316">
        <ele>1141.4</ele>
        <time>2022-09-11T10:38:08Z</time>
      </trkpt>
      <trkpt lat="44.59255" lon="6.15315">
        <ele>1141.7</ele>
        <time>2022-09-11T10:38:09Z</time>
      </trkpt>
      <trkpt lat="44.59256" lon="6.15314">
        <ele>1141.8</ele>
        <time>2022-09-11T10:38:10Z</time>
      </trkpt>
      <trkpt lat="44.59259" lon="6.15313">
        <ele>1142</ele>
        <time>2022-09-11T10:38:11Z</time>
      </trkpt>
      <trkpt lat="44.5926" lon="6.15312">
        <ele>1142.1</ele>
        <time>2022-09-11T10:38:12Z</time>
      </trkpt>
      <trkpt lat="44.59262" lon="6.15311">
        <ele>1142.4</ele>
        <time>2022-09-11T10:38:13Z</time>
      </trkpt>
      <trkpt lat="44.59263" lon="6.1531">
        <ele>1142.5</ele>
        <time>2022-09-11T10:38:14Z</time>
      </trkpt>
      <trkpt lat="44.59266" lon="6.15308">
        <ele>1142.8</ele>
        <time>2022-09-11T10:38:15Z</time>
      </trkpt>
      <trkpt lat="44.59266" lon="6.15307">
        <ele>1142.8</ele>
        <time>2022-09-11T10:38:16Z</time>
      </trkpt>
      <trkpt lat="44.59268" lon="6.15306">
        <ele>1143</ele>
        <time>2022-09-11T10:38:17Z</time>
      </trkpt>
      <trkpt lat="44.59269" lon="6.15305">
        <ele>1143.1</ele>
        <time>2022-09-11T10:38:18Z</time>
      </trkpt>
      <trkpt lat="44.59272" lon="6.15303">
        <ele>1143.4</ele>
        <time>2022-09-11T10:38:19Z</time>
      </trkpt>
      <trkpt lat="44.59273" lon="6.15302">
        <ele>1143.5</ele>
        <time>2022-09-11T10:38:20Z</time>
      </trkpt>
      <trkpt lat="44.59276" lon="6.153">
        <ele>1143.8</ele>
        <time>2022-09-11T10:38:21Z</time>
      </trkpt>
      <trkpt lat="44.59278" lon="6.15297">
        <ele>1144.1</ele>
        <time>2022-09-11T10:38:23Z</time>
      </trkpt>
      <trkpt lat="44.59279" lon="6.15297">
        <ele>1144.2</ele>
        <time>2022-09-11T10:38:24Z</time>
      </trkpt>
      <trkpt lat="44.59281" lon="6.15295">
        <ele>1144.4</ele>
        <time>2022-09-11T10:38:25Z</time>
      </trkpt>
      <trkpt lat="44.59282" lon="6.15294">
        <ele>1144.5</ele>
        <time>2022-09-11T10:38:26Z</time>
      </trkpt>
      <trkpt lat="44.59284" lon="6.15294">
        <ele>1144.7</ele>
        <time>2022-09-11T10:38:27Z</time>
      </trkpt>
      <trkpt lat="44.59287" lon="6.15291">
        <ele>1145</ele>
        <time>2022-09-11T10:38:28Z</time>
      </trkpt>
      <trkpt lat="44.59289" lon="6.1529">
        <ele>1145.2</ele>
        <time>2022-09-11T10:38:30Z</time>
      </trkpt>
      <trkpt lat="44.59291" lon="6.15288">
        <ele>1145.5</ele>
        <time>2022-09-11T10:38:31Z</time>
      </trkpt>
      <trkpt lat="44.59292" lon="6.15287">
        <ele>1145.6</ele>
        <time>2022-09-11T10:38:32Z</time>
      </trkpt>
      <trkpt lat="44.59295" lon="6.15284">
        <ele>1146</ele>
        <time>2022-09-11T10:38:33Z</time>
      </trkpt>
      <trkpt lat="44.59297" lon="6.15282">
        <ele>1146.1</ele>
        <time>2022-09-11T10:38:34Z</time>
      </trkpt>
      <trkpt lat="44.59299" lon="6.15279">
        <ele>1146.4</ele>
        <time>2022-09-11T10:38:36Z</time>
      </trkpt>
      <trkpt lat="44.593" lon="6.15278">
        <ele>1146.6</ele>
        <time>2022-09-11T10:38:37Z</time>
      </trkpt>
      <trkpt lat="44.59301" lon="6.15277">
        <ele>1146.7</ele>
        <time>2022-09-11T10:38:38Z</time>
      </trkpt>
      <trkpt lat="44.59305" lon="6.15273">
        <ele>1147.1</ele>
        <time>2022-09-11T10:38:41Z</time>
      </trkpt>
      <trkpt lat="44.59308" lon="6.15271">
        <ele>1147.4</ele>
        <time>2022-09-11T10:38:42Z</time>
      </trkpt>
      <trkpt lat="44.59309" lon="6.1527">
        <ele>1147.6</ele>
        <time>2022-09-11T10:38:43Z</time>
      </trkpt>
      <trkpt lat="44.5931" lon="6.15268">
        <ele>1147.7</ele>
        <time>2022-09-11T10:38:44Z</time>
      </trkpt>
      <trkpt lat="44.59312" lon="6.15266">
        <ele>1147.9</ele>
        <time>2022-09-11T10:38:45Z</time>
      </trkpt>
      <trkpt lat="44.59314" lon="6.15265">
        <ele>1148.1</ele>
        <time>2022-09-11T10:38:47Z</time>
      </trkpt>
      <trkpt lat="44.59316" lon="6.15262">
        <ele>1148.5</ele>
        <time>2022-09-11T10:38:48Z</time>
      </trkpt>
      <trkpt lat="44.59317" lon="6.15261">
        <ele>1148.6</ele>
        <time>2022-09-11T10:38:49Z</time>
      </trkpt>
      <trkpt lat="44.59318" lon="6.15259">
        <ele>1148.7</ele>
        <time>2022-09-11T10:38:50Z</time>
      </trkpt>
      <trkpt lat="44.59319" lon="6.15258">
        <ele>1148.8</ele>
        <time>2022-09-11T10:38:52Z</time>
      </trkpt>
      <trkpt lat="44.59319" lon="6.15259">
        <ele>1148.9</ele>
        <time>2022-09-11T10:38:53Z</time>
      </trkpt>
      <trkpt lat="44.59319" lon="6.1526">
        <ele>1148.9</ele>
        <time>2022-09-11T10:38:54Z</time>
      </trkpt>
      <trkpt lat="44.59319" lon="6.1526">
        <ele>1148.9</ele>
        <time>2022-09-11T10:38:55Z</time>
      </trkpt>
      <trkpt lat="44.59319" lon="6.1526">
        <ele>1148.9</ele>
        <time>2022-09-11T10:38:56Z</time>
      </trkpt>
      <trkpt lat="44.59318" lon="6.1526">
        <ele>1149</ele>
        <time>2022-09-11T10:38:57Z</time>
      </trkpt>
      <trkpt lat="44.59318" lon="6.1526">
        <ele>1149</ele>
        <time>2022-09-11T10:38:58Z</time>
      </trkpt>
      <trkpt lat="44.59318" lon="6.1526">
        <ele>1149</ele>
        <time>2022-09-11T10:38:59Z</time>
      </trkpt>
      <trkpt lat="44.59318" lon="6.1526">
        <ele>1149</ele>
        <time>2022-09-11T10:39:00Z</time>
      </trkpt>
      <trkpt lat="44.59318" lon="6.1526">
        <ele>1149</ele>
        <time>2022-09-11T10:39:01Z</time>
      </trkpt>
      <trkpt lat="44.59318" lon="6.1526">
        <ele>1149</ele>
        <time>2022-09-11T10:39:02Z</time>
      </trkpt>
      <trkpt lat="44.59321" lon="6.15261">
        <ele>1149.3</ele>
        <time>2022-09-11T10:39:31Z</time>
      </trkpt>
      <trkpt lat="44.59323" lon="6.15253">
        <ele>1149.9</ele>
        <time>2022-09-11T10:39:33Z</time>
      </trkpt>
      <trkpt lat="44.59325" lon="6.15248">
        <ele>1150.4</ele>
        <time>2022-09-11T10:39:34Z</time>
      </trkpt>
      <trkpt lat="44.59327" lon="6.15245">
        <ele>1150.7</ele>
        <time>2022-09-11T10:39:36Z</time>
      </trkpt>
      <trkpt lat="44.5933" lon="6.15242">
        <ele>1151.1</ele>
        <time>2022-09-11T10:39:37Z</time>
      </trkpt>
      <trkpt lat="44.59332" lon="6.15238">
        <ele>1151.4</ele>
        <time>2022-09-11T10:39:39Z</time>
      </trkpt>
      <trkpt lat="44.59333" lon="6.15237">
        <ele>1151.5</ele>
        <time>2022-09-11T10:39:40Z</time>
      </trkpt>
      <trkpt lat="44.59336" lon="6.15234">
        <ele>1151.9</ele>
        <time>2022-09-11T10:39:42Z</time>
      </trkpt>
      <trkpt lat="44.59337" lon="6.15232">
        <ele>1152.2</ele>
        <time>2022-09-11T10:39:43Z</time>
      </trkpt>
      <trkpt lat="44.59341" lon="6.15229">
        <ele>1152.6</ele>
        <time>2022-09-11T10:39:45Z</time>
      </trkpt>
      <trkpt lat="44.59344" lon="6.15227">
        <ele>1152.9</ele>
        <time>2022-09-11T10:39:46Z</time>
      </trkpt>
      <trkpt lat="44.59344" lon="6.15226">
        <ele>1153</ele>
        <time>2022-09-11T10:39:47Z</time>
      </trkpt>
      <trkpt lat="44.59347" lon="6.15224">
        <ele>1153.3</ele>
        <time>2022-09-11T10:39:48Z</time>
      </trkpt>
      <trkpt lat="44.59348" lon="6.15223">
        <ele>1153.4</ele>
        <time>2022-09-11T10:39:49Z</time>
      </trkpt>
      <trkpt lat="44.59351" lon="6.15222">
        <ele>1153.6</ele>
        <time>2022-09-11T10:39:50Z</time>
      </trkpt>
      <trkpt lat="44.59351" lon="6.15222">
        <ele>1153.7</ele>
        <time>2022-09-11T10:39:51Z</time>
      </trkpt>
      <trkpt lat="44.59353" lon="6.1522">
        <ele>1153.9</ele>
        <time>2022-09-11T10:39:52Z</time>
      </trkpt>
      <trkpt lat="44.59355" lon="6.15219">
        <ele>1154</ele>
        <time>2022-09-11T10:39:53Z</time>
      </trkpt>
      <trkpt lat="44.59358" lon="6.15217">
        <ele>1154.2</ele>
        <time>2022-09-11T10:39:54Z</time>
      </trkpt>
      <trkpt lat="44.5936" lon="6.15216">
        <ele>1154.2</ele>
        <time>2022-09-11T10:39:55Z</time>
      </trkpt>
      <trkpt lat="44.59362" lon="6.15215">
        <ele>1154.3</ele>
        <time>2022-09-11T10:39:57Z</time>
      </trkpt>
      <trkpt lat="44.59366" lon="6.15213">
        <ele>1154.4</ele>
        <time>2022-09-11T10:39:58Z</time>
      </trkpt>
      <trkpt lat="44.59368" lon="6.15211">
        <ele>1154.5</ele>
        <time>2022-09-11T10:39:59Z</time>
      </trkpt>
      <trkpt lat="44.5937" lon="6.15211">
        <ele>1154.5</ele>
        <time>2022-09-11T10:40:01Z</time>
      </trkpt>
      <trkpt lat="44.59372" lon="6.15209">
        <ele>1154.7</ele>
        <time>2022-09-11T10:40:02Z</time>
      </trkpt>
      <trkpt lat="44.59373" lon="6.15209">
        <ele>1154.8</ele>
        <time>2022-09-11T10:40:03Z</time>
      </trkpt>
      <trkpt lat="44.59377" lon="6.15206">
        <ele>1155.1</ele>
        <time>2022-09-11T10:40:04Z</time>
      </trkpt>
      <trkpt lat="44.59379" lon="6.15204">
        <ele>1155.3</ele>
        <time>2022-09-11T10:40:05Z</time>
      </trkpt>
      <trkpt lat="44.59381" lon="6.15203">
        <ele>1155.4</ele>
        <time>2022-09-11T10:40:07Z</time>
      </trkpt>
      <trkpt lat="44.59383" lon="6.15201">
        <ele>1155.6</ele>
        <time>2022-09-11T10:40:08Z</time>
      </trkpt>
      <trkpt lat="44.59384" lon="6.152">
        <ele>1155.7</ele>
        <time>2022-09-11T10:40:09Z</time>
      </trkpt>
      <trkpt lat="44.59385" lon="6.15198">
        <ele>1155.8</ele>
        <time>2022-09-11T10:40:10Z</time>
      </trkpt>
      <trkpt lat="44.59387" lon="6.15197">
        <ele>1156</ele>
        <time>2022-09-11T10:40:11Z</time>
      </trkpt>
      <trkpt lat="44.5939" lon="6.15193">
        <ele>1156.2</ele>
        <time>2022-09-11T10:40:12Z</time>
      </trkpt>
      <trkpt lat="44.59392" lon="6.15191">
        <ele>1156.4</ele>
        <time>2022-09-11T10:40:14Z</time>
      </trkpt>
      <trkpt lat="44.59393" lon="6.1519">
        <ele>1156.5</ele>
        <time>2022-09-11T10:40:15Z</time>
      </trkpt>
      <trkpt lat="44.59395" lon="6.15188">
        <ele>1156.6</ele>
        <time>2022-09-11T10:40:16Z</time>
      </trkpt>
      <trkpt lat="44.59396" lon="6.15187">
        <ele>1156.7</ele>
        <time>2022-09-11T10:40:17Z</time>
      </trkpt>
      <trkpt lat="44.59397" lon="6.15185">
        <ele>1156.8</ele>
        <time>2022-09-11T10:40:18Z</time>
      </trkpt>
      <trkpt lat="44.59401" lon="6.15182">
        <ele>1157.1</ele>
        <time>2022-09-11T10:40:20Z</time>
      </trkpt>
      <trkpt lat="44.59403" lon="6.15178">
        <ele>1157.3</ele>
        <time>2022-09-11T10:40:21Z</time>
      </trkpt>
      <trkpt lat="44.59405" lon="6.15176">
        <ele>1157.4</ele>
        <time>2022-09-11T10:40:22Z</time>
      </trkpt>
      <trkpt lat="44.59408" lon="6.15173">
        <ele>1157.6</ele>
        <time>2022-09-11T10:40:24Z</time>
      </trkpt>
      <trkpt lat="44.59411" lon="6.1517">
        <ele>1157.8</ele>
        <time>2022-09-11T10:40:25Z</time>
      </trkpt>
      <trkpt lat="44.59412" lon="6.15168">
        <ele>1157.9</ele>
        <time>2022-09-11T10:40:26Z</time>
      </trkpt>
      <trkpt lat="44.59415" lon="6.15167">
        <ele>1158.1</ele>
        <time>2022-09-11T10:40:28Z</time>
      </trkpt>
      <trkpt lat="44.59417" lon="6.15166">
        <ele>1158.3</ele>
        <time>2022-09-11T10:40:29Z</time>
      </trkpt>
      <trkpt lat="44.59421" lon="6.15164">
        <ele>1158.5</ele>
        <time>2022-09-11T10:40:31Z</time>
      </trkpt>
      <trkpt lat="44.59424" lon="6.15164">
        <ele>1158.8</ele>
        <time>2022-09-11T10:40:32Z</time>
      </trkpt>
      <trkpt lat="44.59425" lon="6.15164">
        <ele>1158.8</ele>
        <time>2022-09-11T10:40:33Z</time>
      </trkpt>
      <trkpt lat="44.59427" lon="6.15163">
        <ele>1158.9</ele>
        <time>2022-09-11T10:40:34Z</time>
      </trkpt>
      <trkpt lat="44.59429" lon="6.15163">
        <ele>1159</ele>
        <time>2022-09-11T10:40:35Z</time>
      </trkpt>
      <trkpt lat="44.59432" lon="6.15164">
        <ele>1159.2</ele>
        <time>2022-09-11T10:40:36Z</time>
      </trkpt>
      <trkpt lat="44.59433" lon="6.15164">
        <ele>1159.3</ele>
        <time>2022-09-11T10:40:37Z</time>
      </trkpt>
      <trkpt lat="44.5944" lon="6.15164">
        <ele>1159.7</ele>
        <time>2022-09-11T10:40:39Z</time>
      </trkpt>
      <trkpt lat="44.59442" lon="6.15165">
        <ele>1159.8</ele>
        <time>2022-09-11T10:40:41Z</time>
      </trkpt>
      <trkpt lat="44.59445" lon="6.15165">
        <ele>1160</ele>
        <time>2022-09-11T10:40:42Z</time>
      </trkpt>
      <trkpt lat="44.59446" lon="6.15165">
        <ele>1160.1</ele>
        <time>2022-09-11T10:40:43Z</time>
      </trkpt>
      <trkpt lat="44.59449" lon="6.15164">
        <ele>1160.3</ele>
        <time>2022-09-11T10:40:44Z</time>
      </trkpt>
      <trkpt lat="44.5945" lon="6.15163">
        <ele>1160.3</ele>
        <time>2022-09-11T10:40:45Z</time>
      </trkpt>
      <trkpt lat="44.59453" lon="6.15162">
        <ele>1160.5</ele>
        <time>2022-09-11T10:40:46Z</time>
      </trkpt>
      <trkpt lat="44.59454" lon="6.15161">
        <ele>1160.6</ele>
        <time>2022-09-11T10:40:47Z</time>
      </trkpt>
      <trkpt lat="44.59457" lon="6.1516">
        <ele>1160.8</ele>
        <time>2022-09-11T10:40:48Z</time>
      </trkpt>
      <trkpt lat="44.59459" lon="6.15159">
        <ele>1160.9</ele>
        <time>2022-09-11T10:40:49Z</time>
      </trkpt>
      <trkpt lat="44.59462" lon="6.15157">
        <ele>1161.1</ele>
        <time>2022-09-11T10:40:50Z</time>
      </trkpt>
      <trkpt lat="44.59463" lon="6.15157">
        <ele>1161.2</ele>
        <time>2022-09-11T10:40:51Z</time>
      </trkpt>
      <trkpt lat="44.59466" lon="6.15155">
        <ele>1161.4</ele>
        <time>2022-09-11T10:40:52Z</time>
      </trkpt>
      <trkpt lat="44.59467" lon="6.15154">
        <ele>1161.5</ele>
        <time>2022-09-11T10:40:53Z</time>
      </trkpt>
      <trkpt lat="44.59471" lon="6.15152">
        <ele>1161.8</ele>
        <time>2022-09-11T10:40:54Z</time>
      </trkpt>
      <trkpt lat="44.59473" lon="6.15151">
        <ele>1161.9</ele>
        <time>2022-09-11T10:40:55Z</time>
      </trkpt>
      <trkpt lat="44.59476" lon="6.1515">
        <ele>1162.1</ele>
        <time>2022-09-11T10:40:57Z</time>
      </trkpt>
      <trkpt lat="44.59479" lon="6.15148">
        <ele>1162.3</ele>
        <time>2022-09-11T10:40:58Z</time>
      </trkpt>
      <trkpt lat="44.5948" lon="6.15147">
        <ele>1162.4</ele>
        <time>2022-09-11T10:40:59Z</time>
      </trkpt>
      <trkpt lat="44.59485" lon="6.15145">
        <ele>1162.7</ele>
        <time>2022-09-11T10:41:00Z</time>
      </trkpt>
      <trkpt lat="44.59487" lon="6.15143">
        <ele>1162.9</ele>
        <time>2022-09-11T10:41:01Z</time>
      </trkpt>
      <trkpt lat="44.59489" lon="6.15142">
        <ele>1163</ele>
        <time>2022-09-11T10:41:02Z</time>
      </trkpt>
      <trkpt lat="44.59493" lon="6.1514">
        <ele>1163.3</ele>
        <time>2022-09-11T10:41:04Z</time>
      </trkpt>
      <trkpt lat="44.59495" lon="6.15139">
        <ele>1163.4</ele>
        <time>2022-09-11T10:41:05Z</time>
      </trkpt>
      <trkpt lat="44.59497" lon="6.15138">
        <ele>1163.6</ele>
        <time>2022-09-11T10:41:06Z</time>
      </trkpt>
      <trkpt lat="44.59501" lon="6.15136">
        <ele>1163.9</ele>
        <time>2022-09-11T10:41:07Z</time>
      </trkpt>
      <trkpt lat="44.59503" lon="6.15135">
        <ele>1164.1</ele>
        <time>2022-09-11T10:41:08Z</time>
      </trkpt>
      <trkpt lat="44.59505" lon="6.15134">
        <ele>1164.2</ele>
        <time>2022-09-11T10:41:10Z</time>
      </trkpt>
      <trkpt lat="44.59509" lon="6.15132">
        <ele>1164.5</ele>
        <time>2022-09-11T10:41:11Z</time>
      </trkpt>
      <trkpt lat="44.59512" lon="6.1513">
        <ele>1164.7</ele>
        <time>2022-09-11T10:41:12Z</time>
      </trkpt>
      <trkpt lat="44.59517" lon="6.15128">
        <ele>1165.1</ele>
        <time>2022-09-11T10:41:14Z</time>
      </trkpt>
      <trkpt lat="44.59519" lon="6.15127">
        <ele>1165.3</ele>
        <time>2022-09-11T10:41:15Z</time>
      </trkpt>
      <trkpt lat="44.59521" lon="6.15125">
        <ele>1165.4</ele>
        <time>2022-09-11T10:41:16Z</time>
      </trkpt>
      <trkpt lat="44.59524" lon="6.15123">
        <ele>1165.7</ele>
        <time>2022-09-11T10:41:17Z</time>
      </trkpt>
      <trkpt lat="44.59525" lon="6.15123">
        <ele>1165.9</ele>
        <time>2022-09-11T10:41:18Z</time>
      </trkpt>
      <trkpt lat="44.59528" lon="6.15121">
        <ele>1166.1</ele>
        <time>2022-09-11T10:41:19Z</time>
      </trkpt>
      <trkpt lat="44.5953" lon="6.15119">
        <ele>1166.4</ele>
        <time>2022-09-11T10:41:21Z</time>
      </trkpt>
      <trkpt lat="44.59534" lon="6.15116">
        <ele>1166.7</ele>
        <time>2022-09-11T10:41:22Z</time>
      </trkpt>
      <trkpt lat="44.59535" lon="6.15116">
        <ele>1166.8</ele>
        <time>2022-09-11T10:41:23Z</time>
      </trkpt>
      <trkpt lat="44.59538" lon="6.15113">
        <ele>1167.2</ele>
        <time>2022-09-11T10:41:24Z</time>
      </trkpt>
      <trkpt lat="44.59542" lon="6.1511">
        <ele>1167.6</ele>
        <time>2022-09-11T10:41:25Z</time>
      </trkpt>
      <trkpt lat="44.59546" lon="6.15105">
        <ele>1168.1</ele>
        <time>2022-09-11T10:41:27Z</time>
      </trkpt>
      <trkpt lat="44.59548" lon="6.15103">
        <ele>1168.3</ele>
        <time>2022-09-11T10:41:28Z</time>
      </trkpt>
      <trkpt lat="44.5955" lon="6.15101">
        <ele>1168.6</ele>
        <time>2022-09-11T10:41:29Z</time>
      </trkpt>
      <trkpt lat="44.59552" lon="6.15099">
        <ele>1168.8</ele>
        <time>2022-09-11T10:41:30Z</time>
      </trkpt>
      <trkpt lat="44.59555" lon="6.15097">
        <ele>1169.2</ele>
        <time>2022-09-11T10:41:32Z</time>
      </trkpt>
      <trkpt lat="44.59556" lon="6.15096">
        <ele>1169.3</ele>
        <time>2022-09-11T10:41:33Z</time>
      </trkpt>
      <trkpt lat="44.5956" lon="6.15093">
        <ele>1169.7</ele>
        <time>2022-09-11T10:41:34Z</time>
      </trkpt>
      <trkpt lat="44.59563" lon="6.15091">
        <ele>1170</ele>
        <time>2022-09-11T10:41:35Z</time>
      </trkpt>
      <trkpt lat="44.59564" lon="6.1509">
        <ele>1170.1</ele>
        <time>2022-09-11T10:41:36Z</time>
      </trkpt>
      <trkpt lat="44.59567" lon="6.15086">
        <ele>1170.4</ele>
        <time>2022-09-11T10:41:38Z</time>
      </trkpt>
      <trkpt lat="44.59568" lon="6.15085">
        <ele>1170.5</ele>
        <time>2022-09-11T10:41:39Z</time>
      </trkpt>
      <trkpt lat="44.59569" lon="6.15084">
        <ele>1170.6</ele>
        <time>2022-09-11T10:41:40Z</time>
      </trkpt>
      <trkpt lat="44.59572" lon="6.15082">
        <ele>1170.9</ele>
        <time>2022-09-11T10:41:41Z</time>
      </trkpt>
      <trkpt lat="44.59573" lon="6.15081">
        <ele>1170.9</ele>
        <time>2022-09-11T10:41:42Z</time>
      </trkpt>
      <trkpt lat="44.59576" lon="6.15079">
        <ele>1171.2</ele>
        <time>2022-09-11T10:41:43Z</time>
      </trkpt>
      <trkpt lat="44.59577" lon="6.15078">
        <ele>1171.2</ele>
        <time>2022-09-11T10:41:44Z</time>
      </trkpt>
      <trkpt lat="44.5958" lon="6.15076">
        <ele>1171.4</ele>
        <time>2022-09-11T10:41:45Z</time>
      </trkpt>
      <trkpt lat="44.59581" lon="6.15075">
        <ele>1171.5</ele>
        <time>2022-09-11T10:41:46Z</time>
      </trkpt>
      <trkpt lat="44.59583" lon="6.15073">
        <ele>1171.7</ele>
        <time>2022-09-11T10:41:47Z</time>
      </trkpt>
      <trkpt lat="44.59584" lon="6.15072">
        <ele>1171.8</ele>
        <time>2022-09-11T10:41:48Z</time>
      </trkpt>
      <trkpt lat="44.59588" lon="6.1507">
        <ele>1172.2</ele>
        <time>2022-09-11T10:41:49Z</time>
      </trkpt>
      <trkpt lat="44.5959" lon="6.15067">
        <ele>1172.5</ele>
        <time>2022-09-11T10:41:51Z</time>
      </trkpt>
      <trkpt lat="44.59591" lon="6.15066">
        <ele>1172.6</ele>
        <time>2022-09-11T10:41:52Z</time>
      </trkpt>
      <trkpt lat="44.59594" lon="6.15063">
        <ele>1172.9</ele>
        <time>2022-09-11T10:41:53Z</time>
      </trkpt>
      <trkpt lat="44.59595" lon="6.15062">
        <ele>1173</ele>
        <time>2022-09-11T10:41:54Z</time>
      </trkpt>
      <trkpt lat="44.59597" lon="6.15059">
        <ele>1173.3</ele>
        <time>2022-09-11T10:41:55Z</time>
      </trkpt>
      <trkpt lat="44.59598" lon="6.15059">
        <ele>1173.4</ele>
        <time>2022-09-11T10:41:56Z</time>
      </trkpt>
      <trkpt lat="44.596" lon="6.15056">
        <ele>1173.7</ele>
        <time>2022-09-11T10:41:57Z</time>
      </trkpt>
      <trkpt lat="44.59601" lon="6.15055">
        <ele>1173.8</ele>
        <time>2022-09-11T10:41:58Z</time>
      </trkpt>
      <trkpt lat="44.59604" lon="6.15052">
        <ele>1174.1</ele>
        <time>2022-09-11T10:41:59Z</time>
      </trkpt>
      <trkpt lat="44.59605" lon="6.15051">
        <ele>1174.2</ele>
        <time>2022-09-11T10:42:00Z</time>
      </trkpt>
      <trkpt lat="44.59607" lon="6.15048">
        <ele>1174.5</ele>
        <time>2022-09-11T10:42:01Z</time>
      </trkpt>
      <trkpt lat="44.59608" lon="6.15047">
        <ele>1174.6</ele>
        <time>2022-09-11T10:42:02Z</time>
      </trkpt>
      <trkpt lat="44.59611" lon="6.15044">
        <ele>1174.9</ele>
        <time>2022-09-11T10:42:03Z</time>
      </trkpt>
      <trkpt lat="44.59611" lon="6.15043">
        <ele>1175</ele>
        <time>2022-09-11T10:42:04Z</time>
      </trkpt>
      <trkpt lat="44.59614" lon="6.1504">
        <ele>1175.3</ele>
        <time>2022-09-11T10:42:05Z</time>
      </trkpt>
      <trkpt lat="44.59614" lon="6.15039">
        <ele>1175.4</ele>
        <time>2022-09-11T10:42:06Z</time>
      </trkpt>
      <trkpt lat="44.59616" lon="6.15036">
        <ele>1175.6</ele>
        <time>2022-09-11T10:42:07Z</time>
      </trkpt>
      <trkpt lat="44.59618" lon="6.15033">
        <ele>1175.9</ele>
        <time>2022-09-11T10:42:08Z</time>
      </trkpt>
      <trkpt lat="44.59621" lon="6.1503">
        <ele>1176.2</ele>
        <time>2022-09-11T10:42:09Z</time>
      </trkpt>
      <trkpt lat="44.59623" lon="6.15027">
        <ele>1176.4</ele>
        <time>2022-09-11T10:42:11Z</time>
      </trkpt>
      <trkpt lat="44.59626" lon="6.15023">
        <ele>1176.8</ele>
        <time>2022-09-11T10:42:12Z</time>
      </trkpt>
      <trkpt lat="44.59629" lon="6.1502">
        <ele>1177.1</ele>
        <time>2022-09-11T10:42:14Z</time>
      </trkpt>
      <trkpt lat="44.59631" lon="6.15017">
        <ele>1177.4</ele>
        <time>2022-09-11T10:42:15Z</time>
      </trkpt>
      <trkpt lat="44.59634" lon="6.15013">
        <ele>1177.7</ele>
        <time>2022-09-11T10:42:16Z</time>
      </trkpt>
      <trkpt lat="44.59635" lon="6.15012">
        <ele>1177.8</ele>
        <time>2022-09-11T10:42:17Z</time>
      </trkpt>
      <trkpt lat="44.59638" lon="6.15007">
        <ele>1178.2</ele>
        <time>2022-09-11T10:42:19Z</time>
      </trkpt>
      <trkpt lat="44.59639" lon="6.15006">
        <ele>1178.4</ele>
        <time>2022-09-11T10:42:20Z</time>
      </trkpt>
      <trkpt lat="44.59641" lon="6.15004">
        <ele>1178.5</ele>
        <time>2022-09-11T10:42:21Z</time>
      </trkpt>
      <trkpt lat="44.59644" lon="6.14999">
        <ele>1178.9</ele>
        <time>2022-09-11T10:42:22Z</time>
      </trkpt>
      <trkpt lat="44.59646" lon="6.14997">
        <ele>1179.1</ele>
        <time>2022-09-11T10:42:23Z</time>
      </trkpt>
      <trkpt lat="44.59648" lon="6.14994">
        <ele>1179.4</ele>
        <time>2022-09-11T10:42:25Z</time>
      </trkpt>
      <trkpt lat="44.59651" lon="6.14991">
        <ele>1179.7</ele>
        <time>2022-09-11T10:42:26Z</time>
      </trkpt>
      <trkpt lat="44.59652" lon="6.14989">
        <ele>1179.8</ele>
        <time>2022-09-11T10:42:27Z</time>
      </trkpt>
      <trkpt lat="44.59655" lon="6.14986">
        <ele>1180.1</ele>
        <time>2022-09-11T10:42:28Z</time>
      </trkpt>
      <trkpt lat="44.59656" lon="6.14985">
        <ele>1180.2</ele>
        <time>2022-09-11T10:42:29Z</time>
      </trkpt>
      <trkpt lat="44.59658" lon="6.14982">
        <ele>1180.5</ele>
        <time>2022-09-11T10:42:30Z</time>
      </trkpt>
      <trkpt lat="44.5966" lon="6.14978">
        <ele>1180.8</ele>
        <time>2022-09-11T10:42:31Z</time>
      </trkpt>
      <trkpt lat="44.59661" lon="6.14977">
        <ele>1180.9</ele>
        <time>2022-09-11T10:42:32Z</time>
      </trkpt>
      <trkpt lat="44.59664" lon="6.14974">
        <ele>1181.2</ele>
        <time>2022-09-11T10:42:33Z</time>
      </trkpt>
      <trkpt lat="44.59665" lon="6.14973">
        <ele>1181.3</ele>
        <time>2022-09-11T10:42:34Z</time>
      </trkpt>
      <trkpt lat="44.59667" lon="6.1497">
        <ele>1181.6</ele>
        <time>2022-09-11T10:42:35Z</time>
      </trkpt>
      <trkpt lat="44.5967" lon="6.14965">
        <ele>1182</ele>
        <time>2022-09-11T10:42:36Z</time>
      </trkpt>
      <trkpt lat="44.59671" lon="6.14962">
        <ele>1182.2</ele>
        <time>2022-09-11T10:42:37Z</time>
      </trkpt>
      <trkpt lat="44.59672" lon="6.1496">
        <ele>1182.3</ele>
        <time>2022-09-11T10:42:39Z</time>
      </trkpt>
      <trkpt lat="44.59674" lon="6.14956">
        <ele>1182.5</ele>
        <time>2022-09-11T10:42:40Z</time>
      </trkpt>
      <trkpt lat="44.59675" lon="6.14955">
        <ele>1182.6</ele>
        <time>2022-09-11T10:42:41Z</time>
      </trkpt>
      <trkpt lat="44.59676" lon="6.14949">
        <ele>1182.9</ele>
        <time>2022-09-11T10:42:42Z</time>
      </trkpt>
      <trkpt lat="44.59677" lon="6.14945">
        <ele>1183</ele>
        <time>2022-09-11T10:42:44Z</time>
      </trkpt>
      <trkpt lat="44.59679" lon="6.14939">
        <ele>1183.3</ele>
        <time>2022-09-11T10:42:45Z</time>
      </trkpt>
      <trkpt lat="44.5968" lon="6.14935">
        <ele>1183.4</ele>
        <time>2022-09-11T10:42:46Z</time>
      </trkpt>
      <trkpt lat="44.59681" lon="6.14931">
        <ele>1183.6</ele>
        <time>2022-09-11T10:42:48Z</time>
      </trkpt>
      <trkpt lat="44.59683" lon="6.14927">
        <ele>1183.7</ele>
        <time>2022-09-11T10:42:49Z</time>
      </trkpt>
      <trkpt lat="44.59684" lon="6.14921">
        <ele>1183.9</ele>
        <time>2022-09-11T10:42:50Z</time>
      </trkpt>
      <trkpt lat="44.59685" lon="6.14919">
        <ele>1184</ele>
        <time>2022-09-11T10:42:51Z</time>
      </trkpt>
      <trkpt lat="44.59686" lon="6.14915">
        <ele>1184.1</ele>
        <time>2022-09-11T10:42:52Z</time>
      </trkpt>
      <trkpt lat="44.59687" lon="6.1491">
        <ele>1184.3</ele>
        <time>2022-09-11T10:42:53Z</time>
      </trkpt>
      <trkpt lat="44.5969" lon="6.14905">
        <ele>1184.4</ele>
        <time>2022-09-11T10:42:55Z</time>
      </trkpt>
      <trkpt lat="44.59692" lon="6.149">
        <ele>1184.6</ele>
        <time>2022-09-11T10:42:56Z</time>
      </trkpt>
      <trkpt lat="44.59694" lon="6.14895">
        <ele>1184.8</ele>
        <time>2022-09-11T10:42:58Z</time>
      </trkpt>
      <trkpt lat="44.59694" lon="6.14894">
        <ele>1184.8</ele>
        <time>2022-09-11T10:42:59Z</time>
      </trkpt>
      <trkpt lat="44.59696" lon="6.14889">
        <ele>1185</ele>
        <time>2022-09-11T10:43:00Z</time>
      </trkpt>
      <trkpt lat="44.59698" lon="6.14885">
        <ele>1185.1</ele>
        <time>2022-09-11T10:43:01Z</time>
      </trkpt>
      <trkpt lat="44.597" lon="6.14881">
        <ele>1185.2</ele>
        <time>2022-09-11T10:43:02Z</time>
      </trkpt>
      <trkpt lat="44.59702" lon="6.14878">
        <ele>1185.3</ele>
        <time>2022-09-11T10:43:03Z</time>
      </trkpt>
      <trkpt lat="44.59704" lon="6.14874">
        <ele>1185.5</ele>
        <time>2022-09-11T10:43:04Z</time>
      </trkpt>
      <trkpt lat="44.59707" lon="6.1487">
        <ele>1185.7</ele>
        <time>2022-09-11T10:43:06Z</time>
      </trkpt>
      <trkpt lat="44.5971" lon="6.14864">
        <ele>1185.9</ele>
        <time>2022-09-11T10:43:07Z</time>
      </trkpt>
      <trkpt lat="44.59713" lon="6.14857">
        <ele>1186.1</ele>
        <time>2022-09-11T10:43:09Z</time>
      </trkpt>
      <trkpt lat="44.59717" lon="6.14849">
        <ele>1186.4</ele>
        <time>2022-09-11T10:43:11Z</time>
      </trkpt>
      <trkpt lat="44.59718" lon="6.14846">
        <ele>1186.5</ele>
        <time>2022-09-11T10:43:13Z</time>
      </trkpt>
      <trkpt lat="44.5972" lon="6.14842">
        <ele>1186.7</ele>
        <time>2022-09-11T10:43:14Z</time>
      </trkpt>
      <trkpt lat="44.59722" lon="6.14838">
        <ele>1186.8</ele>
        <time>2022-09-11T10:43:15Z</time>
      </trkpt>
      <trkpt lat="44.59724" lon="6.14832">
        <ele>1187</ele>
        <time>2022-09-11T10:43:16Z</time>
      </trkpt>
      <trkpt lat="44.59726" lon="6.14828">
        <ele>1187.2</ele>
        <time>2022-09-11T10:43:17Z</time>
      </trkpt>
      <trkpt lat="44.59728" lon="6.14825">
        <ele>1187.3</ele>
        <time>2022-09-11T10:43:19Z</time>
      </trkpt>
      <trkpt lat="44.59729" lon="6.14821">
        <ele>1187.4</ele>
        <time>2022-09-11T10:43:20Z</time>
      </trkpt>
      <trkpt lat="44.59731" lon="6.14818">
        <ele>1187.5</ele>
        <time>2022-09-11T10:43:21Z</time>
      </trkpt>
      <trkpt lat="44.59733" lon="6.14815">
        <ele>1187.6</ele>
        <time>2022-09-11T10:43:22Z</time>
      </trkpt>
      <trkpt lat="44.59734" lon="6.14811">
        <ele>1187.7</ele>
        <time>2022-09-11T10:43:23Z</time>
      </trkpt>
      <trkpt lat="44.59736" lon="6.14807">
        <ele>1187.8</ele>
        <time>2022-09-11T10:43:24Z</time>
      </trkpt>
      <trkpt lat="44.59739" lon="6.14802">
        <ele>1188</ele>
        <time>2022-09-11T10:43:25Z</time>
      </trkpt>
      <trkpt lat="44.59742" lon="6.14798">
        <ele>1188.1</ele>
        <time>2022-09-11T10:43:27Z</time>
      </trkpt>
      <trkpt lat="44.59744" lon="6.14794">
        <ele>1188.2</ele>
        <time>2022-09-11T10:43:28Z</time>
      </trkpt>
      <trkpt lat="44.59746" lon="6.14791">
        <ele>1188.3</ele>
        <time>2022-09-11T10:43:29Z</time>
      </trkpt>
      <trkpt lat="44.59748" lon="6.14786">
        <ele>1188.4</ele>
        <time>2022-09-11T10:43:30Z</time>
      </trkpt>
      <trkpt lat="44.59752" lon="6.1478">
        <ele>1188.6</ele>
        <time>2022-09-11T10:43:31Z</time>
      </trkpt>
      <trkpt lat="44.59754" lon="6.14777">
        <ele>1188.7</ele>
        <time>2022-09-11T10:43:32Z</time>
      </trkpt>
      <trkpt lat="44.59757" lon="6.14772">
        <ele>1188.8</ele>
        <time>2022-09-11T10:43:34Z</time>
      </trkpt>
      <trkpt lat="44.5976" lon="6.14766">
        <ele>1188.9</ele>
        <time>2022-09-11T10:43:35Z</time>
      </trkpt>
      <trkpt lat="44.59764" lon="6.14762">
        <ele>1188.9</ele>
        <time>2022-09-11T10:43:36Z</time>
      </trkpt>
      <trkpt lat="44.59767" lon="6.14756">
        <ele>1189</ele>
        <time>2022-09-11T10:43:37Z</time>
      </trkpt>
      <trkpt lat="44.59771" lon="6.14751">
        <ele>1189.1</ele>
        <time>2022-09-11T10:43:38Z</time>
      </trkpt>
      <trkpt lat="44.59775" lon="6.14747">
        <ele>1189.2</ele>
        <time>2022-09-11T10:43:40Z</time>
      </trkpt>
      <trkpt lat="44.59778" lon="6.14743">
        <ele>1189.3</ele>
        <time>2022-09-11T10:43:41Z</time>
      </trkpt>
      <trkpt lat="44.59782" lon="6.14739">
        <ele>1189.4</ele>
        <time>2022-09-11T10:43:42Z</time>
      </trkpt>
      <trkpt lat="44.59786" lon="6.14733">
        <ele>1189.5</ele>
        <time>2022-09-11T10:43:43Z</time>
      </trkpt>
      <trkpt lat="44.5979" lon="6.14728">
        <ele>1189.6</ele>
        <time>2022-09-11T10:43:44Z</time>
      </trkpt>
      <trkpt lat="44.59795" lon="6.14722">
        <ele>1189.7</ele>
        <time>2022-09-11T10:43:46Z</time>
      </trkpt>
      <trkpt lat="44.59799" lon="6.14715">
        <ele>1189.9</ele>
        <time>2022-09-11T10:43:47Z</time>
      </trkpt>
      <trkpt lat="44.59802" lon="6.1471">
        <ele>1190</ele>
        <time>2022-09-11T10:43:48Z</time>
      </trkpt>
      <trkpt lat="44.59806" lon="6.14705">
        <ele>1190.1</ele>
        <time>2022-09-11T10:43:49Z</time>
      </trkpt>
      <trkpt lat="44.59809" lon="6.147">
        <ele>1190.2</ele>
        <time>2022-09-11T10:43:50Z</time>
      </trkpt>
      <trkpt lat="44.59812" lon="6.14695">
        <ele>1190.3</ele>
        <time>2022-09-11T10:43:51Z</time>
      </trkpt>
      <trkpt lat="44.59815" lon="6.14692">
        <ele>1190.4</ele>
        <time>2022-09-11T10:43:52Z</time>
      </trkpt>
      <trkpt lat="44.59819" lon="6.14688">
        <ele>1190.5</ele>
        <time>2022-09-11T10:43:54Z</time>
      </trkpt>
      <trkpt lat="44.59822" lon="6.14684">
        <ele>1190.6</ele>
        <time>2022-09-11T10:43:55Z</time>
      </trkpt>
      <trkpt lat="44.59827" lon="6.14678">
        <ele>1190.8</ele>
        <time>2022-09-11T10:43:56Z</time>
      </trkpt>
      <trkpt lat="44.59831" lon="6.14673">
        <ele>1191</ele>
        <time>2022-09-11T10:43:57Z</time>
      </trkpt>
      <trkpt lat="44.59834" lon="6.14667">
        <ele>1191.2</ele>
        <time>2022-09-11T10:43:59Z</time>
      </trkpt>
      <trkpt lat="44.59837" lon="6.14663">
        <ele>1191.4</ele>
        <time>2022-09-11T10:44:00Z</time>
      </trkpt>
      <trkpt lat="44.59842" lon="6.14658">
        <ele>1191.6</ele>
        <time>2022-09-11T10:44:01Z</time>
      </trkpt>
      <trkpt lat="44.59845" lon="6.14654">
        <ele>1191.8</ele>
        <time>2022-09-11T10:44:02Z</time>
      </trkpt>
      <trkpt lat="44.59848" lon="6.1465">
        <ele>1191.9</ele>
        <time>2022-09-11T10:44:03Z</time>
      </trkpt>
      <trkpt lat="44.59851" lon="6.14646">
        <ele>1192.1</ele>
        <time>2022-09-11T10:44:04Z</time>
      </trkpt>
      <trkpt lat="44.59853" lon="6.14643">
        <ele>1192.2</ele>
        <time>2022-09-11T10:44:05Z</time>
      </trkpt>
      <trkpt lat="44.59857" lon="6.14638">
        <ele>1192.3</ele>
        <time>2022-09-11T10:44:06Z</time>
      </trkpt>
      <trkpt lat="44.5986" lon="6.14634">
        <ele>1192.4</ele>
        <time>2022-09-11T10:44:08Z</time>
      </trkpt>
      <trkpt lat="44.59863" lon="6.14631">
        <ele>1192.5</ele>
        <time>2022-09-11T10:44:09Z</time>
      </trkpt>
      <trkpt lat="44.59866" lon="6.14628">
        <ele>1192.7</ele>
        <time>2022-09-11T10:44:10Z</time>
      </trkpt>
      <trkpt lat="44.59868" lon="6.14625">
        <ele>1192.7</ele>
        <time>2022-09-11T10:44:11Z</time>
      </trkpt>
      <trkpt lat="44.59871" lon="6.14623">
        <ele>1192.8</ele>
        <time>2022-09-11T10:44:12Z</time>
      </trkpt>
      <trkpt lat="44.59874" lon="6.14619">
        <ele>1192.9</ele>
        <time>2022-09-11T10:44:13Z</time>
      </trkpt>
      <trkpt lat="44.59881" lon="6.14613">
        <ele>1193.1</ele>
        <time>2022-09-11T10:44:14Z</time>
      </trkpt>
      <trkpt lat="44.59884" lon="6.14609">
        <ele>1193.2</ele>
        <time>2022-09-11T10:44:16Z</time>
      </trkpt>
      <trkpt lat="44.59889" lon="6.14602">
        <ele>1193.4</ele>
        <time>2022-09-11T10:44:17Z</time>
      </trkpt>
      <trkpt lat="44.59896" lon="6.14597">
        <ele>1193.5</ele>
        <time>2022-09-11T10:44:19Z</time>
      </trkpt>
      <trkpt lat="44.59899" lon="6.14593">
        <ele>1193.6</ele>
        <time>2022-09-11T10:44:21Z</time>
      </trkpt>
      <trkpt lat="44.59903" lon="6.1459">
        <ele>1193.7</ele>
        <time>2022-09-11T10:44:22Z</time>
      </trkpt>
      <trkpt lat="44.59906" lon="6.14588">
        <ele>1193.8</ele>
        <time>2022-09-11T10:44:23Z</time>
      </trkpt>
      <trkpt lat="44.59912" lon="6.14582">
        <ele>1194</ele>
        <time>2022-09-11T10:44:24Z</time>
      </trkpt>
      <trkpt lat="44.59916" lon="6.14579">
        <ele>1194.1</ele>
        <time>2022-09-11T10:44:26Z</time>
      </trkpt>
      <trkpt lat="44.5992" lon="6.14576">
        <ele>1194.3</ele>
        <time>2022-09-11T10:44:27Z</time>
      </trkpt>
      <trkpt lat="44.59923" lon="6.14573">
        <ele>1194.4</ele>
        <time>2022-09-11T10:44:28Z</time>
      </trkpt>
      <trkpt lat="44.59927" lon="6.14571">
        <ele>1194.5</ele>
        <time>2022-09-11T10:44:29Z</time>
      </trkpt>
      <trkpt lat="44.59931" lon="6.14568">
        <ele>1194.7</ele>
        <time>2022-09-11T10:44:30Z</time>
      </trkpt>
      <trkpt lat="44.59937" lon="6.14566">
        <ele>1194.9</ele>
        <time>2022-09-11T10:44:32Z</time>
      </trkpt>
      <trkpt lat="44.59941" lon="6.14565">
        <ele>1195.1</ele>
        <time>2022-09-11T10:44:33Z</time>
      </trkpt>
      <trkpt lat="44.59945" lon="6.14564">
        <ele>1195.3</ele>
        <time>2022-09-11T10:44:34Z</time>
      </trkpt>
      <trkpt lat="44.59949" lon="6.14564">
        <ele>1195.4</ele>
        <time>2022-09-11T10:44:35Z</time>
      </trkpt>
      <trkpt lat="44.59954" lon="6.14566">
        <ele>1195.6</ele>
        <time>2022-09-11T10:44:36Z</time>
      </trkpt>
      <trkpt lat="44.59958" lon="6.14568">
        <ele>1195.8</ele>
        <time>2022-09-11T10:44:37Z</time>
      </trkpt>
      <trkpt lat="44.59961" lon="6.14572">
        <ele>1196</ele>
        <time>2022-09-11T10:44:39Z</time>
      </trkpt>
      <trkpt lat="44.59964" lon="6.14577">
        <ele>1196.2</ele>
        <time>2022-09-11T10:44:40Z</time>
      </trkpt>
      <trkpt lat="44.59967" lon="6.14581">
        <ele>1196.4</ele>
        <time>2022-09-11T10:44:41Z</time>
      </trkpt>
      <trkpt lat="44.59969" lon="6.14586">
        <ele>1196.6</ele>
        <time>2022-09-11T10:44:43Z</time>
      </trkpt>
      <trkpt lat="44.59971" lon="6.14589">
        <ele>1196.8</ele>
        <time>2022-09-11T10:44:44Z</time>
      </trkpt>
      <trkpt lat="44.59974" lon="6.14595">
        <ele>1197</ele>
        <time>2022-09-11T10:44:45Z</time>
      </trkpt>
      <trkpt lat="44.59976" lon="6.14598">
        <ele>1197.2</ele>
        <time>2022-09-11T10:44:46Z</time>
      </trkpt>
      <trkpt lat="44.59979" lon="6.14603">
        <ele>1197.4</ele>
        <time>2022-09-11T10:44:48Z</time>
      </trkpt>
      <trkpt lat="44.59984" lon="6.14608">
        <ele>1197.7</ele>
        <time>2022-09-11T10:44:49Z</time>
      </trkpt>
      <trkpt lat="44.59987" lon="6.1461">
        <ele>1197.8</ele>
        <time>2022-09-11T10:44:50Z</time>
      </trkpt>
      <trkpt lat="44.5999" lon="6.14611">
        <ele>1198</ele>
        <time>2022-09-11T10:44:52Z</time>
      </trkpt>
      <trkpt lat="44.59994" lon="6.1461">
        <ele>1198.2</ele>
        <time>2022-09-11T10:44:53Z</time>
      </trkpt>
      <trkpt lat="44.59998" lon="6.14609">
        <ele>1198.2</ele>
        <time>2022-09-11T10:44:54Z</time>
      </trkpt>
      <trkpt lat="44.60001" lon="6.14608">
        <ele>1198.2</ele>
        <time>2022-09-11T10:44:55Z</time>
      </trkpt>
      <trkpt lat="44.60004" lon="6.14606">
        <ele>1198.1</ele>
        <time>2022-09-11T10:44:56Z</time>
      </trkpt>
      <trkpt lat="44.60007" lon="6.14605">
        <ele>1198.1</ele>
        <time>2022-09-11T10:44:57Z</time>
      </trkpt>
      <trkpt lat="44.60012" lon="6.14603">
        <ele>1198.2</ele>
        <time>2022-09-11T10:44:58Z</time>
      </trkpt>
      <trkpt lat="44.60016" lon="6.14602">
        <ele>1198.4</ele>
        <time>2022-09-11T10:45:00Z</time>
      </trkpt>
      <trkpt lat="44.60022" lon="6.14601">
        <ele>1198.8</ele>
        <time>2022-09-11T10:45:01Z</time>
      </trkpt>
      <trkpt lat="44.60025" lon="6.146">
        <ele>1198.9</ele>
        <time>2022-09-11T10:45:03Z</time>
      </trkpt>
      <trkpt lat="44.60028" lon="6.14599">
        <ele>1199.1</ele>
        <time>2022-09-11T10:45:04Z</time>
      </trkpt>
      <trkpt lat="44.60033" lon="6.14597">
        <ele>1199.5</ele>
        <time>2022-09-11T10:45:05Z</time>
      </trkpt>
      <trkpt lat="44.60037" lon="6.14597">
        <ele>1199.7</ele>
        <time>2022-09-11T10:45:07Z</time>
      </trkpt>
      <trkpt lat="44.60041" lon="6.14596">
        <ele>1199.9</ele>
        <time>2022-09-11T10:45:08Z</time>
      </trkpt>
      <trkpt lat="44.60044" lon="6.14596">
        <ele>1200.1</ele>
        <time>2022-09-11T10:45:09Z</time>
      </trkpt>
      <trkpt lat="44.60047" lon="6.14595">
        <ele>1200.3</ele>
        <time>2022-09-11T10:45:10Z</time>
      </trkpt>
      <trkpt lat="44.6005" lon="6.14594">
        <ele>1200.5</ele>
        <time>2022-09-11T10:45:11Z</time>
      </trkpt>
      <trkpt lat="44.60054" lon="6.14592">
        <ele>1200.7</ele>
        <time>2022-09-11T10:45:12Z</time>
      </trkpt>
      <trkpt lat="44.60057" lon="6.1459">
        <ele>1201</ele>
        <time>2022-09-11T10:45:13Z</time>
      </trkpt>
      <trkpt lat="44.6006" lon="6.14587">
        <ele>1201.2</ele>
        <time>2022-09-11T10:45:14Z</time>
      </trkpt>
      <trkpt lat="44.60063" lon="6.14584">
        <ele>1201.4</ele>
        <time>2022-09-11T10:45:15Z</time>
      </trkpt>
      <trkpt lat="44.60067" lon="6.14576">
        <ele>1201.8</ele>
        <time>2022-09-11T10:45:16Z</time>
      </trkpt>
      <trkpt lat="44.60069" lon="6.1457">
        <ele>1202.1</ele>
        <time>2022-09-11T10:45:18Z</time>
      </trkpt>
      <trkpt lat="44.6007" lon="6.14565">
        <ele>1202.3</ele>
        <time>2022-09-11T10:45:19Z</time>
      </trkpt>
      <trkpt lat="44.60071" lon="6.1456">
        <ele>1202.5</ele>
        <time>2022-09-11T10:45:20Z</time>
      </trkpt>
      <trkpt lat="44.60072" lon="6.14554">
        <ele>1202.8</ele>
        <time>2022-09-11T10:45:21Z</time>
      </trkpt>
      <trkpt lat="44.60073" lon="6.1455">
        <ele>1203</ele>
        <time>2022-09-11T10:45:22Z</time>
      </trkpt>
      <trkpt lat="44.60074" lon="6.14544">
        <ele>1203.2</ele>
        <time>2022-09-11T10:45:23Z</time>
      </trkpt>
      <trkpt lat="44.60075" lon="6.14539">
        <ele>1203.4</ele>
        <time>2022-09-11T10:45:24Z</time>
      </trkpt>
      <trkpt lat="44.60078" lon="6.14535">
        <ele>1203.7</ele>
        <time>2022-09-11T10:45:25Z</time>
      </trkpt>
      <trkpt lat="44.60081" lon="6.1453">
        <ele>1204</ele>
        <time>2022-09-11T10:45:26Z</time>
      </trkpt>
      <trkpt lat="44.60086" lon="6.14524">
        <ele>1204.4</ele>
        <time>2022-09-11T10:45:28Z</time>
      </trkpt>
      <trkpt lat="44.60088" lon="6.14521">
        <ele>1204.6</ele>
        <time>2022-09-11T10:45:30Z</time>
      </trkpt>
      <trkpt lat="44.60092" lon="6.14518">
        <ele>1204.9</ele>
        <time>2022-09-11T10:45:31Z</time>
      </trkpt>
      <trkpt lat="44.60096" lon="6.14514">
        <ele>1205.2</ele>
        <time>2022-09-11T10:45:32Z</time>
      </trkpt>
      <trkpt lat="44.60099" lon="6.14512">
        <ele>1205.4</ele>
        <time>2022-09-11T10:45:33Z</time>
      </trkpt>
      <trkpt lat="44.60102" lon="6.14509">
        <ele>1205.7</ele>
        <time>2022-09-11T10:45:34Z</time>
      </trkpt>
      <trkpt lat="44.60107" lon="6.14505">
        <ele>1206</ele>
        <time>2022-09-11T10:45:36Z</time>
      </trkpt>
      <trkpt lat="44.60109" lon="6.14503">
        <ele>1206.2</ele>
        <time>2022-09-11T10:45:37Z</time>
      </trkpt>
      <trkpt lat="44.60112" lon="6.14501">
        <ele>1206.4</ele>
        <time>2022-09-11T10:45:39Z</time>
      </trkpt>
      <trkpt lat="44.60115" lon="6.14498">
        <ele>1206.6</ele>
        <time>2022-09-11T10:45:40Z</time>
      </trkpt>
      <trkpt lat="44.60117" lon="6.14497">
        <ele>1206.8</ele>
        <time>2022-09-11T10:45:41Z</time>
      </trkpt>
      <trkpt lat="44.60124" lon="6.14493">
        <ele>1207.3</ele>
        <time>2022-09-11T10:45:42Z</time>
      </trkpt>
      <trkpt lat="44.60126" lon="6.1449">
        <ele>1207.5</ele>
        <time>2022-09-11T10:45:44Z</time>
      </trkpt>
      <trkpt lat="44.60129" lon="6.14487">
        <ele>1207.7</ele>
        <time>2022-09-11T10:45:45Z</time>
      </trkpt>
      <trkpt lat="44.60133" lon="6.14484">
        <ele>1208</ele>
        <time>2022-09-11T10:45:46Z</time>
      </trkpt>
      <trkpt lat="44.60137" lon="6.14482">
        <ele>1208.3</ele>
        <time>2022-09-11T10:45:47Z</time>
      </trkpt>
      <trkpt lat="44.60142" lon="6.14478">
        <ele>1208.7</ele>
        <time>2022-09-11T10:45:49Z</time>
      </trkpt>
      <trkpt lat="44.60145" lon="6.14475">
        <ele>1208.9</ele>
        <time>2022-09-11T10:45:51Z</time>
      </trkpt>
      <trkpt lat="44.60148" lon="6.14472">
        <ele>1209.1</ele>
        <time>2022-09-11T10:45:52Z</time>
      </trkpt>
      <trkpt lat="44.60152" lon="6.14467">
        <ele>1209.4</ele>
        <time>2022-09-11T10:45:53Z</time>
      </trkpt>
      <trkpt lat="44.60155" lon="6.14465">
        <ele>1209.6</ele>
        <time>2022-09-11T10:45:54Z</time>
      </trkpt>
      <trkpt lat="44.60159" lon="6.14462">
        <ele>1209.9</ele>
        <time>2022-09-11T10:45:56Z</time>
      </trkpt>
      <trkpt lat="44.60162" lon="6.1446">
        <ele>1210.1</ele>
        <time>2022-09-11T10:45:57Z</time>
      </trkpt>
      <trkpt lat="44.60167" lon="6.14456">
        <ele>1210.5</ele>
        <time>2022-09-11T10:45:58Z</time>
      </trkpt>
      <trkpt lat="44.6017" lon="6.14453">
        <ele>1210.7</ele>
        <time>2022-09-11T10:46:00Z</time>
      </trkpt>
      <trkpt lat="44.60172" lon="6.14451">
        <ele>1210.9</ele>
        <time>2022-09-11T10:46:01Z</time>
      </trkpt>
      <trkpt lat="44.60175" lon="6.14448">
        <ele>1211.1</ele>
        <time>2022-09-11T10:46:02Z</time>
      </trkpt>
      <trkpt lat="44.60177" lon="6.14446">
        <ele>1211.3</ele>
        <time>2022-09-11T10:46:03Z</time>
      </trkpt>
      <trkpt lat="44.6018" lon="6.14443">
        <ele>1211.5</ele>
        <time>2022-09-11T10:46:04Z</time>
      </trkpt>
      <trkpt lat="44.60181" lon="6.14441">
        <ele>1211.6</ele>
        <time>2022-09-11T10:46:05Z</time>
      </trkpt>
      <trkpt lat="44.60184" lon="6.14439">
        <ele>1211.8</ele>
        <time>2022-09-11T10:46:06Z</time>
      </trkpt>
      <trkpt lat="44.60186" lon="6.14437">
        <ele>1212</ele>
        <time>2022-09-11T10:46:07Z</time>
      </trkpt>
      <trkpt lat="44.60188" lon="6.14435">
        <ele>1212.2</ele>
        <time>2022-09-11T10:46:08Z</time>
      </trkpt>
      <trkpt lat="44.60191" lon="6.14432">
        <ele>1212.4</ele>
        <time>2022-09-11T10:46:09Z</time>
      </trkpt>
      <trkpt lat="44.60194" lon="6.14428">
        <ele>1212.7</ele>
        <time>2022-09-11T10:46:10Z</time>
      </trkpt>
      <trkpt lat="44.60195" lon="6.14426">
        <ele>1212.8</ele>
        <time>2022-09-11T10:46:11Z</time>
      </trkpt>
      <trkpt lat="44.60197" lon="6.14423">
        <ele>1213</ele>
        <time>2022-09-11T10:46:12Z</time>
      </trkpt>
      <trkpt lat="44.602" lon="6.14418">
        <ele>1213.2</ele>
        <time>2022-09-11T10:46:13Z</time>
      </trkpt>
      <trkpt lat="44.60203" lon="6.14414">
        <ele>1213.5</ele>
        <time>2022-09-11T10:46:15Z</time>
      </trkpt>
      <trkpt lat="44.60205" lon="6.14411">
        <ele>1213.7</ele>
        <time>2022-09-11T10:46:16Z</time>
      </trkpt>
      <trkpt lat="44.60207" lon="6.14408">
        <ele>1213.9</ele>
        <time>2022-09-11T10:46:17Z</time>
      </trkpt>
      <trkpt lat="44.60209" lon="6.14404">
        <ele>1214.1</ele>
        <time>2022-09-11T10:46:18Z</time>
      </trkpt>
      <trkpt lat="44.60213" lon="6.14399">
        <ele>1214.4</ele>
        <time>2022-09-11T10:46:19Z</time>
      </trkpt>
      <trkpt lat="44.60216" lon="6.14395">
        <ele>1214.7</ele>
        <time>2022-09-11T10:46:20Z</time>
      </trkpt>
      <trkpt lat="44.60218" lon="6.14391">
        <ele>1214.9</ele>
        <time>2022-09-11T10:46:21Z</time>
      </trkpt>
      <trkpt lat="44.60223" lon="6.14384">
        <ele>1215.3</ele>
        <time>2022-09-11T10:46:23Z</time>
      </trkpt>
      <trkpt lat="44.60227" lon="6.14377">
        <ele>1215.7</ele>
        <time>2022-09-11T10:46:25Z</time>
      </trkpt>
      <trkpt lat="44.60229" lon="6.14373">
        <ele>1216</ele>
        <time>2022-09-11T10:46:27Z</time>
      </trkpt>
      <trkpt lat="44.60231" lon="6.1437">
        <ele>1216.2</ele>
        <time>2022-09-11T10:46:28Z</time>
      </trkpt>
      <trkpt lat="44.60233" lon="6.14366">
        <ele>1216.4</ele>
        <time>2022-09-11T10:46:29Z</time>
      </trkpt>
      <trkpt lat="44.60235" lon="6.14363">
        <ele>1216.6</ele>
        <time>2022-09-11T10:46:30Z</time>
      </trkpt>
      <trkpt lat="44.60237" lon="6.1436">
        <ele>1216.8</ele>
        <time>2022-09-11T10:46:31Z</time>
      </trkpt>
      <trkpt lat="44.60239" lon="6.14356">
        <ele>1217</ele>
        <time>2022-09-11T10:46:32Z</time>
      </trkpt>
      <trkpt lat="44.60242" lon="6.14352">
        <ele>1217.3</ele>
        <time>2022-09-11T10:46:33Z</time>
      </trkpt>
      <trkpt lat="44.60243" lon="6.14351">
        <ele>1217.4</ele>
        <time>2022-09-11T10:46:34Z</time>
      </trkpt>
      <trkpt lat="44.60245" lon="6.14348">
        <ele>1217.6</ele>
        <time>2022-09-11T10:46:35Z</time>
      </trkpt>
      <trkpt lat="44.60247" lon="6.14345">
        <ele>1217.8</ele>
        <time>2022-09-11T10:46:36Z</time>
      </trkpt>
      <trkpt lat="44.60249" lon="6.14343">
        <ele>1218</ele>
        <time>2022-09-11T10:46:37Z</time>
      </trkpt>
      <trkpt lat="44.60252" lon="6.14339">
        <ele>1218.3</ele>
        <time>2022-09-11T10:46:38Z</time>
      </trkpt>
      <trkpt lat="44.60255" lon="6.14337">
        <ele>1218.5</ele>
        <time>2022-09-11T10:46:39Z</time>
      </trkpt>
      <trkpt lat="44.60258" lon="6.14335">
        <ele>1218.7</ele>
        <time>2022-09-11T10:46:40Z</time>
      </trkpt>
      <trkpt lat="44.6026" lon="6.14333">
        <ele>1219</ele>
        <time>2022-09-11T10:46:41Z</time>
      </trkpt>
      <trkpt lat="44.60263" lon="6.14331">
        <ele>1219.2</ele>
        <time>2022-09-11T10:46:43Z</time>
      </trkpt>
      <trkpt lat="44.60266" lon="6.1433">
        <ele>1219.4</ele>
        <time>2022-09-11T10:46:44Z</time>
      </trkpt>
      <trkpt lat="44.60271" lon="6.14329">
        <ele>1219.8</ele>
        <time>2022-09-11T10:46:45Z</time>
      </trkpt>
      <trkpt lat="44.60274" lon="6.14328">
        <ele>1220</ele>
        <time>2022-09-11T10:46:46Z</time>
      </trkpt>
      <trkpt lat="44.60277" lon="6.14328">
        <ele>1220.2</ele>
        <time>2022-09-11T10:46:47Z</time>
      </trkpt>
      <trkpt lat="44.6028" lon="6.14328">
        <ele>1220.4</ele>
        <time>2022-09-11T10:46:49Z</time>
      </trkpt>
      <trkpt lat="44.60283" lon="6.14327">
        <ele>1220.6</ele>
        <time>2022-09-11T10:46:50Z</time>
      </trkpt>
      <trkpt lat="44.60286" lon="6.14327">
        <ele>1220.8</ele>
        <time>2022-09-11T10:46:51Z</time>
      </trkpt>
      <trkpt lat="44.60288" lon="6.14327">
        <ele>1220.9</ele>
        <time>2022-09-11T10:46:52Z</time>
      </trkpt>
      <trkpt lat="44.60291" lon="6.14328">
        <ele>1221.1</ele>
        <time>2022-09-11T10:46:53Z</time>
      </trkpt>
      <trkpt lat="44.60293" lon="6.14328">
        <ele>1221.2</ele>
        <time>2022-09-11T10:46:54Z</time>
      </trkpt>
      <trkpt lat="44.60296" lon="6.14327">
        <ele>1221.4</ele>
        <time>2022-09-11T10:46:55Z</time>
      </trkpt>
      <trkpt lat="44.60299" lon="6.14325">
        <ele>1221.6</ele>
        <time>2022-09-11T10:46:56Z</time>
      </trkpt>
      <trkpt lat="44.60305" lon="6.14323">
        <ele>1221.9</ele>
        <time>2022-09-11T10:46:57Z</time>
      </trkpt>
      <trkpt lat="44.6031" lon="6.14319">
        <ele>1222.2</ele>
        <time>2022-09-11T10:46:59Z</time>
      </trkpt>
      <trkpt lat="44.60312" lon="6.14317">
        <ele>1222.4</ele>
        <time>2022-09-11T10:47:00Z</time>
      </trkpt>
      <trkpt lat="44.60315" lon="6.14313">
        <ele>1222.6</ele>
        <time>2022-09-11T10:47:02Z</time>
      </trkpt>
      <trkpt lat="44.60317" lon="6.14311">
        <ele>1222.7</ele>
        <time>2022-09-11T10:47:03Z</time>
      </trkpt>
      <trkpt lat="44.60321" lon="6.14305">
        <ele>1223.1</ele>
        <time>2022-09-11T10:47:04Z</time>
      </trkpt>
      <trkpt lat="44.60324" lon="6.143">
        <ele>1223.4</ele>
        <time>2022-09-11T10:47:06Z</time>
      </trkpt>
      <trkpt lat="44.60325" lon="6.14298">
        <ele>1223.6</ele>
        <time>2022-09-11T10:47:07Z</time>
      </trkpt>
      <trkpt lat="44.60326" lon="6.14296">
        <ele>1223.7</ele>
        <time>2022-09-11T10:47:08Z</time>
      </trkpt>
      <trkpt lat="44.60329" lon="6.14293">
        <ele>1223.9</ele>
        <time>2022-09-11T10:47:09Z</time>
      </trkpt>
      <trkpt lat="44.6033" lon="6.14292">
        <ele>1224</ele>
        <time>2022-09-11T10:47:10Z</time>
      </trkpt>
      <trkpt lat="44.60332" lon="6.14289">
        <ele>1224.2</ele>
        <time>2022-09-11T10:47:11Z</time>
      </trkpt>
      <trkpt lat="44.60335" lon="6.14286">
        <ele>1224.4</ele>
        <time>2022-09-11T10:47:12Z</time>
      </trkpt>
      <trkpt lat="44.60338" lon="6.14282">
        <ele>1224.7</ele>
        <time>2022-09-11T10:47:13Z</time>
      </trkpt>
      <trkpt lat="44.60339" lon="6.14281">
        <ele>1224.8</ele>
        <time>2022-09-11T10:47:14Z</time>
      </trkpt>
      <trkpt lat="44.60342" lon="6.14277">
        <ele>1225.1</ele>
        <time>2022-09-11T10:47:15Z</time>
      </trkpt>
      <trkpt lat="44.60343" lon="6.14276">
        <ele>1225.2</ele>
        <time>2022-09-11T10:47:16Z</time>
      </trkpt>
      <trkpt lat="44.60345" lon="6.14274">
        <ele>1225.3</ele>
        <time>2022-09-11T10:47:17Z</time>
      </trkpt>
      <trkpt lat="44.60347" lon="6.14272">
        <ele>1225.5</ele>
        <time>2022-09-11T10:47:18Z</time>
      </trkpt>
      <trkpt lat="44.60352" lon="6.14268">
        <ele>1225.9</ele>
        <time>2022-09-11T10:47:19Z</time>
      </trkpt>
      <trkpt lat="44.60355" lon="6.14264">
        <ele>1226.2</ele>
        <time>2022-09-11T10:47:21Z</time>
      </trkpt>
      <trkpt lat="44.60357" lon="6.14263">
        <ele>1226.3</ele>
        <time>2022-09-11T10:47:22Z</time>
      </trkpt>
      <trkpt lat="44.60358" lon="6.14261">
        <ele>1226.4</ele>
        <time>2022-09-11T10:47:23Z</time>
      </trkpt>
      <trkpt lat="44.60362" lon="6.14259">
        <ele>1226.7</ele>
        <time>2022-09-11T10:47:24Z</time>
      </trkpt>
      <trkpt lat="44.60366" lon="6.14258">
        <ele>1226.9</ele>
        <time>2022-09-11T10:47:26Z</time>
      </trkpt>
      <trkpt lat="44.60367" lon="6.14257">
        <ele>1227</ele>
        <time>2022-09-11T10:47:27Z</time>
      </trkpt>
      <trkpt lat="44.6037" lon="6.14256">
        <ele>1227.2</ele>
        <time>2022-09-11T10:47:28Z</time>
      </trkpt>
      <trkpt lat="44.60371" lon="6.14256">
        <ele>1227.2</ele>
        <time>2022-09-11T10:47:29Z</time>
      </trkpt>
      <trkpt lat="44.60376" lon="6.14254">
        <ele>1227.5</ele>
        <time>2022-09-11T10:47:30Z</time>
      </trkpt>
      <trkpt lat="44.60378" lon="6.14253">
        <ele>1227.6</ele>
        <time>2022-09-11T10:47:31Z</time>
      </trkpt>
      <trkpt lat="44.60381" lon="6.14252">
        <ele>1227.8</ele>
        <time>2022-09-11T10:47:33Z</time>
      </trkpt>
      <trkpt lat="44.60386" lon="6.1425">
        <ele>1228</ele>
        <time>2022-09-11T10:47:34Z</time>
      </trkpt>
      <trkpt lat="44.60389" lon="6.14249">
        <ele>1228.2</ele>
        <time>2022-09-11T10:47:36Z</time>
      </trkpt>
      <trkpt lat="44.60392" lon="6.14248">
        <ele>1228.3</ele>
        <time>2022-09-11T10:47:37Z</time>
      </trkpt>
      <trkpt lat="44.60395" lon="6.14248">
        <ele>1228.5</ele>
        <time>2022-09-11T10:47:38Z</time>
      </trkpt>
      <trkpt lat="44.60399" lon="6.14245">
        <ele>1228.7</ele>
        <time>2022-09-11T10:47:39Z</time>
      </trkpt>
      <trkpt lat="44.60403" lon="6.14244">
        <ele>1228.9</ele>
        <time>2022-09-11T10:47:41Z</time>
      </trkpt>
      <trkpt lat="44.60404" lon="6.14244">
        <ele>1229</ele>
        <time>2022-09-11T10:47:42Z</time>
      </trkpt>
      <trkpt lat="44.60407" lon="6.14241">
        <ele>1229</ele>
        <time>2022-09-11T10:47:43Z</time>
      </trkpt>
      <trkpt lat="44.60409" lon="6.14241">
        <ele>1228.9</ele>
        <time>2022-09-11T10:47:44Z</time>
      </trkpt>
      <trkpt lat="44.60412" lon="6.14238">
        <ele>1228.9</ele>
        <time>2022-09-11T10:47:45Z</time>
      </trkpt>
      <trkpt lat="44.60416" lon="6.14237">
        <ele>1229</ele>
        <time>2022-09-11T10:47:47Z</time>
      </trkpt>
      <trkpt lat="44.60418" lon="6.14236">
        <ele>1229.2</ele>
        <time>2022-09-11T10:47:48Z</time>
      </trkpt>
      <trkpt lat="44.60421" lon="6.14234">
        <ele>1229.5</ele>
        <time>2022-09-11T10:47:49Z</time>
      </trkpt>
      <trkpt lat="44.60423" lon="6.14233">
        <ele>1229.6</ele>
        <time>2022-09-11T10:47:50Z</time>
      </trkpt>
      <trkpt lat="44.60427" lon="6.14231">
        <ele>1229.9</ele>
        <time>2022-09-11T10:47:52Z</time>
      </trkpt>
      <trkpt lat="44.6043" lon="6.14229">
        <ele>1230.2</ele>
        <time>2022-09-11T10:47:53Z</time>
      </trkpt>
      <trkpt lat="44.60431" lon="6.14229">
        <ele>1230.3</ele>
        <time>2022-09-11T10:47:54Z</time>
      </trkpt>
      <trkpt lat="44.60433" lon="6.14227">
        <ele>1230.5</ele>
        <time>2022-09-11T10:47:55Z</time>
      </trkpt>
      <trkpt lat="44.60436" lon="6.14226">
        <ele>1230.7</ele>
        <time>2022-09-11T10:47:57Z</time>
      </trkpt>
      <trkpt lat="44.60439" lon="6.14226">
        <ele>1230.9</ele>
        <time>2022-09-11T10:47:58Z</time>
      </trkpt>
      <trkpt lat="44.60442" lon="6.14224">
        <ele>1231.2</ele>
        <time>2022-09-11T10:48:00Z</time>
      </trkpt>
      <trkpt lat="44.60445" lon="6.14223">
        <ele>1231.5</ele>
        <time>2022-09-11T10:48:01Z</time>
      </trkpt>
      <trkpt lat="44.60446" lon="6.14222">
        <ele>1231.6</ele>
        <time>2022-09-11T10:48:02Z</time>
      </trkpt>
      <trkpt lat="44.60449" lon="6.14221">
        <ele>1231.8</ele>
        <time>2022-09-11T10:48:03Z</time>
      </trkpt>
      <trkpt lat="44.60452" lon="6.14221">
        <ele>1232</ele>
        <time>2022-09-11T10:48:04Z</time>
      </trkpt>
      <trkpt lat="44.60455" lon="6.1422">
        <ele>1232.3</ele>
        <time>2022-09-11T10:48:05Z</time>
      </trkpt>
      <trkpt lat="44.60459" lon="6.14219">
        <ele>1232.6</ele>
        <time>2022-09-11T10:48:07Z</time>
      </trkpt>
      <trkpt lat="44.6046" lon="6.14218">
        <ele>1232.7</ele>
        <time>2022-09-11T10:48:08Z</time>
      </trkpt>
      <trkpt lat="44.60465" lon="6.14217">
        <ele>1233</ele>
        <time>2022-09-11T10:48:09Z</time>
      </trkpt>
      <trkpt lat="44.60468" lon="6.14217">
        <ele>1233.2</ele>
        <time>2022-09-11T10:48:10Z</time>
      </trkpt>
      <trkpt lat="44.60471" lon="6.14217">
        <ele>1233.4</ele>
        <time>2022-09-11T10:48:12Z</time>
      </trkpt>
      <trkpt lat="44.60476" lon="6.14216">
        <ele>1233.7</ele>
        <time>2022-09-11T10:48:13Z</time>
      </trkpt>
      <trkpt lat="44.60478" lon="6.14216">
        <ele>1233.8</ele>
        <time>2022-09-11T10:48:14Z</time>
      </trkpt>
      <trkpt lat="44.60481" lon="6.14216">
        <ele>1234</ele>
        <time>2022-09-11T10:48:16Z</time>
      </trkpt>
      <trkpt lat="44.60486" lon="6.14215">
        <ele>1234.3</ele>
        <time>2022-09-11T10:48:17Z</time>
      </trkpt>
      <trkpt lat="44.60488" lon="6.14215">
        <ele>1234.4</ele>
        <time>2022-09-11T10:48:18Z</time>
      </trkpt>
      <trkpt lat="44.60492" lon="6.14215">
        <ele>1234.6</ele>
        <time>2022-09-11T10:48:20Z</time>
      </trkpt>
      <trkpt lat="44.60495" lon="6.14215">
        <ele>1234.9</ele>
        <time>2022-09-11T10:48:21Z</time>
      </trkpt>
      <trkpt lat="44.60497" lon="6.14215">
        <ele>1234.9</ele>
        <time>2022-09-11T10:48:22Z</time>
      </trkpt>
      <trkpt lat="44.605" lon="6.14214">
        <ele>1235.2</ele>
        <time>2022-09-11T10:48:23Z</time>
      </trkpt>
      <trkpt lat="44.60503" lon="6.14214">
        <ele>1235.4</ele>
        <time>2022-09-11T10:48:24Z</time>
      </trkpt>
      <trkpt lat="44.60505" lon="6.14215">
        <ele>1235.5</ele>
        <time>2022-09-11T10:48:25Z</time>
      </trkpt>
      <trkpt lat="44.60509" lon="6.14214">
        <ele>1235.8</ele>
        <time>2022-09-11T10:48:26Z</time>
      </trkpt>
      <trkpt lat="44.60513" lon="6.14214">
        <ele>1236.2</ele>
        <time>2022-09-11T10:48:28Z</time>
      </trkpt>
      <trkpt lat="44.60516" lon="6.14214">
        <ele>1236.4</ele>
        <time>2022-09-11T10:48:29Z</time>
      </trkpt>
      <trkpt lat="44.60519" lon="6.14214">
        <ele>1236.7</ele>
        <time>2022-09-11T10:48:31Z</time>
      </trkpt>
      <trkpt lat="44.60523" lon="6.14214">
        <ele>1237</ele>
        <time>2022-09-11T10:48:33Z</time>
      </trkpt>
      <trkpt lat="44.60526" lon="6.14213">
        <ele>1237.3</ele>
        <time>2022-09-11T10:48:34Z</time>
      </trkpt>
      <trkpt lat="44.60529" lon="6.14212">
        <ele>1237.6</ele>
        <time>2022-09-11T10:48:35Z</time>
      </trkpt>
      <trkpt lat="44.6053" lon="6.14211">
        <ele>1237.7</ele>
        <time>2022-09-11T10:48:36Z</time>
      </trkpt>
      <trkpt lat="44.60532" lon="6.14211">
        <ele>1238</ele>
        <time>2022-09-11T10:48:37Z</time>
      </trkpt>
      <trkpt lat="44.60535" lon="6.14211">
        <ele>1238.4</ele>
        <time>2022-09-11T10:48:38Z</time>
      </trkpt>
      <trkpt lat="44.60538" lon="6.14211">
        <ele>1238.6</ele>
        <time>2022-09-11T10:48:40Z</time>
      </trkpt>
      <trkpt lat="44.60542" lon="6.1421">
        <ele>1239.1</ele>
        <time>2022-09-11T10:48:42Z</time>
      </trkpt>
      <trkpt lat="44.60545" lon="6.14209">
        <ele>1239.4</ele>
        <time>2022-09-11T10:48:43Z</time>
      </trkpt>
      <trkpt lat="44.60546" lon="6.14209">
        <ele>1239.6</ele>
        <time>2022-09-11T10:48:44Z</time>
      </trkpt>
      <trkpt lat="44.60549" lon="6.14209">
        <ele>1239.9</ele>
        <time>2022-09-11T10:48:45Z</time>
      </trkpt>
      <trkpt lat="44.6055" lon="6.14209">
        <ele>1240</ele>
        <time>2022-09-11T10:48:46Z</time>
      </trkpt>
      <trkpt lat="44.60553" lon="6.14209">
        <ele>1240.3</ele>
        <time>2022-09-11T10:48:47Z</time>
      </trkpt>
      <trkpt lat="44.60554" lon="6.14209">
        <ele>1240.4</ele>
        <time>2022-09-11T10:48:48Z</time>
      </trkpt>
      <trkpt lat="44.60557" lon="6.14208">
        <ele>1240.7</ele>
        <time>2022-09-11T10:48:49Z</time>
      </trkpt>
      <trkpt lat="44.60558" lon="6.14208">
        <ele>1240.8</ele>
        <time>2022-09-11T10:48:50Z</time>
      </trkpt>
      <trkpt lat="44.60559" lon="6.14208">
        <ele>1241</ele>
        <time>2022-09-11T10:48:51Z</time>
      </trkpt>
      <trkpt lat="44.60563" lon="6.14208">
        <ele>1241.4</ele>
        <time>2022-09-11T10:48:52Z</time>
      </trkpt>
      <trkpt lat="44.60565" lon="6.14208">
        <ele>1241.6</ele>
        <time>2022-09-11T10:48:54Z</time>
      </trkpt>
      <trkpt lat="44.60568" lon="6.14208">
        <ele>1241.9</ele>
        <time>2022-09-11T10:48:55Z</time>
      </trkpt>
      <trkpt lat="44.60569" lon="6.14208">
        <ele>1242</ele>
        <time>2022-09-11T10:48:56Z</time>
      </trkpt>
      <trkpt lat="44.60572" lon="6.14207">
        <ele>1242.3</ele>
        <time>2022-09-11T10:48:57Z</time>
      </trkpt>
      <trkpt lat="44.60573" lon="6.14207">
        <ele>1242.4</ele>
        <time>2022-09-11T10:48:58Z</time>
      </trkpt>
      <trkpt lat="44.60575" lon="6.14207">
        <ele>1242.7</ele>
        <time>2022-09-11T10:48:59Z</time>
      </trkpt>
      <trkpt lat="44.60576" lon="6.14206">
        <ele>1242.8</ele>
        <time>2022-09-11T10:49:00Z</time>
      </trkpt>
      <trkpt lat="44.60579" lon="6.14205">
        <ele>1243.1</ele>
        <time>2022-09-11T10:49:01Z</time>
      </trkpt>
      <trkpt lat="44.60581" lon="6.14205">
        <ele>1243.2</ele>
        <time>2022-09-11T10:49:02Z</time>
      </trkpt>
      <trkpt lat="44.60584" lon="6.14205">
        <ele>1243.5</ele>
        <time>2022-09-11T10:49:03Z</time>
      </trkpt>
      <trkpt lat="44.60585" lon="6.14205">
        <ele>1243.5</ele>
        <time>2022-09-11T10:49:04Z</time>
      </trkpt>
      <trkpt lat="44.60588" lon="6.14203">
        <ele>1243.8</ele>
        <time>2022-09-11T10:49:05Z</time>
      </trkpt>
      <trkpt lat="44.60591" lon="6.14203">
        <ele>1244.1</ele>
        <time>2022-09-11T10:49:07Z</time>
      </trkpt>
      <trkpt lat="44.60592" lon="6.14203">
        <ele>1244.2</ele>
        <time>2022-09-11T10:49:08Z</time>
      </trkpt>
      <trkpt lat="44.60594" lon="6.14203">
        <ele>1244.4</ele>
        <time>2022-09-11T10:49:09Z</time>
      </trkpt>
      <trkpt lat="44.60595" lon="6.14202">
        <ele>1244.5</ele>
        <time>2022-09-11T10:49:10Z</time>
      </trkpt>
      <trkpt lat="44.60599" lon="6.14201">
        <ele>1244.8</ele>
        <time>2022-09-11T10:49:11Z</time>
      </trkpt>
      <trkpt lat="44.606" lon="6.14201">
        <ele>1244.9</ele>
        <time>2022-09-11T10:49:12Z</time>
      </trkpt>
      <trkpt lat="44.60605" lon="6.142">
        <ele>1245.2</ele>
        <time>2022-09-11T10:49:14Z</time>
      </trkpt>
      <trkpt lat="44.60606" lon="6.142">
        <ele>1245.4</ele>
        <time>2022-09-11T10:49:15Z</time>
      </trkpt>
      <trkpt lat="44.60609" lon="6.142">
        <ele>1245.6</ele>
        <time>2022-09-11T10:49:16Z</time>
      </trkpt>
      <trkpt lat="44.60614" lon="6.14199">
        <ele>1246</ele>
        <time>2022-09-11T10:49:18Z</time>
      </trkpt>
      <trkpt lat="44.60616" lon="6.14199">
        <ele>1246.1</ele>
        <time>2022-09-11T10:49:19Z</time>
      </trkpt>
      <trkpt lat="44.6062" lon="6.14199">
        <ele>1246.4</ele>
        <time>2022-09-11T10:49:21Z</time>
      </trkpt>
      <trkpt lat="44.60622" lon="6.14198">
        <ele>1246.6</ele>
        <time>2022-09-11T10:49:22Z</time>
      </trkpt>
      <trkpt lat="44.60626" lon="6.14197">
        <ele>1246.8</ele>
        <time>2022-09-11T10:49:24Z</time>
      </trkpt>
      <trkpt lat="44.60629" lon="6.14196">
        <ele>1247.1</ele>
        <time>2022-09-11T10:49:25Z</time>
      </trkpt>
      <trkpt lat="44.6063" lon="6.14196">
        <ele>1247.2</ele>
        <time>2022-09-11T10:49:26Z</time>
      </trkpt>
      <trkpt lat="44.60633" lon="6.14195">
        <ele>1247.4</ele>
        <time>2022-09-11T10:49:27Z</time>
      </trkpt>
      <trkpt lat="44.60634" lon="6.14195">
        <ele>1247.5</ele>
        <time>2022-09-11T10:49:28Z</time>
      </trkpt>
      <trkpt lat="44.60637" lon="6.14194">
        <ele>1247.7</ele>
        <time>2022-09-11T10:49:29Z</time>
      </trkpt>
      <trkpt lat="44.60638" lon="6.14194">
        <ele>1247.8</ele>
        <time>2022-09-11T10:49:30Z</time>
      </trkpt>
      <trkpt lat="44.60642" lon="6.14193">
        <ele>1248.1</ele>
        <time>2022-09-11T10:49:31Z</time>
      </trkpt>
      <trkpt lat="44.60644" lon="6.14192">
        <ele>1248.2</ele>
        <time>2022-09-11T10:49:32Z</time>
      </trkpt>
      <trkpt lat="44.60647" lon="6.14191">
        <ele>1248.4</ele>
        <time>2022-09-11T10:49:34Z</time>
      </trkpt>
      <trkpt lat="44.60651" lon="6.1419">
        <ele>1248.7</ele>
        <time>2022-09-11T10:49:35Z</time>
      </trkpt>
      <trkpt lat="44.60652" lon="6.1419">
        <ele>1248.8</ele>
        <time>2022-09-11T10:49:36Z</time>
      </trkpt>
      <trkpt lat="44.60656" lon="6.14189">
        <ele>1249</ele>
        <time>2022-09-11T10:49:37Z</time>
      </trkpt>
      <trkpt lat="44.60657" lon="6.14189">
        <ele>1249.1</ele>
        <time>2022-09-11T10:49:38Z</time>
      </trkpt>
      <trkpt lat="44.60661" lon="6.14187">
        <ele>1249.4</ele>
        <time>2022-09-11T10:49:39Z</time>
      </trkpt>
      <trkpt lat="44.60663" lon="6.14187">
        <ele>1249.5</ele>
        <time>2022-09-11T10:49:40Z</time>
      </trkpt>
      <trkpt lat="44.60668" lon="6.14185">
        <ele>1249.8</ele>
        <time>2022-09-11T10:49:42Z</time>
      </trkpt>
      <trkpt lat="44.6067" lon="6.14185">
        <ele>1250</ele>
        <time>2022-09-11T10:49:44Z</time>
      </trkpt>
      <trkpt lat="44.60675" lon="6.14184">
        <ele>1250.3</ele>
        <time>2022-09-11T10:49:45Z</time>
      </trkpt>
      <trkpt lat="44.60679" lon="6.14182">
        <ele>1250.6</ele>
        <time>2022-09-11T10:49:47Z</time>
      </trkpt>
      <trkpt lat="44.60681" lon="6.14181">
        <ele>1250.7</ele>
        <time>2022-09-11T10:49:48Z</time>
      </trkpt>
      <trkpt lat="44.60682" lon="6.14181">
        <ele>1250.8</ele>
        <time>2022-09-11T10:49:49Z</time>
      </trkpt>
      <trkpt lat="44.60686" lon="6.1418">
        <ele>1251</ele>
        <time>2022-09-11T10:49:50Z</time>
      </trkpt>
      <trkpt lat="44.60688" lon="6.14179">
        <ele>1251.2</ele>
        <time>2022-09-11T10:49:51Z</time>
      </trkpt>
      <trkpt lat="44.6069" lon="6.14178">
        <ele>1251.3</ele>
        <time>2022-09-11T10:49:52Z</time>
      </trkpt>
      <trkpt lat="44.60693" lon="6.14178">
        <ele>1251.5</ele>
        <time>2022-09-11T10:49:54Z</time>
      </trkpt>
      <trkpt lat="44.60697" lon="6.14177">
        <ele>1251.7</ele>
        <time>2022-09-11T10:49:55Z</time>
      </trkpt>
      <trkpt lat="44.60698" lon="6.14176">
        <ele>1251.8</ele>
        <time>2022-09-11T10:49:56Z</time>
      </trkpt>
      <trkpt lat="44.60702" lon="6.14175">
        <ele>1252</ele>
        <time>2022-09-11T10:49:57Z</time>
      </trkpt>
      <trkpt lat="44.60703" lon="6.14174">
        <ele>1252.1</ele>
        <time>2022-09-11T10:49:58Z</time>
      </trkpt>
      <trkpt lat="44.60706" lon="6.14173">
        <ele>1252.2</ele>
        <time>2022-09-11T10:49:59Z</time>
      </trkpt>
      <trkpt lat="44.60707" lon="6.14172">
        <ele>1252.3</ele>
        <time>2022-09-11T10:50:00Z</time>
      </trkpt>
      <trkpt lat="44.6071" lon="6.1417">
        <ele>1252.4</ele>
        <time>2022-09-11T10:50:01Z</time>
      </trkpt>
      <trkpt lat="44.60712" lon="6.14169">
        <ele>1252.5</ele>
        <time>2022-09-11T10:50:02Z</time>
      </trkpt>
      <trkpt lat="44.60714" lon="6.14167">
        <ele>1252.7</ele>
        <time>2022-09-11T10:50:03Z</time>
      </trkpt>
      <trkpt lat="44.60718" lon="6.14166">
        <ele>1252.9</ele>
        <time>2022-09-11T10:50:05Z</time>
      </trkpt>
      <trkpt lat="44.60719" lon="6.14165">
        <ele>1252.9</ele>
        <time>2022-09-11T10:50:06Z</time>
      </trkpt>
      <trkpt lat="44.60722" lon="6.14164">
        <ele>1253</ele>
        <time>2022-09-11T10:50:07Z</time>
      </trkpt>
      <trkpt lat="44.60726" lon="6.14162">
        <ele>1253.2</ele>
        <time>2022-09-11T10:50:08Z</time>
      </trkpt>
      <trkpt lat="44.60729" lon="6.1416">
        <ele>1253.4</ele>
        <time>2022-09-11T10:50:09Z</time>
      </trkpt>
      <trkpt lat="44.60734" lon="6.14157">
        <ele>1253.5</ele>
        <time>2022-09-11T10:50:11Z</time>
      </trkpt>
      <trkpt lat="44.60737" lon="6.14155">
        <ele>1253.6</ele>
        <time>2022-09-11T10:50:12Z</time>
      </trkpt>
      <trkpt lat="44.60739" lon="6.14153">
        <ele>1253.7</ele>
        <time>2022-09-11T10:50:14Z</time>
      </trkpt>
      <trkpt lat="44.60742" lon="6.14152">
        <ele>1253.8</ele>
        <time>2022-09-11T10:50:15Z</time>
      </trkpt>
      <trkpt lat="44.60744" lon="6.1415">
        <ele>1253.9</ele>
        <time>2022-09-11T10:50:16Z</time>
      </trkpt>
      <trkpt lat="44.60747" lon="6.14149">
        <ele>1254</ele>
        <time>2022-09-11T10:50:17Z</time>
      </trkpt>
      <trkpt lat="44.60752" lon="6.14146">
        <ele>1254.2</ele>
        <time>2022-09-11T10:50:18Z</time>
      </trkpt>
      <trkpt lat="44.60755" lon="6.14144">
        <ele>1254.3</ele>
        <time>2022-09-11T10:50:19Z</time>
      </trkpt>
      <trkpt lat="44.60759" lon="6.14142">
        <ele>1254.4</ele>
        <time>2022-09-11T10:50:21Z</time>
      </trkpt>
      <trkpt lat="44.60761" lon="6.14141">
        <ele>1254.5</ele>
        <time>2022-09-11T10:50:22Z</time>
      </trkpt>
      <trkpt lat="44.60767" lon="6.14137">
        <ele>1254.6</ele>
        <time>2022-09-11T10:50:23Z</time>
      </trkpt>
      <trkpt lat="44.6077" lon="6.14135">
        <ele>1254.7</ele>
        <time>2022-09-11T10:50:24Z</time>
      </trkpt>
      <trkpt lat="44.60772" lon="6.14133">
        <ele>1254.8</ele>
        <time>2022-09-11T10:50:26Z</time>
      </trkpt>
      <trkpt lat="44.60776" lon="6.14131">
        <ele>1254.9</ele>
        <time>2022-09-11T10:50:27Z</time>
      </trkpt>
      <trkpt lat="44.60778" lon="6.1413">
        <ele>1255</ele>
        <time>2022-09-11T10:50:28Z</time>
      </trkpt>
      <trkpt lat="44.60781" lon="6.14129">
        <ele>1255</ele>
        <time>2022-09-11T10:50:29Z</time>
      </trkpt>
      <trkpt lat="44.60784" lon="6.14127">
        <ele>1255.1</ele>
        <time>2022-09-11T10:50:30Z</time>
      </trkpt>
      <trkpt lat="44.60787" lon="6.14126">
        <ele>1255.1</ele>
        <time>2022-09-11T10:50:31Z</time>
      </trkpt>
      <trkpt lat="44.6079" lon="6.14123">
        <ele>1255.2</ele>
        <time>2022-09-11T10:50:32Z</time>
      </trkpt>
      <trkpt lat="44.60793" lon="6.14121">
        <ele>1255.3</ele>
        <time>2022-09-11T10:50:33Z</time>
      </trkpt>
      <trkpt lat="44.60799" lon="6.14118">
        <ele>1255.4</ele>
        <time>2022-09-11T10:50:34Z</time>
      </trkpt>
      <trkpt lat="44.60803" lon="6.14116">
        <ele>1255.5</ele>
        <time>2022-09-11T10:50:36Z</time>
      </trkpt>
      <trkpt lat="44.60806" lon="6.14114">
        <ele>1255.6</ele>
        <time>2022-09-11T10:50:37Z</time>
      </trkpt>
      <trkpt lat="44.6081" lon="6.14112">
        <ele>1255.7</ele>
        <time>2022-09-11T10:50:38Z</time>
      </trkpt>
      <trkpt lat="44.60814" lon="6.1411">
        <ele>1255.8</ele>
        <time>2022-09-11T10:50:39Z</time>
      </trkpt>
      <trkpt lat="44.60818" lon="6.14109">
        <ele>1256</ele>
        <time>2022-09-11T10:50:40Z</time>
      </trkpt>
      <trkpt lat="44.60821" lon="6.14107">
        <ele>1256.1</ele>
        <time>2022-09-11T10:50:42Z</time>
      </trkpt>
      <trkpt lat="44.60826" lon="6.14106">
        <ele>1256.2</ele>
        <time>2022-09-11T10:50:43Z</time>
      </trkpt>
      <trkpt lat="44.60829" lon="6.14105">
        <ele>1256.3</ele>
        <time>2022-09-11T10:50:44Z</time>
      </trkpt>
      <trkpt lat="44.60833" lon="6.14103">
        <ele>1256.5</ele>
        <time>2022-09-11T10:50:45Z</time>
      </trkpt>
      <trkpt lat="44.60838" lon="6.14102">
        <ele>1256.6</ele>
        <time>2022-09-11T10:50:47Z</time>
      </trkpt>
      <trkpt lat="44.60841" lon="6.14101">
        <ele>1256.7</ele>
        <time>2022-09-11T10:50:48Z</time>
      </trkpt>
      <trkpt lat="44.60846" lon="6.14099">
        <ele>1256.9</ele>
        <time>2022-09-11T10:50:49Z</time>
      </trkpt>
      <trkpt lat="44.6085" lon="6.14098">
        <ele>1257</ele>
        <time>2022-09-11T10:50:50Z</time>
      </trkpt>
      <trkpt lat="44.60854" lon="6.14096">
        <ele>1257.1</ele>
        <time>2022-09-11T10:50:51Z</time>
      </trkpt>
      <trkpt lat="44.60857" lon="6.14095">
        <ele>1257.2</ele>
        <time>2022-09-11T10:50:53Z</time>
      </trkpt>
      <trkpt lat="44.6086" lon="6.14094">
        <ele>1257.4</ele>
        <time>2022-09-11T10:50:54Z</time>
      </trkpt>
      <trkpt lat="44.60866" lon="6.14092">
        <ele>1257.6</ele>
        <time>2022-09-11T10:50:55Z</time>
      </trkpt>
      <trkpt lat="44.60869" lon="6.14091">
        <ele>1257.7</ele>
        <time>2022-09-11T10:50:56Z</time>
      </trkpt>
      <trkpt lat="44.60872" lon="6.1409">
        <ele>1257.8</ele>
        <time>2022-09-11T10:50:57Z</time>
      </trkpt>
      <trkpt lat="44.60875" lon="6.1409">
        <ele>1257.9</ele>
        <time>2022-09-11T10:50:59Z</time>
      </trkpt>
      <trkpt lat="44.60878" lon="6.14088">
        <ele>1258</ele>
        <time>2022-09-11T10:51:00Z</time>
      </trkpt>
      <trkpt lat="44.60881" lon="6.14087">
        <ele>1258.1</ele>
        <time>2022-09-11T10:51:01Z</time>
      </trkpt>
      <trkpt lat="44.60884" lon="6.14087">
        <ele>1258.2</ele>
        <time>2022-09-11T10:51:02Z</time>
      </trkpt>
      <trkpt lat="44.60888" lon="6.14085">
        <ele>1258.4</ele>
        <time>2022-09-11T10:51:03Z</time>
      </trkpt>
      <trkpt lat="44.60891" lon="6.14083">
        <ele>1258.5</ele>
        <time>2022-09-11T10:51:04Z</time>
      </trkpt>
      <trkpt lat="44.60894" lon="6.14081">
        <ele>1258.6</ele>
        <time>2022-09-11T10:51:05Z</time>
      </trkpt>
      <trkpt lat="44.60901" lon="6.14077">
        <ele>1259</ele>
        <time>2022-09-11T10:51:06Z</time>
      </trkpt>
      <trkpt lat="44.60904" lon="6.14075">
        <ele>1259.1</ele>
        <time>2022-09-11T10:51:08Z</time>
      </trkpt>
      <trkpt lat="44.60908" lon="6.14074">
        <ele>1259.3</ele>
        <time>2022-09-11T10:51:09Z</time>
      </trkpt>
      <trkpt lat="44.60911" lon="6.14073">
        <ele>1259.4</ele>
        <time>2022-09-11T10:51:10Z</time>
      </trkpt>
      <trkpt lat="44.60913" lon="6.14071">
        <ele>1259.6</ele>
        <time>2022-09-11T10:51:11Z</time>
      </trkpt>
      <trkpt lat="44.60918" lon="6.14067">
        <ele>1259.8</ele>
        <time>2022-09-11T10:51:12Z</time>
      </trkpt>
      <trkpt lat="44.6092" lon="6.14066">
        <ele>1260</ele>
        <time>2022-09-11T10:51:13Z</time>
      </trkpt>
      <trkpt lat="44.60924" lon="6.14065">
        <ele>1260.2</ele>
        <time>2022-09-11T10:51:15Z</time>
      </trkpt>
      <trkpt lat="44.60927" lon="6.14064">
        <ele>1260.4</ele>
        <time>2022-09-11T10:51:16Z</time>
      </trkpt>
      <trkpt lat="44.60929" lon="6.14062">
        <ele>1260.6</ele>
        <time>2022-09-11T10:51:17Z</time>
      </trkpt>
      <trkpt lat="44.60934" lon="6.1406">
        <ele>1260.9</ele>
        <time>2022-09-11T10:51:19Z</time>
      </trkpt>
      <trkpt lat="44.60939" lon="6.1406">
        <ele>1261.3</ele>
        <time>2022-09-11T10:51:20Z</time>
      </trkpt>
      <trkpt lat="44.60944" lon="6.14058">
        <ele>1261.6</ele>
        <time>2022-09-11T10:51:21Z</time>
      </trkpt>
      <trkpt lat="44.60947" lon="6.14057">
        <ele>1261.8</ele>
        <time>2022-09-11T10:51:23Z</time>
      </trkpt>
      <trkpt lat="44.60951" lon="6.14055">
        <ele>1262.1</ele>
        <time>2022-09-11T10:51:24Z</time>
      </trkpt>
      <trkpt lat="44.60954" lon="6.14053">
        <ele>1262.4</ele>
        <time>2022-09-11T10:51:25Z</time>
      </trkpt>
      <trkpt lat="44.6096" lon="6.14049">
        <ele>1262.8</ele>
        <time>2022-09-11T10:51:27Z</time>
      </trkpt>
      <trkpt lat="44.60963" lon="6.14048">
        <ele>1263</ele>
        <time>2022-09-11T10:51:28Z</time>
      </trkpt>
      <trkpt lat="44.60965" lon="6.14046">
        <ele>1263.2</ele>
        <time>2022-09-11T10:51:30Z</time>
      </trkpt>
      <trkpt lat="44.60968" lon="6.14044">
        <ele>1263.4</ele>
        <time>2022-09-11T10:51:31Z</time>
      </trkpt>
      <trkpt lat="44.60973" lon="6.14039">
        <ele>1263.6</ele>
        <time>2022-09-11T10:51:32Z</time>
      </trkpt>
      <trkpt lat="44.60976" lon="6.14037">
        <ele>1263.8</ele>
        <time>2022-09-11T10:51:33Z</time>
      </trkpt>
      <trkpt lat="44.6098" lon="6.14033">
        <ele>1264</ele>
        <time>2022-09-11T10:51:35Z</time>
      </trkpt>
      <trkpt lat="44.60983" lon="6.14031">
        <ele>1264.2</ele>
        <time>2022-09-11T10:51:36Z</time>
      </trkpt>
      <trkpt lat="44.60986" lon="6.14028">
        <ele>1264.4</ele>
        <time>2022-09-11T10:51:37Z</time>
      </trkpt>
      <trkpt lat="44.60989" lon="6.14025">
        <ele>1264.6</ele>
        <time>2022-09-11T10:51:38Z</time>
      </trkpt>
      <trkpt lat="44.60992" lon="6.14023">
        <ele>1264.7</ele>
        <time>2022-09-11T10:51:39Z</time>
      </trkpt>
      <trkpt lat="44.60997" lon="6.1402">
        <ele>1265</ele>
        <time>2022-09-11T10:51:40Z</time>
      </trkpt>
      <trkpt lat="44.61" lon="6.14017">
        <ele>1265.1</ele>
        <time>2022-09-11T10:51:41Z</time>
      </trkpt>
      <trkpt lat="44.61002" lon="6.14015">
        <ele>1265.3</ele>
        <time>2022-09-11T10:51:43Z</time>
      </trkpt>
      <trkpt lat="44.61005" lon="6.14012">
        <ele>1265.4</ele>
        <time>2022-09-11T10:51:44Z</time>
      </trkpt>
      <trkpt lat="44.61009" lon="6.1401">
        <ele>1265.6</ele>
        <time>2022-09-11T10:51:45Z</time>
      </trkpt>
      <trkpt lat="44.61011" lon="6.14008">
        <ele>1265.7</ele>
        <time>2022-09-11T10:51:46Z</time>
      </trkpt>
      <trkpt lat="44.61014" lon="6.14005">
        <ele>1265.9</ele>
        <time>2022-09-11T10:51:47Z</time>
      </trkpt>
      <trkpt lat="44.61017" lon="6.14002">
        <ele>1266.1</ele>
        <time>2022-09-11T10:51:48Z</time>
      </trkpt>
      <trkpt lat="44.6102" lon="6.13999">
        <ele>1266.2</ele>
        <time>2022-09-11T10:51:49Z</time>
      </trkpt>
      <trkpt lat="44.61023" lon="6.13996">
        <ele>1266.4</ele>
        <time>2022-09-11T10:51:50Z</time>
      </trkpt>
      <trkpt lat="44.61025" lon="6.13993">
        <ele>1266.6</ele>
        <time>2022-09-11T10:51:51Z</time>
      </trkpt>
      <trkpt lat="44.61028" lon="6.13991">
        <ele>1266.8</ele>
        <time>2022-09-11T10:51:52Z</time>
      </trkpt>
      <trkpt lat="44.6103" lon="6.13989">
        <ele>1266.9</ele>
        <time>2022-09-11T10:51:53Z</time>
      </trkpt>
      <trkpt lat="44.61033" lon="6.13987">
        <ele>1267.1</ele>
        <time>2022-09-11T10:51:54Z</time>
      </trkpt>
      <trkpt lat="44.61036" lon="6.13985">
        <ele>1267.3</ele>
        <time>2022-09-11T10:51:55Z</time>
      </trkpt>
      <trkpt lat="44.61037" lon="6.13984">
        <ele>1267.4</ele>
        <time>2022-09-11T10:51:56Z</time>
      </trkpt>
      <trkpt lat="44.61039" lon="6.13982">
        <ele>1267.5</ele>
        <time>2022-09-11T10:51:57Z</time>
      </trkpt>
      <trkpt lat="44.61042" lon="6.13979">
        <ele>1267.8</ele>
        <time>2022-09-11T10:51:58Z</time>
      </trkpt>
      <trkpt lat="44.61043" lon="6.13978">
        <ele>1267.8</ele>
        <time>2022-09-11T10:51:59Z</time>
      </trkpt>
      <trkpt lat="44.61046" lon="6.13974">
        <ele>1268.1</ele>
        <time>2022-09-11T10:52:00Z</time>
      </trkpt>
      <trkpt lat="44.61047" lon="6.13973">
        <ele>1268.1</ele>
        <time>2022-09-11T10:52:01Z</time>
      </trkpt>
      <trkpt lat="44.61049" lon="6.1397">
        <ele>1268.3</ele>
        <time>2022-09-11T10:52:02Z</time>
      </trkpt>
      <trkpt lat="44.61051" lon="6.13967">
        <ele>1268.5</ele>
        <time>2022-09-11T10:52:03Z</time>
      </trkpt>
      <trkpt lat="44.61052" lon="6.13965">
        <ele>1268.6</ele>
        <time>2022-09-11T10:52:04Z</time>
      </trkpt>
      <trkpt lat="44.61054" lon="6.13962">
        <ele>1268.8</ele>
        <time>2022-09-11T10:52:05Z</time>
      </trkpt>
      <trkpt lat="44.61055" lon="6.13961">
        <ele>1268.9</ele>
        <time>2022-09-11T10:52:06Z</time>
      </trkpt>
      <trkpt lat="44.61057" lon="6.13958">
        <ele>1269.1</ele>
        <time>2022-09-11T10:52:07Z</time>
      </trkpt>
      <trkpt lat="44.6106" lon="6.13953">
        <ele>1269.3</ele>
        <time>2022-09-11T10:52:08Z</time>
      </trkpt>
      <trkpt lat="44.61063" lon="6.13949">
        <ele>1269.5</ele>
        <time>2022-09-11T10:52:10Z</time>
      </trkpt>
      <trkpt lat="44.61064" lon="6.13947">
        <ele>1269.6</ele>
        <time>2022-09-11T10:52:11Z</time>
      </trkpt>
      <trkpt lat="44.61066" lon="6.13943">
        <ele>1269.8</ele>
        <time>2022-09-11T10:52:12Z</time>
      </trkpt>
      <trkpt lat="44.61067" lon="6.13942">
        <ele>1269.8</ele>
        <time>2022-09-11T10:52:13Z</time>
      </trkpt>
      <trkpt lat="44.61071" lon="6.13938">
        <ele>1269.9</ele>
        <time>2022-09-11T10:52:14Z</time>
      </trkpt>
      <trkpt lat="44.61074" lon="6.13934">
        <ele>1270</ele>
        <time>2022-09-11T10:52:15Z</time>
      </trkpt>
      <trkpt lat="44.61078" lon="6.13929">
        <ele>1270</ele>
        <time>2022-09-11T10:52:17Z</time>
      </trkpt>
      <trkpt lat="44.61082" lon="6.13925">
        <ele>1270.1</ele>
        <time>2022-09-11T10:52:18Z</time>
      </trkpt>
      <trkpt lat="44.61086" lon="6.13921">
        <ele>1270.1</ele>
        <time>2022-09-11T10:52:20Z</time>
      </trkpt>
      <trkpt lat="44.6109" lon="6.13918">
        <ele>1270.1</ele>
        <time>2022-09-11T10:52:21Z</time>
      </trkpt>
      <trkpt lat="44.61094" lon="6.13915">
        <ele>1270.1</ele>
        <time>2022-09-11T10:52:22Z</time>
      </trkpt>
      <trkpt lat="44.61097" lon="6.13912">
        <ele>1270.1</ele>
        <time>2022-09-11T10:52:23Z</time>
      </trkpt>
      <trkpt lat="44.61101" lon="6.1391">
        <ele>1270.1</ele>
        <time>2022-09-11T10:52:24Z</time>
      </trkpt>
      <trkpt lat="44.61106" lon="6.13908">
        <ele>1270.1</ele>
        <time>2022-09-11T10:52:25Z</time>
      </trkpt>
      <trkpt lat="44.6111" lon="6.13908">
        <ele>1270.1</ele>
        <time>2022-09-11T10:52:27Z</time>
      </trkpt>
      <trkpt lat="44.61114" lon="6.13907">
        <ele>1270.1</ele>
        <time>2022-09-11T10:52:28Z</time>
      </trkpt>
      <trkpt lat="44.61118" lon="6.13907">
        <ele>1270</ele>
        <time>2022-09-11T10:52:29Z</time>
      </trkpt>
      <trkpt lat="44.61123" lon="6.13907">
        <ele>1270</ele>
        <time>2022-09-11T10:52:30Z</time>
      </trkpt>
      <trkpt lat="44.61129" lon="6.13907">
        <ele>1270</ele>
        <time>2022-09-11T10:52:31Z</time>
      </trkpt>
      <trkpt lat="44.61133" lon="6.13907">
        <ele>1270</ele>
        <time>2022-09-11T10:52:32Z</time>
      </trkpt>
      <trkpt lat="44.61136" lon="6.13907">
        <ele>1269.9</ele>
        <time>2022-09-11T10:52:34Z</time>
      </trkpt>
      <trkpt lat="44.6114" lon="6.13906">
        <ele>1269.9</ele>
        <time>2022-09-11T10:52:35Z</time>
      </trkpt>
      <trkpt lat="44.61146" lon="6.13906">
        <ele>1269.9</ele>
        <time>2022-09-11T10:52:36Z</time>
      </trkpt>
      <trkpt lat="44.61153" lon="6.13905">
        <ele>1269.9</ele>
        <time>2022-09-11T10:52:38Z</time>
      </trkpt>
      <trkpt lat="44.61157" lon="6.13905">
        <ele>1269.8</ele>
        <time>2022-09-11T10:52:40Z</time>
      </trkpt>
      <trkpt lat="44.6116" lon="6.13904">
        <ele>1269.8</ele>
        <time>2022-09-11T10:52:41Z</time>
      </trkpt>
      <trkpt lat="44.61163" lon="6.13902">
        <ele>1269.7</ele>
        <time>2022-09-11T10:52:42Z</time>
      </trkpt>
      <trkpt lat="44.61167" lon="6.13902">
        <ele>1269.7</ele>
        <time>2022-09-11T10:52:43Z</time>
      </trkpt>
      <trkpt lat="44.61174" lon="6.13902">
        <ele>1269.5</ele>
        <time>2022-09-11T10:52:44Z</time>
      </trkpt>
      <trkpt lat="44.61179" lon="6.13902">
        <ele>1269.5</ele>
        <time>2022-09-11T10:52:46Z</time>
      </trkpt>
      <trkpt lat="44.61184" lon="6.13902">
        <ele>1269.3</ele>
        <time>2022-09-11T10:52:47Z</time>
      </trkpt>
      <trkpt lat="44.6119" lon="6.13901">
        <ele>1269.2</ele>
        <time>2022-09-11T10:52:48Z</time>
      </trkpt>
      <trkpt lat="44.61195" lon="6.13902">
        <ele>1269.1</ele>
        <time>2022-09-11T10:52:50Z</time>
      </trkpt>
      <trkpt lat="44.61199" lon="6.13901">
        <ele>1268.9</ele>
        <time>2022-09-11T10:52:51Z</time>
      </trkpt>
      <trkpt lat="44.61206" lon="6.13899">
        <ele>1268.7</ele>
        <time>2022-09-11T10:52:52Z</time>
      </trkpt>
      <trkpt lat="44.6121" lon="6.13898">
        <ele>1268.6</ele>
        <time>2022-09-11T10:52:53Z</time>
      </trkpt>
      <trkpt lat="44.61213" lon="6.13898">
        <ele>1268.5</ele>
        <time>2022-09-11T10:52:55Z</time>
      </trkpt>
      <trkpt lat="44.61216" lon="6.13897">
        <ele>1268.4</ele>
        <time>2022-09-11T10:52:56Z</time>
      </trkpt>
      <trkpt lat="44.6122" lon="6.13897">
        <ele>1268.3</ele>
        <time>2022-09-11T10:52:57Z</time>
      </trkpt>
      <trkpt lat="44.61223" lon="6.13896">
        <ele>1268.1</ele>
        <time>2022-09-11T10:52:58Z</time>
      </trkpt>
      <trkpt lat="44.61228" lon="6.13895">
        <ele>1268</ele>
        <time>2022-09-11T10:52:59Z</time>
      </trkpt>
      <trkpt lat="44.61232" lon="6.13894">
        <ele>1267.8</ele>
        <time>2022-09-11T10:53:00Z</time>
      </trkpt>
      <trkpt lat="44.61236" lon="6.13893">
        <ele>1267.7</ele>
        <time>2022-09-11T10:53:01Z</time>
      </trkpt>
      <trkpt lat="44.6124" lon="6.13892">
        <ele>1267.5</ele>
        <time>2022-09-11T10:53:02Z</time>
      </trkpt>
      <trkpt lat="44.61244" lon="6.13891">
        <ele>1267.4</ele>
        <time>2022-09-11T10:53:03Z</time>
      </trkpt>
      <trkpt lat="44.61248" lon="6.1389">
        <ele>1267.2</ele>
        <time>2022-09-11T10:53:04Z</time>
      </trkpt>
      <trkpt lat="44.61253" lon="6.13888">
        <ele>1267</ele>
        <time>2022-09-11T10:53:05Z</time>
      </trkpt>
      <trkpt lat="44.6126" lon="6.13886">
        <ele>1266.8</ele>
        <time>2022-09-11T10:53:06Z</time>
      </trkpt>
      <trkpt lat="44.61266" lon="6.13885">
        <ele>1266.6</ele>
        <time>2022-09-11T10:53:08Z</time>
      </trkpt>
      <trkpt lat="44.6127" lon="6.13883">
        <ele>1266.4</ele>
        <time>2022-09-11T10:53:09Z</time>
      </trkpt>
      <trkpt lat="44.61275" lon="6.13881">
        <ele>1266.2</ele>
        <time>2022-09-11T10:53:10Z</time>
      </trkpt>
      <trkpt lat="44.61278" lon="6.1388">
        <ele>1266.1</ele>
        <time>2022-09-11T10:53:11Z</time>
      </trkpt>
      <trkpt lat="44.61284" lon="6.13879">
        <ele>1265.8</ele>
        <time>2022-09-11T10:53:12Z</time>
      </trkpt>
      <trkpt lat="44.61289" lon="6.13878">
        <ele>1265.6</ele>
        <time>2022-09-11T10:53:13Z</time>
      </trkpt>
      <trkpt lat="44.61294" lon="6.13876">
        <ele>1265.4</ele>
        <time>2022-09-11T10:53:14Z</time>
      </trkpt>
      <trkpt lat="44.61298" lon="6.13875">
        <ele>1265.2</ele>
        <time>2022-09-11T10:53:16Z</time>
      </trkpt>
      <trkpt lat="44.61304" lon="6.13873">
        <ele>1265</ele>
        <time>2022-09-11T10:53:17Z</time>
      </trkpt>
      <trkpt lat="44.61308" lon="6.13871">
        <ele>1264.8</ele>
        <time>2022-09-11T10:53:18Z</time>
      </trkpt>
      <trkpt lat="44.61312" lon="6.1387">
        <ele>1264.6</ele>
        <time>2022-09-11T10:53:19Z</time>
      </trkpt>
      <trkpt lat="44.61318" lon="6.13867">
        <ele>1264.4</ele>
        <time>2022-09-11T10:53:20Z</time>
      </trkpt>
      <trkpt lat="44.61322" lon="6.13865">
        <ele>1264.2</ele>
        <time>2022-09-11T10:53:21Z</time>
      </trkpt>
      <trkpt lat="44.61326" lon="6.13863">
        <ele>1264.1</ele>
        <time>2022-09-11T10:53:23Z</time>
      </trkpt>
      <trkpt lat="44.6133" lon="6.1386">
        <ele>1263.9</ele>
        <time>2022-09-11T10:53:24Z</time>
      </trkpt>
      <trkpt lat="44.61338" lon="6.13855">
        <ele>1263.6</ele>
        <time>2022-09-11T10:53:25Z</time>
      </trkpt>
      <trkpt lat="44.61345" lon="6.13851">
        <ele>1263.4</ele>
        <time>2022-09-11T10:53:27Z</time>
      </trkpt>
      <trkpt lat="44.61347" lon="6.13849">
        <ele>1263.3</ele>
        <time>2022-09-11T10:53:29Z</time>
      </trkpt>
      <trkpt lat="44.61348" lon="6.13849">
        <ele>1263.3</ele>
        <time>2022-09-11T10:53:30Z</time>
      </trkpt>
      <trkpt lat="44.61349" lon="6.13848">
        <ele>1263.3</ele>
        <time>2022-09-11T10:53:31Z</time>
      </trkpt>
      <trkpt lat="44.61349" lon="6.13848">
        <ele>1263.3</ele>
        <time>2022-09-11T10:53:32Z</time>
      </trkpt>
      <trkpt lat="44.61348" lon="6.13848">
        <ele>1263.3</ele>
        <time>2022-09-11T10:53:33Z</time>
      </trkpt>
      <trkpt lat="44.61348" lon="6.13849">
        <ele>1263.3</ele>
        <time>2022-09-11T10:53:34Z</time>
      </trkpt>
      <trkpt lat="44.61348" lon="6.13849">
        <ele>1263.3</ele>
        <time>2022-09-11T10:53:35Z</time>
      </trkpt>
      <trkpt lat="44.61348" lon="6.13849">
        <ele>1263.3</ele>
        <time>2022-09-11T10:53:36Z</time>
      </trkpt>
      <trkpt lat="44.61348" lon="6.13849">
        <ele>1263.3</ele>
        <time>2022-09-11T10:53:37Z</time>
      </trkpt>
      <trkpt lat="44.61348" lon="6.13849">
        <ele>1263.3</ele>
        <time>2022-09-11T10:53:38Z</time>
      </trkpt>
      <trkpt lat="44.61348" lon="6.13849">
        <ele>1263.3</ele>
        <time>2022-09-11T10:53:39Z</time>
      </trkpt>
      <trkpt lat="44.61348" lon="6.13849">
        <ele>1263.3</ele>
        <time>2022-09-11T10:53:40Z</time>
      </trkpt>
      <trkpt lat="44.61348" lon="6.13849">
        <ele>1263.3</ele>
        <time>2022-09-11T10:53:41Z</time>
      </trkpt>
      <trkpt lat="44.61352" lon="6.13846">
        <ele>1263.2</ele>
        <time>2022-09-11T10:54:07Z</time>
      </trkpt>
      <trkpt lat="44.61354" lon="6.13844">
        <ele>1263.1</ele>
        <time>2022-09-11T10:54:08Z</time>
      </trkpt>
      <trkpt lat="44.61355" lon="6.13843">
        <ele>1263.1</ele>
        <time>2022-09-11T10:54:09Z</time>
      </trkpt>
      <trkpt lat="44.61358" lon="6.13841">
        <ele>1263</ele>
        <time>2022-09-11T10:54:10Z</time>
      </trkpt>
      <trkpt lat="44.61361" lon="6.13839">
        <ele>1262.9</ele>
        <time>2022-09-11T10:54:11Z</time>
      </trkpt>
      <trkpt lat="44.61366" lon="6.13835">
        <ele>1262.8</ele>
        <time>2022-09-11T10:54:12Z</time>
      </trkpt>
      <trkpt lat="44.61371" lon="6.13832">
        <ele>1262.7</ele>
        <time>2022-09-11T10:54:14Z</time>
      </trkpt>
      <trkpt lat="44.61377" lon="6.13828">
        <ele>1262.6</ele>
        <time>2022-09-11T10:54:15Z</time>
      </trkpt>
      <trkpt lat="44.61383" lon="6.13823">
        <ele>1262.5</ele>
        <time>2022-09-11T10:54:16Z</time>
      </trkpt>
      <trkpt lat="44.61387" lon="6.1382">
        <ele>1262.4</ele>
        <time>2022-09-11T10:54:18Z</time>
      </trkpt>
      <trkpt lat="44.61391" lon="6.13817">
        <ele>1262.3</ele>
        <time>2022-09-11T10:54:19Z</time>
      </trkpt>
      <trkpt lat="44.61395" lon="6.13814">
        <ele>1262.3</ele>
        <time>2022-09-11T10:54:20Z</time>
      </trkpt>
      <trkpt lat="44.61399" lon="6.1381">
        <ele>1262.2</ele>
        <time>2022-09-11T10:54:21Z</time>
      </trkpt>
      <trkpt lat="44.61403" lon="6.13806">
        <ele>1262.1</ele>
        <time>2022-09-11T10:54:22Z</time>
      </trkpt>
      <trkpt lat="44.61408" lon="6.13802">
        <ele>1262</ele>
        <time>2022-09-11T10:54:23Z</time>
      </trkpt>
      <trkpt lat="44.61413" lon="6.13799">
        <ele>1261.9</ele>
        <time>2022-09-11T10:54:24Z</time>
      </trkpt>
      <trkpt lat="44.61417" lon="6.13796">
        <ele>1261.9</ele>
        <time>2022-09-11T10:54:25Z</time>
      </trkpt>
      <trkpt lat="44.61422" lon="6.13792">
        <ele>1261.9</ele>
        <time>2022-09-11T10:54:26Z</time>
      </trkpt>
      <trkpt lat="44.61426" lon="6.1379">
        <ele>1261.9</ele>
        <time>2022-09-11T10:54:27Z</time>
      </trkpt>
      <trkpt lat="44.61431" lon="6.13788">
        <ele>1261.9</ele>
        <time>2022-09-11T10:54:28Z</time>
      </trkpt>
      <trkpt lat="44.61436" lon="6.13786">
        <ele>1261.8</ele>
        <time>2022-09-11T10:54:29Z</time>
      </trkpt>
      <trkpt lat="44.61441" lon="6.13784">
        <ele>1261.8</ele>
        <time>2022-09-11T10:54:30Z</time>
      </trkpt>
      <trkpt lat="44.61446" lon="6.13784">
        <ele>1261.8</ele>
        <time>2022-09-11T10:54:31Z</time>
      </trkpt>
      <trkpt lat="44.61451" lon="6.13786">
        <ele>1261.8</ele>
        <time>2022-09-11T10:54:32Z</time>
      </trkpt>
      <trkpt lat="44.61455" lon="6.13788">
        <ele>1261.8</ele>
        <time>2022-09-11T10:54:33Z</time>
      </trkpt>
      <trkpt lat="44.6146" lon="6.13789">
        <ele>1261.7</ele>
        <time>2022-09-11T10:54:34Z</time>
      </trkpt>
      <trkpt lat="44.61464" lon="6.13791">
        <ele>1261.6</ele>
        <time>2022-09-11T10:54:35Z</time>
      </trkpt>
      <trkpt lat="44.61469" lon="6.13795">
        <ele>1261.6</ele>
        <time>2022-09-11T10:54:36Z</time>
      </trkpt>
      <trkpt lat="44.61472" lon="6.138">
        <ele>1261.5</ele>
        <time>2022-09-11T10:54:37Z</time>
      </trkpt>
      <trkpt lat="44.61475" lon="6.13805">
        <ele>1261.4</ele>
        <time>2022-09-11T10:54:38Z</time>
      </trkpt>
      <trkpt lat="44.6148" lon="6.1381">
        <ele>1261.3</ele>
        <time>2022-09-11T10:54:39Z</time>
      </trkpt>
      <trkpt lat="44.61483" lon="6.13814">
        <ele>1261.2</ele>
        <time>2022-09-11T10:54:40Z</time>
      </trkpt>
      <trkpt lat="44.61487" lon="6.13819">
        <ele>1260.9</ele>
        <time>2022-09-11T10:54:41Z</time>
      </trkpt>
      <trkpt lat="44.61489" lon="6.13824">
        <ele>1260.7</ele>
        <time>2022-09-11T10:54:42Z</time>
      </trkpt>
      <trkpt lat="44.61491" lon="6.13828">
        <ele>1260.6</ele>
        <time>2022-09-11T10:54:43Z</time>
      </trkpt>
      <trkpt lat="44.61492" lon="6.13829">
        <ele>1260.5</ele>
        <time>2022-09-11T10:54:44Z</time>
      </trkpt>
      <trkpt lat="44.61493" lon="6.13831">
        <ele>1260.4</ele>
        <time>2022-09-11T10:54:45Z</time>
      </trkpt>
      <trkpt lat="44.61494" lon="6.13832">
        <ele>1260.4</ele>
        <time>2022-09-11T10:54:46Z</time>
      </trkpt>
      <trkpt lat="44.61494" lon="6.13833">
        <ele>1260.3</ele>
        <time>2022-09-11T10:54:47Z</time>
      </trkpt>
      <trkpt lat="44.61494" lon="6.13833">
        <ele>1260.3</ele>
        <time>2022-09-11T10:54:48Z</time>
      </trkpt>
      <trkpt lat="44.61495" lon="6.13834">
        <ele>1260.3</ele>
        <time>2022-09-11T10:54:49Z</time>
      </trkpt>
      <trkpt lat="44.61495" lon="6.13834">
        <ele>1260.2</ele>
        <time>2022-09-11T10:54:50Z</time>
      </trkpt>
      <trkpt lat="44.61495" lon="6.13835">
        <ele>1260.2</ele>
        <time>2022-09-11T10:54:51Z</time>
      </trkpt>
      <trkpt lat="44.61496" lon="6.13835">
        <ele>1260.2</ele>
        <time>2022-09-11T10:54:52Z</time>
      </trkpt>
      <trkpt lat="44.61496" lon="6.13836">
        <ele>1260.2</ele>
        <time>2022-09-11T10:54:53Z</time>
      </trkpt>
      <trkpt lat="44.61496" lon="6.13837">
        <ele>1260.1</ele>
        <time>2022-09-11T10:54:54Z</time>
      </trkpt>
      <trkpt lat="44.61497" lon="6.13837">
        <ele>1260.1</ele>
        <time>2022-09-11T10:54:55Z</time>
      </trkpt>
      <trkpt lat="44.61497" lon="6.13838">
        <ele>1260.1</ele>
        <time>2022-09-11T10:54:56Z</time>
      </trkpt>
      <trkpt lat="44.61497" lon="6.13838">
        <ele>1260.1</ele>
        <time>2022-09-11T10:54:57Z</time>
      </trkpt>
      <trkpt lat="44.61497" lon="6.13839">
        <ele>1260</ele>
        <time>2022-09-11T10:54:58Z</time>
      </trkpt>
      <trkpt lat="44.61498" lon="6.13839">
        <ele>1260</ele>
        <time>2022-09-11T10:54:59Z</time>
      </trkpt>
      <trkpt lat="44.61498" lon="6.1384">
        <ele>1260</ele>
        <time>2022-09-11T10:55:00Z</time>
      </trkpt>
      <trkpt lat="44.61498" lon="6.13841">
        <ele>1259.9</ele>
        <time>2022-09-11T10:55:01Z</time>
      </trkpt>
      <trkpt lat="44.61499" lon="6.13841">
        <ele>1259.9</ele>
        <time>2022-09-11T10:55:34Z</time>
      </trkpt>
      <trkpt lat="44.61499" lon="6.13842">
        <ele>1259.9</ele>
        <time>2022-09-11T10:55:35Z</time>
      </trkpt>
      <trkpt lat="44.61499" lon="6.13842">
        <ele>1259.9</ele>
        <time>2022-09-11T10:55:36Z</time>
      </trkpt>
      <trkpt lat="44.61501" lon="6.13845">
        <ele>1259.7</ele>
        <time>2022-09-11T10:55:37Z</time>
      </trkpt>
      <trkpt lat="44.61504" lon="6.13848">
        <ele>1259.5</ele>
        <time>2022-09-11T10:55:38Z</time>
      </trkpt>
      <trkpt lat="44.61507" lon="6.13852">
        <ele>1259.3</ele>
        <time>2022-09-11T10:55:39Z</time>
      </trkpt>
      <trkpt lat="44.61513" lon="6.13861">
        <ele>1258.8</ele>
        <time>2022-09-11T10:55:40Z</time>
      </trkpt>
      <trkpt lat="44.61517" lon="6.13867">
        <ele>1258.4</ele>
        <time>2022-09-11T10:55:42Z</time>
      </trkpt>
      <trkpt lat="44.61521" lon="6.13873">
        <ele>1258</ele>
        <time>2022-09-11T10:55:43Z</time>
      </trkpt>
      <trkpt lat="44.61525" lon="6.13878">
        <ele>1257.7</ele>
        <time>2022-09-11T10:55:44Z</time>
      </trkpt>
      <trkpt lat="44.6153" lon="6.13882">
        <ele>1257.3</ele>
        <time>2022-09-11T10:55:45Z</time>
      </trkpt>
      <trkpt lat="44.61534" lon="6.13887">
        <ele>1256.9</ele>
        <time>2022-09-11T10:55:46Z</time>
      </trkpt>
      <trkpt lat="44.6154" lon="6.13893">
        <ele>1256.4</ele>
        <time>2022-09-11T10:55:47Z</time>
      </trkpt>
      <trkpt lat="44.61546" lon="6.13898">
        <ele>1255.9</ele>
        <time>2022-09-11T10:55:48Z</time>
      </trkpt>
      <trkpt lat="44.61552" lon="6.13904">
        <ele>1255.3</ele>
        <time>2022-09-11T10:55:49Z</time>
      </trkpt>
      <trkpt lat="44.61558" lon="6.1391">
        <ele>1254.8</ele>
        <time>2022-09-11T10:55:50Z</time>
      </trkpt>
      <trkpt lat="44.61564" lon="6.13916">
        <ele>1254.2</ele>
        <time>2022-09-11T10:55:51Z</time>
      </trkpt>
      <trkpt lat="44.6157" lon="6.13922">
        <ele>1253.6</ele>
        <time>2022-09-11T10:55:52Z</time>
      </trkpt>
      <trkpt lat="44.61577" lon="6.13928">
        <ele>1253.1</ele>
        <time>2022-09-11T10:55:53Z</time>
      </trkpt>
      <trkpt lat="44.61584" lon="6.13934">
        <ele>1252.5</ele>
        <time>2022-09-11T10:55:54Z</time>
      </trkpt>
      <trkpt lat="44.6159" lon="6.1394">
        <ele>1251.9</ele>
        <time>2022-09-11T10:55:55Z</time>
      </trkpt>
      <trkpt lat="44.61597" lon="6.13947">
        <ele>1251.4</ele>
        <time>2022-09-11T10:55:56Z</time>
      </trkpt>
      <trkpt lat="44.61603" lon="6.13955">
        <ele>1250.8</ele>
        <time>2022-09-11T10:55:57Z</time>
      </trkpt>
      <trkpt lat="44.6161" lon="6.13964">
        <ele>1250.3</ele>
        <time>2022-09-11T10:55:58Z</time>
      </trkpt>
      <trkpt lat="44.61615" lon="6.13972">
        <ele>1249.9</ele>
        <time>2022-09-11T10:55:59Z</time>
      </trkpt>
      <trkpt lat="44.61621" lon="6.13981">
        <ele>1249.5</ele>
        <time>2022-09-11T10:56:00Z</time>
      </trkpt>
      <trkpt lat="44.61626" lon="6.1399">
        <ele>1249.2</ele>
        <time>2022-09-11T10:56:01Z</time>
      </trkpt>
      <trkpt lat="44.61631" lon="6.13999">
        <ele>1249</ele>
        <time>2022-09-11T10:56:02Z</time>
      </trkpt>
      <trkpt lat="44.61636" lon="6.14008">
        <ele>1248.8</ele>
        <time>2022-09-11T10:56:03Z</time>
      </trkpt>
      <trkpt lat="44.6164" lon="6.14016">
        <ele>1248.8</ele>
        <time>2022-09-11T10:56:04Z</time>
      </trkpt>
      <trkpt lat="44.61645" lon="6.14025">
        <ele>1248.8</ele>
        <time>2022-09-11T10:56:05Z</time>
      </trkpt>
      <trkpt lat="44.6165" lon="6.14033">
        <ele>1248.8</ele>
        <time>2022-09-11T10:56:06Z</time>
      </trkpt>
      <trkpt lat="44.61654" lon="6.1404">
        <ele>1248.9</ele>
        <time>2022-09-11T10:56:07Z</time>
      </trkpt>
      <trkpt lat="44.61659" lon="6.14047">
        <ele>1248.9</ele>
        <time>2022-09-11T10:56:08Z</time>
      </trkpt>
      <trkpt lat="44.61664" lon="6.14054">
        <ele>1249</ele>
        <time>2022-09-11T10:56:09Z</time>
      </trkpt>
      <trkpt lat="44.61668" lon="6.1406">
        <ele>1249.1</ele>
        <time>2022-09-11T10:56:10Z</time>
      </trkpt>
      <trkpt lat="44.61673" lon="6.14065">
        <ele>1249.2</ele>
        <time>2022-09-11T10:56:11Z</time>
      </trkpt>
      <trkpt lat="44.61677" lon="6.1407">
        <ele>1249.3</ele>
        <time>2022-09-11T10:56:12Z</time>
      </trkpt>
      <trkpt lat="44.61682" lon="6.14075">
        <ele>1249.5</ele>
        <time>2022-09-11T10:56:13Z</time>
      </trkpt>
      <trkpt lat="44.61686" lon="6.1408">
        <ele>1249.6</ele>
        <time>2022-09-11T10:56:14Z</time>
      </trkpt>
      <trkpt lat="44.6169" lon="6.14085">
        <ele>1249.8</ele>
        <time>2022-09-11T10:56:15Z</time>
      </trkpt>
      <trkpt lat="44.61694" lon="6.14088">
        <ele>1249.9</ele>
        <time>2022-09-11T10:56:16Z</time>
      </trkpt>
      <trkpt lat="44.61698" lon="6.14092">
        <ele>1250.1</ele>
        <time>2022-09-11T10:56:17Z</time>
      </trkpt>
      <trkpt lat="44.61701" lon="6.14094">
        <ele>1250.2</ele>
        <time>2022-09-11T10:56:18Z</time>
      </trkpt>
      <trkpt lat="44.61704" lon="6.14097">
        <ele>1250.3</ele>
        <time>2022-09-11T10:56:19Z</time>
      </trkpt>
      <trkpt lat="44.61706" lon="6.14099">
        <ele>1250.4</ele>
        <time>2022-09-11T10:56:20Z</time>
      </trkpt>
      <trkpt lat="44.6171" lon="6.14101">
        <ele>1250.6</ele>
        <time>2022-09-11T10:56:21Z</time>
      </trkpt>
      <trkpt lat="44.61713" lon="6.14104">
        <ele>1250.7</ele>
        <time>2022-09-11T10:56:22Z</time>
      </trkpt>
      <trkpt lat="44.61716" lon="6.14107">
        <ele>1250.9</ele>
        <time>2022-09-11T10:56:23Z</time>
      </trkpt>
      <trkpt lat="44.61719" lon="6.14106">
        <ele>1251</ele>
        <time>2022-09-11T10:56:24Z</time>
      </trkpt>
      <trkpt lat="44.61722" lon="6.1411">
        <ele>1251.2</ele>
        <time>2022-09-11T10:56:25Z</time>
      </trkpt>
      <trkpt lat="44.61726" lon="6.14116">
        <ele>1251.4</ele>
        <time>2022-09-11T10:56:27Z</time>
      </trkpt>
      <trkpt lat="44.61729" lon="6.1412">
        <ele>1251.6</ele>
        <time>2022-09-11T10:56:28Z</time>
      </trkpt>
      <trkpt lat="44.61732" lon="6.14122">
        <ele>1251.7</ele>
        <time>2022-09-11T10:56:29Z</time>
      </trkpt>
      <trkpt lat="44.61735" lon="6.14124">
        <ele>1251.9</ele>
        <time>2022-09-11T10:56:30Z</time>
      </trkpt>
      <trkpt lat="44.61738" lon="6.14126">
        <ele>1252.1</ele>
        <time>2022-09-11T10:56:31Z</time>
      </trkpt>
      <trkpt lat="44.61742" lon="6.1413">
        <ele>1252.3</ele>
        <time>2022-09-11T10:56:32Z</time>
      </trkpt>
      <trkpt lat="44.61745" lon="6.14132">
        <ele>1252.5</ele>
        <time>2022-09-11T10:56:33Z</time>
      </trkpt>
      <trkpt lat="44.61749" lon="6.14135">
        <ele>1252.7</ele>
        <time>2022-09-11T10:56:35Z</time>
      </trkpt>
      <trkpt lat="44.61751" lon="6.14138">
        <ele>1252.9</ele>
        <time>2022-09-11T10:56:36Z</time>
      </trkpt>
      <trkpt lat="44.61754" lon="6.14141">
        <ele>1253.1</ele>
        <time>2022-09-11T10:56:37Z</time>
      </trkpt>
      <trkpt lat="44.61757" lon="6.14144">
        <ele>1253.3</ele>
        <time>2022-09-11T10:56:38Z</time>
      </trkpt>
      <trkpt lat="44.61762" lon="6.14147">
        <ele>1253.6</ele>
        <time>2022-09-11T10:56:39Z</time>
      </trkpt>
      <trkpt lat="44.61767" lon="6.14153">
        <ele>1254</ele>
        <time>2022-09-11T10:56:41Z</time>
      </trkpt>
      <trkpt lat="44.61769" lon="6.14155">
        <ele>1254.2</ele>
        <time>2022-09-11T10:56:42Z</time>
      </trkpt>
      <trkpt lat="44.61771" lon="6.14158">
        <ele>1254.4</ele>
        <time>2022-09-11T10:56:44Z</time>
      </trkpt>
      <trkpt lat="44.61773" lon="6.1416">
        <ele>1254.6</ele>
        <time>2022-09-11T10:56:45Z</time>
      </trkpt>
      <trkpt lat="44.61777" lon="6.14164">
        <ele>1255</ele>
        <time>2022-09-11T10:56:46Z</time>
      </trkpt>
      <trkpt lat="44.6178" lon="6.14169">
        <ele>1255.4</ele>
        <time>2022-09-11T10:56:48Z</time>
      </trkpt>
      <trkpt lat="44.61782" lon="6.14173">
        <ele>1255.6</ele>
        <time>2022-09-11T10:56:49Z</time>
      </trkpt>
      <trkpt lat="44.61784" lon="6.14179">
        <ele>1256</ele>
        <time>2022-09-11T10:56:50Z</time>
      </trkpt>
      <trkpt lat="44.61787" lon="6.14183">
        <ele>1256.3</ele>
        <time>2022-09-11T10:56:52Z</time>
      </trkpt>
      <trkpt lat="44.61789" lon="6.14187">
        <ele>1256.6</ele>
        <time>2022-09-11T10:56:53Z</time>
      </trkpt>
      <trkpt lat="44.6179" lon="6.14188">
        <ele>1256.7</ele>
        <time>2022-09-11T10:56:54Z</time>
      </trkpt>
      <trkpt lat="44.61792" lon="6.14192">
        <ele>1257</ele>
        <time>2022-09-11T10:56:55Z</time>
      </trkpt>
      <trkpt lat="44.61792" lon="6.14193">
        <ele>1257.1</ele>
        <time>2022-09-11T10:56:56Z</time>
      </trkpt>
      <trkpt lat="44.61795" lon="6.14196">
        <ele>1257.3</ele>
        <time>2022-09-11T10:56:57Z</time>
      </trkpt>
      <trkpt lat="44.61795" lon="6.14197">
        <ele>1257.4</ele>
        <time>2022-09-11T10:56:58Z</time>
      </trkpt>
      <trkpt lat="44.61796" lon="6.14199">
        <ele>1257.5</ele>
        <time>2022-09-11T10:56:59Z</time>
      </trkpt>
      <trkpt lat="44.61798" lon="6.142">
        <ele>1257.7</ele>
        <time>2022-09-11T10:57:00Z</time>
      </trkpt>
      <trkpt lat="44.61801" lon="6.14203">
        <ele>1257.9</ele>
        <time>2022-09-11T10:57:01Z</time>
      </trkpt>
      <trkpt lat="44.61802" lon="6.14203">
        <ele>1258</ele>
        <time>2022-09-11T10:57:02Z</time>
      </trkpt>
      <trkpt lat="44.61804" lon="6.14206">
        <ele>1258.3</ele>
        <time>2022-09-11T10:57:03Z</time>
      </trkpt>
      <trkpt lat="44.61805" lon="6.14207">
        <ele>1258.4</ele>
        <time>2022-09-11T10:57:04Z</time>
      </trkpt>
      <trkpt lat="44.61809" lon="6.14209">
        <ele>1258.7</ele>
        <time>2022-09-11T10:57:05Z</time>
      </trkpt>
      <trkpt lat="44.6181" lon="6.1421">
        <ele>1258.8</ele>
        <time>2022-09-11T10:57:06Z</time>
      </trkpt>
      <trkpt lat="44.61813" lon="6.14212">
        <ele>1259</ele>
        <time>2022-09-11T10:57:07Z</time>
      </trkpt>
      <trkpt lat="44.61814" lon="6.14213">
        <ele>1259.1</ele>
        <time>2022-09-11T10:57:08Z</time>
      </trkpt>
      <trkpt lat="44.61817" lon="6.14216">
        <ele>1259.4</ele>
        <time>2022-09-11T10:57:09Z</time>
      </trkpt>
      <trkpt lat="44.61818" lon="6.14216">
        <ele>1259.5</ele>
        <time>2022-09-11T10:57:10Z</time>
      </trkpt>
      <trkpt lat="44.61822" lon="6.14218">
        <ele>1259.8</ele>
        <time>2022-09-11T10:57:11Z</time>
      </trkpt>
      <trkpt lat="44.61823" lon="6.14218">
        <ele>1259.9</ele>
        <time>2022-09-11T10:57:12Z</time>
      </trkpt>
      <trkpt lat="44.61826" lon="6.14219">
        <ele>1260.1</ele>
        <time>2022-09-11T10:57:13Z</time>
      </trkpt>
      <trkpt lat="44.61828" lon="6.14219">
        <ele>1260.2</ele>
        <time>2022-09-11T10:57:14Z</time>
      </trkpt>
      <trkpt lat="44.61831" lon="6.14221">
        <ele>1260.4</ele>
        <time>2022-09-11T10:57:15Z</time>
      </trkpt>
      <trkpt lat="44.61832" lon="6.14221">
        <ele>1260.5</ele>
        <time>2022-09-11T10:57:16Z</time>
      </trkpt>
      <trkpt lat="44.61837" lon="6.14223">
        <ele>1260.9</ele>
        <time>2022-09-11T10:57:17Z</time>
      </trkpt>
      <trkpt lat="44.61842" lon="6.14224">
        <ele>1261.3</ele>
        <time>2022-09-11T10:57:19Z</time>
      </trkpt>
      <trkpt lat="44.61844" lon="6.14225">
        <ele>1261.4</ele>
        <time>2022-09-11T10:57:20Z</time>
      </trkpt>
      <trkpt lat="44.61846" lon="6.14225">
        <ele>1261.6</ele>
        <time>2022-09-11T10:57:21Z</time>
      </trkpt>
      <trkpt lat="44.6185" lon="6.14226">
        <ele>1261.9</ele>
        <time>2022-09-11T10:57:23Z</time>
      </trkpt>
      <trkpt lat="44.61851" lon="6.14226">
        <ele>1262</ele>
        <time>2022-09-11T10:57:24Z</time>
      </trkpt>
      <trkpt lat="44.61855" lon="6.14227">
        <ele>1262.2</ele>
        <time>2022-09-11T10:57:25Z</time>
      </trkpt>
      <trkpt lat="44.61857" lon="6.14227">
        <ele>1262.4</ele>
        <time>2022-09-11T10:57:26Z</time>
      </trkpt>
      <trkpt lat="44.61861" lon="6.14228">
        <ele>1262.7</ele>
        <time>2022-09-11T10:57:27Z</time>
      </trkpt>
      <trkpt lat="44.61862" lon="6.14228">
        <ele>1262.8</ele>
        <time>2022-09-11T10:57:28Z</time>
      </trkpt>
      <trkpt lat="44.61865" lon="6.14229">
        <ele>1263</ele>
        <time>2022-09-11T10:57:29Z</time>
      </trkpt>
      <trkpt lat="44.61868" lon="6.1423">
        <ele>1263.2</ele>
        <time>2022-09-11T10:57:30Z</time>
      </trkpt>
      <trkpt lat="44.61873" lon="6.14231">
        <ele>1263.5</ele>
        <time>2022-09-11T10:57:32Z</time>
      </trkpt>
      <trkpt lat="44.61875" lon="6.14231">
        <ele>1263.6</ele>
        <time>2022-09-11T10:57:34Z</time>
      </trkpt>
      <trkpt lat="44.61879" lon="6.14231">
        <ele>1263.9</ele>
        <time>2022-09-11T10:57:35Z</time>
      </trkpt>
      <trkpt lat="44.6188" lon="6.14232">
        <ele>1263.9</ele>
        <time>2022-09-11T10:57:36Z</time>
      </trkpt>
      <trkpt lat="44.61884" lon="6.14232">
        <ele>1264.2</ele>
        <time>2022-09-11T10:57:37Z</time>
      </trkpt>
      <trkpt lat="44.61887" lon="6.14233">
        <ele>1264.4</ele>
        <time>2022-09-11T10:57:38Z</time>
      </trkpt>
      <trkpt lat="44.61889" lon="6.14234">
        <ele>1264.5</ele>
        <time>2022-09-11T10:57:40Z</time>
      </trkpt>
      <trkpt lat="44.61892" lon="6.14235">
        <ele>1264.7</ele>
        <time>2022-09-11T10:57:41Z</time>
      </trkpt>
      <trkpt lat="44.61894" lon="6.14236">
        <ele>1264.8</ele>
        <time>2022-09-11T10:57:42Z</time>
      </trkpt>
      <trkpt lat="44.61897" lon="6.14237">
        <ele>1265.1</ele>
        <time>2022-09-11T10:57:43Z</time>
      </trkpt>
      <trkpt lat="44.61898" lon="6.14237">
        <ele>1265.1</ele>
        <time>2022-09-11T10:57:44Z</time>
      </trkpt>
      <trkpt lat="44.61902" lon="6.14239">
        <ele>1265.4</ele>
        <time>2022-09-11T10:57:45Z</time>
      </trkpt>
      <trkpt lat="44.61903" lon="6.14239">
        <ele>1265.5</ele>
        <time>2022-09-11T10:57:46Z</time>
      </trkpt>
      <trkpt lat="44.61907" lon="6.14241">
        <ele>1265.7</ele>
        <time>2022-09-11T10:57:47Z</time>
      </trkpt>
      <trkpt lat="44.61908" lon="6.14241">
        <ele>1265.8</ele>
        <time>2022-09-11T10:57:48Z</time>
      </trkpt>
      <trkpt lat="44.61911" lon="6.14242">
        <ele>1266</ele>
        <time>2022-09-11T10:57:49Z</time>
      </trkpt>
      <trkpt lat="44.61915" lon="6.14244">
        <ele>1266.3</ele>
        <time>2022-09-11T10:57:50Z</time>
      </trkpt>
      <trkpt lat="44.61916" lon="6.14245">
        <ele>1266.4</ele>
        <time>2022-09-11T10:57:51Z</time>
      </trkpt>
      <trkpt lat="44.61919" lon="6.14247">
        <ele>1266.6</ele>
        <time>2022-09-11T10:57:52Z</time>
      </trkpt>
      <trkpt lat="44.6192" lon="6.14248">
        <ele>1266.7</ele>
        <time>2022-09-11T10:57:53Z</time>
      </trkpt>
      <trkpt lat="44.61924" lon="6.1425">
        <ele>1267</ele>
        <time>2022-09-11T10:57:54Z</time>
      </trkpt>
      <trkpt lat="44.61925" lon="6.1425">
        <ele>1267</ele>
        <time>2022-09-11T10:57:55Z</time>
      </trkpt>
      <trkpt lat="44.61928" lon="6.14252">
        <ele>1267.3</ele>
        <time>2022-09-11T10:57:56Z</time>
      </trkpt>
      <trkpt lat="44.61929" lon="6.14252">
        <ele>1267.3</ele>
        <time>2022-09-11T10:57:57Z</time>
      </trkpt>
      <trkpt lat="44.61932" lon="6.14255">
        <ele>1267.6</ele>
        <time>2022-09-11T10:57:58Z</time>
      </trkpt>
      <trkpt lat="44.61934" lon="6.14256">
        <ele>1267.7</ele>
        <time>2022-09-11T10:57:59Z</time>
      </trkpt>
      <trkpt lat="44.61937" lon="6.14259">
        <ele>1268</ele>
        <time>2022-09-11T10:58:00Z</time>
      </trkpt>
      <trkpt lat="44.61938" lon="6.14259">
        <ele>1268</ele>
        <time>2022-09-11T10:58:01Z</time>
      </trkpt>
      <trkpt lat="44.61941" lon="6.14261">
        <ele>1268.2</ele>
        <time>2022-09-11T10:58:02Z</time>
      </trkpt>
      <trkpt lat="44.61945" lon="6.14265">
        <ele>1268.5</ele>
        <time>2022-09-11T10:58:04Z</time>
      </trkpt>
      <trkpt lat="44.61947" lon="6.14266">
        <ele>1268.6</ele>
        <time>2022-09-11T10:58:05Z</time>
      </trkpt>
      <trkpt lat="44.61948" lon="6.14268">
        <ele>1268.7</ele>
        <time>2022-09-11T10:58:06Z</time>
      </trkpt>
      <trkpt lat="44.61951" lon="6.1427">
        <ele>1268.9</ele>
        <time>2022-09-11T10:58:07Z</time>
      </trkpt>
      <trkpt lat="44.61954" lon="6.14272">
        <ele>1269</ele>
        <time>2022-09-11T10:58:08Z</time>
      </trkpt>
      <trkpt lat="44.61957" lon="6.14276">
        <ele>1269.3</ele>
        <time>2022-09-11T10:58:10Z</time>
      </trkpt>
      <trkpt lat="44.61959" lon="6.14277">
        <ele>1269.4</ele>
        <time>2022-09-11T10:58:11Z</time>
      </trkpt>
      <trkpt lat="44.6196" lon="6.14278">
        <ele>1269.4</ele>
        <time>2022-09-11T10:58:12Z</time>
      </trkpt>
      <trkpt lat="44.61963" lon="6.14281">
        <ele>1269.6</ele>
        <time>2022-09-11T10:58:13Z</time>
      </trkpt>
      <trkpt lat="44.61964" lon="6.14282">
        <ele>1269.7</ele>
        <time>2022-09-11T10:58:14Z</time>
      </trkpt>
      <trkpt lat="44.61967" lon="6.14284">
        <ele>1269.8</ele>
        <time>2022-09-11T10:58:15Z</time>
      </trkpt>
      <trkpt lat="44.61971" lon="6.14288">
        <ele>1270.1</ele>
        <time>2022-09-11T10:58:16Z</time>
      </trkpt>
      <trkpt lat="44.61973" lon="6.1429">
        <ele>1270.2</ele>
        <time>2022-09-11T10:58:17Z</time>
      </trkpt>
      <trkpt lat="44.61975" lon="6.14293">
        <ele>1270.3</ele>
        <time>2022-09-11T10:58:18Z</time>
      </trkpt>
      <trkpt lat="44.61979" lon="6.14297">
        <ele>1270.6</ele>
        <time>2022-09-11T10:58:20Z</time>
      </trkpt>
      <trkpt lat="44.6198" lon="6.14298">
        <ele>1270.7</ele>
        <time>2022-09-11T10:58:21Z</time>
      </trkpt>
      <trkpt lat="44.61981" lon="6.14299">
        <ele>1270.8</ele>
        <time>2022-09-11T10:58:22Z</time>
      </trkpt>
      <trkpt lat="44.61984" lon="6.14302">
        <ele>1271</ele>
        <time>2022-09-11T10:58:23Z</time>
      </trkpt>
      <trkpt lat="44.61986" lon="6.14303">
        <ele>1271.1</ele>
        <time>2022-09-11T10:58:24Z</time>
      </trkpt>
      <trkpt lat="44.61989" lon="6.14307">
        <ele>1271.3</ele>
        <time>2022-09-11T10:58:25Z</time>
      </trkpt>
      <trkpt lat="44.61993" lon="6.1431">
        <ele>1271.6</ele>
        <time>2022-09-11T10:58:27Z</time>
      </trkpt>
      <trkpt lat="44.61994" lon="6.14312">
        <ele>1271.7</ele>
        <time>2022-09-11T10:58:28Z</time>
      </trkpt>
      <trkpt lat="44.61996" lon="6.14313">
        <ele>1271.8</ele>
        <time>2022-09-11T10:58:29Z</time>
      </trkpt>
      <trkpt lat="44.62" lon="6.14317">
        <ele>1272</ele>
        <time>2022-09-11T10:58:30Z</time>
      </trkpt>
      <trkpt lat="44.62001" lon="6.14318">
        <ele>1272.2</ele>
        <time>2022-09-11T10:58:31Z</time>
      </trkpt>
      <trkpt lat="44.62004" lon="6.1432">
        <ele>1272.3</ele>
        <time>2022-09-11T10:58:33Z</time>
      </trkpt>
      <trkpt lat="44.62007" lon="6.14323">
        <ele>1272.5</ele>
        <time>2022-09-11T10:58:34Z</time>
      </trkpt>
      <trkpt lat="44.62007" lon="6.14325">
        <ele>1272.5</ele>
        <time>2022-09-11T10:58:35Z</time>
      </trkpt>
      <trkpt lat="44.62011" lon="6.14329">
        <ele>1272.8</ele>
        <time>2022-09-11T10:58:36Z</time>
      </trkpt>
      <trkpt lat="44.62013" lon="6.14332">
        <ele>1272.9</ele>
        <time>2022-09-11T10:58:37Z</time>
      </trkpt>
      <trkpt lat="44.62015" lon="6.14334">
        <ele>1273</ele>
        <time>2022-09-11T10:58:39Z</time>
      </trkpt>
      <trkpt lat="44.62017" lon="6.14337">
        <ele>1273.2</ele>
        <time>2022-09-11T10:58:40Z</time>
      </trkpt>
      <trkpt lat="44.6202" lon="6.14341">
        <ele>1273.4</ele>
        <time>2022-09-11T10:58:41Z</time>
      </trkpt>
      <trkpt lat="44.62022" lon="6.14344">
        <ele>1273.6</ele>
        <time>2022-09-11T10:58:42Z</time>
      </trkpt>
      <trkpt lat="44.62024" lon="6.14347">
        <ele>1273.7</ele>
        <time>2022-09-11T10:58:43Z</time>
      </trkpt>
      <trkpt lat="44.62026" lon="6.1435">
        <ele>1273.9</ele>
        <time>2022-09-11T10:58:44Z</time>
      </trkpt>
      <trkpt lat="44.62028" lon="6.14354">
        <ele>1274</ele>
        <time>2022-09-11T10:58:46Z</time>
      </trkpt>
      <trkpt lat="44.62031" lon="6.14357">
        <ele>1274.2</ele>
        <time>2022-09-11T10:58:47Z</time>
      </trkpt>
      <trkpt lat="44.62033" lon="6.14362">
        <ele>1274.4</ele>
        <time>2022-09-11T10:58:48Z</time>
      </trkpt>
      <trkpt lat="44.62035" lon="6.14364">
        <ele>1274.6</ele>
        <time>2022-09-11T10:58:49Z</time>
      </trkpt>
      <trkpt lat="44.62037" lon="6.14367">
        <ele>1274.7</ele>
        <time>2022-09-11T10:58:50Z</time>
      </trkpt>
      <trkpt lat="44.6204" lon="6.1437">
        <ele>1274.9</ele>
        <time>2022-09-11T10:58:52Z</time>
      </trkpt>
      <trkpt lat="44.62043" lon="6.14374">
        <ele>1275.1</ele>
        <time>2022-09-11T10:58:53Z</time>
      </trkpt>
      <trkpt lat="44.62047" lon="6.14378">
        <ele>1275.3</ele>
        <time>2022-09-11T10:58:55Z</time>
      </trkpt>
      <trkpt lat="44.62049" lon="6.1438">
        <ele>1275.5</ele>
        <time>2022-09-11T10:58:56Z</time>
      </trkpt>
      <trkpt lat="44.62052" lon="6.14382">
        <ele>1275.6</ele>
        <time>2022-09-11T10:58:57Z</time>
      </trkpt>
      <trkpt lat="44.62054" lon="6.14384">
        <ele>1275.8</ele>
        <time>2022-09-11T10:58:58Z</time>
      </trkpt>
      <trkpt lat="44.62056" lon="6.14387">
        <ele>1275.9</ele>
        <time>2022-09-11T10:58:59Z</time>
      </trkpt>
      <trkpt lat="44.62059" lon="6.14389">
        <ele>1276</ele>
        <time>2022-09-11T10:59:01Z</time>
      </trkpt>
      <trkpt lat="44.62061" lon="6.14391">
        <ele>1276.2</ele>
        <time>2022-09-11T10:59:02Z</time>
      </trkpt>
      <trkpt lat="44.62064" lon="6.14394">
        <ele>1276.3</ele>
        <time>2022-09-11T10:59:03Z</time>
      </trkpt>
      <trkpt lat="44.62065" lon="6.14395">
        <ele>1276.4</ele>
        <time>2022-09-11T10:59:04Z</time>
      </trkpt>
      <trkpt lat="44.6207" lon="6.14399">
        <ele>1276.7</ele>
        <time>2022-09-11T10:59:05Z</time>
      </trkpt>
      <trkpt lat="44.62073" lon="6.144">
        <ele>1276.8</ele>
        <time>2022-09-11T10:59:07Z</time>
      </trkpt>
      <trkpt lat="44.62076" lon="6.14401">
        <ele>1277</ele>
        <time>2022-09-11T10:59:08Z</time>
      </trkpt>
      <trkpt lat="44.62079" lon="6.14403">
        <ele>1277.1</ele>
        <time>2022-09-11T10:59:09Z</time>
      </trkpt>
      <trkpt lat="44.62082" lon="6.14405">
        <ele>1277.3</ele>
        <time>2022-09-11T10:59:10Z</time>
      </trkpt>
      <trkpt lat="44.62085" lon="6.14407">
        <ele>1277.4</ele>
        <time>2022-09-11T10:59:11Z</time>
      </trkpt>
      <trkpt lat="44.62088" lon="6.14409">
        <ele>1277.6</ele>
        <time>2022-09-11T10:59:13Z</time>
      </trkpt>
      <trkpt lat="44.62092" lon="6.1441">
        <ele>1277.8</ele>
        <time>2022-09-11T10:59:14Z</time>
      </trkpt>
      <trkpt lat="44.62095" lon="6.14412">
        <ele>1277.9</ele>
        <time>2022-09-11T10:59:15Z</time>
      </trkpt>
      <trkpt lat="44.62097" lon="6.14413">
        <ele>1278.1</ele>
        <time>2022-09-11T10:59:16Z</time>
      </trkpt>
      <trkpt lat="44.62101" lon="6.14415">
        <ele>1278.2</ele>
        <time>2022-09-11T10:59:17Z</time>
      </trkpt>
      <trkpt lat="44.62104" lon="6.14417">
        <ele>1278.5</ele>
        <time>2022-09-11T10:59:19Z</time>
      </trkpt>
      <trkpt lat="44.62106" lon="6.14417">
        <ele>1278.5</ele>
        <time>2022-09-11T10:59:20Z</time>
      </trkpt>
      <trkpt lat="44.62109" lon="6.14418">
        <ele>1278.7</ele>
        <time>2022-09-11T10:59:21Z</time>
      </trkpt>
      <trkpt lat="44.62113" lon="6.14421">
        <ele>1278.9</ele>
        <time>2022-09-11T10:59:22Z</time>
      </trkpt>
      <trkpt lat="44.62115" lon="6.14423">
        <ele>1279.1</ele>
        <time>2022-09-11T10:59:23Z</time>
      </trkpt>
      <trkpt lat="44.62119" lon="6.14424">
        <ele>1279.3</ele>
        <time>2022-09-11T10:59:25Z</time>
      </trkpt>
      <trkpt lat="44.62121" lon="6.14424">
        <ele>1279.4</ele>
        <time>2022-09-11T10:59:26Z</time>
      </trkpt>
      <trkpt lat="44.62125" lon="6.14427">
        <ele>1279.6</ele>
        <time>2022-09-11T10:59:27Z</time>
      </trkpt>
      <trkpt lat="44.62127" lon="6.14428">
        <ele>1279.7</ele>
        <time>2022-09-11T10:59:28Z</time>
      </trkpt>
      <trkpt lat="44.62131" lon="6.1443">
        <ele>1279.9</ele>
        <time>2022-09-11T10:59:29Z</time>
      </trkpt>
      <trkpt lat="44.62134" lon="6.14431">
        <ele>1280.1</ele>
        <time>2022-09-11T10:59:31Z</time>
      </trkpt>
      <trkpt lat="44.62137" lon="6.14432">
        <ele>1280.3</ele>
        <time>2022-09-11T10:59:32Z</time>
      </trkpt>
      <trkpt lat="44.62141" lon="6.14434">
        <ele>1280.5</ele>
        <time>2022-09-11T10:59:33Z</time>
      </trkpt>
      <trkpt lat="44.62143" lon="6.14435">
        <ele>1280.6</ele>
        <time>2022-09-11T10:59:34Z</time>
      </trkpt>
      <trkpt lat="44.62145" lon="6.14437">
        <ele>1280.8</ele>
        <time>2022-09-11T10:59:35Z</time>
      </trkpt>
      <trkpt lat="44.62148" lon="6.14439">
        <ele>1280.9</ele>
        <time>2022-09-11T10:59:36Z</time>
      </trkpt>
      <trkpt lat="44.62151" lon="6.1444">
        <ele>1281.1</ele>
        <time>2022-09-11T10:59:37Z</time>
      </trkpt>
      <trkpt lat="44.62153" lon="6.14441">
        <ele>1281.3</ele>
        <time>2022-09-11T10:59:38Z</time>
      </trkpt>
      <trkpt lat="44.62156" lon="6.14443">
        <ele>1281.4</ele>
        <time>2022-09-11T10:59:39Z</time>
      </trkpt>
      <trkpt lat="44.62159" lon="6.14447">
        <ele>1281.6</ele>
        <time>2022-09-11T10:59:40Z</time>
      </trkpt>
      <trkpt lat="44.6216" lon="6.14448">
        <ele>1281.7</ele>
        <time>2022-09-11T10:59:41Z</time>
      </trkpt>
      <trkpt lat="44.62163" lon="6.14451">
        <ele>1281.9</ele>
        <time>2022-09-11T10:59:42Z</time>
      </trkpt>
      <trkpt lat="44.62164" lon="6.14452">
        <ele>1282</ele>
        <time>2022-09-11T10:59:43Z</time>
      </trkpt>
      <trkpt lat="44.62167" lon="6.14455">
        <ele>1282.2</ele>
        <time>2022-09-11T10:59:44Z</time>
      </trkpt>
      <trkpt lat="44.62167" lon="6.14456">
        <ele>1282.3</ele>
        <time>2022-09-11T10:59:45Z</time>
      </trkpt>
      <trkpt lat="44.6217" lon="6.1446">
        <ele>1282.5</ele>
        <time>2022-09-11T10:59:46Z</time>
      </trkpt>
      <trkpt lat="44.6217" lon="6.14461">
        <ele>1282.5</ele>
        <time>2022-09-11T10:59:47Z</time>
      </trkpt>
      <trkpt lat="44.62174" lon="6.14465">
        <ele>1282.8</ele>
        <time>2022-09-11T10:59:48Z</time>
      </trkpt>
      <trkpt lat="44.62175" lon="6.14468">
        <ele>1282.9</ele>
        <time>2022-09-11T10:59:49Z</time>
      </trkpt>
      <trkpt lat="44.62177" lon="6.14471">
        <ele>1283.1</ele>
        <time>2022-09-11T10:59:51Z</time>
      </trkpt>
      <trkpt lat="44.62178" lon="6.14475">
        <ele>1283.3</ele>
        <time>2022-09-11T10:59:52Z</time>
      </trkpt>
      <trkpt lat="44.62179" lon="6.14477">
        <ele>1283.4</ele>
        <time>2022-09-11T10:59:53Z</time>
      </trkpt>
      <trkpt lat="44.62181" lon="6.14479">
        <ele>1283.5</ele>
        <time>2022-09-11T10:59:54Z</time>
      </trkpt>
      <trkpt lat="44.62183" lon="6.14484">
        <ele>1283.7</ele>
        <time>2022-09-11T10:59:55Z</time>
      </trkpt>
      <trkpt lat="44.62185" lon="6.14487">
        <ele>1283.9</ele>
        <time>2022-09-11T10:59:56Z</time>
      </trkpt>
      <trkpt lat="44.62186" lon="6.14492">
        <ele>1284.1</ele>
        <time>2022-09-11T10:59:57Z</time>
      </trkpt>
      <trkpt lat="44.62187" lon="6.14496">
        <ele>1284.3</ele>
        <time>2022-09-11T10:59:59Z</time>
      </trkpt>
      <trkpt lat="44.62189" lon="6.145">
        <ele>1284.5</ele>
        <time>2022-09-11T11:00:00Z</time>
      </trkpt>
      <trkpt lat="44.62189" lon="6.14506">
        <ele>1284.7</ele>
        <time>2022-09-11T11:00:01Z</time>
      </trkpt>
      <trkpt lat="44.62189" lon="6.14511">
        <ele>1284.9</ele>
        <time>2022-09-11T11:00:02Z</time>
      </trkpt>
      <trkpt lat="44.62189" lon="6.14515">
        <ele>1285.1</ele>
        <time>2022-09-11T11:00:04Z</time>
      </trkpt>
      <trkpt lat="44.62189" lon="6.1452">
        <ele>1285.3</ele>
        <time>2022-09-11T11:00:05Z</time>
      </trkpt>
      <trkpt lat="44.62188" lon="6.14525">
        <ele>1285.5</ele>
        <time>2022-09-11T11:00:06Z</time>
      </trkpt>
      <trkpt lat="44.62187" lon="6.14529">
        <ele>1285.7</ele>
        <time>2022-09-11T11:00:07Z</time>
      </trkpt>
      <trkpt lat="44.62184" lon="6.14534">
        <ele>1286</ele>
        <time>2022-09-11T11:00:09Z</time>
      </trkpt>
      <trkpt lat="44.62183" lon="6.14537">
        <ele>1286.1</ele>
        <time>2022-09-11T11:00:10Z</time>
      </trkpt>
      <trkpt lat="44.62182" lon="6.14541">
        <ele>1286.3</ele>
        <time>2022-09-11T11:00:11Z</time>
      </trkpt>
      <trkpt lat="44.6218" lon="6.14546">
        <ele>1286.5</ele>
        <time>2022-09-11T11:00:12Z</time>
      </trkpt>
      <trkpt lat="44.62179" lon="6.14548">
        <ele>1286.6</ele>
        <time>2022-09-11T11:00:13Z</time>
      </trkpt>
      <trkpt lat="44.62177" lon="6.14553">
        <ele>1286.9</ele>
        <time>2022-09-11T11:00:15Z</time>
      </trkpt>
      <trkpt lat="44.62177" lon="6.14555">
        <ele>1287</ele>
        <time>2022-09-11T11:00:16Z</time>
      </trkpt>
      <trkpt lat="44.62175" lon="6.14561">
        <ele>1287.3</ele>
        <time>2022-09-11T11:00:17Z</time>
      </trkpt>
      <trkpt lat="44.62174" lon="6.14565">
        <ele>1287.5</ele>
        <time>2022-09-11T11:00:18Z</time>
      </trkpt>
      <trkpt lat="44.62174" lon="6.14568">
        <ele>1287.6</ele>
        <time>2022-09-11T11:00:20Z</time>
      </trkpt>
      <trkpt lat="44.62174" lon="6.14573">
        <ele>1287.8</ele>
        <time>2022-09-11T11:00:21Z</time>
      </trkpt>
      <trkpt lat="44.62174" lon="6.14579">
        <ele>1288.1</ele>
        <time>2022-09-11T11:00:22Z</time>
      </trkpt>
      <trkpt lat="44.62174" lon="6.14586">
        <ele>1288.3</ele>
        <time>2022-09-11T11:00:24Z</time>
      </trkpt>
      <trkpt lat="44.62174" lon="6.14588">
        <ele>1288.4</ele>
        <time>2022-09-11T11:00:25Z</time>
      </trkpt>
      <trkpt lat="44.62174" lon="6.14591">
        <ele>1288.5</ele>
        <time>2022-09-11T11:00:26Z</time>
      </trkpt>
      <trkpt lat="44.62176" lon="6.14597">
        <ele>1288.8</ele>
        <time>2022-09-11T11:00:27Z</time>
      </trkpt>
      <trkpt lat="44.62177" lon="6.14601">
        <ele>1288.9</ele>
        <time>2022-09-11T11:00:28Z</time>
      </trkpt>
      <trkpt lat="44.62177" lon="6.14604">
        <ele>1289</ele>
        <time>2022-09-11T11:00:30Z</time>
      </trkpt>
      <trkpt lat="44.62179" lon="6.14609">
        <ele>1289.2</ele>
        <time>2022-09-11T11:00:31Z</time>
      </trkpt>
      <trkpt lat="44.6218" lon="6.1461">
        <ele>1289.3</ele>
        <time>2022-09-11T11:00:32Z</time>
      </trkpt>
      <trkpt lat="44.62182" lon="6.14614">
        <ele>1289.4</ele>
        <time>2022-09-11T11:00:33Z</time>
      </trkpt>
      <trkpt lat="44.62184" lon="6.1462">
        <ele>1289.6</ele>
        <time>2022-09-11T11:00:34Z</time>
      </trkpt>
      <trkpt lat="44.62186" lon="6.14623">
        <ele>1289.6</ele>
        <time>2022-09-11T11:00:35Z</time>
      </trkpt>
      <trkpt lat="44.6219" lon="6.14626">
        <ele>1289.8</ele>
        <time>2022-09-11T11:00:37Z</time>
      </trkpt>
      <trkpt lat="44.62192" lon="6.14627">
        <ele>1289.8</ele>
        <time>2022-09-11T11:00:38Z</time>
      </trkpt>
      <trkpt lat="44.62193" lon="6.14628">
        <ele>1289.8</ele>
        <time>2022-09-11T11:00:39Z</time>
      </trkpt>
      <trkpt lat="44.62197" lon="6.14631">
        <ele>1289.9</ele>
        <time>2022-09-11T11:00:40Z</time>
      </trkpt>
      <trkpt lat="44.62199" lon="6.14633">
        <ele>1290</ele>
        <time>2022-09-11T11:00:42Z</time>
      </trkpt>
      <trkpt lat="44.62201" lon="6.14634">
        <ele>1290</ele>
        <time>2022-09-11T11:00:43Z</time>
      </trkpt>
      <trkpt lat="44.62201" lon="6.14635">
        <ele>1290</ele>
        <time>2022-09-11T11:00:44Z</time>
      </trkpt>
      <trkpt lat="44.62201" lon="6.14636">
        <ele>1290</ele>
        <time>2022-09-11T11:00:45Z</time>
      </trkpt>
      <trkpt lat="44.62201" lon="6.14636">
        <ele>1290</ele>
        <time>2022-09-11T11:00:47Z</time>
      </trkpt>
      <trkpt lat="44.62201" lon="6.14637">
        <ele>1290.1</ele>
        <time>2022-09-11T11:00:48Z</time>
      </trkpt>
      <trkpt lat="44.62201" lon="6.14638">
        <ele>1290.1</ele>
        <time>2022-09-11T11:00:49Z</time>
      </trkpt>
      <trkpt lat="44.62201" lon="6.14638">
        <ele>1290.1</ele>
        <time>2022-09-11T11:00:50Z</time>
      </trkpt>
      <trkpt lat="44.62201" lon="6.14639">
        <ele>1290.1</ele>
        <time>2022-09-11T11:00:51Z</time>
      </trkpt>
      <trkpt lat="44.62201" lon="6.1464">
        <ele>1290.1</ele>
        <time>2022-09-11T11:00:53Z</time>
      </trkpt>
      <trkpt lat="44.62202" lon="6.1464">
        <ele>1290.1</ele>
        <time>2022-09-11T11:00:54Z</time>
      </trkpt>
      <trkpt lat="44.62202" lon="6.14641">
        <ele>1290.1</ele>
        <time>2022-09-11T11:00:55Z</time>
      </trkpt>
      <trkpt lat="44.62202" lon="6.14642">
        <ele>1290.1</ele>
        <time>2022-09-11T11:01:41Z</time>
      </trkpt>
      <trkpt lat="44.62202" lon="6.14642">
        <ele>1290.1</ele>
        <time>2022-09-11T11:01:42Z</time>
      </trkpt>
      <trkpt lat="44.62202" lon="6.14643">
        <ele>1290.1</ele>
        <time>2022-09-11T11:01:43Z</time>
      </trkpt>
      <trkpt lat="44.62203" lon="6.14647">
        <ele>1290.2</ele>
        <time>2022-09-11T11:01:44Z</time>
      </trkpt>
      <trkpt lat="44.62206" lon="6.14652">
        <ele>1290.3</ele>
        <time>2022-09-11T11:01:46Z</time>
      </trkpt>
      <trkpt lat="44.62208" lon="6.14655">
        <ele>1290.3</ele>
        <time>2022-09-11T11:01:47Z</time>
      </trkpt>
      <trkpt lat="44.62211" lon="6.14659">
        <ele>1290.3</ele>
        <time>2022-09-11T11:01:48Z</time>
      </trkpt>
      <trkpt lat="44.62214" lon="6.14662">
        <ele>1290.4</ele>
        <time>2022-09-11T11:01:49Z</time>
      </trkpt>
      <trkpt lat="44.62217" lon="6.14666">
        <ele>1290.5</ele>
        <time>2022-09-11T11:01:50Z</time>
      </trkpt>
      <trkpt lat="44.6222" lon="6.1467">
        <ele>1290.6</ele>
        <time>2022-09-11T11:01:52Z</time>
      </trkpt>
      <trkpt lat="44.62224" lon="6.14674">
        <ele>1290.7</ele>
        <time>2022-09-11T11:01:53Z</time>
      </trkpt>
      <trkpt lat="44.62228" lon="6.14679">
        <ele>1290.8</ele>
        <time>2022-09-11T11:01:54Z</time>
      </trkpt>
      <trkpt lat="44.62232" lon="6.14686">
        <ele>1290.9</ele>
        <time>2022-09-11T11:01:56Z</time>
      </trkpt>
      <trkpt lat="44.62235" lon="6.1469">
        <ele>1291</ele>
        <time>2022-09-11T11:01:57Z</time>
      </trkpt>
      <trkpt lat="44.62237" lon="6.14694">
        <ele>1291.1</ele>
        <time>2022-09-11T11:01:58Z</time>
      </trkpt>
      <trkpt lat="44.62239" lon="6.14698">
        <ele>1291.2</ele>
        <time>2022-09-11T11:02:00Z</time>
      </trkpt>
      <trkpt lat="44.62241" lon="6.14703">
        <ele>1291.3</ele>
        <time>2022-09-11T11:02:01Z</time>
      </trkpt>
      <trkpt lat="44.62244" lon="6.14709">
        <ele>1291.4</ele>
        <time>2022-09-11T11:02:02Z</time>
      </trkpt>
      <trkpt lat="44.62245" lon="6.14714">
        <ele>1291.5</ele>
        <time>2022-09-11T11:02:03Z</time>
      </trkpt>
      <trkpt lat="44.62246" lon="6.14718">
        <ele>1291.6</ele>
        <time>2022-09-11T11:02:04Z</time>
      </trkpt>
      <trkpt lat="44.62247" lon="6.14723">
        <ele>1291.8</ele>
        <time>2022-09-11T11:02:05Z</time>
      </trkpt>
      <trkpt lat="44.62248" lon="6.14728">
        <ele>1291.9</ele>
        <time>2022-09-11T11:02:06Z</time>
      </trkpt>
      <trkpt lat="44.62249" lon="6.14732">
        <ele>1292</ele>
        <time>2022-09-11T11:02:07Z</time>
      </trkpt>
      <trkpt lat="44.6225" lon="6.14736">
        <ele>1292.1</ele>
        <time>2022-09-11T11:02:09Z</time>
      </trkpt>
      <trkpt lat="44.62252" lon="6.14743">
        <ele>1292.4</ele>
        <time>2022-09-11T11:02:10Z</time>
      </trkpt>
      <trkpt lat="44.62255" lon="6.1475">
        <ele>1292.6</ele>
        <time>2022-09-11T11:02:12Z</time>
      </trkpt>
      <trkpt lat="44.62256" lon="6.14753">
        <ele>1292.7</ele>
        <time>2022-09-11T11:02:14Z</time>
      </trkpt>
      <trkpt lat="44.62257" lon="6.1476">
        <ele>1292.9</ele>
        <time>2022-09-11T11:02:15Z</time>
      </trkpt>
      <trkpt lat="44.62258" lon="6.14765">
        <ele>1293.1</ele>
        <time>2022-09-11T11:02:17Z</time>
      </trkpt>
      <trkpt lat="44.6226" lon="6.14771">
        <ele>1293.2</ele>
        <time>2022-09-11T11:02:18Z</time>
      </trkpt>
      <trkpt lat="44.62261" lon="6.14775">
        <ele>1293.4</ele>
        <time>2022-09-11T11:02:19Z</time>
      </trkpt>
      <trkpt lat="44.62263" lon="6.1478">
        <ele>1293.5</ele>
        <time>2022-09-11T11:02:21Z</time>
      </trkpt>
      <trkpt lat="44.62264" lon="6.14784">
        <ele>1293.6</ele>
        <time>2022-09-11T11:02:22Z</time>
      </trkpt>
      <trkpt lat="44.62266" lon="6.14788">
        <ele>1293.8</ele>
        <time>2022-09-11T11:02:23Z</time>
      </trkpt>
      <trkpt lat="44.62267" lon="6.14792">
        <ele>1293.9</ele>
        <time>2022-09-11T11:02:24Z</time>
      </trkpt>
      <trkpt lat="44.62269" lon="6.14797">
        <ele>1294</ele>
        <time>2022-09-11T11:02:25Z</time>
      </trkpt>
      <trkpt lat="44.6227" lon="6.14801">
        <ele>1294.1</ele>
        <time>2022-09-11T11:02:26Z</time>
      </trkpt>
      <trkpt lat="44.62272" lon="6.14804">
        <ele>1294.2</ele>
        <time>2022-09-11T11:02:27Z</time>
      </trkpt>
      <trkpt lat="44.62274" lon="6.14808">
        <ele>1294.3</ele>
        <time>2022-09-11T11:02:28Z</time>
      </trkpt>
      <trkpt lat="44.62275" lon="6.14812">
        <ele>1294.4</ele>
        <time>2022-09-11T11:02:29Z</time>
      </trkpt>
      <trkpt lat="44.62279" lon="6.14817">
        <ele>1294.5</ele>
        <time>2022-09-11T11:02:30Z</time>
      </trkpt>
      <trkpt lat="44.62281" lon="6.14821">
        <ele>1294.6</ele>
        <time>2022-09-11T11:02:32Z</time>
      </trkpt>
      <trkpt lat="44.62282" lon="6.14825">
        <ele>1294.7</ele>
        <time>2022-09-11T11:02:33Z</time>
      </trkpt>
      <trkpt lat="44.62284" lon="6.14829">
        <ele>1294.8</ele>
        <time>2022-09-11T11:02:34Z</time>
      </trkpt>
      <trkpt lat="44.62286" lon="6.14832">
        <ele>1294.9</ele>
        <time>2022-09-11T11:02:35Z</time>
      </trkpt>
      <trkpt lat="44.62288" lon="6.14836">
        <ele>1295</ele>
        <time>2022-09-11T11:02:36Z</time>
      </trkpt>
      <trkpt lat="44.6229" lon="6.1484">
        <ele>1295.1</ele>
        <time>2022-09-11T11:02:37Z</time>
      </trkpt>
      <trkpt lat="44.62292" lon="6.14843">
        <ele>1295.3</ele>
        <time>2022-09-11T11:02:38Z</time>
      </trkpt>
      <trkpt lat="44.62296" lon="6.14848">
        <ele>1295.4</ele>
        <time>2022-09-11T11:02:39Z</time>
      </trkpt>
      <trkpt lat="44.62299" lon="6.1485">
        <ele>1295.6</ele>
        <time>2022-09-11T11:02:41Z</time>
      </trkpt>
      <trkpt lat="44.62302" lon="6.14853">
        <ele>1295.7</ele>
        <time>2022-09-11T11:02:42Z</time>
      </trkpt>
      <trkpt lat="44.62304" lon="6.14856">
        <ele>1295.8</ele>
        <time>2022-09-11T11:02:43Z</time>
      </trkpt>
      <trkpt lat="44.62307" lon="6.1486">
        <ele>1296</ele>
        <time>2022-09-11T11:02:44Z</time>
      </trkpt>
      <trkpt lat="44.62309" lon="6.14864">
        <ele>1296.1</ele>
        <time>2022-09-11T11:02:46Z</time>
      </trkpt>
      <trkpt lat="44.62311" lon="6.14867">
        <ele>1296.3</ele>
        <time>2022-09-11T11:02:47Z</time>
      </trkpt>
      <trkpt lat="44.62313" lon="6.1487">
        <ele>1296.4</ele>
        <time>2022-09-11T11:02:48Z</time>
      </trkpt>
      <trkpt lat="44.62316" lon="6.14874">
        <ele>1296.6</ele>
        <time>2022-09-11T11:02:49Z</time>
      </trkpt>
      <trkpt lat="44.6232" lon="6.14878">
        <ele>1296.9</ele>
        <time>2022-09-11T11:02:50Z</time>
      </trkpt>
      <trkpt lat="44.62322" lon="6.14883">
        <ele>1297.1</ele>
        <time>2022-09-11T11:02:52Z</time>
      </trkpt>
      <trkpt lat="44.62326" lon="6.14887">
        <ele>1297.3</ele>
        <time>2022-09-11T11:02:53Z</time>
      </trkpt>
      <trkpt lat="44.62327" lon="6.14891">
        <ele>1297.5</ele>
        <time>2022-09-11T11:02:54Z</time>
      </trkpt>
      <trkpt lat="44.6233" lon="6.14895">
        <ele>1297.7</ele>
        <time>2022-09-11T11:02:55Z</time>
      </trkpt>
      <trkpt lat="44.62332" lon="6.149">
        <ele>1298</ele>
        <time>2022-09-11T11:02:57Z</time>
      </trkpt>
      <trkpt lat="44.62335" lon="6.14906">
        <ele>1298.3</ele>
        <time>2022-09-11T11:02:58Z</time>
      </trkpt>
      <trkpt lat="44.62336" lon="6.1491">
        <ele>1298.5</ele>
        <time>2022-09-11T11:03:00Z</time>
      </trkpt>
      <trkpt lat="44.62338" lon="6.14915">
        <ele>1298.7</ele>
        <time>2022-09-11T11:03:01Z</time>
      </trkpt>
      <trkpt lat="44.6234" lon="6.14918">
        <ele>1298.9</ele>
        <time>2022-09-11T11:03:02Z</time>
      </trkpt>
      <trkpt lat="44.62342" lon="6.14922">
        <ele>1299.1</ele>
        <time>2022-09-11T11:03:04Z</time>
      </trkpt>
      <trkpt lat="44.62343" lon="6.14925">
        <ele>1299.3</ele>
        <time>2022-09-11T11:03:05Z</time>
      </trkpt>
      <trkpt lat="44.62345" lon="6.1493">
        <ele>1299.5</ele>
        <time>2022-09-11T11:03:06Z</time>
      </trkpt>
      <trkpt lat="44.62346" lon="6.14931">
        <ele>1299.6</ele>
        <time>2022-09-11T11:03:07Z</time>
      </trkpt>
      <trkpt lat="44.62347" lon="6.14935">
        <ele>1299.8</ele>
        <time>2022-09-11T11:03:08Z</time>
      </trkpt>
      <trkpt lat="44.62349" lon="6.1494">
        <ele>1300</ele>
        <time>2022-09-11T11:03:09Z</time>
      </trkpt>
      <trkpt lat="44.6235" lon="6.14942">
        <ele>1300.1</ele>
        <time>2022-09-11T11:03:10Z</time>
      </trkpt>
      <trkpt lat="44.62352" lon="6.14945">
        <ele>1300.3</ele>
        <time>2022-09-11T11:03:11Z</time>
      </trkpt>
      <trkpt lat="44.62354" lon="6.14948">
        <ele>1300.5</ele>
        <time>2022-09-11T11:03:12Z</time>
      </trkpt>
      <trkpt lat="44.62355" lon="6.14952">
        <ele>1300.7</ele>
        <time>2022-09-11T11:03:13Z</time>
      </trkpt>
      <trkpt lat="44.62357" lon="6.14956">
        <ele>1301</ele>
        <time>2022-09-11T11:03:14Z</time>
      </trkpt>
      <trkpt lat="44.62358" lon="6.14957">
        <ele>1301.1</ele>
        <time>2022-09-11T11:03:15Z</time>
      </trkpt>
      <trkpt lat="44.6236" lon="6.1496">
        <ele>1301.2</ele>
        <time>2022-09-11T11:03:16Z</time>
      </trkpt>
      <trkpt lat="44.62362" lon="6.14963">
        <ele>1301.4</ele>
        <time>2022-09-11T11:03:17Z</time>
      </trkpt>
      <trkpt lat="44.62365" lon="6.14968">
        <ele>1301.7</ele>
        <time>2022-09-11T11:03:18Z</time>
      </trkpt>
      <trkpt lat="44.62366" lon="6.1497">
        <ele>1301.8</ele>
        <time>2022-09-11T11:03:19Z</time>
      </trkpt>
      <trkpt lat="44.62368" lon="6.14973">
        <ele>1302</ele>
        <time>2022-09-11T11:03:21Z</time>
      </trkpt>
      <trkpt lat="44.62371" lon="6.14977">
        <ele>1302.2</ele>
        <time>2022-09-11T11:03:22Z</time>
      </trkpt>
      <trkpt lat="44.62372" lon="6.14978">
        <ele>1302.3</ele>
        <time>2022-09-11T11:03:23Z</time>
      </trkpt>
      <trkpt lat="44.62374" lon="6.14982">
        <ele>1302.6</ele>
        <time>2022-09-11T11:03:24Z</time>
      </trkpt>
      <trkpt lat="44.62375" lon="6.14984">
        <ele>1302.6</ele>
        <time>2022-09-11T11:03:25Z</time>
      </trkpt>
      <trkpt lat="44.62378" lon="6.14988">
        <ele>1302.9</ele>
        <time>2022-09-11T11:03:26Z</time>
      </trkpt>
      <trkpt lat="44.6238" lon="6.1499">
        <ele>1303</ele>
        <time>2022-09-11T11:03:27Z</time>
      </trkpt>
      <trkpt lat="44.62382" lon="6.14993">
        <ele>1303.2</ele>
        <time>2022-09-11T11:03:28Z</time>
      </trkpt>
      <trkpt lat="44.62385" lon="6.14997">
        <ele>1303.5</ele>
        <time>2022-09-11T11:03:30Z</time>
      </trkpt>
      <trkpt lat="44.62387" lon="6.15">
        <ele>1303.6</ele>
        <time>2022-09-11T11:03:31Z</time>
      </trkpt>
      <trkpt lat="44.62389" lon="6.15003">
        <ele>1303.8</ele>
        <time>2022-09-11T11:03:32Z</time>
      </trkpt>
      <trkpt lat="44.62392" lon="6.15006">
        <ele>1304</ele>
        <time>2022-09-11T11:03:33Z</time>
      </trkpt>
      <trkpt lat="44.62396" lon="6.15011">
        <ele>1304.3</ele>
        <time>2022-09-11T11:03:35Z</time>
      </trkpt>
      <trkpt lat="44.62398" lon="6.15013">
        <ele>1304.5</ele>
        <time>2022-09-11T11:03:36Z</time>
      </trkpt>
      <trkpt lat="44.624" lon="6.15015">
        <ele>1304.6</ele>
        <time>2022-09-11T11:03:37Z</time>
      </trkpt>
      <trkpt lat="44.62402" lon="6.15017">
        <ele>1304.7</ele>
        <time>2022-09-11T11:03:38Z</time>
      </trkpt>
      <trkpt lat="44.62405" lon="6.1502">
        <ele>1304.9</ele>
        <time>2022-09-11T11:03:40Z</time>
      </trkpt>
      <trkpt lat="44.62408" lon="6.15022">
        <ele>1305.1</ele>
        <time>2022-09-11T11:03:41Z</time>
      </trkpt>
      <trkpt lat="44.62411" lon="6.15025">
        <ele>1305.2</ele>
        <time>2022-09-11T11:03:42Z</time>
      </trkpt>
      <trkpt lat="44.62414" lon="6.15028">
        <ele>1305.4</ele>
        <time>2022-09-11T11:03:43Z</time>
      </trkpt>
      <trkpt lat="44.62415" lon="6.15029">
        <ele>1305.5</ele>
        <time>2022-09-11T11:03:44Z</time>
      </trkpt>
      <trkpt lat="44.62419" lon="6.15033">
        <ele>1305.7</ele>
        <time>2022-09-11T11:03:46Z</time>
      </trkpt>
      <trkpt lat="44.62421" lon="6.15034">
        <ele>1305.8</ele>
        <time>2022-09-11T11:03:47Z</time>
      </trkpt>
      <trkpt lat="44.62422" lon="6.15035">
        <ele>1305.9</ele>
        <time>2022-09-11T11:03:48Z</time>
      </trkpt>
      <trkpt lat="44.62426" lon="6.15037">
        <ele>1306.1</ele>
        <time>2022-09-11T11:03:49Z</time>
      </trkpt>
      <trkpt lat="44.6243" lon="6.15039">
        <ele>1306.3</ele>
        <time>2022-09-11T11:03:50Z</time>
      </trkpt>
      <trkpt lat="44.62433" lon="6.15041">
        <ele>1306.5</ele>
        <time>2022-09-11T11:03:52Z</time>
      </trkpt>
      <trkpt lat="44.62437" lon="6.15044">
        <ele>1306.7</ele>
        <time>2022-09-11T11:03:53Z</time>
      </trkpt>
      <trkpt lat="44.62441" lon="6.15045">
        <ele>1306.9</ele>
        <time>2022-09-11T11:03:55Z</time>
      </trkpt>
      <trkpt lat="44.62444" lon="6.15046">
        <ele>1307.1</ele>
        <time>2022-09-11T11:03:56Z</time>
      </trkpt>
      <trkpt lat="44.62449" lon="6.15047">
        <ele>1307.4</ele>
        <time>2022-09-11T11:03:57Z</time>
      </trkpt>
      <trkpt lat="44.62452" lon="6.15048">
        <ele>1307.5</ele>
        <time>2022-09-11T11:03:59Z</time>
      </trkpt>
      <trkpt lat="44.62455" lon="6.15048">
        <ele>1307.7</ele>
        <time>2022-09-11T11:04:00Z</time>
      </trkpt>
      <trkpt lat="44.62459" lon="6.15049">
        <ele>1307.9</ele>
        <time>2022-09-11T11:04:01Z</time>
      </trkpt>
      <trkpt lat="44.6246" lon="6.1505">
        <ele>1308</ele>
        <time>2022-09-11T11:04:02Z</time>
      </trkpt>
      <trkpt lat="44.62463" lon="6.15051">
        <ele>1308.2</ele>
        <time>2022-09-11T11:04:03Z</time>
      </trkpt>
      <trkpt lat="44.62467" lon="6.15053">
        <ele>1308.4</ele>
        <time>2022-09-11T11:04:05Z</time>
      </trkpt>
      <trkpt lat="44.62471" lon="6.15053">
        <ele>1308.6</ele>
        <time>2022-09-11T11:04:06Z</time>
      </trkpt>
      <trkpt lat="44.62474" lon="6.15055">
        <ele>1308.8</ele>
        <time>2022-09-11T11:04:07Z</time>
      </trkpt>
      <trkpt lat="44.62477" lon="6.15056">
        <ele>1309</ele>
        <time>2022-09-11T11:04:08Z</time>
      </trkpt>
      <trkpt lat="44.6248" lon="6.15059">
        <ele>1309.1</ele>
        <time>2022-09-11T11:04:09Z</time>
      </trkpt>
      <trkpt lat="44.62483" lon="6.15061">
        <ele>1309.3</ele>
        <time>2022-09-11T11:04:11Z</time>
      </trkpt>
      <trkpt lat="44.62487" lon="6.15065">
        <ele>1309.5</ele>
        <time>2022-09-11T11:04:12Z</time>
      </trkpt>
      <trkpt lat="44.6249" lon="6.15068">
        <ele>1309.8</ele>
        <time>2022-09-11T11:04:13Z</time>
      </trkpt>
      <trkpt lat="44.62493" lon="6.15072">
        <ele>1309.9</ele>
        <time>2022-09-11T11:04:15Z</time>
      </trkpt>
      <trkpt lat="44.62495" lon="6.15074">
        <ele>1310.1</ele>
        <time>2022-09-11T11:04:16Z</time>
      </trkpt>
      <trkpt lat="44.62498" lon="6.15078">
        <ele>1310.3</ele>
        <time>2022-09-11T11:04:17Z</time>
      </trkpt>
      <trkpt lat="44.625" lon="6.15082">
        <ele>1310.5</ele>
        <time>2022-09-11T11:04:18Z</time>
      </trkpt>
      <trkpt lat="44.62502" lon="6.15086">
        <ele>1310.7</ele>
        <time>2022-09-11T11:04:20Z</time>
      </trkpt>
      <trkpt lat="44.62503" lon="6.1509">
        <ele>1310.8</ele>
        <time>2022-09-11T11:04:21Z</time>
      </trkpt>
      <trkpt lat="44.62505" lon="6.15094">
        <ele>1311</ele>
        <time>2022-09-11T11:04:22Z</time>
      </trkpt>
      <trkpt lat="44.62507" lon="6.15099">
        <ele>1311.2</ele>
        <time>2022-09-11T11:04:23Z</time>
      </trkpt>
      <trkpt lat="44.62507" lon="6.15103">
        <ele>1311.4</ele>
        <time>2022-09-11T11:04:24Z</time>
      </trkpt>
      <trkpt lat="44.62508" lon="6.15108">
        <ele>1311.6</ele>
        <time>2022-09-11T11:04:25Z</time>
      </trkpt>
      <trkpt lat="44.62509" lon="6.15113">
        <ele>1311.8</ele>
        <time>2022-09-11T11:04:27Z</time>
      </trkpt>
      <trkpt lat="44.6251" lon="6.15119">
        <ele>1312</ele>
        <time>2022-09-11T11:04:28Z</time>
      </trkpt>
      <trkpt lat="44.6251" lon="6.15124">
        <ele>1312.2</ele>
        <time>2022-09-11T11:04:29Z</time>
      </trkpt>
      <trkpt lat="44.6251" lon="6.1513">
        <ele>1312.5</ele>
        <time>2022-09-11T11:04:30Z</time>
      </trkpt>
      <trkpt lat="44.6251" lon="6.15132">
        <ele>1312.5</ele>
        <time>2022-09-11T11:04:31Z</time>
      </trkpt>
      <trkpt lat="44.62509" lon="6.15139">
        <ele>1312.8</ele>
        <time>2022-09-11T11:04:33Z</time>
      </trkpt>
      <trkpt lat="44.62509" lon="6.15142">
        <ele>1312.9</ele>
        <time>2022-09-11T11:04:34Z</time>
      </trkpt>
      <trkpt lat="44.62508" lon="6.15145">
        <ele>1313</ele>
        <time>2022-09-11T11:04:35Z</time>
      </trkpt>
      <trkpt lat="44.62508" lon="6.15149">
        <ele>1313.2</ele>
        <time>2022-09-11T11:04:36Z</time>
      </trkpt>
      <trkpt lat="44.62507" lon="6.15154">
        <ele>1313.4</ele>
        <time>2022-09-11T11:04:37Z</time>
      </trkpt>
      <trkpt lat="44.62504" lon="6.15163">
        <ele>1313.7</ele>
        <time>2022-09-11T11:04:39Z</time>
      </trkpt>
      <trkpt lat="44.62502" lon="6.15168">
        <ele>1313.9</ele>
        <time>2022-09-11T11:04:41Z</time>
      </trkpt>
      <trkpt lat="44.62501" lon="6.15172">
        <ele>1314</ele>
        <time>2022-09-11T11:04:42Z</time>
      </trkpt>
      <trkpt lat="44.62499" lon="6.15175">
        <ele>1314.2</ele>
        <time>2022-09-11T11:04:43Z</time>
      </trkpt>
      <trkpt lat="44.62497" lon="6.15179">
        <ele>1314.4</ele>
        <time>2022-09-11T11:04:44Z</time>
      </trkpt>
      <trkpt lat="44.62495" lon="6.15183">
        <ele>1314.5</ele>
        <time>2022-09-11T11:04:45Z</time>
      </trkpt>
      <trkpt lat="44.62493" lon="6.15187">
        <ele>1314.7</ele>
        <time>2022-09-11T11:04:46Z</time>
      </trkpt>
      <trkpt lat="44.62491" lon="6.15192">
        <ele>1314.9</ele>
        <time>2022-09-11T11:04:47Z</time>
      </trkpt>
      <trkpt lat="44.62489" lon="6.15196">
        <ele>1315.1</ele>
        <time>2022-09-11T11:04:48Z</time>
      </trkpt>
      <trkpt lat="44.62487" lon="6.152">
        <ele>1315.3</ele>
        <time>2022-09-11T11:04:49Z</time>
      </trkpt>
      <trkpt lat="44.62485" lon="6.15204">
        <ele>1315.5</ele>
        <time>2022-09-11T11:04:50Z</time>
      </trkpt>
      <trkpt lat="44.62484" lon="6.15208">
        <ele>1315.7</ele>
        <time>2022-09-11T11:04:51Z</time>
      </trkpt>
      <trkpt lat="44.62482" lon="6.15212">
        <ele>1315.8</ele>
        <time>2022-09-11T11:04:52Z</time>
      </trkpt>
      <trkpt lat="44.62481" lon="6.15216">
        <ele>1316</ele>
        <time>2022-09-11T11:04:53Z</time>
      </trkpt>
      <trkpt lat="44.62479" lon="6.1522">
        <ele>1316.1</ele>
        <time>2022-09-11T11:04:54Z</time>
      </trkpt>
      <trkpt lat="44.62478" lon="6.15224">
        <ele>1316.3</ele>
        <time>2022-09-11T11:04:55Z</time>
      </trkpt>
      <trkpt lat="44.62477" lon="6.15229">
        <ele>1316.4</ele>
        <time>2022-09-11T11:04:56Z</time>
      </trkpt>
      <trkpt lat="44.62476" lon="6.15233">
        <ele>1316.6</ele>
        <time>2022-09-11T11:04:57Z</time>
      </trkpt>
      <trkpt lat="44.62475" lon="6.15238">
        <ele>1316.7</ele>
        <time>2022-09-11T11:04:58Z</time>
      </trkpt>
      <trkpt lat="44.62474" lon="6.15242">
        <ele>1316.8</ele>
        <time>2022-09-11T11:04:59Z</time>
      </trkpt>
      <trkpt lat="44.62473" lon="6.15248">
        <ele>1317</ele>
        <time>2022-09-11T11:05:00Z</time>
      </trkpt>
      <trkpt lat="44.62472" lon="6.15252">
        <ele>1317.1</ele>
        <time>2022-09-11T11:05:01Z</time>
      </trkpt>
      <trkpt lat="44.62472" lon="6.15258">
        <ele>1317.3</ele>
        <time>2022-09-11T11:05:02Z</time>
      </trkpt>
      <trkpt lat="44.62472" lon="6.15263">
        <ele>1317.4</ele>
        <time>2022-09-11T11:05:03Z</time>
      </trkpt>
      <trkpt lat="44.62471" lon="6.15269">
        <ele>1317.5</ele>
        <time>2022-09-11T11:05:04Z</time>
      </trkpt>
      <trkpt lat="44.62471" lon="6.15276">
        <ele>1317.7</ele>
        <time>2022-09-11T11:05:06Z</time>
      </trkpt>
      <trkpt lat="44.62471" lon="6.15281">
        <ele>1317.8</ele>
        <time>2022-09-11T11:05:07Z</time>
      </trkpt>
      <trkpt lat="44.62472" lon="6.15291">
        <ele>1318.1</ele>
        <time>2022-09-11T11:05:08Z</time>
      </trkpt>
      <trkpt lat="44.62472" lon="6.15297">
        <ele>1318.2</ele>
        <time>2022-09-11T11:05:10Z</time>
      </trkpt>
      <trkpt lat="44.62472" lon="6.15305">
        <ele>1318.4</ele>
        <time>2022-09-11T11:05:11Z</time>
      </trkpt>
      <trkpt lat="44.62472" lon="6.15312">
        <ele>1318.6</ele>
        <time>2022-09-11T11:05:12Z</time>
      </trkpt>
      <trkpt lat="44.62473" lon="6.15319">
        <ele>1318.8</ele>
        <time>2022-09-11T11:05:14Z</time>
      </trkpt>
      <trkpt lat="44.62473" lon="6.15327">
        <ele>1319</ele>
        <time>2022-09-11T11:05:15Z</time>
      </trkpt>
      <trkpt lat="44.62473" lon="6.15333">
        <ele>1319.2</ele>
        <time>2022-09-11T11:05:16Z</time>
      </trkpt>
      <trkpt lat="44.62473" lon="6.1534">
        <ele>1319.4</ele>
        <time>2022-09-11T11:05:17Z</time>
      </trkpt>
      <trkpt lat="44.62473" lon="6.15346">
        <ele>1319.5</ele>
        <time>2022-09-11T11:05:19Z</time>
      </trkpt>
      <trkpt lat="44.62473" lon="6.15351">
        <ele>1319.7</ele>
        <time>2022-09-11T11:05:20Z</time>
      </trkpt>
      <trkpt lat="44.62473" lon="6.15354">
        <ele>1319.8</ele>
        <time>2022-09-11T11:05:21Z</time>
      </trkpt>
      <trkpt lat="44.62473" lon="6.15359">
        <ele>1319.9</ele>
        <time>2022-09-11T11:05:22Z</time>
      </trkpt>
      <trkpt lat="44.62473" lon="6.15363">
        <ele>1320</ele>
        <time>2022-09-11T11:05:23Z</time>
      </trkpt>
      <trkpt lat="44.62472" lon="6.15369">
        <ele>1320.2</ele>
        <time>2022-09-11T11:05:24Z</time>
      </trkpt>
      <trkpt lat="44.62472" lon="6.15374">
        <ele>1320.3</ele>
        <time>2022-09-11T11:05:25Z</time>
      </trkpt>
      <trkpt lat="44.62472" lon="6.15379">
        <ele>1320.4</ele>
        <time>2022-09-11T11:05:27Z</time>
      </trkpt>
      <trkpt lat="44.6247" lon="6.15383">
        <ele>1320.5</ele>
        <time>2022-09-11T11:05:28Z</time>
      </trkpt>
      <trkpt lat="44.62468" lon="6.1539">
        <ele>1320.6</ele>
        <time>2022-09-11T11:05:29Z</time>
      </trkpt>
      <trkpt lat="44.62467" lon="6.15393">
        <ele>1320.6</ele>
        <time>2022-09-11T11:05:30Z</time>
      </trkpt>
      <trkpt lat="44.62465" lon="6.15397">
        <ele>1320.6</ele>
        <time>2022-09-11T11:05:32Z</time>
      </trkpt>
      <trkpt lat="44.62463" lon="6.15401">
        <ele>1320.6</ele>
        <time>2022-09-11T11:05:33Z</time>
      </trkpt>
      <trkpt lat="44.6246" lon="6.15404">
        <ele>1320.5</ele>
        <time>2022-09-11T11:05:34Z</time>
      </trkpt>
      <trkpt lat="44.62458" lon="6.15409">
        <ele>1320.5</ele>
        <time>2022-09-11T11:05:35Z</time>
      </trkpt>
      <trkpt lat="44.62454" lon="6.15416">
        <ele>1320.3</ele>
        <time>2022-09-11T11:05:36Z</time>
      </trkpt>
      <trkpt lat="44.62452" lon="6.15421">
        <ele>1320.2</ele>
        <time>2022-09-11T11:05:37Z</time>
      </trkpt>
      <trkpt lat="44.6245" lon="6.15426">
        <ele>1320.1</ele>
        <time>2022-09-11T11:05:38Z</time>
      </trkpt>
      <trkpt lat="44.62448" lon="6.1543">
        <ele>1320</ele>
        <time>2022-09-11T11:05:40Z</time>
      </trkpt>
      <trkpt lat="44.62448" lon="6.15431">
        <ele>1320</ele>
        <time>2022-09-11T11:05:41Z</time>
      </trkpt>
      <trkpt lat="44.62447" lon="6.15433">
        <ele>1319.9</ele>
        <time>2022-09-11T11:05:42Z</time>
      </trkpt>
      <trkpt lat="44.62447" lon="6.15434">
        <ele>1319.9</ele>
        <time>2022-09-11T11:05:43Z</time>
      </trkpt>
      <trkpt lat="44.62446" lon="6.15435">
        <ele>1319.9</ele>
        <time>2022-09-11T11:05:44Z</time>
      </trkpt>
      <trkpt lat="44.62447" lon="6.15433">
        <ele>1319.8</ele>
        <time>2022-09-11T11:05:45Z</time>
      </trkpt>
      <trkpt lat="44.62448" lon="6.15432">
        <ele>1319.8</ele>
        <time>2022-09-11T11:05:46Z</time>
      </trkpt>
      <trkpt lat="44.62448" lon="6.15432">
        <ele>1319.8</ele>
        <time>2022-09-11T11:05:47Z</time>
      </trkpt>
      <trkpt lat="44.62448" lon="6.15432">
        <ele>1319.8</ele>
        <time>2022-09-11T11:05:48Z</time>
      </trkpt>
      <trkpt lat="44.62448" lon="6.15432">
        <ele>1319.8</ele>
        <time>2022-09-11T11:05:49Z</time>
      </trkpt>
      <trkpt lat="44.62448" lon="6.15432">
        <ele>1319.8</ele>
        <time>2022-09-11T11:05:50Z</time>
      </trkpt>
      <trkpt lat="44.62449" lon="6.15432">
        <ele>1319.8</ele>
        <time>2022-09-11T11:05:51Z</time>
      </trkpt>
      <trkpt lat="44.62448" lon="6.15432">
        <ele>1319.8</ele>
        <time>2022-09-11T11:05:52Z</time>
      </trkpt>
      <trkpt lat="44.62448" lon="6.15432">
        <ele>1319.8</ele>
        <time>2022-09-11T11:05:53Z</time>
      </trkpt>
      <trkpt lat="44.62444" lon="6.1544">
        <ele>1319.6</ele>
        <time>2022-09-11T11:06:15Z</time>
      </trkpt>
      <trkpt lat="44.62441" lon="6.15444">
        <ele>1319.6</ele>
        <time>2022-09-11T11:06:17Z</time>
      </trkpt>
      <trkpt lat="44.62439" lon="6.15446">
        <ele>1319.5</ele>
        <time>2022-09-11T11:06:18Z</time>
      </trkpt>
      <trkpt lat="44.62436" lon="6.1545">
        <ele>1319.5</ele>
        <time>2022-09-11T11:06:19Z</time>
      </trkpt>
      <trkpt lat="44.62434" lon="6.15454">
        <ele>1319.4</ele>
        <time>2022-09-11T11:06:20Z</time>
      </trkpt>
      <trkpt lat="44.62431" lon="6.15459">
        <ele>1319.4</ele>
        <time>2022-09-11T11:06:21Z</time>
      </trkpt>
      <trkpt lat="44.62428" lon="6.15465">
        <ele>1319.3</ele>
        <time>2022-09-11T11:06:22Z</time>
      </trkpt>
      <trkpt lat="44.62426" lon="6.15469">
        <ele>1319.3</ele>
        <time>2022-09-11T11:06:24Z</time>
      </trkpt>
      <trkpt lat="44.62424" lon="6.15474">
        <ele>1319.2</ele>
        <time>2022-09-11T11:06:25Z</time>
      </trkpt>
      <trkpt lat="44.6242" lon="6.15482">
        <ele>1319.2</ele>
        <time>2022-09-11T11:06:26Z</time>
      </trkpt>
      <trkpt lat="44.62414" lon="6.15492">
        <ele>1319.1</ele>
        <time>2022-09-11T11:06:28Z</time>
      </trkpt>
      <trkpt lat="44.62412" lon="6.15498">
        <ele>1319.1</ele>
        <time>2022-09-11T11:06:29Z</time>
      </trkpt>
      <trkpt lat="44.62409" lon="6.15503">
        <ele>1319.1</ele>
        <time>2022-09-11T11:06:30Z</time>
      </trkpt>
      <trkpt lat="44.62406" lon="6.15508">
        <ele>1319.1</ele>
        <time>2022-09-11T11:06:31Z</time>
      </trkpt>
      <trkpt lat="44.62404" lon="6.15513">
        <ele>1319.1</ele>
        <time>2022-09-11T11:06:32Z</time>
      </trkpt>
      <trkpt lat="44.62401" lon="6.15519">
        <ele>1319.2</ele>
        <time>2022-09-11T11:06:33Z</time>
      </trkpt>
      <trkpt lat="44.62398" lon="6.15525">
        <ele>1319.2</ele>
        <time>2022-09-11T11:06:34Z</time>
      </trkpt>
      <trkpt lat="44.62396" lon="6.1553">
        <ele>1319.3</ele>
        <time>2022-09-11T11:06:35Z</time>
      </trkpt>
      <trkpt lat="44.62393" lon="6.15536">
        <ele>1319.3</ele>
        <time>2022-09-11T11:06:36Z</time>
      </trkpt>
      <trkpt lat="44.6239" lon="6.15541">
        <ele>1319.4</ele>
        <time>2022-09-11T11:06:37Z</time>
      </trkpt>
      <trkpt lat="44.62388" lon="6.15546">
        <ele>1319.5</ele>
        <time>2022-09-11T11:06:38Z</time>
      </trkpt>
      <trkpt lat="44.62385" lon="6.15553">
        <ele>1319.7</ele>
        <time>2022-09-11T11:06:39Z</time>
      </trkpt>
      <trkpt lat="44.62383" lon="6.15558">
        <ele>1319.8</ele>
        <time>2022-09-11T11:06:40Z</time>
      </trkpt>
      <trkpt lat="44.6238" lon="6.15562">
        <ele>1319.9</ele>
        <time>2022-09-11T11:06:42Z</time>
      </trkpt>
      <trkpt lat="44.62376" lon="6.15568">
        <ele>1320</ele>
        <time>2022-09-11T11:06:43Z</time>
      </trkpt>
      <trkpt lat="44.62374" lon="6.15576">
        <ele>1320.2</ele>
        <time>2022-09-11T11:06:44Z</time>
      </trkpt>
      <trkpt lat="44.62372" lon="6.15582">
        <ele>1320.4</ele>
        <time>2022-09-11T11:06:45Z</time>
      </trkpt>
      <trkpt lat="44.62372" lon="6.15587">
        <ele>1320.5</ele>
        <time>2022-09-11T11:06:47Z</time>
      </trkpt>
      <trkpt lat="44.6237" lon="6.15593">
        <ele>1320.7</ele>
        <time>2022-09-11T11:06:48Z</time>
      </trkpt>
      <trkpt lat="44.62368" lon="6.156">
        <ele>1320.9</ele>
        <time>2022-09-11T11:06:49Z</time>
      </trkpt>
      <trkpt lat="44.62368" lon="6.15605">
        <ele>1321.1</ele>
        <time>2022-09-11T11:06:50Z</time>
      </trkpt>
      <trkpt lat="44.62366" lon="6.15615">
        <ele>1321.4</ele>
        <time>2022-09-11T11:06:52Z</time>
      </trkpt>
      <trkpt lat="44.62365" lon="6.15619">
        <ele>1321.6</ele>
        <time>2022-09-11T11:06:53Z</time>
      </trkpt>
      <trkpt lat="44.62365" lon="6.15626">
        <ele>1321.9</ele>
        <time>2022-09-11T11:06:55Z</time>
      </trkpt>
      <trkpt lat="44.62364" lon="6.15634">
        <ele>1322.1</ele>
        <time>2022-09-11T11:06:57Z</time>
      </trkpt>
      <trkpt lat="44.62364" lon="6.15639">
        <ele>1322.3</ele>
        <time>2022-09-11T11:06:58Z</time>
      </trkpt>
      <trkpt lat="44.62363" lon="6.15647">
        <ele>1322.6</ele>
        <time>2022-09-11T11:06:59Z</time>
      </trkpt>
      <trkpt lat="44.62363" lon="6.15653">
        <ele>1322.9</ele>
        <time>2022-09-11T11:07:01Z</time>
      </trkpt>
      <trkpt lat="44.62363" lon="6.15658">
        <ele>1323.1</ele>
        <time>2022-09-11T11:07:02Z</time>
      </trkpt>
      <trkpt lat="44.62362" lon="6.15662">
        <ele>1323.3</ele>
        <time>2022-09-11T11:07:03Z</time>
      </trkpt>
      <trkpt lat="44.62362" lon="6.15667">
        <ele>1323.4</ele>
        <time>2022-09-11T11:07:04Z</time>
      </trkpt>
      <trkpt lat="44.62362" lon="6.1567">
        <ele>1323.6</ele>
        <time>2022-09-11T11:07:05Z</time>
      </trkpt>
      <trkpt lat="44.62361" lon="6.15677">
        <ele>1323.8</ele>
        <time>2022-09-11T11:07:06Z</time>
      </trkpt>
      <trkpt lat="44.62361" lon="6.15679">
        <ele>1323.9</ele>
        <time>2022-09-11T11:07:07Z</time>
      </trkpt>
      <trkpt lat="44.62361" lon="6.15684">
        <ele>1324.1</ele>
        <time>2022-09-11T11:07:08Z</time>
      </trkpt>
      <trkpt lat="44.6236" lon="6.15688">
        <ele>1324.3</ele>
        <time>2022-09-11T11:07:09Z</time>
      </trkpt>
      <trkpt lat="44.6236" lon="6.15693">
        <ele>1324.5</ele>
        <time>2022-09-11T11:07:10Z</time>
      </trkpt>
      <trkpt lat="44.62358" lon="6.15699">
        <ele>1324.7</ele>
        <time>2022-09-11T11:07:11Z</time>
      </trkpt>
      <trkpt lat="44.62357" lon="6.15704">
        <ele>1324.9</ele>
        <time>2022-09-11T11:07:12Z</time>
      </trkpt>
      <trkpt lat="44.62356" lon="6.15708">
        <ele>1325.1</ele>
        <time>2022-09-11T11:07:14Z</time>
      </trkpt>
      <trkpt lat="44.62355" lon="6.15713">
        <ele>1325.3</ele>
        <time>2022-09-11T11:07:15Z</time>
      </trkpt>
      <trkpt lat="44.62354" lon="6.15718">
        <ele>1325.5</ele>
        <time>2022-09-11T11:07:16Z</time>
      </trkpt>
      <trkpt lat="44.62351" lon="6.15723">
        <ele>1325.7</ele>
        <time>2022-09-11T11:07:17Z</time>
      </trkpt>
      <trkpt lat="44.62348" lon="6.15731">
        <ele>1326</ele>
        <time>2022-09-11T11:07:19Z</time>
      </trkpt>
      <trkpt lat="44.62347" lon="6.15736">
        <ele>1326.2</ele>
        <time>2022-09-11T11:07:21Z</time>
      </trkpt>
      <trkpt lat="44.62345" lon="6.15742">
        <ele>1326.4</ele>
        <time>2022-09-11T11:07:22Z</time>
      </trkpt>
      <trkpt lat="44.62344" lon="6.15747">
        <ele>1326.5</ele>
        <time>2022-09-11T11:07:23Z</time>
      </trkpt>
      <trkpt lat="44.62342" lon="6.15753">
        <ele>1326.7</ele>
        <time>2022-09-11T11:07:24Z</time>
      </trkpt>
      <trkpt lat="44.6234" lon="6.15758">
        <ele>1326.9</ele>
        <time>2022-09-11T11:07:26Z</time>
      </trkpt>
      <trkpt lat="44.62337" lon="6.15767">
        <ele>1327.2</ele>
        <time>2022-09-11T11:07:27Z</time>
      </trkpt>
      <trkpt lat="44.62334" lon="6.15775">
        <ele>1327.4</ele>
        <time>2022-09-11T11:07:29Z</time>
      </trkpt>
      <trkpt lat="44.62332" lon="6.1578">
        <ele>1327.6</ele>
        <time>2022-09-11T11:07:31Z</time>
      </trkpt>
      <trkpt lat="44.62331" lon="6.15784">
        <ele>1327.7</ele>
        <time>2022-09-11T11:07:32Z</time>
      </trkpt>
      <trkpt lat="44.62331" lon="6.15789">
        <ele>1327.8</ele>
        <time>2022-09-11T11:07:33Z</time>
      </trkpt>
      <trkpt lat="44.62329" lon="6.15798">
        <ele>1328.1</ele>
        <time>2022-09-11T11:07:34Z</time>
      </trkpt>
      <trkpt lat="44.62328" lon="6.15803">
        <ele>1328.3</ele>
        <time>2022-09-11T11:07:35Z</time>
      </trkpt>
      <trkpt lat="44.62328" lon="6.15809">
        <ele>1328.4</ele>
        <time>2022-09-11T11:07:37Z</time>
      </trkpt>
      <trkpt lat="44.62327" lon="6.15814">
        <ele>1328.6</ele>
        <time>2022-09-11T11:07:38Z</time>
      </trkpt>
      <trkpt lat="44.62327" lon="6.15819">
        <ele>1328.8</ele>
        <time>2022-09-11T11:07:39Z</time>
      </trkpt>
      <trkpt lat="44.62327" lon="6.15825">
        <ele>1328.9</ele>
        <time>2022-09-11T11:07:40Z</time>
      </trkpt>
      <trkpt lat="44.62327" lon="6.1583">
        <ele>1329.1</ele>
        <time>2022-09-11T11:07:41Z</time>
      </trkpt>
      <trkpt lat="44.62328" lon="6.15835">
        <ele>1329.3</ele>
        <time>2022-09-11T11:07:42Z</time>
      </trkpt>
      <trkpt lat="44.62328" lon="6.15838">
        <ele>1329.4</ele>
        <time>2022-09-11T11:07:43Z</time>
      </trkpt>
      <trkpt lat="44.62329" lon="6.15843">
        <ele>1329.6</ele>
        <time>2022-09-11T11:07:44Z</time>
      </trkpt>
      <trkpt lat="44.6233" lon="6.15848">
        <ele>1329.7</ele>
        <time>2022-09-11T11:07:45Z</time>
      </trkpt>
      <trkpt lat="44.62331" lon="6.15852">
        <ele>1329.8</ele>
        <time>2022-09-11T11:07:46Z</time>
      </trkpt>
      <trkpt lat="44.62333" lon="6.15856">
        <ele>1330</ele>
        <time>2022-09-11T11:07:47Z</time>
      </trkpt>
      <trkpt lat="44.62334" lon="6.1586">
        <ele>1330.1</ele>
        <time>2022-09-11T11:07:48Z</time>
      </trkpt>
      <trkpt lat="44.62336" lon="6.15867">
        <ele>1330.3</ele>
        <time>2022-09-11T11:07:49Z</time>
      </trkpt>
      <trkpt lat="44.62337" lon="6.15872">
        <ele>1330.5</ele>
        <time>2022-09-11T11:07:51Z</time>
      </trkpt>
      <trkpt lat="44.62338" lon="6.15876">
        <ele>1330.6</ele>
        <time>2022-09-11T11:07:52Z</time>
      </trkpt>
      <trkpt lat="44.62339" lon="6.15882">
        <ele>1330.9</ele>
        <time>2022-09-11T11:07:53Z</time>
      </trkpt>
      <trkpt lat="44.62341" lon="6.15889">
        <ele>1331.1</ele>
        <time>2022-09-11T11:07:54Z</time>
      </trkpt>
      <trkpt lat="44.62342" lon="6.15894">
        <ele>1331.3</ele>
        <time>2022-09-11T11:07:55Z</time>
      </trkpt>
      <trkpt lat="44.62344" lon="6.15899">
        <ele>1331.5</ele>
        <time>2022-09-11T11:07:56Z</time>
      </trkpt>
      <trkpt lat="44.62345" lon="6.15905">
        <ele>1331.7</ele>
        <time>2022-09-11T11:07:58Z</time>
      </trkpt>
      <trkpt lat="44.62346" lon="6.1591">
        <ele>1331.9</ele>
        <time>2022-09-11T11:07:59Z</time>
      </trkpt>
      <trkpt lat="44.62347" lon="6.15916">
        <ele>1332.2</ele>
        <time>2022-09-11T11:08:00Z</time>
      </trkpt>
      <trkpt lat="44.62348" lon="6.15921">
        <ele>1332.3</ele>
        <time>2022-09-11T11:08:02Z</time>
      </trkpt>
      <trkpt lat="44.62349" lon="6.15925">
        <ele>1332.5</ele>
        <time>2022-09-11T11:08:03Z</time>
      </trkpt>
      <trkpt lat="44.62349" lon="6.15929">
        <ele>1332.6</ele>
        <time>2022-09-11T11:08:04Z</time>
      </trkpt>
      <trkpt lat="44.6235" lon="6.15936">
        <ele>1332.8</ele>
        <time>2022-09-11T11:08:05Z</time>
      </trkpt>
      <trkpt lat="44.62352" lon="6.15947">
        <ele>1333.2</ele>
        <time>2022-09-11T11:08:07Z</time>
      </trkpt>
      <trkpt lat="44.62352" lon="6.15951">
        <ele>1333.3</ele>
        <time>2022-09-11T11:08:09Z</time>
      </trkpt>
      <trkpt lat="44.62353" lon="6.15956">
        <ele>1333.5</ele>
        <time>2022-09-11T11:08:10Z</time>
      </trkpt>
      <trkpt lat="44.62353" lon="6.15959">
        <ele>1333.6</ele>
        <time>2022-09-11T11:08:11Z</time>
      </trkpt>
      <trkpt lat="44.62355" lon="6.15967">
        <ele>1333.9</ele>
        <time>2022-09-11T11:08:12Z</time>
      </trkpt>
      <trkpt lat="44.62356" lon="6.15974">
        <ele>1334.1</ele>
        <time>2022-09-11T11:08:14Z</time>
      </trkpt>
      <trkpt lat="44.62357" lon="6.1598">
        <ele>1334.3</ele>
        <time>2022-09-11T11:08:15Z</time>
      </trkpt>
      <trkpt lat="44.62358" lon="6.15984">
        <ele>1334.5</ele>
        <time>2022-09-11T11:08:17Z</time>
      </trkpt>
      <trkpt lat="44.62359" lon="6.15988">
        <ele>1334.6</ele>
        <time>2022-09-11T11:08:18Z</time>
      </trkpt>
      <trkpt lat="44.6236" lon="6.15996">
        <ele>1334.9</ele>
        <time>2022-09-11T11:08:19Z</time>
      </trkpt>
      <trkpt lat="44.62361" lon="6.16001">
        <ele>1335.1</ele>
        <time>2022-09-11T11:08:21Z</time>
      </trkpt>
      <trkpt lat="44.62362" lon="6.16005">
        <ele>1335.3</ele>
        <time>2022-09-11T11:08:22Z</time>
      </trkpt>
      <trkpt lat="44.62364" lon="6.16009">
        <ele>1335.4</ele>
        <time>2022-09-11T11:08:23Z</time>
      </trkpt>
      <trkpt lat="44.62364" lon="6.16013">
        <ele>1335.6</ele>
        <time>2022-09-11T11:08:24Z</time>
      </trkpt>
      <trkpt lat="44.62366" lon="6.16021">
        <ele>1335.9</ele>
        <time>2022-09-11T11:08:25Z</time>
      </trkpt>
      <trkpt lat="44.62368" lon="6.16025">
        <ele>1336.1</ele>
        <time>2022-09-11T11:08:27Z</time>
      </trkpt>
      <trkpt lat="44.62369" lon="6.16029">
        <ele>1336.2</ele>
        <time>2022-09-11T11:08:28Z</time>
      </trkpt>
      <trkpt lat="44.62371" lon="6.16033">
        <ele>1336.4</ele>
        <time>2022-09-11T11:08:29Z</time>
      </trkpt>
      <trkpt lat="44.62373" lon="6.16036">
        <ele>1336.6</ele>
        <time>2022-09-11T11:08:30Z</time>
      </trkpt>
      <trkpt lat="44.62374" lon="6.16041">
        <ele>1336.8</ele>
        <time>2022-09-11T11:08:31Z</time>
      </trkpt>
      <trkpt lat="44.62376" lon="6.16044">
        <ele>1336.9</ele>
        <time>2022-09-11T11:08:32Z</time>
      </trkpt>
      <trkpt lat="44.62379" lon="6.16052">
        <ele>1337.3</ele>
        <time>2022-09-11T11:08:33Z</time>
      </trkpt>
      <trkpt lat="44.62382" lon="6.16059">
        <ele>1337.6</ele>
        <time>2022-09-11T11:08:35Z</time>
      </trkpt>
      <trkpt lat="44.62384" lon="6.16063">
        <ele>1337.8</ele>
        <time>2022-09-11T11:08:37Z</time>
      </trkpt>
      <trkpt lat="44.62386" lon="6.16066">
        <ele>1337.9</ele>
        <time>2022-09-11T11:08:38Z</time>
      </trkpt>
      <trkpt lat="44.62387" lon="6.1607">
        <ele>1338.1</ele>
        <time>2022-09-11T11:08:39Z</time>
      </trkpt>
      <trkpt lat="44.62388" lon="6.16075">
        <ele>1338.3</ele>
        <time>2022-09-11T11:08:40Z</time>
      </trkpt>
      <trkpt lat="44.62389" lon="6.16079">
        <ele>1338.5</ele>
        <time>2022-09-11T11:08:41Z</time>
      </trkpt>
      <trkpt lat="44.6239" lon="6.16085">
        <ele>1338.7</ele>
        <time>2022-09-11T11:08:42Z</time>
      </trkpt>
      <trkpt lat="44.62391" lon="6.16087">
        <ele>1338.8</ele>
        <time>2022-09-11T11:08:43Z</time>
      </trkpt>
      <trkpt lat="44.62391" lon="6.16091">
        <ele>1339</ele>
        <time>2022-09-11T11:08:44Z</time>
      </trkpt>
      <trkpt lat="44.62391" lon="6.16095">
        <ele>1339.2</ele>
        <time>2022-09-11T11:08:45Z</time>
      </trkpt>
      <trkpt lat="44.6239" lon="6.16101">
        <ele>1339.5</ele>
        <time>2022-09-11T11:08:46Z</time>
      </trkpt>
      <trkpt lat="44.62389" lon="6.16104">
        <ele>1339.6</ele>
        <time>2022-09-11T11:08:47Z</time>
      </trkpt>
      <trkpt lat="44.62386" lon="6.16109">
        <ele>1339.9</ele>
        <time>2022-09-11T11:08:48Z</time>
      </trkpt>
      <trkpt lat="44.62384" lon="6.16113">
        <ele>1340.1</ele>
        <time>2022-09-11T11:08:50Z</time>
      </trkpt>
      <trkpt lat="44.62381" lon="6.16117">
        <ele>1340.4</ele>
        <time>2022-09-11T11:08:51Z</time>
      </trkpt>
      <trkpt lat="44.62377" lon="6.1612">
        <ele>1340.6</ele>
        <time>2022-09-11T11:08:52Z</time>
      </trkpt>
      <trkpt lat="44.62373" lon="6.16122">
        <ele>1340.9</ele>
        <time>2022-09-11T11:08:53Z</time>
      </trkpt>
      <trkpt lat="44.6237" lon="6.16122">
        <ele>1341</ele>
        <time>2022-09-11T11:08:55Z</time>
      </trkpt>
      <trkpt lat="44.62366" lon="6.16123">
        <ele>1341.1</ele>
        <time>2022-09-11T11:08:56Z</time>
      </trkpt>
      <trkpt lat="44.62362" lon="6.16123">
        <ele>1341.2</ele>
        <time>2022-09-11T11:08:57Z</time>
      </trkpt>
      <trkpt lat="44.62358" lon="6.16123">
        <ele>1341.3</ele>
        <time>2022-09-11T11:08:58Z</time>
      </trkpt>
      <trkpt lat="44.62353" lon="6.16122">
        <ele>1341.3</ele>
        <time>2022-09-11T11:08:59Z</time>
      </trkpt>
      <trkpt lat="44.62349" lon="6.16121">
        <ele>1341.3</ele>
        <time>2022-09-11T11:09:00Z</time>
      </trkpt>
      <trkpt lat="44.62343" lon="6.1612">
        <ele>1341.3</ele>
        <time>2022-09-11T11:09:02Z</time>
      </trkpt>
      <trkpt lat="44.62333" lon="6.16118">
        <ele>1341.2</ele>
        <time>2022-09-11T11:09:04Z</time>
      </trkpt>
      <trkpt lat="44.62328" lon="6.16117">
        <ele>1341.1</ele>
        <time>2022-09-11T11:09:05Z</time>
      </trkpt>
      <trkpt lat="44.62323" lon="6.16116">
        <ele>1341</ele>
        <time>2022-09-11T11:09:06Z</time>
      </trkpt>
      <trkpt lat="44.62318" lon="6.16115">
        <ele>1340.9</ele>
        <time>2022-09-11T11:09:07Z</time>
      </trkpt>
      <trkpt lat="44.62314" lon="6.16115">
        <ele>1340.9</ele>
        <time>2022-09-11T11:09:08Z</time>
      </trkpt>
      <trkpt lat="44.6231" lon="6.16114">
        <ele>1340.8</ele>
        <time>2022-09-11T11:09:09Z</time>
      </trkpt>
      <trkpt lat="44.62305" lon="6.16115">
        <ele>1340.7</ele>
        <time>2022-09-11T11:09:10Z</time>
      </trkpt>
      <trkpt lat="44.62301" lon="6.16115">
        <ele>1340.6</ele>
        <time>2022-09-11T11:09:11Z</time>
      </trkpt>
      <trkpt lat="44.62297" lon="6.16114">
        <ele>1340.5</ele>
        <time>2022-09-11T11:09:12Z</time>
      </trkpt>
      <trkpt lat="44.62293" lon="6.16115">
        <ele>1340.5</ele>
        <time>2022-09-11T11:09:13Z</time>
      </trkpt>
      <trkpt lat="44.62288" lon="6.16116">
        <ele>1340.4</ele>
        <time>2022-09-11T11:09:14Z</time>
      </trkpt>
      <trkpt lat="44.62284" lon="6.16116">
        <ele>1340.3</ele>
        <time>2022-09-11T11:09:15Z</time>
      </trkpt>
      <trkpt lat="44.62279" lon="6.16116">
        <ele>1340.2</ele>
        <time>2022-09-11T11:09:16Z</time>
      </trkpt>
      <trkpt lat="44.62274" lon="6.16116">
        <ele>1340.1</ele>
        <time>2022-09-11T11:09:17Z</time>
      </trkpt>
      <trkpt lat="44.62269" lon="6.16117">
        <ele>1340</ele>
        <time>2022-09-11T11:09:18Z</time>
      </trkpt>
      <trkpt lat="44.62264" lon="6.16118">
        <ele>1339.9</ele>
        <time>2022-09-11T11:09:19Z</time>
      </trkpt>
      <trkpt lat="44.6226" lon="6.16119">
        <ele>1339.8</ele>
        <time>2022-09-11T11:09:20Z</time>
      </trkpt>
      <trkpt lat="44.62255" lon="6.16122">
        <ele>1339.6</ele>
        <time>2022-09-11T11:09:21Z</time>
      </trkpt>
      <trkpt lat="44.6225" lon="6.16125">
        <ele>1339.5</ele>
        <time>2022-09-11T11:09:22Z</time>
      </trkpt>
      <trkpt lat="44.62246" lon="6.16128">
        <ele>1339.4</ele>
        <time>2022-09-11T11:09:23Z</time>
      </trkpt>
      <trkpt lat="44.62242" lon="6.16134">
        <ele>1339.3</ele>
        <time>2022-09-11T11:09:24Z</time>
      </trkpt>
      <trkpt lat="44.62238" lon="6.16141">
        <ele>1339.1</ele>
        <time>2022-09-11T11:09:25Z</time>
      </trkpt>
      <trkpt lat="44.62236" lon="6.16149">
        <ele>1339</ele>
        <time>2022-09-11T11:09:26Z</time>
      </trkpt>
      <trkpt lat="44.62235" lon="6.16158">
        <ele>1339</ele>
        <time>2022-09-11T11:09:27Z</time>
      </trkpt>
      <trkpt lat="44.62235" lon="6.16166">
        <ele>1339</ele>
        <time>2022-09-11T11:09:28Z</time>
      </trkpt>
      <trkpt lat="44.62235" lon="6.16173">
        <ele>1339.1</ele>
        <time>2022-09-11T11:09:29Z</time>
      </trkpt>
      <trkpt lat="44.62236" lon="6.1618">
        <ele>1339.2</ele>
        <time>2022-09-11T11:09:30Z</time>
      </trkpt>
      <trkpt lat="44.62236" lon="6.16187">
        <ele>1339.3</ele>
        <time>2022-09-11T11:09:31Z</time>
      </trkpt>
      <trkpt lat="44.62237" lon="6.16194">
        <ele>1339.4</ele>
        <time>2022-09-11T11:09:32Z</time>
      </trkpt>
      <trkpt lat="44.62237" lon="6.162">
        <ele>1339.5</ele>
        <time>2022-09-11T11:09:33Z</time>
      </trkpt>
      <trkpt lat="44.62238" lon="6.16205">
        <ele>1339.6</ele>
        <time>2022-09-11T11:09:34Z</time>
      </trkpt>
      <trkpt lat="44.62239" lon="6.16211">
        <ele>1339.8</ele>
        <time>2022-09-11T11:09:35Z</time>
      </trkpt>
      <trkpt lat="44.6224" lon="6.16216">
        <ele>1339.9</ele>
        <time>2022-09-11T11:09:36Z</time>
      </trkpt>
      <trkpt lat="44.62241" lon="6.16221">
        <ele>1340.1</ele>
        <time>2022-09-11T11:09:37Z</time>
      </trkpt>
      <trkpt lat="44.62242" lon="6.16227">
        <ele>1340.2</ele>
        <time>2022-09-11T11:09:38Z</time>
      </trkpt>
      <trkpt lat="44.62242" lon="6.16231">
        <ele>1340.3</ele>
        <time>2022-09-11T11:09:39Z</time>
      </trkpt>
      <trkpt lat="44.62243" lon="6.1624">
        <ele>1340.5</ele>
        <time>2022-09-11T11:09:40Z</time>
      </trkpt>
      <trkpt lat="44.62245" lon="6.16248">
        <ele>1340.7</ele>
        <time>2022-09-11T11:09:41Z</time>
      </trkpt>
      <trkpt lat="44.62246" lon="6.16254">
        <ele>1340.9</ele>
        <time>2022-09-11T11:09:43Z</time>
      </trkpt>
      <trkpt lat="44.62248" lon="6.16261">
        <ele>1341.1</ele>
        <time>2022-09-11T11:09:44Z</time>
      </trkpt>
      <trkpt lat="44.6225" lon="6.16267">
        <ele>1341.2</ele>
        <time>2022-09-11T11:09:45Z</time>
      </trkpt>
      <trkpt lat="44.62252" lon="6.16273">
        <ele>1341.3</ele>
        <time>2022-09-11T11:09:46Z</time>
      </trkpt>
      <trkpt lat="44.62253" lon="6.16279">
        <ele>1341.5</ele>
        <time>2022-09-11T11:09:47Z</time>
      </trkpt>
      <trkpt lat="44.62255" lon="6.16287">
        <ele>1341.6</ele>
        <time>2022-09-11T11:09:49Z</time>
      </trkpt>
      <trkpt lat="44.62256" lon="6.16293">
        <ele>1341.7</ele>
        <time>2022-09-11T11:09:50Z</time>
      </trkpt>
      <trkpt lat="44.62257" lon="6.16298">
        <ele>1341.8</ele>
        <time>2022-09-11T11:09:51Z</time>
      </trkpt>
      <trkpt lat="44.62257" lon="6.16307">
        <ele>1341.8</ele>
        <time>2022-09-11T11:09:52Z</time>
      </trkpt>
      <trkpt lat="44.62258" lon="6.16313">
        <ele>1341.9</ele>
        <time>2022-09-11T11:09:53Z</time>
      </trkpt>
      <trkpt lat="44.62258" lon="6.16326">
        <ele>1341.9</ele>
        <time>2022-09-11T11:09:55Z</time>
      </trkpt>
      <trkpt lat="44.62259" lon="6.16332">
        <ele>1342</ele>
        <time>2022-09-11T11:09:56Z</time>
      </trkpt>
      <trkpt lat="44.6226" lon="6.16339">
        <ele>1342</ele>
        <time>2022-09-11T11:09:57Z</time>
      </trkpt>
      <trkpt lat="44.62261" lon="6.16345">
        <ele>1342</ele>
        <time>2022-09-11T11:09:58Z</time>
      </trkpt>
      <trkpt lat="44.6226" lon="6.16352">
        <ele>1342</ele>
        <time>2022-09-11T11:09:59Z</time>
      </trkpt>
      <trkpt lat="44.6226" lon="6.16358">
        <ele>1342</ele>
        <time>2022-09-11T11:10:00Z</time>
      </trkpt>
      <trkpt lat="44.62261" lon="6.16364">
        <ele>1342</ele>
        <time>2022-09-11T11:10:01Z</time>
      </trkpt>
      <trkpt lat="44.62262" lon="6.1637">
        <ele>1341.9</ele>
        <time>2022-09-11T11:10:02Z</time>
      </trkpt>
      <trkpt lat="44.62264" lon="6.16378">
        <ele>1341.9</ele>
        <time>2022-09-11T11:10:03Z</time>
      </trkpt>
      <trkpt lat="44.62266" lon="6.16385">
        <ele>1341.8</ele>
        <time>2022-09-11T11:10:05Z</time>
      </trkpt>
      <trkpt lat="44.62268" lon="6.16392">
        <ele>1341.8</ele>
        <time>2022-09-11T11:10:06Z</time>
      </trkpt>
      <trkpt lat="44.62269" lon="6.16399">
        <ele>1341.7</ele>
        <time>2022-09-11T11:10:07Z</time>
      </trkpt>
      <trkpt lat="44.6227" lon="6.16407">
        <ele>1341.6</ele>
        <time>2022-09-11T11:10:08Z</time>
      </trkpt>
      <trkpt lat="44.62271" lon="6.16415">
        <ele>1341.6</ele>
        <time>2022-09-11T11:10:09Z</time>
      </trkpt>
      <trkpt lat="44.62273" lon="6.16423">
        <ele>1341.5</ele>
        <time>2022-09-11T11:10:10Z</time>
      </trkpt>
      <trkpt lat="44.62274" lon="6.16431">
        <ele>1341.5</ele>
        <time>2022-09-11T11:10:11Z</time>
      </trkpt>
      <trkpt lat="44.62275" lon="6.16439">
        <ele>1341.5</ele>
        <time>2022-09-11T11:10:12Z</time>
      </trkpt>
      <trkpt lat="44.62277" lon="6.16447">
        <ele>1341.5</ele>
        <time>2022-09-11T11:10:13Z</time>
      </trkpt>
      <trkpt lat="44.62278" lon="6.16456">
        <ele>1341.5</ele>
        <time>2022-09-11T11:10:14Z</time>
      </trkpt>
      <trkpt lat="44.62279" lon="6.16465">
        <ele>1341.5</ele>
        <time>2022-09-11T11:10:15Z</time>
      </trkpt>
      <trkpt lat="44.6228" lon="6.16473">
        <ele>1341.5</ele>
        <time>2022-09-11T11:10:16Z</time>
      </trkpt>
      <trkpt lat="44.62281" lon="6.16481">
        <ele>1341.5</ele>
        <time>2022-09-11T11:10:17Z</time>
      </trkpt>
      <trkpt lat="44.62283" lon="6.1649">
        <ele>1341.6</ele>
        <time>2022-09-11T11:10:18Z</time>
      </trkpt>
      <trkpt lat="44.62284" lon="6.16498">
        <ele>1341.6</ele>
        <time>2022-09-11T11:10:19Z</time>
      </trkpt>
      <trkpt lat="44.62286" lon="6.16506">
        <ele>1341.7</ele>
        <time>2022-09-11T11:10:20Z</time>
      </trkpt>
      <trkpt lat="44.62287" lon="6.16514">
        <ele>1341.7</ele>
        <time>2022-09-11T11:10:21Z</time>
      </trkpt>
      <trkpt lat="44.62288" lon="6.16522">
        <ele>1341.8</ele>
        <time>2022-09-11T11:10:22Z</time>
      </trkpt>
      <trkpt lat="44.62289" lon="6.1653">
        <ele>1341.8</ele>
        <time>2022-09-11T11:10:23Z</time>
      </trkpt>
      <trkpt lat="44.6229" lon="6.16536">
        <ele>1341.9</ele>
        <time>2022-09-11T11:10:24Z</time>
      </trkpt>
      <trkpt lat="44.62291" lon="6.16544">
        <ele>1341.9</ele>
        <time>2022-09-11T11:10:25Z</time>
      </trkpt>
      <trkpt lat="44.62292" lon="6.16551">
        <ele>1342</ele>
        <time>2022-09-11T11:10:26Z</time>
      </trkpt>
      <trkpt lat="44.62293" lon="6.16559">
        <ele>1342.1</ele>
        <time>2022-09-11T11:10:27Z</time>
      </trkpt>
      <trkpt lat="44.62295" lon="6.16566">
        <ele>1342.1</ele>
        <time>2022-09-11T11:10:28Z</time>
      </trkpt>
      <trkpt lat="44.62296" lon="6.16573">
        <ele>1342.2</ele>
        <time>2022-09-11T11:10:29Z</time>
      </trkpt>
      <trkpt lat="44.62297" lon="6.1658">
        <ele>1342.3</ele>
        <time>2022-09-11T11:10:30Z</time>
      </trkpt>
      <trkpt lat="44.62298" lon="6.16588">
        <ele>1342.3</ele>
        <time>2022-09-11T11:10:31Z</time>
      </trkpt>
      <trkpt lat="44.623" lon="6.16595">
        <ele>1342.4</ele>
        <time>2022-09-11T11:10:32Z</time>
      </trkpt>
      <trkpt lat="44.62301" lon="6.16603">
        <ele>1342.4</ele>
        <time>2022-09-11T11:10:33Z</time>
      </trkpt>
      <trkpt lat="44.62301" lon="6.16611">
        <ele>1342.4</ele>
        <time>2022-09-11T11:10:34Z</time>
      </trkpt>
      <trkpt lat="44.62302" lon="6.16618">
        <ele>1342.4</ele>
        <time>2022-09-11T11:10:35Z</time>
      </trkpt>
      <trkpt lat="44.62304" lon="6.16625">
        <ele>1342.4</ele>
        <time>2022-09-11T11:10:36Z</time>
      </trkpt>
      <trkpt lat="44.62305" lon="6.16632">
        <ele>1342.4</ele>
        <time>2022-09-11T11:10:37Z</time>
      </trkpt>
      <trkpt lat="44.62306" lon="6.1664">
        <ele>1342.4</ele>
        <time>2022-09-11T11:10:38Z</time>
      </trkpt>
      <trkpt lat="44.62307" lon="6.16647">
        <ele>1342.4</ele>
        <time>2022-09-11T11:10:39Z</time>
      </trkpt>
      <trkpt lat="44.62308" lon="6.16655">
        <ele>1342.4</ele>
        <time>2022-09-11T11:10:40Z</time>
      </trkpt>
      <trkpt lat="44.6231" lon="6.16662">
        <ele>1342.4</ele>
        <time>2022-09-11T11:10:41Z</time>
      </trkpt>
      <trkpt lat="44.62311" lon="6.16669">
        <ele>1342.4</ele>
        <time>2022-09-11T11:10:42Z</time>
      </trkpt>
      <trkpt lat="44.62311" lon="6.16678">
        <ele>1342.3</ele>
        <time>2022-09-11T11:10:43Z</time>
      </trkpt>
      <trkpt lat="44.62312" lon="6.16687">
        <ele>1342.2</ele>
        <time>2022-09-11T11:10:44Z</time>
      </trkpt>
      <trkpt lat="44.62314" lon="6.16696">
        <ele>1342.1</ele>
        <time>2022-09-11T11:10:45Z</time>
      </trkpt>
      <trkpt lat="44.62315" lon="6.16704">
        <ele>1342</ele>
        <time>2022-09-11T11:10:46Z</time>
      </trkpt>
      <trkpt lat="44.62315" lon="6.16713">
        <ele>1341.9</ele>
        <time>2022-09-11T11:10:47Z</time>
      </trkpt>
      <trkpt lat="44.62316" lon="6.16721">
        <ele>1341.8</ele>
        <time>2022-09-11T11:10:48Z</time>
      </trkpt>
      <trkpt lat="44.62316" lon="6.1673">
        <ele>1341.6</ele>
        <time>2022-09-11T11:10:49Z</time>
      </trkpt>
      <trkpt lat="44.62315" lon="6.16739">
        <ele>1341.5</ele>
        <time>2022-09-11T11:10:50Z</time>
      </trkpt>
      <trkpt lat="44.62313" lon="6.16748">
        <ele>1341.3</ele>
        <time>2022-09-11T11:10:51Z</time>
      </trkpt>
      <trkpt lat="44.62311" lon="6.16756">
        <ele>1341.1</ele>
        <time>2022-09-11T11:10:52Z</time>
      </trkpt>
      <trkpt lat="44.62309" lon="6.16765">
        <ele>1340.9</ele>
        <time>2022-09-11T11:10:53Z</time>
      </trkpt>
      <trkpt lat="44.62306" lon="6.16774">
        <ele>1340.6</ele>
        <time>2022-09-11T11:10:54Z</time>
      </trkpt>
      <trkpt lat="44.62303" lon="6.16783">
        <ele>1340.4</ele>
        <time>2022-09-11T11:10:55Z</time>
      </trkpt>
      <trkpt lat="44.623" lon="6.16792">
        <ele>1340</ele>
        <time>2022-09-11T11:10:56Z</time>
      </trkpt>
      <trkpt lat="44.62296" lon="6.16801">
        <ele>1339.7</ele>
        <time>2022-09-11T11:10:57Z</time>
      </trkpt>
      <trkpt lat="44.62292" lon="6.1681">
        <ele>1339.4</ele>
        <time>2022-09-11T11:10:58Z</time>
      </trkpt>
      <trkpt lat="44.62288" lon="6.16819">
        <ele>1339</ele>
        <time>2022-09-11T11:10:59Z</time>
      </trkpt>
      <trkpt lat="44.62284" lon="6.16829">
        <ele>1338.5</ele>
        <time>2022-09-11T11:11:00Z</time>
      </trkpt>
      <trkpt lat="44.62281" lon="6.16839">
        <ele>1338</ele>
        <time>2022-09-11T11:11:01Z</time>
      </trkpt>
      <trkpt lat="44.62277" lon="6.16849">
        <ele>1337.5</ele>
        <time>2022-09-11T11:11:02Z</time>
      </trkpt>
      <trkpt lat="44.62272" lon="6.16859">
        <ele>1337</ele>
        <time>2022-09-11T11:11:03Z</time>
      </trkpt>
      <trkpt lat="44.62268" lon="6.1687">
        <ele>1336.6</ele>
        <time>2022-09-11T11:11:04Z</time>
      </trkpt>
      <trkpt lat="44.62264" lon="6.16881">
        <ele>1336.1</ele>
        <time>2022-09-11T11:11:05Z</time>
      </trkpt>
      <trkpt lat="44.62259" lon="6.16892">
        <ele>1335.6</ele>
        <time>2022-09-11T11:11:06Z</time>
      </trkpt>
      <trkpt lat="44.62254" lon="6.16902">
        <ele>1335.1</ele>
        <time>2022-09-11T11:11:07Z</time>
      </trkpt>
      <trkpt lat="44.62248" lon="6.16913">
        <ele>1334.5</ele>
        <time>2022-09-11T11:11:08Z</time>
      </trkpt>
      <trkpt lat="44.62242" lon="6.16923">
        <ele>1334</ele>
        <time>2022-09-11T11:11:09Z</time>
      </trkpt>
      <trkpt lat="44.62235" lon="6.16933">
        <ele>1333.5</ele>
        <time>2022-09-11T11:11:10Z</time>
      </trkpt>
      <trkpt lat="44.62228" lon="6.16943">
        <ele>1333.1</ele>
        <time>2022-09-11T11:11:11Z</time>
      </trkpt>
      <trkpt lat="44.6222" lon="6.16953">
        <ele>1332.7</ele>
        <time>2022-09-11T11:11:12Z</time>
      </trkpt>
      <trkpt lat="44.62213" lon="6.16962">
        <ele>1332.5</ele>
        <time>2022-09-11T11:11:13Z</time>
      </trkpt>
      <trkpt lat="44.62206" lon="6.1697">
        <ele>1332.3</ele>
        <time>2022-09-11T11:11:14Z</time>
      </trkpt>
      <trkpt lat="44.62199" lon="6.16978">
        <ele>1332.3</ele>
        <time>2022-09-11T11:11:15Z</time>
      </trkpt>
      <trkpt lat="44.62193" lon="6.16987">
        <ele>1332.2</ele>
        <time>2022-09-11T11:11:16Z</time>
      </trkpt>
      <trkpt lat="44.62186" lon="6.16994">
        <ele>1332.1</ele>
        <time>2022-09-11T11:11:17Z</time>
      </trkpt>
      <trkpt lat="44.6218" lon="6.17002">
        <ele>1332</ele>
        <time>2022-09-11T11:11:18Z</time>
      </trkpt>
      <trkpt lat="44.62175" lon="6.1701">
        <ele>1331.9</ele>
        <time>2022-09-11T11:11:19Z</time>
      </trkpt>
      <trkpt lat="44.62169" lon="6.17018">
        <ele>1331.7</ele>
        <time>2022-09-11T11:11:20Z</time>
      </trkpt>
      <trkpt lat="44.62163" lon="6.17026">
        <ele>1331.5</ele>
        <time>2022-09-11T11:11:21Z</time>
      </trkpt>
      <trkpt lat="44.62158" lon="6.17033">
        <ele>1331.3</ele>
        <time>2022-09-11T11:11:22Z</time>
      </trkpt>
      <trkpt lat="44.62152" lon="6.17041">
        <ele>1330.9</ele>
        <time>2022-09-11T11:11:23Z</time>
      </trkpt>
      <trkpt lat="44.62146" lon="6.17049">
        <ele>1330.5</ele>
        <time>2022-09-11T11:11:24Z</time>
      </trkpt>
      <trkpt lat="44.6214" lon="6.17057">
        <ele>1330.1</ele>
        <time>2022-09-11T11:11:25Z</time>
      </trkpt>
      <trkpt lat="44.62133" lon="6.17064">
        <ele>1329.6</ele>
        <time>2022-09-11T11:11:26Z</time>
      </trkpt>
      <trkpt lat="44.62126" lon="6.17073">
        <ele>1329.1</ele>
        <time>2022-09-11T11:11:27Z</time>
      </trkpt>
      <trkpt lat="44.6212" lon="6.17082">
        <ele>1328.5</ele>
        <time>2022-09-11T11:11:28Z</time>
      </trkpt>
      <trkpt lat="44.62113" lon="6.17092">
        <ele>1327.9</ele>
        <time>2022-09-11T11:11:29Z</time>
      </trkpt>
      <trkpt lat="44.62106" lon="6.17102">
        <ele>1327.2</ele>
        <time>2022-09-11T11:11:30Z</time>
      </trkpt>
      <trkpt lat="44.62099" lon="6.17112">
        <ele>1326.7</ele>
        <time>2022-09-11T11:11:31Z</time>
      </trkpt>
      <trkpt lat="44.62092" lon="6.17122">
        <ele>1326.1</ele>
        <time>2022-09-11T11:11:32Z</time>
      </trkpt>
      <trkpt lat="44.62085" lon="6.17133">
        <ele>1325.6</ele>
        <time>2022-09-11T11:11:33Z</time>
      </trkpt>
      <trkpt lat="44.62079" lon="6.17145">
        <ele>1325</ele>
        <time>2022-09-11T11:11:34Z</time>
      </trkpt>
      <trkpt lat="44.62072" lon="6.17156">
        <ele>1324.5</ele>
        <time>2022-09-11T11:11:35Z</time>
      </trkpt>
      <trkpt lat="44.62067" lon="6.1717">
        <ele>1323.9</ele>
        <time>2022-09-11T11:11:36Z</time>
      </trkpt>
      <trkpt lat="44.62062" lon="6.17183">
        <ele>1323.3</ele>
        <time>2022-09-11T11:11:37Z</time>
      </trkpt>
      <trkpt lat="44.62059" lon="6.17198">
        <ele>1322.7</ele>
        <time>2022-09-11T11:11:38Z</time>
      </trkpt>
      <trkpt lat="44.62056" lon="6.17212">
        <ele>1322.1</ele>
        <time>2022-09-11T11:11:39Z</time>
      </trkpt>
      <trkpt lat="44.62053" lon="6.17227">
        <ele>1321.4</ele>
        <time>2022-09-11T11:11:40Z</time>
      </trkpt>
      <trkpt lat="44.62049" lon="6.17241">
        <ele>1320.8</ele>
        <time>2022-09-11T11:11:41Z</time>
      </trkpt>
      <trkpt lat="44.62046" lon="6.17256">
        <ele>1320.1</ele>
        <time>2022-09-11T11:11:42Z</time>
      </trkpt>
      <trkpt lat="44.62042" lon="6.1727">
        <ele>1319.5</ele>
        <time>2022-09-11T11:11:43Z</time>
      </trkpt>
      <trkpt lat="44.62038" lon="6.17285">
        <ele>1318.9</ele>
        <time>2022-09-11T11:11:44Z</time>
      </trkpt>
      <trkpt lat="44.62035" lon="6.17299">
        <ele>1318.3</ele>
        <time>2022-09-11T11:11:45Z</time>
      </trkpt>
      <trkpt lat="44.62031" lon="6.17313">
        <ele>1317.7</ele>
        <time>2022-09-11T11:11:46Z</time>
      </trkpt>
      <trkpt lat="44.62028" lon="6.17328">
        <ele>1317</ele>
        <time>2022-09-11T11:11:47Z</time>
      </trkpt>
      <trkpt lat="44.62025" lon="6.17343">
        <ele>1316.4</ele>
        <time>2022-09-11T11:11:48Z</time>
      </trkpt>
      <trkpt lat="44.62021" lon="6.17357">
        <ele>1315.7</ele>
        <time>2022-09-11T11:11:49Z</time>
      </trkpt>
      <trkpt lat="44.62018" lon="6.17372">
        <ele>1315</ele>
        <time>2022-09-11T11:11:50Z</time>
      </trkpt>
      <trkpt lat="44.62013" lon="6.17386">
        <ele>1314.3</ele>
        <time>2022-09-11T11:11:51Z</time>
      </trkpt>
      <trkpt lat="44.62008" lon="6.17399">
        <ele>1313.6</ele>
        <time>2022-09-11T11:11:52Z</time>
      </trkpt>
      <trkpt lat="44.62002" lon="6.17412">
        <ele>1312.9</ele>
        <time>2022-09-11T11:11:53Z</time>
      </trkpt>
      <trkpt lat="44.61995" lon="6.17425">
        <ele>1312.2</ele>
        <time>2022-09-11T11:11:54Z</time>
      </trkpt>
      <trkpt lat="44.61987" lon="6.17437">
        <ele>1311.5</ele>
        <time>2022-09-11T11:11:55Z</time>
      </trkpt>
      <trkpt lat="44.61979" lon="6.17448">
        <ele>1310.8</ele>
        <time>2022-09-11T11:11:56Z</time>
      </trkpt>
      <trkpt lat="44.61971" lon="6.17459">
        <ele>1310.1</ele>
        <time>2022-09-11T11:11:57Z</time>
      </trkpt>
      <trkpt lat="44.61962" lon="6.17469">
        <ele>1309.4</ele>
        <time>2022-09-11T11:11:58Z</time>
      </trkpt>
      <trkpt lat="44.61953" lon="6.17478">
        <ele>1308.8</ele>
        <time>2022-09-11T11:11:59Z</time>
      </trkpt>
      <trkpt lat="44.61944" lon="6.17487">
        <ele>1308</ele>
        <time>2022-09-11T11:12:00Z</time>
      </trkpt>
      <trkpt lat="44.61934" lon="6.17498">
        <ele>1307.2</ele>
        <time>2022-09-11T11:12:01Z</time>
      </trkpt>
      <trkpt lat="44.61925" lon="6.17508">
        <ele>1306.3</ele>
        <time>2022-09-11T11:12:02Z</time>
      </trkpt>
      <trkpt lat="44.61917" lon="6.17519">
        <ele>1305.4</ele>
        <time>2022-09-11T11:12:03Z</time>
      </trkpt>
      <trkpt lat="44.61908" lon="6.17529">
        <ele>1304.4</ele>
        <time>2022-09-11T11:12:04Z</time>
      </trkpt>
      <trkpt lat="44.61898" lon="6.17539">
        <ele>1303.4</ele>
        <time>2022-09-11T11:12:05Z</time>
      </trkpt>
      <trkpt lat="44.61889" lon="6.1755">
        <ele>1302.5</ele>
        <time>2022-09-11T11:12:06Z</time>
      </trkpt>
      <trkpt lat="44.6188" lon="6.17562">
        <ele>1301.7</ele>
        <time>2022-09-11T11:12:07Z</time>
      </trkpt>
      <trkpt lat="44.61872" lon="6.17575">
        <ele>1300.9</ele>
        <time>2022-09-11T11:12:08Z</time>
      </trkpt>
      <trkpt lat="44.61865" lon="6.1759">
        <ele>1300.2</ele>
        <time>2022-09-11T11:12:09Z</time>
      </trkpt>
      <trkpt lat="44.61858" lon="6.17604">
        <ele>1299.6</ele>
        <time>2022-09-11T11:12:10Z</time>
      </trkpt>
      <trkpt lat="44.61853" lon="6.1762">
        <ele>1299</ele>
        <time>2022-09-11T11:12:11Z</time>
      </trkpt>
      <trkpt lat="44.61847" lon="6.17635">
        <ele>1298.6</ele>
        <time>2022-09-11T11:12:12Z</time>
      </trkpt>
      <trkpt lat="44.61841" lon="6.1765">
        <ele>1298.2</ele>
        <time>2022-09-11T11:12:13Z</time>
      </trkpt>
      <trkpt lat="44.61835" lon="6.17665">
        <ele>1297.8</ele>
        <time>2022-09-11T11:12:14Z</time>
      </trkpt>
      <trkpt lat="44.6183" lon="6.1768">
        <ele>1297.2</ele>
        <time>2022-09-11T11:12:15Z</time>
      </trkpt>
      <trkpt lat="44.61826" lon="6.17696">
        <ele>1296.7</ele>
        <time>2022-09-11T11:12:16Z</time>
      </trkpt>
      <trkpt lat="44.61822" lon="6.17711">
        <ele>1296.2</ele>
        <time>2022-09-11T11:12:17Z</time>
      </trkpt>
      <trkpt lat="44.61819" lon="6.17727">
        <ele>1295.7</ele>
        <time>2022-09-11T11:12:18Z</time>
      </trkpt>
      <trkpt lat="44.61816" lon="6.17742">
        <ele>1295.4</ele>
        <time>2022-09-11T11:12:19Z</time>
      </trkpt>
      <trkpt lat="44.61813" lon="6.17757">
        <ele>1295.1</ele>
        <time>2022-09-11T11:12:20Z</time>
      </trkpt>
      <trkpt lat="44.61811" lon="6.17772">
        <ele>1294.8</ele>
        <time>2022-09-11T11:12:21Z</time>
      </trkpt>
      <trkpt lat="44.61808" lon="6.17787">
        <ele>1294.6</ele>
        <time>2022-09-11T11:12:22Z</time>
      </trkpt>
      <trkpt lat="44.61806" lon="6.17801">
        <ele>1294.5</ele>
        <time>2022-09-11T11:12:23Z</time>
      </trkpt>
      <trkpt lat="44.61804" lon="6.17813">
        <ele>1294.3</ele>
        <time>2022-09-11T11:12:24Z</time>
      </trkpt>
      <trkpt lat="44.61801" lon="6.17827">
        <ele>1294.2</ele>
        <time>2022-09-11T11:12:25Z</time>
      </trkpt>
      <trkpt lat="44.61798" lon="6.1784">
        <ele>1294</ele>
        <time>2022-09-11T11:12:26Z</time>
      </trkpt>
      <trkpt lat="44.61796" lon="6.17853">
        <ele>1293.9</ele>
        <time>2022-09-11T11:12:27Z</time>
      </trkpt>
      <trkpt lat="44.61793" lon="6.17865">
        <ele>1293.9</ele>
        <time>2022-09-11T11:12:28Z</time>
      </trkpt>
      <trkpt lat="44.61791" lon="6.17877">
        <ele>1293.9</ele>
        <time>2022-09-11T11:12:29Z</time>
      </trkpt>
      <trkpt lat="44.61789" lon="6.17889">
        <ele>1294</ele>
        <time>2022-09-11T11:12:30Z</time>
      </trkpt>
      <trkpt lat="44.61786" lon="6.17902">
        <ele>1294.1</ele>
        <time>2022-09-11T11:12:31Z</time>
      </trkpt>
      <trkpt lat="44.61785" lon="6.17913">
        <ele>1294.3</ele>
        <time>2022-09-11T11:12:32Z</time>
      </trkpt>
      <trkpt lat="44.61783" lon="6.17924">
        <ele>1294.5</ele>
        <time>2022-09-11T11:12:33Z</time>
      </trkpt>
      <trkpt lat="44.61781" lon="6.17935">
        <ele>1294.7</ele>
        <time>2022-09-11T11:12:34Z</time>
      </trkpt>
      <trkpt lat="44.6178" lon="6.17946">
        <ele>1294.9</ele>
        <time>2022-09-11T11:12:35Z</time>
      </trkpt>
      <trkpt lat="44.61779" lon="6.17957">
        <ele>1295.1</ele>
        <time>2022-09-11T11:12:36Z</time>
      </trkpt>
      <trkpt lat="44.61779" lon="6.17968">
        <ele>1295.2</ele>
        <time>2022-09-11T11:12:37Z</time>
      </trkpt>
      <trkpt lat="44.61778" lon="6.17979">
        <ele>1295.3</ele>
        <time>2022-09-11T11:12:38Z</time>
      </trkpt>
      <trkpt lat="44.61777" lon="6.17989">
        <ele>1295.4</ele>
        <time>2022-09-11T11:12:39Z</time>
      </trkpt>
      <trkpt lat="44.61777" lon="6.18">
        <ele>1295.4</ele>
        <time>2022-09-11T11:12:40Z</time>
      </trkpt>
      <trkpt lat="44.61777" lon="6.1801">
        <ele>1295.3</ele>
        <time>2022-09-11T11:12:41Z</time>
      </trkpt>
      <trkpt lat="44.61778" lon="6.1802">
        <ele>1295.2</ele>
        <time>2022-09-11T11:12:42Z</time>
      </trkpt>
      <trkpt lat="44.61778" lon="6.1803">
        <ele>1295.2</ele>
        <time>2022-09-11T11:12:43Z</time>
      </trkpt>
      <trkpt lat="44.61779" lon="6.1804">
        <ele>1295.1</ele>
        <time>2022-09-11T11:12:44Z</time>
      </trkpt>
      <trkpt lat="44.61781" lon="6.18051">
        <ele>1295</ele>
        <time>2022-09-11T11:12:45Z</time>
      </trkpt>
      <trkpt lat="44.61782" lon="6.18061">
        <ele>1295</ele>
        <time>2022-09-11T11:12:46Z</time>
      </trkpt>
      <trkpt lat="44.61783" lon="6.18072">
        <ele>1294.9</ele>
        <time>2022-09-11T11:12:47Z</time>
      </trkpt>
      <trkpt lat="44.61785" lon="6.18083">
        <ele>1294.7</ele>
        <time>2022-09-11T11:12:48Z</time>
      </trkpt>
      <trkpt lat="44.61787" lon="6.18094">
        <ele>1294.5</ele>
        <time>2022-09-11T11:12:49Z</time>
      </trkpt>
      <trkpt lat="44.61789" lon="6.18105">
        <ele>1294.4</ele>
        <time>2022-09-11T11:12:50Z</time>
      </trkpt>
      <trkpt lat="44.61791" lon="6.18116">
        <ele>1294.2</ele>
        <time>2022-09-11T11:12:51Z</time>
      </trkpt>
      <trkpt lat="44.61794" lon="6.18127">
        <ele>1294.1</ele>
        <time>2022-09-11T11:12:52Z</time>
      </trkpt>
      <trkpt lat="44.61796" lon="6.18138">
        <ele>1294</ele>
        <time>2022-09-11T11:12:53Z</time>
      </trkpt>
      <trkpt lat="44.61799" lon="6.18149">
        <ele>1294.1</ele>
        <time>2022-09-11T11:12:54Z</time>
      </trkpt>
      <trkpt lat="44.61803" lon="6.1816">
        <ele>1294.1</ele>
        <time>2022-09-11T11:12:55Z</time>
      </trkpt>
      <trkpt lat="44.61806" lon="6.1817">
        <ele>1294.3</ele>
        <time>2022-09-11T11:12:56Z</time>
      </trkpt>
      <trkpt lat="44.6181" lon="6.1818">
        <ele>1294.3</ele>
        <time>2022-09-11T11:12:57Z</time>
      </trkpt>
      <trkpt lat="44.61813" lon="6.18189">
        <ele>1294.4</ele>
        <time>2022-09-11T11:12:58Z</time>
      </trkpt>
      <trkpt lat="44.61816" lon="6.18198">
        <ele>1294.4</ele>
        <time>2022-09-11T11:12:59Z</time>
      </trkpt>
      <trkpt lat="44.6182" lon="6.18208">
        <ele>1294.5</ele>
        <time>2022-09-11T11:13:00Z</time>
      </trkpt>
      <trkpt lat="44.61822" lon="6.18217">
        <ele>1294.6</ele>
        <time>2022-09-11T11:13:01Z</time>
      </trkpt>
      <trkpt lat="44.61825" lon="6.18226">
        <ele>1294.7</ele>
        <time>2022-09-11T11:13:02Z</time>
      </trkpt>
      <trkpt lat="44.61828" lon="6.18234">
        <ele>1294.8</ele>
        <time>2022-09-11T11:13:03Z</time>
      </trkpt>
      <trkpt lat="44.61831" lon="6.18243">
        <ele>1294.9</ele>
        <time>2022-09-11T11:13:04Z</time>
      </trkpt>
      <trkpt lat="44.61834" lon="6.18251">
        <ele>1295</ele>
        <time>2022-09-11T11:13:05Z</time>
      </trkpt>
      <trkpt lat="44.61836" lon="6.18259">
        <ele>1295.1</ele>
        <time>2022-09-11T11:13:06Z</time>
      </trkpt>
      <trkpt lat="44.61838" lon="6.18267">
        <ele>1295.2</ele>
        <time>2022-09-11T11:13:07Z</time>
      </trkpt>
      <trkpt lat="44.61841" lon="6.18275">
        <ele>1295.3</ele>
        <time>2022-09-11T11:13:08Z</time>
      </trkpt>
      <trkpt lat="44.61843" lon="6.18283">
        <ele>1295.4</ele>
        <time>2022-09-11T11:13:09Z</time>
      </trkpt>
      <trkpt lat="44.61845" lon="6.18291">
        <ele>1295.5</ele>
        <time>2022-09-11T11:13:10Z</time>
      </trkpt>
      <trkpt lat="44.61846" lon="6.183">
        <ele>1295.6</ele>
        <time>2022-09-11T11:13:11Z</time>
      </trkpt>
      <trkpt lat="44.61848" lon="6.18308">
        <ele>1295.7</ele>
        <time>2022-09-11T11:13:12Z</time>
      </trkpt>
      <trkpt lat="44.6185" lon="6.18316">
        <ele>1295.8</ele>
        <time>2022-09-11T11:13:13Z</time>
      </trkpt>
      <trkpt lat="44.61851" lon="6.18324">
        <ele>1295.9</ele>
        <time>2022-09-11T11:13:14Z</time>
      </trkpt>
      <trkpt lat="44.61853" lon="6.18333">
        <ele>1296.1</ele>
        <time>2022-09-11T11:13:15Z</time>
      </trkpt>
      <trkpt lat="44.61854" lon="6.18341">
        <ele>1296.1</ele>
        <time>2022-09-11T11:13:16Z</time>
      </trkpt>
      <trkpt lat="44.61856" lon="6.18349">
        <ele>1296.2</ele>
        <time>2022-09-11T11:13:17Z</time>
      </trkpt>
      <trkpt lat="44.61857" lon="6.18357">
        <ele>1296.3</ele>
        <time>2022-09-11T11:13:18Z</time>
      </trkpt>
      <trkpt lat="44.61858" lon="6.18365">
        <ele>1296.4</ele>
        <time>2022-09-11T11:13:19Z</time>
      </trkpt>
      <trkpt lat="44.61858" lon="6.18373">
        <ele>1296.5</ele>
        <time>2022-09-11T11:13:20Z</time>
      </trkpt>
      <trkpt lat="44.61859" lon="6.18382">
        <ele>1296.5</ele>
        <time>2022-09-11T11:13:21Z</time>
      </trkpt>
      <trkpt lat="44.6186" lon="6.1839">
        <ele>1296.6</ele>
        <time>2022-09-11T11:13:22Z</time>
      </trkpt>
      <trkpt lat="44.6186" lon="6.18398">
        <ele>1296.6</ele>
        <time>2022-09-11T11:13:23Z</time>
      </trkpt>
      <trkpt lat="44.6186" lon="6.18407">
        <ele>1296.7</ele>
        <time>2022-09-11T11:13:24Z</time>
      </trkpt>
      <trkpt lat="44.61861" lon="6.18415">
        <ele>1296.7</ele>
        <time>2022-09-11T11:13:25Z</time>
      </trkpt>
      <trkpt lat="44.61861" lon="6.18424">
        <ele>1296.8</ele>
        <time>2022-09-11T11:13:26Z</time>
      </trkpt>
      <trkpt lat="44.61861" lon="6.18432">
        <ele>1296.8</ele>
        <time>2022-09-11T11:13:27Z</time>
      </trkpt>
      <trkpt lat="44.6186" lon="6.1844">
        <ele>1296.9</ele>
        <time>2022-09-11T11:13:28Z</time>
      </trkpt>
      <trkpt lat="44.6186" lon="6.18449">
        <ele>1296.9</ele>
        <time>2022-09-11T11:13:29Z</time>
      </trkpt>
      <trkpt lat="44.61859" lon="6.18457">
        <ele>1296.9</ele>
        <time>2022-09-11T11:13:30Z</time>
      </trkpt>
      <trkpt lat="44.61859" lon="6.18465">
        <ele>1297</ele>
        <time>2022-09-11T11:13:31Z</time>
      </trkpt>
      <trkpt lat="44.61859" lon="6.18473">
        <ele>1297</ele>
        <time>2022-09-11T11:13:32Z</time>
      </trkpt>
      <trkpt lat="44.61858" lon="6.18481">
        <ele>1297.1</ele>
        <time>2022-09-11T11:13:33Z</time>
      </trkpt>
      <trkpt lat="44.61857" lon="6.18488">
        <ele>1297.1</ele>
        <time>2022-09-11T11:13:34Z</time>
      </trkpt>
      <trkpt lat="44.61856" lon="6.18495">
        <ele>1297.2</ele>
        <time>2022-09-11T11:13:35Z</time>
      </trkpt>
      <trkpt lat="44.61855" lon="6.18503">
        <ele>1297.2</ele>
        <time>2022-09-11T11:13:36Z</time>
      </trkpt>
      <trkpt lat="44.61854" lon="6.1851">
        <ele>1297.2</ele>
        <time>2022-09-11T11:13:37Z</time>
      </trkpt>
      <trkpt lat="44.61853" lon="6.18517">
        <ele>1297.3</ele>
        <time>2022-09-11T11:13:38Z</time>
      </trkpt>
      <trkpt lat="44.61852" lon="6.18525">
        <ele>1297.4</ele>
        <time>2022-09-11T11:13:39Z</time>
      </trkpt>
      <trkpt lat="44.6185" lon="6.18532">
        <ele>1297.4</ele>
        <time>2022-09-11T11:13:40Z</time>
      </trkpt>
      <trkpt lat="44.61849" lon="6.18539">
        <ele>1297.5</ele>
        <time>2022-09-11T11:13:41Z</time>
      </trkpt>
      <trkpt lat="44.61848" lon="6.18546">
        <ele>1297.5</ele>
        <time>2022-09-11T11:13:42Z</time>
      </trkpt>
      <trkpt lat="44.61847" lon="6.18554">
        <ele>1297.6</ele>
        <time>2022-09-11T11:13:43Z</time>
      </trkpt>
      <trkpt lat="44.61846" lon="6.18562">
        <ele>1297.7</ele>
        <time>2022-09-11T11:13:44Z</time>
      </trkpt>
      <trkpt lat="44.61846" lon="6.18569">
        <ele>1297.7</ele>
        <time>2022-09-11T11:13:45Z</time>
      </trkpt>
      <trkpt lat="44.61845" lon="6.18577">
        <ele>1297.8</ele>
        <time>2022-09-11T11:13:46Z</time>
      </trkpt>
      <trkpt lat="44.61844" lon="6.18584">
        <ele>1297.9</ele>
        <time>2022-09-11T11:13:47Z</time>
      </trkpt>
      <trkpt lat="44.61842" lon="6.18592">
        <ele>1298</ele>
        <time>2022-09-11T11:13:48Z</time>
      </trkpt>
      <trkpt lat="44.61841" lon="6.186">
        <ele>1298</ele>
        <time>2022-09-11T11:13:49Z</time>
      </trkpt>
      <trkpt lat="44.6184" lon="6.18608">
        <ele>1298.1</ele>
        <time>2022-09-11T11:13:50Z</time>
      </trkpt>
      <trkpt lat="44.61839" lon="6.18616">
        <ele>1298.2</ele>
        <time>2022-09-11T11:13:51Z</time>
      </trkpt>
      <trkpt lat="44.61838" lon="6.18624">
        <ele>1298.2</ele>
        <time>2022-09-11T11:13:52Z</time>
      </trkpt>
      <trkpt lat="44.61837" lon="6.18632">
        <ele>1298.3</ele>
        <time>2022-09-11T11:13:53Z</time>
      </trkpt>
      <trkpt lat="44.61836" lon="6.1864">
        <ele>1298.4</ele>
        <time>2022-09-11T11:13:54Z</time>
      </trkpt>
      <trkpt lat="44.61836" lon="6.18648">
        <ele>1298.4</ele>
        <time>2022-09-11T11:13:55Z</time>
      </trkpt>
      <trkpt lat="44.61835" lon="6.18656">
        <ele>1298.5</ele>
        <time>2022-09-11T11:13:56Z</time>
      </trkpt>
      <trkpt lat="44.61834" lon="6.18664">
        <ele>1298.6</ele>
        <time>2022-09-11T11:13:57Z</time>
      </trkpt>
      <trkpt lat="44.61834" lon="6.18672">
        <ele>1298.7</ele>
        <time>2022-09-11T11:13:58Z</time>
      </trkpt>
      <trkpt lat="44.61833" lon="6.1868">
        <ele>1298.7</ele>
        <time>2022-09-11T11:13:59Z</time>
      </trkpt>
      <trkpt lat="44.61833" lon="6.18689">
        <ele>1298.8</ele>
        <time>2022-09-11T11:14:00Z</time>
      </trkpt>
      <trkpt lat="44.61832" lon="6.18696">
        <ele>1298.9</ele>
        <time>2022-09-11T11:14:01Z</time>
      </trkpt>
      <trkpt lat="44.61832" lon="6.18704">
        <ele>1299</ele>
        <time>2022-09-11T11:14:02Z</time>
      </trkpt>
      <trkpt lat="44.61832" lon="6.18712">
        <ele>1299.1</ele>
        <time>2022-09-11T11:14:03Z</time>
      </trkpt>
      <trkpt lat="44.61831" lon="6.18719">
        <ele>1299.2</ele>
        <time>2022-09-11T11:14:04Z</time>
      </trkpt>
      <trkpt lat="44.61832" lon="6.18727">
        <ele>1299.3</ele>
        <time>2022-09-11T11:14:05Z</time>
      </trkpt>
      <trkpt lat="44.61832" lon="6.18734">
        <ele>1299.4</ele>
        <time>2022-09-11T11:14:06Z</time>
      </trkpt>
      <trkpt lat="44.61832" lon="6.18742">
        <ele>1299.5</ele>
        <time>2022-09-11T11:14:07Z</time>
      </trkpt>
      <trkpt lat="44.61831" lon="6.1875">
        <ele>1299.5</ele>
        <time>2022-09-11T11:14:08Z</time>
      </trkpt>
      <trkpt lat="44.61831" lon="6.18758">
        <ele>1299.6</ele>
        <time>2022-09-11T11:14:09Z</time>
      </trkpt>
      <trkpt lat="44.61831" lon="6.18765">
        <ele>1299.6</ele>
        <time>2022-09-11T11:14:10Z</time>
      </trkpt>
      <trkpt lat="44.6183" lon="6.18773">
        <ele>1299.7</ele>
        <time>2022-09-11T11:14:11Z</time>
      </trkpt>
      <trkpt lat="44.6183" lon="6.18781">
        <ele>1299.8</ele>
        <time>2022-09-11T11:14:12Z</time>
      </trkpt>
      <trkpt lat="44.6183" lon="6.18788">
        <ele>1299.9</ele>
        <time>2022-09-11T11:14:13Z</time>
      </trkpt>
      <trkpt lat="44.61829" lon="6.18796">
        <ele>1299.9</ele>
        <time>2022-09-11T11:14:14Z</time>
      </trkpt>
      <trkpt lat="44.6183" lon="6.18804">
        <ele>1300</ele>
        <time>2022-09-11T11:14:15Z</time>
      </trkpt>
      <trkpt lat="44.6183" lon="6.18811">
        <ele>1300.1</ele>
        <time>2022-09-11T11:14:16Z</time>
      </trkpt>
      <trkpt lat="44.61829" lon="6.18818">
        <ele>1300.2</ele>
        <time>2022-09-11T11:14:17Z</time>
      </trkpt>
      <trkpt lat="44.6183" lon="6.18825">
        <ele>1300.3</ele>
        <time>2022-09-11T11:14:18Z</time>
      </trkpt>
      <trkpt lat="44.6183" lon="6.18832">
        <ele>1300.4</ele>
        <time>2022-09-11T11:14:19Z</time>
      </trkpt>
      <trkpt lat="44.6183" lon="6.18838">
        <ele>1300.5</ele>
        <time>2022-09-11T11:14:20Z</time>
      </trkpt>
      <trkpt lat="44.6183" lon="6.18845">
        <ele>1300.6</ele>
        <time>2022-09-11T11:14:21Z</time>
      </trkpt>
      <trkpt lat="44.6183" lon="6.18851">
        <ele>1300.8</ele>
        <time>2022-09-11T11:14:22Z</time>
      </trkpt>
      <trkpt lat="44.6183" lon="6.18858">
        <ele>1300.9</ele>
        <time>2022-09-11T11:14:23Z</time>
      </trkpt>
      <trkpt lat="44.6183" lon="6.18862">
        <ele>1301</ele>
        <time>2022-09-11T11:14:24Z</time>
      </trkpt>
      <trkpt lat="44.61829" lon="6.18868">
        <ele>1301.2</ele>
        <time>2022-09-11T11:14:25Z</time>
      </trkpt>
      <trkpt lat="44.61829" lon="6.18873">
        <ele>1301.3</ele>
        <time>2022-09-11T11:14:26Z</time>
      </trkpt>
      <trkpt lat="44.61829" lon="6.18879">
        <ele>1301.4</ele>
        <time>2022-09-11T11:14:27Z</time>
      </trkpt>
      <trkpt lat="44.6183" lon="6.18884">
        <ele>1301.6</ele>
        <time>2022-09-11T11:14:28Z</time>
      </trkpt>
      <trkpt lat="44.61829" lon="6.18893">
        <ele>1301.8</ele>
        <time>2022-09-11T11:14:29Z</time>
      </trkpt>
      <trkpt lat="44.6183" lon="6.18899">
        <ele>1301.9</ele>
        <time>2022-09-11T11:14:31Z</time>
      </trkpt>
      <trkpt lat="44.61831" lon="6.18906">
        <ele>1302.1</ele>
        <time>2022-09-11T11:14:32Z</time>
      </trkpt>
      <trkpt lat="44.61831" lon="6.18913">
        <ele>1302.3</ele>
        <time>2022-09-11T11:14:33Z</time>
      </trkpt>
      <trkpt lat="44.61831" lon="6.18918">
        <ele>1302.4</ele>
        <time>2022-09-11T11:14:34Z</time>
      </trkpt>
      <trkpt lat="44.61831" lon="6.18925">
        <ele>1302.6</ele>
        <time>2022-09-11T11:14:35Z</time>
      </trkpt>
      <trkpt lat="44.6183" lon="6.1893">
        <ele>1302.7</ele>
        <time>2022-09-11T11:14:36Z</time>
      </trkpt>
      <trkpt lat="44.61831" lon="6.18936">
        <ele>1302.9</ele>
        <time>2022-09-11T11:14:37Z</time>
      </trkpt>
      <trkpt lat="44.61831" lon="6.18944">
        <ele>1303.1</ele>
        <time>2022-09-11T11:14:38Z</time>
      </trkpt>
      <trkpt lat="44.61831" lon="6.1895">
        <ele>1303.2</ele>
        <time>2022-09-11T11:14:39Z</time>
      </trkpt>
      <trkpt lat="44.61831" lon="6.18957">
        <ele>1303.4</ele>
        <time>2022-09-11T11:14:40Z</time>
      </trkpt>
      <trkpt lat="44.61831" lon="6.18964">
        <ele>1303.6</ele>
        <time>2022-09-11T11:14:42Z</time>
      </trkpt>
      <trkpt lat="44.61831" lon="6.18972">
        <ele>1303.8</ele>
        <time>2022-09-11T11:14:43Z</time>
      </trkpt>
      <trkpt lat="44.6183" lon="6.18978">
        <ele>1304</ele>
        <time>2022-09-11T11:14:44Z</time>
      </trkpt>
      <trkpt lat="44.6183" lon="6.18984">
        <ele>1304.1</ele>
        <time>2022-09-11T11:14:45Z</time>
      </trkpt>
      <trkpt lat="44.6183" lon="6.1899">
        <ele>1304.3</ele>
        <time>2022-09-11T11:14:46Z</time>
      </trkpt>
      <trkpt lat="44.6183" lon="6.18996">
        <ele>1304.4</ele>
        <time>2022-09-11T11:14:47Z</time>
      </trkpt>
      <trkpt lat="44.6183" lon="6.19003">
        <ele>1304.6</ele>
        <time>2022-09-11T11:14:48Z</time>
      </trkpt>
      <trkpt lat="44.6183" lon="6.19009">
        <ele>1304.7</ele>
        <time>2022-09-11T11:14:49Z</time>
      </trkpt>
      <trkpt lat="44.6183" lon="6.19015">
        <ele>1304.8</ele>
        <time>2022-09-11T11:14:51Z</time>
      </trkpt>
      <trkpt lat="44.6183" lon="6.19022">
        <ele>1305</ele>
        <time>2022-09-11T11:14:52Z</time>
      </trkpt>
      <trkpt lat="44.6183" lon="6.19029">
        <ele>1305.1</ele>
        <time>2022-09-11T11:14:53Z</time>
      </trkpt>
      <trkpt lat="44.6183" lon="6.19037">
        <ele>1305.2</ele>
        <time>2022-09-11T11:14:54Z</time>
      </trkpt>
      <trkpt lat="44.6183" lon="6.19043">
        <ele>1305.3</ele>
        <time>2022-09-11T11:14:56Z</time>
      </trkpt>
      <trkpt lat="44.6183" lon="6.19049">
        <ele>1305.3</ele>
        <time>2022-09-11T11:14:57Z</time>
      </trkpt>
      <trkpt lat="44.6183" lon="6.19054">
        <ele>1305.4</ele>
        <time>2022-09-11T11:14:58Z</time>
      </trkpt>
      <trkpt lat="44.6183" lon="6.19059">
        <ele>1305.5</ele>
        <time>2022-09-11T11:14:59Z</time>
      </trkpt>
      <trkpt lat="44.61829" lon="6.19068">
        <ele>1305.6</ele>
        <time>2022-09-11T11:15:00Z</time>
      </trkpt>
      <trkpt lat="44.61829" lon="6.19075">
        <ele>1305.6</ele>
        <time>2022-09-11T11:15:01Z</time>
      </trkpt>
      <trkpt lat="44.61829" lon="6.19083">
        <ele>1305.7</ele>
        <time>2022-09-11T11:15:03Z</time>
      </trkpt>
      <trkpt lat="44.6183" lon="6.19092">
        <ele>1305.8</ele>
        <time>2022-09-11T11:15:04Z</time>
      </trkpt>
      <trkpt lat="44.6183" lon="6.19099">
        <ele>1305.9</ele>
        <time>2022-09-11T11:15:05Z</time>
      </trkpt>
      <trkpt lat="44.61831" lon="6.19105">
        <ele>1306</ele>
        <time>2022-09-11T11:15:06Z</time>
      </trkpt>
      <trkpt lat="44.61831" lon="6.19114">
        <ele>1306.1</ele>
        <time>2022-09-11T11:15:08Z</time>
      </trkpt>
      <trkpt lat="44.61831" lon="6.1912">
        <ele>1306.2</ele>
        <time>2022-09-11T11:15:09Z</time>
      </trkpt>
      <trkpt lat="44.61831" lon="6.19126">
        <ele>1306.3</ele>
        <time>2022-09-11T11:15:10Z</time>
      </trkpt>
      <trkpt lat="44.61831" lon="6.19132">
        <ele>1306.4</ele>
        <time>2022-09-11T11:15:11Z</time>
      </trkpt>
      <trkpt lat="44.61831" lon="6.19138">
        <ele>1306.5</ele>
        <time>2022-09-11T11:15:12Z</time>
      </trkpt>
      <trkpt lat="44.61832" lon="6.19144">
        <ele>1306.6</ele>
        <time>2022-09-11T11:15:13Z</time>
      </trkpt>
      <trkpt lat="44.61833" lon="6.19151">
        <ele>1306.8</ele>
        <time>2022-09-11T11:15:14Z</time>
      </trkpt>
      <trkpt lat="44.61834" lon="6.19159">
        <ele>1306.9</ele>
        <time>2022-09-11T11:15:15Z</time>
      </trkpt>
      <trkpt lat="44.61834" lon="6.19166">
        <ele>1307.1</ele>
        <time>2022-09-11T11:15:16Z</time>
      </trkpt>
      <trkpt lat="44.61834" lon="6.19171">
        <ele>1307.2</ele>
        <time>2022-09-11T11:15:17Z</time>
      </trkpt>
      <trkpt lat="44.61834" lon="6.19177">
        <ele>1307.3</ele>
        <time>2022-09-11T11:15:18Z</time>
      </trkpt>
      <trkpt lat="44.61835" lon="6.19184">
        <ele>1307.5</ele>
        <time>2022-09-11T11:15:20Z</time>
      </trkpt>
      <trkpt lat="44.61835" lon="6.1919">
        <ele>1307.6</ele>
        <time>2022-09-11T11:15:21Z</time>
      </trkpt>
      <trkpt lat="44.61835" lon="6.19195">
        <ele>1307.7</ele>
        <time>2022-09-11T11:15:22Z</time>
      </trkpt>
      <trkpt lat="44.61836" lon="6.19199">
        <ele>1307.9</ele>
        <time>2022-09-11T11:15:23Z</time>
      </trkpt>
      <trkpt lat="44.61836" lon="6.19204">
        <ele>1308</ele>
        <time>2022-09-11T11:15:24Z</time>
      </trkpt>
      <trkpt lat="44.61836" lon="6.19209">
        <ele>1308.1</ele>
        <time>2022-09-11T11:15:25Z</time>
      </trkpt>
      <trkpt lat="44.61836" lon="6.19213">
        <ele>1308.3</ele>
        <time>2022-09-11T11:15:26Z</time>
      </trkpt>
      <trkpt lat="44.61835" lon="6.19223">
        <ele>1308.5</ele>
        <time>2022-09-11T11:15:27Z</time>
      </trkpt>
      <trkpt lat="44.61835" lon="6.19228">
        <ele>1308.7</ele>
        <time>2022-09-11T11:15:29Z</time>
      </trkpt>
      <trkpt lat="44.61835" lon="6.19232">
        <ele>1308.8</ele>
        <time>2022-09-11T11:15:30Z</time>
      </trkpt>
      <trkpt lat="44.61835" lon="6.19237">
        <ele>1308.9</ele>
        <time>2022-09-11T11:15:31Z</time>
      </trkpt>
      <trkpt lat="44.61834" lon="6.19243">
        <ele>1309.1</ele>
        <time>2022-09-11T11:15:32Z</time>
      </trkpt>
      <trkpt lat="44.61834" lon="6.19245">
        <ele>1309.2</ele>
        <time>2022-09-11T11:15:33Z</time>
      </trkpt>
      <trkpt lat="44.61833" lon="6.1925">
        <ele>1309.3</ele>
        <time>2022-09-11T11:15:34Z</time>
      </trkpt>
      <trkpt lat="44.61833" lon="6.19252">
        <ele>1309.4</ele>
        <time>2022-09-11T11:15:35Z</time>
      </trkpt>
      <trkpt lat="44.61832" lon="6.19257">
        <ele>1309.6</ele>
        <time>2022-09-11T11:15:36Z</time>
      </trkpt>
      <trkpt lat="44.61831" lon="6.19263">
        <ele>1309.7</ele>
        <time>2022-09-11T11:15:37Z</time>
      </trkpt>
      <trkpt lat="44.6183" lon="6.1927">
        <ele>1309.9</ele>
        <time>2022-09-11T11:15:39Z</time>
      </trkpt>
      <trkpt lat="44.61829" lon="6.19276">
        <ele>1310.1</ele>
        <time>2022-09-11T11:15:40Z</time>
      </trkpt>
      <trkpt lat="44.61828" lon="6.19281">
        <ele>1310.3</ele>
        <time>2022-09-11T11:15:41Z</time>
      </trkpt>
      <trkpt lat="44.61828" lon="6.19286">
        <ele>1310.4</ele>
        <time>2022-09-11T11:15:43Z</time>
      </trkpt>
      <trkpt lat="44.61827" lon="6.1929">
        <ele>1310.6</ele>
        <time>2022-09-11T11:15:44Z</time>
      </trkpt>
      <trkpt lat="44.61826" lon="6.19297">
        <ele>1310.7</ele>
        <time>2022-09-11T11:15:45Z</time>
      </trkpt>
      <trkpt lat="44.61825" lon="6.19302">
        <ele>1310.8</ele>
        <time>2022-09-11T11:15:47Z</time>
      </trkpt>
      <trkpt lat="44.61824" lon="6.19307">
        <ele>1310.8</ele>
        <time>2022-09-11T11:15:48Z</time>
      </trkpt>
      <trkpt lat="44.61824" lon="6.19309">
        <ele>1310.9</ele>
        <time>2022-09-11T11:15:49Z</time>
      </trkpt>
      <trkpt lat="44.61823" lon="6.19312">
        <ele>1310.9</ele>
        <time>2022-09-11T11:15:50Z</time>
      </trkpt>
      <trkpt lat="44.61821" lon="6.19316">
        <ele>1311</ele>
        <time>2022-09-11T11:15:51Z</time>
      </trkpt>
      <trkpt lat="44.6182" lon="6.1932">
        <ele>1311.1</ele>
        <time>2022-09-11T11:15:52Z</time>
      </trkpt>
      <trkpt lat="44.61819" lon="6.19324">
        <ele>1311.3</ele>
        <time>2022-09-11T11:15:53Z</time>
      </trkpt>
      <trkpt lat="44.61819" lon="6.19329">
        <ele>1311.5</ele>
        <time>2022-09-11T11:15:54Z</time>
      </trkpt>
      <trkpt lat="44.61819" lon="6.19331">
        <ele>1311.6</ele>
        <time>2022-09-11T11:15:55Z</time>
      </trkpt>
      <trkpt lat="44.61817" lon="6.19336">
        <ele>1311.8</ele>
        <time>2022-09-11T11:15:56Z</time>
      </trkpt>
      <trkpt lat="44.61817" lon="6.19339">
        <ele>1311.9</ele>
        <time>2022-09-11T11:15:57Z</time>
      </trkpt>
      <trkpt lat="44.61816" lon="6.19342">
        <ele>1312</ele>
        <time>2022-09-11T11:15:58Z</time>
      </trkpt>
      <trkpt lat="44.61816" lon="6.19346">
        <ele>1312.2</ele>
        <time>2022-09-11T11:16:00Z</time>
      </trkpt>
      <trkpt lat="44.61815" lon="6.19352">
        <ele>1312.4</ele>
        <time>2022-09-11T11:16:01Z</time>
      </trkpt>
      <trkpt lat="44.61815" lon="6.19353">
        <ele>1312.5</ele>
        <time>2022-09-11T11:16:02Z</time>
      </trkpt>
      <trkpt lat="44.61814" lon="6.19358">
        <ele>1312.7</ele>
        <time>2022-09-11T11:16:03Z</time>
      </trkpt>
      <trkpt lat="44.61813" lon="6.19364">
        <ele>1313</ele>
        <time>2022-09-11T11:16:04Z</time>
      </trkpt>
      <trkpt lat="44.61811" lon="6.19372">
        <ele>1313.3</ele>
        <time>2022-09-11T11:16:06Z</time>
      </trkpt>
      <trkpt lat="44.6181" lon="6.19375">
        <ele>1313.5</ele>
        <time>2022-09-11T11:16:08Z</time>
      </trkpt>
      <trkpt lat="44.61809" lon="6.19379">
        <ele>1313.7</ele>
        <time>2022-09-11T11:16:09Z</time>
      </trkpt>
      <trkpt lat="44.61809" lon="6.19383">
        <ele>1313.8</ele>
        <time>2022-09-11T11:16:10Z</time>
      </trkpt>
      <trkpt lat="44.61808" lon="6.19388">
        <ele>1314.1</ele>
        <time>2022-09-11T11:16:11Z</time>
      </trkpt>
      <trkpt lat="44.61808" lon="6.19389">
        <ele>1314.1</ele>
        <time>2022-09-11T11:16:12Z</time>
      </trkpt>
      <trkpt lat="44.61807" lon="6.19394">
        <ele>1314.3</ele>
        <time>2022-09-11T11:16:13Z</time>
      </trkpt>
      <trkpt lat="44.61806" lon="6.19396">
        <ele>1314.4</ele>
        <time>2022-09-11T11:16:14Z</time>
      </trkpt>
      <trkpt lat="44.61805" lon="6.194">
        <ele>1314.6</ele>
        <time>2022-09-11T11:16:15Z</time>
      </trkpt>
      <trkpt lat="44.61805" lon="6.19402">
        <ele>1314.7</ele>
        <time>2022-09-11T11:16:16Z</time>
      </trkpt>
      <trkpt lat="44.61805" lon="6.19407">
        <ele>1314.9</ele>
        <time>2022-09-11T11:16:17Z</time>
      </trkpt>
      <trkpt lat="44.61805" lon="6.19409">
        <ele>1315</ele>
        <time>2022-09-11T11:16:18Z</time>
      </trkpt>
      <trkpt lat="44.61804" lon="6.19415">
        <ele>1315.2</ele>
        <time>2022-09-11T11:16:19Z</time>
      </trkpt>
      <trkpt lat="44.61803" lon="6.1942">
        <ele>1315.4</ele>
        <time>2022-09-11T11:16:21Z</time>
      </trkpt>
      <trkpt lat="44.61803" lon="6.19423">
        <ele>1315.6</ele>
        <time>2022-09-11T11:16:22Z</time>
      </trkpt>
      <trkpt lat="44.61802" lon="6.1943">
        <ele>1315.9</ele>
        <time>2022-09-11T11:16:24Z</time>
      </trkpt>
      <trkpt lat="44.61801" lon="6.19435">
        <ele>1316.1</ele>
        <time>2022-09-11T11:16:25Z</time>
      </trkpt>
      <trkpt lat="44.61801" lon="6.19437">
        <ele>1316.2</ele>
        <time>2022-09-11T11:16:26Z</time>
      </trkpt>
      <trkpt lat="44.618" lon="6.19443">
        <ele>1316.4</ele>
        <time>2022-09-11T11:16:27Z</time>
      </trkpt>
      <trkpt lat="44.618" lon="6.19446">
        <ele>1316.6</ele>
        <time>2022-09-11T11:16:28Z</time>
      </trkpt>
      <trkpt lat="44.61799" lon="6.1945">
        <ele>1316.7</ele>
        <time>2022-09-11T11:16:29Z</time>
      </trkpt>
      <trkpt lat="44.61798" lon="6.19455">
        <ele>1316.9</ele>
        <time>2022-09-11T11:16:31Z</time>
      </trkpt>
      <trkpt lat="44.61798" lon="6.1946">
        <ele>1317.1</ele>
        <time>2022-09-11T11:16:32Z</time>
      </trkpt>
      <trkpt lat="44.61797" lon="6.19467">
        <ele>1317.4</ele>
        <time>2022-09-11T11:16:34Z</time>
      </trkpt>
      <trkpt lat="44.61796" lon="6.1947">
        <ele>1317.5</ele>
        <time>2022-09-11T11:16:35Z</time>
      </trkpt>
      <trkpt lat="44.61796" lon="6.19473">
        <ele>1317.7</ele>
        <time>2022-09-11T11:16:36Z</time>
      </trkpt>
      <trkpt lat="44.61796" lon="6.19478">
        <ele>1317.8</ele>
        <time>2022-09-11T11:16:37Z</time>
      </trkpt>
      <trkpt lat="44.61795" lon="6.19487">
        <ele>1318.1</ele>
        <time>2022-09-11T11:16:39Z</time>
      </trkpt>
      <trkpt lat="44.61795" lon="6.19491">
        <ele>1318.3</ele>
        <time>2022-09-11T11:16:40Z</time>
      </trkpt>
      <trkpt lat="44.61795" lon="6.19497">
        <ele>1318.5</ele>
        <time>2022-09-11T11:16:42Z</time>
      </trkpt>
      <trkpt lat="44.61795" lon="6.195">
        <ele>1318.6</ele>
        <time>2022-09-11T11:16:43Z</time>
      </trkpt>
      <trkpt lat="44.61795" lon="6.19502">
        <ele>1318.7</ele>
        <time>2022-09-11T11:16:44Z</time>
      </trkpt>
      <trkpt lat="44.61795" lon="6.19506">
        <ele>1318.8</ele>
        <time>2022-09-11T11:16:45Z</time>
      </trkpt>
      <trkpt lat="44.61795" lon="6.1951">
        <ele>1318.9</ele>
        <time>2022-09-11T11:16:46Z</time>
      </trkpt>
      <trkpt lat="44.61795" lon="6.19514">
        <ele>1319</ele>
        <time>2022-09-11T11:16:47Z</time>
      </trkpt>
      <trkpt lat="44.61795" lon="6.19518">
        <ele>1319.1</ele>
        <time>2022-09-11T11:16:48Z</time>
      </trkpt>
      <trkpt lat="44.61796" lon="6.19522">
        <ele>1319.2</ele>
        <time>2022-09-11T11:16:49Z</time>
      </trkpt>
      <trkpt lat="44.61796" lon="6.19526">
        <ele>1319.3</ele>
        <time>2022-09-11T11:16:50Z</time>
      </trkpt>
      <trkpt lat="44.61796" lon="6.1953">
        <ele>1319.4</ele>
        <time>2022-09-11T11:16:51Z</time>
      </trkpt>
      <trkpt lat="44.61796" lon="6.19535">
        <ele>1319.6</ele>
        <time>2022-09-11T11:16:52Z</time>
      </trkpt>
      <trkpt lat="44.61796" lon="6.1954">
        <ele>1319.7</ele>
        <time>2022-09-11T11:16:53Z</time>
      </trkpt>
      <trkpt lat="44.61796" lon="6.19542">
        <ele>1319.7</ele>
        <time>2022-09-11T11:16:54Z</time>
      </trkpt>
      <trkpt lat="44.61797" lon="6.19547">
        <ele>1319.8</ele>
        <time>2022-09-11T11:16:55Z</time>
      </trkpt>
      <trkpt lat="44.61797" lon="6.19551">
        <ele>1319.8</ele>
        <time>2022-09-11T11:16:56Z</time>
      </trkpt>
      <trkpt lat="44.61798" lon="6.19555">
        <ele>1319.9</ele>
        <time>2022-09-11T11:16:57Z</time>
      </trkpt>
      <trkpt lat="44.61799" lon="6.1956">
        <ele>1319.9</ele>
        <time>2022-09-11T11:16:58Z</time>
      </trkpt>
      <trkpt lat="44.618" lon="6.19567">
        <ele>1320</ele>
        <time>2022-09-11T11:16:59Z</time>
      </trkpt>
      <trkpt lat="44.61801" lon="6.19572">
        <ele>1320.1</ele>
        <time>2022-09-11T11:17:00Z</time>
      </trkpt>
      <trkpt lat="44.61803" lon="6.19577">
        <ele>1320.2</ele>
        <time>2022-09-11T11:17:02Z</time>
      </trkpt>
      <trkpt lat="44.61804" lon="6.19581">
        <ele>1320.3</ele>
        <time>2022-09-11T11:17:03Z</time>
      </trkpt>
      <trkpt lat="44.61806" lon="6.19588">
        <ele>1320.3</ele>
        <time>2022-09-11T11:17:04Z</time>
      </trkpt>
      <trkpt lat="44.61808" lon="6.19594">
        <ele>1320.4</ele>
        <time>2022-09-11T11:17:05Z</time>
      </trkpt>
      <trkpt lat="44.6181" lon="6.196">
        <ele>1320.5</ele>
        <time>2022-09-11T11:17:06Z</time>
      </trkpt>
      <trkpt lat="44.61811" lon="6.19605">
        <ele>1320.6</ele>
        <time>2022-09-11T11:17:07Z</time>
      </trkpt>
      <trkpt lat="44.61816" lon="6.19616">
        <ele>1320.7</ele>
        <time>2022-09-11T11:17:09Z</time>
      </trkpt>
      <trkpt lat="44.61818" lon="6.19621">
        <ele>1320.8</ele>
        <time>2022-09-11T11:17:10Z</time>
      </trkpt>
      <trkpt lat="44.61819" lon="6.19626">
        <ele>1320.8</ele>
        <time>2022-09-11T11:17:11Z</time>
      </trkpt>
      <trkpt lat="44.61822" lon="6.19631">
        <ele>1320.9</ele>
        <time>2022-09-11T11:17:13Z</time>
      </trkpt>
      <trkpt lat="44.61824" lon="6.19636">
        <ele>1320.9</ele>
        <time>2022-09-11T11:17:14Z</time>
      </trkpt>
      <trkpt lat="44.61828" lon="6.19644">
        <ele>1321</ele>
        <time>2022-09-11T11:17:15Z</time>
      </trkpt>
      <trkpt lat="44.61832" lon="6.1965">
        <ele>1321</ele>
        <time>2022-09-11T11:17:16Z</time>
      </trkpt>
      <trkpt lat="44.61836" lon="6.19655">
        <ele>1321.1</ele>
        <time>2022-09-11T11:17:18Z</time>
      </trkpt>
      <trkpt lat="44.61839" lon="6.19661">
        <ele>1321.1</ele>
        <time>2022-09-11T11:17:19Z</time>
      </trkpt>
      <trkpt lat="44.61841" lon="6.19666">
        <ele>1321.1</ele>
        <time>2022-09-11T11:17:20Z</time>
      </trkpt>
      <trkpt lat="44.61844" lon="6.19671">
        <ele>1321.1</ele>
        <time>2022-09-11T11:17:21Z</time>
      </trkpt>
      <trkpt lat="44.61848" lon="6.19677">
        <ele>1321.1</ele>
        <time>2022-09-11T11:17:22Z</time>
      </trkpt>
      <trkpt lat="44.6185" lon="6.19683">
        <ele>1321.1</ele>
        <time>2022-09-11T11:17:23Z</time>
      </trkpt>
      <trkpt lat="44.61853" lon="6.19689">
        <ele>1321</ele>
        <time>2022-09-11T11:17:24Z</time>
      </trkpt>
      <trkpt lat="44.61856" lon="6.19695">
        <ele>1321</ele>
        <time>2022-09-11T11:17:25Z</time>
      </trkpt>
      <trkpt lat="44.61859" lon="6.19702">
        <ele>1321</ele>
        <time>2022-09-11T11:17:26Z</time>
      </trkpt>
      <trkpt lat="44.61862" lon="6.19708">
        <ele>1320.9</ele>
        <time>2022-09-11T11:17:27Z</time>
      </trkpt>
      <trkpt lat="44.61865" lon="6.19714">
        <ele>1320.9</ele>
        <time>2022-09-11T11:17:28Z</time>
      </trkpt>
      <trkpt lat="44.61869" lon="6.19721">
        <ele>1320.9</ele>
        <time>2022-09-11T11:17:29Z</time>
      </trkpt>
      <trkpt lat="44.61872" lon="6.19727">
        <ele>1320.9</ele>
        <time>2022-09-11T11:17:30Z</time>
      </trkpt>
      <trkpt lat="44.61875" lon="6.19734">
        <ele>1320.8</ele>
        <time>2022-09-11T11:17:31Z</time>
      </trkpt>
      <trkpt lat="44.61878" lon="6.19741">
        <ele>1320.8</ele>
        <time>2022-09-11T11:17:32Z</time>
      </trkpt>
      <trkpt lat="44.61882" lon="6.19747">
        <ele>1320.8</ele>
        <time>2022-09-11T11:17:33Z</time>
      </trkpt>
      <trkpt lat="44.61884" lon="6.19754">
        <ele>1320.8</ele>
        <time>2022-09-11T11:17:34Z</time>
      </trkpt>
      <trkpt lat="44.61888" lon="6.1976">
        <ele>1320.8</ele>
        <time>2022-09-11T11:17:35Z</time>
      </trkpt>
      <trkpt lat="44.61891" lon="6.19767">
        <ele>1320.7</ele>
        <time>2022-09-11T11:17:36Z</time>
      </trkpt>
      <trkpt lat="44.61895" lon="6.19774">
        <ele>1320.7</ele>
        <time>2022-09-11T11:17:37Z</time>
      </trkpt>
      <trkpt lat="44.61898" lon="6.19781">
        <ele>1320.7</ele>
        <time>2022-09-11T11:17:38Z</time>
      </trkpt>
      <trkpt lat="44.61902" lon="6.19787">
        <ele>1320.7</ele>
        <time>2022-09-11T11:17:39Z</time>
      </trkpt>
      <trkpt lat="44.61905" lon="6.19794">
        <ele>1320.7</ele>
        <time>2022-09-11T11:17:40Z</time>
      </trkpt>
      <trkpt lat="44.61908" lon="6.198">
        <ele>1320.7</ele>
        <time>2022-09-11T11:17:41Z</time>
      </trkpt>
      <trkpt lat="44.61911" lon="6.19807">
        <ele>1320.8</ele>
        <time>2022-09-11T11:17:42Z</time>
      </trkpt>
      <trkpt lat="44.61915" lon="6.19813">
        <ele>1320.8</ele>
        <time>2022-09-11T11:17:43Z</time>
      </trkpt>
      <trkpt lat="44.61918" lon="6.1982">
        <ele>1320.8</ele>
        <time>2022-09-11T11:17:44Z</time>
      </trkpt>
      <trkpt lat="44.61921" lon="6.19827">
        <ele>1320.8</ele>
        <time>2022-09-11T11:17:45Z</time>
      </trkpt>
      <trkpt lat="44.61925" lon="6.19833">
        <ele>1320.9</ele>
        <time>2022-09-11T11:17:46Z</time>
      </trkpt>
      <trkpt lat="44.61928" lon="6.1984">
        <ele>1320.9</ele>
        <time>2022-09-11T11:17:47Z</time>
      </trkpt>
      <trkpt lat="44.61931" lon="6.19846">
        <ele>1320.9</ele>
        <time>2022-09-11T11:17:48Z</time>
      </trkpt>
      <trkpt lat="44.61934" lon="6.19852">
        <ele>1321</ele>
        <time>2022-09-11T11:17:49Z</time>
      </trkpt>
      <trkpt lat="44.61937" lon="6.19857">
        <ele>1321</ele>
        <time>2022-09-11T11:17:50Z</time>
      </trkpt>
      <trkpt lat="44.6194" lon="6.19864">
        <ele>1321.1</ele>
        <time>2022-09-11T11:17:51Z</time>
      </trkpt>
      <trkpt lat="44.61943" lon="6.1987">
        <ele>1321.2</ele>
        <time>2022-09-11T11:17:52Z</time>
      </trkpt>
      <trkpt lat="44.61946" lon="6.19876">
        <ele>1321.3</ele>
        <time>2022-09-11T11:17:53Z</time>
      </trkpt>
      <trkpt lat="44.61949" lon="6.19883">
        <ele>1321.3</ele>
        <time>2022-09-11T11:17:54Z</time>
      </trkpt>
      <trkpt lat="44.61951" lon="6.19889">
        <ele>1321.4</ele>
        <time>2022-09-11T11:17:55Z</time>
      </trkpt>
      <trkpt lat="44.61953" lon="6.19895">
        <ele>1321.5</ele>
        <time>2022-09-11T11:17:56Z</time>
      </trkpt>
      <trkpt lat="44.61954" lon="6.19902">
        <ele>1321.6</ele>
        <time>2022-09-11T11:17:57Z</time>
      </trkpt>
      <trkpt lat="44.61956" lon="6.19908">
        <ele>1321.7</ele>
        <time>2022-09-11T11:17:58Z</time>
      </trkpt>
      <trkpt lat="44.61958" lon="6.19914">
        <ele>1321.7</ele>
        <time>2022-09-11T11:17:59Z</time>
      </trkpt>
      <trkpt lat="44.6196" lon="6.19921">
        <ele>1321.8</ele>
        <time>2022-09-11T11:18:00Z</time>
      </trkpt>
      <trkpt lat="44.61961" lon="6.19927">
        <ele>1321.9</ele>
        <time>2022-09-11T11:18:01Z</time>
      </trkpt>
      <trkpt lat="44.61963" lon="6.19933">
        <ele>1322</ele>
        <time>2022-09-11T11:18:02Z</time>
      </trkpt>
      <trkpt lat="44.61964" lon="6.1994">
        <ele>1322.1</ele>
        <time>2022-09-11T11:18:03Z</time>
      </trkpt>
      <trkpt lat="44.61965" lon="6.19946">
        <ele>1322.2</ele>
        <time>2022-09-11T11:18:04Z</time>
      </trkpt>
      <trkpt lat="44.61967" lon="6.19952">
        <ele>1322.3</ele>
        <time>2022-09-11T11:18:05Z</time>
      </trkpt>
      <trkpt lat="44.61969" lon="6.19958">
        <ele>1322.4</ele>
        <time>2022-09-11T11:18:06Z</time>
      </trkpt>
      <trkpt lat="44.61971" lon="6.19964">
        <ele>1322.5</ele>
        <time>2022-09-11T11:18:07Z</time>
      </trkpt>
      <trkpt lat="44.61972" lon="6.19969">
        <ele>1322.6</ele>
        <time>2022-09-11T11:18:08Z</time>
      </trkpt>
      <trkpt lat="44.61973" lon="6.19974">
        <ele>1322.7</ele>
        <time>2022-09-11T11:18:09Z</time>
      </trkpt>
      <trkpt lat="44.61974" lon="6.1998">
        <ele>1322.8</ele>
        <time>2022-09-11T11:18:10Z</time>
      </trkpt>
      <trkpt lat="44.61974" lon="6.19985">
        <ele>1322.8</ele>
        <time>2022-09-11T11:18:11Z</time>
      </trkpt>
      <trkpt lat="44.61976" lon="6.19993">
        <ele>1323</ele>
        <time>2022-09-11T11:18:12Z</time>
      </trkpt>
      <trkpt lat="44.61978" lon="6.19999">
        <ele>1323.1</ele>
        <time>2022-09-11T11:18:13Z</time>
      </trkpt>
      <trkpt lat="44.61979" lon="6.20004">
        <ele>1323.2</ele>
        <time>2022-09-11T11:18:14Z</time>
      </trkpt>
      <trkpt lat="44.61978" lon="6.20008">
        <ele>1323.2</ele>
        <time>2022-09-11T11:18:15Z</time>
      </trkpt>
      <trkpt lat="44.6198" lon="6.20015">
        <ele>1323.3</ele>
        <time>2022-09-11T11:18:16Z</time>
      </trkpt>
      <trkpt lat="44.61982" lon="6.20022">
        <ele>1323.4</ele>
        <time>2022-09-11T11:18:17Z</time>
      </trkpt>
      <trkpt lat="44.61986" lon="6.20033">
        <ele>1323.5</ele>
        <time>2022-09-11T11:18:18Z</time>
      </trkpt>
      <trkpt lat="44.61987" lon="6.20042">
        <ele>1323.6</ele>
        <time>2022-09-11T11:18:20Z</time>
      </trkpt>
      <trkpt lat="44.61989" lon="6.20048">
        <ele>1323.6</ele>
        <time>2022-09-11T11:18:21Z</time>
      </trkpt>
      <trkpt lat="44.61992" lon="6.20054">
        <ele>1323.7</ele>
        <time>2022-09-11T11:18:22Z</time>
      </trkpt>
      <trkpt lat="44.61994" lon="6.2006">
        <ele>1323.7</ele>
        <time>2022-09-11T11:18:23Z</time>
      </trkpt>
      <trkpt lat="44.61997" lon="6.20067">
        <ele>1323.8</ele>
        <time>2022-09-11T11:18:24Z</time>
      </trkpt>
      <trkpt lat="44.62" lon="6.20072">
        <ele>1323.8</ele>
        <time>2022-09-11T11:18:25Z</time>
      </trkpt>
      <trkpt lat="44.62003" lon="6.20078">
        <ele>1323.9</ele>
        <time>2022-09-11T11:18:26Z</time>
      </trkpt>
      <trkpt lat="44.62006" lon="6.20085">
        <ele>1323.9</ele>
        <time>2022-09-11T11:18:27Z</time>
      </trkpt>
      <trkpt lat="44.62009" lon="6.20091">
        <ele>1324</ele>
        <time>2022-09-11T11:18:28Z</time>
      </trkpt>
      <trkpt lat="44.62012" lon="6.20097">
        <ele>1324.1</ele>
        <time>2022-09-11T11:18:29Z</time>
      </trkpt>
      <trkpt lat="44.62015" lon="6.20103">
        <ele>1324.1</ele>
        <time>2022-09-11T11:18:30Z</time>
      </trkpt>
      <trkpt lat="44.62018" lon="6.2011">
        <ele>1324.2</ele>
        <time>2022-09-11T11:18:31Z</time>
      </trkpt>
      <trkpt lat="44.62021" lon="6.20116">
        <ele>1324.2</ele>
        <time>2022-09-11T11:18:32Z</time>
      </trkpt>
      <trkpt lat="44.62023" lon="6.20122">
        <ele>1324.3</ele>
        <time>2022-09-11T11:18:33Z</time>
      </trkpt>
      <trkpt lat="44.62026" lon="6.20128">
        <ele>1324.3</ele>
        <time>2022-09-11T11:18:34Z</time>
      </trkpt>
      <trkpt lat="44.62028" lon="6.20134">
        <ele>1324.3</ele>
        <time>2022-09-11T11:18:35Z</time>
      </trkpt>
      <trkpt lat="44.62031" lon="6.2014">
        <ele>1324.4</ele>
        <time>2022-09-11T11:18:36Z</time>
      </trkpt>
      <trkpt lat="44.62034" lon="6.20146">
        <ele>1324.4</ele>
        <time>2022-09-11T11:18:37Z</time>
      </trkpt>
      <trkpt lat="44.62037" lon="6.20152">
        <ele>1324.4</ele>
        <time>2022-09-11T11:18:38Z</time>
      </trkpt>
      <trkpt lat="44.6204" lon="6.20158">
        <ele>1324.5</ele>
        <time>2022-09-11T11:18:39Z</time>
      </trkpt>
      <trkpt lat="44.62043" lon="6.20163">
        <ele>1324.5</ele>
        <time>2022-09-11T11:18:40Z</time>
      </trkpt>
      <trkpt lat="44.62047" lon="6.20168">
        <ele>1324.5</ele>
        <time>2022-09-11T11:18:41Z</time>
      </trkpt>
      <trkpt lat="44.62051" lon="6.20173">
        <ele>1324.5</ele>
        <time>2022-09-11T11:18:42Z</time>
      </trkpt>
      <trkpt lat="44.62055" lon="6.20178">
        <ele>1324.6</ele>
        <time>2022-09-11T11:18:43Z</time>
      </trkpt>
      <trkpt lat="44.62059" lon="6.20183">
        <ele>1324.6</ele>
        <time>2022-09-11T11:18:44Z</time>
      </trkpt>
      <trkpt lat="44.62063" lon="6.20188">
        <ele>1324.7</ele>
        <time>2022-09-11T11:18:45Z</time>
      </trkpt>
      <trkpt lat="44.62067" lon="6.20193">
        <ele>1324.7</ele>
        <time>2022-09-11T11:18:46Z</time>
      </trkpt>
      <trkpt lat="44.6207" lon="6.20198">
        <ele>1324.8</ele>
        <time>2022-09-11T11:18:47Z</time>
      </trkpt>
      <trkpt lat="44.62074" lon="6.20203">
        <ele>1324.9</ele>
        <time>2022-09-11T11:18:48Z</time>
      </trkpt>
      <trkpt lat="44.62078" lon="6.20208">
        <ele>1324.9</ele>
        <time>2022-09-11T11:18:49Z</time>
      </trkpt>
      <trkpt lat="44.62082" lon="6.20213">
        <ele>1325</ele>
        <time>2022-09-11T11:18:50Z</time>
      </trkpt>
      <trkpt lat="44.62086" lon="6.20218">
        <ele>1325.1</ele>
        <time>2022-09-11T11:18:51Z</time>
      </trkpt>
      <trkpt lat="44.62089" lon="6.20224">
        <ele>1325.2</ele>
        <time>2022-09-11T11:18:52Z</time>
      </trkpt>
      <trkpt lat="44.62093" lon="6.20229">
        <ele>1325.3</ele>
        <time>2022-09-11T11:18:53Z</time>
      </trkpt>
      <trkpt lat="44.62096" lon="6.20235">
        <ele>1325.4</ele>
        <time>2022-09-11T11:18:54Z</time>
      </trkpt>
      <trkpt lat="44.621" lon="6.2024">
        <ele>1325.5</ele>
        <time>2022-09-11T11:18:55Z</time>
      </trkpt>
      <trkpt lat="44.62103" lon="6.20246">
        <ele>1325.7</ele>
        <time>2022-09-11T11:18:56Z</time>
      </trkpt>
      <trkpt lat="44.62105" lon="6.2025">
        <ele>1325.8</ele>
        <time>2022-09-11T11:18:57Z</time>
      </trkpt>
      <trkpt lat="44.62107" lon="6.20254">
        <ele>1325.9</ele>
        <time>2022-09-11T11:18:58Z</time>
      </trkpt>
      <trkpt lat="44.6211" lon="6.20259">
        <ele>1326.1</ele>
        <time>2022-09-11T11:18:59Z</time>
      </trkpt>
      <trkpt lat="44.62111" lon="6.20262">
        <ele>1326.1</ele>
        <time>2022-09-11T11:19:00Z</time>
      </trkpt>
      <trkpt lat="44.62112" lon="6.20266">
        <ele>1326.2</ele>
        <time>2022-09-11T11:19:01Z</time>
      </trkpt>
      <trkpt lat="44.62114" lon="6.2027">
        <ele>1326.3</ele>
        <time>2022-09-11T11:19:02Z</time>
      </trkpt>
      <trkpt lat="44.62116" lon="6.20274">
        <ele>1326.3</ele>
        <time>2022-09-11T11:19:03Z</time>
      </trkpt>
      <trkpt lat="44.62117" lon="6.20279">
        <ele>1326.4</ele>
        <time>2022-09-11T11:19:04Z</time>
      </trkpt>
      <trkpt lat="44.62117" lon="6.20282">
        <ele>1326.4</ele>
        <time>2022-09-11T11:19:05Z</time>
      </trkpt>
      <trkpt lat="44.62118" lon="6.20287">
        <ele>1326.4</ele>
        <time>2022-09-11T11:19:06Z</time>
      </trkpt>
      <trkpt lat="44.62119" lon="6.20294">
        <ele>1326.5</ele>
        <time>2022-09-11T11:19:07Z</time>
      </trkpt>
      <trkpt lat="44.6212" lon="6.20301">
        <ele>1326.5</ele>
        <time>2022-09-11T11:19:08Z</time>
      </trkpt>
      <trkpt lat="44.62122" lon="6.20312">
        <ele>1326.6</ele>
        <time>2022-09-11T11:19:09Z</time>
      </trkpt>
      <trkpt lat="44.62123" lon="6.2032">
        <ele>1326.7</ele>
        <time>2022-09-11T11:19:11Z</time>
      </trkpt>
      <trkpt lat="44.62124" lon="6.20326">
        <ele>1326.8</ele>
        <time>2022-09-11T11:19:12Z</time>
      </trkpt>
      <trkpt lat="44.62125" lon="6.20331">
        <ele>1326.8</ele>
        <time>2022-09-11T11:19:13Z</time>
      </trkpt>
      <trkpt lat="44.62127" lon="6.20336">
        <ele>1326.9</ele>
        <time>2022-09-11T11:19:14Z</time>
      </trkpt>
      <trkpt lat="44.62127" lon="6.20343">
        <ele>1327</ele>
        <time>2022-09-11T11:19:15Z</time>
      </trkpt>
      <trkpt lat="44.62128" lon="6.20356">
        <ele>1327.1</ele>
        <time>2022-09-11T11:19:17Z</time>
      </trkpt>
      <trkpt lat="44.62129" lon="6.20362">
        <ele>1327.2</ele>
        <time>2022-09-11T11:19:18Z</time>
      </trkpt>
      <trkpt lat="44.62129" lon="6.20368">
        <ele>1327.3</ele>
        <time>2022-09-11T11:19:19Z</time>
      </trkpt>
      <trkpt lat="44.62129" lon="6.20375">
        <ele>1327.4</ele>
        <time>2022-09-11T11:19:20Z</time>
      </trkpt>
      <trkpt lat="44.6213" lon="6.20382">
        <ele>1327.5</ele>
        <time>2022-09-11T11:19:21Z</time>
      </trkpt>
      <trkpt lat="44.62132" lon="6.20386">
        <ele>1327.5</ele>
        <time>2022-09-11T11:19:22Z</time>
      </trkpt>
      <trkpt lat="44.62133" lon="6.20395">
        <ele>1327.7</ele>
        <time>2022-09-11T11:19:23Z</time>
      </trkpt>
      <trkpt lat="44.62134" lon="6.20403">
        <ele>1327.8</ele>
        <time>2022-09-11T11:19:24Z</time>
      </trkpt>
      <trkpt lat="44.62136" lon="6.2041">
        <ele>1327.9</ele>
        <time>2022-09-11T11:19:26Z</time>
      </trkpt>
      <trkpt lat="44.62136" lon="6.20417">
        <ele>1328</ele>
        <time>2022-09-11T11:19:27Z</time>
      </trkpt>
      <trkpt lat="44.62136" lon="6.2043">
        <ele>1328.3</ele>
        <time>2022-09-11T11:19:29Z</time>
      </trkpt>
      <trkpt lat="44.62137" lon="6.20437">
        <ele>1328.4</ele>
        <time>2022-09-11T11:19:30Z</time>
      </trkpt>
      <trkpt lat="44.62138" lon="6.20445">
        <ele>1328.6</ele>
        <time>2022-09-11T11:19:31Z</time>
      </trkpt>
      <trkpt lat="44.62138" lon="6.20451">
        <ele>1328.7</ele>
        <time>2022-09-11T11:19:32Z</time>
      </trkpt>
      <trkpt lat="44.62139" lon="6.20457">
        <ele>1328.8</ele>
        <time>2022-09-11T11:19:33Z</time>
      </trkpt>
      <trkpt lat="44.62139" lon="6.20463">
        <ele>1328.9</ele>
        <time>2022-09-11T11:19:34Z</time>
      </trkpt>
      <trkpt lat="44.62139" lon="6.20468">
        <ele>1329</ele>
        <time>2022-09-11T11:19:35Z</time>
      </trkpt>
      <trkpt lat="44.62139" lon="6.20476">
        <ele>1329.2</ele>
        <time>2022-09-11T11:19:36Z</time>
      </trkpt>
      <trkpt lat="44.62139" lon="6.20485">
        <ele>1329.4</ele>
        <time>2022-09-11T11:19:37Z</time>
      </trkpt>
      <trkpt lat="44.62139" lon="6.20492">
        <ele>1329.5</ele>
        <time>2022-09-11T11:19:39Z</time>
      </trkpt>
      <trkpt lat="44.62139" lon="6.20499">
        <ele>1329.7</ele>
        <time>2022-09-11T11:19:40Z</time>
      </trkpt>
      <trkpt lat="44.62139" lon="6.20506">
        <ele>1329.9</ele>
        <time>2022-09-11T11:19:41Z</time>
      </trkpt>
      <trkpt lat="44.62139" lon="6.20514">
        <ele>1330.1</ele>
        <time>2022-09-11T11:19:42Z</time>
      </trkpt>
      <trkpt lat="44.62139" lon="6.2052">
        <ele>1330.2</ele>
        <time>2022-09-11T11:19:44Z</time>
      </trkpt>
      <trkpt lat="44.6214" lon="6.20525">
        <ele>1330.3</ele>
        <time>2022-09-11T11:19:45Z</time>
      </trkpt>
      <trkpt lat="44.6214" lon="6.20536">
        <ele>1330.6</ele>
        <time>2022-09-11T11:19:46Z</time>
      </trkpt>
      <trkpt lat="44.6214" lon="6.20542">
        <ele>1330.8</ele>
        <time>2022-09-11T11:19:47Z</time>
      </trkpt>
      <trkpt lat="44.6214" lon="6.20547">
        <ele>1330.9</ele>
        <time>2022-09-11T11:19:48Z</time>
      </trkpt>
      <trkpt lat="44.62141" lon="6.20553">
        <ele>1331</ele>
        <time>2022-09-11T11:19:49Z</time>
      </trkpt>
      <trkpt lat="44.62141" lon="6.20564">
        <ele>1331.3</ele>
        <time>2022-09-11T11:19:51Z</time>
      </trkpt>
      <trkpt lat="44.62141" lon="6.20569">
        <ele>1331.4</ele>
        <time>2022-09-11T11:19:53Z</time>
      </trkpt>
      <trkpt lat="44.62142" lon="6.20574">
        <ele>1331.5</ele>
        <time>2022-09-11T11:19:54Z</time>
      </trkpt>
      <trkpt lat="44.62142" lon="6.20579">
        <ele>1331.6</ele>
        <time>2022-09-11T11:19:55Z</time>
      </trkpt>
      <trkpt lat="44.62142" lon="6.20584">
        <ele>1331.7</ele>
        <time>2022-09-11T11:19:56Z</time>
      </trkpt>
      <trkpt lat="44.62143" lon="6.20588">
        <ele>1331.9</ele>
        <time>2022-09-11T11:19:57Z</time>
      </trkpt>
      <trkpt lat="44.62144" lon="6.20599">
        <ele>1332.1</ele>
        <time>2022-09-11T11:19:59Z</time>
      </trkpt>
      <trkpt lat="44.62145" lon="6.20608">
        <ele>1332.3</ele>
        <time>2022-09-11T11:20:00Z</time>
      </trkpt>
      <trkpt lat="44.62147" lon="6.20614">
        <ele>1332.5</ele>
        <time>2022-09-11T11:20:02Z</time>
      </trkpt>
      <trkpt lat="44.62147" lon="6.20619">
        <ele>1332.6</ele>
        <time>2022-09-11T11:20:03Z</time>
      </trkpt>
      <trkpt lat="44.62148" lon="6.20623">
        <ele>1332.7</ele>
        <time>2022-09-11T11:20:04Z</time>
      </trkpt>
      <trkpt lat="44.6215" lon="6.20628">
        <ele>1332.8</ele>
        <time>2022-09-11T11:20:05Z</time>
      </trkpt>
      <trkpt lat="44.6215" lon="6.20633">
        <ele>1333</ele>
        <time>2022-09-11T11:20:06Z</time>
      </trkpt>
      <trkpt lat="44.62151" lon="6.20638">
        <ele>1333.1</ele>
        <time>2022-09-11T11:20:07Z</time>
      </trkpt>
      <trkpt lat="44.62152" lon="6.20642">
        <ele>1333.2</ele>
        <time>2022-09-11T11:20:08Z</time>
      </trkpt>
      <trkpt lat="44.62156" lon="6.20651">
        <ele>1333.5</ele>
        <time>2022-09-11T11:20:09Z</time>
      </trkpt>
      <trkpt lat="44.62157" lon="6.20657">
        <ele>1333.6</ele>
        <time>2022-09-11T11:20:11Z</time>
      </trkpt>
      <trkpt lat="44.62158" lon="6.20661">
        <ele>1333.7</ele>
        <time>2022-09-11T11:20:12Z</time>
      </trkpt>
      <trkpt lat="44.62159" lon="6.20666">
        <ele>1333.8</ele>
        <time>2022-09-11T11:20:13Z</time>
      </trkpt>
      <trkpt lat="44.62161" lon="6.20672">
        <ele>1333.9</ele>
        <time>2022-09-11T11:20:14Z</time>
      </trkpt>
      <trkpt lat="44.62162" lon="6.20677">
        <ele>1334</ele>
        <time>2022-09-11T11:20:15Z</time>
      </trkpt>
      <trkpt lat="44.62164" lon="6.20685">
        <ele>1334.2</ele>
        <time>2022-09-11T11:20:17Z</time>
      </trkpt>
      <trkpt lat="44.62167" lon="6.20692">
        <ele>1334.3</ele>
        <time>2022-09-11T11:20:18Z</time>
      </trkpt>
      <trkpt lat="44.62169" lon="6.20698">
        <ele>1334.5</ele>
        <time>2022-09-11T11:20:19Z</time>
      </trkpt>
      <trkpt lat="44.6217" lon="6.20704">
        <ele>1334.6</ele>
        <time>2022-09-11T11:20:21Z</time>
      </trkpt>
      <trkpt lat="44.62172" lon="6.20709">
        <ele>1334.7</ele>
        <time>2022-09-11T11:20:22Z</time>
      </trkpt>
      <trkpt lat="44.62174" lon="6.20713">
        <ele>1334.8</ele>
        <time>2022-09-11T11:20:23Z</time>
      </trkpt>
      <trkpt lat="44.62175" lon="6.20718">
        <ele>1334.9</ele>
        <time>2022-09-11T11:20:24Z</time>
      </trkpt>
      <trkpt lat="44.62176" lon="6.20724">
        <ele>1335.1</ele>
        <time>2022-09-11T11:20:25Z</time>
      </trkpt>
      <trkpt lat="44.62177" lon="6.20729">
        <ele>1335.2</ele>
        <time>2022-09-11T11:20:26Z</time>
      </trkpt>
      <trkpt lat="44.62179" lon="6.20738">
        <ele>1335.4</ele>
        <time>2022-09-11T11:20:27Z</time>
      </trkpt>
      <trkpt lat="44.6218" lon="6.20745">
        <ele>1335.5</ele>
        <time>2022-09-11T11:20:29Z</time>
      </trkpt>
      <trkpt lat="44.62181" lon="6.2075">
        <ele>1335.7</ele>
        <time>2022-09-11T11:20:30Z</time>
      </trkpt>
      <trkpt lat="44.62182" lon="6.20755">
        <ele>1335.7</ele>
        <time>2022-09-11T11:20:31Z</time>
      </trkpt>
      <trkpt lat="44.62183" lon="6.20759">
        <ele>1335.9</ele>
        <time>2022-09-11T11:20:32Z</time>
      </trkpt>
      <trkpt lat="44.62184" lon="6.20764">
        <ele>1336</ele>
        <time>2022-09-11T11:20:33Z</time>
      </trkpt>
      <trkpt lat="44.62185" lon="6.20769">
        <ele>1336.1</ele>
        <time>2022-09-11T11:20:34Z</time>
      </trkpt>
      <trkpt lat="44.62186" lon="6.20774">
        <ele>1336.2</ele>
        <time>2022-09-11T11:20:35Z</time>
      </trkpt>
      <trkpt lat="44.62187" lon="6.20779">
        <ele>1336.3</ele>
        <time>2022-09-11T11:20:36Z</time>
      </trkpt>
      <trkpt lat="44.62188" lon="6.20784">
        <ele>1336.4</ele>
        <time>2022-09-11T11:20:37Z</time>
      </trkpt>
      <trkpt lat="44.6219" lon="6.20789">
        <ele>1336.5</ele>
        <time>2022-09-11T11:20:38Z</time>
      </trkpt>
      <trkpt lat="44.6219" lon="6.20794">
        <ele>1336.6</ele>
        <time>2022-09-11T11:20:39Z</time>
      </trkpt>
      <trkpt lat="44.62191" lon="6.20798">
        <ele>1336.8</ele>
        <time>2022-09-11T11:20:40Z</time>
      </trkpt>
      <trkpt lat="44.62192" lon="6.20803">
        <ele>1336.9</ele>
        <time>2022-09-11T11:20:41Z</time>
      </trkpt>
      <trkpt lat="44.62194" lon="6.20808">
        <ele>1337</ele>
        <time>2022-09-11T11:20:42Z</time>
      </trkpt>
      <trkpt lat="44.62197" lon="6.20816">
        <ele>1337.3</ele>
        <time>2022-09-11T11:20:43Z</time>
      </trkpt>
      <trkpt lat="44.62197" lon="6.20826">
        <ele>1337.5</ele>
        <time>2022-09-11T11:20:45Z</time>
      </trkpt>
      <trkpt lat="44.62198" lon="6.20832">
        <ele>1337.7</ele>
        <time>2022-09-11T11:20:47Z</time>
      </trkpt>
      <trkpt lat="44.62199" lon="6.20837">
        <ele>1337.8</ele>
        <time>2022-09-11T11:20:48Z</time>
      </trkpt>
      <trkpt lat="44.62201" lon="6.20841">
        <ele>1337.9</ele>
        <time>2022-09-11T11:20:49Z</time>
      </trkpt>
      <trkpt lat="44.62202" lon="6.20845">
        <ele>1338</ele>
        <time>2022-09-11T11:20:50Z</time>
      </trkpt>
      <trkpt lat="44.62204" lon="6.2085">
        <ele>1338.1</ele>
        <time>2022-09-11T11:20:51Z</time>
      </trkpt>
      <trkpt lat="44.62205" lon="6.20855">
        <ele>1338.3</ele>
        <time>2022-09-11T11:20:52Z</time>
      </trkpt>
      <trkpt lat="44.62206" lon="6.20859">
        <ele>1338.4</ele>
        <time>2022-09-11T11:20:53Z</time>
      </trkpt>
      <trkpt lat="44.62206" lon="6.20864">
        <ele>1338.5</ele>
        <time>2022-09-11T11:20:54Z</time>
      </trkpt>
      <trkpt lat="44.62207" lon="6.20869">
        <ele>1338.7</ele>
        <time>2022-09-11T11:20:55Z</time>
      </trkpt>
      <trkpt lat="44.62208" lon="6.20874">
        <ele>1338.9</ele>
        <time>2022-09-11T11:20:56Z</time>
      </trkpt>
      <trkpt lat="44.62209" lon="6.20879">
        <ele>1339</ele>
        <time>2022-09-11T11:20:57Z</time>
      </trkpt>
      <trkpt lat="44.62209" lon="6.20883">
        <ele>1339.2</ele>
        <time>2022-09-11T11:20:58Z</time>
      </trkpt>
      <trkpt lat="44.6221" lon="6.20888">
        <ele>1339.3</ele>
        <time>2022-09-11T11:20:59Z</time>
      </trkpt>
      <trkpt lat="44.62212" lon="6.20893">
        <ele>1339.5</ele>
        <time>2022-09-11T11:21:00Z</time>
      </trkpt>
      <trkpt lat="44.62215" lon="6.20901">
        <ele>1339.8</ele>
        <time>2022-09-11T11:21:01Z</time>
      </trkpt>
      <trkpt lat="44.62216" lon="6.20907">
        <ele>1340</ele>
        <time>2022-09-11T11:21:03Z</time>
      </trkpt>
      <trkpt lat="44.62216" lon="6.20912">
        <ele>1340.2</ele>
        <time>2022-09-11T11:21:04Z</time>
      </trkpt>
      <trkpt lat="44.62217" lon="6.20917">
        <ele>1340.4</ele>
        <time>2022-09-11T11:21:05Z</time>
      </trkpt>
      <trkpt lat="44.62216" lon="6.20922">
        <ele>1340.6</ele>
        <time>2022-09-11T11:21:06Z</time>
      </trkpt>
      <trkpt lat="44.62216" lon="6.20927">
        <ele>1340.7</ele>
        <time>2022-09-11T11:21:07Z</time>
      </trkpt>
      <trkpt lat="44.62215" lon="6.20931">
        <ele>1341.2</ele>
        <time>2022-09-11T11:21:08Z</time>
      </trkpt>
      <trkpt lat="44.62212" lon="6.20935">
        <ele>1341.2</ele>
        <time>2022-09-11T11:21:09Z</time>
      </trkpt>
      <trkpt lat="44.62207" lon="6.20936">
        <ele>1341.2</ele>
        <time>2022-09-11T11:21:11Z</time>
      </trkpt>
      <trkpt lat="44.62202" lon="6.20935">
        <ele>1341.2</ele>
        <time>2022-09-11T11:21:12Z</time>
      </trkpt>
      <trkpt lat="44.62198" lon="6.20934">
        <ele>1341.2</ele>
        <time>2022-09-11T11:21:13Z</time>
      </trkpt>
      <trkpt lat="44.62193" lon="6.20934">
        <ele>1341.2</ele>
        <time>2022-09-11T11:21:14Z</time>
      </trkpt>
      <trkpt lat="44.62189" lon="6.20934">
        <ele>1341.3</ele>
        <time>2022-09-11T11:21:15Z</time>
      </trkpt>
      <trkpt lat="44.62185" lon="6.20934">
        <ele>1341.3</ele>
        <time>2022-09-11T11:21:16Z</time>
      </trkpt>
      <trkpt lat="44.62178" lon="6.20933">
        <ele>1341.4</ele>
        <time>2022-09-11T11:21:18Z</time>
      </trkpt>
      <trkpt lat="44.62175" lon="6.20934">
        <ele>1341.5</ele>
        <time>2022-09-11T11:21:20Z</time>
      </trkpt>
      <trkpt lat="44.6217" lon="6.20934">
        <ele>1341.5</ele>
        <time>2022-09-11T11:21:21Z</time>
      </trkpt>
      <trkpt lat="44.62165" lon="6.20933">
        <ele>1341.6</ele>
        <time>2022-09-11T11:21:22Z</time>
      </trkpt>
      <trkpt lat="44.62161" lon="6.20932">
        <ele>1341.7</ele>
        <time>2022-09-11T11:21:23Z</time>
      </trkpt>
      <trkpt lat="44.62156" lon="6.20932">
        <ele>1341.8</ele>
        <time>2022-09-11T11:21:24Z</time>
      </trkpt>
      <trkpt lat="44.62152" lon="6.20931">
        <ele>1341.9</ele>
        <time>2022-09-11T11:21:26Z</time>
      </trkpt>
      <trkpt lat="44.62148" lon="6.20931">
        <ele>1342</ele>
        <time>2022-09-11T11:21:27Z</time>
      </trkpt>
      <trkpt lat="44.62145" lon="6.20931">
        <ele>1342.1</ele>
        <time>2022-09-11T11:21:28Z</time>
      </trkpt>
      <trkpt lat="44.62141" lon="6.20931">
        <ele>1342.2</ele>
        <time>2022-09-11T11:21:29Z</time>
      </trkpt>
      <trkpt lat="44.62137" lon="6.20931">
        <ele>1342.3</ele>
        <time>2022-09-11T11:21:30Z</time>
      </trkpt>
      <trkpt lat="44.62134" lon="6.2093">
        <ele>1342.4</ele>
        <time>2022-09-11T11:21:31Z</time>
      </trkpt>
      <trkpt lat="44.62131" lon="6.20929">
        <ele>1342.5</ele>
        <time>2022-09-11T11:21:32Z</time>
      </trkpt>
      <trkpt lat="44.62128" lon="6.20929">
        <ele>1342.6</ele>
        <time>2022-09-11T11:21:33Z</time>
      </trkpt>
      <trkpt lat="44.62121" lon="6.20929">
        <ele>1342.8</ele>
        <time>2022-09-11T11:21:34Z</time>
      </trkpt>
      <trkpt lat="44.62115" lon="6.20928">
        <ele>1343</ele>
        <time>2022-09-11T11:21:36Z</time>
      </trkpt>
      <trkpt lat="44.62111" lon="6.20928">
        <ele>1343.2</ele>
        <time>2022-09-11T11:21:38Z</time>
      </trkpt>
      <trkpt lat="44.62108" lon="6.20928">
        <ele>1343.3</ele>
        <time>2022-09-11T11:21:39Z</time>
      </trkpt>
      <trkpt lat="44.62105" lon="6.20928">
        <ele>1343.4</ele>
        <time>2022-09-11T11:21:40Z</time>
      </trkpt>
      <trkpt lat="44.62102" lon="6.20928">
        <ele>1343.5</ele>
        <time>2022-09-11T11:21:41Z</time>
      </trkpt>
      <trkpt lat="44.62098" lon="6.20928">
        <ele>1343.7</ele>
        <time>2022-09-11T11:21:42Z</time>
      </trkpt>
      <trkpt lat="44.62097" lon="6.20928">
        <ele>1343.7</ele>
        <time>2022-09-11T11:21:43Z</time>
      </trkpt>
      <trkpt lat="44.62091" lon="6.20927">
        <ele>1344</ele>
        <time>2022-09-11T11:21:44Z</time>
      </trkpt>
      <trkpt lat="44.62087" lon="6.20927">
        <ele>1344.1</ele>
        <time>2022-09-11T11:21:46Z</time>
      </trkpt>
      <trkpt lat="44.62081" lon="6.20926">
        <ele>1344.4</ele>
        <time>2022-09-11T11:21:47Z</time>
      </trkpt>
      <trkpt lat="44.62075" lon="6.20926">
        <ele>1344.7</ele>
        <time>2022-09-11T11:21:49Z</time>
      </trkpt>
      <trkpt lat="44.62071" lon="6.20926">
        <ele>1344.8</ele>
        <time>2022-09-11T11:21:51Z</time>
      </trkpt>
      <trkpt lat="44.62068" lon="6.20926">
        <ele>1345</ele>
        <time>2022-09-11T11:21:52Z</time>
      </trkpt>
      <trkpt lat="44.62064" lon="6.20926">
        <ele>1345.2</ele>
        <time>2022-09-11T11:21:53Z</time>
      </trkpt>
      <trkpt lat="44.62061" lon="6.20925">
        <ele>1345.3</ele>
        <time>2022-09-11T11:21:54Z</time>
      </trkpt>
      <trkpt lat="44.62057" lon="6.20925">
        <ele>1345.5</ele>
        <time>2022-09-11T11:21:55Z</time>
      </trkpt>
      <trkpt lat="44.62053" lon="6.20925">
        <ele>1345.7</ele>
        <time>2022-09-11T11:21:57Z</time>
      </trkpt>
      <trkpt lat="44.6205" lon="6.20925">
        <ele>1345.8</ele>
        <time>2022-09-11T11:21:58Z</time>
      </trkpt>
      <trkpt lat="44.62045" lon="6.20925">
        <ele>1346</ele>
        <time>2022-09-11T11:21:59Z</time>
      </trkpt>
      <trkpt lat="44.62041" lon="6.20925">
        <ele>1346.2</ele>
        <time>2022-09-11T11:22:01Z</time>
      </trkpt>
      <trkpt lat="44.62037" lon="6.20925">
        <ele>1346.3</ele>
        <time>2022-09-11T11:22:02Z</time>
      </trkpt>
      <trkpt lat="44.62034" lon="6.20925">
        <ele>1346.5</ele>
        <time>2022-09-11T11:22:03Z</time>
      </trkpt>
      <trkpt lat="44.6203" lon="6.20925">
        <ele>1346.6</ele>
        <time>2022-09-11T11:22:04Z</time>
      </trkpt>
      <trkpt lat="44.62026" lon="6.20924">
        <ele>1346.8</ele>
        <time>2022-09-11T11:22:06Z</time>
      </trkpt>
      <trkpt lat="44.62023" lon="6.20924">
        <ele>1346.9</ele>
        <time>2022-09-11T11:22:07Z</time>
      </trkpt>
      <trkpt lat="44.6202" lon="6.20923">
        <ele>1347</ele>
        <time>2022-09-11T11:22:08Z</time>
      </trkpt>
      <trkpt lat="44.62016" lon="6.20923">
        <ele>1347.1</ele>
        <time>2022-09-11T11:22:09Z</time>
      </trkpt>
      <trkpt lat="44.62013" lon="6.20923">
        <ele>1347.3</ele>
        <time>2022-09-11T11:22:10Z</time>
      </trkpt>
      <trkpt lat="44.62006" lon="6.20923">
        <ele>1347.5</ele>
        <time>2022-09-11T11:22:11Z</time>
      </trkpt>
      <trkpt lat="44.62003" lon="6.20923">
        <ele>1347.7</ele>
        <time>2022-09-11T11:22:13Z</time>
      </trkpt>
      <trkpt lat="44.61999" lon="6.20922">
        <ele>1347.8</ele>
        <time>2022-09-11T11:22:14Z</time>
      </trkpt>
      <trkpt lat="44.61995" lon="6.20922">
        <ele>1348</ele>
        <time>2022-09-11T11:22:15Z</time>
      </trkpt>
      <trkpt lat="44.61991" lon="6.20921">
        <ele>1348.1</ele>
        <time>2022-09-11T11:22:16Z</time>
      </trkpt>
      <trkpt lat="44.61988" lon="6.2092">
        <ele>1348.3</ele>
        <time>2022-09-11T11:22:17Z</time>
      </trkpt>
      <trkpt lat="44.61984" lon="6.20919">
        <ele>1348.5</ele>
        <time>2022-09-11T11:22:18Z</time>
      </trkpt>
      <trkpt lat="44.61983" lon="6.20919">
        <ele>1348.5</ele>
        <time>2022-09-11T11:22:19Z</time>
      </trkpt>
      <trkpt lat="44.6198" lon="6.20918">
        <ele>1348.7</ele>
        <time>2022-09-11T11:22:20Z</time>
      </trkpt>
      <trkpt lat="44.61977" lon="6.20917">
        <ele>1348.8</ele>
        <time>2022-09-11T11:22:21Z</time>
      </trkpt>
      <trkpt lat="44.61973" lon="6.20916">
        <ele>1349</ele>
        <time>2022-09-11T11:22:22Z</time>
      </trkpt>
      <trkpt lat="44.6197" lon="6.20915">
        <ele>1349.2</ele>
        <time>2022-09-11T11:22:23Z</time>
      </trkpt>
      <trkpt lat="44.61966" lon="6.20914">
        <ele>1349.4</ele>
        <time>2022-09-11T11:22:24Z</time>
      </trkpt>
      <trkpt lat="44.61963" lon="6.20914">
        <ele>1349.5</ele>
        <time>2022-09-11T11:22:25Z</time>
      </trkpt>
      <trkpt lat="44.61961" lon="6.20913">
        <ele>1349.7</ele>
        <time>2022-09-11T11:22:27Z</time>
      </trkpt>
      <trkpt lat="44.61957" lon="6.20913">
        <ele>1349.9</ele>
        <time>2022-09-11T11:22:28Z</time>
      </trkpt>
      <trkpt lat="44.61956" lon="6.20912">
        <ele>1349.9</ele>
        <time>2022-09-11T11:22:29Z</time>
      </trkpt>
      <trkpt lat="44.61952" lon="6.20911">
        <ele>1350.1</ele>
        <time>2022-09-11T11:22:30Z</time>
      </trkpt>
      <trkpt lat="44.61951" lon="6.2091">
        <ele>1350.2</ele>
        <time>2022-09-11T11:22:31Z</time>
      </trkpt>
      <trkpt lat="44.61947" lon="6.20909">
        <ele>1350.4</ele>
        <time>2022-09-11T11:22:32Z</time>
      </trkpt>
      <trkpt lat="44.61946" lon="6.20909">
        <ele>1350.5</ele>
        <time>2022-09-11T11:22:33Z</time>
      </trkpt>
      <trkpt lat="44.61943" lon="6.20908">
        <ele>1350.6</ele>
        <time>2022-09-11T11:22:34Z</time>
      </trkpt>
      <trkpt lat="44.61939" lon="6.20907">
        <ele>1350.8</ele>
        <time>2022-09-11T11:22:35Z</time>
      </trkpt>
      <trkpt lat="44.61936" lon="6.20906">
        <ele>1351</ele>
        <time>2022-09-11T11:22:36Z</time>
      </trkpt>
      <trkpt lat="44.61932" lon="6.20906">
        <ele>1351.2</ele>
        <time>2022-09-11T11:22:38Z</time>
      </trkpt>
      <trkpt lat="44.61929" lon="6.20906">
        <ele>1351.4</ele>
        <time>2022-09-11T11:22:39Z</time>
      </trkpt>
      <trkpt lat="44.61924" lon="6.20906">
        <ele>1351.6</ele>
        <time>2022-09-11T11:22:40Z</time>
      </trkpt>
      <trkpt lat="44.61921" lon="6.20906">
        <ele>1351.8</ele>
        <time>2022-09-11T11:22:42Z</time>
      </trkpt>
      <trkpt lat="44.61917" lon="6.20908">
        <ele>1352</ele>
        <time>2022-09-11T11:22:43Z</time>
      </trkpt>
      <trkpt lat="44.61914" lon="6.20908">
        <ele>1352.1</ele>
        <time>2022-09-11T11:22:44Z</time>
      </trkpt>
      <trkpt lat="44.61911" lon="6.20908">
        <ele>1352.3</ele>
        <time>2022-09-11T11:22:45Z</time>
      </trkpt>
      <trkpt lat="44.61907" lon="6.20907">
        <ele>1352.4</ele>
        <time>2022-09-11T11:22:46Z</time>
      </trkpt>
      <trkpt lat="44.61904" lon="6.20909">
        <ele>1352.6</ele>
        <time>2022-09-11T11:22:47Z</time>
      </trkpt>
      <trkpt lat="44.619" lon="6.20909">
        <ele>1352.8</ele>
        <time>2022-09-11T11:22:49Z</time>
      </trkpt>
      <trkpt lat="44.61897" lon="6.20909">
        <ele>1352.9</ele>
        <time>2022-09-11T11:22:50Z</time>
      </trkpt>
      <trkpt lat="44.61895" lon="6.20911">
        <ele>1353</ele>
        <time>2022-09-11T11:22:51Z</time>
      </trkpt>
      <trkpt lat="44.61892" lon="6.20913">
        <ele>1353.1</ele>
        <time>2022-09-11T11:22:52Z</time>
      </trkpt>
      <trkpt lat="44.61889" lon="6.20913">
        <ele>1353.2</ele>
        <time>2022-09-11T11:22:53Z</time>
      </trkpt>
      <trkpt lat="44.61886" lon="6.20914">
        <ele>1353.4</ele>
        <time>2022-09-11T11:22:54Z</time>
      </trkpt>
      <trkpt lat="44.6188" lon="6.20916">
        <ele>1353.6</ele>
        <time>2022-09-11T11:22:55Z</time>
      </trkpt>
      <trkpt lat="44.61877" lon="6.20919">
        <ele>1353.8</ele>
        <time>2022-09-11T11:22:57Z</time>
      </trkpt>
      <trkpt lat="44.61874" lon="6.2092">
        <ele>1353.9</ele>
        <time>2022-09-11T11:22:58Z</time>
      </trkpt>
      <trkpt lat="44.61868" lon="6.20924">
        <ele>1354.2</ele>
        <time>2022-09-11T11:22:59Z</time>
      </trkpt>
      <trkpt lat="44.61865" lon="6.20925">
        <ele>1354.3</ele>
        <time>2022-09-11T11:23:01Z</time>
      </trkpt>
      <trkpt lat="44.61862" lon="6.20927">
        <ele>1354.5</ele>
        <time>2022-09-11T11:23:02Z</time>
      </trkpt>
      <trkpt lat="44.6186" lon="6.20929">
        <ele>1354.6</ele>
        <time>2022-09-11T11:23:03Z</time>
      </trkpt>
      <trkpt lat="44.61857" lon="6.20931">
        <ele>1354.7</ele>
        <time>2022-09-11T11:23:04Z</time>
      </trkpt>
      <trkpt lat="44.61854" lon="6.20932">
        <ele>1354.9</ele>
        <time>2022-09-11T11:23:05Z</time>
      </trkpt>
      <trkpt lat="44.61851" lon="6.2093">
        <ele>1355</ele>
        <time>2022-09-11T11:23:06Z</time>
      </trkpt>
      <trkpt lat="44.61851" lon="6.20928">
        <ele>1355</ele>
        <time>2022-09-11T11:23:07Z</time>
      </trkpt>
      <trkpt lat="44.61851" lon="6.20927">
        <ele>1355.1</ele>
        <time>2022-09-11T11:23:09Z</time>
      </trkpt>
      <trkpt lat="44.61851" lon="6.20927">
        <ele>1355.1</ele>
        <time>2022-09-11T11:23:10Z</time>
      </trkpt>
      <trkpt lat="44.61852" lon="6.20926">
        <ele>1355.1</ele>
        <time>2022-09-11T11:23:11Z</time>
      </trkpt>
      <trkpt lat="44.61852" lon="6.20926">
        <ele>1355.1</ele>
        <time>2022-09-11T11:23:12Z</time>
      </trkpt>
      <trkpt lat="44.61853" lon="6.20926">
        <ele>1355.2</ele>
        <time>2022-09-11T11:23:13Z</time>
      </trkpt>
      <trkpt lat="44.61853" lon="6.20926">
        <ele>1355.2</ele>
        <time>2022-09-11T11:23:14Z</time>
      </trkpt>
      <trkpt lat="44.61853" lon="6.20925">
        <ele>1355.2</ele>
        <time>2022-09-11T11:23:15Z</time>
      </trkpt>
      <trkpt lat="44.61853" lon="6.20925">
        <ele>1355.2</ele>
        <time>2022-09-11T11:23:16Z</time>
      </trkpt>
      <trkpt lat="44.61853" lon="6.20925">
        <ele>1355.2</ele>
        <time>2022-09-11T11:23:17Z</time>
      </trkpt>
      <trkpt lat="44.61853" lon="6.20924">
        <ele>1355.2</ele>
        <time>2022-09-11T11:23:18Z</time>
      </trkpt>
      <trkpt lat="44.61853" lon="6.20924">
        <ele>1355.2</ele>
        <time>2022-09-11T11:23:19Z</time>
      </trkpt>
      <trkpt lat="44.61854" lon="6.20924">
        <ele>1355.2</ele>
        <time>2022-09-11T11:23:20Z</time>
      </trkpt>
      <trkpt lat="44.61854" lon="6.20924">
        <ele>1355.2</ele>
        <time>2022-09-11T11:23:21Z</time>
      </trkpt>
      <trkpt lat="44.61854" lon="6.20924">
        <ele>1355.3</ele>
        <time>2022-09-11T11:23:22Z</time>
      </trkpt>
      <trkpt lat="44.61854" lon="6.20924">
        <ele>1355.3</ele>
        <time>2022-09-11T11:23:23Z</time>
      </trkpt>
      <trkpt lat="44.61854" lon="6.20924">
        <ele>1355.3</ele>
        <time>2022-09-11T11:23:24Z</time>
      </trkpt>
      <trkpt lat="44.61854" lon="6.20923">
        <ele>1355.3</ele>
        <time>2022-09-11T11:23:26Z</time>
      </trkpt>
      <trkpt lat="44.61854" lon="6.20923">
        <ele>1355.3</ele>
        <time>2022-09-11T11:23:27Z</time>
      </trkpt>
      <trkpt lat="44.61854" lon="6.20923">
        <ele>1355.3</ele>
        <time>2022-09-11T11:23:28Z</time>
      </trkpt>
      <trkpt lat="44.61854" lon="6.20923">
        <ele>1355.3</ele>
        <time>2022-09-11T11:23:29Z</time>
      </trkpt>
      <trkpt lat="44.6185" lon="6.20932">
        <ele>1355.5</ele>
        <time>2022-09-11T11:35:24Z</time>
      </trkpt>
      <trkpt lat="44.61847" lon="6.20938">
        <ele>1355.8</ele>
        <time>2022-09-11T11:35:26Z</time>
      </trkpt>
      <trkpt lat="44.61845" lon="6.20941">
        <ele>1356</ele>
        <time>2022-09-11T11:35:27Z</time>
      </trkpt>
      <trkpt lat="44.61844" lon="6.20943">
        <ele>1356</ele>
        <time>2022-09-11T11:35:28Z</time>
      </trkpt>
      <trkpt lat="44.61841" lon="6.20946">
        <ele>1356.2</ele>
        <time>2022-09-11T11:35:29Z</time>
      </trkpt>
      <trkpt lat="44.6184" lon="6.20947">
        <ele>1356.3</ele>
        <time>2022-09-11T11:35:30Z</time>
      </trkpt>
      <trkpt lat="44.61836" lon="6.20949">
        <ele>1356.4</ele>
        <time>2022-09-11T11:35:32Z</time>
      </trkpt>
      <trkpt lat="44.61835" lon="6.2095">
        <ele>1356.5</ele>
        <time>2022-09-11T11:35:33Z</time>
      </trkpt>
      <trkpt lat="44.61833" lon="6.20952">
        <ele>1356.6</ele>
        <time>2022-09-11T11:35:34Z</time>
      </trkpt>
      <trkpt lat="44.61828" lon="6.20955">
        <ele>1356.8</ele>
        <time>2022-09-11T11:35:35Z</time>
      </trkpt>
      <trkpt lat="44.61827" lon="6.20957">
        <ele>1356.9</ele>
        <time>2022-09-11T11:35:36Z</time>
      </trkpt>
      <trkpt lat="44.61824" lon="6.20959">
        <ele>1357.1</ele>
        <time>2022-09-11T11:35:37Z</time>
      </trkpt>
      <trkpt lat="44.61821" lon="6.20962">
        <ele>1357.2</ele>
        <time>2022-09-11T11:35:39Z</time>
      </trkpt>
      <trkpt lat="44.61818" lon="6.20964">
        <ele>1357.4</ele>
        <time>2022-09-11T11:35:40Z</time>
      </trkpt>
      <trkpt lat="44.61815" lon="6.20966">
        <ele>1357.5</ele>
        <time>2022-09-11T11:35:41Z</time>
      </trkpt>
      <trkpt lat="44.61811" lon="6.20969">
        <ele>1357.7</ele>
        <time>2022-09-11T11:35:43Z</time>
      </trkpt>
      <trkpt lat="44.61809" lon="6.20971">
        <ele>1357.8</ele>
        <time>2022-09-11T11:35:44Z</time>
      </trkpt>
      <trkpt lat="44.61808" lon="6.20972">
        <ele>1357.8</ele>
        <time>2022-09-11T11:35:45Z</time>
      </trkpt>
      <trkpt lat="44.61804" lon="6.20974">
        <ele>1358</ele>
        <time>2022-09-11T11:35:46Z</time>
      </trkpt>
      <trkpt lat="44.61803" lon="6.20975">
        <ele>1358.1</ele>
        <time>2022-09-11T11:35:47Z</time>
      </trkpt>
      <trkpt lat="44.61799" lon="6.20978">
        <ele>1358.3</ele>
        <time>2022-09-11T11:35:48Z</time>
      </trkpt>
      <trkpt lat="44.61797" lon="6.20979">
        <ele>1358.3</ele>
        <time>2022-09-11T11:35:49Z</time>
      </trkpt>
      <trkpt lat="44.61793" lon="6.20982">
        <ele>1358.4</ele>
        <time>2022-09-11T11:35:51Z</time>
      </trkpt>
      <trkpt lat="44.6179" lon="6.20984">
        <ele>1358.5</ele>
        <time>2022-09-11T11:35:53Z</time>
      </trkpt>
      <trkpt lat="44.61787" lon="6.20987">
        <ele>1358.6</ele>
        <time>2022-09-11T11:35:54Z</time>
      </trkpt>
      <trkpt lat="44.61786" lon="6.20988">
        <ele>1358.6</ele>
        <time>2022-09-11T11:35:55Z</time>
      </trkpt>
      <trkpt lat="44.61781" lon="6.20991">
        <ele>1358.8</ele>
        <time>2022-09-11T11:35:56Z</time>
      </trkpt>
      <trkpt lat="44.61776" lon="6.20995">
        <ele>1358.9</ele>
        <time>2022-09-11T11:35:58Z</time>
      </trkpt>
      <trkpt lat="44.61774" lon="6.20997">
        <ele>1359</ele>
        <time>2022-09-11T11:35:59Z</time>
      </trkpt>
      <trkpt lat="44.61772" lon="6.20999">
        <ele>1359.1</ele>
        <time>2022-09-11T11:36:00Z</time>
      </trkpt>
      <trkpt lat="44.61767" lon="6.21003">
        <ele>1359.3</ele>
        <time>2022-09-11T11:36:02Z</time>
      </trkpt>
      <trkpt lat="44.61763" lon="6.21006">
        <ele>1359.5</ele>
        <time>2022-09-11T11:36:04Z</time>
      </trkpt>
      <trkpt lat="44.61761" lon="6.21008">
        <ele>1359.6</ele>
        <time>2022-09-11T11:36:05Z</time>
      </trkpt>
      <trkpt lat="44.61757" lon="6.2101">
        <ele>1359.7</ele>
        <time>2022-09-11T11:36:06Z</time>
      </trkpt>
      <trkpt lat="44.61755" lon="6.21012">
        <ele>1359.9</ele>
        <time>2022-09-11T11:36:07Z</time>
      </trkpt>
      <trkpt lat="44.61753" lon="6.21015">
        <ele>1360</ele>
        <time>2022-09-11T11:36:08Z</time>
      </trkpt>
      <trkpt lat="44.6175" lon="6.21017">
        <ele>1360.1</ele>
        <time>2022-09-11T11:36:10Z</time>
      </trkpt>
      <trkpt lat="44.61747" lon="6.21019">
        <ele>1360.2</ele>
        <time>2022-09-11T11:36:11Z</time>
      </trkpt>
      <trkpt lat="44.61744" lon="6.21022">
        <ele>1360.4</ele>
        <time>2022-09-11T11:36:12Z</time>
      </trkpt>
      <trkpt lat="44.61741" lon="6.21024">
        <ele>1360.5</ele>
        <time>2022-09-11T11:36:13Z</time>
      </trkpt>
      <trkpt lat="44.61738" lon="6.21028">
        <ele>1360.7</ele>
        <time>2022-09-11T11:36:15Z</time>
      </trkpt>
      <trkpt lat="44.61737" lon="6.21029">
        <ele>1360.8</ele>
        <time>2022-09-11T11:36:16Z</time>
      </trkpt>
      <trkpt lat="44.61733" lon="6.21031">
        <ele>1360.9</ele>
        <time>2022-09-11T11:36:17Z</time>
      </trkpt>
      <trkpt lat="44.6173" lon="6.21034">
        <ele>1361.1</ele>
        <time>2022-09-11T11:36:19Z</time>
      </trkpt>
      <trkpt lat="44.61727" lon="6.21037">
        <ele>1361.3</ele>
        <time>2022-09-11T11:36:20Z</time>
      </trkpt>
      <trkpt lat="44.61725" lon="6.21039">
        <ele>1361.4</ele>
        <time>2022-09-11T11:36:21Z</time>
      </trkpt>
      <trkpt lat="44.61721" lon="6.21042">
        <ele>1361.6</ele>
        <time>2022-09-11T11:36:22Z</time>
      </trkpt>
      <trkpt lat="44.61719" lon="6.21043">
        <ele>1361.7</ele>
        <time>2022-09-11T11:36:23Z</time>
      </trkpt>
      <trkpt lat="44.61716" lon="6.21046">
        <ele>1362</ele>
        <time>2022-09-11T11:36:25Z</time>
      </trkpt>
      <trkpt lat="44.61713" lon="6.21049">
        <ele>1362.2</ele>
        <time>2022-09-11T11:36:26Z</time>
      </trkpt>
      <trkpt lat="44.61712" lon="6.2105">
        <ele>1362.2</ele>
        <time>2022-09-11T11:36:27Z</time>
      </trkpt>
      <trkpt lat="44.61709" lon="6.21052">
        <ele>1362.4</ele>
        <time>2022-09-11T11:36:28Z</time>
      </trkpt>
      <trkpt lat="44.61707" lon="6.21054">
        <ele>1362.6</ele>
        <time>2022-09-11T11:36:29Z</time>
      </trkpt>
      <trkpt lat="44.61703" lon="6.21057">
        <ele>1362.8</ele>
        <time>2022-09-11T11:36:30Z</time>
      </trkpt>
      <trkpt lat="44.61701" lon="6.21058">
        <ele>1362.9</ele>
        <time>2022-09-11T11:36:31Z</time>
      </trkpt>
      <trkpt lat="44.61699" lon="6.2106">
        <ele>1363.1</ele>
        <time>2022-09-11T11:36:33Z</time>
      </trkpt>
      <trkpt lat="44.61695" lon="6.21064">
        <ele>1363.4</ele>
        <time>2022-09-11T11:36:34Z</time>
      </trkpt>
      <trkpt lat="44.61693" lon="6.21065">
        <ele>1363.6</ele>
        <time>2022-09-11T11:36:35Z</time>
      </trkpt>
      <trkpt lat="44.6169" lon="6.21068">
        <ele>1363.8</ele>
        <time>2022-09-11T11:36:37Z</time>
      </trkpt>
      <trkpt lat="44.61686" lon="6.21071">
        <ele>1364.1</ele>
        <time>2022-09-11T11:36:38Z</time>
      </trkpt>
      <trkpt lat="44.61684" lon="6.21073">
        <ele>1364.2</ele>
        <time>2022-09-11T11:36:39Z</time>
      </trkpt>
      <trkpt lat="44.61681" lon="6.21075">
        <ele>1364.4</ele>
        <time>2022-09-11T11:36:41Z</time>
      </trkpt>
      <trkpt lat="44.61678" lon="6.21078">
        <ele>1364.6</ele>
        <time>2022-09-11T11:36:42Z</time>
      </trkpt>
      <trkpt lat="44.61677" lon="6.21079">
        <ele>1364.7</ele>
        <time>2022-09-11T11:36:43Z</time>
      </trkpt>
      <trkpt lat="44.61674" lon="6.21081">
        <ele>1364.9</ele>
        <time>2022-09-11T11:36:44Z</time>
      </trkpt>
      <trkpt lat="44.61673" lon="6.21082">
        <ele>1365</ele>
        <time>2022-09-11T11:36:45Z</time>
      </trkpt>
      <trkpt lat="44.6167" lon="6.21083">
        <ele>1365.2</ele>
        <time>2022-09-11T11:36:46Z</time>
      </trkpt>
      <trkpt lat="44.61669" lon="6.21084">
        <ele>1365.3</ele>
        <time>2022-09-11T11:36:47Z</time>
      </trkpt>
      <trkpt lat="44.61665" lon="6.21087">
        <ele>1365.5</ele>
        <time>2022-09-11T11:36:49Z</time>
      </trkpt>
      <trkpt lat="44.61663" lon="6.21088">
        <ele>1365.6</ele>
        <time>2022-09-11T11:36:50Z</time>
      </trkpt>
      <trkpt lat="44.6166" lon="6.21091">
        <ele>1365.8</ele>
        <time>2022-09-11T11:36:51Z</time>
      </trkpt>
      <trkpt lat="44.61659" lon="6.21093">
        <ele>1365.9</ele>
        <time>2022-09-11T11:36:52Z</time>
      </trkpt>
      <trkpt lat="44.61656" lon="6.21096">
        <ele>1366.1</ele>
        <time>2022-09-11T11:36:53Z</time>
      </trkpt>
      <trkpt lat="44.61652" lon="6.211">
        <ele>1366.4</ele>
        <time>2022-09-11T11:36:55Z</time>
      </trkpt>
      <trkpt lat="44.61651" lon="6.21102">
        <ele>1366.5</ele>
        <time>2022-09-11T11:36:56Z</time>
      </trkpt>
      <trkpt lat="44.61649" lon="6.21104">
        <ele>1366.6</ele>
        <time>2022-09-11T11:36:57Z</time>
      </trkpt>
      <trkpt lat="44.61648" lon="6.21107">
        <ele>1366.8</ele>
        <time>2022-09-11T11:36:58Z</time>
      </trkpt>
      <trkpt lat="44.61646" lon="6.2111">
        <ele>1367</ele>
        <time>2022-09-11T11:36:59Z</time>
      </trkpt>
      <trkpt lat="44.61645" lon="6.21114">
        <ele>1367.2</ele>
        <time>2022-09-11T11:37:00Z</time>
      </trkpt>
      <trkpt lat="44.61644" lon="6.21119">
        <ele>1367.4</ele>
        <time>2022-09-11T11:37:01Z</time>
      </trkpt>
      <trkpt lat="44.61643" lon="6.21122">
        <ele>1367.6</ele>
        <time>2022-09-11T11:37:02Z</time>
      </trkpt>
      <trkpt lat="44.61642" lon="6.21127">
        <ele>1367.8</ele>
        <time>2022-09-11T11:37:03Z</time>
      </trkpt>
      <trkpt lat="44.61641" lon="6.2113">
        <ele>1368</ele>
        <time>2022-09-11T11:37:04Z</time>
      </trkpt>
      <trkpt lat="44.6164" lon="6.21134">
        <ele>1368.2</ele>
        <time>2022-09-11T11:37:05Z</time>
      </trkpt>
      <trkpt lat="44.6164" lon="6.2114">
        <ele>1368.4</ele>
        <time>2022-09-11T11:37:06Z</time>
      </trkpt>
      <trkpt lat="44.61639" lon="6.21145">
        <ele>1368.6</ele>
        <time>2022-09-11T11:37:07Z</time>
      </trkpt>
      <trkpt lat="44.61638" lon="6.21149">
        <ele>1368.6</ele>
        <time>2022-09-11T11:37:08Z</time>
      </trkpt>
      <trkpt lat="44.61636" lon="6.21156">
        <ele>1368.5</ele>
        <time>2022-09-11T11:37:10Z</time>
      </trkpt>
      <trkpt lat="44.61636" lon="6.21158">
        <ele>1368.5</ele>
        <time>2022-09-11T11:37:11Z</time>
      </trkpt>
      <trkpt lat="44.61635" lon="6.2116">
        <ele>1368.5</ele>
        <time>2022-09-11T11:37:12Z</time>
      </trkpt>
      <trkpt lat="44.61635" lon="6.21164">
        <ele>1368.5</ele>
        <time>2022-09-11T11:37:13Z</time>
      </trkpt>
      <trkpt lat="44.61634" lon="6.21169">
        <ele>1368.5</ele>
        <time>2022-09-11T11:37:14Z</time>
      </trkpt>
      <trkpt lat="44.61633" lon="6.2117">
        <ele>1368.4</ele>
        <time>2022-09-11T11:37:15Z</time>
      </trkpt>
      <trkpt lat="44.61632" lon="6.21175">
        <ele>1368.5</ele>
        <time>2022-09-11T11:37:16Z</time>
      </trkpt>
      <trkpt lat="44.61632" lon="6.21176">
        <ele>1368.6</ele>
        <time>2022-09-11T11:37:17Z</time>
      </trkpt>
      <trkpt lat="44.61631" lon="6.21181">
        <ele>1368.8</ele>
        <time>2022-09-11T11:37:18Z</time>
      </trkpt>
      <trkpt lat="44.6163" lon="6.21183">
        <ele>1368.9</ele>
        <time>2022-09-11T11:37:19Z</time>
      </trkpt>
      <trkpt lat="44.61629" lon="6.21187">
        <ele>1369</ele>
        <time>2022-09-11T11:37:20Z</time>
      </trkpt>
      <trkpt lat="44.61628" lon="6.21192">
        <ele>1369.2</ele>
        <time>2022-09-11T11:37:21Z</time>
      </trkpt>
      <trkpt lat="44.61627" lon="6.21194">
        <ele>1369.3</ele>
        <time>2022-09-11T11:37:22Z</time>
      </trkpt>
      <trkpt lat="44.61626" lon="6.21198">
        <ele>1369.5</ele>
        <time>2022-09-11T11:37:23Z</time>
      </trkpt>
      <trkpt lat="44.61626" lon="6.21202">
        <ele>1369.6</ele>
        <time>2022-09-11T11:37:24Z</time>
      </trkpt>
      <trkpt lat="44.61625" lon="6.21208">
        <ele>1369.9</ele>
        <time>2022-09-11T11:37:26Z</time>
      </trkpt>
      <trkpt lat="44.61624" lon="6.21214">
        <ele>1370.2</ele>
        <time>2022-09-11T11:37:28Z</time>
      </trkpt>
      <trkpt lat="44.61623" lon="6.21218">
        <ele>1370.3</ele>
        <time>2022-09-11T11:37:30Z</time>
      </trkpt>
      <trkpt lat="44.61623" lon="6.21221">
        <ele>1370.5</ele>
        <time>2022-09-11T11:37:31Z</time>
      </trkpt>
      <trkpt lat="44.61622" lon="6.21227">
        <ele>1370.7</ele>
        <time>2022-09-11T11:37:33Z</time>
      </trkpt>
      <trkpt lat="44.61622" lon="6.21232">
        <ele>1370.9</ele>
        <time>2022-09-11T11:37:34Z</time>
      </trkpt>
      <trkpt lat="44.61622" lon="6.21233">
        <ele>1371</ele>
        <time>2022-09-11T11:37:35Z</time>
      </trkpt>
      <trkpt lat="44.61622" lon="6.21238">
        <ele>1371.2</ele>
        <time>2022-09-11T11:37:36Z</time>
      </trkpt>
      <trkpt lat="44.61621" lon="6.21241">
        <ele>1371.3</ele>
        <time>2022-09-11T11:37:37Z</time>
      </trkpt>
      <trkpt lat="44.61622" lon="6.21246">
        <ele>1371.5</ele>
        <time>2022-09-11T11:37:38Z</time>
      </trkpt>
      <trkpt lat="44.61622" lon="6.21248">
        <ele>1371.6</ele>
        <time>2022-09-11T11:37:39Z</time>
      </trkpt>
      <trkpt lat="44.61622" lon="6.21254">
        <ele>1371.8</ele>
        <time>2022-09-11T11:37:41Z</time>
      </trkpt>
      <trkpt lat="44.61622" lon="6.21255">
        <ele>1371.9</ele>
        <time>2022-09-11T11:37:42Z</time>
      </trkpt>
      <trkpt lat="44.61622" lon="6.2126">
        <ele>1372.1</ele>
        <time>2022-09-11T11:37:43Z</time>
      </trkpt>
      <trkpt lat="44.61622" lon="6.21264">
        <ele>1372.3</ele>
        <time>2022-09-11T11:37:44Z</time>
      </trkpt>
      <trkpt lat="44.61622" lon="6.21268">
        <ele>1372.5</ele>
        <time>2022-09-11T11:37:46Z</time>
      </trkpt>
      <trkpt lat="44.61622" lon="6.21274">
        <ele>1372.8</ele>
        <time>2022-09-11T11:37:47Z</time>
      </trkpt>
      <trkpt lat="44.61624" lon="6.21278">
        <ele>1373</ele>
        <time>2022-09-11T11:37:49Z</time>
      </trkpt>
      <trkpt lat="44.61624" lon="6.21279">
        <ele>1373.1</ele>
        <time>2022-09-11T11:37:50Z</time>
      </trkpt>
      <trkpt lat="44.61624" lon="6.21284">
        <ele>1373.3</ele>
        <time>2022-09-11T11:37:51Z</time>
      </trkpt>
      <trkpt lat="44.61625" lon="6.21285">
        <ele>1373.4</ele>
        <time>2022-09-11T11:37:52Z</time>
      </trkpt>
      <trkpt lat="44.61626" lon="6.21289">
        <ele>1373.6</ele>
        <time>2022-09-11T11:37:53Z</time>
      </trkpt>
      <trkpt lat="44.61626" lon="6.21293">
        <ele>1373.7</ele>
        <time>2022-09-11T11:37:54Z</time>
      </trkpt>
      <trkpt lat="44.61626" lon="6.21297">
        <ele>1373.9</ele>
        <time>2022-09-11T11:37:56Z</time>
      </trkpt>
      <trkpt lat="44.61626" lon="6.21301">
        <ele>1374.1</ele>
        <time>2022-09-11T11:37:57Z</time>
      </trkpt>
      <trkpt lat="44.61627" lon="6.21304">
        <ele>1374.3</ele>
        <time>2022-09-11T11:37:58Z</time>
      </trkpt>
      <trkpt lat="44.61627" lon="6.21311">
        <ele>1374.6</ele>
        <time>2022-09-11T11:38:00Z</time>
      </trkpt>
      <trkpt lat="44.61628" lon="6.21314">
        <ele>1374.8</ele>
        <time>2022-09-11T11:38:01Z</time>
      </trkpt>
      <trkpt lat="44.61629" lon="6.21319">
        <ele>1375.2</ele>
        <time>2022-09-11T11:38:03Z</time>
      </trkpt>
      <trkpt lat="44.6163" lon="6.21324">
        <ele>1375.5</ele>
        <time>2022-09-11T11:38:05Z</time>
      </trkpt>
      <trkpt lat="44.6163" lon="6.21327">
        <ele>1375.6</ele>
        <time>2022-09-11T11:38:06Z</time>
      </trkpt>
      <trkpt lat="44.61631" lon="6.2133">
        <ele>1375.8</ele>
        <time>2022-09-11T11:38:07Z</time>
      </trkpt>
      <trkpt lat="44.61632" lon="6.21335">
        <ele>1376.1</ele>
        <time>2022-09-11T11:38:09Z</time>
      </trkpt>
      <trkpt lat="44.61632" lon="6.21341">
        <ele>1376.4</ele>
        <time>2022-09-11T11:38:10Z</time>
      </trkpt>
      <trkpt lat="44.61633" lon="6.21343">
        <ele>1376.6</ele>
        <time>2022-09-11T11:38:11Z</time>
      </trkpt>
      <trkpt lat="44.61633" lon="6.21348">
        <ele>1376.9</ele>
        <time>2022-09-11T11:38:12Z</time>
      </trkpt>
      <trkpt lat="44.61634" lon="6.2135">
        <ele>1377</ele>
        <time>2022-09-11T11:38:13Z</time>
      </trkpt>
      <trkpt lat="44.61634" lon="6.21356">
        <ele>1377.3</ele>
        <time>2022-09-11T11:38:15Z</time>
      </trkpt>
      <trkpt lat="44.61634" lon="6.21357">
        <ele>1377.4</ele>
        <time>2022-09-11T11:38:16Z</time>
      </trkpt>
      <trkpt lat="44.61634" lon="6.21362">
        <ele>1377.6</ele>
        <time>2022-09-11T11:38:17Z</time>
      </trkpt>
      <trkpt lat="44.61634" lon="6.21364">
        <ele>1377.8</ele>
        <time>2022-09-11T11:38:18Z</time>
      </trkpt>
      <trkpt lat="44.61635" lon="6.21369">
        <ele>1378.1</ele>
        <time>2022-09-11T11:38:19Z</time>
      </trkpt>
      <trkpt lat="44.61635" lon="6.2137">
        <ele>1378.1</ele>
        <time>2022-09-11T11:38:20Z</time>
      </trkpt>
      <trkpt lat="44.61637" lon="6.21375">
        <ele>1378.5</ele>
        <time>2022-09-11T11:38:22Z</time>
      </trkpt>
      <trkpt lat="44.61637" lon="6.21377">
        <ele>1378.6</ele>
        <time>2022-09-11T11:38:23Z</time>
      </trkpt>
      <trkpt lat="44.61638" lon="6.21382">
        <ele>1378.9</ele>
        <time>2022-09-11T11:38:24Z</time>
      </trkpt>
      <trkpt lat="44.61638" lon="6.21384">
        <ele>1379</ele>
        <time>2022-09-11T11:38:25Z</time>
      </trkpt>
      <trkpt lat="44.61638" lon="6.21386">
        <ele>1379.2</ele>
        <time>2022-09-11T11:38:26Z</time>
      </trkpt>
      <trkpt lat="44.61639" lon="6.2139">
        <ele>1379.4</ele>
        <time>2022-09-11T11:38:28Z</time>
      </trkpt>
      <trkpt lat="44.61639" lon="6.21392">
        <ele>1379.5</ele>
        <time>2022-09-11T11:38:29Z</time>
      </trkpt>
      <trkpt lat="44.6164" lon="6.21394">
        <ele>1379.7</ele>
        <time>2022-09-11T11:38:30Z</time>
      </trkpt>
      <trkpt lat="44.6164" lon="6.21398">
        <ele>1379.9</ele>
        <time>2022-09-11T11:38:31Z</time>
      </trkpt>
      <trkpt lat="44.6164" lon="6.21399">
        <ele>1380</ele>
        <time>2022-09-11T11:38:32Z</time>
      </trkpt>
      <trkpt lat="44.61641" lon="6.21404">
        <ele>1380.3</ele>
        <time>2022-09-11T11:38:33Z</time>
      </trkpt>
      <trkpt lat="44.61642" lon="6.21409">
        <ele>1380.6</ele>
        <time>2022-09-11T11:38:35Z</time>
      </trkpt>
      <trkpt lat="44.61642" lon="6.21411">
        <ele>1380.7</ele>
        <time>2022-09-11T11:38:36Z</time>
      </trkpt>
      <trkpt lat="44.61642" lon="6.21414">
        <ele>1380.9</ele>
        <time>2022-09-11T11:38:37Z</time>
      </trkpt>
      <trkpt lat="44.61643" lon="6.21417">
        <ele>1381.2</ele>
        <time>2022-09-11T11:38:39Z</time>
      </trkpt>
      <trkpt lat="44.61643" lon="6.2142">
        <ele>1381.3</ele>
        <time>2022-09-11T11:38:40Z</time>
      </trkpt>
      <trkpt lat="44.61644" lon="6.21424">
        <ele>1381.6</ele>
        <time>2022-09-11T11:38:41Z</time>
      </trkpt>
      <trkpt lat="44.61644" lon="6.21427">
        <ele>1381.8</ele>
        <time>2022-09-11T11:38:43Z</time>
      </trkpt>
      <trkpt lat="44.61645" lon="6.21432">
        <ele>1382.1</ele>
        <time>2022-09-11T11:38:44Z</time>
      </trkpt>
      <trkpt lat="44.61645" lon="6.21433">
        <ele>1382.2</ele>
        <time>2022-09-11T11:38:45Z</time>
      </trkpt>
      <trkpt lat="44.61646" lon="6.21437">
        <ele>1382.5</ele>
        <time>2022-09-11T11:38:46Z</time>
      </trkpt>
      <trkpt lat="44.61646" lon="6.21438">
        <ele>1382.5</ele>
        <time>2022-09-11T11:38:47Z</time>
      </trkpt>
      <trkpt lat="44.61646" lon="6.21444">
        <ele>1382.9</ele>
        <time>2022-09-11T11:38:48Z</time>
      </trkpt>
      <trkpt lat="44.61647" lon="6.21448">
        <ele>1383.2</ele>
        <time>2022-09-11T11:38:50Z</time>
      </trkpt>
      <trkpt lat="44.61647" lon="6.21449">
        <ele>1383.2</ele>
        <time>2022-09-11T11:38:51Z</time>
      </trkpt>
      <trkpt lat="44.61648" lon="6.21454">
        <ele>1383.6</ele>
        <time>2022-09-11T11:38:52Z</time>
      </trkpt>
      <trkpt lat="44.61648" lon="6.21455">
        <ele>1383.6</ele>
        <time>2022-09-11T11:38:53Z</time>
      </trkpt>
      <trkpt lat="44.61649" lon="6.2146">
        <ele>1383.9</ele>
        <time>2022-09-11T11:38:54Z</time>
      </trkpt>
      <trkpt lat="44.61649" lon="6.21461">
        <ele>1384</ele>
        <time>2022-09-11T11:38:55Z</time>
      </trkpt>
      <trkpt lat="44.6165" lon="6.21466">
        <ele>1384.3</ele>
        <time>2022-09-11T11:38:57Z</time>
      </trkpt>
      <trkpt lat="44.61651" lon="6.21467">
        <ele>1384.4</ele>
        <time>2022-09-11T11:38:58Z</time>
      </trkpt>
      <trkpt lat="44.61651" lon="6.21472">
        <ele>1384.7</ele>
        <time>2022-09-11T11:38:59Z</time>
      </trkpt>
      <trkpt lat="44.61651" lon="6.21477">
        <ele>1385</ele>
        <time>2022-09-11T11:39:00Z</time>
      </trkpt>
      <trkpt lat="44.61651" lon="6.21478">
        <ele>1385.1</ele>
        <time>2022-09-11T11:39:01Z</time>
      </trkpt>
      <trkpt lat="44.61652" lon="6.21482">
        <ele>1385.4</ele>
        <time>2022-09-11T11:39:03Z</time>
      </trkpt>
      <trkpt lat="44.61652" lon="6.21484">
        <ele>1385.5</ele>
        <time>2022-09-11T11:39:04Z</time>
      </trkpt>
      <trkpt lat="44.61653" lon="6.21489">
        <ele>1385.8</ele>
        <time>2022-09-11T11:39:06Z</time>
      </trkpt>
      <trkpt lat="44.61653" lon="6.2149">
        <ele>1385.9</ele>
        <time>2022-09-11T11:39:07Z</time>
      </trkpt>
      <trkpt lat="44.61653" lon="6.21494">
        <ele>1386.1</ele>
        <time>2022-09-11T11:39:08Z</time>
      </trkpt>
      <trkpt lat="44.61653" lon="6.21495">
        <ele>1386.2</ele>
        <time>2022-09-11T11:39:09Z</time>
      </trkpt>
      <trkpt lat="44.61653" lon="6.21499">
        <ele>1386.5</ele>
        <time>2022-09-11T11:39:10Z</time>
      </trkpt>
      <trkpt lat="44.61653" lon="6.215">
        <ele>1386.6</ele>
        <time>2022-09-11T11:39:11Z</time>
      </trkpt>
      <trkpt lat="44.61652" lon="6.21505">
        <ele>1386.8</ele>
        <time>2022-09-11T11:39:12Z</time>
      </trkpt>
      <trkpt lat="44.61652" lon="6.21506">
        <ele>1386.9</ele>
        <time>2022-09-11T11:39:13Z</time>
      </trkpt>
      <trkpt lat="44.61652" lon="6.2151">
        <ele>1387.2</ele>
        <time>2022-09-11T11:39:14Z</time>
      </trkpt>
      <trkpt lat="44.61651" lon="6.21513">
        <ele>1387.4</ele>
        <time>2022-09-11T11:39:15Z</time>
      </trkpt>
      <trkpt lat="44.61651" lon="6.21516">
        <ele>1387.5</ele>
        <time>2022-09-11T11:39:17Z</time>
      </trkpt>
      <trkpt lat="44.6165" lon="6.21518">
        <ele>1387.7</ele>
        <time>2022-09-11T11:39:18Z</time>
      </trkpt>
      <trkpt lat="44.6165" lon="6.2152">
        <ele>1387.9</ele>
        <time>2022-09-11T11:39:19Z</time>
      </trkpt>
      <trkpt lat="44.61649" lon="6.21524">
        <ele>1388.1</ele>
        <time>2022-09-11T11:39:20Z</time>
      </trkpt>
      <trkpt lat="44.61649" lon="6.21526">
        <ele>1388.2</ele>
        <time>2022-09-11T11:39:21Z</time>
      </trkpt>
      <trkpt lat="44.61648" lon="6.21529">
        <ele>1388.5</ele>
        <time>2022-09-11T11:39:22Z</time>
      </trkpt>
      <trkpt lat="44.61648" lon="6.2153">
        <ele>1388.5</ele>
        <time>2022-09-11T11:39:23Z</time>
      </trkpt>
      <trkpt lat="44.61646" lon="6.21534">
        <ele>1388.8</ele>
        <time>2022-09-11T11:39:24Z</time>
      </trkpt>
      <trkpt lat="44.61646" lon="6.21535">
        <ele>1388.9</ele>
        <time>2022-09-11T11:39:25Z</time>
      </trkpt>
      <trkpt lat="44.61645" lon="6.21539">
        <ele>1389.1</ele>
        <time>2022-09-11T11:39:26Z</time>
      </trkpt>
      <trkpt lat="44.61644" lon="6.2154">
        <ele>1389.2</ele>
        <time>2022-09-11T11:39:27Z</time>
      </trkpt>
      <trkpt lat="44.61643" lon="6.21543">
        <ele>1389.5</ele>
        <time>2022-09-11T11:39:28Z</time>
      </trkpt>
      <trkpt lat="44.61643" lon="6.21544">
        <ele>1389.5</ele>
        <time>2022-09-11T11:39:29Z</time>
      </trkpt>
      <trkpt lat="44.61641" lon="6.21546">
        <ele>1389.7</ele>
        <time>2022-09-11T11:39:30Z</time>
      </trkpt>
      <trkpt lat="44.61639" lon="6.2155">
        <ele>1390</ele>
        <time>2022-09-11T11:39:31Z</time>
      </trkpt>
      <trkpt lat="44.61638" lon="6.21552">
        <ele>1390.2</ele>
        <time>2022-09-11T11:39:33Z</time>
      </trkpt>
      <trkpt lat="44.61636" lon="6.21556">
        <ele>1390.4</ele>
        <time>2022-09-11T11:39:34Z</time>
      </trkpt>
      <trkpt lat="44.61635" lon="6.21557">
        <ele>1390.5</ele>
        <time>2022-09-11T11:39:35Z</time>
      </trkpt>
      <trkpt lat="44.61633" lon="6.2156">
        <ele>1390.8</ele>
        <time>2022-09-11T11:39:36Z</time>
      </trkpt>
      <trkpt lat="44.61632" lon="6.21561">
        <ele>1390.9</ele>
        <time>2022-09-11T11:39:37Z</time>
      </trkpt>
      <trkpt lat="44.61629" lon="6.21565">
        <ele>1391.2</ele>
        <time>2022-09-11T11:39:38Z</time>
      </trkpt>
      <trkpt lat="44.61627" lon="6.21568">
        <ele>1391.5</ele>
        <time>2022-09-11T11:39:40Z</time>
      </trkpt>
      <trkpt lat="44.61626" lon="6.21569">
        <ele>1391.7</ele>
        <time>2022-09-11T11:39:41Z</time>
      </trkpt>
      <trkpt lat="44.61622" lon="6.21572">
        <ele>1392</ele>
        <time>2022-09-11T11:39:42Z</time>
      </trkpt>
      <trkpt lat="44.61619" lon="6.21575">
        <ele>1392.3</ele>
        <time>2022-09-11T11:39:44Z</time>
      </trkpt>
      <trkpt lat="44.61619" lon="6.21575">
        <ele>1392.4</ele>
        <time>2022-09-11T11:39:45Z</time>
      </trkpt>
      <trkpt lat="44.61616" lon="6.21578">
        <ele>1392.6</ele>
        <time>2022-09-11T11:39:46Z</time>
      </trkpt>
      <trkpt lat="44.61615" lon="6.21578">
        <ele>1392.7</ele>
        <time>2022-09-11T11:39:47Z</time>
      </trkpt>
      <trkpt lat="44.61612" lon="6.2158">
        <ele>1393</ele>
        <time>2022-09-11T11:39:48Z</time>
      </trkpt>
      <trkpt lat="44.61611" lon="6.21581">
        <ele>1393.1</ele>
        <time>2022-09-11T11:39:49Z</time>
      </trkpt>
      <trkpt lat="44.61608" lon="6.21583">
        <ele>1393.4</ele>
        <time>2022-09-11T11:39:50Z</time>
      </trkpt>
      <trkpt lat="44.61607" lon="6.21584">
        <ele>1393.5</ele>
        <time>2022-09-11T11:39:51Z</time>
      </trkpt>
      <trkpt lat="44.61603" lon="6.21586">
        <ele>1393.9</ele>
        <time>2022-09-11T11:39:53Z</time>
      </trkpt>
      <trkpt lat="44.61602" lon="6.21587">
        <ele>1394</ele>
        <time>2022-09-11T11:39:54Z</time>
      </trkpt>
      <trkpt lat="44.61599" lon="6.21588">
        <ele>1394.3</ele>
        <time>2022-09-11T11:39:55Z</time>
      </trkpt>
      <trkpt lat="44.61597" lon="6.2159">
        <ele>1394.5</ele>
        <time>2022-09-11T11:39:56Z</time>
      </trkpt>
      <trkpt lat="44.61596" lon="6.21592">
        <ele>1394.6</ele>
        <time>2022-09-11T11:39:58Z</time>
      </trkpt>
      <trkpt lat="44.61593" lon="6.21593">
        <ele>1394.9</ele>
        <time>2022-09-11T11:39:59Z</time>
      </trkpt>
      <trkpt lat="44.6159" lon="6.21595">
        <ele>1395.2</ele>
        <time>2022-09-11T11:40:00Z</time>
      </trkpt>
      <trkpt lat="44.61587" lon="6.21595">
        <ele>1395.5</ele>
        <time>2022-09-11T11:40:01Z</time>
      </trkpt>
      <trkpt lat="44.61585" lon="6.21598">
        <ele>1395.7</ele>
        <time>2022-09-11T11:40:02Z</time>
      </trkpt>
      <trkpt lat="44.61582" lon="6.21601">
        <ele>1396.1</ele>
        <time>2022-09-11T11:40:04Z</time>
      </trkpt>
      <trkpt lat="44.61581" lon="6.21602">
        <ele>1396.3</ele>
        <time>2022-09-11T11:40:05Z</time>
      </trkpt>
      <trkpt lat="44.61578" lon="6.21604">
        <ele>1396.6</ele>
        <time>2022-09-11T11:40:07Z</time>
      </trkpt>
      <trkpt lat="44.61577" lon="6.21605">
        <ele>1396.7</ele>
        <time>2022-09-11T11:40:08Z</time>
      </trkpt>
      <trkpt lat="44.61574" lon="6.21607">
        <ele>1397</ele>
        <time>2022-09-11T11:40:09Z</time>
      </trkpt>
      <trkpt lat="44.61573" lon="6.21608">
        <ele>1397</ele>
        <time>2022-09-11T11:40:10Z</time>
      </trkpt>
      <trkpt lat="44.61571" lon="6.2161">
        <ele>1397.3</ele>
        <time>2022-09-11T11:40:11Z</time>
      </trkpt>
      <trkpt lat="44.6157" lon="6.21611">
        <ele>1397.4</ele>
        <time>2022-09-11T11:40:12Z</time>
      </trkpt>
      <trkpt lat="44.61568" lon="6.21612">
        <ele>1397.6</ele>
        <time>2022-09-11T11:40:13Z</time>
      </trkpt>
      <trkpt lat="44.61566" lon="6.21614">
        <ele>1397.7</ele>
        <time>2022-09-11T11:40:15Z</time>
      </trkpt>
      <trkpt lat="44.61563" lon="6.21616">
        <ele>1398</ele>
        <time>2022-09-11T11:40:16Z</time>
      </trkpt>
      <trkpt lat="44.61561" lon="6.21618">
        <ele>1398.2</ele>
        <time>2022-09-11T11:40:17Z</time>
      </trkpt>
      <trkpt lat="44.61559" lon="6.2162">
        <ele>1398.4</ele>
        <time>2022-09-11T11:40:19Z</time>
      </trkpt>
      <trkpt lat="44.61556" lon="6.21622">
        <ele>1398.6</ele>
        <time>2022-09-11T11:40:20Z</time>
      </trkpt>
      <trkpt lat="44.61553" lon="6.21625">
        <ele>1398.9</ele>
        <time>2022-09-11T11:40:22Z</time>
      </trkpt>
      <trkpt lat="44.61552" lon="6.21625">
        <ele>1399</ele>
        <time>2022-09-11T11:40:23Z</time>
      </trkpt>
      <trkpt lat="44.6155" lon="6.21626">
        <ele>1399.1</ele>
        <time>2022-09-11T11:40:24Z</time>
      </trkpt>
      <trkpt lat="44.61549" lon="6.21627">
        <ele>1399.2</ele>
        <time>2022-09-11T11:40:25Z</time>
      </trkpt>
      <trkpt lat="44.61546" lon="6.21629">
        <ele>1399.5</ele>
        <time>2022-09-11T11:40:26Z</time>
      </trkpt>
      <trkpt lat="44.61545" lon="6.2163">
        <ele>1399.5</ele>
        <time>2022-09-11T11:40:27Z</time>
      </trkpt>
      <trkpt lat="44.61542" lon="6.21632">
        <ele>1399.8</ele>
        <time>2022-09-11T11:40:28Z</time>
      </trkpt>
      <trkpt lat="44.6154" lon="6.21634">
        <ele>1399.9</ele>
        <time>2022-09-11T11:40:29Z</time>
      </trkpt>
      <trkpt lat="44.61537" lon="6.21636">
        <ele>1400.2</ele>
        <time>2022-09-11T11:40:30Z</time>
      </trkpt>
      <trkpt lat="44.61536" lon="6.21636">
        <ele>1400.2</ele>
        <time>2022-09-11T11:40:31Z</time>
      </trkpt>
      <trkpt lat="44.61533" lon="6.21639">
        <ele>1400.5</ele>
        <time>2022-09-11T11:40:33Z</time>
      </trkpt>
      <trkpt lat="44.61532" lon="6.2164">
        <ele>1400.6</ele>
        <time>2022-09-11T11:40:34Z</time>
      </trkpt>
      <trkpt lat="44.6153" lon="6.21641">
        <ele>1400.7</ele>
        <time>2022-09-11T11:40:35Z</time>
      </trkpt>
      <trkpt lat="44.61527" lon="6.21642">
        <ele>1400.9</ele>
        <time>2022-09-11T11:40:36Z</time>
      </trkpt>
      <trkpt lat="44.61526" lon="6.21643">
        <ele>1401</ele>
        <time>2022-09-11T11:40:37Z</time>
      </trkpt>
      <trkpt lat="44.61525" lon="6.21644">
        <ele>1401.1</ele>
        <time>2022-09-11T11:40:38Z</time>
      </trkpt>
      <trkpt lat="44.61523" lon="6.21644">
        <ele>1401.2</ele>
        <time>2022-09-11T11:40:39Z</time>
      </trkpt>
      <trkpt lat="44.61522" lon="6.21646">
        <ele>1401.3</ele>
        <time>2022-09-11T11:40:40Z</time>
      </trkpt>
      <trkpt lat="44.61518" lon="6.21648">
        <ele>1401.5</ele>
        <time>2022-09-11T11:40:41Z</time>
      </trkpt>
      <trkpt lat="44.61516" lon="6.21649">
        <ele>1401.7</ele>
        <time>2022-09-11T11:40:43Z</time>
      </trkpt>
      <trkpt lat="44.61513" lon="6.21652">
        <ele>1401.9</ele>
        <time>2022-09-11T11:40:44Z</time>
      </trkpt>
      <trkpt lat="44.61512" lon="6.21653">
        <ele>1402</ele>
        <time>2022-09-11T11:40:45Z</time>
      </trkpt>
      <trkpt lat="44.61508" lon="6.21655">
        <ele>1402.2</ele>
        <time>2022-09-11T11:40:46Z</time>
      </trkpt>
      <trkpt lat="44.61507" lon="6.21655">
        <ele>1402.2</ele>
        <time>2022-09-11T11:40:47Z</time>
      </trkpt>
      <trkpt lat="44.61504" lon="6.21657">
        <ele>1402.5</ele>
        <time>2022-09-11T11:40:48Z</time>
      </trkpt>
      <trkpt lat="44.61502" lon="6.21658">
        <ele>1402.5</ele>
        <time>2022-09-11T11:40:49Z</time>
      </trkpt>
      <trkpt lat="44.61499" lon="6.2166">
        <ele>1402.8</ele>
        <time>2022-09-11T11:40:50Z</time>
      </trkpt>
      <trkpt lat="44.61497" lon="6.21661">
        <ele>1402.8</ele>
        <time>2022-09-11T11:40:51Z</time>
      </trkpt>
      <trkpt lat="44.61493" lon="6.21662">
        <ele>1403</ele>
        <time>2022-09-11T11:40:52Z</time>
      </trkpt>
      <trkpt lat="44.61491" lon="6.21663">
        <ele>1403.2</ele>
        <time>2022-09-11T11:40:53Z</time>
      </trkpt>
      <trkpt lat="44.61488" lon="6.21665">
        <ele>1403.3</ele>
        <time>2022-09-11T11:40:54Z</time>
      </trkpt>
      <trkpt lat="44.61486" lon="6.21666">
        <ele>1403.5</ele>
        <time>2022-09-11T11:40:56Z</time>
      </trkpt>
      <trkpt lat="44.61482" lon="6.21667">
        <ele>1403.7</ele>
        <time>2022-09-11T11:40:57Z</time>
      </trkpt>
      <trkpt lat="44.61478" lon="6.21667">
        <ele>1403.9</ele>
        <time>2022-09-11T11:40:58Z</time>
      </trkpt>
      <trkpt lat="44.61475" lon="6.21667">
        <ele>1404.1</ele>
        <time>2022-09-11T11:41:00Z</time>
      </trkpt>
      <trkpt lat="44.61473" lon="6.21667">
        <ele>1404.1</ele>
        <time>2022-09-11T11:41:01Z</time>
      </trkpt>
      <trkpt lat="44.61471" lon="6.21667">
        <ele>1404.3</ele>
        <time>2022-09-11T11:41:02Z</time>
      </trkpt>
      <trkpt lat="44.61467" lon="6.21667">
        <ele>1404.5</ele>
        <time>2022-09-11T11:41:03Z</time>
      </trkpt>
      <trkpt lat="44.61462" lon="6.21666">
        <ele>1404.7</ele>
        <time>2022-09-11T11:41:05Z</time>
      </trkpt>
      <trkpt lat="44.61459" lon="6.21666">
        <ele>1404.9</ele>
        <time>2022-09-11T11:41:06Z</time>
      </trkpt>
      <trkpt lat="44.61458" lon="6.21666">
        <ele>1405</ele>
        <time>2022-09-11T11:41:07Z</time>
      </trkpt>
      <trkpt lat="44.61454" lon="6.21665">
        <ele>1405.2</ele>
        <time>2022-09-11T11:41:08Z</time>
      </trkpt>
      <trkpt lat="44.61453" lon="6.21664">
        <ele>1405.2</ele>
        <time>2022-09-11T11:41:09Z</time>
      </trkpt>
      <trkpt lat="44.6145" lon="6.21664">
        <ele>1405.4</ele>
        <time>2022-09-11T11:41:10Z</time>
      </trkpt>
      <trkpt lat="44.61446" lon="6.21663">
        <ele>1405.7</ele>
        <time>2022-09-11T11:41:11Z</time>
      </trkpt>
      <trkpt lat="44.61444" lon="6.21663">
        <ele>1405.8</ele>
        <time>2022-09-11T11:41:12Z</time>
      </trkpt>
      <trkpt lat="44.6144" lon="6.21663">
        <ele>1406.1</ele>
        <time>2022-09-11T11:41:13Z</time>
      </trkpt>
      <trkpt lat="44.61437" lon="6.21664">
        <ele>1406.3</ele>
        <time>2022-09-11T11:41:15Z</time>
      </trkpt>
      <trkpt lat="44.61433" lon="6.21667">
        <ele>1406.7</ele>
        <time>2022-09-11T11:41:16Z</time>
      </trkpt>
      <trkpt lat="44.6143" lon="6.2167">
        <ele>1406.9</ele>
        <time>2022-09-11T11:41:18Z</time>
      </trkpt>
      <trkpt lat="44.6143" lon="6.21671">
        <ele>1407</ele>
        <time>2022-09-11T11:41:19Z</time>
      </trkpt>
      <trkpt lat="44.61428" lon="6.21676">
        <ele>1407.4</ele>
        <time>2022-09-11T11:41:20Z</time>
      </trkpt>
      <trkpt lat="44.61428" lon="6.21681">
        <ele>1407.7</ele>
        <time>2022-09-11T11:41:22Z</time>
      </trkpt>
      <trkpt lat="44.61428" lon="6.21683">
        <ele>1407.8</ele>
        <time>2022-09-11T11:41:23Z</time>
      </trkpt>
      <trkpt lat="44.61429" lon="6.21688">
        <ele>1408.1</ele>
        <time>2022-09-11T11:41:24Z</time>
      </trkpt>
      <trkpt lat="44.6143" lon="6.2169">
        <ele>1408.2</ele>
        <time>2022-09-11T11:41:25Z</time>
      </trkpt>
      <trkpt lat="44.61432" lon="6.21694">
        <ele>1408.3</ele>
        <time>2022-09-11T11:41:26Z</time>
      </trkpt>
      <trkpt lat="44.61435" lon="6.21698">
        <ele>1408.5</ele>
        <time>2022-09-11T11:41:27Z</time>
      </trkpt>
      <trkpt lat="44.61438" lon="6.217">
        <ele>1408.5</ele>
        <time>2022-09-11T11:41:29Z</time>
      </trkpt>
      <trkpt lat="44.61443" lon="6.21702">
        <ele>1408.6</ele>
        <time>2022-09-11T11:41:30Z</time>
      </trkpt>
      <trkpt lat="44.61447" lon="6.21703">
        <ele>1408.6</ele>
        <time>2022-09-11T11:41:32Z</time>
      </trkpt>
      <trkpt lat="44.61452" lon="6.21704">
        <ele>1408.5</ele>
        <time>2022-09-11T11:41:33Z</time>
      </trkpt>
      <trkpt lat="44.61455" lon="6.21704">
        <ele>1408.5</ele>
        <time>2022-09-11T11:41:35Z</time>
      </trkpt>
      <trkpt lat="44.61457" lon="6.21704">
        <ele>1408.5</ele>
        <time>2022-09-11T11:41:36Z</time>
      </trkpt>
      <trkpt lat="44.6146" lon="6.21703">
        <ele>1408.5</ele>
        <time>2022-09-11T11:41:37Z</time>
      </trkpt>
      <trkpt lat="44.61463" lon="6.21702">
        <ele>1408.5</ele>
        <time>2022-09-11T11:41:38Z</time>
      </trkpt>
      <trkpt lat="44.61466" lon="6.21701">
        <ele>1408.5</ele>
        <time>2022-09-11T11:41:39Z</time>
      </trkpt>
      <trkpt lat="44.61469" lon="6.217">
        <ele>1408.5</ele>
        <time>2022-09-11T11:41:41Z</time>
      </trkpt>
      <trkpt lat="44.61473" lon="6.217">
        <ele>1408.6</ele>
        <time>2022-09-11T11:41:42Z</time>
      </trkpt>
      <trkpt lat="44.61475" lon="6.217">
        <ele>1408.7</ele>
        <time>2022-09-11T11:41:43Z</time>
      </trkpt>
      <trkpt lat="44.61478" lon="6.217">
        <ele>1408.7</ele>
        <time>2022-09-11T11:41:45Z</time>
      </trkpt>
      <trkpt lat="44.61481" lon="6.217">
        <ele>1408.8</ele>
        <time>2022-09-11T11:41:46Z</time>
      </trkpt>
      <trkpt lat="44.61482" lon="6.217">
        <ele>1408.9</ele>
        <time>2022-09-11T11:41:47Z</time>
      </trkpt>
      <trkpt lat="44.61485" lon="6.21699">
        <ele>1409</ele>
        <time>2022-09-11T11:41:48Z</time>
      </trkpt>
      <trkpt lat="44.61486" lon="6.21699">
        <ele>1409.1</ele>
        <time>2022-09-11T11:41:49Z</time>
      </trkpt>
      <trkpt lat="44.61488" lon="6.217">
        <ele>1409.2</ele>
        <time>2022-09-11T11:41:50Z</time>
      </trkpt>
      <trkpt lat="44.61491" lon="6.217">
        <ele>1409.4</ele>
        <time>2022-09-11T11:41:51Z</time>
      </trkpt>
      <trkpt lat="44.61495" lon="6.217">
        <ele>1409.6</ele>
        <time>2022-09-11T11:41:53Z</time>
      </trkpt>
      <trkpt lat="44.61497" lon="6.217">
        <ele>1409.7</ele>
        <time>2022-09-11T11:41:54Z</time>
      </trkpt>
      <trkpt lat="44.61501" lon="6.217">
        <ele>1410</ele>
        <time>2022-09-11T11:41:56Z</time>
      </trkpt>
      <trkpt lat="44.61503" lon="6.217">
        <ele>1410.1</ele>
        <time>2022-09-11T11:41:58Z</time>
      </trkpt>
      <trkpt lat="44.61506" lon="6.21699">
        <ele>1410.4</ele>
        <time>2022-09-11T11:41:59Z</time>
      </trkpt>
      <trkpt lat="44.61509" lon="6.217">
        <ele>1410.6</ele>
        <time>2022-09-11T11:42:00Z</time>
      </trkpt>
      <trkpt lat="44.61511" lon="6.21701">
        <ele>1410.8</ele>
        <time>2022-09-11T11:42:01Z</time>
      </trkpt>
      <trkpt lat="44.61513" lon="6.21701">
        <ele>1411</ele>
        <time>2022-09-11T11:42:03Z</time>
      </trkpt>
      <trkpt lat="44.61517" lon="6.217">
        <ele>1411.4</ele>
        <time>2022-09-11T11:42:04Z</time>
      </trkpt>
      <trkpt lat="44.6152" lon="6.217">
        <ele>1411.7</ele>
        <time>2022-09-11T11:42:06Z</time>
      </trkpt>
      <trkpt lat="44.61525" lon="6.21699">
        <ele>1412.1</ele>
        <time>2022-09-11T11:42:08Z</time>
      </trkpt>
      <trkpt lat="44.61528" lon="6.21697">
        <ele>1412.5</ele>
        <time>2022-09-11T11:42:10Z</time>
      </trkpt>
      <trkpt lat="44.6153" lon="6.21696">
        <ele>1412.7</ele>
        <time>2022-09-11T11:42:11Z</time>
      </trkpt>
      <trkpt lat="44.61533" lon="6.21695">
        <ele>1413.1</ele>
        <time>2022-09-11T11:42:13Z</time>
      </trkpt>
      <trkpt lat="44.61534" lon="6.21694">
        <ele>1413.2</ele>
        <time>2022-09-11T11:42:14Z</time>
      </trkpt>
      <trkpt lat="44.61537" lon="6.21692">
        <ele>1413.5</ele>
        <time>2022-09-11T11:42:15Z</time>
      </trkpt>
      <trkpt lat="44.61541" lon="6.2169">
        <ele>1413.9</ele>
        <time>2022-09-11T11:42:17Z</time>
      </trkpt>
      <trkpt lat="44.61542" lon="6.21689">
        <ele>1414</ele>
        <time>2022-09-11T11:42:18Z</time>
      </trkpt>
      <trkpt lat="44.61544" lon="6.21688">
        <ele>1414.2</ele>
        <time>2022-09-11T11:42:20Z</time>
      </trkpt>
      <trkpt lat="44.61547" lon="6.21686">
        <ele>1414.5</ele>
        <time>2022-09-11T11:42:21Z</time>
      </trkpt>
      <trkpt lat="44.61549" lon="6.21684">
        <ele>1414.8</ele>
        <time>2022-09-11T11:42:23Z</time>
      </trkpt>
      <trkpt lat="44.6155" lon="6.21683">
        <ele>1414.9</ele>
        <time>2022-09-11T11:42:24Z</time>
      </trkpt>
      <trkpt lat="44.61553" lon="6.21681">
        <ele>1415.2</ele>
        <time>2022-09-11T11:42:25Z</time>
      </trkpt>
      <trkpt lat="44.61555" lon="6.21679">
        <ele>1415.4</ele>
        <time>2022-09-11T11:42:26Z</time>
      </trkpt>
      <trkpt lat="44.61556" lon="6.21678">
        <ele>1415.5</ele>
        <time>2022-09-11T11:42:28Z</time>
      </trkpt>
      <trkpt lat="44.61558" lon="6.21677">
        <ele>1415.7</ele>
        <time>2022-09-11T11:42:29Z</time>
      </trkpt>
      <trkpt lat="44.6156" lon="6.21677">
        <ele>1415.9</ele>
        <time>2022-09-11T11:42:30Z</time>
      </trkpt>
      <trkpt lat="44.61562" lon="6.21675">
        <ele>1416.1</ele>
        <time>2022-09-11T11:42:31Z</time>
      </trkpt>
      <trkpt lat="44.61563" lon="6.21675">
        <ele>1416.2</ele>
        <time>2022-09-11T11:42:32Z</time>
      </trkpt>
      <trkpt lat="44.61565" lon="6.21674">
        <ele>1416.4</ele>
        <time>2022-09-11T11:42:33Z</time>
      </trkpt>
      <trkpt lat="44.61566" lon="6.21673">
        <ele>1416.5</ele>
        <time>2022-09-11T11:42:34Z</time>
      </trkpt>
      <trkpt lat="44.61569" lon="6.21671">
        <ele>1416.8</ele>
        <time>2022-09-11T11:42:35Z</time>
      </trkpt>
      <trkpt lat="44.6157" lon="6.2167">
        <ele>1416.9</ele>
        <time>2022-09-11T11:42:36Z</time>
      </trkpt>
      <trkpt lat="44.61573" lon="6.21669">
        <ele>1417.1</ele>
        <time>2022-09-11T11:42:37Z</time>
      </trkpt>
      <trkpt lat="44.61574" lon="6.21669">
        <ele>1417.2</ele>
        <time>2022-09-11T11:42:38Z</time>
      </trkpt>
      <trkpt lat="44.61577" lon="6.21667">
        <ele>1417.5</ele>
        <time>2022-09-11T11:42:39Z</time>
      </trkpt>
      <trkpt lat="44.61578" lon="6.21666">
        <ele>1417.6</ele>
        <time>2022-09-11T11:42:40Z</time>
      </trkpt>
      <trkpt lat="44.6158" lon="6.21666">
        <ele>1417.9</ele>
        <time>2022-09-11T11:42:41Z</time>
      </trkpt>
      <trkpt lat="44.61581" lon="6.21665">
        <ele>1418</ele>
        <time>2022-09-11T11:42:42Z</time>
      </trkpt>
      <trkpt lat="44.61584" lon="6.21663">
        <ele>1418.2</ele>
        <time>2022-09-11T11:42:43Z</time>
      </trkpt>
      <trkpt lat="44.61585" lon="6.21663">
        <ele>1418.3</ele>
        <time>2022-09-11T11:42:44Z</time>
      </trkpt>
      <trkpt lat="44.61587" lon="6.21662">
        <ele>1418.6</ele>
        <time>2022-09-11T11:42:45Z</time>
      </trkpt>
      <trkpt lat="44.61588" lon="6.21662">
        <ele>1418.7</ele>
        <time>2022-09-11T11:42:46Z</time>
      </trkpt>
      <trkpt lat="44.61591" lon="6.2166">
        <ele>1418.9</ele>
        <time>2022-09-11T11:42:47Z</time>
      </trkpt>
      <trkpt lat="44.61592" lon="6.2166">
        <ele>1419</ele>
        <time>2022-09-11T11:42:48Z</time>
      </trkpt>
      <trkpt lat="44.61594" lon="6.21658">
        <ele>1419.3</ele>
        <time>2022-09-11T11:42:49Z</time>
      </trkpt>
      <trkpt lat="44.61595" lon="6.21657">
        <ele>1419.4</ele>
        <time>2022-09-11T11:42:50Z</time>
      </trkpt>
      <trkpt lat="44.61598" lon="6.21655">
        <ele>1419.7</ele>
        <time>2022-09-11T11:42:51Z</time>
      </trkpt>
      <trkpt lat="44.61598" lon="6.21655">
        <ele>1419.8</ele>
        <time>2022-09-11T11:42:52Z</time>
      </trkpt>
      <trkpt lat="44.61601" lon="6.21653">
        <ele>1420.1</ele>
        <time>2022-09-11T11:42:53Z</time>
      </trkpt>
      <trkpt lat="44.61602" lon="6.21653">
        <ele>1420.2</ele>
        <time>2022-09-11T11:42:54Z</time>
      </trkpt>
      <trkpt lat="44.61605" lon="6.21652">
        <ele>1420.5</ele>
        <time>2022-09-11T11:42:55Z</time>
      </trkpt>
      <trkpt lat="44.61606" lon="6.21651">
        <ele>1420.6</ele>
        <time>2022-09-11T11:42:56Z</time>
      </trkpt>
      <trkpt lat="44.61608" lon="6.21651">
        <ele>1420.8</ele>
        <time>2022-09-11T11:42:57Z</time>
      </trkpt>
      <trkpt lat="44.6161" lon="6.21651">
        <ele>1421</ele>
        <time>2022-09-11T11:42:59Z</time>
      </trkpt>
      <trkpt lat="44.61613" lon="6.21649">
        <ele>1421.3</ele>
        <time>2022-09-11T11:43:00Z</time>
      </trkpt>
      <trkpt lat="44.61615" lon="6.21649">
        <ele>1421.4</ele>
        <time>2022-09-11T11:43:01Z</time>
      </trkpt>
      <trkpt lat="44.61618" lon="6.21647">
        <ele>1421.8</ele>
        <time>2022-09-11T11:43:02Z</time>
      </trkpt>
      <trkpt lat="44.61619" lon="6.21647">
        <ele>1422</ele>
        <time>2022-09-11T11:43:03Z</time>
      </trkpt>
      <trkpt lat="44.61622" lon="6.21647">
        <ele>1422.2</ele>
        <time>2022-09-11T11:43:04Z</time>
      </trkpt>
      <trkpt lat="44.61624" lon="6.21647">
        <ele>1422.4</ele>
        <time>2022-09-11T11:43:06Z</time>
      </trkpt>
      <trkpt lat="44.61627" lon="6.21647">
        <ele>1424.2</ele>
        <time>2022-09-11T11:43:07Z</time>
      </trkpt>
      <trkpt lat="44.61628" lon="6.21647">
        <ele>1423.9</ele>
        <time>2022-09-11T11:43:08Z</time>
      </trkpt>
      <trkpt lat="44.61632" lon="6.21647">
        <ele>1423.6</ele>
        <time>2022-09-11T11:43:09Z</time>
      </trkpt>
      <trkpt lat="44.61633" lon="6.21648">
        <ele>1423.4</ele>
        <time>2022-09-11T11:43:10Z</time>
      </trkpt>
      <trkpt lat="44.61636" lon="6.21649">
        <ele>1423.1</ele>
        <time>2022-09-11T11:43:11Z</time>
      </trkpt>
      <trkpt lat="44.61639" lon="6.21649">
        <ele>1425</ele>
        <time>2022-09-11T11:43:13Z</time>
      </trkpt>
      <trkpt lat="44.61643" lon="6.21649">
        <ele>1424.7</ele>
        <time>2022-09-11T11:43:14Z</time>
      </trkpt>
      <trkpt lat="44.61646" lon="6.2165">
        <ele>1424.5</ele>
        <time>2022-09-11T11:43:16Z</time>
      </trkpt>
      <trkpt lat="44.61647" lon="6.21651">
        <ele>1424.2</ele>
        <time>2022-09-11T11:43:17Z</time>
      </trkpt>
      <trkpt lat="44.6165" lon="6.21651">
        <ele>1423.9</ele>
        <time>2022-09-11T11:43:18Z</time>
      </trkpt>
      <trkpt lat="44.61655" lon="6.2165">
        <ele>1425.4</ele>
        <time>2022-09-11T11:43:20Z</time>
      </trkpt>
      <trkpt lat="44.61659" lon="6.2165">
        <ele>1425.1</ele>
        <time>2022-09-11T11:43:21Z</time>
      </trkpt>
      <trkpt lat="44.6166" lon="6.2165">
        <ele>1424.8</ele>
        <time>2022-09-11T11:43:22Z</time>
      </trkpt>
      <trkpt lat="44.61662" lon="6.21649">
        <ele>1426.3</ele>
        <time>2022-09-11T11:43:23Z</time>
      </trkpt>
      <trkpt lat="44.61666" lon="6.21648">
        <ele>1426</ele>
        <time>2022-09-11T11:43:24Z</time>
      </trkpt>
      <trkpt lat="44.61667" lon="6.21647">
        <ele>1426.2</ele>
        <time>2022-09-11T11:43:25Z</time>
      </trkpt>
      <trkpt lat="44.6167" lon="6.21646">
        <ele>1426.5</ele>
        <time>2022-09-11T11:43:26Z</time>
      </trkpt>
      <trkpt lat="44.61673" lon="6.21645">
        <ele>1426.8</ele>
        <time>2022-09-11T11:43:27Z</time>
      </trkpt>
      <trkpt lat="44.61676" lon="6.21644">
        <ele>1427.2</ele>
        <time>2022-09-11T11:43:28Z</time>
      </trkpt>
      <trkpt lat="44.61678" lon="6.21644">
        <ele>1427.5</ele>
        <time>2022-09-11T11:43:29Z</time>
      </trkpt>
      <trkpt lat="44.61682" lon="6.21642">
        <ele>1427.9</ele>
        <time>2022-09-11T11:43:30Z</time>
      </trkpt>
      <trkpt lat="44.61683" lon="6.21642">
        <ele>1428.1</ele>
        <time>2022-09-11T11:43:31Z</time>
      </trkpt>
      <trkpt lat="44.61686" lon="6.21642">
        <ele>1428.4</ele>
        <time>2022-09-11T11:43:32Z</time>
      </trkpt>
      <trkpt lat="44.61687" lon="6.21643">
        <ele>1428.6</ele>
        <time>2022-09-11T11:43:33Z</time>
      </trkpt>
      <trkpt lat="44.61691" lon="6.21646">
        <ele>1429.1</ele>
        <time>2022-09-11T11:43:34Z</time>
      </trkpt>
      <trkpt lat="44.61691" lon="6.21652">
        <ele>1429.5</ele>
        <time>2022-09-11T11:43:36Z</time>
      </trkpt>
      <trkpt lat="44.6169" lon="6.21654">
        <ele>1429.7</ele>
        <time>2022-09-11T11:43:37Z</time>
      </trkpt>
      <trkpt lat="44.6169" lon="6.21656">
        <ele>1429.8</ele>
        <time>2022-09-11T11:43:38Z</time>
      </trkpt>
      <trkpt lat="44.61686" lon="6.2166">
        <ele>1430.1</ele>
        <time>2022-09-11T11:43:39Z</time>
      </trkpt>
      <trkpt lat="44.61683" lon="6.21662">
        <ele>1430.2</ele>
        <time>2022-09-11T11:43:41Z</time>
      </trkpt>
      <trkpt lat="44.6168" lon="6.21663">
        <ele>1430.3</ele>
        <time>2022-09-11T11:43:42Z</time>
      </trkpt>
      <trkpt lat="44.61677" lon="6.21663">
        <ele>1430.4</ele>
        <time>2022-09-11T11:43:43Z</time>
      </trkpt>
      <trkpt lat="44.61671" lon="6.21662">
        <ele>1430.4</ele>
        <time>2022-09-11T11:43:45Z</time>
      </trkpt>
      <trkpt lat="44.61666" lon="6.21661">
        <ele>1430.5</ele>
        <time>2022-09-11T11:43:47Z</time>
      </trkpt>
      <trkpt lat="44.61664" lon="6.21661">
        <ele>1430.5</ele>
        <time>2022-09-11T11:43:49Z</time>
      </trkpt>
      <trkpt lat="44.6166" lon="6.21659">
        <ele>1430.6</ele>
        <time>2022-09-11T11:43:50Z</time>
      </trkpt>
      <trkpt lat="44.61656" lon="6.21658">
        <ele>1430.6</ele>
        <time>2022-09-11T11:43:52Z</time>
      </trkpt>
      <trkpt lat="44.61652" lon="6.21657">
        <ele>1430.7</ele>
        <time>2022-09-11T11:43:53Z</time>
      </trkpt>
      <trkpt lat="44.61651" lon="6.21657">
        <ele>1430.8</ele>
        <time>2022-09-11T11:43:54Z</time>
      </trkpt>
      <trkpt lat="44.61647" lon="6.21656">
        <ele>1430.9</ele>
        <time>2022-09-11T11:43:55Z</time>
      </trkpt>
      <trkpt lat="44.61646" lon="6.21656">
        <ele>1431</ele>
        <time>2022-09-11T11:43:56Z</time>
      </trkpt>
      <trkpt lat="44.61642" lon="6.21655">
        <ele>1431.3</ele>
        <time>2022-09-11T11:43:57Z</time>
      </trkpt>
      <trkpt lat="44.61639" lon="6.21655">
        <ele>1431.4</ele>
        <time>2022-09-11T11:43:59Z</time>
      </trkpt>
      <trkpt lat="44.61635" lon="6.21656">
        <ele>1431.7</ele>
        <time>2022-09-11T11:44:00Z</time>
      </trkpt>
      <trkpt lat="44.61631" lon="6.21656">
        <ele>1432</ele>
        <time>2022-09-11T11:44:01Z</time>
      </trkpt>
      <trkpt lat="44.6163" lon="6.21657">
        <ele>1432.1</ele>
        <time>2022-09-11T11:44:02Z</time>
      </trkpt>
      <trkpt lat="44.61627" lon="6.21657">
        <ele>1432.3</ele>
        <time>2022-09-11T11:44:03Z</time>
      </trkpt>
      <trkpt lat="44.61624" lon="6.21659">
        <ele>1432.7</ele>
        <time>2022-09-11T11:44:05Z</time>
      </trkpt>
      <trkpt lat="44.61621" lon="6.21661">
        <ele>1433</ele>
        <time>2022-09-11T11:44:06Z</time>
      </trkpt>
      <trkpt lat="44.6162" lon="6.21661">
        <ele>1433.1</ele>
        <time>2022-09-11T11:44:07Z</time>
      </trkpt>
      <trkpt lat="44.61616" lon="6.21665">
        <ele>1433.5</ele>
        <time>2022-09-11T11:44:08Z</time>
      </trkpt>
      <trkpt lat="44.61615" lon="6.21667">
        <ele>1433.7</ele>
        <time>2022-09-11T11:44:09Z</time>
      </trkpt>
      <trkpt lat="44.61613" lon="6.2167">
        <ele>1433.9</ele>
        <time>2022-09-11T11:44:11Z</time>
      </trkpt>
      <trkpt lat="44.6161" lon="6.21675">
        <ele>1434.2</ele>
        <time>2022-09-11T11:44:12Z</time>
      </trkpt>
      <trkpt lat="44.61607" lon="6.21678">
        <ele>1434.5</ele>
        <time>2022-09-11T11:44:14Z</time>
      </trkpt>
      <trkpt lat="44.61606" lon="6.21679">
        <ele>1434.6</ele>
        <time>2022-09-11T11:44:15Z</time>
      </trkpt>
      <trkpt lat="44.61603" lon="6.21681">
        <ele>1434.9</ele>
        <time>2022-09-11T11:44:16Z</time>
      </trkpt>
      <trkpt lat="44.61602" lon="6.21682">
        <ele>1435</ele>
        <time>2022-09-11T11:44:17Z</time>
      </trkpt>
      <trkpt lat="44.61599" lon="6.21684">
        <ele>1435.3</ele>
        <time>2022-09-11T11:44:18Z</time>
      </trkpt>
      <trkpt lat="44.61598" lon="6.21685">
        <ele>1435.4</ele>
        <time>2022-09-11T11:44:19Z</time>
      </trkpt>
      <trkpt lat="44.61595" lon="6.21688">
        <ele>1435.8</ele>
        <time>2022-09-11T11:44:20Z</time>
      </trkpt>
      <trkpt lat="44.61594" lon="6.21688">
        <ele>1435.9</ele>
        <time>2022-09-11T11:44:21Z</time>
      </trkpt>
      <trkpt lat="44.61591" lon="6.2169">
        <ele>1436.2</ele>
        <time>2022-09-11T11:44:22Z</time>
      </trkpt>
      <trkpt lat="44.61589" lon="6.21691">
        <ele>1436.4</ele>
        <time>2022-09-11T11:44:23Z</time>
      </trkpt>
      <trkpt lat="44.61586" lon="6.21693">
        <ele>1436.7</ele>
        <time>2022-09-11T11:44:24Z</time>
      </trkpt>
      <trkpt lat="44.61585" lon="6.21693">
        <ele>1436.8</ele>
        <time>2022-09-11T11:44:25Z</time>
      </trkpt>
      <trkpt lat="44.61583" lon="6.21695">
        <ele>1437.1</ele>
        <time>2022-09-11T11:44:26Z</time>
      </trkpt>
      <trkpt lat="44.61582" lon="6.21696">
        <ele>1437.2</ele>
        <time>2022-09-11T11:44:27Z</time>
      </trkpt>
      <trkpt lat="44.6158" lon="6.21698">
        <ele>1437.5</ele>
        <time>2022-09-11T11:44:28Z</time>
      </trkpt>
      <trkpt lat="44.61579" lon="6.21699">
        <ele>1437.6</ele>
        <time>2022-09-11T11:44:29Z</time>
      </trkpt>
      <trkpt lat="44.61577" lon="6.21702">
        <ele>1437.9</ele>
        <time>2022-09-11T11:44:30Z</time>
      </trkpt>
      <trkpt lat="44.61576" lon="6.21704">
        <ele>1438</ele>
        <time>2022-09-11T11:44:31Z</time>
      </trkpt>
      <trkpt lat="44.61575" lon="6.21708">
        <ele>1438.4</ele>
        <time>2022-09-11T11:44:32Z</time>
      </trkpt>
      <trkpt lat="44.61574" lon="6.21709">
        <ele>1438.5</ele>
        <time>2022-09-11T11:44:33Z</time>
      </trkpt>
      <trkpt lat="44.61573" lon="6.21713">
        <ele>1438.8</ele>
        <time>2022-09-11T11:44:34Z</time>
      </trkpt>
      <trkpt lat="44.61573" lon="6.21714">
        <ele>1438.9</ele>
        <time>2022-09-11T11:44:35Z</time>
      </trkpt>
      <trkpt lat="44.61571" lon="6.21719">
        <ele>1439.3</ele>
        <time>2022-09-11T11:44:36Z</time>
      </trkpt>
      <trkpt lat="44.6157" lon="6.21723">
        <ele>1439.5</ele>
        <time>2022-09-11T11:44:38Z</time>
      </trkpt>
      <trkpt lat="44.6157" lon="6.21724">
        <ele>1439.6</ele>
        <time>2022-09-11T11:44:39Z</time>
      </trkpt>
      <trkpt lat="44.61568" lon="6.21728">
        <ele>1440</ele>
        <time>2022-09-11T11:44:40Z</time>
      </trkpt>
      <trkpt lat="44.61566" lon="6.21732">
        <ele>1440.3</ele>
        <time>2022-09-11T11:44:42Z</time>
      </trkpt>
      <trkpt lat="44.61565" lon="6.21733">
        <ele>1440.4</ele>
        <time>2022-09-11T11:44:43Z</time>
      </trkpt>
      <trkpt lat="44.61562" lon="6.21735">
        <ele>1440.8</ele>
        <time>2022-09-11T11:44:44Z</time>
      </trkpt>
      <trkpt lat="44.61561" lon="6.21736">
        <ele>1440.9</ele>
        <time>2022-09-11T11:44:45Z</time>
      </trkpt>
      <trkpt lat="44.61559" lon="6.21739">
        <ele>1441.1</ele>
        <time>2022-09-11T11:44:47Z</time>
      </trkpt>
      <trkpt lat="44.61558" lon="6.2174">
        <ele>1441.2</ele>
        <time>2022-09-11T11:44:48Z</time>
      </trkpt>
      <trkpt lat="44.61557" lon="6.21742">
        <ele>1441.4</ele>
        <time>2022-09-11T11:44:49Z</time>
      </trkpt>
      <trkpt lat="44.61555" lon="6.21743">
        <ele>1441.5</ele>
        <time>2022-09-11T11:44:51Z</time>
      </trkpt>
      <trkpt lat="44.61555" lon="6.21743">
        <ele>1441.6</ele>
        <time>2022-09-11T11:44:52Z</time>
      </trkpt>
      <trkpt lat="44.61553" lon="6.21745">
        <ele>1441.8</ele>
        <time>2022-09-11T11:44:53Z</time>
      </trkpt>
      <trkpt lat="44.61551" lon="6.21747">
        <ele>1442</ele>
        <time>2022-09-11T11:44:54Z</time>
      </trkpt>
      <trkpt lat="44.61547" lon="6.21749">
        <ele>1442.3</ele>
        <time>2022-09-11T11:44:56Z</time>
      </trkpt>
      <trkpt lat="44.61545" lon="6.2175">
        <ele>1442.4</ele>
        <time>2022-09-11T11:44:57Z</time>
      </trkpt>
      <trkpt lat="44.61541" lon="6.21751">
        <ele>1442.7</ele>
        <time>2022-09-11T11:44:59Z</time>
      </trkpt>
      <trkpt lat="44.61539" lon="6.21751">
        <ele>1442.8</ele>
        <time>2022-09-11T11:45:01Z</time>
      </trkpt>
      <trkpt lat="44.61536" lon="6.21753">
        <ele>1443.1</ele>
        <time>2022-09-11T11:45:02Z</time>
      </trkpt>
      <trkpt lat="44.61534" lon="6.21754">
        <ele>1443.2</ele>
        <time>2022-09-11T11:45:03Z</time>
      </trkpt>
      <trkpt lat="44.6153" lon="6.21755">
        <ele>1443.5</ele>
        <time>2022-09-11T11:45:05Z</time>
      </trkpt>
      <trkpt lat="44.61529" lon="6.21755">
        <ele>1443.6</ele>
        <time>2022-09-11T11:45:06Z</time>
      </trkpt>
      <trkpt lat="44.61528" lon="6.21755">
        <ele>1443.7</ele>
        <time>2022-09-11T11:45:07Z</time>
      </trkpt>
      <trkpt lat="44.61525" lon="6.21756">
        <ele>1443.9</ele>
        <time>2022-09-11T11:45:09Z</time>
      </trkpt>
      <trkpt lat="44.61522" lon="6.21757">
        <ele>1444.2</ele>
        <time>2022-09-11T11:45:10Z</time>
      </trkpt>
      <trkpt lat="44.61521" lon="6.21757">
        <ele>1444.3</ele>
        <time>2022-09-11T11:45:11Z</time>
      </trkpt>
      <trkpt lat="44.61517" lon="6.21757">
        <ele>1444.6</ele>
        <time>2022-09-11T11:45:13Z</time>
      </trkpt>
      <trkpt lat="44.61517" lon="6.21757">
        <ele>1444.6</ele>
        <time>2022-09-11T11:45:14Z</time>
      </trkpt>
      <trkpt lat="44.61513" lon="6.21757">
        <ele>1444.9</ele>
        <time>2022-09-11T11:45:15Z</time>
      </trkpt>
      <trkpt lat="44.61513" lon="6.21757">
        <ele>1445</ele>
        <time>2022-09-11T11:45:16Z</time>
      </trkpt>
      <trkpt lat="44.61509" lon="6.21757">
        <ele>1445.3</ele>
        <time>2022-09-11T11:45:17Z</time>
      </trkpt>
      <trkpt lat="44.61507" lon="6.21757">
        <ele>1445.5</ele>
        <time>2022-09-11T11:45:18Z</time>
      </trkpt>
      <trkpt lat="44.61503" lon="6.21756">
        <ele>1445.9</ele>
        <time>2022-09-11T11:45:20Z</time>
      </trkpt>
      <trkpt lat="44.61502" lon="6.21757">
        <ele>1446.1</ele>
        <time>2022-09-11T11:45:22Z</time>
      </trkpt>
      <trkpt lat="44.615" lon="6.21757">
        <ele>1446.2</ele>
        <time>2022-09-11T11:45:23Z</time>
      </trkpt>
      <trkpt lat="44.61498" lon="6.21757">
        <ele>1446.4</ele>
        <time>2022-09-11T11:45:24Z</time>
      </trkpt>
      <trkpt lat="44.61496" lon="6.21758">
        <ele>1446.6</ele>
        <time>2022-09-11T11:45:25Z</time>
      </trkpt>
      <trkpt lat="44.61495" lon="6.21758">
        <ele>1446.7</ele>
        <time>2022-09-11T11:45:26Z</time>
      </trkpt>
      <trkpt lat="44.61492" lon="6.21758">
        <ele>1447</ele>
        <time>2022-09-11T11:45:27Z</time>
      </trkpt>
      <trkpt lat="44.61491" lon="6.21759">
        <ele>1447.1</ele>
        <time>2022-09-11T11:45:28Z</time>
      </trkpt>
      <trkpt lat="44.61489" lon="6.2176">
        <ele>1447.3</ele>
        <time>2022-09-11T11:45:29Z</time>
      </trkpt>
      <trkpt lat="44.61487" lon="6.2176">
        <ele>1447.5</ele>
        <time>2022-09-11T11:45:30Z</time>
      </trkpt>
      <trkpt lat="44.61483" lon="6.21763">
        <ele>1447.9</ele>
        <time>2022-09-11T11:45:31Z</time>
      </trkpt>
      <trkpt lat="44.61481" lon="6.21764">
        <ele>1448.2</ele>
        <time>2022-09-11T11:45:32Z</time>
      </trkpt>
      <trkpt lat="44.6148" lon="6.21765">
        <ele>1448.3</ele>
        <time>2022-09-11T11:45:33Z</time>
      </trkpt>
      <trkpt lat="44.61477" lon="6.21768">
        <ele>1448.6</ele>
        <time>2022-09-11T11:45:35Z</time>
      </trkpt>
      <trkpt lat="44.61476" lon="6.21768">
        <ele>1448.7</ele>
        <time>2022-09-11T11:45:36Z</time>
      </trkpt>
      <trkpt lat="44.61473" lon="6.2177">
        <ele>1449</ele>
        <time>2022-09-11T11:45:38Z</time>
      </trkpt>
      <trkpt lat="44.61469" lon="6.21772">
        <ele>1449.3</ele>
        <time>2022-09-11T11:45:39Z</time>
      </trkpt>
      <trkpt lat="44.61466" lon="6.21775">
        <ele>1449.7</ele>
        <time>2022-09-11T11:45:41Z</time>
      </trkpt>
      <trkpt lat="44.61464" lon="6.21776">
        <ele>1449.9</ele>
        <time>2022-09-11T11:45:42Z</time>
      </trkpt>
      <trkpt lat="44.61462" lon="6.21779">
        <ele>1450.2</ele>
        <time>2022-09-11T11:45:43Z</time>
      </trkpt>
      <trkpt lat="44.61461" lon="6.2178">
        <ele>1450.3</ele>
        <time>2022-09-11T11:45:44Z</time>
      </trkpt>
      <trkpt lat="44.61459" lon="6.21784">
        <ele>1450.7</ele>
        <time>2022-09-11T11:45:46Z</time>
      </trkpt>
      <trkpt lat="44.61458" lon="6.21786">
        <ele>1450.9</ele>
        <time>2022-09-11T11:45:47Z</time>
      </trkpt>
      <trkpt lat="44.61457" lon="6.21789">
        <ele>1451.1</ele>
        <time>2022-09-11T11:45:49Z</time>
      </trkpt>
      <trkpt lat="44.61454" lon="6.21794">
        <ele>1451.6</ele>
        <time>2022-09-11T11:45:50Z</time>
      </trkpt>
      <trkpt lat="44.61453" lon="6.21796">
        <ele>1451.8</ele>
        <time>2022-09-11T11:45:52Z</time>
      </trkpt>
      <trkpt lat="44.61452" lon="6.21798">
        <ele>1452</ele>
        <time>2022-09-11T11:45:53Z</time>
      </trkpt>
      <trkpt lat="44.6145" lon="6.21801">
        <ele>1452.4</ele>
        <time>2022-09-11T11:45:54Z</time>
      </trkpt>
      <trkpt lat="44.6145" lon="6.21802">
        <ele>1452.5</ele>
        <time>2022-09-11T11:45:55Z</time>
      </trkpt>
      <trkpt lat="44.61448" lon="6.21806">
        <ele>1452.9</ele>
        <time>2022-09-11T11:45:56Z</time>
      </trkpt>
      <trkpt lat="44.61447" lon="6.21807">
        <ele>1453</ele>
        <time>2022-09-11T11:45:57Z</time>
      </trkpt>
      <trkpt lat="44.61444" lon="6.21813">
        <ele>1453.7</ele>
        <time>2022-09-11T11:45:59Z</time>
      </trkpt>
      <trkpt lat="44.61442" lon="6.21815">
        <ele>1454</ele>
        <time>2022-09-11T11:46:01Z</time>
      </trkpt>
      <trkpt lat="44.61441" lon="6.21816">
        <ele>1454.2</ele>
        <time>2022-09-11T11:46:02Z</time>
      </trkpt>
      <trkpt lat="44.61437" lon="6.21818">
        <ele>1454.7</ele>
        <time>2022-09-11T11:46:03Z</time>
      </trkpt>
      <trkpt lat="44.61436" lon="6.21819">
        <ele>1454.9</ele>
        <time>2022-09-11T11:46:05Z</time>
      </trkpt>
      <trkpt lat="44.61433" lon="6.21819">
        <ele>1455.2</ele>
        <time>2022-09-11T11:46:06Z</time>
      </trkpt>
      <trkpt lat="44.61429" lon="6.21818">
        <ele>1455.5</ele>
        <time>2022-09-11T11:46:07Z</time>
      </trkpt>
      <trkpt lat="44.61428" lon="6.21818">
        <ele>1455.6</ele>
        <time>2022-09-11T11:46:08Z</time>
      </trkpt>
      <trkpt lat="44.61425" lon="6.21817">
        <ele>1455.8</ele>
        <time>2022-09-11T11:46:09Z</time>
      </trkpt>
      <trkpt lat="44.61422" lon="6.21816">
        <ele>1456</ele>
        <time>2022-09-11T11:46:11Z</time>
      </trkpt>
      <trkpt lat="44.61421" lon="6.21815">
        <ele>1456.1</ele>
        <time>2022-09-11T11:46:12Z</time>
      </trkpt>
      <trkpt lat="44.61419" lon="6.21814">
        <ele>1456.3</ele>
        <time>2022-09-11T11:46:13Z</time>
      </trkpt>
      <trkpt lat="44.61417" lon="6.21814">
        <ele>1456.3</ele>
        <time>2022-09-11T11:46:14Z</time>
      </trkpt>
      <trkpt lat="44.61415" lon="6.21813">
        <ele>1456.5</ele>
        <time>2022-09-11T11:46:15Z</time>
      </trkpt>
      <trkpt lat="44.61414" lon="6.21813">
        <ele>1456.5</ele>
        <time>2022-09-11T11:46:16Z</time>
      </trkpt>
      <trkpt lat="44.61412" lon="6.21812">
        <ele>1456.6</ele>
        <time>2022-09-11T11:46:17Z</time>
      </trkpt>
      <trkpt lat="44.6141" lon="6.21812">
        <ele>1456.7</ele>
        <time>2022-09-11T11:46:18Z</time>
      </trkpt>
      <trkpt lat="44.61407" lon="6.21812">
        <ele>1456.9</ele>
        <time>2022-09-11T11:46:19Z</time>
      </trkpt>
      <trkpt lat="44.61406" lon="6.21812">
        <ele>1456.9</ele>
        <time>2022-09-11T11:46:20Z</time>
      </trkpt>
      <trkpt lat="44.61404" lon="6.21812">
        <ele>1457</ele>
        <time>2022-09-11T11:46:21Z</time>
      </trkpt>
      <trkpt lat="44.61403" lon="6.21812">
        <ele>1457.1</ele>
        <time>2022-09-11T11:46:22Z</time>
      </trkpt>
      <trkpt lat="44.61399" lon="6.21812">
        <ele>1457.4</ele>
        <time>2022-09-11T11:46:23Z</time>
      </trkpt>
      <trkpt lat="44.61396" lon="6.21813">
        <ele>1457.5</ele>
        <time>2022-09-11T11:46:24Z</time>
      </trkpt>
      <trkpt lat="44.61395" lon="6.21813">
        <ele>1457.6</ele>
        <time>2022-09-11T11:46:25Z</time>
      </trkpt>
      <trkpt lat="44.61392" lon="6.21814">
        <ele>1457.8</ele>
        <time>2022-09-11T11:46:26Z</time>
      </trkpt>
      <trkpt lat="44.61391" lon="6.21814">
        <ele>1457.9</ele>
        <time>2022-09-11T11:46:27Z</time>
      </trkpt>
      <trkpt lat="44.61388" lon="6.21815">
        <ele>1458.1</ele>
        <time>2022-09-11T11:46:29Z</time>
      </trkpt>
      <trkpt lat="44.61387" lon="6.21815">
        <ele>1458.2</ele>
        <time>2022-09-11T11:46:30Z</time>
      </trkpt>
      <trkpt lat="44.61386" lon="6.21815">
        <ele>1458.3</ele>
        <time>2022-09-11T11:46:31Z</time>
      </trkpt>
      <trkpt lat="44.61384" lon="6.21815">
        <ele>1458.5</ele>
        <time>2022-09-11T11:46:32Z</time>
      </trkpt>
      <trkpt lat="44.61383" lon="6.21815">
        <ele>1458.6</ele>
        <time>2022-09-11T11:46:33Z</time>
      </trkpt>
      <trkpt lat="44.61381" lon="6.21815">
        <ele>1458.8</ele>
        <time>2022-09-11T11:46:34Z</time>
      </trkpt>
      <trkpt lat="44.61378" lon="6.21815">
        <ele>1459.1</ele>
        <time>2022-09-11T11:46:35Z</time>
      </trkpt>
      <trkpt lat="44.61377" lon="6.21815">
        <ele>1459.2</ele>
        <time>2022-09-11T11:46:36Z</time>
      </trkpt>
      <trkpt lat="44.61375" lon="6.21814">
        <ele>1459.3</ele>
        <time>2022-09-11T11:46:37Z</time>
      </trkpt>
      <trkpt lat="44.61372" lon="6.21813">
        <ele>1459.6</ele>
        <time>2022-09-11T11:46:38Z</time>
      </trkpt>
      <trkpt lat="44.61369" lon="6.21811">
        <ele>1459.9</ele>
        <time>2022-09-11T11:46:40Z</time>
      </trkpt>
      <trkpt lat="44.61368" lon="6.2181">
        <ele>1460.1</ele>
        <time>2022-09-11T11:46:41Z</time>
      </trkpt>
      <trkpt lat="44.61367" lon="6.2181">
        <ele>1460.2</ele>
        <time>2022-09-11T11:46:42Z</time>
      </trkpt>
      <trkpt lat="44.61364" lon="6.21808">
        <ele>1460.4</ele>
        <time>2022-09-11T11:46:43Z</time>
      </trkpt>
      <trkpt lat="44.61363" lon="6.21807">
        <ele>1460.6</ele>
        <time>2022-09-11T11:46:44Z</time>
      </trkpt>
      <trkpt lat="44.61361" lon="6.21805">
        <ele>1460.7</ele>
        <time>2022-09-11T11:46:45Z</time>
      </trkpt>
      <trkpt lat="44.6136" lon="6.21803">
        <ele>1460.9</ele>
        <time>2022-09-11T11:46:47Z</time>
      </trkpt>
      <trkpt lat="44.61357" lon="6.21801">
        <ele>1461.1</ele>
        <time>2022-09-11T11:46:48Z</time>
      </trkpt>
      <trkpt lat="44.61356" lon="6.218">
        <ele>1461.2</ele>
        <time>2022-09-11T11:46:49Z</time>
      </trkpt>
      <trkpt lat="44.61354" lon="6.21798">
        <ele>1461.4</ele>
        <time>2022-09-11T11:46:50Z</time>
      </trkpt>
      <trkpt lat="44.61353" lon="6.21797">
        <ele>1461.4</ele>
        <time>2022-09-11T11:46:51Z</time>
      </trkpt>
      <trkpt lat="44.61351" lon="6.21794">
        <ele>1461.6</ele>
        <time>2022-09-11T11:46:52Z</time>
      </trkpt>
      <trkpt lat="44.6135" lon="6.21793">
        <ele>1461.7</ele>
        <time>2022-09-11T11:46:53Z</time>
      </trkpt>
      <trkpt lat="44.61349" lon="6.21791">
        <ele>1461.8</ele>
        <time>2022-09-11T11:46:54Z</time>
      </trkpt>
      <trkpt lat="44.61347" lon="6.21788">
        <ele>1462.1</ele>
        <time>2022-09-11T11:46:56Z</time>
      </trkpt>
      <trkpt lat="44.61344" lon="6.21785">
        <ele>1462.3</ele>
        <time>2022-09-11T11:46:57Z</time>
      </trkpt>
      <trkpt lat="44.61343" lon="6.21784">
        <ele>1462.4</ele>
        <time>2022-09-11T11:46:58Z</time>
      </trkpt>
      <trkpt lat="44.6134" lon="6.21781">
        <ele>1462.6</ele>
        <time>2022-09-11T11:47:00Z</time>
      </trkpt>
      <trkpt lat="44.61339" lon="6.2178">
        <ele>1462.7</ele>
        <time>2022-09-11T11:47:01Z</time>
      </trkpt>
      <trkpt lat="44.61337" lon="6.21778">
        <ele>1462.9</ele>
        <time>2022-09-11T11:47:02Z</time>
      </trkpt>
      <trkpt lat="44.61336" lon="6.21777">
        <ele>1463</ele>
        <time>2022-09-11T11:47:03Z</time>
      </trkpt>
      <trkpt lat="44.61334" lon="6.21775">
        <ele>1463.2</ele>
        <time>2022-09-11T11:47:04Z</time>
      </trkpt>
      <trkpt lat="44.61332" lon="6.21772">
        <ele>1463.5</ele>
        <time>2022-09-11T11:47:05Z</time>
      </trkpt>
      <trkpt lat="44.61331" lon="6.21771">
        <ele>1463.5</ele>
        <time>2022-09-11T11:47:06Z</time>
      </trkpt>
      <trkpt lat="44.61329" lon="6.2177">
        <ele>1463.7</ele>
        <time>2022-09-11T11:47:07Z</time>
      </trkpt>
      <trkpt lat="44.61327" lon="6.21768">
        <ele>1463.9</ele>
        <time>2022-09-11T11:47:09Z</time>
      </trkpt>
      <trkpt lat="44.61326" lon="6.21767">
        <ele>1464</ele>
        <time>2022-09-11T11:47:10Z</time>
      </trkpt>
      <trkpt lat="44.61324" lon="6.21766">
        <ele>1464.2</ele>
        <time>2022-09-11T11:47:11Z</time>
      </trkpt>
      <trkpt lat="44.61321" lon="6.21764">
        <ele>1464.5</ele>
        <time>2022-09-11T11:47:12Z</time>
      </trkpt>
      <trkpt lat="44.6132" lon="6.21763">
        <ele>1464.6</ele>
        <time>2022-09-11T11:47:13Z</time>
      </trkpt>
      <trkpt lat="44.61318" lon="6.21762">
        <ele>1464.8</ele>
        <time>2022-09-11T11:47:14Z</time>
      </trkpt>
      <trkpt lat="44.61314" lon="6.2176">
        <ele>1465.2</ele>
        <time>2022-09-11T11:47:16Z</time>
      </trkpt>
      <trkpt lat="44.61311" lon="6.21759">
        <ele>1465.5</ele>
        <time>2022-09-11T11:47:17Z</time>
      </trkpt>
      <trkpt lat="44.6131" lon="6.21758">
        <ele>1465.6</ele>
        <time>2022-09-11T11:47:18Z</time>
      </trkpt>
      <trkpt lat="44.61305" lon="6.21758">
        <ele>1466.1</ele>
        <time>2022-09-11T11:47:19Z</time>
      </trkpt>
      <trkpt lat="44.61303" lon="6.21758">
        <ele>1466.3</ele>
        <time>2022-09-11T11:47:20Z</time>
      </trkpt>
      <trkpt lat="44.613" lon="6.21758">
        <ele>1466.5</ele>
        <time>2022-09-11T11:47:22Z</time>
      </trkpt>
      <trkpt lat="44.61297" lon="6.21758">
        <ele>1466.8</ele>
        <time>2022-09-11T11:47:23Z</time>
      </trkpt>
      <trkpt lat="44.61296" lon="6.21758">
        <ele>1466.9</ele>
        <time>2022-09-11T11:47:24Z</time>
      </trkpt>
      <trkpt lat="44.61293" lon="6.21758">
        <ele>1467.2</ele>
        <time>2022-09-11T11:47:25Z</time>
      </trkpt>
      <trkpt lat="44.61292" lon="6.21758">
        <ele>1467.3</ele>
        <time>2022-09-11T11:47:26Z</time>
      </trkpt>
      <trkpt lat="44.61288" lon="6.2176">
        <ele>1467.6</ele>
        <time>2022-09-11T11:47:27Z</time>
      </trkpt>
      <trkpt lat="44.61286" lon="6.21761">
        <ele>1467.8</ele>
        <time>2022-09-11T11:47:28Z</time>
      </trkpt>
      <trkpt lat="44.61284" lon="6.21762">
        <ele>1468</ele>
        <time>2022-09-11T11:47:30Z</time>
      </trkpt>
      <trkpt lat="44.61281" lon="6.21764">
        <ele>1468.2</ele>
        <time>2022-09-11T11:47:31Z</time>
      </trkpt>
      <trkpt lat="44.6128" lon="6.21765">
        <ele>1468.3</ele>
        <time>2022-09-11T11:47:32Z</time>
      </trkpt>
      <trkpt lat="44.61277" lon="6.21767">
        <ele>1468.5</ele>
        <time>2022-09-11T11:47:33Z</time>
      </trkpt>
      <trkpt lat="44.61275" lon="6.21769">
        <ele>1468.8</ele>
        <time>2022-09-11T11:47:35Z</time>
      </trkpt>
      <trkpt lat="44.61272" lon="6.21772">
        <ele>1469</ele>
        <time>2022-09-11T11:47:36Z</time>
      </trkpt>
      <trkpt lat="44.61268" lon="6.21775">
        <ele>1469.3</ele>
        <time>2022-09-11T11:47:38Z</time>
      </trkpt>
      <trkpt lat="44.61267" lon="6.21776">
        <ele>1469.4</ele>
        <time>2022-09-11T11:47:39Z</time>
      </trkpt>
      <trkpt lat="44.61266" lon="6.21777">
        <ele>1469.5</ele>
        <time>2022-09-11T11:47:40Z</time>
      </trkpt>
      <trkpt lat="44.61263" lon="6.21779">
        <ele>1469.9</ele>
        <time>2022-09-11T11:47:41Z</time>
      </trkpt>
      <trkpt lat="44.6126" lon="6.21781">
        <ele>1470.2</ele>
        <time>2022-09-11T11:47:42Z</time>
      </trkpt>
      <trkpt lat="44.61258" lon="6.21782">
        <ele>1470.3</ele>
        <time>2022-09-11T11:47:43Z</time>
      </trkpt>
      <trkpt lat="44.61255" lon="6.21783">
        <ele>1470.5</ele>
        <time>2022-09-11T11:47:44Z</time>
      </trkpt>
      <trkpt lat="44.61254" lon="6.21783">
        <ele>1470.6</ele>
        <time>2022-09-11T11:47:45Z</time>
      </trkpt>
      <trkpt lat="44.61249" lon="6.21784">
        <ele>1471</ele>
        <time>2022-09-11T11:47:47Z</time>
      </trkpt>
      <trkpt lat="44.61248" lon="6.21784">
        <ele>1471.1</ele>
        <time>2022-09-11T11:47:48Z</time>
      </trkpt>
      <trkpt lat="44.61246" lon="6.21783">
        <ele>1471.3</ele>
        <time>2022-09-11T11:47:49Z</time>
      </trkpt>
      <trkpt lat="44.61242" lon="6.21784">
        <ele>1471.5</ele>
        <time>2022-09-11T11:47:50Z</time>
      </trkpt>
      <trkpt lat="44.61241" lon="6.21784">
        <ele>1471.6</ele>
        <time>2022-09-11T11:47:51Z</time>
      </trkpt>
      <trkpt lat="44.61236" lon="6.21784">
        <ele>1472</ele>
        <time>2022-09-11T11:47:53Z</time>
      </trkpt>
      <trkpt lat="44.61233" lon="6.21785">
        <ele>1472.1</ele>
        <time>2022-09-11T11:47:54Z</time>
      </trkpt>
      <trkpt lat="44.61231" lon="6.21786">
        <ele>1472.3</ele>
        <time>2022-09-11T11:47:56Z</time>
      </trkpt>
      <trkpt lat="44.61228" lon="6.21789">
        <ele>1472.5</ele>
        <time>2022-09-11T11:47:57Z</time>
      </trkpt>
      <trkpt lat="44.61227" lon="6.21789">
        <ele>1472.6</ele>
        <time>2022-09-11T11:47:58Z</time>
      </trkpt>
      <trkpt lat="44.61224" lon="6.21792">
        <ele>1472.8</ele>
        <time>2022-09-11T11:47:59Z</time>
      </trkpt>
      <trkpt lat="44.61223" lon="6.21793">
        <ele>1472.9</ele>
        <time>2022-09-11T11:48:00Z</time>
      </trkpt>
      <trkpt lat="44.6122" lon="6.21796">
        <ele>1473.1</ele>
        <time>2022-09-11T11:48:01Z</time>
      </trkpt>
      <trkpt lat="44.61219" lon="6.21796">
        <ele>1473.2</ele>
        <time>2022-09-11T11:48:02Z</time>
      </trkpt>
      <trkpt lat="44.61215" lon="6.218">
        <ele>1473.5</ele>
        <time>2022-09-11T11:48:03Z</time>
      </trkpt>
      <trkpt lat="44.61213" lon="6.21802">
        <ele>1473.6</ele>
        <time>2022-09-11T11:48:04Z</time>
      </trkpt>
      <trkpt lat="44.61212" lon="6.21805">
        <ele>1473.7</ele>
        <time>2022-09-11T11:48:06Z</time>
      </trkpt>
      <trkpt lat="44.6121" lon="6.21809">
        <ele>1474</ele>
        <time>2022-09-11T11:48:07Z</time>
      </trkpt>
      <trkpt lat="44.61208" lon="6.21812">
        <ele>1474.2</ele>
        <time>2022-09-11T11:48:08Z</time>
      </trkpt>
      <trkpt lat="44.61206" lon="6.21815">
        <ele>1474.3</ele>
        <time>2022-09-11T11:48:09Z</time>
      </trkpt>
      <trkpt lat="44.61203" lon="6.2182">
        <ele>1474.6</ele>
        <time>2022-09-11T11:48:11Z</time>
      </trkpt>
      <trkpt lat="44.61202" lon="6.21822">
        <ele>1474.7</ele>
        <time>2022-09-11T11:48:12Z</time>
      </trkpt>
      <trkpt lat="44.61201" lon="6.21824">
        <ele>1474.8</ele>
        <time>2022-09-11T11:48:13Z</time>
      </trkpt>
      <trkpt lat="44.612" lon="6.21827">
        <ele>1475</ele>
        <time>2022-09-11T11:48:14Z</time>
      </trkpt>
      <trkpt lat="44.61198" lon="6.21832">
        <ele>1475.2</ele>
        <time>2022-09-11T11:48:15Z</time>
      </trkpt>
      <trkpt lat="44.61196" lon="6.21836">
        <ele>1475.5</ele>
        <time>2022-09-11T11:48:16Z</time>
      </trkpt>
      <trkpt lat="44.61195" lon="6.21838">
        <ele>1475.5</ele>
        <time>2022-09-11T11:48:17Z</time>
      </trkpt>
      <trkpt lat="44.61193" lon="6.21841">
        <ele>1475.7</ele>
        <time>2022-09-11T11:48:18Z</time>
      </trkpt>
      <trkpt lat="44.61192" lon="6.21844">
        <ele>1475.8</ele>
        <time>2022-09-11T11:48:20Z</time>
      </trkpt>
      <trkpt lat="44.61189" lon="6.2185">
        <ele>1476.1</ele>
        <time>2022-09-11T11:48:21Z</time>
      </trkpt>
      <trkpt lat="44.61188" lon="6.21853">
        <ele>1476.3</ele>
        <time>2022-09-11T11:48:22Z</time>
      </trkpt>
      <trkpt lat="44.61186" lon="6.21857">
        <ele>1476.4</ele>
        <time>2022-09-11T11:48:24Z</time>
      </trkpt>
      <trkpt lat="44.61183" lon="6.21861">
        <ele>1476.7</ele>
        <time>2022-09-11T11:48:25Z</time>
      </trkpt>
      <trkpt lat="44.61181" lon="6.21864">
        <ele>1476.8</ele>
        <time>2022-09-11T11:48:26Z</time>
      </trkpt>
      <trkpt lat="44.61178" lon="6.21867">
        <ele>1477.1</ele>
        <time>2022-09-11T11:48:27Z</time>
      </trkpt>
      <trkpt lat="44.61175" lon="6.21869">
        <ele>1477.2</ele>
        <time>2022-09-11T11:48:28Z</time>
      </trkpt>
      <trkpt lat="44.61172" lon="6.2187">
        <ele>1477.4</ele>
        <time>2022-09-11T11:48:29Z</time>
      </trkpt>
      <trkpt lat="44.61169" lon="6.21871">
        <ele>1477.6</ele>
        <time>2022-09-11T11:48:31Z</time>
      </trkpt>
      <trkpt lat="44.61165" lon="6.21871">
        <ele>1477.8</ele>
        <time>2022-09-11T11:48:32Z</time>
      </trkpt>
      <trkpt lat="44.61163" lon="6.21871">
        <ele>1478</ele>
        <time>2022-09-11T11:48:33Z</time>
      </trkpt>
      <trkpt lat="44.6116" lon="6.21871">
        <ele>1478.2</ele>
        <time>2022-09-11T11:48:35Z</time>
      </trkpt>
      <trkpt lat="44.61157" lon="6.21871">
        <ele>1478.3</ele>
        <time>2022-09-11T11:48:36Z</time>
      </trkpt>
      <trkpt lat="44.61153" lon="6.21871">
        <ele>1478.6</ele>
        <time>2022-09-11T11:48:37Z</time>
      </trkpt>
      <trkpt lat="44.6115" lon="6.21872">
        <ele>1478.7</ele>
        <time>2022-09-11T11:48:38Z</time>
      </trkpt>
      <trkpt lat="44.61146" lon="6.21873">
        <ele>1479</ele>
        <time>2022-09-11T11:48:39Z</time>
      </trkpt>
      <trkpt lat="44.61141" lon="6.21873">
        <ele>1479.2</ele>
        <time>2022-09-11T11:48:41Z</time>
      </trkpt>
      <trkpt lat="44.6114" lon="6.21873">
        <ele>1479.3</ele>
        <time>2022-09-11T11:48:42Z</time>
      </trkpt>
      <trkpt lat="44.61138" lon="6.21874">
        <ele>1479.4</ele>
        <time>2022-09-11T11:48:43Z</time>
      </trkpt>
      <trkpt lat="44.61134" lon="6.21874">
        <ele>1479.6</ele>
        <time>2022-09-11T11:48:44Z</time>
      </trkpt>
      <trkpt lat="44.61132" lon="6.21874">
        <ele>1479.7</ele>
        <time>2022-09-11T11:48:45Z</time>
      </trkpt>
      <trkpt lat="44.6113" lon="6.21874">
        <ele>1479.9</ele>
        <time>2022-09-11T11:48:46Z</time>
      </trkpt>
      <trkpt lat="44.61127" lon="6.21874">
        <ele>1480</ele>
        <time>2022-09-11T11:48:47Z</time>
      </trkpt>
      <trkpt lat="44.61123" lon="6.21875">
        <ele>1480.2</ele>
        <time>2022-09-11T11:48:48Z</time>
      </trkpt>
      <trkpt lat="44.6112" lon="6.21876">
        <ele>1480.4</ele>
        <time>2022-09-11T11:48:49Z</time>
      </trkpt>
      <trkpt lat="44.61117" lon="6.21877">
        <ele>1480.6</ele>
        <time>2022-09-11T11:48:50Z</time>
      </trkpt>
      <trkpt lat="44.61114" lon="6.21878">
        <ele>1480.7</ele>
        <time>2022-09-11T11:48:51Z</time>
      </trkpt>
      <trkpt lat="44.61109" lon="6.21879">
        <ele>1481</ele>
        <time>2022-09-11T11:48:53Z</time>
      </trkpt>
      <trkpt lat="44.61107" lon="6.2188">
        <ele>1481.1</ele>
        <time>2022-09-11T11:48:54Z</time>
      </trkpt>
      <trkpt lat="44.61106" lon="6.2188">
        <ele>1481.2</ele>
        <time>2022-09-11T11:48:55Z</time>
      </trkpt>
      <trkpt lat="44.61102" lon="6.21882">
        <ele>1481.4</ele>
        <time>2022-09-11T11:48:56Z</time>
      </trkpt>
      <trkpt lat="44.61098" lon="6.21884">
        <ele>1481.6</ele>
        <time>2022-09-11T11:48:57Z</time>
      </trkpt>
      <trkpt lat="44.61094" lon="6.21885">
        <ele>1481.8</ele>
        <time>2022-09-11T11:48:59Z</time>
      </trkpt>
      <trkpt lat="44.61091" lon="6.21886">
        <ele>1482</ele>
        <time>2022-09-11T11:49:00Z</time>
      </trkpt>
      <trkpt lat="44.61088" lon="6.21887">
        <ele>1482.1</ele>
        <time>2022-09-11T11:49:01Z</time>
      </trkpt>
      <trkpt lat="44.61086" lon="6.21889">
        <ele>1482.3</ele>
        <time>2022-09-11T11:49:02Z</time>
      </trkpt>
      <trkpt lat="44.61083" lon="6.2189">
        <ele>1482.4</ele>
        <time>2022-09-11T11:49:03Z</time>
      </trkpt>
      <trkpt lat="44.6108" lon="6.21892">
        <ele>1482.6</ele>
        <time>2022-09-11T11:49:04Z</time>
      </trkpt>
      <trkpt lat="44.61077" lon="6.21893">
        <ele>1482.7</ele>
        <time>2022-09-11T11:49:05Z</time>
      </trkpt>
      <trkpt lat="44.61073" lon="6.21894">
        <ele>1483</ele>
        <time>2022-09-11T11:49:06Z</time>
      </trkpt>
      <trkpt lat="44.6107" lon="6.21895">
        <ele>1483.1</ele>
        <time>2022-09-11T11:49:07Z</time>
      </trkpt>
      <trkpt lat="44.61066" lon="6.21896">
        <ele>1483.3</ele>
        <time>2022-09-11T11:49:08Z</time>
      </trkpt>
      <trkpt lat="44.61062" lon="6.21896">
        <ele>1483.5</ele>
        <time>2022-09-11T11:49:09Z</time>
      </trkpt>
      <trkpt lat="44.61059" lon="6.21896">
        <ele>1483.6</ele>
        <time>2022-09-11T11:49:11Z</time>
      </trkpt>
      <trkpt lat="44.61055" lon="6.21894">
        <ele>1483.8</ele>
        <time>2022-09-11T11:49:12Z</time>
      </trkpt>
      <trkpt lat="44.61051" lon="6.21893">
        <ele>1484</ele>
        <time>2022-09-11T11:49:13Z</time>
      </trkpt>
      <trkpt lat="44.61049" lon="6.21891">
        <ele>1484.1</ele>
        <time>2022-09-11T11:49:14Z</time>
      </trkpt>
      <trkpt lat="44.61044" lon="6.21889">
        <ele>1484.3</ele>
        <time>2022-09-11T11:49:15Z</time>
      </trkpt>
      <trkpt lat="44.61042" lon="6.21888">
        <ele>1484.3</ele>
        <time>2022-09-11T11:49:16Z</time>
      </trkpt>
      <trkpt lat="44.61039" lon="6.21887">
        <ele>1484.5</ele>
        <time>2022-09-11T11:49:17Z</time>
      </trkpt>
      <trkpt lat="44.61036" lon="6.21885">
        <ele>1484.6</ele>
        <time>2022-09-11T11:49:19Z</time>
      </trkpt>
      <trkpt lat="44.61033" lon="6.21884">
        <ele>1484.7</ele>
        <time>2022-09-11T11:49:20Z</time>
      </trkpt>
      <trkpt lat="44.6103" lon="6.21882">
        <ele>1484.8</ele>
        <time>2022-09-11T11:49:21Z</time>
      </trkpt>
      <trkpt lat="44.61027" lon="6.21881">
        <ele>1484.8</ele>
        <time>2022-09-11T11:49:22Z</time>
      </trkpt>
      <trkpt lat="44.61024" lon="6.21881">
        <ele>1484.9</ele>
        <time>2022-09-11T11:49:23Z</time>
      </trkpt>
      <trkpt lat="44.6102" lon="6.21881">
        <ele>1485</ele>
        <time>2022-09-11T11:49:24Z</time>
      </trkpt>
      <trkpt lat="44.61013" lon="6.21881">
        <ele>1485.2</ele>
        <time>2022-09-11T11:49:25Z</time>
      </trkpt>
      <trkpt lat="44.61009" lon="6.21882">
        <ele>1485.3</ele>
        <time>2022-09-11T11:49:27Z</time>
      </trkpt>
      <trkpt lat="44.61005" lon="6.21882">
        <ele>1485.4</ele>
        <time>2022-09-11T11:49:28Z</time>
      </trkpt>
      <trkpt lat="44.61002" lon="6.21883">
        <ele>1485.5</ele>
        <time>2022-09-11T11:49:29Z</time>
      </trkpt>
      <trkpt lat="44.60998" lon="6.21882">
        <ele>1485.6</ele>
        <time>2022-09-11T11:49:30Z</time>
      </trkpt>
      <trkpt lat="44.60993" lon="6.21882">
        <ele>1485.8</ele>
        <time>2022-09-11T11:49:31Z</time>
      </trkpt>
      <trkpt lat="44.60988" lon="6.21881">
        <ele>1485.9</ele>
        <time>2022-09-11T11:49:32Z</time>
      </trkpt>
      <trkpt lat="44.60981" lon="6.21878">
        <ele>1486.1</ele>
        <time>2022-09-11T11:49:33Z</time>
      </trkpt>
      <trkpt lat="44.60977" lon="6.21876">
        <ele>1486.2</ele>
        <time>2022-09-11T11:49:34Z</time>
      </trkpt>
      <trkpt lat="44.60973" lon="6.21873">
        <ele>1486.3</ele>
        <time>2022-09-11T11:49:36Z</time>
      </trkpt>
      <trkpt lat="44.60969" lon="6.2187">
        <ele>1486.4</ele>
        <time>2022-09-11T11:49:37Z</time>
      </trkpt>
      <trkpt lat="44.60963" lon="6.21865">
        <ele>1486.6</ele>
        <time>2022-09-11T11:49:38Z</time>
      </trkpt>
      <trkpt lat="44.6096" lon="6.21861">
        <ele>1486.7</ele>
        <time>2022-09-11T11:49:40Z</time>
      </trkpt>
      <trkpt lat="44.60953" lon="6.21857">
        <ele>1486.9</ele>
        <time>2022-09-11T11:49:41Z</time>
      </trkpt>
      <trkpt lat="44.6095" lon="6.21855">
        <ele>1487</ele>
        <time>2022-09-11T11:49:43Z</time>
      </trkpt>
      <trkpt lat="44.60945" lon="6.21853">
        <ele>1487.1</ele>
        <time>2022-09-11T11:49:44Z</time>
      </trkpt>
      <trkpt lat="44.60941" lon="6.21852">
        <ele>1487.2</ele>
        <time>2022-09-11T11:49:45Z</time>
      </trkpt>
      <trkpt lat="44.60937" lon="6.21852">
        <ele>1487.3</ele>
        <time>2022-09-11T11:49:46Z</time>
      </trkpt>
      <trkpt lat="44.60931" lon="6.21853">
        <ele>1487.4</ele>
        <time>2022-09-11T11:49:47Z</time>
      </trkpt>
      <trkpt lat="44.60923" lon="6.21854">
        <ele>1487.6</ele>
        <time>2022-09-11T11:49:49Z</time>
      </trkpt>
      <trkpt lat="44.60919" lon="6.21856">
        <ele>1487.7</ele>
        <time>2022-09-11T11:49:51Z</time>
      </trkpt>
      <trkpt lat="44.60913" lon="6.21857">
        <ele>1487.8</ele>
        <time>2022-09-11T11:49:52Z</time>
      </trkpt>
      <trkpt lat="44.60908" lon="6.21859">
        <ele>1487.9</ele>
        <time>2022-09-11T11:49:53Z</time>
      </trkpt>
      <trkpt lat="44.60898" lon="6.21858">
        <ele>1488.1</ele>
        <time>2022-09-11T11:49:55Z</time>
      </trkpt>
      <trkpt lat="44.60894" lon="6.21855">
        <ele>1488.1</ele>
        <time>2022-09-11T11:49:57Z</time>
      </trkpt>
      <trkpt lat="44.60888" lon="6.21855">
        <ele>1488.2</ele>
        <time>2022-09-11T11:49:58Z</time>
      </trkpt>
      <trkpt lat="44.60883" lon="6.21853">
        <ele>1488.3</ele>
        <time>2022-09-11T11:49:59Z</time>
      </trkpt>
      <trkpt lat="44.60878" lon="6.2185">
        <ele>1488.4</ele>
        <time>2022-09-11T11:50:00Z</time>
      </trkpt>
      <trkpt lat="44.60875" lon="6.21846">
        <ele>1488.5</ele>
        <time>2022-09-11T11:50:01Z</time>
      </trkpt>
      <trkpt lat="44.60872" lon="6.21842">
        <ele>1488.5</ele>
        <time>2022-09-11T11:50:02Z</time>
      </trkpt>
      <trkpt lat="44.60868" lon="6.21838">
        <ele>1488.6</ele>
        <time>2022-09-11T11:50:03Z</time>
      </trkpt>
      <trkpt lat="44.60866" lon="6.21835">
        <ele>1488.6</ele>
        <time>2022-09-11T11:50:04Z</time>
      </trkpt>
      <trkpt lat="44.60864" lon="6.21833">
        <ele>1488.7</ele>
        <time>2022-09-11T11:50:05Z</time>
      </trkpt>
      <trkpt lat="44.60861" lon="6.21825">
        <ele>1488.8</ele>
        <time>2022-09-11T11:50:06Z</time>
      </trkpt>
      <trkpt lat="44.60857" lon="6.21817">
        <ele>1488.9</ele>
        <time>2022-09-11T11:50:07Z</time>
      </trkpt>
      <trkpt lat="44.60854" lon="6.21808">
        <ele>1488.9</ele>
        <time>2022-09-11T11:50:09Z</time>
      </trkpt>
      <trkpt lat="44.60853" lon="6.21801">
        <ele>1489</ele>
        <time>2022-09-11T11:50:10Z</time>
      </trkpt>
      <trkpt lat="44.60853" lon="6.21794">
        <ele>1489</ele>
        <time>2022-09-11T11:50:11Z</time>
      </trkpt>
      <trkpt lat="44.60853" lon="6.21787">
        <ele>1489.1</ele>
        <time>2022-09-11T11:50:12Z</time>
      </trkpt>
      <trkpt lat="44.60855" lon="6.2178">
        <ele>1489.1</ele>
        <time>2022-09-11T11:50:13Z</time>
      </trkpt>
      <trkpt lat="44.60857" lon="6.21775">
        <ele>1489.1</ele>
        <time>2022-09-11T11:50:14Z</time>
      </trkpt>
      <trkpt lat="44.60859" lon="6.21769">
        <ele>1489.2</ele>
        <time>2022-09-11T11:50:15Z</time>
      </trkpt>
      <trkpt lat="44.60862" lon="6.21764">
        <ele>1489.2</ele>
        <time>2022-09-11T11:50:16Z</time>
      </trkpt>
      <trkpt lat="44.60864" lon="6.2176">
        <ele>1489.3</ele>
        <time>2022-09-11T11:50:17Z</time>
      </trkpt>
      <trkpt lat="44.60868" lon="6.21754">
        <ele>1489.4</ele>
        <time>2022-09-11T11:50:18Z</time>
      </trkpt>
      <trkpt lat="44.60871" lon="6.21749">
        <ele>1489.5</ele>
        <time>2022-09-11T11:50:19Z</time>
      </trkpt>
      <trkpt lat="44.60873" lon="6.21744">
        <ele>1489.5</ele>
        <time>2022-09-11T11:50:20Z</time>
      </trkpt>
      <trkpt lat="44.60874" lon="6.21741">
        <ele>1489.6</ele>
        <time>2022-09-11T11:50:21Z</time>
      </trkpt>
      <trkpt lat="44.60875" lon="6.2174">
        <ele>1489.6</ele>
        <time>2022-09-11T11:50:22Z</time>
      </trkpt>
      <trkpt lat="44.60878" lon="6.21733">
        <ele>1489.8</ele>
        <time>2022-09-11T11:50:23Z</time>
      </trkpt>
      <trkpt lat="44.60881" lon="6.21723">
        <ele>1490</ele>
        <time>2022-09-11T11:50:24Z</time>
      </trkpt>
      <trkpt lat="44.60881" lon="6.21717">
        <ele>1490.1</ele>
        <time>2022-09-11T11:50:25Z</time>
      </trkpt>
      <trkpt lat="44.60881" lon="6.2171">
        <ele>1490.2</ele>
        <time>2022-09-11T11:50:26Z</time>
      </trkpt>
      <trkpt lat="44.6088" lon="6.21702">
        <ele>1490.3</ele>
        <time>2022-09-11T11:50:27Z</time>
      </trkpt>
      <trkpt lat="44.60878" lon="6.21696">
        <ele>1490.4</ele>
        <time>2022-09-11T11:50:29Z</time>
      </trkpt>
      <trkpt lat="44.60876" lon="6.2169">
        <ele>1490.6</ele>
        <time>2022-09-11T11:50:30Z</time>
      </trkpt>
      <trkpt lat="44.60874" lon="6.21681">
        <ele>1490.7</ele>
        <time>2022-09-11T11:50:31Z</time>
      </trkpt>
      <trkpt lat="44.60872" lon="6.21675">
        <ele>1490.9</ele>
        <time>2022-09-11T11:50:32Z</time>
      </trkpt>
      <trkpt lat="44.60871" lon="6.21668">
        <ele>1490.9</ele>
        <time>2022-09-11T11:50:33Z</time>
      </trkpt>
      <trkpt lat="44.60871" lon="6.21663">
        <ele>1490.9</ele>
        <time>2022-09-11T11:50:34Z</time>
      </trkpt>
      <trkpt lat="44.60871" lon="6.2166">
        <ele>1490.9</ele>
        <time>2022-09-11T11:50:35Z</time>
      </trkpt>
      <trkpt lat="44.60877" lon="6.21646">
        <ele>1491</ele>
        <time>2022-09-11T11:50:37Z</time>
      </trkpt>
      <trkpt lat="44.60879" lon="6.21643">
        <ele>1491</ele>
        <time>2022-09-11T11:50:39Z</time>
      </trkpt>
      <trkpt lat="44.60882" lon="6.21638">
        <ele>1491.1</ele>
        <time>2022-09-11T11:50:40Z</time>
      </trkpt>
      <trkpt lat="44.60885" lon="6.21634">
        <ele>1491.2</ele>
        <time>2022-09-11T11:50:41Z</time>
      </trkpt>
      <trkpt lat="44.60888" lon="6.2163">
        <ele>1491.3</ele>
        <time>2022-09-11T11:50:43Z</time>
      </trkpt>
      <trkpt lat="44.6089" lon="6.21627">
        <ele>1491.4</ele>
        <time>2022-09-11T11:50:44Z</time>
      </trkpt>
      <trkpt lat="44.60893" lon="6.21624">
        <ele>1491.5</ele>
        <time>2022-09-11T11:50:45Z</time>
      </trkpt>
      <trkpt lat="44.60896" lon="6.2162">
        <ele>1491.7</ele>
        <time>2022-09-11T11:50:46Z</time>
      </trkpt>
      <trkpt lat="44.60898" lon="6.21617">
        <ele>1491.8</ele>
        <time>2022-09-11T11:50:48Z</time>
      </trkpt>
      <trkpt lat="44.609" lon="6.21613">
        <ele>1492</ele>
        <time>2022-09-11T11:50:49Z</time>
      </trkpt>
      <trkpt lat="44.60901" lon="6.21609">
        <ele>1492.1</ele>
        <time>2022-09-11T11:50:50Z</time>
      </trkpt>
      <trkpt lat="44.60901" lon="6.216">
        <ele>1492.4</ele>
        <time>2022-09-11T11:50:52Z</time>
      </trkpt>
      <trkpt lat="44.60899" lon="6.21596">
        <ele>1492.7</ele>
        <time>2022-09-11T11:50:54Z</time>
      </trkpt>
      <trkpt lat="44.60897" lon="6.21593">
        <ele>1492.8</ele>
        <time>2022-09-11T11:50:55Z</time>
      </trkpt>
      <trkpt lat="44.60893" lon="6.2159">
        <ele>1493</ele>
        <time>2022-09-11T11:50:56Z</time>
      </trkpt>
      <trkpt lat="44.6089" lon="6.21591">
        <ele>1493.1</ele>
        <time>2022-09-11T11:50:58Z</time>
      </trkpt>
      <trkpt lat="44.60887" lon="6.21593">
        <ele>1493.2</ele>
        <time>2022-09-11T11:50:59Z</time>
      </trkpt>
      <trkpt lat="44.60885" lon="6.21594">
        <ele>1493.3</ele>
        <time>2022-09-11T11:51:00Z</time>
      </trkpt>
      <trkpt lat="44.60883" lon="6.21596">
        <ele>1493.4</ele>
        <time>2022-09-11T11:51:01Z</time>
      </trkpt>
      <trkpt lat="44.6088" lon="6.21599">
        <ele>1493.4</ele>
        <time>2022-09-11T11:51:02Z</time>
      </trkpt>
      <trkpt lat="44.60876" lon="6.21604">
        <ele>1493.6</ele>
        <time>2022-09-11T11:51:03Z</time>
      </trkpt>
      <trkpt lat="44.60873" lon="6.21607">
        <ele>1493.7</ele>
        <time>2022-09-11T11:51:05Z</time>
      </trkpt>
      <trkpt lat="44.60871" lon="6.21611">
        <ele>1493.8</ele>
        <time>2022-09-11T11:51:06Z</time>
      </trkpt>
      <trkpt lat="44.60867" lon="6.21615">
        <ele>1493.9</ele>
        <time>2022-09-11T11:51:08Z</time>
      </trkpt>
      <trkpt lat="44.60865" lon="6.21617">
        <ele>1494</ele>
        <time>2022-09-11T11:51:09Z</time>
      </trkpt>
      <trkpt lat="44.60861" lon="6.2162">
        <ele>1494.2</ele>
        <time>2022-09-11T11:51:10Z</time>
      </trkpt>
      <trkpt lat="44.60858" lon="6.21621">
        <ele>1494.2</ele>
        <time>2022-09-11T11:51:11Z</time>
      </trkpt>
      <trkpt lat="44.60856" lon="6.21623">
        <ele>1494.5</ele>
        <time>2022-09-11T11:51:13Z</time>
      </trkpt>
      <trkpt lat="44.60853" lon="6.21624">
        <ele>1494.8</ele>
        <time>2022-09-11T11:51:14Z</time>
      </trkpt>
      <trkpt lat="44.60852" lon="6.21624">
        <ele>1494.9</ele>
        <time>2022-09-11T11:51:15Z</time>
      </trkpt>
      <trkpt lat="44.6085" lon="6.21624">
        <ele>1495</ele>
        <time>2022-09-11T11:51:16Z</time>
      </trkpt>
      <trkpt lat="44.60848" lon="6.21625">
        <ele>1495.2</ele>
        <time>2022-09-11T11:51:17Z</time>
      </trkpt>
      <trkpt lat="44.60846" lon="6.21625">
        <ele>1495.5</ele>
        <time>2022-09-11T11:51:18Z</time>
      </trkpt>
      <trkpt lat="44.60845" lon="6.21625">
        <ele>1495.6</ele>
        <time>2022-09-11T11:51:19Z</time>
      </trkpt>
      <trkpt lat="44.60843" lon="6.21625">
        <ele>1495.8</ele>
        <time>2022-09-11T11:51:20Z</time>
      </trkpt>
      <trkpt lat="44.60841" lon="6.21624">
        <ele>1495.9</ele>
        <time>2022-09-11T11:51:21Z</time>
      </trkpt>
      <trkpt lat="44.60838" lon="6.21624">
        <ele>1496.3</ele>
        <time>2022-09-11T11:51:22Z</time>
      </trkpt>
      <trkpt lat="44.60833" lon="6.21624">
        <ele>1496.7</ele>
        <time>2022-09-11T11:51:24Z</time>
      </trkpt>
      <trkpt lat="44.60832" lon="6.21624">
        <ele>1496.8</ele>
        <time>2022-09-11T11:51:26Z</time>
      </trkpt>
      <trkpt lat="44.60831" lon="6.21624">
        <ele>1497</ele>
        <time>2022-09-11T11:51:27Z</time>
      </trkpt>
      <trkpt lat="44.60828" lon="6.21623">
        <ele>1497.3</ele>
        <time>2022-09-11T11:51:28Z</time>
      </trkpt>
      <trkpt lat="44.60827" lon="6.21623">
        <ele>1497.3</ele>
        <time>2022-09-11T11:51:29Z</time>
      </trkpt>
      <trkpt lat="44.60825" lon="6.21623">
        <ele>1497.5</ele>
        <time>2022-09-11T11:51:30Z</time>
      </trkpt>
      <trkpt lat="44.60823" lon="6.21623">
        <ele>1497.7</ele>
        <time>2022-09-11T11:51:32Z</time>
      </trkpt>
      <trkpt lat="44.6082" lon="6.21623">
        <ele>1498</ele>
        <time>2022-09-11T11:51:33Z</time>
      </trkpt>
      <trkpt lat="44.60819" lon="6.21624">
        <ele>1498.1</ele>
        <time>2022-09-11T11:51:34Z</time>
      </trkpt>
      <trkpt lat="44.60818" lon="6.21624">
        <ele>1498.2</ele>
        <time>2022-09-11T11:51:36Z</time>
      </trkpt>
      <trkpt lat="44.60816" lon="6.21624">
        <ele>1498.4</ele>
        <time>2022-09-11T11:51:37Z</time>
      </trkpt>
      <trkpt lat="44.60813" lon="6.21625">
        <ele>1498.7</ele>
        <time>2022-09-11T11:51:38Z</time>
      </trkpt>
      <trkpt lat="44.60811" lon="6.21625">
        <ele>1498.9</ele>
        <time>2022-09-11T11:51:40Z</time>
      </trkpt>
      <trkpt lat="44.60807" lon="6.21626">
        <ele>1499.2</ele>
        <time>2022-09-11T11:51:41Z</time>
      </trkpt>
      <trkpt lat="44.60805" lon="6.21626">
        <ele>1499.4</ele>
        <time>2022-09-11T11:51:42Z</time>
      </trkpt>
      <trkpt lat="44.60801" lon="6.21628">
        <ele>1499.7</ele>
        <time>2022-09-11T11:51:44Z</time>
      </trkpt>
      <trkpt lat="44.608" lon="6.21628">
        <ele>1499.8</ele>
        <time>2022-09-11T11:51:45Z</time>
      </trkpt>
      <trkpt lat="44.60797" lon="6.2163">
        <ele>1500</ele>
        <time>2022-09-11T11:51:47Z</time>
      </trkpt>
      <trkpt lat="44.60796" lon="6.21631">
        <ele>1500.1</ele>
        <time>2022-09-11T11:51:48Z</time>
      </trkpt>
      <trkpt lat="44.60793" lon="6.21633">
        <ele>1500.4</ele>
        <time>2022-09-11T11:51:49Z</time>
      </trkpt>
      <trkpt lat="44.60792" lon="6.21634">
        <ele>1500.4</ele>
        <time>2022-09-11T11:51:50Z</time>
      </trkpt>
      <trkpt lat="44.60789" lon="6.21638">
        <ele>1500.6</ele>
        <time>2022-09-11T11:51:51Z</time>
      </trkpt>
      <trkpt lat="44.60786" lon="6.21641">
        <ele>1500.8</ele>
        <time>2022-09-11T11:51:52Z</time>
      </trkpt>
      <trkpt lat="44.60785" lon="6.21642">
        <ele>1500.9</ele>
        <time>2022-09-11T11:51:53Z</time>
      </trkpt>
      <trkpt lat="44.60782" lon="6.21645">
        <ele>1501.1</ele>
        <time>2022-09-11T11:51:54Z</time>
      </trkpt>
      <trkpt lat="44.60781" lon="6.21646">
        <ele>1501.2</ele>
        <time>2022-09-11T11:51:55Z</time>
      </trkpt>
      <trkpt lat="44.60778" lon="6.21649">
        <ele>1501.4</ele>
        <time>2022-09-11T11:51:56Z</time>
      </trkpt>
      <trkpt lat="44.60775" lon="6.21652">
        <ele>1501.5</ele>
        <time>2022-09-11T11:51:57Z</time>
      </trkpt>
      <trkpt lat="44.60773" lon="6.21654">
        <ele>1501.6</ele>
        <time>2022-09-11T11:51:59Z</time>
      </trkpt>
      <trkpt lat="44.60771" lon="6.21657">
        <ele>1501.8</ele>
        <time>2022-09-11T11:52:00Z</time>
      </trkpt>
      <trkpt lat="44.60767" lon="6.21662">
        <ele>1502</ele>
        <time>2022-09-11T11:52:01Z</time>
      </trkpt>
      <trkpt lat="44.60764" lon="6.21665">
        <ele>1502.1</ele>
        <time>2022-09-11T11:52:03Z</time>
      </trkpt>
      <trkpt lat="44.60762" lon="6.21668">
        <ele>1502.3</ele>
        <time>2022-09-11T11:52:04Z</time>
      </trkpt>
      <trkpt lat="44.6076" lon="6.21671">
        <ele>1502.4</ele>
        <time>2022-09-11T11:52:05Z</time>
      </trkpt>
      <trkpt lat="44.60758" lon="6.21674">
        <ele>1502.5</ele>
        <time>2022-09-11T11:52:06Z</time>
      </trkpt>
      <trkpt lat="44.60756" lon="6.21677">
        <ele>1502.7</ele>
        <time>2022-09-11T11:52:07Z</time>
      </trkpt>
      <trkpt lat="44.60754" lon="6.2168">
        <ele>1502.8</ele>
        <time>2022-09-11T11:52:08Z</time>
      </trkpt>
      <trkpt lat="44.60752" lon="6.21682">
        <ele>1502.9</ele>
        <time>2022-09-11T11:52:09Z</time>
      </trkpt>
      <trkpt lat="44.6075" lon="6.21685">
        <ele>1503.1</ele>
        <time>2022-09-11T11:52:10Z</time>
      </trkpt>
      <trkpt lat="44.60747" lon="6.21688">
        <ele>1503.2</ele>
        <time>2022-09-11T11:52:11Z</time>
      </trkpt>
      <trkpt lat="44.60745" lon="6.21691">
        <ele>1503.3</ele>
        <time>2022-09-11T11:52:12Z</time>
      </trkpt>
      <trkpt lat="44.60741" lon="6.21696">
        <ele>1503.6</ele>
        <time>2022-09-11T11:52:13Z</time>
      </trkpt>
      <trkpt lat="44.60738" lon="6.21698">
        <ele>1503.8</ele>
        <time>2022-09-11T11:52:15Z</time>
      </trkpt>
      <trkpt lat="44.60736" lon="6.217">
        <ele>1503.9</ele>
        <time>2022-09-11T11:52:16Z</time>
      </trkpt>
      <trkpt lat="44.60733" lon="6.21702">
        <ele>1504.1</ele>
        <time>2022-09-11T11:52:17Z</time>
      </trkpt>
      <trkpt lat="44.6073" lon="6.21703">
        <ele>1504.4</ele>
        <time>2022-09-11T11:52:18Z</time>
      </trkpt>
      <trkpt lat="44.60727" lon="6.21704">
        <ele>1504.6</ele>
        <time>2022-09-11T11:52:19Z</time>
      </trkpt>
      <trkpt lat="44.60724" lon="6.21705">
        <ele>1504.9</ele>
        <time>2022-09-11T11:52:20Z</time>
      </trkpt>
      <trkpt lat="44.60721" lon="6.21706">
        <ele>1505.1</ele>
        <time>2022-09-11T11:52:21Z</time>
      </trkpt>
      <trkpt lat="44.60718" lon="6.21707">
        <ele>1505.4</ele>
        <time>2022-09-11T11:52:22Z</time>
      </trkpt>
      <trkpt lat="44.60715" lon="6.21709">
        <ele>1505.6</ele>
        <time>2022-09-11T11:52:23Z</time>
      </trkpt>
      <trkpt lat="44.60709" lon="6.21713">
        <ele>1506.1</ele>
        <time>2022-09-11T11:52:24Z</time>
      </trkpt>
      <trkpt lat="44.60706" lon="6.21717">
        <ele>1506.4</ele>
        <time>2022-09-11T11:52:26Z</time>
      </trkpt>
      <trkpt lat="44.60705" lon="6.21722">
        <ele>1506.7</ele>
        <time>2022-09-11T11:52:27Z</time>
      </trkpt>
      <trkpt lat="44.60704" lon="6.21729">
        <ele>1507.1</ele>
        <time>2022-09-11T11:52:28Z</time>
      </trkpt>
      <trkpt lat="44.60705" lon="6.21737">
        <ele>1507.2</ele>
        <time>2022-09-11T11:52:29Z</time>
      </trkpt>
      <trkpt lat="44.60707" lon="6.21742">
        <ele>1507.3</ele>
        <time>2022-09-11T11:52:30Z</time>
      </trkpt>
      <trkpt lat="44.6071" lon="6.21746">
        <ele>1507.5</ele>
        <time>2022-09-11T11:52:32Z</time>
      </trkpt>
      <trkpt lat="44.60712" lon="6.21748">
        <ele>1507.6</ele>
        <time>2022-09-11T11:52:33Z</time>
      </trkpt>
      <trkpt lat="44.60715" lon="6.21751">
        <ele>1507.7</ele>
        <time>2022-09-11T11:52:34Z</time>
      </trkpt>
      <trkpt lat="44.6072" lon="6.21754">
        <ele>1508</ele>
        <time>2022-09-11T11:52:35Z</time>
      </trkpt>
      <trkpt lat="44.60723" lon="6.21756">
        <ele>1508.2</ele>
        <time>2022-09-11T11:52:37Z</time>
      </trkpt>
      <trkpt lat="44.60727" lon="6.21759">
        <ele>1508.4</ele>
        <time>2022-09-11T11:52:38Z</time>
      </trkpt>
      <trkpt lat="44.60729" lon="6.2176">
        <ele>1508.6</ele>
        <time>2022-09-11T11:52:39Z</time>
      </trkpt>
      <trkpt lat="44.60733" lon="6.21763">
        <ele>1509</ele>
        <time>2022-09-11T11:52:41Z</time>
      </trkpt>
      <trkpt lat="44.60735" lon="6.21764">
        <ele>1509.1</ele>
        <time>2022-09-11T11:52:42Z</time>
      </trkpt>
      <trkpt lat="44.60736" lon="6.21765">
        <ele>1509.3</ele>
        <time>2022-09-11T11:52:43Z</time>
      </trkpt>
      <trkpt lat="44.60739" lon="6.21768">
        <ele>1509.6</ele>
        <time>2022-09-11T11:52:44Z</time>
      </trkpt>
      <trkpt lat="44.6074" lon="6.21769">
        <ele>1509.7</ele>
        <time>2022-09-11T11:52:45Z</time>
      </trkpt>
      <trkpt lat="44.60742" lon="6.21772">
        <ele>1510</ele>
        <time>2022-09-11T11:52:46Z</time>
      </trkpt>
      <trkpt lat="44.60743" lon="6.21772">
        <ele>1510</ele>
        <time>2022-09-11T11:52:47Z</time>
      </trkpt>
      <trkpt lat="44.60745" lon="6.21775">
        <ele>1510.3</ele>
        <time>2022-09-11T11:52:48Z</time>
      </trkpt>
      <trkpt lat="44.60746" lon="6.21775">
        <ele>1510.4</ele>
        <time>2022-09-11T11:52:49Z</time>
      </trkpt>
      <trkpt lat="44.60748" lon="6.21778">
        <ele>1510.7</ele>
        <time>2022-09-11T11:52:50Z</time>
      </trkpt>
      <trkpt lat="44.60749" lon="6.21779">
        <ele>1510.7</ele>
        <time>2022-09-11T11:52:51Z</time>
      </trkpt>
      <trkpt lat="44.6075" lon="6.21782">
        <ele>1511</ele>
        <time>2022-09-11T11:52:52Z</time>
      </trkpt>
      <trkpt lat="44.60751" lon="6.21785">
        <ele>1511.2</ele>
        <time>2022-09-11T11:52:53Z</time>
      </trkpt>
      <trkpt lat="44.60752" lon="6.21788">
        <ele>1511.4</ele>
        <time>2022-09-11T11:52:55Z</time>
      </trkpt>
      <trkpt lat="44.60753" lon="6.21791">
        <ele>1511.6</ele>
        <time>2022-09-11T11:52:56Z</time>
      </trkpt>
      <trkpt lat="44.60753" lon="6.21793">
        <ele>1511.8</ele>
        <time>2022-09-11T11:52:57Z</time>
      </trkpt>
      <trkpt lat="44.60753" lon="6.21798">
        <ele>1512.1</ele>
        <time>2022-09-11T11:52:58Z</time>
      </trkpt>
      <trkpt lat="44.60753" lon="6.21801">
        <ele>1512.2</ele>
        <time>2022-09-11T11:52:59Z</time>
      </trkpt>
      <trkpt lat="44.60753" lon="6.21804">
        <ele>1512.4</ele>
        <time>2022-09-11T11:53:01Z</time>
      </trkpt>
      <trkpt lat="44.60752" lon="6.21808">
        <ele>1512.7</ele>
        <time>2022-09-11T11:53:02Z</time>
      </trkpt>
      <trkpt lat="44.60752" lon="6.21809">
        <ele>1512.7</ele>
        <time>2022-09-11T11:53:03Z</time>
      </trkpt>
      <trkpt lat="44.60751" lon="6.21811">
        <ele>1512.9</ele>
        <time>2022-09-11T11:53:04Z</time>
      </trkpt>
      <trkpt lat="44.6075" lon="6.21813">
        <ele>1513</ele>
        <time>2022-09-11T11:53:05Z</time>
      </trkpt>
      <trkpt lat="44.60748" lon="6.21816">
        <ele>1513.2</ele>
        <time>2022-09-11T11:53:06Z</time>
      </trkpt>
      <trkpt lat="44.60748" lon="6.21817">
        <ele>1513.3</ele>
        <time>2022-09-11T11:53:07Z</time>
      </trkpt>
      <trkpt lat="44.60746" lon="6.2182">
        <ele>1513.5</ele>
        <time>2022-09-11T11:53:08Z</time>
      </trkpt>
      <trkpt lat="44.60745" lon="6.21821">
        <ele>1513.6</ele>
        <time>2022-09-11T11:53:09Z</time>
      </trkpt>
      <trkpt lat="44.60743" lon="6.21823">
        <ele>1513.8</ele>
        <time>2022-09-11T11:53:10Z</time>
      </trkpt>
      <trkpt lat="44.60742" lon="6.21824">
        <ele>1513.8</ele>
        <time>2022-09-11T11:53:11Z</time>
      </trkpt>
      <trkpt lat="44.6074" lon="6.21826">
        <ele>1514.1</ele>
        <time>2022-09-11T11:53:12Z</time>
      </trkpt>
      <trkpt lat="44.60739" lon="6.21827">
        <ele>1514.1</ele>
        <time>2022-09-11T11:53:13Z</time>
      </trkpt>
      <trkpt lat="44.60736" lon="6.21829">
        <ele>1514.4</ele>
        <time>2022-09-11T11:53:14Z</time>
      </trkpt>
      <trkpt lat="44.60734" lon="6.2183">
        <ele>1514.5</ele>
        <time>2022-09-11T11:53:15Z</time>
      </trkpt>
      <trkpt lat="44.60732" lon="6.21832">
        <ele>1514.7</ele>
        <time>2022-09-11T11:53:17Z</time>
      </trkpt>
      <trkpt lat="44.60731" lon="6.21833">
        <ele>1514.8</ele>
        <time>2022-09-11T11:53:18Z</time>
      </trkpt>
      <trkpt lat="44.6073" lon="6.21836">
        <ele>1515</ele>
        <time>2022-09-11T11:53:19Z</time>
      </trkpt>
      <trkpt lat="44.60728" lon="6.21838">
        <ele>1515.2</ele>
        <time>2022-09-11T11:53:20Z</time>
      </trkpt>
      <trkpt lat="44.60727" lon="6.21841">
        <ele>1515.3</ele>
        <time>2022-09-11T11:53:21Z</time>
      </trkpt>
      <trkpt lat="44.60725" lon="6.21844">
        <ele>1515.5</ele>
        <time>2022-09-11T11:53:23Z</time>
      </trkpt>
      <trkpt lat="44.60724" lon="6.21846">
        <ele>1515.6</ele>
        <time>2022-09-11T11:53:24Z</time>
      </trkpt>
      <trkpt lat="44.60724" lon="6.21848">
        <ele>1515.7</ele>
        <time>2022-09-11T11:53:25Z</time>
      </trkpt>
      <trkpt lat="44.60722" lon="6.21853">
        <ele>1516</ele>
        <time>2022-09-11T11:53:26Z</time>
      </trkpt>
      <trkpt lat="44.60722" lon="6.21854">
        <ele>1516.1</ele>
        <time>2022-09-11T11:53:27Z</time>
      </trkpt>
      <trkpt lat="44.60722" lon="6.21858">
        <ele>1516.2</ele>
        <time>2022-09-11T11:53:29Z</time>
      </trkpt>
      <trkpt lat="44.60722" lon="6.21863">
        <ele>1516.5</ele>
        <time>2022-09-11T11:53:31Z</time>
      </trkpt>
      <trkpt lat="44.60722" lon="6.21868">
        <ele>1516.7</ele>
        <time>2022-09-11T11:53:32Z</time>
      </trkpt>
      <trkpt lat="44.60722" lon="6.21869">
        <ele>1516.8</ele>
        <time>2022-09-11T11:53:33Z</time>
      </trkpt>
      <trkpt lat="44.60723" lon="6.21873">
        <ele>1517</ele>
        <time>2022-09-11T11:53:34Z</time>
      </trkpt>
      <trkpt lat="44.60724" lon="6.21879">
        <ele>1517.2</ele>
        <time>2022-09-11T11:53:36Z</time>
      </trkpt>
      <trkpt lat="44.60724" lon="6.21881">
        <ele>1517.3</ele>
        <time>2022-09-11T11:53:37Z</time>
      </trkpt>
      <trkpt lat="44.60725" lon="6.21883">
        <ele>1517.4</ele>
        <time>2022-09-11T11:53:38Z</time>
      </trkpt>
      <trkpt lat="44.60726" lon="6.21888">
        <ele>1517.6</ele>
        <time>2022-09-11T11:53:39Z</time>
      </trkpt>
      <trkpt lat="44.60726" lon="6.21893">
        <ele>1517.9</ele>
        <time>2022-09-11T11:53:41Z</time>
      </trkpt>
      <trkpt lat="44.60727" lon="6.21896">
        <ele>1518</ele>
        <time>2022-09-11T11:53:42Z</time>
      </trkpt>
      <trkpt lat="44.60727" lon="6.21898">
        <ele>1518.1</ele>
        <time>2022-09-11T11:53:44Z</time>
      </trkpt>
      <trkpt lat="44.60727" lon="6.21902">
        <ele>1518.3</ele>
        <time>2022-09-11T11:53:45Z</time>
      </trkpt>
      <trkpt lat="44.60727" lon="6.21903">
        <ele>1518.4</ele>
        <time>2022-09-11T11:53:46Z</time>
      </trkpt>
      <trkpt lat="44.60727" lon="6.21907">
        <ele>1518.6</ele>
        <time>2022-09-11T11:53:47Z</time>
      </trkpt>
      <trkpt lat="44.60727" lon="6.21909">
        <ele>1518.7</ele>
        <time>2022-09-11T11:53:48Z</time>
      </trkpt>
      <trkpt lat="44.60727" lon="6.21913">
        <ele>1518.9</ele>
        <time>2022-09-11T11:53:49Z</time>
      </trkpt>
      <trkpt lat="44.60727" lon="6.21914">
        <ele>1519</ele>
        <time>2022-09-11T11:53:50Z</time>
      </trkpt>
      <trkpt lat="44.60727" lon="6.2192">
        <ele>1519.4</ele>
        <time>2022-09-11T11:53:51Z</time>
      </trkpt>
      <trkpt lat="44.60726" lon="6.21923">
        <ele>1519.5</ele>
        <time>2022-09-11T11:53:52Z</time>
      </trkpt>
      <trkpt lat="44.60726" lon="6.21926">
        <ele>1519.8</ele>
        <time>2022-09-11T11:53:54Z</time>
      </trkpt>
      <trkpt lat="44.60725" lon="6.2193">
        <ele>1520</ele>
        <time>2022-09-11T11:53:55Z</time>
      </trkpt>
      <trkpt lat="44.60725" lon="6.21931">
        <ele>1520.1</ele>
        <time>2022-09-11T11:53:56Z</time>
      </trkpt>
      <trkpt lat="44.60724" lon="6.21934">
        <ele>1520.3</ele>
        <time>2022-09-11T11:53:57Z</time>
      </trkpt>
      <trkpt lat="44.60723" lon="6.21936">
        <ele>1520.4</ele>
        <time>2022-09-11T11:53:58Z</time>
      </trkpt>
      <trkpt lat="44.60721" lon="6.21939">
        <ele>1520.7</ele>
        <time>2022-09-11T11:53:59Z</time>
      </trkpt>
      <trkpt lat="44.6072" lon="6.21941">
        <ele>1520.8</ele>
        <time>2022-09-11T11:54:01Z</time>
      </trkpt>
      <trkpt lat="44.60718" lon="6.21945">
        <ele>1520.9</ele>
        <time>2022-09-11T11:54:02Z</time>
      </trkpt>
      <trkpt lat="44.60717" lon="6.21946">
        <ele>1520.9</ele>
        <time>2022-09-11T11:54:03Z</time>
      </trkpt>
      <trkpt lat="44.60714" lon="6.21948">
        <ele>1521</ele>
        <time>2022-09-11T11:54:04Z</time>
      </trkpt>
      <trkpt lat="44.60713" lon="6.21948">
        <ele>1521</ele>
        <time>2022-09-11T11:54:05Z</time>
      </trkpt>
      <trkpt lat="44.6071" lon="6.2195">
        <ele>1521.2</ele>
        <time>2022-09-11T11:54:06Z</time>
      </trkpt>
      <trkpt lat="44.60707" lon="6.21951">
        <ele>1521.5</ele>
        <time>2022-09-11T11:54:08Z</time>
      </trkpt>
      <trkpt lat="44.60706" lon="6.21952">
        <ele>1521.6</ele>
        <time>2022-09-11T11:54:09Z</time>
      </trkpt>
      <trkpt lat="44.60704" lon="6.21953">
        <ele>1521.7</ele>
        <time>2022-09-11T11:54:10Z</time>
      </trkpt>
      <trkpt lat="44.60703" lon="6.21953">
        <ele>1521.8</ele>
        <time>2022-09-11T11:54:11Z</time>
      </trkpt>
      <trkpt lat="44.60701" lon="6.21954">
        <ele>1522</ele>
        <time>2022-09-11T11:54:12Z</time>
      </trkpt>
      <trkpt lat="44.60699" lon="6.21953">
        <ele>1522.2</ele>
        <time>2022-09-11T11:54:13Z</time>
      </trkpt>
      <trkpt lat="44.60696" lon="6.21952">
        <ele>1522.4</ele>
        <time>2022-09-11T11:54:14Z</time>
      </trkpt>
      <trkpt lat="44.60695" lon="6.21952">
        <ele>1522.5</ele>
        <time>2022-09-11T11:54:15Z</time>
      </trkpt>
      <trkpt lat="44.60692" lon="6.21951">
        <ele>1522.7</ele>
        <time>2022-09-11T11:54:16Z</time>
      </trkpt>
      <trkpt lat="44.60692" lon="6.2195">
        <ele>1522.8</ele>
        <time>2022-09-11T11:54:17Z</time>
      </trkpt>
      <trkpt lat="44.60689" lon="6.21948">
        <ele>1523.1</ele>
        <time>2022-09-11T11:54:18Z</time>
      </trkpt>
      <trkpt lat="44.60688" lon="6.21948">
        <ele>1523.1</ele>
        <time>2022-09-11T11:54:19Z</time>
      </trkpt>
      <trkpt lat="44.60685" lon="6.21945">
        <ele>1523.4</ele>
        <time>2022-09-11T11:54:20Z</time>
      </trkpt>
      <trkpt lat="44.60683" lon="6.21942">
        <ele>1523.7</ele>
        <time>2022-09-11T11:54:21Z</time>
      </trkpt>
      <trkpt lat="44.60682" lon="6.21941">
        <ele>1523.8</ele>
        <time>2022-09-11T11:54:22Z</time>
      </trkpt>
      <trkpt lat="44.6068" lon="6.21939">
        <ele>1524</ele>
        <time>2022-09-11T11:54:23Z</time>
      </trkpt>
      <trkpt lat="44.60677" lon="6.21936">
        <ele>1524.2</ele>
        <time>2022-09-11T11:54:25Z</time>
      </trkpt>
      <trkpt lat="44.60677" lon="6.21935">
        <ele>1524.3</ele>
        <time>2022-09-11T11:54:26Z</time>
      </trkpt>
      <trkpt lat="44.60674" lon="6.21932">
        <ele>1524.6</ele>
        <time>2022-09-11T11:54:27Z</time>
      </trkpt>
      <trkpt lat="44.60673" lon="6.21931">
        <ele>1524.7</ele>
        <time>2022-09-11T11:54:28Z</time>
      </trkpt>
      <trkpt lat="44.60671" lon="6.21928">
        <ele>1525</ele>
        <time>2022-09-11T11:54:29Z</time>
      </trkpt>
      <trkpt lat="44.6067" lon="6.21927">
        <ele>1525.1</ele>
        <time>2022-09-11T11:54:30Z</time>
      </trkpt>
      <trkpt lat="44.60668" lon="6.21923">
        <ele>1525.4</ele>
        <time>2022-09-11T11:54:31Z</time>
      </trkpt>
      <trkpt lat="44.60665" lon="6.21921">
        <ele>1525.6</ele>
        <time>2022-09-11T11:54:33Z</time>
      </trkpt>
      <trkpt lat="44.60665" lon="6.2192">
        <ele>1525.7</ele>
        <time>2022-09-11T11:54:34Z</time>
      </trkpt>
      <trkpt lat="44.60663" lon="6.21919">
        <ele>1525.8</ele>
        <time>2022-09-11T11:54:35Z</time>
      </trkpt>
      <trkpt lat="44.60662" lon="6.21918">
        <ele>1526</ele>
        <time>2022-09-11T11:54:36Z</time>
      </trkpt>
      <trkpt lat="44.60659" lon="6.21916">
        <ele>1526.2</ele>
        <time>2022-09-11T11:54:37Z</time>
      </trkpt>
      <trkpt lat="44.60659" lon="6.21915">
        <ele>1526.3</ele>
        <time>2022-09-11T11:54:38Z</time>
      </trkpt>
      <trkpt lat="44.60657" lon="6.21914">
        <ele>1526.4</ele>
        <time>2022-09-11T11:54:39Z</time>
      </trkpt>
      <trkpt lat="44.60655" lon="6.21914">
        <ele>1526.6</ele>
        <time>2022-09-11T11:54:40Z</time>
      </trkpt>
      <trkpt lat="44.60652" lon="6.21913">
        <ele>1526.8</ele>
        <time>2022-09-11T11:54:41Z</time>
      </trkpt>
      <trkpt lat="44.60651" lon="6.21913">
        <ele>1527</ele>
        <time>2022-09-11T11:54:42Z</time>
      </trkpt>
      <trkpt lat="44.60648" lon="6.21912">
        <ele>1527.2</ele>
        <time>2022-09-11T11:54:43Z</time>
      </trkpt>
      <trkpt lat="44.60645" lon="6.21912">
        <ele>1527.5</ele>
        <time>2022-09-11T11:54:45Z</time>
      </trkpt>
      <trkpt lat="44.60644" lon="6.21912">
        <ele>1527.6</ele>
        <time>2022-09-11T11:54:46Z</time>
      </trkpt>
      <trkpt lat="44.60641" lon="6.21911">
        <ele>1527.8</ele>
        <time>2022-09-11T11:54:47Z</time>
      </trkpt>
      <trkpt lat="44.6064" lon="6.2191">
        <ele>1527.9</ele>
        <time>2022-09-11T11:54:48Z</time>
      </trkpt>
      <trkpt lat="44.60636" lon="6.2191">
        <ele>1528.2</ele>
        <time>2022-09-11T11:54:49Z</time>
      </trkpt>
      <trkpt lat="44.60635" lon="6.2191">
        <ele>1528.3</ele>
        <time>2022-09-11T11:54:51Z</time>
      </trkpt>
      <trkpt lat="44.60633" lon="6.21909">
        <ele>1528.5</ele>
        <time>2022-09-11T11:54:52Z</time>
      </trkpt>
      <trkpt lat="44.6063" lon="6.21908">
        <ele>1528.7</ele>
        <time>2022-09-11T11:54:53Z</time>
      </trkpt>
      <trkpt lat="44.60629" lon="6.21907">
        <ele>1528.8</ele>
        <time>2022-09-11T11:54:54Z</time>
      </trkpt>
      <trkpt lat="44.60626" lon="6.21906">
        <ele>1529.1</ele>
        <time>2022-09-11T11:54:55Z</time>
      </trkpt>
      <trkpt lat="44.60622" lon="6.21905">
        <ele>1529.4</ele>
        <time>2022-09-11T11:54:57Z</time>
      </trkpt>
      <trkpt lat="44.6062" lon="6.21904">
        <ele>1529.6</ele>
        <time>2022-09-11T11:54:59Z</time>
      </trkpt>
      <trkpt lat="44.60619" lon="6.21904">
        <ele>1529.7</ele>
        <time>2022-09-11T11:55:00Z</time>
      </trkpt>
      <trkpt lat="44.60615" lon="6.21903">
        <ele>1530</ele>
        <time>2022-09-11T11:55:02Z</time>
      </trkpt>
      <trkpt lat="44.60614" lon="6.21902">
        <ele>1530.1</ele>
        <time>2022-09-11T11:55:03Z</time>
      </trkpt>
      <trkpt lat="44.60612" lon="6.21902">
        <ele>1530.2</ele>
        <time>2022-09-11T11:55:04Z</time>
      </trkpt>
      <trkpt lat="44.60611" lon="6.21901">
        <ele>1530.4</ele>
        <time>2022-09-11T11:55:05Z</time>
      </trkpt>
      <trkpt lat="44.60609" lon="6.219">
        <ele>1530.5</ele>
        <time>2022-09-11T11:55:06Z</time>
      </trkpt>
      <trkpt lat="44.60608" lon="6.219">
        <ele>1530.7</ele>
        <time>2022-09-11T11:55:07Z</time>
      </trkpt>
      <trkpt lat="44.60606" lon="6.21899">
        <ele>1530.8</ele>
        <time>2022-09-11T11:55:08Z</time>
      </trkpt>
      <trkpt lat="44.60603" lon="6.21899">
        <ele>1531.1</ele>
        <time>2022-09-11T11:55:09Z</time>
      </trkpt>
      <trkpt lat="44.60602" lon="6.21899">
        <ele>1531.1</ele>
        <time>2022-09-11T11:55:10Z</time>
      </trkpt>
      <trkpt lat="44.60601" lon="6.21899">
        <ele>1531.3</ele>
        <time>2022-09-11T11:55:11Z</time>
      </trkpt>
      <trkpt lat="44.60599" lon="6.21898">
        <ele>1531.4</ele>
        <time>2022-09-11T11:55:12Z</time>
      </trkpt>
      <trkpt lat="44.60597" lon="6.21898">
        <ele>1531.6</ele>
        <time>2022-09-11T11:55:13Z</time>
      </trkpt>
      <trkpt lat="44.60595" lon="6.21898">
        <ele>1531.7</ele>
        <time>2022-09-11T11:55:14Z</time>
      </trkpt>
      <trkpt lat="44.60592" lon="6.21898">
        <ele>1532</ele>
        <time>2022-09-11T11:55:15Z</time>
      </trkpt>
      <trkpt lat="44.60589" lon="6.21897">
        <ele>1532.3</ele>
        <time>2022-09-11T11:55:17Z</time>
      </trkpt>
      <trkpt lat="44.60588" lon="6.21896">
        <ele>1532.3</ele>
        <time>2022-09-11T11:55:18Z</time>
      </trkpt>
      <trkpt lat="44.60587" lon="6.21896">
        <ele>1532.5</ele>
        <time>2022-09-11T11:55:19Z</time>
      </trkpt>
      <trkpt lat="44.60585" lon="6.21895">
        <ele>1532.6</ele>
        <time>2022-09-11T11:55:20Z</time>
      </trkpt>
      <trkpt lat="44.60582" lon="6.21894">
        <ele>1532.8</ele>
        <time>2022-09-11T11:55:21Z</time>
      </trkpt>
      <trkpt lat="44.60582" lon="6.21894">
        <ele>1532.9</ele>
        <time>2022-09-11T11:55:22Z</time>
      </trkpt>
      <trkpt lat="44.60578" lon="6.21893">
        <ele>1533.2</ele>
        <time>2022-09-11T11:55:23Z</time>
      </trkpt>
      <trkpt lat="44.60577" lon="6.21893">
        <ele>1533.3</ele>
        <time>2022-09-11T11:55:24Z</time>
      </trkpt>
      <trkpt lat="44.60574" lon="6.21892">
        <ele>1533.5</ele>
        <time>2022-09-11T11:55:25Z</time>
      </trkpt>
      <trkpt lat="44.60573" lon="6.21891">
        <ele>1533.7</ele>
        <time>2022-09-11T11:55:26Z</time>
      </trkpt>
      <trkpt lat="44.6057" lon="6.21891">
        <ele>1533.9</ele>
        <time>2022-09-11T11:55:27Z</time>
      </trkpt>
      <trkpt lat="44.60568" lon="6.21889">
        <ele>1534.1</ele>
        <time>2022-09-11T11:55:29Z</time>
      </trkpt>
      <trkpt lat="44.60565" lon="6.21888">
        <ele>1534.5</ele>
        <time>2022-09-11T11:55:30Z</time>
      </trkpt>
      <trkpt lat="44.60564" lon="6.21888">
        <ele>1534.5</ele>
        <time>2022-09-11T11:55:31Z</time>
      </trkpt>
      <trkpt lat="44.60561" lon="6.21887">
        <ele>1534.8</ele>
        <time>2022-09-11T11:55:32Z</time>
      </trkpt>
      <trkpt lat="44.60558" lon="6.21887">
        <ele>1535.2</ele>
        <time>2022-09-11T11:55:33Z</time>
      </trkpt>
      <trkpt lat="44.60555" lon="6.21885">
        <ele>1535.4</ele>
        <time>2022-09-11T11:55:35Z</time>
      </trkpt>
      <trkpt lat="44.60552" lon="6.21885">
        <ele>1535.7</ele>
        <time>2022-09-11T11:55:36Z</time>
      </trkpt>
      <trkpt lat="44.60549" lon="6.21885">
        <ele>1536</ele>
        <time>2022-09-11T11:55:38Z</time>
      </trkpt>
      <trkpt lat="44.60546" lon="6.21884">
        <ele>1536.3</ele>
        <time>2022-09-11T11:55:39Z</time>
      </trkpt>
      <trkpt lat="44.60544" lon="6.21884">
        <ele>1536.5</ele>
        <time>2022-09-11T11:55:40Z</time>
      </trkpt>
      <trkpt lat="44.60542" lon="6.21883">
        <ele>1536.7</ele>
        <time>2022-09-11T11:55:41Z</time>
      </trkpt>
      <trkpt lat="44.60538" lon="6.21882">
        <ele>1537</ele>
        <time>2022-09-11T11:55:42Z</time>
      </trkpt>
      <trkpt lat="44.60538" lon="6.21882">
        <ele>1537.1</ele>
        <time>2022-09-11T11:55:43Z</time>
      </trkpt>
      <trkpt lat="44.60534" lon="6.21881">
        <ele>1537.5</ele>
        <time>2022-09-11T11:55:45Z</time>
      </trkpt>
      <trkpt lat="44.60532" lon="6.2188">
        <ele>1537.6</ele>
        <time>2022-09-11T11:55:46Z</time>
      </trkpt>
      <trkpt lat="44.60531" lon="6.2188">
        <ele>1537.8</ele>
        <time>2022-09-11T11:55:47Z</time>
      </trkpt>
      <trkpt lat="44.60527" lon="6.21879">
        <ele>1538.1</ele>
        <time>2022-09-11T11:55:48Z</time>
      </trkpt>
      <trkpt lat="44.60526" lon="6.21879">
        <ele>1538.2</ele>
        <time>2022-09-11T11:55:49Z</time>
      </trkpt>
      <trkpt lat="44.60523" lon="6.21878">
        <ele>1538.5</ele>
        <time>2022-09-11T11:55:50Z</time>
      </trkpt>
      <trkpt lat="44.60522" lon="6.21879">
        <ele>1538.6</ele>
        <time>2022-09-11T11:55:51Z</time>
      </trkpt>
      <trkpt lat="44.60518" lon="6.21878">
        <ele>1539</ele>
        <time>2022-09-11T11:55:52Z</time>
      </trkpt>
      <trkpt lat="44.60516" lon="6.21878">
        <ele>1539.2</ele>
        <time>2022-09-11T11:55:53Z</time>
      </trkpt>
      <trkpt lat="44.60513" lon="6.21877">
        <ele>1539.4</ele>
        <time>2022-09-11T11:55:55Z</time>
      </trkpt>
      <trkpt lat="44.6051" lon="6.21877">
        <ele>1539.8</ele>
        <time>2022-09-11T11:55:56Z</time>
      </trkpt>
      <trkpt lat="44.60509" lon="6.21878">
        <ele>1539.9</ele>
        <time>2022-09-11T11:55:57Z</time>
      </trkpt>
      <trkpt lat="44.60506" lon="6.21878">
        <ele>1540.2</ele>
        <time>2022-09-11T11:55:58Z</time>
      </trkpt>
      <trkpt lat="44.60505" lon="6.21878">
        <ele>1540.3</ele>
        <time>2022-09-11T11:55:59Z</time>
      </trkpt>
      <trkpt lat="44.60501" lon="6.21879">
        <ele>1540.6</ele>
        <time>2022-09-11T11:56:00Z</time>
      </trkpt>
      <trkpt lat="44.605" lon="6.21879">
        <ele>1540.7</ele>
        <time>2022-09-11T11:56:01Z</time>
      </trkpt>
      <trkpt lat="44.60497" lon="6.2188">
        <ele>1541.1</ele>
        <time>2022-09-11T11:56:02Z</time>
      </trkpt>
      <trkpt lat="44.60496" lon="6.2188">
        <ele>1541.2</ele>
        <time>2022-09-11T11:56:03Z</time>
      </trkpt>
      <trkpt lat="44.60493" lon="6.21882">
        <ele>1541.5</ele>
        <time>2022-09-11T11:56:04Z</time>
      </trkpt>
      <trkpt lat="44.60492" lon="6.21882">
        <ele>1541.6</ele>
        <time>2022-09-11T11:56:05Z</time>
      </trkpt>
      <trkpt lat="44.60489" lon="6.21884">
        <ele>1541.9</ele>
        <time>2022-09-11T11:56:06Z</time>
      </trkpt>
      <trkpt lat="44.60488" lon="6.21885">
        <ele>1542</ele>
        <time>2022-09-11T11:56:07Z</time>
      </trkpt>
      <trkpt lat="44.60484" lon="6.21887">
        <ele>1542.4</ele>
        <time>2022-09-11T11:56:08Z</time>
      </trkpt>
      <trkpt lat="44.60483" lon="6.21888">
        <ele>1542.5</ele>
        <time>2022-09-11T11:56:09Z</time>
      </trkpt>
      <trkpt lat="44.6048" lon="6.2189">
        <ele>1542.8</ele>
        <time>2022-09-11T11:56:11Z</time>
      </trkpt>
      <trkpt lat="44.6048" lon="6.21891">
        <ele>1542.9</ele>
        <time>2022-09-11T11:56:12Z</time>
      </trkpt>
      <trkpt lat="44.60476" lon="6.21893">
        <ele>1543.3</ele>
        <time>2022-09-11T11:56:13Z</time>
      </trkpt>
      <trkpt lat="44.60473" lon="6.21895">
        <ele>1543.6</ele>
        <time>2022-09-11T11:56:14Z</time>
      </trkpt>
      <trkpt lat="44.6047" lon="6.21898">
        <ele>1544</ele>
        <time>2022-09-11T11:56:16Z</time>
      </trkpt>
      <trkpt lat="44.60469" lon="6.21899">
        <ele>1544.1</ele>
        <time>2022-09-11T11:56:17Z</time>
      </trkpt>
      <trkpt lat="44.60466" lon="6.21902">
        <ele>1544.4</ele>
        <time>2022-09-11T11:56:18Z</time>
      </trkpt>
      <trkpt lat="44.60465" lon="6.21903">
        <ele>1544.6</ele>
        <time>2022-09-11T11:56:19Z</time>
      </trkpt>
      <trkpt lat="44.60462" lon="6.21905">
        <ele>1544.9</ele>
        <time>2022-09-11T11:56:20Z</time>
      </trkpt>
      <trkpt lat="44.60461" lon="6.21906">
        <ele>1545</ele>
        <time>2022-09-11T11:56:21Z</time>
      </trkpt>
      <trkpt lat="44.60456" lon="6.21909">
        <ele>1545.5</ele>
        <time>2022-09-11T11:56:22Z</time>
      </trkpt>
      <trkpt lat="44.60454" lon="6.2191">
        <ele>1545.7</ele>
        <time>2022-09-11T11:56:23Z</time>
      </trkpt>
      <trkpt lat="44.60452" lon="6.21912">
        <ele>1545.9</ele>
        <time>2022-09-11T11:56:25Z</time>
      </trkpt>
      <trkpt lat="44.60449" lon="6.21914">
        <ele>1546.2</ele>
        <time>2022-09-11T11:56:26Z</time>
      </trkpt>
      <trkpt lat="44.60448" lon="6.21914">
        <ele>1546.4</ele>
        <time>2022-09-11T11:56:27Z</time>
      </trkpt>
      <trkpt lat="44.60445" lon="6.21916">
        <ele>1546.7</ele>
        <time>2022-09-11T11:56:28Z</time>
      </trkpt>
      <trkpt lat="44.60444" lon="6.21917">
        <ele>1546.8</ele>
        <time>2022-09-11T11:56:29Z</time>
      </trkpt>
      <trkpt lat="44.60441" lon="6.21919">
        <ele>1547.2</ele>
        <time>2022-09-11T11:56:30Z</time>
      </trkpt>
      <trkpt lat="44.6044" lon="6.2192">
        <ele>1547.3</ele>
        <time>2022-09-11T11:56:31Z</time>
      </trkpt>
      <trkpt lat="44.60436" lon="6.21922">
        <ele>1547.8</ele>
        <time>2022-09-11T11:56:32Z</time>
      </trkpt>
      <trkpt lat="44.60431" lon="6.21924">
        <ele>1548.4</ele>
        <time>2022-09-11T11:56:34Z</time>
      </trkpt>
      <trkpt lat="44.60427" lon="6.21925">
        <ele>1548.8</ele>
        <time>2022-09-11T11:56:36Z</time>
      </trkpt>
      <trkpt lat="44.60426" lon="6.21925">
        <ele>1548.9</ele>
        <time>2022-09-11T11:56:37Z</time>
      </trkpt>
      <trkpt lat="44.60423" lon="6.21926">
        <ele>1549.3</ele>
        <time>2022-09-11T11:56:38Z</time>
      </trkpt>
      <trkpt lat="44.60422" lon="6.21926">
        <ele>1549.5</ele>
        <time>2022-09-11T11:56:39Z</time>
      </trkpt>
      <trkpt lat="44.60419" lon="6.21927">
        <ele>1549.8</ele>
        <time>2022-09-11T11:56:40Z</time>
      </trkpt>
      <trkpt lat="44.60418" lon="6.21928">
        <ele>1549.9</ele>
        <time>2022-09-11T11:56:41Z</time>
      </trkpt>
      <trkpt lat="44.60415" lon="6.21928">
        <ele>1550.3</ele>
        <time>2022-09-11T11:56:42Z</time>
      </trkpt>
      <trkpt lat="44.60413" lon="6.21928">
        <ele>1550.5</ele>
        <time>2022-09-11T11:56:43Z</time>
      </trkpt>
      <trkpt lat="44.60411" lon="6.21928">
        <ele>1550.7</ele>
        <time>2022-09-11T11:56:44Z</time>
      </trkpt>
      <trkpt lat="44.60407" lon="6.21928">
        <ele>1550.8</ele>
        <time>2022-09-11T11:56:46Z</time>
      </trkpt>
      <trkpt lat="44.60404" lon="6.21929">
        <ele>1550.8</ele>
        <time>2022-09-11T11:56:47Z</time>
      </trkpt>
      <trkpt lat="44.604" lon="6.2193">
        <ele>1551</ele>
        <time>2022-09-11T11:56:49Z</time>
      </trkpt>
      <trkpt lat="44.60399" lon="6.2193">
        <ele>1551.1</ele>
        <time>2022-09-11T11:56:50Z</time>
      </trkpt>
      <trkpt lat="44.60396" lon="6.2193">
        <ele>1551.3</ele>
        <time>2022-09-11T11:56:51Z</time>
      </trkpt>
      <trkpt lat="44.60393" lon="6.21931">
        <ele>1551.5</ele>
        <time>2022-09-11T11:56:52Z</time>
      </trkpt>
      <trkpt lat="44.60389" lon="6.21931">
        <ele>1551.8</ele>
        <time>2022-09-11T11:56:53Z</time>
      </trkpt>
      <trkpt lat="44.60388" lon="6.2193">
        <ele>1551.9</ele>
        <time>2022-09-11T11:56:54Z</time>
      </trkpt>
      <trkpt lat="44.60385" lon="6.2193">
        <ele>1552.2</ele>
        <time>2022-09-11T11:56:55Z</time>
      </trkpt>
      <trkpt lat="44.60381" lon="6.21932">
        <ele>1552.5</ele>
        <time>2022-09-11T11:56:57Z</time>
      </trkpt>
      <trkpt lat="44.60379" lon="6.21932">
        <ele>1552.6</ele>
        <time>2022-09-11T11:56:58Z</time>
      </trkpt>
      <trkpt lat="44.60376" lon="6.21932">
        <ele>1552.8</ele>
        <time>2022-09-11T11:56:59Z</time>
      </trkpt>
      <trkpt lat="44.60372" lon="6.21932">
        <ele>1553.1</ele>
        <time>2022-09-11T11:57:01Z</time>
      </trkpt>
      <trkpt lat="44.60371" lon="6.21932">
        <ele>1553.2</ele>
        <time>2022-09-11T11:57:02Z</time>
      </trkpt>
      <trkpt lat="44.60367" lon="6.21933">
        <ele>1553.5</ele>
        <time>2022-09-11T11:57:03Z</time>
      </trkpt>
      <trkpt lat="44.60364" lon="6.21934">
        <ele>1553.7</ele>
        <time>2022-09-11T11:57:04Z</time>
      </trkpt>
      <trkpt lat="44.60362" lon="6.21934">
        <ele>1553.9</ele>
        <time>2022-09-11T11:57:06Z</time>
      </trkpt>
      <trkpt lat="44.60358" lon="6.21935">
        <ele>1554.2</ele>
        <time>2022-09-11T11:57:07Z</time>
      </trkpt>
      <trkpt lat="44.60357" lon="6.21935">
        <ele>1554.2</ele>
        <time>2022-09-11T11:57:08Z</time>
      </trkpt>
      <trkpt lat="44.60354" lon="6.21935">
        <ele>1554.5</ele>
        <time>2022-09-11T11:57:09Z</time>
      </trkpt>
      <trkpt lat="44.60353" lon="6.21935">
        <ele>1554.6</ele>
        <time>2022-09-11T11:57:10Z</time>
      </trkpt>
      <trkpt lat="44.6035" lon="6.21935">
        <ele>1554.8</ele>
        <time>2022-09-11T11:57:11Z</time>
      </trkpt>
      <trkpt lat="44.60348" lon="6.21935">
        <ele>1554.9</ele>
        <time>2022-09-11T11:57:12Z</time>
      </trkpt>
      <trkpt lat="44.60345" lon="6.21936">
        <ele>1555.1</ele>
        <time>2022-09-11T11:57:13Z</time>
      </trkpt>
      <trkpt lat="44.60344" lon="6.21936">
        <ele>1555.2</ele>
        <time>2022-09-11T11:57:14Z</time>
      </trkpt>
      <trkpt lat="44.60339" lon="6.21937">
        <ele>1555.5</ele>
        <time>2022-09-11T11:57:15Z</time>
      </trkpt>
      <trkpt lat="44.60335" lon="6.21938">
        <ele>1555.9</ele>
        <time>2022-09-11T11:57:17Z</time>
      </trkpt>
      <trkpt lat="44.60333" lon="6.21938">
        <ele>1556</ele>
        <time>2022-09-11T11:57:18Z</time>
      </trkpt>
      <trkpt lat="44.60331" lon="6.21938">
        <ele>1556.1</ele>
        <time>2022-09-11T11:57:19Z</time>
      </trkpt>
      <trkpt lat="44.60328" lon="6.21938">
        <ele>1556.4</ele>
        <time>2022-09-11T11:57:20Z</time>
      </trkpt>
      <trkpt lat="44.60326" lon="6.21939">
        <ele>1556.5</ele>
        <time>2022-09-11T11:57:21Z</time>
      </trkpt>
      <trkpt lat="44.60323" lon="6.2194">
        <ele>1556.7</ele>
        <time>2022-09-11T11:57:23Z</time>
      </trkpt>
      <trkpt lat="44.6032" lon="6.2194">
        <ele>1556.9</ele>
        <time>2022-09-11T11:57:24Z</time>
      </trkpt>
      <trkpt lat="44.60316" lon="6.2194">
        <ele>1557.1</ele>
        <time>2022-09-11T11:57:25Z</time>
      </trkpt>
      <trkpt lat="44.60315" lon="6.21941">
        <ele>1557.3</ele>
        <time>2022-09-11T11:57:26Z</time>
      </trkpt>
      <trkpt lat="44.6031" lon="6.21942">
        <ele>1557.6</ele>
        <time>2022-09-11T11:57:28Z</time>
      </trkpt>
      <trkpt lat="44.60309" lon="6.21942">
        <ele>1557.7</ele>
        <time>2022-09-11T11:57:29Z</time>
      </trkpt>
      <trkpt lat="44.60306" lon="6.21943">
        <ele>1557.9</ele>
        <time>2022-09-11T11:57:30Z</time>
      </trkpt>
      <trkpt lat="44.60302" lon="6.21943">
        <ele>1558.1</ele>
        <time>2022-09-11T11:57:32Z</time>
      </trkpt>
      <trkpt lat="44.60301" lon="6.21944">
        <ele>1558.2</ele>
        <time>2022-09-11T11:57:33Z</time>
      </trkpt>
      <trkpt lat="44.60297" lon="6.21945">
        <ele>1558.5</ele>
        <time>2022-09-11T11:57:34Z</time>
      </trkpt>
      <trkpt lat="44.60293" lon="6.21946">
        <ele>1558.7</ele>
        <time>2022-09-11T11:57:36Z</time>
      </trkpt>
      <trkpt lat="44.60289" lon="6.21946">
        <ele>1559</ele>
        <time>2022-09-11T11:57:37Z</time>
      </trkpt>
      <trkpt lat="44.60285" lon="6.21947">
        <ele>1559.2</ele>
        <time>2022-09-11T11:57:38Z</time>
      </trkpt>
      <trkpt lat="44.60282" lon="6.21948">
        <ele>1559.4</ele>
        <time>2022-09-11T11:57:40Z</time>
      </trkpt>
      <trkpt lat="44.60278" lon="6.21949">
        <ele>1559.7</ele>
        <time>2022-09-11T11:57:41Z</time>
      </trkpt>
      <trkpt lat="44.60274" lon="6.2195">
        <ele>1559.9</ele>
        <time>2022-09-11T11:57:42Z</time>
      </trkpt>
      <trkpt lat="44.60271" lon="6.21951">
        <ele>1560.1</ele>
        <time>2022-09-11T11:57:44Z</time>
      </trkpt>
      <trkpt lat="44.60266" lon="6.21952">
        <ele>1560.3</ele>
        <time>2022-09-11T11:57:45Z</time>
      </trkpt>
      <trkpt lat="44.60263" lon="6.21954">
        <ele>1560.6</ele>
        <time>2022-09-11T11:57:46Z</time>
      </trkpt>
      <trkpt lat="44.6026" lon="6.21954">
        <ele>1560.7</ele>
        <time>2022-09-11T11:57:48Z</time>
      </trkpt>
      <trkpt lat="44.60257" lon="6.21955">
        <ele>1560.9</ele>
        <time>2022-09-11T11:57:49Z</time>
      </trkpt>
      <trkpt lat="44.60252" lon="6.21955">
        <ele>1561.2</ele>
        <time>2022-09-11T11:57:50Z</time>
      </trkpt>
      <trkpt lat="44.60248" lon="6.21957">
        <ele>1561.4</ele>
        <time>2022-09-11T11:57:51Z</time>
      </trkpt>
      <trkpt lat="44.60246" lon="6.21957">
        <ele>1561.5</ele>
        <time>2022-09-11T11:57:52Z</time>
      </trkpt>
      <trkpt lat="44.60239" lon="6.2196">
        <ele>1561.9</ele>
        <time>2022-09-11T11:57:54Z</time>
      </trkpt>
      <trkpt lat="44.60236" lon="6.2196">
        <ele>1562</ele>
        <time>2022-09-11T11:57:56Z</time>
      </trkpt>
      <trkpt lat="44.60232" lon="6.2196">
        <ele>1562.3</ele>
        <time>2022-09-11T11:57:57Z</time>
      </trkpt>
      <trkpt lat="44.60228" lon="6.21961">
        <ele>1562.5</ele>
        <time>2022-09-11T11:57:58Z</time>
      </trkpt>
      <trkpt lat="44.60227" lon="6.21962">
        <ele>1562.5</ele>
        <time>2022-09-11T11:57:59Z</time>
      </trkpt>
      <trkpt lat="44.60226" lon="6.21963">
        <ele>1562.6</ele>
        <time>2022-09-11T11:58:01Z</time>
      </trkpt>
      <trkpt lat="44.60225" lon="6.21962">
        <ele>1562.7</ele>
        <time>2022-09-11T11:58:02Z</time>
      </trkpt>
      <trkpt lat="44.60223" lon="6.21963">
        <ele>1562.7</ele>
        <time>2022-09-11T11:58:03Z</time>
      </trkpt>
      <trkpt lat="44.6022" lon="6.21964">
        <ele>1562.9</ele>
        <time>2022-09-11T11:58:04Z</time>
      </trkpt>
      <trkpt lat="44.60218" lon="6.21965">
        <ele>1563</ele>
        <time>2022-09-11T11:58:05Z</time>
      </trkpt>
      <trkpt lat="44.60215" lon="6.21966">
        <ele>1563.2</ele>
        <time>2022-09-11T11:58:06Z</time>
      </trkpt>
      <trkpt lat="44.60215" lon="6.21966">
        <ele>1563.2</ele>
        <time>2022-09-11T11:58:08Z</time>
      </trkpt>
      <trkpt lat="44.60214" lon="6.21966">
        <ele>1563.2</ele>
        <time>2022-09-11T11:58:09Z</time>
      </trkpt>
      <trkpt lat="44.60214" lon="6.21967">
        <ele>1563.3</ele>
        <time>2022-09-11T11:58:10Z</time>
      </trkpt>
      <trkpt lat="44.60213" lon="6.21967">
        <ele>1563.3</ele>
        <time>2022-09-11T11:58:11Z</time>
      </trkpt>
      <trkpt lat="44.60213" lon="6.21968">
        <ele>1563.3</ele>
        <time>2022-09-11T11:58:12Z</time>
      </trkpt>
      <trkpt lat="44.60212" lon="6.21968">
        <ele>1563.3</ele>
        <time>2022-09-11T11:58:13Z</time>
      </trkpt>
      <trkpt lat="44.60211" lon="6.21968">
        <ele>1563.4</ele>
        <time>2022-09-11T11:58:14Z</time>
      </trkpt>
      <trkpt lat="44.60211" lon="6.21969">
        <ele>1563.4</ele>
        <time>2022-09-11T11:58:15Z</time>
      </trkpt>
      <trkpt lat="44.6021" lon="6.21969">
        <ele>1563.4</ele>
        <time>2022-09-11T11:58:16Z</time>
      </trkpt>
      <trkpt lat="44.6021" lon="6.2197">
        <ele>1563.5</ele>
        <time>2022-09-11T11:58:17Z</time>
      </trkpt>
      <trkpt lat="44.60209" lon="6.2197">
        <ele>1563.5</ele>
        <time>2022-09-11T11:58:18Z</time>
      </trkpt>
      <trkpt lat="44.60209" lon="6.21971">
        <ele>1563.5</ele>
        <time>2022-09-11T11:58:44Z</time>
      </trkpt>
      <trkpt lat="44.60208" lon="6.21971">
        <ele>1563.6</ele>
        <time>2022-09-11T11:58:45Z</time>
      </trkpt>
      <trkpt lat="44.60203" lon="6.21973">
        <ele>1563.8</ele>
        <time>2022-09-11T11:58:47Z</time>
      </trkpt>
      <trkpt lat="44.60201" lon="6.21974">
        <ele>1563.9</ele>
        <time>2022-09-11T11:58:48Z</time>
      </trkpt>
      <trkpt lat="44.60197" lon="6.21976">
        <ele>1564.1</ele>
        <time>2022-09-11T11:58:50Z</time>
      </trkpt>
      <trkpt lat="44.60194" lon="6.21976">
        <ele>1564.3</ele>
        <time>2022-09-11T11:58:51Z</time>
      </trkpt>
      <trkpt lat="44.6019" lon="6.21978">
        <ele>1564.4</ele>
        <time>2022-09-11T11:58:52Z</time>
      </trkpt>
      <trkpt lat="44.60183" lon="6.2198">
        <ele>1564.7</ele>
        <time>2022-09-11T11:58:53Z</time>
      </trkpt>
      <trkpt lat="44.60177" lon="6.21982">
        <ele>1565</ele>
        <time>2022-09-11T11:58:55Z</time>
      </trkpt>
      <trkpt lat="44.60173" lon="6.21983">
        <ele>1565.2</ele>
        <time>2022-09-11T11:58:57Z</time>
      </trkpt>
      <trkpt lat="44.60169" lon="6.21984">
        <ele>1565.3</ele>
        <time>2022-09-11T11:58:58Z</time>
      </trkpt>
      <trkpt lat="44.60166" lon="6.21986">
        <ele>1565.5</ele>
        <time>2022-09-11T11:58:59Z</time>
      </trkpt>
      <trkpt lat="44.60162" lon="6.21987">
        <ele>1565.6</ele>
        <time>2022-09-11T11:59:00Z</time>
      </trkpt>
      <trkpt lat="44.60159" lon="6.21988">
        <ele>1565.7</ele>
        <time>2022-09-11T11:59:01Z</time>
      </trkpt>
      <trkpt lat="44.60153" lon="6.21989">
        <ele>1566</ele>
        <time>2022-09-11T11:59:02Z</time>
      </trkpt>
      <trkpt lat="44.60148" lon="6.21991">
        <ele>1566.2</ele>
        <time>2022-09-11T11:59:03Z</time>
      </trkpt>
      <trkpt lat="44.60145" lon="6.21992">
        <ele>1566.3</ele>
        <time>2022-09-11T11:59:05Z</time>
      </trkpt>
      <trkpt lat="44.60142" lon="6.21994">
        <ele>1566.4</ele>
        <time>2022-09-11T11:59:06Z</time>
      </trkpt>
      <trkpt lat="44.60138" lon="6.21995">
        <ele>1566.5</ele>
        <time>2022-09-11T11:59:07Z</time>
      </trkpt>
      <trkpt lat="44.60134" lon="6.21996">
        <ele>1566.7</ele>
        <time>2022-09-11T11:59:08Z</time>
      </trkpt>
      <trkpt lat="44.60131" lon="6.21998">
        <ele>1566.8</ele>
        <time>2022-09-11T11:59:09Z</time>
      </trkpt>
      <trkpt lat="44.60125" lon="6.22001">
        <ele>1567</ele>
        <time>2022-09-11T11:59:10Z</time>
      </trkpt>
      <trkpt lat="44.6012" lon="6.22003">
        <ele>1567.2</ele>
        <time>2022-09-11T11:59:11Z</time>
      </trkpt>
      <trkpt lat="44.60116" lon="6.22005">
        <ele>1567.3</ele>
        <time>2022-09-11T11:59:13Z</time>
      </trkpt>
      <trkpt lat="44.60112" lon="6.22008">
        <ele>1567.4</ele>
        <time>2022-09-11T11:59:14Z</time>
      </trkpt>
      <trkpt lat="44.60108" lon="6.22009">
        <ele>1567.5</ele>
        <time>2022-09-11T11:59:15Z</time>
      </trkpt>
      <trkpt lat="44.60104" lon="6.22011">
        <ele>1567.5</ele>
        <time>2022-09-11T11:59:16Z</time>
      </trkpt>
      <trkpt lat="44.601" lon="6.22013">
        <ele>1567.6</ele>
        <time>2022-09-11T11:59:17Z</time>
      </trkpt>
      <trkpt lat="44.60092" lon="6.22018">
        <ele>1567.6</ele>
        <time>2022-09-11T11:59:18Z</time>
      </trkpt>
      <trkpt lat="44.60088" lon="6.2202">
        <ele>1567.6</ele>
        <time>2022-09-11T11:59:20Z</time>
      </trkpt>
      <trkpt lat="44.60084" lon="6.22023">
        <ele>1567.6</ele>
        <time>2022-09-11T11:59:21Z</time>
      </trkpt>
      <trkpt lat="44.6008" lon="6.22026">
        <ele>1567.6</ele>
        <time>2022-09-11T11:59:22Z</time>
      </trkpt>
      <trkpt lat="44.60076" lon="6.22028">
        <ele>1567.6</ele>
        <time>2022-09-11T11:59:23Z</time>
      </trkpt>
      <trkpt lat="44.60072" lon="6.22031">
        <ele>1567.5</ele>
        <time>2022-09-11T11:59:24Z</time>
      </trkpt>
      <trkpt lat="44.60068" lon="6.22034">
        <ele>1567.3</ele>
        <time>2022-09-11T11:59:25Z</time>
      </trkpt>
      <trkpt lat="44.60063" lon="6.22037">
        <ele>1567.2</ele>
        <time>2022-09-11T11:59:26Z</time>
      </trkpt>
      <trkpt lat="44.60058" lon="6.2204">
        <ele>1567.1</ele>
        <time>2022-09-11T11:59:27Z</time>
      </trkpt>
      <trkpt lat="44.60053" lon="6.22043">
        <ele>1566.9</ele>
        <time>2022-09-11T11:59:28Z</time>
      </trkpt>
      <trkpt lat="44.60048" lon="6.22046">
        <ele>1566.7</ele>
        <time>2022-09-11T11:59:29Z</time>
      </trkpt>
      <trkpt lat="44.60043" lon="6.22049">
        <ele>1566.6</ele>
        <time>2022-09-11T11:59:30Z</time>
      </trkpt>
      <trkpt lat="44.60037" lon="6.22052">
        <ele>1566.4</ele>
        <time>2022-09-11T11:59:31Z</time>
      </trkpt>
      <trkpt lat="44.60031" lon="6.22056">
        <ele>1566.2</ele>
        <time>2022-09-11T11:59:32Z</time>
      </trkpt>
      <trkpt lat="44.60026" lon="6.22059">
        <ele>1566.1</ele>
        <time>2022-09-11T11:59:33Z</time>
      </trkpt>
      <trkpt lat="44.60021" lon="6.22062">
        <ele>1565.9</ele>
        <time>2022-09-11T11:59:34Z</time>
      </trkpt>
      <trkpt lat="44.60018" lon="6.22062">
        <ele>1565.9</ele>
        <time>2022-09-11T11:59:35Z</time>
      </trkpt>
      <trkpt lat="44.60016" lon="6.22061">
        <ele>1565.8</ele>
        <time>2022-09-11T11:59:36Z</time>
      </trkpt>
      <trkpt lat="44.60016" lon="6.2206">
        <ele>1565.8</ele>
        <time>2022-09-11T11:59:37Z</time>
      </trkpt>
      <trkpt lat="44.60015" lon="6.22059">
        <ele>1565.8</ele>
        <time>2022-09-11T11:59:38Z</time>
      </trkpt>
      <trkpt lat="44.60013" lon="6.22056">
        <ele>1565.7</ele>
        <time>2022-09-11T11:59:39Z</time>
      </trkpt>
      <trkpt lat="44.6001" lon="6.22053">
        <ele>1565.7</ele>
        <time>2022-09-11T11:59:40Z</time>
      </trkpt>
      <trkpt lat="44.60007" lon="6.22047">
        <ele>1565.7</ele>
        <time>2022-09-11T11:59:41Z</time>
      </trkpt>
      <trkpt lat="44.60005" lon="6.22044">
        <ele>1565.7</ele>
        <time>2022-09-11T11:59:42Z</time>
      </trkpt>
      <trkpt lat="44.60004" lon="6.2204">
        <ele>1565.7</ele>
        <time>2022-09-11T11:59:43Z</time>
      </trkpt>
      <trkpt lat="44.60003" lon="6.22034">
        <ele>1565.7</ele>
        <time>2022-09-11T11:59:45Z</time>
      </trkpt>
      <trkpt lat="44.60001" lon="6.22027">
        <ele>1565.7</ele>
        <time>2022-09-11T11:59:46Z</time>
      </trkpt>
      <trkpt lat="44.59999" lon="6.22025">
        <ele>1565.8</ele>
        <time>2022-09-11T11:59:48Z</time>
      </trkpt>
      <trkpt lat="44.59997" lon="6.22021">
        <ele>1565.8</ele>
        <time>2022-09-11T11:59:49Z</time>
      </trkpt>
      <trkpt lat="44.59996" lon="6.22019">
        <ele>1565.8</ele>
        <time>2022-09-11T11:59:50Z</time>
      </trkpt>
      <trkpt lat="44.59995" lon="6.22017">
        <ele>1565.9</ele>
        <time>2022-09-11T11:59:51Z</time>
      </trkpt>
      <trkpt lat="44.59995" lon="6.22015">
        <ele>1565.9</ele>
        <time>2022-09-11T11:59:53Z</time>
      </trkpt>
      <trkpt lat="44.59994" lon="6.22014">
        <ele>1565.9</ele>
        <time>2022-09-11T11:59:54Z</time>
      </trkpt>
      <trkpt lat="44.59994" lon="6.22012">
        <ele>1565.9</ele>
        <time>2022-09-11T11:59:55Z</time>
      </trkpt>
      <trkpt lat="44.59994" lon="6.22009">
        <ele>1566</ele>
        <time>2022-09-11T11:59:57Z</time>
      </trkpt>
      <trkpt lat="44.59993" lon="6.2201">
        <ele>1566</ele>
        <time>2022-09-11T11:59:58Z</time>
      </trkpt>
      <trkpt lat="44.59993" lon="6.22011">
        <ele>1566</ele>
        <time>2022-09-11T11:59:59Z</time>
      </trkpt>
      <trkpt lat="44.59993" lon="6.22012">
        <ele>1566</ele>
        <time>2022-09-11T12:00:00Z</time>
      </trkpt>
      <trkpt lat="44.59993" lon="6.22012">
        <ele>1566</ele>
        <time>2022-09-11T12:00:01Z</time>
      </trkpt>
      <trkpt lat="44.59993" lon="6.22012">
        <ele>1566</ele>
        <time>2022-09-11T12:00:02Z</time>
      </trkpt>
      <trkpt lat="44.59992" lon="6.22012">
        <ele>1566</ele>
        <time>2022-09-11T12:00:03Z</time>
      </trkpt>
      <trkpt lat="44.59992" lon="6.22012">
        <ele>1566</ele>
        <time>2022-09-11T12:00:04Z</time>
      </trkpt>
      <trkpt lat="44.59992" lon="6.22011">
        <ele>1566</ele>
        <time>2022-09-11T12:00:05Z</time>
      </trkpt>
      <trkpt lat="44.59991" lon="6.22011">
        <ele>1566</ele>
        <time>2022-09-11T12:00:06Z</time>
      </trkpt>
      <trkpt lat="44.5999" lon="6.22011">
        <ele>1566</ele>
        <time>2022-09-11T12:00:07Z</time>
      </trkpt>
      <trkpt lat="44.59989" lon="6.22011">
        <ele>1566.1</ele>
        <time>2022-09-11T12:00:08Z</time>
      </trkpt>
      <trkpt lat="44.59988" lon="6.22011">
        <ele>1566.1</ele>
        <time>2022-09-11T12:00:10Z</time>
      </trkpt>
      <trkpt lat="44.59988" lon="6.22011">
        <ele>1566.1</ele>
        <time>2022-09-11T12:00:11Z</time>
      </trkpt>
      <trkpt lat="44.59988" lon="6.22011">
        <ele>1566.1</ele>
        <time>2022-09-11T12:00:12Z</time>
      </trkpt>
      <trkpt lat="44.59988" lon="6.22011">
        <ele>1566.1</ele>
        <time>2022-09-11T12:00:13Z</time>
      </trkpt>
      <trkpt lat="44.59988" lon="6.22011">
        <ele>1566.1</ele>
        <time>2022-09-11T12:00:14Z</time>
      </trkpt>
      <trkpt lat="44.59988" lon="6.22012">
        <ele>1566.1</ele>
        <time>2022-09-11T12:00:15Z</time>
      </trkpt>
      <trkpt lat="44.59988" lon="6.22012">
        <ele>1566.1</ele>
        <time>2022-09-11T12:00:16Z</time>
      </trkpt>
      <trkpt lat="44.59988" lon="6.22012">
        <ele>1566.1</ele>
        <time>2022-09-11T12:00:17Z</time>
      </trkpt>
      <trkpt lat="44.59988" lon="6.22012">
        <ele>1566.1</ele>
        <time>2022-09-11T12:00:18Z</time>
      </trkpt>
      <trkpt lat="44.59988" lon="6.22012">
        <ele>1566.1</ele>
        <time>2022-09-11T12:00:19Z</time>
      </trkpt>
      <trkpt lat="44.59988" lon="6.22012">
        <ele>1566.1</ele>
        <time>2022-09-11T12:00:20Z</time>
      </trkpt>
      <trkpt lat="44.59988" lon="6.22012">
        <ele>1566.1</ele>
        <time>2022-09-11T12:00:21Z</time>
      </trkpt>
    </trkseg>
  </trk>
</gpx>